<?xml version="1.0" encoding="UTF-8" standalone="no" ?>
<gpx xmlns="http://www.topografix.com/GPX/1/1" xmlns:xsi="http://www.w3.org/2001/XMLSchema-instance" xsi:schemaLocation="http://www.topografix.com/GPX/1/1 http://www.topografix.com/GPX/1/1/gpx.xsd" version="1.1" creator="VisuGPX - https://www.visugpx.com">
  <metadata>
    <name>VTT</name>
  </metadata>
  <trk>
    <name><![CDATA[VTT_1]]></name>
    <trkseg>
      <trkpt lat="49.39166" lon="1.0382">
        <ele>39</ele>
        <time>2019-12-30T12:32:58.000Z</time>
      </trkpt>
      <trkpt lat="49.39166" lon="1.0382">
        <ele>39</ele>
        <time>2019-12-30T12:32:58.000Z</time>
      </trkpt>
      <trkpt lat="49.39166" lon="1.0382">
        <ele>39</ele>
        <time>2019-12-30T12:32:58.000Z</time>
      </trkpt>
      <trkpt lat="49.39166" lon="1.0382">
        <ele>39</ele>
        <time>2019-12-30T12:32:58.000Z</time>
      </trkpt>
      <trkpt lat="49.39165" lon="1.03816">
        <ele>39</ele>
        <time>2019-12-30T12:32:59.000Z</time>
      </trkpt>
      <trkpt lat="49.39164" lon="1.03813">
        <ele>40</ele>
        <time>2019-12-30T12:33:00.000Z</time>
      </trkpt>
      <trkpt lat="49.39164" lon="1.03809">
        <ele>40</ele>
        <time>2019-12-30T12:33:01.000Z</time>
      </trkpt>
      <trkpt lat="49.39164" lon="1.03807">
        <ele>41</ele>
        <time>2019-12-30T12:33:02.000Z</time>
      </trkpt>
      <trkpt lat="49.39164" lon="1.03805">
        <ele>42</ele>
        <time>2019-12-30T12:33:03.000Z</time>
      </trkpt>
      <trkpt lat="49.39163" lon="1.03804">
        <ele>42</ele>
        <time>2019-12-30T12:33:04.000Z</time>
      </trkpt>
      <trkpt lat="49.39163" lon="1.03804">
        <ele>42</ele>
        <time>2019-12-30T12:33:05.000Z</time>
      </trkpt>
      <trkpt lat="49.39161" lon="1.03798">
        <ele>45</ele>
        <time>2019-12-30T12:33:06.000Z</time>
      </trkpt>
      <trkpt lat="49.39158" lon="1.03795">
        <ele>45</ele>
        <time>2019-12-30T12:33:07.000Z</time>
      </trkpt>
      <trkpt lat="49.39156" lon="1.03793">
        <ele>45</ele>
        <time>2019-12-30T12:33:08.000Z</time>
      </trkpt>
      <trkpt lat="49.39152" lon="1.03792">
        <ele>45</ele>
        <time>2019-12-30T12:33:09.000Z</time>
      </trkpt>
      <trkpt lat="49.39149" lon="1.03792">
        <ele>45</ele>
        <time>2019-12-30T12:33:10.000Z</time>
      </trkpt>
      <trkpt lat="49.39145" lon="1.03793">
        <ele>46</ele>
        <time>2019-12-30T12:33:11.000Z</time>
      </trkpt>
      <trkpt lat="49.39142" lon="1.03796">
        <ele>46</ele>
        <time>2019-12-30T12:33:12.000Z</time>
      </trkpt>
      <trkpt lat="49.3914" lon="1.038">
        <ele>46</ele>
        <time>2019-12-30T12:33:13.000Z</time>
      </trkpt>
      <trkpt lat="49.39139" lon="1.03805">
        <ele>46</ele>
        <time>2019-12-30T12:33:14.000Z</time>
      </trkpt>
      <trkpt lat="49.39138" lon="1.0381">
        <ele>46</ele>
        <time>2019-12-30T12:33:15.000Z</time>
      </trkpt>
      <trkpt lat="49.39137" lon="1.03816">
        <ele>46</ele>
        <time>2019-12-30T12:33:16.000Z</time>
      </trkpt>
      <trkpt lat="49.39136" lon="1.03821">
        <ele>47</ele>
        <time>2019-12-30T12:33:17.000Z</time>
      </trkpt>
      <trkpt lat="49.39135" lon="1.03827">
        <ele>47</ele>
        <time>2019-12-30T12:33:18.000Z</time>
      </trkpt>
      <trkpt lat="49.39133" lon="1.03832">
        <ele>47</ele>
        <time>2019-12-30T12:33:19.000Z</time>
      </trkpt>
      <trkpt lat="49.39131" lon="1.03836">
        <ele>47</ele>
        <time>2019-12-30T12:33:20.000Z</time>
      </trkpt>
      <trkpt lat="49.39129" lon="1.03841">
        <ele>47</ele>
        <time>2019-12-30T12:33:21.000Z</time>
      </trkpt>
      <trkpt lat="49.39126" lon="1.03846">
        <ele>48</ele>
        <time>2019-12-30T12:33:22.000Z</time>
      </trkpt>
      <trkpt lat="49.39124" lon="1.0385">
        <ele>48</ele>
        <time>2019-12-30T12:33:23.000Z</time>
      </trkpt>
      <trkpt lat="49.39122" lon="1.03855">
        <ele>48</ele>
        <time>2019-12-30T12:33:24.000Z</time>
      </trkpt>
      <trkpt lat="49.39119" lon="1.03859">
        <ele>49</ele>
        <time>2019-12-30T12:33:25.000Z</time>
      </trkpt>
      <trkpt lat="49.39117" lon="1.03864">
        <ele>49</ele>
        <time>2019-12-30T12:33:26.000Z</time>
      </trkpt>
      <trkpt lat="49.39114" lon="1.03868">
        <ele>49</ele>
        <time>2019-12-30T12:33:27.000Z</time>
      </trkpt>
      <trkpt lat="49.39112" lon="1.03873">
        <ele>49</ele>
        <time>2019-12-30T12:33:28.000Z</time>
      </trkpt>
      <trkpt lat="49.3911" lon="1.03877">
        <ele>50</ele>
        <time>2019-12-30T12:33:29.000Z</time>
      </trkpt>
      <trkpt lat="49.39107" lon="1.03882">
        <ele>50</ele>
        <time>2019-12-30T12:33:30.000Z</time>
      </trkpt>
      <trkpt lat="49.39105" lon="1.03886">
        <ele>50</ele>
        <time>2019-12-30T12:33:31.000Z</time>
      </trkpt>
      <trkpt lat="49.39103" lon="1.03891">
        <ele>50</ele>
        <time>2019-12-30T12:33:32.000Z</time>
      </trkpt>
      <trkpt lat="49.391" lon="1.03895">
        <ele>50</ele>
        <time>2019-12-30T12:33:33.000Z</time>
      </trkpt>
      <trkpt lat="49.39098" lon="1.039">
        <ele>51</ele>
        <time>2019-12-30T12:33:34.000Z</time>
      </trkpt>
      <trkpt lat="49.39096" lon="1.03904">
        <ele>51</ele>
        <time>2019-12-30T12:33:35.000Z</time>
      </trkpt>
      <trkpt lat="49.39093" lon="1.03909">
        <ele>51</ele>
        <time>2019-12-30T12:33:36.000Z</time>
      </trkpt>
      <trkpt lat="49.39091" lon="1.03914">
        <ele>51</ele>
        <time>2019-12-30T12:33:37.000Z</time>
      </trkpt>
      <trkpt lat="49.39088" lon="1.03919">
        <ele>51</ele>
        <time>2019-12-30T12:33:38.000Z</time>
      </trkpt>
      <trkpt lat="49.39086" lon="1.03924">
        <ele>52</ele>
        <time>2019-12-30T12:33:39.000Z</time>
      </trkpt>
      <trkpt lat="49.39084" lon="1.03929">
        <ele>52</ele>
        <time>2019-12-30T12:33:40.000Z</time>
      </trkpt>
      <trkpt lat="49.39082" lon="1.03934">
        <ele>52</ele>
        <time>2019-12-30T12:33:41.000Z</time>
      </trkpt>
      <trkpt lat="49.39079" lon="1.03938">
        <ele>52</ele>
        <time>2019-12-30T12:33:42.000Z</time>
      </trkpt>
      <trkpt lat="49.39077" lon="1.03943">
        <ele>52</ele>
        <time>2019-12-30T12:33:43.000Z</time>
      </trkpt>
      <trkpt lat="49.39074" lon="1.03948">
        <ele>52</ele>
        <time>2019-12-30T12:33:44.000Z</time>
      </trkpt>
      <trkpt lat="49.39072" lon="1.03952">
        <ele>53</ele>
        <time>2019-12-30T12:33:45.000Z</time>
      </trkpt>
      <trkpt lat="49.3907" lon="1.03957">
        <ele>53</ele>
        <time>2019-12-30T12:33:46.000Z</time>
      </trkpt>
      <trkpt lat="49.39068" lon="1.03962">
        <ele>53</ele>
        <time>2019-12-30T12:33:47.000Z</time>
      </trkpt>
      <trkpt lat="49.39065" lon="1.03966">
        <ele>53</ele>
        <time>2019-12-30T12:33:48.000Z</time>
      </trkpt>
      <trkpt lat="49.39063" lon="1.03971">
        <ele>53</ele>
        <time>2019-12-30T12:33:49.000Z</time>
      </trkpt>
      <trkpt lat="49.3906" lon="1.03975">
        <ele>53</ele>
        <time>2019-12-30T12:33:50.000Z</time>
      </trkpt>
      <trkpt lat="49.39057" lon="1.03978">
        <ele>54</ele>
        <time>2019-12-30T12:33:51.000Z</time>
      </trkpt>
      <trkpt lat="49.39053" lon="1.03981">
        <ele>54</ele>
        <time>2019-12-30T12:33:52.000Z</time>
      </trkpt>
      <trkpt lat="49.3905" lon="1.03983">
        <ele>54</ele>
        <time>2019-12-30T12:33:53.000Z</time>
      </trkpt>
      <trkpt lat="49.39046" lon="1.03986">
        <ele>54</ele>
        <time>2019-12-30T12:33:54.000Z</time>
      </trkpt>
      <trkpt lat="49.39044" lon="1.0399">
        <ele>54</ele>
        <time>2019-12-30T12:33:55.000Z</time>
      </trkpt>
      <trkpt lat="49.39043" lon="1.03995">
        <ele>54</ele>
        <time>2019-12-30T12:33:56.000Z</time>
      </trkpt>
      <trkpt lat="49.39043" lon="1.04001">
        <ele>54</ele>
        <time>2019-12-30T12:33:57.000Z</time>
      </trkpt>
      <trkpt lat="49.39044" lon="1.04006">
        <ele>55</ele>
        <time>2019-12-30T12:33:58.000Z</time>
      </trkpt>
      <trkpt lat="49.39045" lon="1.04011">
        <ele>55</ele>
        <time>2019-12-30T12:33:59.000Z</time>
      </trkpt>
      <trkpt lat="49.39047" lon="1.04017">
        <ele>55</ele>
        <time>2019-12-30T12:34:00.000Z</time>
      </trkpt>
      <trkpt lat="49.39048" lon="1.04022">
        <ele>55</ele>
        <time>2019-12-30T12:34:01.000Z</time>
      </trkpt>
      <trkpt lat="49.3905" lon="1.04027">
        <ele>55</ele>
        <time>2019-12-30T12:34:02.000Z</time>
      </trkpt>
      <trkpt lat="49.39051" lon="1.04033">
        <ele>55</ele>
        <time>2019-12-30T12:34:03.000Z</time>
      </trkpt>
      <trkpt lat="49.39052" lon="1.04038">
        <ele>56</ele>
        <time>2019-12-30T12:34:04.000Z</time>
      </trkpt>
      <trkpt lat="49.39052" lon="1.04043">
        <ele>56</ele>
        <time>2019-12-30T12:34:05.000Z</time>
      </trkpt>
      <trkpt lat="49.39051" lon="1.04047">
        <ele>56</ele>
        <time>2019-12-30T12:34:06.000Z</time>
      </trkpt>
      <trkpt lat="49.39049" lon="1.04051">
        <ele>56</ele>
        <time>2019-12-30T12:34:07.000Z</time>
      </trkpt>
      <trkpt lat="49.39047" lon="1.04054">
        <ele>56</ele>
        <time>2019-12-30T12:34:08.000Z</time>
      </trkpt>
      <trkpt lat="49.39045" lon="1.04058">
        <ele>56</ele>
        <time>2019-12-30T12:34:09.000Z</time>
      </trkpt>
      <trkpt lat="49.39043" lon="1.04062">
        <ele>56</ele>
        <time>2019-12-30T12:34:10.000Z</time>
      </trkpt>
      <trkpt lat="49.39041" lon="1.04067">
        <ele>56</ele>
        <time>2019-12-30T12:34:11.000Z</time>
      </trkpt>
      <trkpt lat="49.3904" lon="1.0407">
        <ele>56</ele>
        <time>2019-12-30T12:34:12.000Z</time>
      </trkpt>
      <trkpt lat="49.39038" lon="1.04074">
        <ele>56</ele>
        <time>2019-12-30T12:34:13.000Z</time>
      </trkpt>
      <trkpt lat="49.39037" lon="1.04078">
        <ele>56</ele>
        <time>2019-12-30T12:34:14.000Z</time>
      </trkpt>
      <trkpt lat="49.39034" lon="1.04081">
        <ele>56</ele>
        <time>2019-12-30T12:34:15.000Z</time>
      </trkpt>
      <trkpt lat="49.39032" lon="1.04084">
        <ele>56</ele>
        <time>2019-12-30T12:34:16.000Z</time>
      </trkpt>
      <trkpt lat="49.39029" lon="1.04087">
        <ele>56</ele>
        <time>2019-12-30T12:34:17.000Z</time>
      </trkpt>
      <trkpt lat="49.39026" lon="1.0409">
        <ele>56</ele>
        <time>2019-12-30T12:34:18.000Z</time>
      </trkpt>
      <trkpt lat="49.39024" lon="1.04093">
        <ele>57</ele>
        <time>2019-12-30T12:34:19.000Z</time>
      </trkpt>
      <trkpt lat="49.39021" lon="1.04097">
        <ele>57</ele>
        <time>2019-12-30T12:34:20.000Z</time>
      </trkpt>
      <trkpt lat="49.39018" lon="1.041">
        <ele>57</ele>
        <time>2019-12-30T12:34:21.000Z</time>
      </trkpt>
      <trkpt lat="49.39016" lon="1.04104">
        <ele>57</ele>
        <time>2019-12-30T12:34:22.000Z</time>
      </trkpt>
      <trkpt lat="49.39013" lon="1.04108">
        <ele>57</ele>
        <time>2019-12-30T12:34:23.000Z</time>
      </trkpt>
      <trkpt lat="49.3901" lon="1.04112">
        <ele>57</ele>
        <time>2019-12-30T12:34:24.000Z</time>
      </trkpt>
      <trkpt lat="49.39008" lon="1.04116">
        <ele>57</ele>
        <time>2019-12-30T12:34:25.000Z</time>
      </trkpt>
      <trkpt lat="49.39005" lon="1.0412">
        <ele>57</ele>
        <time>2019-12-30T12:34:26.000Z</time>
      </trkpt>
      <trkpt lat="49.39003" lon="1.04125">
        <ele>57</ele>
        <time>2019-12-30T12:34:27.000Z</time>
      </trkpt>
      <trkpt lat="49.39" lon="1.04129">
        <ele>57</ele>
        <time>2019-12-30T12:34:28.000Z</time>
      </trkpt>
      <trkpt lat="49.38998" lon="1.04133">
        <ele>57</ele>
        <time>2019-12-30T12:34:29.000Z</time>
      </trkpt>
      <trkpt lat="49.38995" lon="1.04138">
        <ele>57</ele>
        <time>2019-12-30T12:34:30.000Z</time>
      </trkpt>
      <trkpt lat="49.38992" lon="1.04142">
        <ele>57</ele>
        <time>2019-12-30T12:34:31.000Z</time>
      </trkpt>
      <trkpt lat="49.38989" lon="1.04146">
        <ele>57</ele>
        <time>2019-12-30T12:34:32.000Z</time>
      </trkpt>
      <trkpt lat="49.38987" lon="1.0415">
        <ele>58</ele>
        <time>2019-12-30T12:34:33.000Z</time>
      </trkpt>
      <trkpt lat="49.38984" lon="1.04155">
        <ele>58</ele>
        <time>2019-12-30T12:34:34.000Z</time>
      </trkpt>
      <trkpt lat="49.38982" lon="1.04159">
        <ele>58</ele>
        <time>2019-12-30T12:34:35.000Z</time>
      </trkpt>
      <trkpt lat="49.38979" lon="1.04164">
        <ele>58</ele>
        <time>2019-12-30T12:34:36.000Z</time>
      </trkpt>
      <trkpt lat="49.38977" lon="1.04168">
        <ele>58</ele>
        <time>2019-12-30T12:34:37.000Z</time>
      </trkpt>
      <trkpt lat="49.38974" lon="1.04172">
        <ele>58</ele>
        <time>2019-12-30T12:34:38.000Z</time>
      </trkpt>
      <trkpt lat="49.38972" lon="1.04177">
        <ele>58</ele>
        <time>2019-12-30T12:34:39.000Z</time>
      </trkpt>
      <trkpt lat="49.38969" lon="1.04181">
        <ele>58</ele>
        <time>2019-12-30T12:34:40.000Z</time>
      </trkpt>
      <trkpt lat="49.38966" lon="1.04185">
        <ele>59</ele>
        <time>2019-12-30T12:34:41.000Z</time>
      </trkpt>
      <trkpt lat="49.38964" lon="1.04189">
        <ele>59</ele>
        <time>2019-12-30T12:34:42.000Z</time>
      </trkpt>
      <trkpt lat="49.38961" lon="1.04194">
        <ele>59</ele>
        <time>2019-12-30T12:34:43.000Z</time>
      </trkpt>
      <trkpt lat="49.38958" lon="1.04198">
        <ele>59</ele>
        <time>2019-12-30T12:34:44.000Z</time>
      </trkpt>
      <trkpt lat="49.38955" lon="1.04202">
        <ele>59</ele>
        <time>2019-12-30T12:34:45.000Z</time>
      </trkpt>
      <trkpt lat="49.38953" lon="1.04205">
        <ele>59</ele>
        <time>2019-12-30T12:34:46.000Z</time>
      </trkpt>
      <trkpt lat="49.38949" lon="1.04209">
        <ele>59</ele>
        <time>2019-12-30T12:34:47.000Z</time>
      </trkpt>
      <trkpt lat="49.38946" lon="1.04212">
        <ele>60</ele>
        <time>2019-12-30T12:34:48.000Z</time>
      </trkpt>
      <trkpt lat="49.38942" lon="1.04214">
        <ele>60</ele>
        <time>2019-12-30T12:34:49.000Z</time>
      </trkpt>
      <trkpt lat="49.38939" lon="1.04216">
        <ele>60</ele>
        <time>2019-12-30T12:34:50.000Z</time>
      </trkpt>
      <trkpt lat="49.38935" lon="1.04217">
        <ele>60</ele>
        <time>2019-12-30T12:34:51.000Z</time>
      </trkpt>
      <trkpt lat="49.38931" lon="1.04219">
        <ele>60</ele>
        <time>2019-12-30T12:34:52.000Z</time>
      </trkpt>
      <trkpt lat="49.38927" lon="1.0422">
        <ele>60</ele>
        <time>2019-12-30T12:34:53.000Z</time>
      </trkpt>
      <trkpt lat="49.38923" lon="1.04221">
        <ele>60</ele>
        <time>2019-12-30T12:34:54.000Z</time>
      </trkpt>
      <trkpt lat="49.38919" lon="1.04221">
        <ele>60</ele>
        <time>2019-12-30T12:34:55.000Z</time>
      </trkpt>
      <trkpt lat="49.38915" lon="1.04221">
        <ele>60</ele>
        <time>2019-12-30T12:34:56.000Z</time>
      </trkpt>
      <trkpt lat="49.3891" lon="1.0422">
        <ele>60</ele>
        <time>2019-12-30T12:34:57.000Z</time>
      </trkpt>
      <trkpt lat="49.38906" lon="1.04219">
        <ele>61</ele>
        <time>2019-12-30T12:34:58.000Z</time>
      </trkpt>
      <trkpt lat="49.38902" lon="1.04217">
        <ele>61</ele>
        <time>2019-12-30T12:34:59.000Z</time>
      </trkpt>
      <trkpt lat="49.38898" lon="1.04215">
        <ele>61</ele>
        <time>2019-12-30T12:35:00.000Z</time>
      </trkpt>
      <trkpt lat="49.38895" lon="1.04213">
        <ele>61</ele>
        <time>2019-12-30T12:35:01.000Z</time>
      </trkpt>
      <trkpt lat="49.38891" lon="1.04211">
        <ele>61</ele>
        <time>2019-12-30T12:35:02.000Z</time>
      </trkpt>
      <trkpt lat="49.38887" lon="1.04209">
        <ele>61</ele>
        <time>2019-12-30T12:35:03.000Z</time>
      </trkpt>
      <trkpt lat="49.38883" lon="1.04207">
        <ele>61</ele>
        <time>2019-12-30T12:35:04.000Z</time>
      </trkpt>
      <trkpt lat="49.38879" lon="1.04205">
        <ele>62</ele>
        <time>2019-12-30T12:35:05.000Z</time>
      </trkpt>
      <trkpt lat="49.38875" lon="1.04202">
        <ele>62</ele>
        <time>2019-12-30T12:35:06.000Z</time>
      </trkpt>
      <trkpt lat="49.38872" lon="1.04199">
        <ele>62</ele>
        <time>2019-12-30T12:35:07.000Z</time>
      </trkpt>
      <trkpt lat="49.38868" lon="1.04197">
        <ele>62</ele>
        <time>2019-12-30T12:35:08.000Z</time>
      </trkpt>
      <trkpt lat="49.38864" lon="1.04194">
        <ele>62</ele>
        <time>2019-12-30T12:35:09.000Z</time>
      </trkpt>
      <trkpt lat="49.3886" lon="1.04191">
        <ele>62</ele>
        <time>2019-12-30T12:35:10.000Z</time>
      </trkpt>
      <trkpt lat="49.38856" lon="1.04188">
        <ele>62</ele>
        <time>2019-12-30T12:35:11.000Z</time>
      </trkpt>
      <trkpt lat="49.38852" lon="1.04185">
        <ele>62</ele>
        <time>2019-12-30T12:35:12.000Z</time>
      </trkpt>
      <trkpt lat="49.38848" lon="1.04182">
        <ele>63</ele>
        <time>2019-12-30T12:35:13.000Z</time>
      </trkpt>
      <trkpt lat="49.38844" lon="1.04178">
        <ele>63</ele>
        <time>2019-12-30T12:35:14.000Z</time>
      </trkpt>
      <trkpt lat="49.3884" lon="1.04174">
        <ele>63</ele>
        <time>2019-12-30T12:35:15.000Z</time>
      </trkpt>
      <trkpt lat="49.38837" lon="1.0417">
        <ele>63</ele>
        <time>2019-12-30T12:35:16.000Z</time>
      </trkpt>
      <trkpt lat="49.38833" lon="1.04166">
        <ele>63</ele>
        <time>2019-12-30T12:35:17.000Z</time>
      </trkpt>
      <trkpt lat="49.38829" lon="1.04163">
        <ele>63</ele>
        <time>2019-12-30T12:35:18.000Z</time>
      </trkpt>
      <trkpt lat="49.38825" lon="1.0416">
        <ele>63</ele>
        <time>2019-12-30T12:35:19.000Z</time>
      </trkpt>
      <trkpt lat="49.3882" lon="1.04158">
        <ele>63</ele>
        <time>2019-12-30T12:35:20.000Z</time>
      </trkpt>
      <trkpt lat="49.38816" lon="1.04157">
        <ele>63</ele>
        <time>2019-12-30T12:35:21.000Z</time>
      </trkpt>
      <trkpt lat="49.38811" lon="1.04157">
        <ele>63</ele>
        <time>2019-12-30T12:35:22.000Z</time>
      </trkpt>
      <trkpt lat="49.38807" lon="1.04157">
        <ele>63</ele>
        <time>2019-12-30T12:35:23.000Z</time>
      </trkpt>
      <trkpt lat="49.38803" lon="1.04155">
        <ele>63</ele>
        <time>2019-12-30T12:35:24.000Z</time>
      </trkpt>
      <trkpt lat="49.388" lon="1.04154">
        <ele>63</ele>
        <time>2019-12-30T12:35:25.000Z</time>
      </trkpt>
      <trkpt lat="49.38796" lon="1.04151">
        <ele>63</ele>
        <time>2019-12-30T12:35:26.000Z</time>
      </trkpt>
      <trkpt lat="49.38792" lon="1.04148">
        <ele>63</ele>
        <time>2019-12-30T12:35:27.000Z</time>
      </trkpt>
      <trkpt lat="49.38789" lon="1.04146">
        <ele>63</ele>
        <time>2019-12-30T12:35:28.000Z</time>
      </trkpt>
      <trkpt lat="49.38785" lon="1.04146">
        <ele>63</ele>
        <time>2019-12-30T12:35:29.000Z</time>
      </trkpt>
      <trkpt lat="49.38781" lon="1.04146">
        <ele>63</ele>
        <time>2019-12-30T12:35:30.000Z</time>
      </trkpt>
      <trkpt lat="49.38777" lon="1.04148">
        <ele>63</ele>
        <time>2019-12-30T12:35:31.000Z</time>
      </trkpt>
      <trkpt lat="49.38773" lon="1.0415">
        <ele>63</ele>
        <time>2019-12-30T12:35:32.000Z</time>
      </trkpt>
      <trkpt lat="49.38771" lon="1.04155">
        <ele>62</ele>
        <time>2019-12-30T12:35:33.000Z</time>
      </trkpt>
      <trkpt lat="49.38769" lon="1.04161">
        <ele>62</ele>
        <time>2019-12-30T12:35:34.000Z</time>
      </trkpt>
      <trkpt lat="49.38767" lon="1.04168">
        <ele>62</ele>
        <time>2019-12-30T12:35:35.000Z</time>
      </trkpt>
      <trkpt lat="49.38765" lon="1.04174">
        <ele>62</ele>
        <time>2019-12-30T12:35:36.000Z</time>
      </trkpt>
      <trkpt lat="49.38763" lon="1.04181">
        <ele>62</ele>
        <time>2019-12-30T12:35:37.000Z</time>
      </trkpt>
      <trkpt lat="49.38761" lon="1.04188">
        <ele>62</ele>
        <time>2019-12-30T12:35:38.000Z</time>
      </trkpt>
      <trkpt lat="49.3876" lon="1.04196">
        <ele>62</ele>
        <time>2019-12-30T12:35:39.000Z</time>
      </trkpt>
      <trkpt lat="49.38759" lon="1.04202">
        <ele>62</ele>
        <time>2019-12-30T12:35:40.000Z</time>
      </trkpt>
      <trkpt lat="49.38759" lon="1.04209">
        <ele>62</ele>
        <time>2019-12-30T12:35:41.000Z</time>
      </trkpt>
      <trkpt lat="49.38757" lon="1.04215">
        <ele>62</ele>
        <time>2019-12-30T12:35:42.000Z</time>
      </trkpt>
      <trkpt lat="49.38756" lon="1.04221">
        <ele>62</ele>
        <time>2019-12-30T12:35:43.000Z</time>
      </trkpt>
      <trkpt lat="49.38754" lon="1.04227">
        <ele>62</ele>
        <time>2019-12-30T12:35:44.000Z</time>
      </trkpt>
      <trkpt lat="49.38751" lon="1.04234">
        <ele>62</ele>
        <time>2019-12-30T12:35:45.000Z</time>
      </trkpt>
      <trkpt lat="49.38749" lon="1.04241">
        <ele>62</ele>
        <time>2019-12-30T12:35:46.000Z</time>
      </trkpt>
      <trkpt lat="49.38747" lon="1.04248">
        <ele>62</ele>
        <time>2019-12-30T12:35:47.000Z</time>
      </trkpt>
      <trkpt lat="49.38745" lon="1.04255">
        <ele>62</ele>
        <time>2019-12-30T12:35:48.000Z</time>
      </trkpt>
      <trkpt lat="49.38743" lon="1.04263">
        <ele>62</ele>
        <time>2019-12-30T12:35:49.000Z</time>
      </trkpt>
      <trkpt lat="49.38741" lon="1.0427">
        <ele>62</ele>
        <time>2019-12-30T12:35:50.000Z</time>
      </trkpt>
      <trkpt lat="49.38739" lon="1.04277">
        <ele>62</ele>
        <time>2019-12-30T12:35:51.000Z</time>
      </trkpt>
      <trkpt lat="49.38737" lon="1.04285">
        <ele>62</ele>
        <time>2019-12-30T12:35:52.000Z</time>
      </trkpt>
      <trkpt lat="49.38735" lon="1.04293">
        <ele>61</ele>
        <time>2019-12-30T12:35:53.000Z</time>
      </trkpt>
      <trkpt lat="49.38732" lon="1.043">
        <ele>61</ele>
        <time>2019-12-30T12:35:54.000Z</time>
      </trkpt>
      <trkpt lat="49.3873" lon="1.04308">
        <ele>61</ele>
        <time>2019-12-30T12:35:55.000Z</time>
      </trkpt>
      <trkpt lat="49.38728" lon="1.04316">
        <ele>61</ele>
        <time>2019-12-30T12:35:56.000Z</time>
      </trkpt>
      <trkpt lat="49.38725" lon="1.04325">
        <ele>61</ele>
        <time>2019-12-30T12:35:57.000Z</time>
      </trkpt>
      <trkpt lat="49.38723" lon="1.04333">
        <ele>61</ele>
        <time>2019-12-30T12:35:58.000Z</time>
      </trkpt>
      <trkpt lat="49.38721" lon="1.04341">
        <ele>61</ele>
        <time>2019-12-30T12:35:59.000Z</time>
      </trkpt>
      <trkpt lat="49.38718" lon="1.0435">
        <ele>61</ele>
        <time>2019-12-30T12:36:00.000Z</time>
      </trkpt>
      <trkpt lat="49.38716" lon="1.04358">
        <ele>61</ele>
        <time>2019-12-30T12:36:01.000Z</time>
      </trkpt>
      <trkpt lat="49.38713" lon="1.04367">
        <ele>61</ele>
        <time>2019-12-30T12:36:02.000Z</time>
      </trkpt>
      <trkpt lat="49.3871" lon="1.04375">
        <ele>61</ele>
        <time>2019-12-30T12:36:03.000Z</time>
      </trkpt>
      <trkpt lat="49.38707" lon="1.04384">
        <ele>61</ele>
        <time>2019-12-30T12:36:04.000Z</time>
      </trkpt>
      <trkpt lat="49.38704" lon="1.04393">
        <ele>61</ele>
        <time>2019-12-30T12:36:05.000Z</time>
      </trkpt>
      <trkpt lat="49.38702" lon="1.04403">
        <ele>61</ele>
        <time>2019-12-30T12:36:06.000Z</time>
      </trkpt>
      <trkpt lat="49.387" lon="1.04412">
        <ele>61</ele>
        <time>2019-12-30T12:36:07.000Z</time>
      </trkpt>
      <trkpt lat="49.38697" lon="1.04422">
        <ele>61</ele>
        <time>2019-12-30T12:36:08.000Z</time>
      </trkpt>
      <trkpt lat="49.38696" lon="1.04433">
        <ele>60</ele>
        <time>2019-12-30T12:36:09.000Z</time>
      </trkpt>
      <trkpt lat="49.38695" lon="1.04444">
        <ele>60</ele>
        <time>2019-12-30T12:36:10.000Z</time>
      </trkpt>
      <trkpt lat="49.38694" lon="1.04455">
        <ele>60</ele>
        <time>2019-12-30T12:36:11.000Z</time>
      </trkpt>
      <trkpt lat="49.38694" lon="1.04467">
        <ele>60</ele>
        <time>2019-12-30T12:36:12.000Z</time>
      </trkpt>
      <trkpt lat="49.38695" lon="1.04478">
        <ele>59</ele>
        <time>2019-12-30T12:36:13.000Z</time>
      </trkpt>
      <trkpt lat="49.38696" lon="1.0449">
        <ele>59</ele>
        <time>2019-12-30T12:36:14.000Z</time>
      </trkpt>
      <trkpt lat="49.38698" lon="1.04502">
        <ele>59</ele>
        <time>2019-12-30T12:36:15.000Z</time>
      </trkpt>
      <trkpt lat="49.387" lon="1.04513">
        <ele>59</ele>
        <time>2019-12-30T12:36:16.000Z</time>
      </trkpt>
      <trkpt lat="49.38703" lon="1.04524">
        <ele>58</ele>
        <time>2019-12-30T12:36:17.000Z</time>
      </trkpt>
      <trkpt lat="49.38706" lon="1.04533">
        <ele>58</ele>
        <time>2019-12-30T12:36:18.000Z</time>
      </trkpt>
      <trkpt lat="49.38709" lon="1.04542">
        <ele>58</ele>
        <time>2019-12-30T12:36:19.000Z</time>
      </trkpt>
      <trkpt lat="49.38712" lon="1.04551">
        <ele>58</ele>
        <time>2019-12-30T12:36:20.000Z</time>
      </trkpt>
      <trkpt lat="49.38715" lon="1.04559">
        <ele>58</ele>
        <time>2019-12-30T12:36:21.000Z</time>
      </trkpt>
      <trkpt lat="49.38718" lon="1.04567">
        <ele>58</ele>
        <time>2019-12-30T12:36:22.000Z</time>
      </trkpt>
      <trkpt lat="49.38721" lon="1.04575">
        <ele>58</ele>
        <time>2019-12-30T12:36:23.000Z</time>
      </trkpt>
      <trkpt lat="49.38723" lon="1.04583">
        <ele>58</ele>
        <time>2019-12-30T12:36:24.000Z</time>
      </trkpt>
      <trkpt lat="49.38726" lon="1.0459">
        <ele>58</ele>
        <time>2019-12-30T12:36:25.000Z</time>
      </trkpt>
      <trkpt lat="49.38729" lon="1.04598">
        <ele>58</ele>
        <time>2019-12-30T12:36:26.000Z</time>
      </trkpt>
      <trkpt lat="49.38732" lon="1.04605">
        <ele>58</ele>
        <time>2019-12-30T12:36:27.000Z</time>
      </trkpt>
      <trkpt lat="49.38734" lon="1.04613">
        <ele>58</ele>
        <time>2019-12-30T12:36:28.000Z</time>
      </trkpt>
      <trkpt lat="49.38737" lon="1.0462">
        <ele>58</ele>
        <time>2019-12-30T12:36:29.000Z</time>
      </trkpt>
      <trkpt lat="49.3874" lon="1.04628">
        <ele>58</ele>
        <time>2019-12-30T12:36:30.000Z</time>
      </trkpt>
      <trkpt lat="49.38742" lon="1.04635">
        <ele>58</ele>
        <time>2019-12-30T12:36:31.000Z</time>
      </trkpt>
      <trkpt lat="49.38744" lon="1.04641">
        <ele>58</ele>
        <time>2019-12-30T12:36:32.000Z</time>
      </trkpt>
      <trkpt lat="49.38747" lon="1.04649">
        <ele>58</ele>
        <time>2019-12-30T12:36:33.000Z</time>
      </trkpt>
      <trkpt lat="49.3875" lon="1.04657">
        <ele>58</ele>
        <time>2019-12-30T12:36:34.000Z</time>
      </trkpt>
      <trkpt lat="49.38753" lon="1.04666">
        <ele>58</ele>
        <time>2019-12-30T12:36:35.000Z</time>
      </trkpt>
      <trkpt lat="49.38755" lon="1.04675">
        <ele>57</ele>
        <time>2019-12-30T12:36:36.000Z</time>
      </trkpt>
      <trkpt lat="49.38756" lon="1.04685">
        <ele>57</ele>
        <time>2019-12-30T12:36:37.000Z</time>
      </trkpt>
      <trkpt lat="49.38758" lon="1.04695">
        <ele>57</ele>
        <time>2019-12-30T12:36:38.000Z</time>
      </trkpt>
      <trkpt lat="49.38761" lon="1.04702">
        <ele>57</ele>
        <time>2019-12-30T12:36:39.000Z</time>
      </trkpt>
      <trkpt lat="49.38764" lon="1.04708">
        <ele>57</ele>
        <time>2019-12-30T12:36:40.000Z</time>
      </trkpt>
      <trkpt lat="49.38767" lon="1.04713">
        <ele>57</ele>
        <time>2019-12-30T12:36:41.000Z</time>
      </trkpt>
      <trkpt lat="49.3877" lon="1.04719">
        <ele>58</ele>
        <time>2019-12-30T12:36:42.000Z</time>
      </trkpt>
      <trkpt lat="49.38772" lon="1.04725">
        <ele>58</ele>
        <time>2019-12-30T12:36:43.000Z</time>
      </trkpt>
      <trkpt lat="49.38775" lon="1.0473">
        <ele>58</ele>
        <time>2019-12-30T12:36:44.000Z</time>
      </trkpt>
      <trkpt lat="49.38777" lon="1.04735">
        <ele>58</ele>
        <time>2019-12-30T12:36:45.000Z</time>
      </trkpt>
      <trkpt lat="49.38779" lon="1.04741">
        <ele>58</ele>
        <time>2019-12-30T12:36:46.000Z</time>
      </trkpt>
      <trkpt lat="49.38782" lon="1.04746">
        <ele>59</ele>
        <time>2019-12-30T12:36:47.000Z</time>
      </trkpt>
      <trkpt lat="49.38784" lon="1.04751">
        <ele>59</ele>
        <time>2019-12-30T12:36:48.000Z</time>
      </trkpt>
      <trkpt lat="49.38786" lon="1.04757">
        <ele>59</ele>
        <time>2019-12-30T12:36:49.000Z</time>
      </trkpt>
      <trkpt lat="49.38788" lon="1.04762">
        <ele>59</ele>
        <time>2019-12-30T12:36:50.000Z</time>
      </trkpt>
      <trkpt lat="49.3879" lon="1.04767">
        <ele>60</ele>
        <time>2019-12-30T12:36:51.000Z</time>
      </trkpt>
      <trkpt lat="49.38792" lon="1.04772">
        <ele>60</ele>
        <time>2019-12-30T12:36:52.000Z</time>
      </trkpt>
      <trkpt lat="49.38794" lon="1.04777">
        <ele>60</ele>
        <time>2019-12-30T12:36:53.000Z</time>
      </trkpt>
      <trkpt lat="49.38796" lon="1.04783">
        <ele>60</ele>
        <time>2019-12-30T12:36:54.000Z</time>
      </trkpt>
      <trkpt lat="49.38798" lon="1.04788">
        <ele>61</ele>
        <time>2019-12-30T12:36:55.000Z</time>
      </trkpt>
      <trkpt lat="49.388" lon="1.04793">
        <ele>61</ele>
        <time>2019-12-30T12:36:56.000Z</time>
      </trkpt>
      <trkpt lat="49.38802" lon="1.04798">
        <ele>61</ele>
        <time>2019-12-30T12:36:57.000Z</time>
      </trkpt>
      <trkpt lat="49.38804" lon="1.04803">
        <ele>61</ele>
        <time>2019-12-30T12:36:58.000Z</time>
      </trkpt>
      <trkpt lat="49.38806" lon="1.04808">
        <ele>61</ele>
        <time>2019-12-30T12:36:59.000Z</time>
      </trkpt>
      <trkpt lat="49.38808" lon="1.04813">
        <ele>62</ele>
        <time>2019-12-30T12:37:00.000Z</time>
      </trkpt>
      <trkpt lat="49.3881" lon="1.04818">
        <ele>62</ele>
        <time>2019-12-30T12:37:01.000Z</time>
      </trkpt>
      <trkpt lat="49.38812" lon="1.04824">
        <ele>62</ele>
        <time>2019-12-30T12:37:02.000Z</time>
      </trkpt>
      <trkpt lat="49.38814" lon="1.04829">
        <ele>62</ele>
        <time>2019-12-30T12:37:03.000Z</time>
      </trkpt>
      <trkpt lat="49.38816" lon="1.04834">
        <ele>62</ele>
        <time>2019-12-30T12:37:04.000Z</time>
      </trkpt>
      <trkpt lat="49.38818" lon="1.0484">
        <ele>63</ele>
        <time>2019-12-30T12:37:05.000Z</time>
      </trkpt>
      <trkpt lat="49.3882" lon="1.04846">
        <ele>63</ele>
        <time>2019-12-30T12:37:06.000Z</time>
      </trkpt>
      <trkpt lat="49.38822" lon="1.04852">
        <ele>63</ele>
        <time>2019-12-30T12:37:07.000Z</time>
      </trkpt>
      <trkpt lat="49.38824" lon="1.04858">
        <ele>63</ele>
        <time>2019-12-30T12:37:08.000Z</time>
      </trkpt>
      <trkpt lat="49.38826" lon="1.04863">
        <ele>63</ele>
        <time>2019-12-30T12:37:09.000Z</time>
      </trkpt>
      <trkpt lat="49.38828" lon="1.04869">
        <ele>63</ele>
        <time>2019-12-30T12:37:10.000Z</time>
      </trkpt>
      <trkpt lat="49.38831" lon="1.04876">
        <ele>63</ele>
        <time>2019-12-30T12:37:11.000Z</time>
      </trkpt>
      <trkpt lat="49.38833" lon="1.04882">
        <ele>63</ele>
        <time>2019-12-30T12:37:12.000Z</time>
      </trkpt>
      <trkpt lat="49.38835" lon="1.04888">
        <ele>64</ele>
        <time>2019-12-30T12:37:13.000Z</time>
      </trkpt>
      <trkpt lat="49.38838" lon="1.04894">
        <ele>64</ele>
        <time>2019-12-30T12:37:14.000Z</time>
      </trkpt>
      <trkpt lat="49.3884" lon="1.049">
        <ele>64</ele>
        <time>2019-12-30T12:37:15.000Z</time>
      </trkpt>
      <trkpt lat="49.38843" lon="1.04907">
        <ele>64</ele>
        <time>2019-12-30T12:37:16.000Z</time>
      </trkpt>
      <trkpt lat="49.38845" lon="1.04913">
        <ele>64</ele>
        <time>2019-12-30T12:37:17.000Z</time>
      </trkpt>
      <trkpt lat="49.38848" lon="1.04919">
        <ele>64</ele>
        <time>2019-12-30T12:37:18.000Z</time>
      </trkpt>
      <trkpt lat="49.38851" lon="1.04925">
        <ele>64</ele>
        <time>2019-12-30T12:37:19.000Z</time>
      </trkpt>
      <trkpt lat="49.38854" lon="1.0493">
        <ele>65</ele>
        <time>2019-12-30T12:37:20.000Z</time>
      </trkpt>
      <trkpt lat="49.38857" lon="1.04936">
        <ele>65</ele>
        <time>2019-12-30T12:37:21.000Z</time>
      </trkpt>
      <trkpt lat="49.3886" lon="1.04941">
        <ele>65</ele>
        <time>2019-12-30T12:37:22.000Z</time>
      </trkpt>
      <trkpt lat="49.38864" lon="1.04947">
        <ele>65</ele>
        <time>2019-12-30T12:37:23.000Z</time>
      </trkpt>
      <trkpt lat="49.38867" lon="1.04952">
        <ele>65</ele>
        <time>2019-12-30T12:37:24.000Z</time>
      </trkpt>
      <trkpt lat="49.38871" lon="1.04956">
        <ele>65</ele>
        <time>2019-12-30T12:37:25.000Z</time>
      </trkpt>
      <trkpt lat="49.38875" lon="1.04961">
        <ele>65</ele>
        <time>2019-12-30T12:37:26.000Z</time>
      </trkpt>
      <trkpt lat="49.38879" lon="1.04965">
        <ele>65</ele>
        <time>2019-12-30T12:37:27.000Z</time>
      </trkpt>
      <trkpt lat="49.38883" lon="1.0497">
        <ele>65</ele>
        <time>2019-12-30T12:37:28.000Z</time>
      </trkpt>
      <trkpt lat="49.38887" lon="1.04973">
        <ele>65</ele>
        <time>2019-12-30T12:37:29.000Z</time>
      </trkpt>
      <trkpt lat="49.38891" lon="1.04977">
        <ele>65</ele>
        <time>2019-12-30T12:37:30.000Z</time>
      </trkpt>
      <trkpt lat="49.38896" lon="1.04981">
        <ele>65</ele>
        <time>2019-12-30T12:37:31.000Z</time>
      </trkpt>
      <trkpt lat="49.389" lon="1.04984">
        <ele>65</ele>
        <time>2019-12-30T12:37:32.000Z</time>
      </trkpt>
      <trkpt lat="49.38905" lon="1.04988">
        <ele>65</ele>
        <time>2019-12-30T12:37:33.000Z</time>
      </trkpt>
      <trkpt lat="49.38909" lon="1.04991">
        <ele>65</ele>
        <time>2019-12-30T12:37:34.000Z</time>
      </trkpt>
      <trkpt lat="49.38914" lon="1.04995">
        <ele>65</ele>
        <time>2019-12-30T12:37:35.000Z</time>
      </trkpt>
      <trkpt lat="49.38919" lon="1.04999">
        <ele>65</ele>
        <time>2019-12-30T12:37:36.000Z</time>
      </trkpt>
      <trkpt lat="49.38923" lon="1.05002">
        <ele>65</ele>
        <time>2019-12-30T12:37:37.000Z</time>
      </trkpt>
      <trkpt lat="49.38928" lon="1.05006">
        <ele>65</ele>
        <time>2019-12-30T12:37:38.000Z</time>
      </trkpt>
      <trkpt lat="49.38932" lon="1.05009">
        <ele>65</ele>
        <time>2019-12-30T12:37:39.000Z</time>
      </trkpt>
      <trkpt lat="49.38937" lon="1.05013">
        <ele>65</ele>
        <time>2019-12-30T12:37:40.000Z</time>
      </trkpt>
      <trkpt lat="49.38942" lon="1.05016">
        <ele>65</ele>
        <time>2019-12-30T12:37:41.000Z</time>
      </trkpt>
      <trkpt lat="49.38946" lon="1.0502">
        <ele>65</ele>
        <time>2019-12-30T12:37:42.000Z</time>
      </trkpt>
      <trkpt lat="49.38951" lon="1.05023">
        <ele>65</ele>
        <time>2019-12-30T12:37:43.000Z</time>
      </trkpt>
      <trkpt lat="49.38956" lon="1.05027">
        <ele>65</ele>
        <time>2019-12-30T12:37:44.000Z</time>
      </trkpt>
      <trkpt lat="49.3896" lon="1.05031">
        <ele>65</ele>
        <time>2019-12-30T12:37:45.000Z</time>
      </trkpt>
      <trkpt lat="49.38965" lon="1.05034">
        <ele>65</ele>
        <time>2019-12-30T12:37:46.000Z</time>
      </trkpt>
      <trkpt lat="49.3897" lon="1.05038">
        <ele>65</ele>
        <time>2019-12-30T12:37:47.000Z</time>
      </trkpt>
      <trkpt lat="49.38974" lon="1.05041">
        <ele>65</ele>
        <time>2019-12-30T12:37:48.000Z</time>
      </trkpt>
      <trkpt lat="49.38979" lon="1.05044">
        <ele>65</ele>
        <time>2019-12-30T12:37:49.000Z</time>
      </trkpt>
      <trkpt lat="49.38984" lon="1.05048">
        <ele>65</ele>
        <time>2019-12-30T12:37:50.000Z</time>
      </trkpt>
      <trkpt lat="49.38989" lon="1.05051">
        <ele>65</ele>
        <time>2019-12-30T12:37:51.000Z</time>
      </trkpt>
      <trkpt lat="49.38994" lon="1.05053">
        <ele>64</ele>
        <time>2019-12-30T12:37:52.000Z</time>
      </trkpt>
      <trkpt lat="49.38999" lon="1.05053">
        <ele>64</ele>
        <time>2019-12-30T12:37:53.000Z</time>
      </trkpt>
      <trkpt lat="49.39004" lon="1.05052">
        <ele>64</ele>
        <time>2019-12-30T12:37:54.000Z</time>
      </trkpt>
      <trkpt lat="49.39009" lon="1.0505">
        <ele>64</ele>
        <time>2019-12-30T12:37:55.000Z</time>
      </trkpt>
      <trkpt lat="49.39013" lon="1.05049">
        <ele>64</ele>
        <time>2019-12-30T12:37:56.000Z</time>
      </trkpt>
      <trkpt lat="49.39018" lon="1.05049">
        <ele>64</ele>
        <time>2019-12-30T12:37:57.000Z</time>
      </trkpt>
      <trkpt lat="49.39023" lon="1.05051">
        <ele>64</ele>
        <time>2019-12-30T12:37:58.000Z</time>
      </trkpt>
      <trkpt lat="49.39027" lon="1.05055">
        <ele>64</ele>
        <time>2019-12-30T12:37:59.000Z</time>
      </trkpt>
      <trkpt lat="49.39031" lon="1.0506">
        <ele>64</ele>
        <time>2019-12-30T12:38:00.000Z</time>
      </trkpt>
      <trkpt lat="49.39034" lon="1.05066">
        <ele>64</ele>
        <time>2019-12-30T12:38:01.000Z</time>
      </trkpt>
      <trkpt lat="49.39036" lon="1.05073">
        <ele>64</ele>
        <time>2019-12-30T12:38:02.000Z</time>
      </trkpt>
      <trkpt lat="49.39035" lon="1.0508">
        <ele>64</ele>
        <time>2019-12-30T12:38:03.000Z</time>
      </trkpt>
      <trkpt lat="49.39034" lon="1.05088">
        <ele>64</ele>
        <time>2019-12-30T12:38:04.000Z</time>
      </trkpt>
      <trkpt lat="49.39032" lon="1.05095">
        <ele>64</ele>
        <time>2019-12-30T12:38:05.000Z</time>
      </trkpt>
      <trkpt lat="49.39029" lon="1.05101">
        <ele>64</ele>
        <time>2019-12-30T12:38:06.000Z</time>
      </trkpt>
      <trkpt lat="49.39027" lon="1.05108">
        <ele>64</ele>
        <time>2019-12-30T12:38:07.000Z</time>
      </trkpt>
      <trkpt lat="49.39026" lon="1.05116">
        <ele>64</ele>
        <time>2019-12-30T12:38:08.000Z</time>
      </trkpt>
      <trkpt lat="49.39024" lon="1.05123">
        <ele>63</ele>
        <time>2019-12-30T12:38:09.000Z</time>
      </trkpt>
      <trkpt lat="49.39022" lon="1.0513">
        <ele>63</ele>
        <time>2019-12-30T12:38:10.000Z</time>
      </trkpt>
      <trkpt lat="49.3902" lon="1.05138">
        <ele>63</ele>
        <time>2019-12-30T12:38:11.000Z</time>
      </trkpt>
      <trkpt lat="49.39018" lon="1.05145">
        <ele>63</ele>
        <time>2019-12-30T12:38:12.000Z</time>
      </trkpt>
      <trkpt lat="49.39016" lon="1.05152">
        <ele>63</ele>
        <time>2019-12-30T12:38:13.000Z</time>
      </trkpt>
      <trkpt lat="49.39014" lon="1.05159">
        <ele>63</ele>
        <time>2019-12-30T12:38:14.000Z</time>
      </trkpt>
      <trkpt lat="49.39012" lon="1.05167">
        <ele>63</ele>
        <time>2019-12-30T12:38:15.000Z</time>
      </trkpt>
      <trkpt lat="49.3901" lon="1.05174">
        <ele>63</ele>
        <time>2019-12-30T12:38:16.000Z</time>
      </trkpt>
      <trkpt lat="49.39008" lon="1.05181">
        <ele>63</ele>
        <time>2019-12-30T12:38:17.000Z</time>
      </trkpt>
      <trkpt lat="49.39006" lon="1.05188">
        <ele>63</ele>
        <time>2019-12-30T12:38:18.000Z</time>
      </trkpt>
      <trkpt lat="49.39004" lon="1.05195">
        <ele>63</ele>
        <time>2019-12-30T12:38:19.000Z</time>
      </trkpt>
      <trkpt lat="49.39002" lon="1.05201">
        <ele>63</ele>
        <time>2019-12-30T12:38:20.000Z</time>
      </trkpt>
      <trkpt lat="49.39" lon="1.05208">
        <ele>63</ele>
        <time>2019-12-30T12:38:21.000Z</time>
      </trkpt>
      <trkpt lat="49.38998" lon="1.05215">
        <ele>63</ele>
        <time>2019-12-30T12:38:22.000Z</time>
      </trkpt>
      <trkpt lat="49.38996" lon="1.05222">
        <ele>63</ele>
        <time>2019-12-30T12:38:23.000Z</time>
      </trkpt>
      <trkpt lat="49.38994" lon="1.05229">
        <ele>63</ele>
        <time>2019-12-30T12:38:24.000Z</time>
      </trkpt>
      <trkpt lat="49.38992" lon="1.05236">
        <ele>63</ele>
        <time>2019-12-30T12:38:25.000Z</time>
      </trkpt>
      <trkpt lat="49.38989" lon="1.05243">
        <ele>63</ele>
        <time>2019-12-30T12:38:26.000Z</time>
      </trkpt>
      <trkpt lat="49.38987" lon="1.0525">
        <ele>63</ele>
        <time>2019-12-30T12:38:27.000Z</time>
      </trkpt>
      <trkpt lat="49.38985" lon="1.05256">
        <ele>63</ele>
        <time>2019-12-30T12:38:28.000Z</time>
      </trkpt>
      <trkpt lat="49.38983" lon="1.05263">
        <ele>63</ele>
        <time>2019-12-30T12:38:29.000Z</time>
      </trkpt>
      <trkpt lat="49.38981" lon="1.0527">
        <ele>63</ele>
        <time>2019-12-30T12:38:30.000Z</time>
      </trkpt>
      <trkpt lat="49.38979" lon="1.05277">
        <ele>63</ele>
        <time>2019-12-30T12:38:31.000Z</time>
      </trkpt>
      <trkpt lat="49.38977" lon="1.05283">
        <ele>64</ele>
        <time>2019-12-30T12:38:32.000Z</time>
      </trkpt>
      <trkpt lat="49.38975" lon="1.0529">
        <ele>64</ele>
        <time>2019-12-30T12:38:33.000Z</time>
      </trkpt>
      <trkpt lat="49.38973" lon="1.05296">
        <ele>64</ele>
        <time>2019-12-30T12:38:34.000Z</time>
      </trkpt>
      <trkpt lat="49.38971" lon="1.05303">
        <ele>64</ele>
        <time>2019-12-30T12:38:35.000Z</time>
      </trkpt>
      <trkpt lat="49.38969" lon="1.05309">
        <ele>64</ele>
        <time>2019-12-30T12:38:36.000Z</time>
      </trkpt>
      <trkpt lat="49.38967" lon="1.05316">
        <ele>64</ele>
        <time>2019-12-30T12:38:37.000Z</time>
      </trkpt>
      <trkpt lat="49.38966" lon="1.05323">
        <ele>64</ele>
        <time>2019-12-30T12:38:38.000Z</time>
      </trkpt>
      <trkpt lat="49.38964" lon="1.05329">
        <ele>65</ele>
        <time>2019-12-30T12:38:39.000Z</time>
      </trkpt>
      <trkpt lat="49.38962" lon="1.05336">
        <ele>65</ele>
        <time>2019-12-30T12:38:40.000Z</time>
      </trkpt>
      <trkpt lat="49.3896" lon="1.05343">
        <ele>65</ele>
        <time>2019-12-30T12:38:41.000Z</time>
      </trkpt>
      <trkpt lat="49.38958" lon="1.05349">
        <ele>65</ele>
        <time>2019-12-30T12:38:42.000Z</time>
      </trkpt>
      <trkpt lat="49.38956" lon="1.05356">
        <ele>65</ele>
        <time>2019-12-30T12:38:43.000Z</time>
      </trkpt>
      <trkpt lat="49.38954" lon="1.05363">
        <ele>65</ele>
        <time>2019-12-30T12:38:44.000Z</time>
      </trkpt>
      <trkpt lat="49.38952" lon="1.05369">
        <ele>65</ele>
        <time>2019-12-30T12:38:45.000Z</time>
      </trkpt>
      <trkpt lat="49.3895" lon="1.05376">
        <ele>65</ele>
        <time>2019-12-30T12:38:46.000Z</time>
      </trkpt>
      <trkpt lat="49.38948" lon="1.05383">
        <ele>65</ele>
        <time>2019-12-30T12:38:47.000Z</time>
      </trkpt>
      <trkpt lat="49.38946" lon="1.0539">
        <ele>65</ele>
        <time>2019-12-30T12:38:48.000Z</time>
      </trkpt>
      <trkpt lat="49.38944" lon="1.05397">
        <ele>66</ele>
        <time>2019-12-30T12:38:49.000Z</time>
      </trkpt>
      <trkpt lat="49.38942" lon="1.05404">
        <ele>66</ele>
        <time>2019-12-30T12:38:50.000Z</time>
      </trkpt>
      <trkpt lat="49.3894" lon="1.05411">
        <ele>66</ele>
        <time>2019-12-30T12:38:51.000Z</time>
      </trkpt>
      <trkpt lat="49.38938" lon="1.05418">
        <ele>66</ele>
        <time>2019-12-30T12:38:52.000Z</time>
      </trkpt>
      <trkpt lat="49.38936" lon="1.05425">
        <ele>66</ele>
        <time>2019-12-30T12:38:53.000Z</time>
      </trkpt>
      <trkpt lat="49.38934" lon="1.05432">
        <ele>66</ele>
        <time>2019-12-30T12:38:54.000Z</time>
      </trkpt>
      <trkpt lat="49.38932" lon="1.05439">
        <ele>66</ele>
        <time>2019-12-30T12:38:55.000Z</time>
      </trkpt>
      <trkpt lat="49.3893" lon="1.05446">
        <ele>66</ele>
        <time>2019-12-30T12:38:56.000Z</time>
      </trkpt>
      <trkpt lat="49.38928" lon="1.05453">
        <ele>66</ele>
        <time>2019-12-30T12:38:57.000Z</time>
      </trkpt>
      <trkpt lat="49.38927" lon="1.0546">
        <ele>66</ele>
        <time>2019-12-30T12:38:58.000Z</time>
      </trkpt>
      <trkpt lat="49.38925" lon="1.05467">
        <ele>66</ele>
        <time>2019-12-30T12:38:59.000Z</time>
      </trkpt>
      <trkpt lat="49.38923" lon="1.05474">
        <ele>66</ele>
        <time>2019-12-30T12:39:00.000Z</time>
      </trkpt>
      <trkpt lat="49.38921" lon="1.05481">
        <ele>66</ele>
        <time>2019-12-30T12:39:01.000Z</time>
      </trkpt>
      <trkpt lat="49.3892" lon="1.05487">
        <ele>66</ele>
        <time>2019-12-30T12:39:02.000Z</time>
      </trkpt>
      <trkpt lat="49.38918" lon="1.05493">
        <ele>67</ele>
        <time>2019-12-30T12:39:03.000Z</time>
      </trkpt>
      <trkpt lat="49.38917" lon="1.05499">
        <ele>67</ele>
        <time>2019-12-30T12:39:04.000Z</time>
      </trkpt>
      <trkpt lat="49.38915" lon="1.05506">
        <ele>67</ele>
        <time>2019-12-30T12:39:05.000Z</time>
      </trkpt>
      <trkpt lat="49.38914" lon="1.05512">
        <ele>67</ele>
        <time>2019-12-30T12:39:06.000Z</time>
      </trkpt>
      <trkpt lat="49.38914" lon="1.05519">
        <ele>67</ele>
        <time>2019-12-30T12:39:07.000Z</time>
      </trkpt>
      <trkpt lat="49.38913" lon="1.05526">
        <ele>67</ele>
        <time>2019-12-30T12:39:08.000Z</time>
      </trkpt>
      <trkpt lat="49.38913" lon="1.05533">
        <ele>67</ele>
        <time>2019-12-30T12:39:09.000Z</time>
      </trkpt>
      <trkpt lat="49.38913" lon="1.0554">
        <ele>67</ele>
        <time>2019-12-30T12:39:10.000Z</time>
      </trkpt>
      <trkpt lat="49.38913" lon="1.05546">
        <ele>67</ele>
        <time>2019-12-30T12:39:11.000Z</time>
      </trkpt>
      <trkpt lat="49.38913" lon="1.05553">
        <ele>68</ele>
        <time>2019-12-30T12:39:12.000Z</time>
      </trkpt>
      <trkpt lat="49.38915" lon="1.05559">
        <ele>68</ele>
        <time>2019-12-30T12:39:13.000Z</time>
      </trkpt>
      <trkpt lat="49.38916" lon="1.05565">
        <ele>68</ele>
        <time>2019-12-30T12:39:14.000Z</time>
      </trkpt>
      <trkpt lat="49.38918" lon="1.05571">
        <ele>68</ele>
        <time>2019-12-30T12:39:15.000Z</time>
      </trkpt>
      <trkpt lat="49.3892" lon="1.05577">
        <ele>68</ele>
        <time>2019-12-30T12:39:16.000Z</time>
      </trkpt>
      <trkpt lat="49.38923" lon="1.05584">
        <ele>68</ele>
        <time>2019-12-30T12:39:17.000Z</time>
      </trkpt>
      <trkpt lat="49.38925" lon="1.0559">
        <ele>69</ele>
        <time>2019-12-30T12:39:18.000Z</time>
      </trkpt>
      <trkpt lat="49.38928" lon="1.05595">
        <ele>69</ele>
        <time>2019-12-30T12:39:19.000Z</time>
      </trkpt>
      <trkpt lat="49.38931" lon="1.056">
        <ele>69</ele>
        <time>2019-12-30T12:39:20.000Z</time>
      </trkpt>
      <trkpt lat="49.38935" lon="1.05604">
        <ele>69</ele>
        <time>2019-12-30T12:39:21.000Z</time>
      </trkpt>
      <trkpt lat="49.38939" lon="1.05608">
        <ele>69</ele>
        <time>2019-12-30T12:39:22.000Z</time>
      </trkpt>
      <trkpt lat="49.38943" lon="1.05612">
        <ele>69</ele>
        <time>2019-12-30T12:39:23.000Z</time>
      </trkpt>
      <trkpt lat="49.38947" lon="1.05615">
        <ele>69</ele>
        <time>2019-12-30T12:39:24.000Z</time>
      </trkpt>
      <trkpt lat="49.38951" lon="1.05618">
        <ele>69</ele>
        <time>2019-12-30T12:39:25.000Z</time>
      </trkpt>
      <trkpt lat="49.38955" lon="1.05621">
        <ele>69</ele>
        <time>2019-12-30T12:39:26.000Z</time>
      </trkpt>
      <trkpt lat="49.3896" lon="1.05624">
        <ele>69</ele>
        <time>2019-12-30T12:39:27.000Z</time>
      </trkpt>
      <trkpt lat="49.38964" lon="1.05627">
        <ele>69</ele>
        <time>2019-12-30T12:39:28.000Z</time>
      </trkpt>
      <trkpt lat="49.38968" lon="1.0563">
        <ele>69</ele>
        <time>2019-12-30T12:39:29.000Z</time>
      </trkpt>
      <trkpt lat="49.38973" lon="1.05633">
        <ele>69</ele>
        <time>2019-12-30T12:39:30.000Z</time>
      </trkpt>
      <trkpt lat="49.38977" lon="1.05636">
        <ele>69</ele>
        <time>2019-12-30T12:39:31.000Z</time>
      </trkpt>
      <trkpt lat="49.38981" lon="1.0564">
        <ele>69</ele>
        <time>2019-12-30T12:39:32.000Z</time>
      </trkpt>
      <trkpt lat="49.38986" lon="1.05643">
        <ele>69</ele>
        <time>2019-12-30T12:39:33.000Z</time>
      </trkpt>
      <trkpt lat="49.3899" lon="1.05646">
        <ele>69</ele>
        <time>2019-12-30T12:39:34.000Z</time>
      </trkpt>
      <trkpt lat="49.38994" lon="1.05649">
        <ele>69</ele>
        <time>2019-12-30T12:39:35.000Z</time>
      </trkpt>
      <trkpt lat="49.38999" lon="1.05652">
        <ele>69</ele>
        <time>2019-12-30T12:39:36.000Z</time>
      </trkpt>
      <trkpt lat="49.39003" lon="1.05655">
        <ele>69</ele>
        <time>2019-12-30T12:39:37.000Z</time>
      </trkpt>
      <trkpt lat="49.39008" lon="1.05658">
        <ele>69</ele>
        <time>2019-12-30T12:39:38.000Z</time>
      </trkpt>
      <trkpt lat="49.39012" lon="1.05662">
        <ele>69</ele>
        <time>2019-12-30T12:39:39.000Z</time>
      </trkpt>
      <trkpt lat="49.39016" lon="1.05665">
        <ele>69</ele>
        <time>2019-12-30T12:39:40.000Z</time>
      </trkpt>
      <trkpt lat="49.39021" lon="1.05668">
        <ele>69</ele>
        <time>2019-12-30T12:39:41.000Z</time>
      </trkpt>
      <trkpt lat="49.39025" lon="1.05671">
        <ele>69</ele>
        <time>2019-12-30T12:39:42.000Z</time>
      </trkpt>
      <trkpt lat="49.3903" lon="1.05674">
        <ele>69</ele>
        <time>2019-12-30T12:39:43.000Z</time>
      </trkpt>
      <trkpt lat="49.39034" lon="1.05678">
        <ele>69</ele>
        <time>2019-12-30T12:39:44.000Z</time>
      </trkpt>
      <trkpt lat="49.39039" lon="1.05681">
        <ele>69</ele>
        <time>2019-12-30T12:39:45.000Z</time>
      </trkpt>
      <trkpt lat="49.39044" lon="1.05684">
        <ele>69</ele>
        <time>2019-12-30T12:39:46.000Z</time>
      </trkpt>
      <trkpt lat="49.39048" lon="1.05687">
        <ele>69</ele>
        <time>2019-12-30T12:39:47.000Z</time>
      </trkpt>
      <trkpt lat="49.39053" lon="1.0569">
        <ele>69</ele>
        <time>2019-12-30T12:39:48.000Z</time>
      </trkpt>
      <trkpt lat="49.39057" lon="1.05694">
        <ele>69</ele>
        <time>2019-12-30T12:39:49.000Z</time>
      </trkpt>
      <trkpt lat="49.39062" lon="1.05697">
        <ele>69</ele>
        <time>2019-12-30T12:39:50.000Z</time>
      </trkpt>
      <trkpt lat="49.39067" lon="1.057">
        <ele>69</ele>
        <time>2019-12-30T12:39:51.000Z</time>
      </trkpt>
      <trkpt lat="49.39071" lon="1.05704">
        <ele>69</ele>
        <time>2019-12-30T12:39:52.000Z</time>
      </trkpt>
      <trkpt lat="49.39076" lon="1.05707">
        <ele>69</ele>
        <time>2019-12-30T12:39:53.000Z</time>
      </trkpt>
      <trkpt lat="49.39081" lon="1.0571">
        <ele>69</ele>
        <time>2019-12-30T12:39:54.000Z</time>
      </trkpt>
      <trkpt lat="49.39085" lon="1.05713">
        <ele>69</ele>
        <time>2019-12-30T12:39:55.000Z</time>
      </trkpt>
      <trkpt lat="49.3909" lon="1.05717">
        <ele>69</ele>
        <time>2019-12-30T12:39:56.000Z</time>
      </trkpt>
      <trkpt lat="49.39094" lon="1.0572">
        <ele>69</ele>
        <time>2019-12-30T12:39:57.000Z</time>
      </trkpt>
      <trkpt lat="49.39099" lon="1.05723">
        <ele>69</ele>
        <time>2019-12-30T12:39:58.000Z</time>
      </trkpt>
      <trkpt lat="49.39104" lon="1.05726">
        <ele>69</ele>
        <time>2019-12-30T12:39:59.000Z</time>
      </trkpt>
      <trkpt lat="49.39108" lon="1.0573">
        <ele>69</ele>
        <time>2019-12-30T12:40:00.000Z</time>
      </trkpt>
      <trkpt lat="49.39113" lon="1.05733">
        <ele>69</ele>
        <time>2019-12-30T12:40:01.000Z</time>
      </trkpt>
      <trkpt lat="49.39117" lon="1.05736">
        <ele>69</ele>
        <time>2019-12-30T12:40:02.000Z</time>
      </trkpt>
      <trkpt lat="49.39122" lon="1.05739">
        <ele>69</ele>
        <time>2019-12-30T12:40:03.000Z</time>
      </trkpt>
      <trkpt lat="49.39126" lon="1.05742">
        <ele>69</ele>
        <time>2019-12-30T12:40:04.000Z</time>
      </trkpt>
      <trkpt lat="49.39131" lon="1.05746">
        <ele>68</ele>
        <time>2019-12-30T12:40:05.000Z</time>
      </trkpt>
      <trkpt lat="49.39136" lon="1.05749">
        <ele>68</ele>
        <time>2019-12-30T12:40:06.000Z</time>
      </trkpt>
      <trkpt lat="49.3914" lon="1.05752">
        <ele>68</ele>
        <time>2019-12-30T12:40:07.000Z</time>
      </trkpt>
      <trkpt lat="49.39144" lon="1.05755">
        <ele>68</ele>
        <time>2019-12-30T12:40:08.000Z</time>
      </trkpt>
      <trkpt lat="49.39148" lon="1.05758">
        <ele>68</ele>
        <time>2019-12-30T12:40:09.000Z</time>
      </trkpt>
      <trkpt lat="49.39152" lon="1.05761">
        <ele>68</ele>
        <time>2019-12-30T12:40:10.000Z</time>
      </trkpt>
      <trkpt lat="49.39156" lon="1.05764">
        <ele>68</ele>
        <time>2019-12-30T12:40:11.000Z</time>
      </trkpt>
      <trkpt lat="49.39161" lon="1.05767">
        <ele>67</ele>
        <time>2019-12-30T12:40:12.000Z</time>
      </trkpt>
      <trkpt lat="49.39165" lon="1.0577">
        <ele>67</ele>
        <time>2019-12-30T12:40:13.000Z</time>
      </trkpt>
      <trkpt lat="49.39169" lon="1.05773">
        <ele>67</ele>
        <time>2019-12-30T12:40:14.000Z</time>
      </trkpt>
      <trkpt lat="49.39173" lon="1.05777">
        <ele>67</ele>
        <time>2019-12-30T12:40:15.000Z</time>
      </trkpt>
      <trkpt lat="49.39176" lon="1.05782">
        <ele>67</ele>
        <time>2019-12-30T12:40:16.000Z</time>
      </trkpt>
      <trkpt lat="49.39179" lon="1.05788">
        <ele>67</ele>
        <time>2019-12-30T12:40:17.000Z</time>
      </trkpt>
      <trkpt lat="49.39181" lon="1.05794">
        <ele>67</ele>
        <time>2019-12-30T12:40:18.000Z</time>
      </trkpt>
      <trkpt lat="49.39183" lon="1.05801">
        <ele>67</ele>
        <time>2019-12-30T12:40:19.000Z</time>
      </trkpt>
      <trkpt lat="49.39185" lon="1.05808">
        <ele>66</ele>
        <time>2019-12-30T12:40:20.000Z</time>
      </trkpt>
      <trkpt lat="49.39187" lon="1.05817">
        <ele>66</ele>
        <time>2019-12-30T12:40:21.000Z</time>
      </trkpt>
      <trkpt lat="49.39189" lon="1.05827">
        <ele>66</ele>
        <time>2019-12-30T12:40:22.000Z</time>
      </trkpt>
      <trkpt lat="49.3919" lon="1.05837">
        <ele>66</ele>
        <time>2019-12-30T12:40:23.000Z</time>
      </trkpt>
      <trkpt lat="49.3919" lon="1.05847">
        <ele>66</ele>
        <time>2019-12-30T12:40:24.000Z</time>
      </trkpt>
      <trkpt lat="49.39188" lon="1.05855">
        <ele>66</ele>
        <time>2019-12-30T12:40:25.000Z</time>
      </trkpt>
      <trkpt lat="49.39185" lon="1.05861">
        <ele>66</ele>
        <time>2019-12-30T12:40:26.000Z</time>
      </trkpt>
      <trkpt lat="49.3918" lon="1.05865">
        <ele>66</ele>
        <time>2019-12-30T12:40:27.000Z</time>
      </trkpt>
      <trkpt lat="49.39175" lon="1.05866">
        <ele>67</ele>
        <time>2019-12-30T12:40:28.000Z</time>
      </trkpt>
      <trkpt lat="49.3917" lon="1.05868">
        <ele>67</ele>
        <time>2019-12-30T12:40:29.000Z</time>
      </trkpt>
      <trkpt lat="49.39165" lon="1.05869">
        <ele>67</ele>
        <time>2019-12-30T12:40:30.000Z</time>
      </trkpt>
      <trkpt lat="49.3916" lon="1.05871">
        <ele>67</ele>
        <time>2019-12-30T12:40:31.000Z</time>
      </trkpt>
      <trkpt lat="49.39154" lon="1.05872">
        <ele>67</ele>
        <time>2019-12-30T12:40:32.000Z</time>
      </trkpt>
      <trkpt lat="49.39149" lon="1.05873">
        <ele>67</ele>
        <time>2019-12-30T12:40:33.000Z</time>
      </trkpt>
      <trkpt lat="49.39144" lon="1.05875">
        <ele>67</ele>
        <time>2019-12-30T12:40:34.000Z</time>
      </trkpt>
      <trkpt lat="49.39139" lon="1.05876">
        <ele>67</ele>
        <time>2019-12-30T12:40:35.000Z</time>
      </trkpt>
      <trkpt lat="49.39134" lon="1.05878">
        <ele>68</ele>
        <time>2019-12-30T12:40:36.000Z</time>
      </trkpt>
      <trkpt lat="49.39129" lon="1.0588">
        <ele>68</ele>
        <time>2019-12-30T12:40:37.000Z</time>
      </trkpt>
      <trkpt lat="49.39124" lon="1.05881">
        <ele>68</ele>
        <time>2019-12-30T12:40:38.000Z</time>
      </trkpt>
      <trkpt lat="49.39119" lon="1.05881">
        <ele>68</ele>
        <time>2019-12-30T12:40:39.000Z</time>
      </trkpt>
      <trkpt lat="49.39114" lon="1.05882">
        <ele>68</ele>
        <time>2019-12-30T12:40:40.000Z</time>
      </trkpt>
      <trkpt lat="49.39109" lon="1.05884">
        <ele>69</ele>
        <time>2019-12-30T12:40:41.000Z</time>
      </trkpt>
      <trkpt lat="49.39104" lon="1.05886">
        <ele>69</ele>
        <time>2019-12-30T12:40:42.000Z</time>
      </trkpt>
      <trkpt lat="49.39099" lon="1.05888">
        <ele>69</ele>
        <time>2019-12-30T12:40:43.000Z</time>
      </trkpt>
      <trkpt lat="49.39094" lon="1.05889">
        <ele>69</ele>
        <time>2019-12-30T12:40:44.000Z</time>
      </trkpt>
      <trkpt lat="49.39089" lon="1.05891">
        <ele>69</ele>
        <time>2019-12-30T12:40:45.000Z</time>
      </trkpt>
      <trkpt lat="49.39084" lon="1.05892">
        <ele>69</ele>
        <time>2019-12-30T12:40:46.000Z</time>
      </trkpt>
      <trkpt lat="49.39078" lon="1.05894">
        <ele>69</ele>
        <time>2019-12-30T12:40:47.000Z</time>
      </trkpt>
      <trkpt lat="49.39073" lon="1.05896">
        <ele>69</ele>
        <time>2019-12-30T12:40:48.000Z</time>
      </trkpt>
      <trkpt lat="49.39068" lon="1.05898">
        <ele>70</ele>
        <time>2019-12-30T12:40:49.000Z</time>
      </trkpt>
      <trkpt lat="49.39064" lon="1.059">
        <ele>70</ele>
        <time>2019-12-30T12:40:50.000Z</time>
      </trkpt>
      <trkpt lat="49.39059" lon="1.05902">
        <ele>70</ele>
        <time>2019-12-30T12:40:51.000Z</time>
      </trkpt>
      <trkpt lat="49.39054" lon="1.05904">
        <ele>70</ele>
        <time>2019-12-30T12:40:52.000Z</time>
      </trkpt>
      <trkpt lat="49.39049" lon="1.05905">
        <ele>70</ele>
        <time>2019-12-30T12:40:53.000Z</time>
      </trkpt>
      <trkpt lat="49.39044" lon="1.05907">
        <ele>70</ele>
        <time>2019-12-30T12:40:54.000Z</time>
      </trkpt>
      <trkpt lat="49.39039" lon="1.05908">
        <ele>71</ele>
        <time>2019-12-30T12:40:55.000Z</time>
      </trkpt>
      <trkpt lat="49.39034" lon="1.0591">
        <ele>71</ele>
        <time>2019-12-30T12:40:56.000Z</time>
      </trkpt>
      <trkpt lat="49.39029" lon="1.05911">
        <ele>71</ele>
        <time>2019-12-30T12:40:57.000Z</time>
      </trkpt>
      <trkpt lat="49.39024" lon="1.05913">
        <ele>71</ele>
        <time>2019-12-30T12:40:58.000Z</time>
      </trkpt>
      <trkpt lat="49.39019" lon="1.05915">
        <ele>71</ele>
        <time>2019-12-30T12:40:59.000Z</time>
      </trkpt>
      <trkpt lat="49.39014" lon="1.05916">
        <ele>72</ele>
        <time>2019-12-30T12:41:00.000Z</time>
      </trkpt>
      <trkpt lat="49.39009" lon="1.05918">
        <ele>72</ele>
        <time>2019-12-30T12:41:01.000Z</time>
      </trkpt>
      <trkpt lat="49.39003" lon="1.0592">
        <ele>72</ele>
        <time>2019-12-30T12:41:02.000Z</time>
      </trkpt>
      <trkpt lat="49.38998" lon="1.05921">
        <ele>72</ele>
        <time>2019-12-30T12:41:03.000Z</time>
      </trkpt>
      <trkpt lat="49.38993" lon="1.05922">
        <ele>73</ele>
        <time>2019-12-30T12:41:04.000Z</time>
      </trkpt>
      <trkpt lat="49.38988" lon="1.05924">
        <ele>73</ele>
        <time>2019-12-30T12:41:05.000Z</time>
      </trkpt>
      <trkpt lat="49.38983" lon="1.05925">
        <ele>73</ele>
        <time>2019-12-30T12:41:06.000Z</time>
      </trkpt>
      <trkpt lat="49.38978" lon="1.05927">
        <ele>73</ele>
        <time>2019-12-30T12:41:07.000Z</time>
      </trkpt>
      <trkpt lat="49.38973" lon="1.05928">
        <ele>73</ele>
        <time>2019-12-30T12:41:08.000Z</time>
      </trkpt>
      <trkpt lat="49.38967" lon="1.0593">
        <ele>74</ele>
        <time>2019-12-30T12:41:09.000Z</time>
      </trkpt>
      <trkpt lat="49.38963" lon="1.05931">
        <ele>74</ele>
        <time>2019-12-30T12:41:10.000Z</time>
      </trkpt>
      <trkpt lat="49.38958" lon="1.05933">
        <ele>74</ele>
        <time>2019-12-30T12:41:11.000Z</time>
      </trkpt>
      <trkpt lat="49.38953" lon="1.05934">
        <ele>74</ele>
        <time>2019-12-30T12:41:12.000Z</time>
      </trkpt>
      <trkpt lat="49.38948" lon="1.05935">
        <ele>74</ele>
        <time>2019-12-30T12:41:13.000Z</time>
      </trkpt>
      <trkpt lat="49.38943" lon="1.05937">
        <ele>74</ele>
        <time>2019-12-30T12:41:14.000Z</time>
      </trkpt>
      <trkpt lat="49.38938" lon="1.05938">
        <ele>74</ele>
        <time>2019-12-30T12:41:15.000Z</time>
      </trkpt>
      <trkpt lat="49.38934" lon="1.05939">
        <ele>74</ele>
        <time>2019-12-30T12:41:16.000Z</time>
      </trkpt>
      <trkpt lat="49.38929" lon="1.0594">
        <ele>75</ele>
        <time>2019-12-30T12:41:17.000Z</time>
      </trkpt>
      <trkpt lat="49.38925" lon="1.05941">
        <ele>75</ele>
        <time>2019-12-30T12:41:18.000Z</time>
      </trkpt>
      <trkpt lat="49.38921" lon="1.05942">
        <ele>75</ele>
        <time>2019-12-30T12:41:19.000Z</time>
      </trkpt>
      <trkpt lat="49.38916" lon="1.05943">
        <ele>75</ele>
        <time>2019-12-30T12:41:20.000Z</time>
      </trkpt>
      <trkpt lat="49.38912" lon="1.05944">
        <ele>75</ele>
        <time>2019-12-30T12:41:21.000Z</time>
      </trkpt>
      <trkpt lat="49.38908" lon="1.05945">
        <ele>75</ele>
        <time>2019-12-30T12:41:22.000Z</time>
      </trkpt>
      <trkpt lat="49.38903" lon="1.05946">
        <ele>76</ele>
        <time>2019-12-30T12:41:23.000Z</time>
      </trkpt>
      <trkpt lat="49.38899" lon="1.05948">
        <ele>76</ele>
        <time>2019-12-30T12:41:24.000Z</time>
      </trkpt>
      <trkpt lat="49.38895" lon="1.05951">
        <ele>76</ele>
        <time>2019-12-30T12:41:25.000Z</time>
      </trkpt>
      <trkpt lat="49.38891" lon="1.05953">
        <ele>76</ele>
        <time>2019-12-30T12:41:26.000Z</time>
      </trkpt>
      <trkpt lat="49.38887" lon="1.05956">
        <ele>76</ele>
        <time>2019-12-30T12:41:27.000Z</time>
      </trkpt>
      <trkpt lat="49.38884" lon="1.05958">
        <ele>76</ele>
        <time>2019-12-30T12:41:28.000Z</time>
      </trkpt>
      <trkpt lat="49.38881" lon="1.0596">
        <ele>76</ele>
        <time>2019-12-30T12:41:29.000Z</time>
      </trkpt>
      <trkpt lat="49.38879" lon="1.05962">
        <ele>76</ele>
        <time>2019-12-30T12:41:30.000Z</time>
      </trkpt>
      <trkpt lat="49.38877" lon="1.05962">
        <ele>76</ele>
        <time>2019-12-30T12:41:31.000Z</time>
      </trkpt>
      <trkpt lat="49.38877" lon="1.05962">
        <ele>76</ele>
        <time>2019-12-30T12:41:32.000Z</time>
      </trkpt>
      <trkpt lat="49.38877" lon="1.05962">
        <ele>76</ele>
        <time>2019-12-30T12:41:33.000Z</time>
      </trkpt>
      <trkpt lat="49.38869" lon="1.0596">
        <ele>77</ele>
        <time>2019-12-30T12:41:34.000Z</time>
      </trkpt>
      <trkpt lat="49.38868" lon="1.05961">
        <ele>77</ele>
        <time>2019-12-30T12:41:35.000Z</time>
      </trkpt>
      <trkpt lat="49.38866" lon="1.05961">
        <ele>77</ele>
        <time>2019-12-30T12:41:36.000Z</time>
      </trkpt>
      <trkpt lat="49.38864" lon="1.05962">
        <ele>77</ele>
        <time>2019-12-30T12:41:37.000Z</time>
      </trkpt>
      <trkpt lat="49.38862" lon="1.05962">
        <ele>76</ele>
        <time>2019-12-30T12:41:38.000Z</time>
      </trkpt>
      <trkpt lat="49.38859" lon="1.05962">
        <ele>76</ele>
        <time>2019-12-30T12:41:39.000Z</time>
      </trkpt>
      <trkpt lat="49.38857" lon="1.05962">
        <ele>77</ele>
        <time>2019-12-30T12:41:40.000Z</time>
      </trkpt>
      <trkpt lat="49.38855" lon="1.05963">
        <ele>77</ele>
        <time>2019-12-30T12:41:41.000Z</time>
      </trkpt>
      <trkpt lat="49.38854" lon="1.05965">
        <ele>77</ele>
        <time>2019-12-30T12:41:42.000Z</time>
      </trkpt>
      <trkpt lat="49.38854" lon="1.05968">
        <ele>77</ele>
        <time>2019-12-30T12:41:43.000Z</time>
      </trkpt>
      <trkpt lat="49.38854" lon="1.05972">
        <ele>77</ele>
        <time>2019-12-30T12:41:44.000Z</time>
      </trkpt>
      <trkpt lat="49.38855" lon="1.05976">
        <ele>76</ele>
        <time>2019-12-30T12:41:45.000Z</time>
      </trkpt>
      <trkpt lat="49.38855" lon="1.0598">
        <ele>76</ele>
        <time>2019-12-30T12:41:46.000Z</time>
      </trkpt>
      <trkpt lat="49.38856" lon="1.05985">
        <ele>76</ele>
        <time>2019-12-30T12:41:47.000Z</time>
      </trkpt>
      <trkpt lat="49.38857" lon="1.0599">
        <ele>76</ele>
        <time>2019-12-30T12:41:48.000Z</time>
      </trkpt>
      <trkpt lat="49.38858" lon="1.05995">
        <ele>75</ele>
        <time>2019-12-30T12:41:49.000Z</time>
      </trkpt>
      <trkpt lat="49.38858" lon="1.06001">
        <ele>75</ele>
        <time>2019-12-30T12:41:50.000Z</time>
      </trkpt>
      <trkpt lat="49.38857" lon="1.06006">
        <ele>75</ele>
        <time>2019-12-30T12:41:51.000Z</time>
      </trkpt>
      <trkpt lat="49.38856" lon="1.06011">
        <ele>75</ele>
        <time>2019-12-30T12:41:52.000Z</time>
      </trkpt>
      <trkpt lat="49.38854" lon="1.06017">
        <ele>75</ele>
        <time>2019-12-30T12:41:53.000Z</time>
      </trkpt>
      <trkpt lat="49.38853" lon="1.06022">
        <ele>75</ele>
        <time>2019-12-30T12:41:54.000Z</time>
      </trkpt>
      <trkpt lat="49.38851" lon="1.06028">
        <ele>74</ele>
        <time>2019-12-30T12:41:55.000Z</time>
      </trkpt>
      <trkpt lat="49.3885" lon="1.06033">
        <ele>74</ele>
        <time>2019-12-30T12:41:56.000Z</time>
      </trkpt>
      <trkpt lat="49.38848" lon="1.06039">
        <ele>74</ele>
        <time>2019-12-30T12:41:57.000Z</time>
      </trkpt>
      <trkpt lat="49.38846" lon="1.06044">
        <ele>74</ele>
        <time>2019-12-30T12:41:58.000Z</time>
      </trkpt>
      <trkpt lat="49.38845" lon="1.0605">
        <ele>74</ele>
        <time>2019-12-30T12:41:59.000Z</time>
      </trkpt>
      <trkpt lat="49.38843" lon="1.06056">
        <ele>74</ele>
        <time>2019-12-30T12:42:00.000Z</time>
      </trkpt>
      <trkpt lat="49.38841" lon="1.06062">
        <ele>74</ele>
        <time>2019-12-30T12:42:01.000Z</time>
      </trkpt>
      <trkpt lat="49.3884" lon="1.06069">
        <ele>74</ele>
        <time>2019-12-30T12:42:02.000Z</time>
      </trkpt>
      <trkpt lat="49.38838" lon="1.06075">
        <ele>74</ele>
        <time>2019-12-30T12:42:03.000Z</time>
      </trkpt>
      <trkpt lat="49.38836" lon="1.06081">
        <ele>74</ele>
        <time>2019-12-30T12:42:04.000Z</time>
      </trkpt>
      <trkpt lat="49.38835" lon="1.06087">
        <ele>74</ele>
        <time>2019-12-30T12:42:05.000Z</time>
      </trkpt>
      <trkpt lat="49.38833" lon="1.06093">
        <ele>74</ele>
        <time>2019-12-30T12:42:06.000Z</time>
      </trkpt>
      <trkpt lat="49.38831" lon="1.06099">
        <ele>74</ele>
        <time>2019-12-30T12:42:07.000Z</time>
      </trkpt>
      <trkpt lat="49.38829" lon="1.06105">
        <ele>74</ele>
        <time>2019-12-30T12:42:08.000Z</time>
      </trkpt>
      <trkpt lat="49.38828" lon="1.06111">
        <ele>74</ele>
        <time>2019-12-30T12:42:09.000Z</time>
      </trkpt>
      <trkpt lat="49.38826" lon="1.06117">
        <ele>74</ele>
        <time>2019-12-30T12:42:10.000Z</time>
      </trkpt>
      <trkpt lat="49.38824" lon="1.06123">
        <ele>74</ele>
        <time>2019-12-30T12:42:11.000Z</time>
      </trkpt>
      <trkpt lat="49.38823" lon="1.06129">
        <ele>74</ele>
        <time>2019-12-30T12:42:12.000Z</time>
      </trkpt>
      <trkpt lat="49.38821" lon="1.06135">
        <ele>74</ele>
        <time>2019-12-30T12:42:13.000Z</time>
      </trkpt>
      <trkpt lat="49.38819" lon="1.06141">
        <ele>74</ele>
        <time>2019-12-30T12:42:14.000Z</time>
      </trkpt>
      <trkpt lat="49.38818" lon="1.06146">
        <ele>74</ele>
        <time>2019-12-30T12:42:15.000Z</time>
      </trkpt>
      <trkpt lat="49.38816" lon="1.06152">
        <ele>74</ele>
        <time>2019-12-30T12:42:16.000Z</time>
      </trkpt>
      <trkpt lat="49.38815" lon="1.06157">
        <ele>74</ele>
        <time>2019-12-30T12:42:17.000Z</time>
      </trkpt>
      <trkpt lat="49.38814" lon="1.06162">
        <ele>74</ele>
        <time>2019-12-30T12:42:18.000Z</time>
      </trkpt>
      <trkpt lat="49.38813" lon="1.06167">
        <ele>74</ele>
        <time>2019-12-30T12:42:19.000Z</time>
      </trkpt>
      <trkpt lat="49.38812" lon="1.06171">
        <ele>74</ele>
        <time>2019-12-30T12:42:20.000Z</time>
      </trkpt>
      <trkpt lat="49.38811" lon="1.06175">
        <ele>74</ele>
        <time>2019-12-30T12:42:21.000Z</time>
      </trkpt>
      <trkpt lat="49.3881" lon="1.06179">
        <ele>74</ele>
        <time>2019-12-30T12:42:22.000Z</time>
      </trkpt>
      <trkpt lat="49.38809" lon="1.06183">
        <ele>74</ele>
        <time>2019-12-30T12:42:23.000Z</time>
      </trkpt>
      <trkpt lat="49.38808" lon="1.06186">
        <ele>74</ele>
        <time>2019-12-30T12:42:24.000Z</time>
      </trkpt>
      <trkpt lat="49.38808" lon="1.06187">
        <ele>74</ele>
        <time>2019-12-30T12:42:25.000Z</time>
      </trkpt>
      <trkpt lat="49.38808" lon="1.06188">
        <ele>74</ele>
        <time>2019-12-30T12:42:26.000Z</time>
      </trkpt>
      <trkpt lat="49.38808" lon="1.06188">
        <ele>74</ele>
        <time>2019-12-30T12:42:27.000Z</time>
      </trkpt>
      <trkpt lat="49.38808" lon="1.06188">
        <ele>74</ele>
        <time>2019-12-30T12:42:28.000Z</time>
      </trkpt>
      <trkpt lat="49.38807" lon="1.06194">
        <ele>71</ele>
        <time>2019-12-30T12:42:29.000Z</time>
      </trkpt>
      <trkpt lat="49.38806" lon="1.06196">
        <ele>71</ele>
        <time>2019-12-30T12:42:30.000Z</time>
      </trkpt>
      <trkpt lat="49.38804" lon="1.06199">
        <ele>71</ele>
        <time>2019-12-30T12:42:31.000Z</time>
      </trkpt>
      <trkpt lat="49.38801" lon="1.06198">
        <ele>71</ele>
        <time>2019-12-30T12:42:32.000Z</time>
      </trkpt>
      <trkpt lat="49.38798" lon="1.06197">
        <ele>71</ele>
        <time>2019-12-30T12:42:33.000Z</time>
      </trkpt>
      <trkpt lat="49.38794" lon="1.06194">
        <ele>71</ele>
        <time>2019-12-30T12:42:34.000Z</time>
      </trkpt>
      <trkpt lat="49.38791" lon="1.06192">
        <ele>71</ele>
        <time>2019-12-30T12:42:35.000Z</time>
      </trkpt>
      <trkpt lat="49.38789" lon="1.06188">
        <ele>71</ele>
        <time>2019-12-30T12:42:36.000Z</time>
      </trkpt>
      <trkpt lat="49.38788" lon="1.06182">
        <ele>71</ele>
        <time>2019-12-30T12:42:37.000Z</time>
      </trkpt>
      <trkpt lat="49.38788" lon="1.06177">
        <ele>71</ele>
        <time>2019-12-30T12:42:38.000Z</time>
      </trkpt>
      <trkpt lat="49.38789" lon="1.06171">
        <ele>71</ele>
        <time>2019-12-30T12:42:39.000Z</time>
      </trkpt>
      <trkpt lat="49.38788" lon="1.06165">
        <ele>71</ele>
        <time>2019-12-30T12:42:40.000Z</time>
      </trkpt>
      <trkpt lat="49.38787" lon="1.0616">
        <ele>70</ele>
        <time>2019-12-30T12:42:41.000Z</time>
      </trkpt>
      <trkpt lat="49.38784" lon="1.06156">
        <ele>70</ele>
        <time>2019-12-30T12:42:42.000Z</time>
      </trkpt>
      <trkpt lat="49.3878" lon="1.06153">
        <ele>70</ele>
        <time>2019-12-30T12:42:43.000Z</time>
      </trkpt>
      <trkpt lat="49.38776" lon="1.0615">
        <ele>70</ele>
        <time>2019-12-30T12:42:44.000Z</time>
      </trkpt>
      <trkpt lat="49.38772" lon="1.06148">
        <ele>70</ele>
        <time>2019-12-30T12:42:45.000Z</time>
      </trkpt>
      <trkpt lat="49.38768" lon="1.06145">
        <ele>70</ele>
        <time>2019-12-30T12:42:46.000Z</time>
      </trkpt>
      <trkpt lat="49.38764" lon="1.06142">
        <ele>70</ele>
        <time>2019-12-30T12:42:47.000Z</time>
      </trkpt>
      <trkpt lat="49.3876" lon="1.06139">
        <ele>70</ele>
        <time>2019-12-30T12:42:48.000Z</time>
      </trkpt>
      <trkpt lat="49.38756" lon="1.06136">
        <ele>70</ele>
        <time>2019-12-30T12:42:49.000Z</time>
      </trkpt>
      <trkpt lat="49.38752" lon="1.06134">
        <ele>70</ele>
        <time>2019-12-30T12:42:50.000Z</time>
      </trkpt>
      <trkpt lat="49.38748" lon="1.06131">
        <ele>70</ele>
        <time>2019-12-30T12:42:51.000Z</time>
      </trkpt>
      <trkpt lat="49.38744" lon="1.06129">
        <ele>70</ele>
        <time>2019-12-30T12:42:52.000Z</time>
      </trkpt>
      <trkpt lat="49.3874" lon="1.06126">
        <ele>70</ele>
        <time>2019-12-30T12:42:53.000Z</time>
      </trkpt>
      <trkpt lat="49.38735" lon="1.06124">
        <ele>70</ele>
        <time>2019-12-30T12:42:54.000Z</time>
      </trkpt>
      <trkpt lat="49.38731" lon="1.06122">
        <ele>70</ele>
        <time>2019-12-30T12:42:55.000Z</time>
      </trkpt>
      <trkpt lat="49.38727" lon="1.0612">
        <ele>70</ele>
        <time>2019-12-30T12:42:56.000Z</time>
      </trkpt>
      <trkpt lat="49.38723" lon="1.06117">
        <ele>70</ele>
        <time>2019-12-30T12:42:57.000Z</time>
      </trkpt>
      <trkpt lat="49.38719" lon="1.06114">
        <ele>69</ele>
        <time>2019-12-30T12:42:58.000Z</time>
      </trkpt>
      <trkpt lat="49.38715" lon="1.06111">
        <ele>69</ele>
        <time>2019-12-30T12:42:59.000Z</time>
      </trkpt>
      <trkpt lat="49.3871" lon="1.06108">
        <ele>69</ele>
        <time>2019-12-30T12:43:00.000Z</time>
      </trkpt>
      <trkpt lat="49.38706" lon="1.06105">
        <ele>69</ele>
        <time>2019-12-30T12:43:01.000Z</time>
      </trkpt>
      <trkpt lat="49.38701" lon="1.06101">
        <ele>69</ele>
        <time>2019-12-30T12:43:02.000Z</time>
      </trkpt>
      <trkpt lat="49.38697" lon="1.06098">
        <ele>69</ele>
        <time>2019-12-30T12:43:03.000Z</time>
      </trkpt>
      <trkpt lat="49.38692" lon="1.06095">
        <ele>69</ele>
        <time>2019-12-30T12:43:04.000Z</time>
      </trkpt>
      <trkpt lat="49.38688" lon="1.06092">
        <ele>69</ele>
        <time>2019-12-30T12:43:05.000Z</time>
      </trkpt>
      <trkpt lat="49.38683" lon="1.06088">
        <ele>69</ele>
        <time>2019-12-30T12:43:06.000Z</time>
      </trkpt>
      <trkpt lat="49.38678" lon="1.06085">
        <ele>69</ele>
        <time>2019-12-30T12:43:07.000Z</time>
      </trkpt>
      <trkpt lat="49.38674" lon="1.06082">
        <ele>69</ele>
        <time>2019-12-30T12:43:08.000Z</time>
      </trkpt>
      <trkpt lat="49.38669" lon="1.06079">
        <ele>69</ele>
        <time>2019-12-30T12:43:09.000Z</time>
      </trkpt>
      <trkpt lat="49.38664" lon="1.06076">
        <ele>69</ele>
        <time>2019-12-30T12:43:10.000Z</time>
      </trkpt>
      <trkpt lat="49.38659" lon="1.06073">
        <ele>69</ele>
        <time>2019-12-30T12:43:11.000Z</time>
      </trkpt>
      <trkpt lat="49.38655" lon="1.0607">
        <ele>69</ele>
        <time>2019-12-30T12:43:12.000Z</time>
      </trkpt>
      <trkpt lat="49.3865" lon="1.06068">
        <ele>69</ele>
        <time>2019-12-30T12:43:13.000Z</time>
      </trkpt>
      <trkpt lat="49.38645" lon="1.06066">
        <ele>69</ele>
        <time>2019-12-30T12:43:14.000Z</time>
      </trkpt>
      <trkpt lat="49.3864" lon="1.06064">
        <ele>69</ele>
        <time>2019-12-30T12:43:15.000Z</time>
      </trkpt>
      <trkpt lat="49.38635" lon="1.06063">
        <ele>69</ele>
        <time>2019-12-30T12:43:16.000Z</time>
      </trkpt>
      <trkpt lat="49.38631" lon="1.06062">
        <ele>69</ele>
        <time>2019-12-30T12:43:17.000Z</time>
      </trkpt>
      <trkpt lat="49.38626" lon="1.06061">
        <ele>69</ele>
        <time>2019-12-30T12:43:18.000Z</time>
      </trkpt>
      <trkpt lat="49.38622" lon="1.06061">
        <ele>69</ele>
        <time>2019-12-30T12:43:19.000Z</time>
      </trkpt>
      <trkpt lat="49.38617" lon="1.06061">
        <ele>70</ele>
        <time>2019-12-30T12:43:20.000Z</time>
      </trkpt>
      <trkpt lat="49.38614" lon="1.0606">
        <ele>70</ele>
        <time>2019-12-30T12:43:21.000Z</time>
      </trkpt>
      <trkpt lat="49.3861" lon="1.06058">
        <ele>70</ele>
        <time>2019-12-30T12:43:22.000Z</time>
      </trkpt>
      <trkpt lat="49.38609" lon="1.06053">
        <ele>70</ele>
        <time>2019-12-30T12:43:23.000Z</time>
      </trkpt>
      <trkpt lat="49.38608" lon="1.06049">
        <ele>69</ele>
        <time>2019-12-30T12:43:24.000Z</time>
      </trkpt>
      <trkpt lat="49.38607" lon="1.06044">
        <ele>69</ele>
        <time>2019-12-30T12:43:25.000Z</time>
      </trkpt>
      <trkpt lat="49.38604" lon="1.0604">
        <ele>69</ele>
        <time>2019-12-30T12:43:26.000Z</time>
      </trkpt>
      <trkpt lat="49.38601" lon="1.06037">
        <ele>69</ele>
        <time>2019-12-30T12:43:27.000Z</time>
      </trkpt>
      <trkpt lat="49.38597" lon="1.06035">
        <ele>69</ele>
        <time>2019-12-30T12:43:28.000Z</time>
      </trkpt>
      <trkpt lat="49.38594" lon="1.06034">
        <ele>69</ele>
        <time>2019-12-30T12:43:29.000Z</time>
      </trkpt>
      <trkpt lat="49.38589" lon="1.06035">
        <ele>69</ele>
        <time>2019-12-30T12:43:30.000Z</time>
      </trkpt>
      <trkpt lat="49.38585" lon="1.06036">
        <ele>69</ele>
        <time>2019-12-30T12:43:31.000Z</time>
      </trkpt>
      <trkpt lat="49.38581" lon="1.06038">
        <ele>69</ele>
        <time>2019-12-30T12:43:32.000Z</time>
      </trkpt>
      <trkpt lat="49.38576" lon="1.0604">
        <ele>69</ele>
        <time>2019-12-30T12:43:33.000Z</time>
      </trkpt>
      <trkpt lat="49.38571" lon="1.06041">
        <ele>69</ele>
        <time>2019-12-30T12:43:34.000Z</time>
      </trkpt>
      <trkpt lat="49.38566" lon="1.06043">
        <ele>69</ele>
        <time>2019-12-30T12:43:35.000Z</time>
      </trkpt>
      <trkpt lat="49.38561" lon="1.06045">
        <ele>70</ele>
        <time>2019-12-30T12:43:36.000Z</time>
      </trkpt>
      <trkpt lat="49.38556" lon="1.06047">
        <ele>70</ele>
        <time>2019-12-30T12:43:37.000Z</time>
      </trkpt>
      <trkpt lat="49.38551" lon="1.06048">
        <ele>70</ele>
        <time>2019-12-30T12:43:38.000Z</time>
      </trkpt>
      <trkpt lat="49.38546" lon="1.06049">
        <ele>70</ele>
        <time>2019-12-30T12:43:39.000Z</time>
      </trkpt>
      <trkpt lat="49.38541" lon="1.06051">
        <ele>70</ele>
        <time>2019-12-30T12:43:40.000Z</time>
      </trkpt>
      <trkpt lat="49.38536" lon="1.06052">
        <ele>70</ele>
        <time>2019-12-30T12:43:41.000Z</time>
      </trkpt>
      <trkpt lat="49.38531" lon="1.06054">
        <ele>70</ele>
        <time>2019-12-30T12:43:42.000Z</time>
      </trkpt>
      <trkpt lat="49.38526" lon="1.06055">
        <ele>71</ele>
        <time>2019-12-30T12:43:43.000Z</time>
      </trkpt>
      <trkpt lat="49.3852" lon="1.06057">
        <ele>71</ele>
        <time>2019-12-30T12:43:44.000Z</time>
      </trkpt>
      <trkpt lat="49.38515" lon="1.06059">
        <ele>71</ele>
        <time>2019-12-30T12:43:45.000Z</time>
      </trkpt>
      <trkpt lat="49.3851" lon="1.06061">
        <ele>71</ele>
        <time>2019-12-30T12:43:46.000Z</time>
      </trkpt>
      <trkpt lat="49.38505" lon="1.06063">
        <ele>71</ele>
        <time>2019-12-30T12:43:47.000Z</time>
      </trkpt>
      <trkpt lat="49.385" lon="1.06065">
        <ele>72</ele>
        <time>2019-12-30T12:43:48.000Z</time>
      </trkpt>
      <trkpt lat="49.38495" lon="1.06066">
        <ele>72</ele>
        <time>2019-12-30T12:43:49.000Z</time>
      </trkpt>
      <trkpt lat="49.38489" lon="1.06067">
        <ele>72</ele>
        <time>2019-12-30T12:43:50.000Z</time>
      </trkpt>
      <trkpt lat="49.38484" lon="1.06069">
        <ele>72</ele>
        <time>2019-12-30T12:43:51.000Z</time>
      </trkpt>
      <trkpt lat="49.38478" lon="1.0607">
        <ele>73</ele>
        <time>2019-12-30T12:43:52.000Z</time>
      </trkpt>
      <trkpt lat="49.38473" lon="1.06072">
        <ele>73</ele>
        <time>2019-12-30T12:43:53.000Z</time>
      </trkpt>
      <trkpt lat="49.38468" lon="1.06073">
        <ele>73</ele>
        <time>2019-12-30T12:43:54.000Z</time>
      </trkpt>
      <trkpt lat="49.38462" lon="1.06075">
        <ele>74</ele>
        <time>2019-12-30T12:43:55.000Z</time>
      </trkpt>
      <trkpt lat="49.38457" lon="1.06075">
        <ele>74</ele>
        <time>2019-12-30T12:43:56.000Z</time>
      </trkpt>
      <trkpt lat="49.38451" lon="1.06076">
        <ele>75</ele>
        <time>2019-12-30T12:43:57.000Z</time>
      </trkpt>
      <trkpt lat="49.38446" lon="1.06078">
        <ele>75</ele>
        <time>2019-12-30T12:43:58.000Z</time>
      </trkpt>
      <trkpt lat="49.38441" lon="1.06079">
        <ele>75</ele>
        <time>2019-12-30T12:43:59.000Z</time>
      </trkpt>
      <trkpt lat="49.38436" lon="1.0608">
        <ele>76</ele>
        <time>2019-12-30T12:44:00.000Z</time>
      </trkpt>
      <trkpt lat="49.38432" lon="1.06081">
        <ele>76</ele>
        <time>2019-12-30T12:44:01.000Z</time>
      </trkpt>
      <trkpt lat="49.38427" lon="1.06083">
        <ele>76</ele>
        <time>2019-12-30T12:44:02.000Z</time>
      </trkpt>
      <trkpt lat="49.38422" lon="1.06085">
        <ele>77</ele>
        <time>2019-12-30T12:44:03.000Z</time>
      </trkpt>
      <trkpt lat="49.38418" lon="1.06085">
        <ele>77</ele>
        <time>2019-12-30T12:44:04.000Z</time>
      </trkpt>
      <trkpt lat="49.38414" lon="1.06085">
        <ele>77</ele>
        <time>2019-12-30T12:44:05.000Z</time>
      </trkpt>
      <trkpt lat="49.3841" lon="1.06085">
        <ele>78</ele>
        <time>2019-12-30T12:44:06.000Z</time>
      </trkpt>
      <trkpt lat="49.38407" lon="1.06087">
        <ele>78</ele>
        <time>2019-12-30T12:44:07.000Z</time>
      </trkpt>
      <trkpt lat="49.38404" lon="1.0609">
        <ele>78</ele>
        <time>2019-12-30T12:44:08.000Z</time>
      </trkpt>
      <trkpt lat="49.384" lon="1.06092">
        <ele>79</ele>
        <time>2019-12-30T12:44:09.000Z</time>
      </trkpt>
      <trkpt lat="49.38395" lon="1.06093">
        <ele>79</ele>
        <time>2019-12-30T12:44:10.000Z</time>
      </trkpt>
      <trkpt lat="49.38391" lon="1.06094">
        <ele>79</ele>
        <time>2019-12-30T12:44:11.000Z</time>
      </trkpt>
      <trkpt lat="49.38387" lon="1.06095">
        <ele>79</ele>
        <time>2019-12-30T12:44:12.000Z</time>
      </trkpt>
      <trkpt lat="49.38382" lon="1.06097">
        <ele>80</ele>
        <time>2019-12-30T12:44:13.000Z</time>
      </trkpt>
      <trkpt lat="49.38378" lon="1.06098">
        <ele>80</ele>
        <time>2019-12-30T12:44:14.000Z</time>
      </trkpt>
      <trkpt lat="49.38373" lon="1.061">
        <ele>80</ele>
        <time>2019-12-30T12:44:15.000Z</time>
      </trkpt>
      <trkpt lat="49.38368" lon="1.06101">
        <ele>81</ele>
        <time>2019-12-30T12:44:16.000Z</time>
      </trkpt>
      <trkpt lat="49.38364" lon="1.06103">
        <ele>81</ele>
        <time>2019-12-30T12:44:17.000Z</time>
      </trkpt>
      <trkpt lat="49.38359" lon="1.06104">
        <ele>81</ele>
        <time>2019-12-30T12:44:18.000Z</time>
      </trkpt>
      <trkpt lat="49.38354" lon="1.06106">
        <ele>82</ele>
        <time>2019-12-30T12:44:19.000Z</time>
      </trkpt>
      <trkpt lat="49.38349" lon="1.06108">
        <ele>82</ele>
        <time>2019-12-30T12:44:20.000Z</time>
      </trkpt>
      <trkpt lat="49.38344" lon="1.0611">
        <ele>83</ele>
        <time>2019-12-30T12:44:21.000Z</time>
      </trkpt>
      <trkpt lat="49.38339" lon="1.06112">
        <ele>83</ele>
        <time>2019-12-30T12:44:22.000Z</time>
      </trkpt>
      <trkpt lat="49.38334" lon="1.06114">
        <ele>83</ele>
        <time>2019-12-30T12:44:23.000Z</time>
      </trkpt>
      <trkpt lat="49.38329" lon="1.06115">
        <ele>83</ele>
        <time>2019-12-30T12:44:24.000Z</time>
      </trkpt>
      <trkpt lat="49.38325" lon="1.06117">
        <ele>83</ele>
        <time>2019-12-30T12:44:25.000Z</time>
      </trkpt>
      <trkpt lat="49.3832" lon="1.06119">
        <ele>84</ele>
        <time>2019-12-30T12:44:26.000Z</time>
      </trkpt>
      <trkpt lat="49.38315" lon="1.0612">
        <ele>84</ele>
        <time>2019-12-30T12:44:27.000Z</time>
      </trkpt>
      <trkpt lat="49.3831" lon="1.06122">
        <ele>84</ele>
        <time>2019-12-30T12:44:28.000Z</time>
      </trkpt>
      <trkpt lat="49.38305" lon="1.06123">
        <ele>84</ele>
        <time>2019-12-30T12:44:29.000Z</time>
      </trkpt>
      <trkpt lat="49.383" lon="1.06124">
        <ele>84</ele>
        <time>2019-12-30T12:44:30.000Z</time>
      </trkpt>
      <trkpt lat="49.38295" lon="1.06126">
        <ele>84</ele>
        <time>2019-12-30T12:44:31.000Z</time>
      </trkpt>
      <trkpt lat="49.3829" lon="1.06128">
        <ele>84</ele>
        <time>2019-12-30T12:44:32.000Z</time>
      </trkpt>
      <trkpt lat="49.38286" lon="1.06129">
        <ele>84</ele>
        <time>2019-12-30T12:44:33.000Z</time>
      </trkpt>
      <trkpt lat="49.38281" lon="1.0613">
        <ele>84</ele>
        <time>2019-12-30T12:44:34.000Z</time>
      </trkpt>
      <trkpt lat="49.38276" lon="1.06132">
        <ele>84</ele>
        <time>2019-12-30T12:44:35.000Z</time>
      </trkpt>
      <trkpt lat="49.38271" lon="1.06133">
        <ele>83</ele>
        <time>2019-12-30T12:44:36.000Z</time>
      </trkpt>
      <trkpt lat="49.38267" lon="1.06134">
        <ele>83</ele>
        <time>2019-12-30T12:44:37.000Z</time>
      </trkpt>
      <trkpt lat="49.38262" lon="1.06135">
        <ele>83</ele>
        <time>2019-12-30T12:44:38.000Z</time>
      </trkpt>
      <trkpt lat="49.38257" lon="1.06137">
        <ele>83</ele>
        <time>2019-12-30T12:44:39.000Z</time>
      </trkpt>
      <trkpt lat="49.38252" lon="1.06138">
        <ele>83</ele>
        <time>2019-12-30T12:44:40.000Z</time>
      </trkpt>
      <trkpt lat="49.38247" lon="1.0614">
        <ele>82</ele>
        <time>2019-12-30T12:44:41.000Z</time>
      </trkpt>
      <trkpt lat="49.38242" lon="1.06141">
        <ele>82</ele>
        <time>2019-12-30T12:44:42.000Z</time>
      </trkpt>
      <trkpt lat="49.38237" lon="1.06142">
        <ele>82</ele>
        <time>2019-12-30T12:44:43.000Z</time>
      </trkpt>
      <trkpt lat="49.38232" lon="1.06143">
        <ele>82</ele>
        <time>2019-12-30T12:44:44.000Z</time>
      </trkpt>
      <trkpt lat="49.38227" lon="1.06145">
        <ele>82</ele>
        <time>2019-12-30T12:44:45.000Z</time>
      </trkpt>
      <trkpt lat="49.38222" lon="1.06146">
        <ele>81</ele>
        <time>2019-12-30T12:44:46.000Z</time>
      </trkpt>
      <trkpt lat="49.38217" lon="1.06148">
        <ele>81</ele>
        <time>2019-12-30T12:44:47.000Z</time>
      </trkpt>
      <trkpt lat="49.38213" lon="1.06149">
        <ele>81</ele>
        <time>2019-12-30T12:44:48.000Z</time>
      </trkpt>
      <trkpt lat="49.38208" lon="1.0615">
        <ele>81</ele>
        <time>2019-12-30T12:44:49.000Z</time>
      </trkpt>
      <trkpt lat="49.38203" lon="1.06151">
        <ele>80</ele>
        <time>2019-12-30T12:44:50.000Z</time>
      </trkpt>
      <trkpt lat="49.38198" lon="1.06153">
        <ele>80</ele>
        <time>2019-12-30T12:44:51.000Z</time>
      </trkpt>
      <trkpt lat="49.38193" lon="1.06155">
        <ele>80</ele>
        <time>2019-12-30T12:44:52.000Z</time>
      </trkpt>
      <trkpt lat="49.38187" lon="1.06156">
        <ele>79</ele>
        <time>2019-12-30T12:44:53.000Z</time>
      </trkpt>
      <trkpt lat="49.38182" lon="1.06157">
        <ele>79</ele>
        <time>2019-12-30T12:44:54.000Z</time>
      </trkpt>
      <trkpt lat="49.38177" lon="1.06159">
        <ele>79</ele>
        <time>2019-12-30T12:44:55.000Z</time>
      </trkpt>
      <trkpt lat="49.38171" lon="1.06161">
        <ele>79</ele>
        <time>2019-12-30T12:44:56.000Z</time>
      </trkpt>
      <trkpt lat="49.38166" lon="1.06162">
        <ele>79</ele>
        <time>2019-12-30T12:44:57.000Z</time>
      </trkpt>
      <trkpt lat="49.38161" lon="1.06164">
        <ele>78</ele>
        <time>2019-12-30T12:44:58.000Z</time>
      </trkpt>
      <trkpt lat="49.38155" lon="1.06165">
        <ele>78</ele>
        <time>2019-12-30T12:44:59.000Z</time>
      </trkpt>
      <trkpt lat="49.3815" lon="1.06167">
        <ele>78</ele>
        <time>2019-12-30T12:45:00.000Z</time>
      </trkpt>
      <trkpt lat="49.38144" lon="1.06169">
        <ele>78</ele>
        <time>2019-12-30T12:45:01.000Z</time>
      </trkpt>
      <trkpt lat="49.38139" lon="1.06171">
        <ele>77</ele>
        <time>2019-12-30T12:45:02.000Z</time>
      </trkpt>
      <trkpt lat="49.38134" lon="1.06172">
        <ele>77</ele>
        <time>2019-12-30T12:45:03.000Z</time>
      </trkpt>
      <trkpt lat="49.38129" lon="1.06173">
        <ele>76</ele>
        <time>2019-12-30T12:45:04.000Z</time>
      </trkpt>
      <trkpt lat="49.38124" lon="1.06175">
        <ele>76</ele>
        <time>2019-12-30T12:45:05.000Z</time>
      </trkpt>
      <trkpt lat="49.38119" lon="1.06177">
        <ele>76</ele>
        <time>2019-12-30T12:45:06.000Z</time>
      </trkpt>
      <trkpt lat="49.38114" lon="1.06178">
        <ele>76</ele>
        <time>2019-12-30T12:45:07.000Z</time>
      </trkpt>
      <trkpt lat="49.38108" lon="1.0618">
        <ele>76</ele>
        <time>2019-12-30T12:45:08.000Z</time>
      </trkpt>
      <trkpt lat="49.38103" lon="1.06181">
        <ele>76</ele>
        <time>2019-12-30T12:45:09.000Z</time>
      </trkpt>
      <trkpt lat="49.38098" lon="1.06183">
        <ele>75</ele>
        <time>2019-12-30T12:45:10.000Z</time>
      </trkpt>
      <trkpt lat="49.38092" lon="1.06185">
        <ele>75</ele>
        <time>2019-12-30T12:45:11.000Z</time>
      </trkpt>
      <trkpt lat="49.38087" lon="1.06186">
        <ele>75</ele>
        <time>2019-12-30T12:45:12.000Z</time>
      </trkpt>
      <trkpt lat="49.38082" lon="1.06188">
        <ele>75</ele>
        <time>2019-12-30T12:45:13.000Z</time>
      </trkpt>
      <trkpt lat="49.38076" lon="1.06189">
        <ele>75</ele>
        <time>2019-12-30T12:45:14.000Z</time>
      </trkpt>
      <trkpt lat="49.38071" lon="1.06191">
        <ele>75</ele>
        <time>2019-12-30T12:45:15.000Z</time>
      </trkpt>
      <trkpt lat="49.38066" lon="1.06192">
        <ele>75</ele>
        <time>2019-12-30T12:45:16.000Z</time>
      </trkpt>
      <trkpt lat="49.38061" lon="1.06194">
        <ele>75</ele>
        <time>2019-12-30T12:45:17.000Z</time>
      </trkpt>
      <trkpt lat="49.38055" lon="1.06195">
        <ele>75</ele>
        <time>2019-12-30T12:45:18.000Z</time>
      </trkpt>
      <trkpt lat="49.3805" lon="1.06197">
        <ele>74</ele>
        <time>2019-12-30T12:45:19.000Z</time>
      </trkpt>
      <trkpt lat="49.38045" lon="1.06198">
        <ele>74</ele>
        <time>2019-12-30T12:45:20.000Z</time>
      </trkpt>
      <trkpt lat="49.3804" lon="1.062">
        <ele>74</ele>
        <time>2019-12-30T12:45:21.000Z</time>
      </trkpt>
      <trkpt lat="49.38035" lon="1.06201">
        <ele>74</ele>
        <time>2019-12-30T12:45:22.000Z</time>
      </trkpt>
      <trkpt lat="49.38029" lon="1.06203">
        <ele>74</ele>
        <time>2019-12-30T12:45:23.000Z</time>
      </trkpt>
      <trkpt lat="49.38024" lon="1.06205">
        <ele>74</ele>
        <time>2019-12-30T12:45:24.000Z</time>
      </trkpt>
      <trkpt lat="49.38019" lon="1.06206">
        <ele>74</ele>
        <time>2019-12-30T12:45:25.000Z</time>
      </trkpt>
      <trkpt lat="49.38014" lon="1.06208">
        <ele>74</ele>
        <time>2019-12-30T12:45:26.000Z</time>
      </trkpt>
      <trkpt lat="49.38008" lon="1.06209">
        <ele>74</ele>
        <time>2019-12-30T12:45:27.000Z</time>
      </trkpt>
      <trkpt lat="49.38003" lon="1.06211">
        <ele>74</ele>
        <time>2019-12-30T12:45:28.000Z</time>
      </trkpt>
      <trkpt lat="49.37998" lon="1.06212">
        <ele>74</ele>
        <time>2019-12-30T12:45:29.000Z</time>
      </trkpt>
      <trkpt lat="49.37993" lon="1.06214">
        <ele>74</ele>
        <time>2019-12-30T12:45:30.000Z</time>
      </trkpt>
      <trkpt lat="49.37988" lon="1.06215">
        <ele>74</ele>
        <time>2019-12-30T12:45:31.000Z</time>
      </trkpt>
      <trkpt lat="49.37984" lon="1.06216">
        <ele>74</ele>
        <time>2019-12-30T12:45:32.000Z</time>
      </trkpt>
      <trkpt lat="49.37981" lon="1.06215">
        <ele>74</ele>
        <time>2019-12-30T12:45:33.000Z</time>
      </trkpt>
      <trkpt lat="49.37979" lon="1.06212">
        <ele>74</ele>
        <time>2019-12-30T12:45:34.000Z</time>
      </trkpt>
      <trkpt lat="49.37978" lon="1.06208">
        <ele>74</ele>
        <time>2019-12-30T12:45:35.000Z</time>
      </trkpt>
      <trkpt lat="49.37978" lon="1.06203">
        <ele>73</ele>
        <time>2019-12-30T12:45:36.000Z</time>
      </trkpt>
      <trkpt lat="49.37978" lon="1.06198">
        <ele>74</ele>
        <time>2019-12-30T12:45:37.000Z</time>
      </trkpt>
      <trkpt lat="49.37979" lon="1.06193">
        <ele>74</ele>
        <time>2019-12-30T12:45:38.000Z</time>
      </trkpt>
      <trkpt lat="49.3798" lon="1.06187">
        <ele>74</ele>
        <time>2019-12-30T12:45:39.000Z</time>
      </trkpt>
      <trkpt lat="49.37981" lon="1.06182">
        <ele>74</ele>
        <time>2019-12-30T12:45:40.000Z</time>
      </trkpt>
      <trkpt lat="49.37982" lon="1.06177">
        <ele>74</ele>
        <time>2019-12-30T12:45:41.000Z</time>
      </trkpt>
      <trkpt lat="49.37982" lon="1.06171">
        <ele>74</ele>
        <time>2019-12-30T12:45:42.000Z</time>
      </trkpt>
      <trkpt lat="49.37982" lon="1.06166">
        <ele>74</ele>
        <time>2019-12-30T12:45:43.000Z</time>
      </trkpt>
      <trkpt lat="49.37983" lon="1.06161">
        <ele>74</ele>
        <time>2019-12-30T12:45:44.000Z</time>
      </trkpt>
      <trkpt lat="49.37984" lon="1.06156">
        <ele>74</ele>
        <time>2019-12-30T12:45:45.000Z</time>
      </trkpt>
      <trkpt lat="49.37986" lon="1.06152">
        <ele>75</ele>
        <time>2019-12-30T12:45:46.000Z</time>
      </trkpt>
      <trkpt lat="49.37987" lon="1.06147">
        <ele>75</ele>
        <time>2019-12-30T12:45:47.000Z</time>
      </trkpt>
      <trkpt lat="49.37988" lon="1.06141">
        <ele>75</ele>
        <time>2019-12-30T12:45:48.000Z</time>
      </trkpt>
      <trkpt lat="49.37989" lon="1.06134">
        <ele>75</ele>
        <time>2019-12-30T12:45:49.000Z</time>
      </trkpt>
      <trkpt lat="49.37989" lon="1.06126">
        <ele>75</ele>
        <time>2019-12-30T12:45:50.000Z</time>
      </trkpt>
      <trkpt lat="49.37988" lon="1.06118">
        <ele>75</ele>
        <time>2019-12-30T12:45:51.000Z</time>
      </trkpt>
      <trkpt lat="49.37988" lon="1.06111">
        <ele>75</ele>
        <time>2019-12-30T12:45:52.000Z</time>
      </trkpt>
      <trkpt lat="49.37989" lon="1.06103">
        <ele>75</ele>
        <time>2019-12-30T12:45:53.000Z</time>
      </trkpt>
      <trkpt lat="49.37989" lon="1.06097">
        <ele>76</ele>
        <time>2019-12-30T12:45:54.000Z</time>
      </trkpt>
      <trkpt lat="49.37991" lon="1.0609">
        <ele>76</ele>
        <time>2019-12-30T12:45:55.000Z</time>
      </trkpt>
      <trkpt lat="49.37994" lon="1.06084">
        <ele>76</ele>
        <time>2019-12-30T12:45:56.000Z</time>
      </trkpt>
      <trkpt lat="49.37998" lon="1.06079">
        <ele>75</ele>
        <time>2019-12-30T12:45:57.000Z</time>
      </trkpt>
      <trkpt lat="49.38001" lon="1.06074">
        <ele>75</ele>
        <time>2019-12-30T12:45:58.000Z</time>
      </trkpt>
      <trkpt lat="49.38005" lon="1.0607">
        <ele>75</ele>
        <time>2019-12-30T12:45:59.000Z</time>
      </trkpt>
      <trkpt lat="49.38008" lon="1.06065">
        <ele>75</ele>
        <time>2019-12-30T12:46:00.000Z</time>
      </trkpt>
      <trkpt lat="49.38011" lon="1.0606">
        <ele>75</ele>
        <time>2019-12-30T12:46:01.000Z</time>
      </trkpt>
      <trkpt lat="49.38015" lon="1.06056">
        <ele>75</ele>
        <time>2019-12-30T12:46:02.000Z</time>
      </trkpt>
      <trkpt lat="49.38018" lon="1.06051">
        <ele>75</ele>
        <time>2019-12-30T12:46:03.000Z</time>
      </trkpt>
      <trkpt lat="49.38022" lon="1.06046">
        <ele>74</ele>
        <time>2019-12-30T12:46:04.000Z</time>
      </trkpt>
      <trkpt lat="49.38025" lon="1.0604">
        <ele>74</ele>
        <time>2019-12-30T12:46:05.000Z</time>
      </trkpt>
      <trkpt lat="49.38027" lon="1.06035">
        <ele>74</ele>
        <time>2019-12-30T12:46:06.000Z</time>
      </trkpt>
      <trkpt lat="49.38028" lon="1.06028">
        <ele>74</ele>
        <time>2019-12-30T12:46:07.000Z</time>
      </trkpt>
      <trkpt lat="49.38031" lon="1.06022">
        <ele>74</ele>
        <time>2019-12-30T12:46:08.000Z</time>
      </trkpt>
      <trkpt lat="49.38033" lon="1.06014">
        <ele>74</ele>
        <time>2019-12-30T12:46:09.000Z</time>
      </trkpt>
      <trkpt lat="49.38035" lon="1.06006">
        <ele>74</ele>
        <time>2019-12-30T12:46:10.000Z</time>
      </trkpt>
      <trkpt lat="49.38036" lon="1.05999">
        <ele>74</ele>
        <time>2019-12-30T12:46:11.000Z</time>
      </trkpt>
      <trkpt lat="49.38036" lon="1.05991">
        <ele>74</ele>
        <time>2019-12-30T12:46:12.000Z</time>
      </trkpt>
      <trkpt lat="49.38036" lon="1.05984">
        <ele>74</ele>
        <time>2019-12-30T12:46:13.000Z</time>
      </trkpt>
      <trkpt lat="49.38036" lon="1.05977">
        <ele>74</ele>
        <time>2019-12-30T12:46:14.000Z</time>
      </trkpt>
      <trkpt lat="49.38036" lon="1.05971">
        <ele>75</ele>
        <time>2019-12-30T12:46:15.000Z</time>
      </trkpt>
      <trkpt lat="49.38035" lon="1.05964">
        <ele>75</ele>
        <time>2019-12-30T12:46:16.000Z</time>
      </trkpt>
      <trkpt lat="49.38033" lon="1.05957">
        <ele>75</ele>
        <time>2019-12-30T12:46:17.000Z</time>
      </trkpt>
      <trkpt lat="49.3803" lon="1.0595">
        <ele>75</ele>
        <time>2019-12-30T12:46:18.000Z</time>
      </trkpt>
      <trkpt lat="49.38028" lon="1.05944">
        <ele>75</ele>
        <time>2019-12-30T12:46:19.000Z</time>
      </trkpt>
      <trkpt lat="49.38026" lon="1.05939">
        <ele>75</ele>
        <time>2019-12-30T12:46:20.000Z</time>
      </trkpt>
      <trkpt lat="49.38022" lon="1.05935">
        <ele>75</ele>
        <time>2019-12-30T12:46:21.000Z</time>
      </trkpt>
      <trkpt lat="49.38018" lon="1.05931">
        <ele>76</ele>
        <time>2019-12-30T12:46:22.000Z</time>
      </trkpt>
      <trkpt lat="49.38016" lon="1.05926">
        <ele>76</ele>
        <time>2019-12-30T12:46:23.000Z</time>
      </trkpt>
      <trkpt lat="49.38014" lon="1.05919">
        <ele>76</ele>
        <time>2019-12-30T12:46:24.000Z</time>
      </trkpt>
      <trkpt lat="49.38013" lon="1.05912">
        <ele>76</ele>
        <time>2019-12-30T12:46:25.000Z</time>
      </trkpt>
      <trkpt lat="49.38012" lon="1.05905">
        <ele>76</ele>
        <time>2019-12-30T12:46:26.000Z</time>
      </trkpt>
      <trkpt lat="49.38011" lon="1.05898">
        <ele>76</ele>
        <time>2019-12-30T12:46:27.000Z</time>
      </trkpt>
      <trkpt lat="49.3801" lon="1.05891">
        <ele>76</ele>
        <time>2019-12-30T12:46:28.000Z</time>
      </trkpt>
      <trkpt lat="49.3801" lon="1.05883">
        <ele>76</ele>
        <time>2019-12-30T12:46:29.000Z</time>
      </trkpt>
      <trkpt lat="49.38009" lon="1.05875">
        <ele>76</ele>
        <time>2019-12-30T12:46:30.000Z</time>
      </trkpt>
      <trkpt lat="49.38009" lon="1.05867">
        <ele>76</ele>
        <time>2019-12-30T12:46:31.000Z</time>
      </trkpt>
      <trkpt lat="49.38009" lon="1.0586">
        <ele>77</ele>
        <time>2019-12-30T12:46:32.000Z</time>
      </trkpt>
      <trkpt lat="49.38008" lon="1.05853">
        <ele>77</ele>
        <time>2019-12-30T12:46:33.000Z</time>
      </trkpt>
      <trkpt lat="49.38006" lon="1.05847">
        <ele>77</ele>
        <time>2019-12-30T12:46:34.000Z</time>
      </trkpt>
      <trkpt lat="49.38003" lon="1.05842">
        <ele>77</ele>
        <time>2019-12-30T12:46:35.000Z</time>
      </trkpt>
      <trkpt lat="49.38" lon="1.05839">
        <ele>77</ele>
        <time>2019-12-30T12:46:36.000Z</time>
      </trkpt>
      <trkpt lat="49.37996" lon="1.05837">
        <ele>77</ele>
        <time>2019-12-30T12:46:37.000Z</time>
      </trkpt>
      <trkpt lat="49.37991" lon="1.05834">
        <ele>77</ele>
        <time>2019-12-30T12:46:38.000Z</time>
      </trkpt>
      <trkpt lat="49.37987" lon="1.05832">
        <ele>77</ele>
        <time>2019-12-30T12:46:39.000Z</time>
      </trkpt>
      <trkpt lat="49.37983" lon="1.0583">
        <ele>77</ele>
        <time>2019-12-30T12:46:40.000Z</time>
      </trkpt>
      <trkpt lat="49.37978" lon="1.05827">
        <ele>77</ele>
        <time>2019-12-30T12:46:41.000Z</time>
      </trkpt>
      <trkpt lat="49.37975" lon="1.05825">
        <ele>77</ele>
        <time>2019-12-30T12:46:42.000Z</time>
      </trkpt>
      <trkpt lat="49.3797" lon="1.05823">
        <ele>77</ele>
        <time>2019-12-30T12:46:43.000Z</time>
      </trkpt>
      <trkpt lat="49.37966" lon="1.0582">
        <ele>77</ele>
        <time>2019-12-30T12:46:44.000Z</time>
      </trkpt>
      <trkpt lat="49.37962" lon="1.05817">
        <ele>77</ele>
        <time>2019-12-30T12:46:45.000Z</time>
      </trkpt>
      <trkpt lat="49.37957" lon="1.05813">
        <ele>77</ele>
        <time>2019-12-30T12:46:46.000Z</time>
      </trkpt>
      <trkpt lat="49.37953" lon="1.0581">
        <ele>77</ele>
        <time>2019-12-30T12:46:47.000Z</time>
      </trkpt>
      <trkpt lat="49.37949" lon="1.05807">
        <ele>77</ele>
        <time>2019-12-30T12:46:48.000Z</time>
      </trkpt>
      <trkpt lat="49.37945" lon="1.05805">
        <ele>77</ele>
        <time>2019-12-30T12:46:49.000Z</time>
      </trkpt>
      <trkpt lat="49.37941" lon="1.05802">
        <ele>77</ele>
        <time>2019-12-30T12:46:50.000Z</time>
      </trkpt>
      <trkpt lat="49.37936" lon="1.05799">
        <ele>77</ele>
        <time>2019-12-30T12:46:51.000Z</time>
      </trkpt>
      <trkpt lat="49.37932" lon="1.05796">
        <ele>77</ele>
        <time>2019-12-30T12:46:52.000Z</time>
      </trkpt>
      <trkpt lat="49.37928" lon="1.05793">
        <ele>77</ele>
        <time>2019-12-30T12:46:53.000Z</time>
      </trkpt>
      <trkpt lat="49.37924" lon="1.0579">
        <ele>77</ele>
        <time>2019-12-30T12:46:54.000Z</time>
      </trkpt>
      <trkpt lat="49.3792" lon="1.05788">
        <ele>77</ele>
        <time>2019-12-30T12:46:55.000Z</time>
      </trkpt>
      <trkpt lat="49.37915" lon="1.05785">
        <ele>77</ele>
        <time>2019-12-30T12:46:56.000Z</time>
      </trkpt>
      <trkpt lat="49.37911" lon="1.05783">
        <ele>77</ele>
        <time>2019-12-30T12:46:57.000Z</time>
      </trkpt>
      <trkpt lat="49.37907" lon="1.0578">
        <ele>77</ele>
        <time>2019-12-30T12:46:58.000Z</time>
      </trkpt>
      <trkpt lat="49.37903" lon="1.05777">
        <ele>77</ele>
        <time>2019-12-30T12:46:59.000Z</time>
      </trkpt>
      <trkpt lat="49.37899" lon="1.05774">
        <ele>77</ele>
        <time>2019-12-30T12:47:00.000Z</time>
      </trkpt>
      <trkpt lat="49.37894" lon="1.05771">
        <ele>77</ele>
        <time>2019-12-30T12:47:01.000Z</time>
      </trkpt>
      <trkpt lat="49.3789" lon="1.05768">
        <ele>77</ele>
        <time>2019-12-30T12:47:02.000Z</time>
      </trkpt>
      <trkpt lat="49.37886" lon="1.05765">
        <ele>77</ele>
        <time>2019-12-30T12:47:03.000Z</time>
      </trkpt>
      <trkpt lat="49.37881" lon="1.05762">
        <ele>77</ele>
        <time>2019-12-30T12:47:04.000Z</time>
      </trkpt>
      <trkpt lat="49.37877" lon="1.05759">
        <ele>77</ele>
        <time>2019-12-30T12:47:05.000Z</time>
      </trkpt>
      <trkpt lat="49.37873" lon="1.05756">
        <ele>77</ele>
        <time>2019-12-30T12:47:06.000Z</time>
      </trkpt>
      <trkpt lat="49.37868" lon="1.05752">
        <ele>77</ele>
        <time>2019-12-30T12:47:07.000Z</time>
      </trkpt>
      <trkpt lat="49.37864" lon="1.05749">
        <ele>77</ele>
        <time>2019-12-30T12:47:08.000Z</time>
      </trkpt>
      <trkpt lat="49.37859" lon="1.05746">
        <ele>77</ele>
        <time>2019-12-30T12:47:09.000Z</time>
      </trkpt>
      <trkpt lat="49.37855" lon="1.05743">
        <ele>78</ele>
        <time>2019-12-30T12:47:10.000Z</time>
      </trkpt>
      <trkpt lat="49.3785" lon="1.05739">
        <ele>78</ele>
        <time>2019-12-30T12:47:11.000Z</time>
      </trkpt>
      <trkpt lat="49.37846" lon="1.05736">
        <ele>78</ele>
        <time>2019-12-30T12:47:12.000Z</time>
      </trkpt>
      <trkpt lat="49.37842" lon="1.05733">
        <ele>78</ele>
        <time>2019-12-30T12:47:13.000Z</time>
      </trkpt>
      <trkpt lat="49.37837" lon="1.05731">
        <ele>78</ele>
        <time>2019-12-30T12:47:14.000Z</time>
      </trkpt>
      <trkpt lat="49.37833" lon="1.05728">
        <ele>78</ele>
        <time>2019-12-30T12:47:15.000Z</time>
      </trkpt>
      <trkpt lat="49.37829" lon="1.05725">
        <ele>78</ele>
        <time>2019-12-30T12:47:16.000Z</time>
      </trkpt>
      <trkpt lat="49.37824" lon="1.05722">
        <ele>78</ele>
        <time>2019-12-30T12:47:17.000Z</time>
      </trkpt>
      <trkpt lat="49.3782" lon="1.0572">
        <ele>78</ele>
        <time>2019-12-30T12:47:18.000Z</time>
      </trkpt>
      <trkpt lat="49.37816" lon="1.05717">
        <ele>78</ele>
        <time>2019-12-30T12:47:19.000Z</time>
      </trkpt>
      <trkpt lat="49.37812" lon="1.05714">
        <ele>78</ele>
        <time>2019-12-30T12:47:20.000Z</time>
      </trkpt>
      <trkpt lat="49.37808" lon="1.05711">
        <ele>78</ele>
        <time>2019-12-30T12:47:21.000Z</time>
      </trkpt>
      <trkpt lat="49.37804" lon="1.05708">
        <ele>78</ele>
        <time>2019-12-30T12:47:22.000Z</time>
      </trkpt>
      <trkpt lat="49.378" lon="1.05705">
        <ele>78</ele>
        <time>2019-12-30T12:47:23.000Z</time>
      </trkpt>
      <trkpt lat="49.37796" lon="1.05702">
        <ele>78</ele>
        <time>2019-12-30T12:47:24.000Z</time>
      </trkpt>
      <trkpt lat="49.37792" lon="1.05699">
        <ele>78</ele>
        <time>2019-12-30T12:47:25.000Z</time>
      </trkpt>
      <trkpt lat="49.37788" lon="1.05696">
        <ele>78</ele>
        <time>2019-12-30T12:47:26.000Z</time>
      </trkpt>
      <trkpt lat="49.37783" lon="1.05693">
        <ele>78</ele>
        <time>2019-12-30T12:47:27.000Z</time>
      </trkpt>
      <trkpt lat="49.37779" lon="1.0569">
        <ele>79</ele>
        <time>2019-12-30T12:47:28.000Z</time>
      </trkpt>
      <trkpt lat="49.37775" lon="1.05687">
        <ele>79</ele>
        <time>2019-12-30T12:47:29.000Z</time>
      </trkpt>
      <trkpt lat="49.37771" lon="1.05685">
        <ele>79</ele>
        <time>2019-12-30T12:47:30.000Z</time>
      </trkpt>
      <trkpt lat="49.37767" lon="1.05682">
        <ele>79</ele>
        <time>2019-12-30T12:47:31.000Z</time>
      </trkpt>
      <trkpt lat="49.37763" lon="1.05679">
        <ele>79</ele>
        <time>2019-12-30T12:47:32.000Z</time>
      </trkpt>
      <trkpt lat="49.37759" lon="1.05676">
        <ele>79</ele>
        <time>2019-12-30T12:47:33.000Z</time>
      </trkpt>
      <trkpt lat="49.37755" lon="1.05673">
        <ele>79</ele>
        <time>2019-12-30T12:47:34.000Z</time>
      </trkpt>
      <trkpt lat="49.37751" lon="1.0567">
        <ele>79</ele>
        <time>2019-12-30T12:47:35.000Z</time>
      </trkpt>
      <trkpt lat="49.37747" lon="1.05667">
        <ele>79</ele>
        <time>2019-12-30T12:47:36.000Z</time>
      </trkpt>
      <trkpt lat="49.37743" lon="1.05663">
        <ele>79</ele>
        <time>2019-12-30T12:47:37.000Z</time>
      </trkpt>
      <trkpt lat="49.3774" lon="1.05658">
        <ele>79</ele>
        <time>2019-12-30T12:47:38.000Z</time>
      </trkpt>
      <trkpt lat="49.37738" lon="1.05653">
        <ele>79</ele>
        <time>2019-12-30T12:47:39.000Z</time>
      </trkpt>
      <trkpt lat="49.37735" lon="1.05649">
        <ele>79</ele>
        <time>2019-12-30T12:47:40.000Z</time>
      </trkpt>
      <trkpt lat="49.37733" lon="1.05646">
        <ele>79</ele>
        <time>2019-12-30T12:47:41.000Z</time>
      </trkpt>
      <trkpt lat="49.37731" lon="1.05644">
        <ele>79</ele>
        <time>2019-12-30T12:47:42.000Z</time>
      </trkpt>
      <trkpt lat="49.37729" lon="1.05643">
        <ele>80</ele>
        <time>2019-12-30T12:47:43.000Z</time>
      </trkpt>
      <trkpt lat="49.37726" lon="1.05642">
        <ele>80</ele>
        <time>2019-12-30T12:47:44.000Z</time>
      </trkpt>
      <trkpt lat="49.37723" lon="1.0564">
        <ele>80</ele>
        <time>2019-12-30T12:47:45.000Z</time>
      </trkpt>
      <trkpt lat="49.37719" lon="1.05638">
        <ele>80</ele>
        <time>2019-12-30T12:47:46.000Z</time>
      </trkpt>
      <trkpt lat="49.37716" lon="1.05636">
        <ele>80</ele>
        <time>2019-12-30T12:47:47.000Z</time>
      </trkpt>
      <trkpt lat="49.37713" lon="1.05634">
        <ele>80</ele>
        <time>2019-12-30T12:47:48.000Z</time>
      </trkpt>
      <trkpt lat="49.37709" lon="1.05632">
        <ele>80</ele>
        <time>2019-12-30T12:47:49.000Z</time>
      </trkpt>
      <trkpt lat="49.37706" lon="1.05629">
        <ele>81</ele>
        <time>2019-12-30T12:47:50.000Z</time>
      </trkpt>
      <trkpt lat="49.37702" lon="1.05627">
        <ele>81</ele>
        <time>2019-12-30T12:47:51.000Z</time>
      </trkpt>
      <trkpt lat="49.37699" lon="1.05624">
        <ele>81</ele>
        <time>2019-12-30T12:47:52.000Z</time>
      </trkpt>
      <trkpt lat="49.37695" lon="1.05621">
        <ele>81</ele>
        <time>2019-12-30T12:47:53.000Z</time>
      </trkpt>
      <trkpt lat="49.37692" lon="1.05618">
        <ele>81</ele>
        <time>2019-12-30T12:47:54.000Z</time>
      </trkpt>
      <trkpt lat="49.37688" lon="1.05615">
        <ele>81</ele>
        <time>2019-12-30T12:47:55.000Z</time>
      </trkpt>
      <trkpt lat="49.37685" lon="1.05612">
        <ele>81</ele>
        <time>2019-12-30T12:47:56.000Z</time>
      </trkpt>
      <trkpt lat="49.37681" lon="1.0561">
        <ele>81</ele>
        <time>2019-12-30T12:47:57.000Z</time>
      </trkpt>
      <trkpt lat="49.37677" lon="1.05607">
        <ele>81</ele>
        <time>2019-12-30T12:47:58.000Z</time>
      </trkpt>
      <trkpt lat="49.37673" lon="1.05604">
        <ele>81</ele>
        <time>2019-12-30T12:47:59.000Z</time>
      </trkpt>
      <trkpt lat="49.3767" lon="1.05601">
        <ele>81</ele>
        <time>2019-12-30T12:48:00.000Z</time>
      </trkpt>
      <trkpt lat="49.37666" lon="1.05598">
        <ele>81</ele>
        <time>2019-12-30T12:48:01.000Z</time>
      </trkpt>
      <trkpt lat="49.37662" lon="1.05595">
        <ele>81</ele>
        <time>2019-12-30T12:48:02.000Z</time>
      </trkpt>
      <trkpt lat="49.37658" lon="1.05592">
        <ele>81</ele>
        <time>2019-12-30T12:48:03.000Z</time>
      </trkpt>
      <trkpt lat="49.37654" lon="1.05589">
        <ele>82</ele>
        <time>2019-12-30T12:48:04.000Z</time>
      </trkpt>
      <trkpt lat="49.3765" lon="1.05587">
        <ele>82</ele>
        <time>2019-12-30T12:48:05.000Z</time>
      </trkpt>
      <trkpt lat="49.37647" lon="1.05584">
        <ele>82</ele>
        <time>2019-12-30T12:48:06.000Z</time>
      </trkpt>
      <trkpt lat="49.37642" lon="1.05581">
        <ele>82</ele>
        <time>2019-12-30T12:48:07.000Z</time>
      </trkpt>
      <trkpt lat="49.37639" lon="1.05578">
        <ele>82</ele>
        <time>2019-12-30T12:48:08.000Z</time>
      </trkpt>
      <trkpt lat="49.37635" lon="1.05575">
        <ele>82</ele>
        <time>2019-12-30T12:48:09.000Z</time>
      </trkpt>
      <trkpt lat="49.3763" lon="1.05572">
        <ele>82</ele>
        <time>2019-12-30T12:48:10.000Z</time>
      </trkpt>
      <trkpt lat="49.37626" lon="1.05569">
        <ele>82</ele>
        <time>2019-12-30T12:48:11.000Z</time>
      </trkpt>
      <trkpt lat="49.37621" lon="1.05566">
        <ele>82</ele>
        <time>2019-12-30T12:48:12.000Z</time>
      </trkpt>
      <trkpt lat="49.37617" lon="1.05563">
        <ele>82</ele>
        <time>2019-12-30T12:48:13.000Z</time>
      </trkpt>
      <trkpt lat="49.37612" lon="1.05559">
        <ele>83</ele>
        <time>2019-12-30T12:48:14.000Z</time>
      </trkpt>
      <trkpt lat="49.37608" lon="1.05556">
        <ele>83</ele>
        <time>2019-12-30T12:48:15.000Z</time>
      </trkpt>
      <trkpt lat="49.37603" lon="1.05552">
        <ele>83</ele>
        <time>2019-12-30T12:48:16.000Z</time>
      </trkpt>
      <trkpt lat="49.37598" lon="1.05549">
        <ele>83</ele>
        <time>2019-12-30T12:48:17.000Z</time>
      </trkpt>
      <trkpt lat="49.37593" lon="1.05545">
        <ele>83</ele>
        <time>2019-12-30T12:48:18.000Z</time>
      </trkpt>
      <trkpt lat="49.37588" lon="1.05541">
        <ele>83</ele>
        <time>2019-12-30T12:48:19.000Z</time>
      </trkpt>
      <trkpt lat="49.37583" lon="1.05537">
        <ele>82</ele>
        <time>2019-12-30T12:48:20.000Z</time>
      </trkpt>
      <trkpt lat="49.37578" lon="1.05533">
        <ele>82</ele>
        <time>2019-12-30T12:48:21.000Z</time>
      </trkpt>
      <trkpt lat="49.37572" lon="1.05529">
        <ele>82</ele>
        <time>2019-12-30T12:48:22.000Z</time>
      </trkpt>
      <trkpt lat="49.37567" lon="1.05524">
        <ele>82</ele>
        <time>2019-12-30T12:48:23.000Z</time>
      </trkpt>
      <trkpt lat="49.37561" lon="1.05519">
        <ele>81</ele>
        <time>2019-12-30T12:48:24.000Z</time>
      </trkpt>
      <trkpt lat="49.37556" lon="1.05514">
        <ele>81</ele>
        <time>2019-12-30T12:48:25.000Z</time>
      </trkpt>
      <trkpt lat="49.3755" lon="1.0551">
        <ele>81</ele>
        <time>2019-12-30T12:48:26.000Z</time>
      </trkpt>
      <trkpt lat="49.37545" lon="1.05508">
        <ele>81</ele>
        <time>2019-12-30T12:48:27.000Z</time>
      </trkpt>
      <trkpt lat="49.3754" lon="1.05505">
        <ele>80</ele>
        <time>2019-12-30T12:48:28.000Z</time>
      </trkpt>
      <trkpt lat="49.37536" lon="1.05502">
        <ele>80</ele>
        <time>2019-12-30T12:48:29.000Z</time>
      </trkpt>
      <trkpt lat="49.37531" lon="1.05499">
        <ele>80</ele>
        <time>2019-12-30T12:48:30.000Z</time>
      </trkpt>
      <trkpt lat="49.37527" lon="1.05495">
        <ele>80</ele>
        <time>2019-12-30T12:48:31.000Z</time>
      </trkpt>
      <trkpt lat="49.37523" lon="1.05493">
        <ele>80</ele>
        <time>2019-12-30T12:48:32.000Z</time>
      </trkpt>
      <trkpt lat="49.37519" lon="1.0549">
        <ele>80</ele>
        <time>2019-12-30T12:48:33.000Z</time>
      </trkpt>
      <trkpt lat="49.37515" lon="1.05487">
        <ele>80</ele>
        <time>2019-12-30T12:48:34.000Z</time>
      </trkpt>
      <trkpt lat="49.37511" lon="1.05484">
        <ele>80</ele>
        <time>2019-12-30T12:48:35.000Z</time>
      </trkpt>
      <trkpt lat="49.37507" lon="1.05481">
        <ele>80</ele>
        <time>2019-12-30T12:48:36.000Z</time>
      </trkpt>
      <trkpt lat="49.37503" lon="1.05478">
        <ele>80</ele>
        <time>2019-12-30T12:48:37.000Z</time>
      </trkpt>
      <trkpt lat="49.37499" lon="1.05475">
        <ele>80</ele>
        <time>2019-12-30T12:48:38.000Z</time>
      </trkpt>
      <trkpt lat="49.37495" lon="1.05472">
        <ele>79</ele>
        <time>2019-12-30T12:48:39.000Z</time>
      </trkpt>
      <trkpt lat="49.37491" lon="1.05469">
        <ele>79</ele>
        <time>2019-12-30T12:48:40.000Z</time>
      </trkpt>
      <trkpt lat="49.37487" lon="1.05466">
        <ele>79</ele>
        <time>2019-12-30T12:48:41.000Z</time>
      </trkpt>
      <trkpt lat="49.37483" lon="1.05463">
        <ele>79</ele>
        <time>2019-12-30T12:48:42.000Z</time>
      </trkpt>
      <trkpt lat="49.37479" lon="1.0546">
        <ele>79</ele>
        <time>2019-12-30T12:48:43.000Z</time>
      </trkpt>
      <trkpt lat="49.37475" lon="1.05457">
        <ele>79</ele>
        <time>2019-12-30T12:48:44.000Z</time>
      </trkpt>
      <trkpt lat="49.37471" lon="1.05455">
        <ele>79</ele>
        <time>2019-12-30T12:48:45.000Z</time>
      </trkpt>
      <trkpt lat="49.37467" lon="1.05452">
        <ele>79</ele>
        <time>2019-12-30T12:48:46.000Z</time>
      </trkpt>
      <trkpt lat="49.37463" lon="1.0545">
        <ele>79</ele>
        <time>2019-12-30T12:48:47.000Z</time>
      </trkpt>
      <trkpt lat="49.37459" lon="1.05447">
        <ele>79</ele>
        <time>2019-12-30T12:48:48.000Z</time>
      </trkpt>
      <trkpt lat="49.37455" lon="1.05444">
        <ele>79</ele>
        <time>2019-12-30T12:48:49.000Z</time>
      </trkpt>
      <trkpt lat="49.37451" lon="1.05441">
        <ele>79</ele>
        <time>2019-12-30T12:48:50.000Z</time>
      </trkpt>
      <trkpt lat="49.37447" lon="1.05439">
        <ele>79</ele>
        <time>2019-12-30T12:48:51.000Z</time>
      </trkpt>
      <trkpt lat="49.37444" lon="1.05436">
        <ele>79</ele>
        <time>2019-12-30T12:48:52.000Z</time>
      </trkpt>
      <trkpt lat="49.3744" lon="1.05433">
        <ele>79</ele>
        <time>2019-12-30T12:48:53.000Z</time>
      </trkpt>
      <trkpt lat="49.37437" lon="1.0543">
        <ele>79</ele>
        <time>2019-12-30T12:48:54.000Z</time>
      </trkpt>
      <trkpt lat="49.37433" lon="1.05428">
        <ele>79</ele>
        <time>2019-12-30T12:48:55.000Z</time>
      </trkpt>
      <trkpt lat="49.37429" lon="1.05425">
        <ele>79</ele>
        <time>2019-12-30T12:48:56.000Z</time>
      </trkpt>
      <trkpt lat="49.37425" lon="1.05422">
        <ele>79</ele>
        <time>2019-12-30T12:48:57.000Z</time>
      </trkpt>
      <trkpt lat="49.37422" lon="1.05419">
        <ele>79</ele>
        <time>2019-12-30T12:48:58.000Z</time>
      </trkpt>
      <trkpt lat="49.37418" lon="1.05417">
        <ele>79</ele>
        <time>2019-12-30T12:48:59.000Z</time>
      </trkpt>
      <trkpt lat="49.37414" lon="1.05414">
        <ele>80</ele>
        <time>2019-12-30T12:49:00.000Z</time>
      </trkpt>
      <trkpt lat="49.3741" lon="1.05411">
        <ele>80</ele>
        <time>2019-12-30T12:49:01.000Z</time>
      </trkpt>
      <trkpt lat="49.37406" lon="1.05408">
        <ele>80</ele>
        <time>2019-12-30T12:49:02.000Z</time>
      </trkpt>
      <trkpt lat="49.37402" lon="1.05406">
        <ele>80</ele>
        <time>2019-12-30T12:49:03.000Z</time>
      </trkpt>
      <trkpt lat="49.37398" lon="1.05403">
        <ele>80</ele>
        <time>2019-12-30T12:49:04.000Z</time>
      </trkpt>
      <trkpt lat="49.37395" lon="1.054">
        <ele>80</ele>
        <time>2019-12-30T12:49:05.000Z</time>
      </trkpt>
      <trkpt lat="49.37391" lon="1.05397">
        <ele>81</ele>
        <time>2019-12-30T12:49:06.000Z</time>
      </trkpt>
      <trkpt lat="49.37387" lon="1.05395">
        <ele>81</ele>
        <time>2019-12-30T12:49:07.000Z</time>
      </trkpt>
      <trkpt lat="49.37384" lon="1.05392">
        <ele>81</ele>
        <time>2019-12-30T12:49:08.000Z</time>
      </trkpt>
      <trkpt lat="49.3738" lon="1.05389">
        <ele>81</ele>
        <time>2019-12-30T12:49:09.000Z</time>
      </trkpt>
      <trkpt lat="49.37376" lon="1.05387">
        <ele>81</ele>
        <time>2019-12-30T12:49:10.000Z</time>
      </trkpt>
      <trkpt lat="49.37373" lon="1.05384">
        <ele>81</ele>
        <time>2019-12-30T12:49:11.000Z</time>
      </trkpt>
      <trkpt lat="49.37369" lon="1.05382">
        <ele>81</ele>
        <time>2019-12-30T12:49:12.000Z</time>
      </trkpt>
      <trkpt lat="49.37365" lon="1.05379">
        <ele>81</ele>
        <time>2019-12-30T12:49:13.000Z</time>
      </trkpt>
      <trkpt lat="49.37361" lon="1.05376">
        <ele>81</ele>
        <time>2019-12-30T12:49:14.000Z</time>
      </trkpt>
      <trkpt lat="49.37357" lon="1.05373">
        <ele>81</ele>
        <time>2019-12-30T12:49:15.000Z</time>
      </trkpt>
      <trkpt lat="49.37354" lon="1.0537">
        <ele>81</ele>
        <time>2019-12-30T12:49:16.000Z</time>
      </trkpt>
      <trkpt lat="49.3735" lon="1.05367">
        <ele>82</ele>
        <time>2019-12-30T12:49:17.000Z</time>
      </trkpt>
      <trkpt lat="49.37346" lon="1.05364">
        <ele>82</ele>
        <time>2019-12-30T12:49:18.000Z</time>
      </trkpt>
      <trkpt lat="49.37342" lon="1.05361">
        <ele>82</ele>
        <time>2019-12-30T12:49:19.000Z</time>
      </trkpt>
      <trkpt lat="49.37338" lon="1.05358">
        <ele>82</ele>
        <time>2019-12-30T12:49:20.000Z</time>
      </trkpt>
      <trkpt lat="49.37335" lon="1.05356">
        <ele>82</ele>
        <time>2019-12-30T12:49:21.000Z</time>
      </trkpt>
      <trkpt lat="49.37331" lon="1.05353">
        <ele>82</ele>
        <time>2019-12-30T12:49:22.000Z</time>
      </trkpt>
      <trkpt lat="49.37327" lon="1.0535">
        <ele>82</ele>
        <time>2019-12-30T12:49:23.000Z</time>
      </trkpt>
      <trkpt lat="49.37323" lon="1.05348">
        <ele>82</ele>
        <time>2019-12-30T12:49:24.000Z</time>
      </trkpt>
      <trkpt lat="49.3732" lon="1.05346">
        <ele>82</ele>
        <time>2019-12-30T12:49:25.000Z</time>
      </trkpt>
      <trkpt lat="49.37316" lon="1.05343">
        <ele>82</ele>
        <time>2019-12-30T12:49:26.000Z</time>
      </trkpt>
      <trkpt lat="49.37312" lon="1.05341">
        <ele>82</ele>
        <time>2019-12-30T12:49:27.000Z</time>
      </trkpt>
      <trkpt lat="49.37309" lon="1.05338">
        <ele>82</ele>
        <time>2019-12-30T12:49:28.000Z</time>
      </trkpt>
      <trkpt lat="49.37305" lon="1.05335">
        <ele>82</ele>
        <time>2019-12-30T12:49:29.000Z</time>
      </trkpt>
      <trkpt lat="49.37301" lon="1.05332">
        <ele>82</ele>
        <time>2019-12-30T12:49:30.000Z</time>
      </trkpt>
      <trkpt lat="49.37297" lon="1.05329">
        <ele>83</ele>
        <time>2019-12-30T12:49:31.000Z</time>
      </trkpt>
      <trkpt lat="49.37294" lon="1.05327">
        <ele>83</ele>
        <time>2019-12-30T12:49:32.000Z</time>
      </trkpt>
      <trkpt lat="49.3729" lon="1.05324">
        <ele>83</ele>
        <time>2019-12-30T12:49:33.000Z</time>
      </trkpt>
      <trkpt lat="49.37286" lon="1.05321">
        <ele>83</ele>
        <time>2019-12-30T12:49:34.000Z</time>
      </trkpt>
      <trkpt lat="49.37282" lon="1.05318">
        <ele>83</ele>
        <time>2019-12-30T12:49:35.000Z</time>
      </trkpt>
      <trkpt lat="49.37279" lon="1.05315">
        <ele>83</ele>
        <time>2019-12-30T12:49:36.000Z</time>
      </trkpt>
      <trkpt lat="49.37276" lon="1.05312">
        <ele>83</ele>
        <time>2019-12-30T12:49:37.000Z</time>
      </trkpt>
      <trkpt lat="49.37272" lon="1.05309">
        <ele>84</ele>
        <time>2019-12-30T12:49:38.000Z</time>
      </trkpt>
      <trkpt lat="49.37268" lon="1.05306">
        <ele>84</ele>
        <time>2019-12-30T12:49:39.000Z</time>
      </trkpt>
      <trkpt lat="49.37264" lon="1.05304">
        <ele>84</ele>
        <time>2019-12-30T12:49:40.000Z</time>
      </trkpt>
      <trkpt lat="49.37261" lon="1.05302">
        <ele>84</ele>
        <time>2019-12-30T12:49:41.000Z</time>
      </trkpt>
      <trkpt lat="49.37257" lon="1.053">
        <ele>84</ele>
        <time>2019-12-30T12:49:42.000Z</time>
      </trkpt>
      <trkpt lat="49.37253" lon="1.05298">
        <ele>84</ele>
        <time>2019-12-30T12:49:43.000Z</time>
      </trkpt>
      <trkpt lat="49.3725" lon="1.05296">
        <ele>85</ele>
        <time>2019-12-30T12:49:44.000Z</time>
      </trkpt>
      <trkpt lat="49.37246" lon="1.05294">
        <ele>85</ele>
        <time>2019-12-30T12:49:45.000Z</time>
      </trkpt>
      <trkpt lat="49.37243" lon="1.05291">
        <ele>85</ele>
        <time>2019-12-30T12:49:46.000Z</time>
      </trkpt>
      <trkpt lat="49.37239" lon="1.05289">
        <ele>85</ele>
        <time>2019-12-30T12:49:47.000Z</time>
      </trkpt>
      <trkpt lat="49.37236" lon="1.05286">
        <ele>86</ele>
        <time>2019-12-30T12:49:48.000Z</time>
      </trkpt>
      <trkpt lat="49.37232" lon="1.05284">
        <ele>86</ele>
        <time>2019-12-30T12:49:49.000Z</time>
      </trkpt>
      <trkpt lat="49.37229" lon="1.05282">
        <ele>86</ele>
        <time>2019-12-30T12:49:50.000Z</time>
      </trkpt>
      <trkpt lat="49.37226" lon="1.05279">
        <ele>87</ele>
        <time>2019-12-30T12:49:51.000Z</time>
      </trkpt>
      <trkpt lat="49.37222" lon="1.05276">
        <ele>87</ele>
        <time>2019-12-30T12:49:52.000Z</time>
      </trkpt>
      <trkpt lat="49.37219" lon="1.05274">
        <ele>87</ele>
        <time>2019-12-30T12:49:53.000Z</time>
      </trkpt>
      <trkpt lat="49.37215" lon="1.05272">
        <ele>87</ele>
        <time>2019-12-30T12:49:54.000Z</time>
      </trkpt>
      <trkpt lat="49.37211" lon="1.0527">
        <ele>87</ele>
        <time>2019-12-30T12:49:55.000Z</time>
      </trkpt>
      <trkpt lat="49.37207" lon="1.05268">
        <ele>88</ele>
        <time>2019-12-30T12:49:56.000Z</time>
      </trkpt>
      <trkpt lat="49.37204" lon="1.05266">
        <ele>88</ele>
        <time>2019-12-30T12:49:57.000Z</time>
      </trkpt>
      <trkpt lat="49.372" lon="1.05264">
        <ele>88</ele>
        <time>2019-12-30T12:49:58.000Z</time>
      </trkpt>
      <trkpt lat="49.37196" lon="1.05262">
        <ele>88</ele>
        <time>2019-12-30T12:49:59.000Z</time>
      </trkpt>
      <trkpt lat="49.37193" lon="1.0526">
        <ele>89</ele>
        <time>2019-12-30T12:50:00.000Z</time>
      </trkpt>
      <trkpt lat="49.37189" lon="1.05257">
        <ele>89</ele>
        <time>2019-12-30T12:50:01.000Z</time>
      </trkpt>
      <trkpt lat="49.37185" lon="1.05255">
        <ele>89</ele>
        <time>2019-12-30T12:50:02.000Z</time>
      </trkpt>
      <trkpt lat="49.37181" lon="1.05252">
        <ele>89</ele>
        <time>2019-12-30T12:50:03.000Z</time>
      </trkpt>
      <trkpt lat="49.37177" lon="1.0525">
        <ele>90</ele>
        <time>2019-12-30T12:50:04.000Z</time>
      </trkpt>
      <trkpt lat="49.37174" lon="1.05248">
        <ele>90</ele>
        <time>2019-12-30T12:50:05.000Z</time>
      </trkpt>
      <trkpt lat="49.3717" lon="1.05246">
        <ele>90</ele>
        <time>2019-12-30T12:50:06.000Z</time>
      </trkpt>
      <trkpt lat="49.37167" lon="1.05243">
        <ele>91</ele>
        <time>2019-12-30T12:50:07.000Z</time>
      </trkpt>
      <trkpt lat="49.37163" lon="1.05242">
        <ele>91</ele>
        <time>2019-12-30T12:50:08.000Z</time>
      </trkpt>
      <trkpt lat="49.37159" lon="1.0524">
        <ele>91</ele>
        <time>2019-12-30T12:50:09.000Z</time>
      </trkpt>
      <trkpt lat="49.37156" lon="1.05238">
        <ele>91</ele>
        <time>2019-12-30T12:50:10.000Z</time>
      </trkpt>
      <trkpt lat="49.37152" lon="1.05235">
        <ele>92</ele>
        <time>2019-12-30T12:50:11.000Z</time>
      </trkpt>
      <trkpt lat="49.37148" lon="1.05232">
        <ele>92</ele>
        <time>2019-12-30T12:50:12.000Z</time>
      </trkpt>
      <trkpt lat="49.37145" lon="1.0523">
        <ele>92</ele>
        <time>2019-12-30T12:50:13.000Z</time>
      </trkpt>
      <trkpt lat="49.37141" lon="1.05228">
        <ele>93</ele>
        <time>2019-12-30T12:50:14.000Z</time>
      </trkpt>
      <trkpt lat="49.37138" lon="1.05225">
        <ele>93</ele>
        <time>2019-12-30T12:50:15.000Z</time>
      </trkpt>
      <trkpt lat="49.37134" lon="1.05223">
        <ele>93</ele>
        <time>2019-12-30T12:50:16.000Z</time>
      </trkpt>
      <trkpt lat="49.37131" lon="1.0522">
        <ele>93</ele>
        <time>2019-12-30T12:50:17.000Z</time>
      </trkpt>
      <trkpt lat="49.37127" lon="1.05217">
        <ele>93</ele>
        <time>2019-12-30T12:50:18.000Z</time>
      </trkpt>
      <trkpt lat="49.37124" lon="1.05214">
        <ele>93</ele>
        <time>2019-12-30T12:50:19.000Z</time>
      </trkpt>
      <trkpt lat="49.3712" lon="1.05211">
        <ele>94</ele>
        <time>2019-12-30T12:50:20.000Z</time>
      </trkpt>
      <trkpt lat="49.37116" lon="1.05208">
        <ele>94</ele>
        <time>2019-12-30T12:50:21.000Z</time>
      </trkpt>
      <trkpt lat="49.37113" lon="1.05205">
        <ele>94</ele>
        <time>2019-12-30T12:50:22.000Z</time>
      </trkpt>
      <trkpt lat="49.37109" lon="1.05202">
        <ele>94</ele>
        <time>2019-12-30T12:50:23.000Z</time>
      </trkpt>
      <trkpt lat="49.37106" lon="1.052">
        <ele>94</ele>
        <time>2019-12-30T12:50:24.000Z</time>
      </trkpt>
      <trkpt lat="49.37102" lon="1.05198">
        <ele>94</ele>
        <time>2019-12-30T12:50:25.000Z</time>
      </trkpt>
      <trkpt lat="49.37098" lon="1.05195">
        <ele>94</ele>
        <time>2019-12-30T12:50:26.000Z</time>
      </trkpt>
      <trkpt lat="49.37095" lon="1.05192">
        <ele>95</ele>
        <time>2019-12-30T12:50:27.000Z</time>
      </trkpt>
      <trkpt lat="49.37091" lon="1.05189">
        <ele>95</ele>
        <time>2019-12-30T12:50:28.000Z</time>
      </trkpt>
      <trkpt lat="49.37088" lon="1.05186">
        <ele>95</ele>
        <time>2019-12-30T12:50:29.000Z</time>
      </trkpt>
      <trkpt lat="49.37084" lon="1.05183">
        <ele>95</ele>
        <time>2019-12-30T12:50:30.000Z</time>
      </trkpt>
      <trkpt lat="49.3708" lon="1.0518">
        <ele>95</ele>
        <time>2019-12-30T12:50:31.000Z</time>
      </trkpt>
      <trkpt lat="49.37077" lon="1.05178">
        <ele>95</ele>
        <time>2019-12-30T12:50:32.000Z</time>
      </trkpt>
      <trkpt lat="49.37073" lon="1.05175">
        <ele>96</ele>
        <time>2019-12-30T12:50:33.000Z</time>
      </trkpt>
      <trkpt lat="49.37069" lon="1.05172">
        <ele>96</ele>
        <time>2019-12-30T12:50:34.000Z</time>
      </trkpt>
      <trkpt lat="49.37066" lon="1.0517">
        <ele>96</ele>
        <time>2019-12-30T12:50:35.000Z</time>
      </trkpt>
      <trkpt lat="49.37062" lon="1.05167">
        <ele>96</ele>
        <time>2019-12-30T12:50:36.000Z</time>
      </trkpt>
      <trkpt lat="49.37058" lon="1.05164">
        <ele>96</ele>
        <time>2019-12-30T12:50:37.000Z</time>
      </trkpt>
      <trkpt lat="49.37054" lon="1.05162">
        <ele>97</ele>
        <time>2019-12-30T12:50:38.000Z</time>
      </trkpt>
      <trkpt lat="49.37051" lon="1.05159">
        <ele>97</ele>
        <time>2019-12-30T12:50:39.000Z</time>
      </trkpt>
      <trkpt lat="49.37047" lon="1.05156">
        <ele>97</ele>
        <time>2019-12-30T12:50:40.000Z</time>
      </trkpt>
      <trkpt lat="49.37043" lon="1.05153">
        <ele>97</ele>
        <time>2019-12-30T12:50:41.000Z</time>
      </trkpt>
      <trkpt lat="49.3704" lon="1.0515">
        <ele>97</ele>
        <time>2019-12-30T12:50:42.000Z</time>
      </trkpt>
      <trkpt lat="49.37036" lon="1.05148">
        <ele>98</ele>
        <time>2019-12-30T12:50:43.000Z</time>
      </trkpt>
      <trkpt lat="49.37033" lon="1.05144">
        <ele>98</ele>
        <time>2019-12-30T12:50:44.000Z</time>
      </trkpt>
      <trkpt lat="49.37029" lon="1.0514">
        <ele>98</ele>
        <time>2019-12-30T12:50:45.000Z</time>
      </trkpt>
      <trkpt lat="49.37025" lon="1.05137">
        <ele>98</ele>
        <time>2019-12-30T12:50:46.000Z</time>
      </trkpt>
      <trkpt lat="49.37021" lon="1.05135">
        <ele>98</ele>
        <time>2019-12-30T12:50:47.000Z</time>
      </trkpt>
      <trkpt lat="49.37017" lon="1.05132">
        <ele>99</ele>
        <time>2019-12-30T12:50:48.000Z</time>
      </trkpt>
      <trkpt lat="49.37013" lon="1.0513">
        <ele>99</ele>
        <time>2019-12-30T12:50:49.000Z</time>
      </trkpt>
      <trkpt lat="49.37009" lon="1.05127">
        <ele>99</ele>
        <time>2019-12-30T12:50:50.000Z</time>
      </trkpt>
      <trkpt lat="49.37005" lon="1.05124">
        <ele>99</ele>
        <time>2019-12-30T12:50:51.000Z</time>
      </trkpt>
      <trkpt lat="49.37001" lon="1.05122">
        <ele>99</ele>
        <time>2019-12-30T12:50:52.000Z</time>
      </trkpt>
      <trkpt lat="49.36997" lon="1.05119">
        <ele>99</ele>
        <time>2019-12-30T12:50:53.000Z</time>
      </trkpt>
      <trkpt lat="49.36993" lon="1.05116">
        <ele>99</ele>
        <time>2019-12-30T12:50:54.000Z</time>
      </trkpt>
      <trkpt lat="49.3699" lon="1.05114">
        <ele>99</ele>
        <time>2019-12-30T12:50:55.000Z</time>
      </trkpt>
      <trkpt lat="49.36986" lon="1.05111">
        <ele>99</ele>
        <time>2019-12-30T12:50:56.000Z</time>
      </trkpt>
      <trkpt lat="49.36983" lon="1.05108">
        <ele>99</ele>
        <time>2019-12-30T12:50:57.000Z</time>
      </trkpt>
      <trkpt lat="49.36979" lon="1.05105">
        <ele>99</ele>
        <time>2019-12-30T12:50:58.000Z</time>
      </trkpt>
      <trkpt lat="49.36976" lon="1.05102">
        <ele>99</ele>
        <time>2019-12-30T12:50:59.000Z</time>
      </trkpt>
      <trkpt lat="49.36972" lon="1.051">
        <ele>99</ele>
        <time>2019-12-30T12:51:00.000Z</time>
      </trkpt>
      <trkpt lat="49.36968" lon="1.05099">
        <ele>99</ele>
        <time>2019-12-30T12:51:01.000Z</time>
      </trkpt>
      <trkpt lat="49.36964" lon="1.05095">
        <ele>99</ele>
        <time>2019-12-30T12:51:02.000Z</time>
      </trkpt>
      <trkpt lat="49.36961" lon="1.05092">
        <ele>99</ele>
        <time>2019-12-30T12:51:03.000Z</time>
      </trkpt>
      <trkpt lat="49.36958" lon="1.05087">
        <ele>99</ele>
        <time>2019-12-30T12:51:04.000Z</time>
      </trkpt>
      <trkpt lat="49.36955" lon="1.05084">
        <ele>99</ele>
        <time>2019-12-30T12:51:05.000Z</time>
      </trkpt>
      <trkpt lat="49.36952" lon="1.0508">
        <ele>99</ele>
        <time>2019-12-30T12:51:06.000Z</time>
      </trkpt>
      <trkpt lat="49.36949" lon="1.05076">
        <ele>99</ele>
        <time>2019-12-30T12:51:07.000Z</time>
      </trkpt>
      <trkpt lat="49.36946" lon="1.05073">
        <ele>99</ele>
        <time>2019-12-30T12:51:08.000Z</time>
      </trkpt>
      <trkpt lat="49.36943" lon="1.05069">
        <ele>99</ele>
        <time>2019-12-30T12:51:09.000Z</time>
      </trkpt>
      <trkpt lat="49.36939" lon="1.05066">
        <ele>100</ele>
        <time>2019-12-30T12:51:10.000Z</time>
      </trkpt>
      <trkpt lat="49.36936" lon="1.05063">
        <ele>100</ele>
        <time>2019-12-30T12:51:11.000Z</time>
      </trkpt>
      <trkpt lat="49.36932" lon="1.05059">
        <ele>100</ele>
        <time>2019-12-30T12:51:12.000Z</time>
      </trkpt>
      <trkpt lat="49.36929" lon="1.05056">
        <ele>100</ele>
        <time>2019-12-30T12:51:13.000Z</time>
      </trkpt>
      <trkpt lat="49.36925" lon="1.05053">
        <ele>100</ele>
        <time>2019-12-30T12:51:14.000Z</time>
      </trkpt>
      <trkpt lat="49.36922" lon="1.05049">
        <ele>100</ele>
        <time>2019-12-30T12:51:15.000Z</time>
      </trkpt>
      <trkpt lat="49.36918" lon="1.05046">
        <ele>100</ele>
        <time>2019-12-30T12:51:16.000Z</time>
      </trkpt>
      <trkpt lat="49.36915" lon="1.05042">
        <ele>99</ele>
        <time>2019-12-30T12:51:17.000Z</time>
      </trkpt>
      <trkpt lat="49.36911" lon="1.05039">
        <ele>99</ele>
        <time>2019-12-30T12:51:18.000Z</time>
      </trkpt>
      <trkpt lat="49.36908" lon="1.05036">
        <ele>99</ele>
        <time>2019-12-30T12:51:19.000Z</time>
      </trkpt>
      <trkpt lat="49.36904" lon="1.05033">
        <ele>99</ele>
        <time>2019-12-30T12:51:20.000Z</time>
      </trkpt>
      <trkpt lat="49.36901" lon="1.0503">
        <ele>99</ele>
        <time>2019-12-30T12:51:21.000Z</time>
      </trkpt>
      <trkpt lat="49.36897" lon="1.05027">
        <ele>98</ele>
        <time>2019-12-30T12:51:22.000Z</time>
      </trkpt>
      <trkpt lat="49.36893" lon="1.05024">
        <ele>98</ele>
        <time>2019-12-30T12:51:23.000Z</time>
      </trkpt>
      <trkpt lat="49.3689" lon="1.05021">
        <ele>98</ele>
        <time>2019-12-30T12:51:24.000Z</time>
      </trkpt>
      <trkpt lat="49.36886" lon="1.05018">
        <ele>98</ele>
        <time>2019-12-30T12:51:25.000Z</time>
      </trkpt>
      <trkpt lat="49.36882" lon="1.05014">
        <ele>98</ele>
        <time>2019-12-30T12:51:26.000Z</time>
      </trkpt>
      <trkpt lat="49.36878" lon="1.05011">
        <ele>98</ele>
        <time>2019-12-30T12:51:27.000Z</time>
      </trkpt>
      <trkpt lat="49.36874" lon="1.05008">
        <ele>98</ele>
        <time>2019-12-30T12:51:28.000Z</time>
      </trkpt>
      <trkpt lat="49.36871" lon="1.05004">
        <ele>98</ele>
        <time>2019-12-30T12:51:29.000Z</time>
      </trkpt>
      <trkpt lat="49.36867" lon="1.05001">
        <ele>98</ele>
        <time>2019-12-30T12:51:30.000Z</time>
      </trkpt>
      <trkpt lat="49.36863" lon="1.04998">
        <ele>98</ele>
        <time>2019-12-30T12:51:31.000Z</time>
      </trkpt>
      <trkpt lat="49.3686" lon="1.04994">
        <ele>98</ele>
        <time>2019-12-30T12:51:32.000Z</time>
      </trkpt>
      <trkpt lat="49.36856" lon="1.04991">
        <ele>98</ele>
        <time>2019-12-30T12:51:33.000Z</time>
      </trkpt>
      <trkpt lat="49.36853" lon="1.04989">
        <ele>98</ele>
        <time>2019-12-30T12:51:34.000Z</time>
      </trkpt>
      <trkpt lat="49.3685" lon="1.04986">
        <ele>98</ele>
        <time>2019-12-30T12:51:35.000Z</time>
      </trkpt>
      <trkpt lat="49.36847" lon="1.04983">
        <ele>98</ele>
        <time>2019-12-30T12:51:36.000Z</time>
      </trkpt>
      <trkpt lat="49.36843" lon="1.04979">
        <ele>97</ele>
        <time>2019-12-30T12:51:37.000Z</time>
      </trkpt>
      <trkpt lat="49.3684" lon="1.04976">
        <ele>97</ele>
        <time>2019-12-30T12:51:38.000Z</time>
      </trkpt>
      <trkpt lat="49.36836" lon="1.04973">
        <ele>97</ele>
        <time>2019-12-30T12:51:39.000Z</time>
      </trkpt>
      <trkpt lat="49.36833" lon="1.0497">
        <ele>97</ele>
        <time>2019-12-30T12:51:40.000Z</time>
      </trkpt>
      <trkpt lat="49.36829" lon="1.04966">
        <ele>97</ele>
        <time>2019-12-30T12:51:41.000Z</time>
      </trkpt>
      <trkpt lat="49.36825" lon="1.04963">
        <ele>97</ele>
        <time>2019-12-30T12:51:42.000Z</time>
      </trkpt>
      <trkpt lat="49.36822" lon="1.04959">
        <ele>97</ele>
        <time>2019-12-30T12:51:43.000Z</time>
      </trkpt>
      <trkpt lat="49.36819" lon="1.04956">
        <ele>97</ele>
        <time>2019-12-30T12:51:44.000Z</time>
      </trkpt>
      <trkpt lat="49.36815" lon="1.04953">
        <ele>98</ele>
        <time>2019-12-30T12:51:45.000Z</time>
      </trkpt>
      <trkpt lat="49.36812" lon="1.0495">
        <ele>98</ele>
        <time>2019-12-30T12:51:46.000Z</time>
      </trkpt>
      <trkpt lat="49.36809" lon="1.04948">
        <ele>98</ele>
        <time>2019-12-30T12:51:47.000Z</time>
      </trkpt>
      <trkpt lat="49.36806" lon="1.04944">
        <ele>98</ele>
        <time>2019-12-30T12:51:48.000Z</time>
      </trkpt>
      <trkpt lat="49.36802" lon="1.04941">
        <ele>98</ele>
        <time>2019-12-30T12:51:49.000Z</time>
      </trkpt>
      <trkpt lat="49.36799" lon="1.04938">
        <ele>98</ele>
        <time>2019-12-30T12:51:50.000Z</time>
      </trkpt>
      <trkpt lat="49.36795" lon="1.04935">
        <ele>99</ele>
        <time>2019-12-30T12:51:51.000Z</time>
      </trkpt>
      <trkpt lat="49.36791" lon="1.04931">
        <ele>99</ele>
        <time>2019-12-30T12:51:52.000Z</time>
      </trkpt>
      <trkpt lat="49.36788" lon="1.04928">
        <ele>99</ele>
        <time>2019-12-30T12:51:53.000Z</time>
      </trkpt>
      <trkpt lat="49.36784" lon="1.04925">
        <ele>99</ele>
        <time>2019-12-30T12:51:54.000Z</time>
      </trkpt>
      <trkpt lat="49.3678" lon="1.04922">
        <ele>99</ele>
        <time>2019-12-30T12:51:55.000Z</time>
      </trkpt>
      <trkpt lat="49.36777" lon="1.04919">
        <ele>99</ele>
        <time>2019-12-30T12:51:56.000Z</time>
      </trkpt>
      <trkpt lat="49.36773" lon="1.04915">
        <ele>99</ele>
        <time>2019-12-30T12:51:57.000Z</time>
      </trkpt>
      <trkpt lat="49.3677" lon="1.04913">
        <ele>99</ele>
        <time>2019-12-30T12:51:58.000Z</time>
      </trkpt>
      <trkpt lat="49.36766" lon="1.0491">
        <ele>99</ele>
        <time>2019-12-30T12:51:59.000Z</time>
      </trkpt>
      <trkpt lat="49.36763" lon="1.04908">
        <ele>99</ele>
        <time>2019-12-30T12:52:00.000Z</time>
      </trkpt>
      <trkpt lat="49.36759" lon="1.04904">
        <ele>99</ele>
        <time>2019-12-30T12:52:01.000Z</time>
      </trkpt>
      <trkpt lat="49.36756" lon="1.04901">
        <ele>99</ele>
        <time>2019-12-30T12:52:02.000Z</time>
      </trkpt>
      <trkpt lat="49.36752" lon="1.04898">
        <ele>99</ele>
        <time>2019-12-30T12:52:03.000Z</time>
      </trkpt>
      <trkpt lat="49.36748" lon="1.04894">
        <ele>99</ele>
        <time>2019-12-30T12:52:04.000Z</time>
      </trkpt>
      <trkpt lat="49.36745" lon="1.04891">
        <ele>99</ele>
        <time>2019-12-30T12:52:05.000Z</time>
      </trkpt>
      <trkpt lat="49.36741" lon="1.04887">
        <ele>99</ele>
        <time>2019-12-30T12:52:06.000Z</time>
      </trkpt>
      <trkpt lat="49.36738" lon="1.04884">
        <ele>99</ele>
        <time>2019-12-30T12:52:07.000Z</time>
      </trkpt>
      <trkpt lat="49.36735" lon="1.04881">
        <ele>99</ele>
        <time>2019-12-30T12:52:08.000Z</time>
      </trkpt>
      <trkpt lat="49.36731" lon="1.04877">
        <ele>100</ele>
        <time>2019-12-30T12:52:09.000Z</time>
      </trkpt>
      <trkpt lat="49.36728" lon="1.04874">
        <ele>100</ele>
        <time>2019-12-30T12:52:10.000Z</time>
      </trkpt>
      <trkpt lat="49.36724" lon="1.04871">
        <ele>100</ele>
        <time>2019-12-30T12:52:11.000Z</time>
      </trkpt>
      <trkpt lat="49.36721" lon="1.04867">
        <ele>100</ele>
        <time>2019-12-30T12:52:12.000Z</time>
      </trkpt>
      <trkpt lat="49.36717" lon="1.04864">
        <ele>100</ele>
        <time>2019-12-30T12:52:13.000Z</time>
      </trkpt>
      <trkpt lat="49.36713" lon="1.04862">
        <ele>101</ele>
        <time>2019-12-30T12:52:14.000Z</time>
      </trkpt>
      <trkpt lat="49.36709" lon="1.0486">
        <ele>101</ele>
        <time>2019-12-30T12:52:15.000Z</time>
      </trkpt>
      <trkpt lat="49.36705" lon="1.04858">
        <ele>101</ele>
        <time>2019-12-30T12:52:16.000Z</time>
      </trkpt>
      <trkpt lat="49.36701" lon="1.04855">
        <ele>101</ele>
        <time>2019-12-30T12:52:17.000Z</time>
      </trkpt>
      <trkpt lat="49.36698" lon="1.04852">
        <ele>101</ele>
        <time>2019-12-30T12:52:18.000Z</time>
      </trkpt>
      <trkpt lat="49.36695" lon="1.04848">
        <ele>101</ele>
        <time>2019-12-30T12:52:19.000Z</time>
      </trkpt>
      <trkpt lat="49.36692" lon="1.04843">
        <ele>101</ele>
        <time>2019-12-30T12:52:20.000Z</time>
      </trkpt>
      <trkpt lat="49.36689" lon="1.04839">
        <ele>101</ele>
        <time>2019-12-30T12:52:21.000Z</time>
      </trkpt>
      <trkpt lat="49.36686" lon="1.04836">
        <ele>101</ele>
        <time>2019-12-30T12:52:22.000Z</time>
      </trkpt>
      <trkpt lat="49.36682" lon="1.04834">
        <ele>101</ele>
        <time>2019-12-30T12:52:23.000Z</time>
      </trkpt>
      <trkpt lat="49.36679" lon="1.04831">
        <ele>102</ele>
        <time>2019-12-30T12:52:24.000Z</time>
      </trkpt>
      <trkpt lat="49.36676" lon="1.04828">
        <ele>102</ele>
        <time>2019-12-30T12:52:25.000Z</time>
      </trkpt>
      <trkpt lat="49.36672" lon="1.04825">
        <ele>102</ele>
        <time>2019-12-30T12:52:26.000Z</time>
      </trkpt>
      <trkpt lat="49.3667" lon="1.04822">
        <ele>102</ele>
        <time>2019-12-30T12:52:27.000Z</time>
      </trkpt>
      <trkpt lat="49.36666" lon="1.04818">
        <ele>102</ele>
        <time>2019-12-30T12:52:28.000Z</time>
      </trkpt>
      <trkpt lat="49.36663" lon="1.04814">
        <ele>102</ele>
        <time>2019-12-30T12:52:29.000Z</time>
      </trkpt>
      <trkpt lat="49.36659" lon="1.04811">
        <ele>102</ele>
        <time>2019-12-30T12:52:30.000Z</time>
      </trkpt>
      <trkpt lat="49.36656" lon="1.04807">
        <ele>102</ele>
        <time>2019-12-30T12:52:31.000Z</time>
      </trkpt>
      <trkpt lat="49.36652" lon="1.04804">
        <ele>102</ele>
        <time>2019-12-30T12:52:32.000Z</time>
      </trkpt>
      <trkpt lat="49.36648" lon="1.048">
        <ele>102</ele>
        <time>2019-12-30T12:52:33.000Z</time>
      </trkpt>
      <trkpt lat="49.36644" lon="1.04796">
        <ele>103</ele>
        <time>2019-12-30T12:52:34.000Z</time>
      </trkpt>
      <trkpt lat="49.3664" lon="1.04793">
        <ele>103</ele>
        <time>2019-12-30T12:52:35.000Z</time>
      </trkpt>
      <trkpt lat="49.36637" lon="1.0479">
        <ele>103</ele>
        <time>2019-12-30T12:52:36.000Z</time>
      </trkpt>
      <trkpt lat="49.36633" lon="1.04787">
        <ele>103</ele>
        <time>2019-12-30T12:52:37.000Z</time>
      </trkpt>
      <trkpt lat="49.36629" lon="1.04783">
        <ele>103</ele>
        <time>2019-12-30T12:52:38.000Z</time>
      </trkpt>
      <trkpt lat="49.36625" lon="1.0478">
        <ele>103</ele>
        <time>2019-12-30T12:52:39.000Z</time>
      </trkpt>
      <trkpt lat="49.36622" lon="1.04777">
        <ele>103</ele>
        <time>2019-12-30T12:52:40.000Z</time>
      </trkpt>
      <trkpt lat="49.36618" lon="1.04774">
        <ele>103</ele>
        <time>2019-12-30T12:52:41.000Z</time>
      </trkpt>
      <trkpt lat="49.36615" lon="1.0477">
        <ele>103</ele>
        <time>2019-12-30T12:52:42.000Z</time>
      </trkpt>
      <trkpt lat="49.36611" lon="1.04767">
        <ele>104</ele>
        <time>2019-12-30T12:52:43.000Z</time>
      </trkpt>
      <trkpt lat="49.36608" lon="1.04763">
        <ele>104</ele>
        <time>2019-12-30T12:52:44.000Z</time>
      </trkpt>
      <trkpt lat="49.36605" lon="1.0476">
        <ele>104</ele>
        <time>2019-12-30T12:52:45.000Z</time>
      </trkpt>
      <trkpt lat="49.36601" lon="1.04757">
        <ele>104</ele>
        <time>2019-12-30T12:52:46.000Z</time>
      </trkpt>
      <trkpt lat="49.36597" lon="1.04754">
        <ele>104</ele>
        <time>2019-12-30T12:52:47.000Z</time>
      </trkpt>
      <trkpt lat="49.36594" lon="1.0475">
        <ele>104</ele>
        <time>2019-12-30T12:52:48.000Z</time>
      </trkpt>
      <trkpt lat="49.3659" lon="1.04747">
        <ele>104</ele>
        <time>2019-12-30T12:52:49.000Z</time>
      </trkpt>
      <trkpt lat="49.36587" lon="1.04743">
        <ele>104</ele>
        <time>2019-12-30T12:52:50.000Z</time>
      </trkpt>
      <trkpt lat="49.36584" lon="1.04739">
        <ele>104</ele>
        <time>2019-12-30T12:52:51.000Z</time>
      </trkpt>
      <trkpt lat="49.36581" lon="1.04736">
        <ele>104</ele>
        <time>2019-12-30T12:52:52.000Z</time>
      </trkpt>
      <trkpt lat="49.36577" lon="1.04732">
        <ele>104</ele>
        <time>2019-12-30T12:52:53.000Z</time>
      </trkpt>
      <trkpt lat="49.36573" lon="1.04729">
        <ele>104</ele>
        <time>2019-12-30T12:52:54.000Z</time>
      </trkpt>
      <trkpt lat="49.36569" lon="1.04726">
        <ele>104</ele>
        <time>2019-12-30T12:52:55.000Z</time>
      </trkpt>
      <trkpt lat="49.36566" lon="1.04723">
        <ele>104</ele>
        <time>2019-12-30T12:52:56.000Z</time>
      </trkpt>
      <trkpt lat="49.36562" lon="1.0472">
        <ele>104</ele>
        <time>2019-12-30T12:52:57.000Z</time>
      </trkpt>
      <trkpt lat="49.36559" lon="1.04716">
        <ele>104</ele>
        <time>2019-12-30T12:52:58.000Z</time>
      </trkpt>
      <trkpt lat="49.36555" lon="1.04713">
        <ele>105</ele>
        <time>2019-12-30T12:52:59.000Z</time>
      </trkpt>
      <trkpt lat="49.36551" lon="1.04709">
        <ele>105</ele>
        <time>2019-12-30T12:53:00.000Z</time>
      </trkpt>
      <trkpt lat="49.36548" lon="1.04705">
        <ele>105</ele>
        <time>2019-12-30T12:53:01.000Z</time>
      </trkpt>
      <trkpt lat="49.36544" lon="1.04702">
        <ele>105</ele>
        <time>2019-12-30T12:53:02.000Z</time>
      </trkpt>
      <trkpt lat="49.3654" lon="1.04698">
        <ele>106</ele>
        <time>2019-12-30T12:53:03.000Z</time>
      </trkpt>
      <trkpt lat="49.36536" lon="1.04695">
        <ele>106</ele>
        <time>2019-12-30T12:53:04.000Z</time>
      </trkpt>
      <trkpt lat="49.36532" lon="1.04692">
        <ele>106</ele>
        <time>2019-12-30T12:53:05.000Z</time>
      </trkpt>
      <trkpt lat="49.36528" lon="1.04688">
        <ele>106</ele>
        <time>2019-12-30T12:53:06.000Z</time>
      </trkpt>
      <trkpt lat="49.36525" lon="1.04685">
        <ele>106</ele>
        <time>2019-12-30T12:53:07.000Z</time>
      </trkpt>
      <trkpt lat="49.36521" lon="1.04681">
        <ele>106</ele>
        <time>2019-12-30T12:53:08.000Z</time>
      </trkpt>
      <trkpt lat="49.36518" lon="1.04677">
        <ele>106</ele>
        <time>2019-12-30T12:53:09.000Z</time>
      </trkpt>
      <trkpt lat="49.36515" lon="1.04673">
        <ele>106</ele>
        <time>2019-12-30T12:53:10.000Z</time>
      </trkpt>
      <trkpt lat="49.36511" lon="1.04669">
        <ele>107</ele>
        <time>2019-12-30T12:53:11.000Z</time>
      </trkpt>
      <trkpt lat="49.36508" lon="1.04666">
        <ele>107</ele>
        <time>2019-12-30T12:53:12.000Z</time>
      </trkpt>
      <trkpt lat="49.36504" lon="1.04663">
        <ele>107</ele>
        <time>2019-12-30T12:53:13.000Z</time>
      </trkpt>
      <trkpt lat="49.365" lon="1.04661">
        <ele>106</ele>
        <time>2019-12-30T12:53:14.000Z</time>
      </trkpt>
      <trkpt lat="49.36496" lon="1.04658">
        <ele>106</ele>
        <time>2019-12-30T12:53:15.000Z</time>
      </trkpt>
      <trkpt lat="49.36492" lon="1.04655">
        <ele>106</ele>
        <time>2019-12-30T12:53:16.000Z</time>
      </trkpt>
      <trkpt lat="49.36488" lon="1.04653">
        <ele>106</ele>
        <time>2019-12-30T12:53:17.000Z</time>
      </trkpt>
      <trkpt lat="49.36484" lon="1.0465">
        <ele>106</ele>
        <time>2019-12-30T12:53:18.000Z</time>
      </trkpt>
      <trkpt lat="49.36481" lon="1.04646">
        <ele>106</ele>
        <time>2019-12-30T12:53:19.000Z</time>
      </trkpt>
      <trkpt lat="49.36477" lon="1.04643">
        <ele>106</ele>
        <time>2019-12-30T12:53:20.000Z</time>
      </trkpt>
      <trkpt lat="49.36474" lon="1.0464">
        <ele>106</ele>
        <time>2019-12-30T12:53:21.000Z</time>
      </trkpt>
      <trkpt lat="49.3647" lon="1.04637">
        <ele>106</ele>
        <time>2019-12-30T12:53:22.000Z</time>
      </trkpt>
      <trkpt lat="49.36467" lon="1.04634">
        <ele>106</ele>
        <time>2019-12-30T12:53:23.000Z</time>
      </trkpt>
      <trkpt lat="49.36464" lon="1.04631">
        <ele>106</ele>
        <time>2019-12-30T12:53:24.000Z</time>
      </trkpt>
      <trkpt lat="49.3646" lon="1.04628">
        <ele>105</ele>
        <time>2019-12-30T12:53:25.000Z</time>
      </trkpt>
      <trkpt lat="49.36457" lon="1.04625">
        <ele>105</ele>
        <time>2019-12-30T12:53:26.000Z</time>
      </trkpt>
      <trkpt lat="49.36453" lon="1.04621">
        <ele>105</ele>
        <time>2019-12-30T12:53:27.000Z</time>
      </trkpt>
      <trkpt lat="49.3645" lon="1.04618">
        <ele>105</ele>
        <time>2019-12-30T12:53:28.000Z</time>
      </trkpt>
      <trkpt lat="49.36446" lon="1.04614">
        <ele>105</ele>
        <time>2019-12-30T12:53:29.000Z</time>
      </trkpt>
      <trkpt lat="49.36443" lon="1.0461">
        <ele>105</ele>
        <time>2019-12-30T12:53:30.000Z</time>
      </trkpt>
      <trkpt lat="49.36439" lon="1.04607">
        <ele>105</ele>
        <time>2019-12-30T12:53:31.000Z</time>
      </trkpt>
      <trkpt lat="49.36435" lon="1.04603">
        <ele>105</ele>
        <time>2019-12-30T12:53:32.000Z</time>
      </trkpt>
      <trkpt lat="49.36431" lon="1.04599">
        <ele>105</ele>
        <time>2019-12-30T12:53:33.000Z</time>
      </trkpt>
      <trkpt lat="49.36427" lon="1.04596">
        <ele>105</ele>
        <time>2019-12-30T12:53:34.000Z</time>
      </trkpt>
      <trkpt lat="49.36423" lon="1.04592">
        <ele>105</ele>
        <time>2019-12-30T12:53:35.000Z</time>
      </trkpt>
      <trkpt lat="49.36419" lon="1.04588">
        <ele>105</ele>
        <time>2019-12-30T12:53:36.000Z</time>
      </trkpt>
      <trkpt lat="49.36415" lon="1.04585">
        <ele>105</ele>
        <time>2019-12-30T12:53:37.000Z</time>
      </trkpt>
      <trkpt lat="49.36411" lon="1.04581">
        <ele>105</ele>
        <time>2019-12-30T12:53:38.000Z</time>
      </trkpt>
      <trkpt lat="49.36408" lon="1.04577">
        <ele>105</ele>
        <time>2019-12-30T12:53:39.000Z</time>
      </trkpt>
      <trkpt lat="49.36404" lon="1.04573">
        <ele>106</ele>
        <time>2019-12-30T12:53:40.000Z</time>
      </trkpt>
      <trkpt lat="49.364" lon="1.0457">
        <ele>106</ele>
        <time>2019-12-30T12:53:41.000Z</time>
      </trkpt>
      <trkpt lat="49.36396" lon="1.04566">
        <ele>106</ele>
        <time>2019-12-30T12:53:42.000Z</time>
      </trkpt>
      <trkpt lat="49.36392" lon="1.04563">
        <ele>106</ele>
        <time>2019-12-30T12:53:43.000Z</time>
      </trkpt>
      <trkpt lat="49.36388" lon="1.04559">
        <ele>106</ele>
        <time>2019-12-30T12:53:44.000Z</time>
      </trkpt>
      <trkpt lat="49.36385" lon="1.04556">
        <ele>106</ele>
        <time>2019-12-30T12:53:45.000Z</time>
      </trkpt>
      <trkpt lat="49.36381" lon="1.04552">
        <ele>106</ele>
        <time>2019-12-30T12:53:46.000Z</time>
      </trkpt>
      <trkpt lat="49.36377" lon="1.04549">
        <ele>106</ele>
        <time>2019-12-30T12:53:47.000Z</time>
      </trkpt>
      <trkpt lat="49.36373" lon="1.04545">
        <ele>106</ele>
        <time>2019-12-30T12:53:48.000Z</time>
      </trkpt>
      <trkpt lat="49.3637" lon="1.04542">
        <ele>106</ele>
        <time>2019-12-30T12:53:49.000Z</time>
      </trkpt>
      <trkpt lat="49.36366" lon="1.04538">
        <ele>106</ele>
        <time>2019-12-30T12:53:50.000Z</time>
      </trkpt>
      <trkpt lat="49.36362" lon="1.04535">
        <ele>106</ele>
        <time>2019-12-30T12:53:51.000Z</time>
      </trkpt>
      <trkpt lat="49.36358" lon="1.04532">
        <ele>106</ele>
        <time>2019-12-30T12:53:52.000Z</time>
      </trkpt>
      <trkpt lat="49.36354" lon="1.04528">
        <ele>106</ele>
        <time>2019-12-30T12:53:53.000Z</time>
      </trkpt>
      <trkpt lat="49.36351" lon="1.04525">
        <ele>106</ele>
        <time>2019-12-30T12:53:54.000Z</time>
      </trkpt>
      <trkpt lat="49.36347" lon="1.04521">
        <ele>106</ele>
        <time>2019-12-30T12:53:55.000Z</time>
      </trkpt>
      <trkpt lat="49.36343" lon="1.04518">
        <ele>106</ele>
        <time>2019-12-30T12:53:56.000Z</time>
      </trkpt>
      <trkpt lat="49.36339" lon="1.04515">
        <ele>105</ele>
        <time>2019-12-30T12:53:57.000Z</time>
      </trkpt>
      <trkpt lat="49.36336" lon="1.04512">
        <ele>105</ele>
        <time>2019-12-30T12:53:58.000Z</time>
      </trkpt>
      <trkpt lat="49.36333" lon="1.04508">
        <ele>105</ele>
        <time>2019-12-30T12:53:59.000Z</time>
      </trkpt>
      <trkpt lat="49.36329" lon="1.04505">
        <ele>105</ele>
        <time>2019-12-30T12:54:00.000Z</time>
      </trkpt>
      <trkpt lat="49.36325" lon="1.04503">
        <ele>105</ele>
        <time>2019-12-30T12:54:01.000Z</time>
      </trkpt>
      <trkpt lat="49.36322" lon="1.045">
        <ele>105</ele>
        <time>2019-12-30T12:54:02.000Z</time>
      </trkpt>
      <trkpt lat="49.36318" lon="1.04497">
        <ele>105</ele>
        <time>2019-12-30T12:54:03.000Z</time>
      </trkpt>
      <trkpt lat="49.36314" lon="1.04494">
        <ele>105</ele>
        <time>2019-12-30T12:54:04.000Z</time>
      </trkpt>
      <trkpt lat="49.36311" lon="1.04493">
        <ele>105</ele>
        <time>2019-12-30T12:54:05.000Z</time>
      </trkpt>
      <trkpt lat="49.36307" lon="1.04493">
        <ele>105</ele>
        <time>2019-12-30T12:54:06.000Z</time>
      </trkpt>
      <trkpt lat="49.36303" lon="1.04495">
        <ele>104</ele>
        <time>2019-12-30T12:54:07.000Z</time>
      </trkpt>
      <trkpt lat="49.36299" lon="1.04498">
        <ele>104</ele>
        <time>2019-12-30T12:54:08.000Z</time>
      </trkpt>
      <trkpt lat="49.36295" lon="1.045">
        <ele>105</ele>
        <time>2019-12-30T12:54:09.000Z</time>
      </trkpt>
      <trkpt lat="49.36292" lon="1.04504">
        <ele>105</ele>
        <time>2019-12-30T12:54:10.000Z</time>
      </trkpt>
      <trkpt lat="49.36289" lon="1.04508">
        <ele>105</ele>
        <time>2019-12-30T12:54:11.000Z</time>
      </trkpt>
      <trkpt lat="49.36287" lon="1.04513">
        <ele>105</ele>
        <time>2019-12-30T12:54:12.000Z</time>
      </trkpt>
      <trkpt lat="49.36284" lon="1.04518">
        <ele>105</ele>
        <time>2019-12-30T12:54:13.000Z</time>
      </trkpt>
      <trkpt lat="49.36282" lon="1.04524">
        <ele>105</ele>
        <time>2019-12-30T12:54:14.000Z</time>
      </trkpt>
      <trkpt lat="49.36279" lon="1.04529">
        <ele>105</ele>
        <time>2019-12-30T12:54:15.000Z</time>
      </trkpt>
      <trkpt lat="49.36277" lon="1.04534">
        <ele>105</ele>
        <time>2019-12-30T12:54:16.000Z</time>
      </trkpt>
      <trkpt lat="49.36275" lon="1.04539">
        <ele>105</ele>
        <time>2019-12-30T12:54:17.000Z</time>
      </trkpt>
      <trkpt lat="49.36273" lon="1.04544">
        <ele>105</ele>
        <time>2019-12-30T12:54:18.000Z</time>
      </trkpt>
      <trkpt lat="49.3627" lon="1.0455">
        <ele>105</ele>
        <time>2019-12-30T12:54:19.000Z</time>
      </trkpt>
      <trkpt lat="49.36268" lon="1.04554">
        <ele>105</ele>
        <time>2019-12-30T12:54:20.000Z</time>
      </trkpt>
      <trkpt lat="49.36265" lon="1.04559">
        <ele>105</ele>
        <time>2019-12-30T12:54:21.000Z</time>
      </trkpt>
      <trkpt lat="49.36262" lon="1.04563">
        <ele>105</ele>
        <time>2019-12-30T12:54:22.000Z</time>
      </trkpt>
      <trkpt lat="49.36258" lon="1.04566">
        <ele>105</ele>
        <time>2019-12-30T12:54:23.000Z</time>
      </trkpt>
      <trkpt lat="49.36254" lon="1.04568">
        <ele>105</ele>
        <time>2019-12-30T12:54:24.000Z</time>
      </trkpt>
      <trkpt lat="49.36251" lon="1.04571">
        <ele>105</ele>
        <time>2019-12-30T12:54:25.000Z</time>
      </trkpt>
      <trkpt lat="49.36247" lon="1.04573">
        <ele>105</ele>
        <time>2019-12-30T12:54:26.000Z</time>
      </trkpt>
      <trkpt lat="49.36243" lon="1.04575">
        <ele>105</ele>
        <time>2019-12-30T12:54:27.000Z</time>
      </trkpt>
      <trkpt lat="49.36239" lon="1.04577">
        <ele>105</ele>
        <time>2019-12-30T12:54:28.000Z</time>
      </trkpt>
      <trkpt lat="49.36235" lon="1.04578">
        <ele>105</ele>
        <time>2019-12-30T12:54:29.000Z</time>
      </trkpt>
      <trkpt lat="49.36232" lon="1.0458">
        <ele>105</ele>
        <time>2019-12-30T12:54:30.000Z</time>
      </trkpt>
      <trkpt lat="49.36228" lon="1.04582">
        <ele>105</ele>
        <time>2019-12-30T12:54:31.000Z</time>
      </trkpt>
      <trkpt lat="49.36225" lon="1.04584">
        <ele>104</ele>
        <time>2019-12-30T12:54:32.000Z</time>
      </trkpt>
      <trkpt lat="49.36221" lon="1.04585">
        <ele>104</ele>
        <time>2019-12-30T12:54:33.000Z</time>
      </trkpt>
      <trkpt lat="49.36217" lon="1.04585">
        <ele>104</ele>
        <time>2019-12-30T12:54:34.000Z</time>
      </trkpt>
      <trkpt lat="49.36214" lon="1.04587">
        <ele>104</ele>
        <time>2019-12-30T12:54:35.000Z</time>
      </trkpt>
      <trkpt lat="49.36211" lon="1.0459">
        <ele>104</ele>
        <time>2019-12-30T12:54:36.000Z</time>
      </trkpt>
      <trkpt lat="49.36208" lon="1.04594">
        <ele>104</ele>
        <time>2019-12-30T12:54:37.000Z</time>
      </trkpt>
      <trkpt lat="49.36206" lon="1.046">
        <ele>104</ele>
        <time>2019-12-30T12:54:38.000Z</time>
      </trkpt>
      <trkpt lat="49.36203" lon="1.04606">
        <ele>104</ele>
        <time>2019-12-30T12:54:39.000Z</time>
      </trkpt>
      <trkpt lat="49.36202" lon="1.04612">
        <ele>104</ele>
        <time>2019-12-30T12:54:40.000Z</time>
      </trkpt>
      <trkpt lat="49.362" lon="1.04618">
        <ele>104</ele>
        <time>2019-12-30T12:54:41.000Z</time>
      </trkpt>
      <trkpt lat="49.36199" lon="1.04625">
        <ele>104</ele>
        <time>2019-12-30T12:54:42.000Z</time>
      </trkpt>
      <trkpt lat="49.36197" lon="1.04631">
        <ele>104</ele>
        <time>2019-12-30T12:54:43.000Z</time>
      </trkpt>
      <trkpt lat="49.36196" lon="1.04638">
        <ele>104</ele>
        <time>2019-12-30T12:54:44.000Z</time>
      </trkpt>
      <trkpt lat="49.36194" lon="1.04644">
        <ele>104</ele>
        <time>2019-12-30T12:54:45.000Z</time>
      </trkpt>
      <trkpt lat="49.36193" lon="1.0465">
        <ele>104</ele>
        <time>2019-12-30T12:54:46.000Z</time>
      </trkpt>
      <trkpt lat="49.36191" lon="1.04657">
        <ele>104</ele>
        <time>2019-12-30T12:54:47.000Z</time>
      </trkpt>
      <trkpt lat="49.36189" lon="1.04663">
        <ele>103</ele>
        <time>2019-12-30T12:54:48.000Z</time>
      </trkpt>
      <trkpt lat="49.36188" lon="1.04669">
        <ele>103</ele>
        <time>2019-12-30T12:54:49.000Z</time>
      </trkpt>
      <trkpt lat="49.36186" lon="1.04674">
        <ele>103</ele>
        <time>2019-12-30T12:54:50.000Z</time>
      </trkpt>
      <trkpt lat="49.36185" lon="1.0468">
        <ele>102</ele>
        <time>2019-12-30T12:54:51.000Z</time>
      </trkpt>
      <trkpt lat="49.36183" lon="1.04686">
        <ele>102</ele>
        <time>2019-12-30T12:54:52.000Z</time>
      </trkpt>
      <trkpt lat="49.36181" lon="1.04691">
        <ele>102</ele>
        <time>2019-12-30T12:54:53.000Z</time>
      </trkpt>
      <trkpt lat="49.36179" lon="1.04697">
        <ele>102</ele>
        <time>2019-12-30T12:54:54.000Z</time>
      </trkpt>
      <trkpt lat="49.36177" lon="1.04703">
        <ele>102</ele>
        <time>2019-12-30T12:54:55.000Z</time>
      </trkpt>
      <trkpt lat="49.36175" lon="1.04709">
        <ele>102</ele>
        <time>2019-12-30T12:54:56.000Z</time>
      </trkpt>
      <trkpt lat="49.36173" lon="1.04714">
        <ele>101</ele>
        <time>2019-12-30T12:54:57.000Z</time>
      </trkpt>
      <trkpt lat="49.36171" lon="1.0472">
        <ele>101</ele>
        <time>2019-12-30T12:54:58.000Z</time>
      </trkpt>
      <trkpt lat="49.36169" lon="1.04725">
        <ele>101</ele>
        <time>2019-12-30T12:54:59.000Z</time>
      </trkpt>
      <trkpt lat="49.36168" lon="1.04731">
        <ele>101</ele>
        <time>2019-12-30T12:55:00.000Z</time>
      </trkpt>
      <trkpt lat="49.36166" lon="1.04737">
        <ele>102</ele>
        <time>2019-12-30T12:55:01.000Z</time>
      </trkpt>
      <trkpt lat="49.36165" lon="1.04743">
        <ele>102</ele>
        <time>2019-12-30T12:55:02.000Z</time>
      </trkpt>
      <trkpt lat="49.36163" lon="1.0475">
        <ele>102</ele>
        <time>2019-12-30T12:55:03.000Z</time>
      </trkpt>
      <trkpt lat="49.36161" lon="1.04755">
        <ele>102</ele>
        <time>2019-12-30T12:55:04.000Z</time>
      </trkpt>
      <trkpt lat="49.36159" lon="1.04762">
        <ele>102</ele>
        <time>2019-12-30T12:55:05.000Z</time>
      </trkpt>
      <trkpt lat="49.36158" lon="1.04768">
        <ele>102</ele>
        <time>2019-12-30T12:55:06.000Z</time>
      </trkpt>
      <trkpt lat="49.36156" lon="1.04774">
        <ele>102</ele>
        <time>2019-12-30T12:55:07.000Z</time>
      </trkpt>
      <trkpt lat="49.36154" lon="1.04781">
        <ele>102</ele>
        <time>2019-12-30T12:55:08.000Z</time>
      </trkpt>
      <trkpt lat="49.36153" lon="1.04787">
        <ele>103</ele>
        <time>2019-12-30T12:55:09.000Z</time>
      </trkpt>
      <trkpt lat="49.36151" lon="1.04794">
        <ele>103</ele>
        <time>2019-12-30T12:55:10.000Z</time>
      </trkpt>
      <trkpt lat="49.3615" lon="1.048">
        <ele>103</ele>
        <time>2019-12-30T12:55:11.000Z</time>
      </trkpt>
      <trkpt lat="49.36148" lon="1.04806">
        <ele>103</ele>
        <time>2019-12-30T12:55:12.000Z</time>
      </trkpt>
      <trkpt lat="49.36147" lon="1.04813">
        <ele>104</ele>
        <time>2019-12-30T12:55:13.000Z</time>
      </trkpt>
      <trkpt lat="49.36146" lon="1.04819">
        <ele>104</ele>
        <time>2019-12-30T12:55:14.000Z</time>
      </trkpt>
      <trkpt lat="49.36144" lon="1.04826">
        <ele>104</ele>
        <time>2019-12-30T12:55:15.000Z</time>
      </trkpt>
      <trkpt lat="49.36143" lon="1.04833">
        <ele>104</ele>
        <time>2019-12-30T12:55:16.000Z</time>
      </trkpt>
      <trkpt lat="49.36141" lon="1.04839">
        <ele>105</ele>
        <time>2019-12-30T12:55:17.000Z</time>
      </trkpt>
      <trkpt lat="49.3614" lon="1.04846">
        <ele>105</ele>
        <time>2019-12-30T12:55:18.000Z</time>
      </trkpt>
      <trkpt lat="49.36138" lon="1.04852">
        <ele>105</ele>
        <time>2019-12-30T12:55:19.000Z</time>
      </trkpt>
      <trkpt lat="49.36136" lon="1.04859">
        <ele>105</ele>
        <time>2019-12-30T12:55:20.000Z</time>
      </trkpt>
      <trkpt lat="49.36134" lon="1.04866">
        <ele>105</ele>
        <time>2019-12-30T12:55:21.000Z</time>
      </trkpt>
      <trkpt lat="49.36132" lon="1.04872">
        <ele>106</ele>
        <time>2019-12-30T12:55:22.000Z</time>
      </trkpt>
      <trkpt lat="49.3613" lon="1.04878">
        <ele>106</ele>
        <time>2019-12-30T12:55:23.000Z</time>
      </trkpt>
      <trkpt lat="49.36127" lon="1.04885">
        <ele>106</ele>
        <time>2019-12-30T12:55:24.000Z</time>
      </trkpt>
      <trkpt lat="49.36125" lon="1.04891">
        <ele>106</ele>
        <time>2019-12-30T12:55:25.000Z</time>
      </trkpt>
      <trkpt lat="49.36123" lon="1.04898">
        <ele>106</ele>
        <time>2019-12-30T12:55:26.000Z</time>
      </trkpt>
      <trkpt lat="49.36121" lon="1.04904">
        <ele>107</ele>
        <time>2019-12-30T12:55:27.000Z</time>
      </trkpt>
      <trkpt lat="49.36118" lon="1.0491">
        <ele>107</ele>
        <time>2019-12-30T12:55:28.000Z</time>
      </trkpt>
      <trkpt lat="49.36117" lon="1.04917">
        <ele>107</ele>
        <time>2019-12-30T12:55:29.000Z</time>
      </trkpt>
      <trkpt lat="49.36115" lon="1.04923">
        <ele>107</ele>
        <time>2019-12-30T12:55:30.000Z</time>
      </trkpt>
      <trkpt lat="49.36113" lon="1.0493">
        <ele>107</ele>
        <time>2019-12-30T12:55:31.000Z</time>
      </trkpt>
      <trkpt lat="49.36111" lon="1.04936">
        <ele>108</ele>
        <time>2019-12-30T12:55:32.000Z</time>
      </trkpt>
      <trkpt lat="49.3611" lon="1.04943">
        <ele>108</ele>
        <time>2019-12-30T12:55:33.000Z</time>
      </trkpt>
      <trkpt lat="49.36108" lon="1.04949">
        <ele>108</ele>
        <time>2019-12-30T12:55:34.000Z</time>
      </trkpt>
      <trkpt lat="49.36106" lon="1.04956">
        <ele>108</ele>
        <time>2019-12-30T12:55:35.000Z</time>
      </trkpt>
      <trkpt lat="49.36104" lon="1.04962">
        <ele>108</ele>
        <time>2019-12-30T12:55:36.000Z</time>
      </trkpt>
      <trkpt lat="49.36102" lon="1.04969">
        <ele>108</ele>
        <time>2019-12-30T12:55:37.000Z</time>
      </trkpt>
      <trkpt lat="49.36101" lon="1.04975">
        <ele>109</ele>
        <time>2019-12-30T12:55:38.000Z</time>
      </trkpt>
      <trkpt lat="49.36099" lon="1.04981">
        <ele>109</ele>
        <time>2019-12-30T12:55:39.000Z</time>
      </trkpt>
      <trkpt lat="49.36097" lon="1.04988">
        <ele>109</ele>
        <time>2019-12-30T12:55:40.000Z</time>
      </trkpt>
      <trkpt lat="49.36095" lon="1.04994">
        <ele>109</ele>
        <time>2019-12-30T12:55:41.000Z</time>
      </trkpt>
      <trkpt lat="49.36093" lon="1.05001">
        <ele>109</ele>
        <time>2019-12-30T12:55:42.000Z</time>
      </trkpt>
      <trkpt lat="49.36091" lon="1.05008">
        <ele>109</ele>
        <time>2019-12-30T12:55:43.000Z</time>
      </trkpt>
      <trkpt lat="49.36088" lon="1.05015">
        <ele>109</ele>
        <time>2019-12-30T12:55:44.000Z</time>
      </trkpt>
      <trkpt lat="49.36086" lon="1.05022">
        <ele>109</ele>
        <time>2019-12-30T12:55:45.000Z</time>
      </trkpt>
      <trkpt lat="49.36084" lon="1.05029">
        <ele>109</ele>
        <time>2019-12-30T12:55:46.000Z</time>
      </trkpt>
      <trkpt lat="49.36082" lon="1.05036">
        <ele>109</ele>
        <time>2019-12-30T12:55:47.000Z</time>
      </trkpt>
      <trkpt lat="49.3608" lon="1.05042">
        <ele>109</ele>
        <time>2019-12-30T12:55:48.000Z</time>
      </trkpt>
      <trkpt lat="49.36078" lon="1.05049">
        <ele>109</ele>
        <time>2019-12-30T12:55:49.000Z</time>
      </trkpt>
      <trkpt lat="49.36075" lon="1.05055">
        <ele>109</ele>
        <time>2019-12-30T12:55:50.000Z</time>
      </trkpt>
      <trkpt lat="49.36073" lon="1.05062">
        <ele>109</ele>
        <time>2019-12-30T12:55:51.000Z</time>
      </trkpt>
      <trkpt lat="49.3607" lon="1.05069">
        <ele>109</ele>
        <time>2019-12-30T12:55:52.000Z</time>
      </trkpt>
      <trkpt lat="49.36068" lon="1.05075">
        <ele>109</ele>
        <time>2019-12-30T12:55:53.000Z</time>
      </trkpt>
      <trkpt lat="49.36067" lon="1.05082">
        <ele>109</ele>
        <time>2019-12-30T12:55:54.000Z</time>
      </trkpt>
      <trkpt lat="49.36065" lon="1.05089">
        <ele>109</ele>
        <time>2019-12-30T12:55:55.000Z</time>
      </trkpt>
      <trkpt lat="49.36063" lon="1.05095">
        <ele>109</ele>
        <time>2019-12-30T12:55:56.000Z</time>
      </trkpt>
      <trkpt lat="49.36061" lon="1.05102">
        <ele>109</ele>
        <time>2019-12-30T12:55:57.000Z</time>
      </trkpt>
      <trkpt lat="49.3606" lon="1.05109">
        <ele>108</ele>
        <time>2019-12-30T12:55:58.000Z</time>
      </trkpt>
      <trkpt lat="49.36058" lon="1.05115">
        <ele>108</ele>
        <time>2019-12-30T12:55:59.000Z</time>
      </trkpt>
      <trkpt lat="49.36056" lon="1.05122">
        <ele>108</ele>
        <time>2019-12-30T12:56:00.000Z</time>
      </trkpt>
      <trkpt lat="49.36055" lon="1.05129">
        <ele>108</ele>
        <time>2019-12-30T12:56:01.000Z</time>
      </trkpt>
      <trkpt lat="49.36053" lon="1.05136">
        <ele>108</ele>
        <time>2019-12-30T12:56:02.000Z</time>
      </trkpt>
      <trkpt lat="49.36051" lon="1.05143">
        <ele>108</ele>
        <time>2019-12-30T12:56:03.000Z</time>
      </trkpt>
      <trkpt lat="49.36049" lon="1.05149">
        <ele>109</ele>
        <time>2019-12-30T12:56:04.000Z</time>
      </trkpt>
      <trkpt lat="49.36047" lon="1.05156">
        <ele>109</ele>
        <time>2019-12-30T12:56:05.000Z</time>
      </trkpt>
      <trkpt lat="49.36045" lon="1.05162">
        <ele>109</ele>
        <time>2019-12-30T12:56:06.000Z</time>
      </trkpt>
      <trkpt lat="49.36043" lon="1.05169">
        <ele>109</ele>
        <time>2019-12-30T12:56:07.000Z</time>
      </trkpt>
      <trkpt lat="49.36042" lon="1.05175">
        <ele>109</ele>
        <time>2019-12-30T12:56:08.000Z</time>
      </trkpt>
      <trkpt lat="49.3604" lon="1.05182">
        <ele>109</ele>
        <time>2019-12-30T12:56:09.000Z</time>
      </trkpt>
      <trkpt lat="49.36038" lon="1.05188">
        <ele>109</ele>
        <time>2019-12-30T12:56:10.000Z</time>
      </trkpt>
      <trkpt lat="49.36037" lon="1.05195">
        <ele>109</ele>
        <time>2019-12-30T12:56:11.000Z</time>
      </trkpt>
      <trkpt lat="49.36035" lon="1.05201">
        <ele>109</ele>
        <time>2019-12-30T12:56:12.000Z</time>
      </trkpt>
      <trkpt lat="49.36034" lon="1.05207">
        <ele>109</ele>
        <time>2019-12-30T12:56:13.000Z</time>
      </trkpt>
      <trkpt lat="49.36032" lon="1.05213">
        <ele>109</ele>
        <time>2019-12-30T12:56:14.000Z</time>
      </trkpt>
      <trkpt lat="49.36031" lon="1.05219">
        <ele>109</ele>
        <time>2019-12-30T12:56:15.000Z</time>
      </trkpt>
      <trkpt lat="49.36031" lon="1.05225">
        <ele>109</ele>
        <time>2019-12-30T12:56:16.000Z</time>
      </trkpt>
      <trkpt lat="49.36032" lon="1.0523">
        <ele>109</ele>
        <time>2019-12-30T12:56:17.000Z</time>
      </trkpt>
      <trkpt lat="49.36034" lon="1.05233">
        <ele>109</ele>
        <time>2019-12-30T12:56:18.000Z</time>
      </trkpt>
      <trkpt lat="49.36037" lon="1.05236">
        <ele>109</ele>
        <time>2019-12-30T12:56:19.000Z</time>
      </trkpt>
      <trkpt lat="49.36041" lon="1.05239">
        <ele>109</ele>
        <time>2019-12-30T12:56:20.000Z</time>
      </trkpt>
      <trkpt lat="49.36045" lon="1.05242">
        <ele>108</ele>
        <time>2019-12-30T12:56:21.000Z</time>
      </trkpt>
      <trkpt lat="49.3605" lon="1.05246">
        <ele>108</ele>
        <time>2019-12-30T12:56:22.000Z</time>
      </trkpt>
      <trkpt lat="49.36054" lon="1.0525">
        <ele>108</ele>
        <time>2019-12-30T12:56:23.000Z</time>
      </trkpt>
      <trkpt lat="49.36056" lon="1.05255">
        <ele>108</ele>
        <time>2019-12-30T12:56:24.000Z</time>
      </trkpt>
      <trkpt lat="49.36058" lon="1.05262">
        <ele>108</ele>
        <time>2019-12-30T12:56:25.000Z</time>
      </trkpt>
      <trkpt lat="49.36058" lon="1.05268">
        <ele>107</ele>
        <time>2019-12-30T12:56:26.000Z</time>
      </trkpt>
      <trkpt lat="49.36058" lon="1.05275">
        <ele>107</ele>
        <time>2019-12-30T12:56:27.000Z</time>
      </trkpt>
      <trkpt lat="49.36057" lon="1.05282">
        <ele>107</ele>
        <time>2019-12-30T12:56:28.000Z</time>
      </trkpt>
      <trkpt lat="49.36056" lon="1.05289">
        <ele>107</ele>
        <time>2019-12-30T12:56:29.000Z</time>
      </trkpt>
      <trkpt lat="49.36056" lon="1.05295">
        <ele>107</ele>
        <time>2019-12-30T12:56:30.000Z</time>
      </trkpt>
      <trkpt lat="49.36056" lon="1.05302">
        <ele>107</ele>
        <time>2019-12-30T12:56:31.000Z</time>
      </trkpt>
      <trkpt lat="49.36057" lon="1.05309">
        <ele>106</ele>
        <time>2019-12-30T12:56:32.000Z</time>
      </trkpt>
      <trkpt lat="49.36058" lon="1.05316">
        <ele>106</ele>
        <time>2019-12-30T12:56:33.000Z</time>
      </trkpt>
      <trkpt lat="49.36057" lon="1.05322">
        <ele>106</ele>
        <time>2019-12-30T12:56:34.000Z</time>
      </trkpt>
      <trkpt lat="49.36055" lon="1.05327">
        <ele>106</ele>
        <time>2019-12-30T12:56:35.000Z</time>
      </trkpt>
      <trkpt lat="49.36054" lon="1.05333">
        <ele>105</ele>
        <time>2019-12-30T12:56:36.000Z</time>
      </trkpt>
      <trkpt lat="49.36052" lon="1.05339">
        <ele>105</ele>
        <time>2019-12-30T12:56:37.000Z</time>
      </trkpt>
      <trkpt lat="49.3605" lon="1.05346">
        <ele>105</ele>
        <time>2019-12-30T12:56:38.000Z</time>
      </trkpt>
      <trkpt lat="49.36049" lon="1.05354">
        <ele>105</ele>
        <time>2019-12-30T12:56:39.000Z</time>
      </trkpt>
      <trkpt lat="49.36047" lon="1.05361">
        <ele>104</ele>
        <time>2019-12-30T12:56:40.000Z</time>
      </trkpt>
      <trkpt lat="49.36045" lon="1.05368">
        <ele>104</ele>
        <time>2019-12-30T12:56:41.000Z</time>
      </trkpt>
      <trkpt lat="49.36043" lon="1.05375">
        <ele>104</ele>
        <time>2019-12-30T12:56:42.000Z</time>
      </trkpt>
      <trkpt lat="49.36041" lon="1.05381">
        <ele>104</ele>
        <time>2019-12-30T12:56:43.000Z</time>
      </trkpt>
      <trkpt lat="49.36039" lon="1.05388">
        <ele>104</ele>
        <time>2019-12-30T12:56:44.000Z</time>
      </trkpt>
      <trkpt lat="49.36037" lon="1.05394">
        <ele>103</ele>
        <time>2019-12-30T12:56:45.000Z</time>
      </trkpt>
      <trkpt lat="49.36035" lon="1.054">
        <ele>103</ele>
        <time>2019-12-30T12:56:46.000Z</time>
      </trkpt>
      <trkpt lat="49.36034" lon="1.05406">
        <ele>103</ele>
        <time>2019-12-30T12:56:47.000Z</time>
      </trkpt>
      <trkpt lat="49.36032" lon="1.05413">
        <ele>103</ele>
        <time>2019-12-30T12:56:48.000Z</time>
      </trkpt>
      <trkpt lat="49.3603" lon="1.05419">
        <ele>102</ele>
        <time>2019-12-30T12:56:49.000Z</time>
      </trkpt>
      <trkpt lat="49.36028" lon="1.05426">
        <ele>102</ele>
        <time>2019-12-30T12:56:50.000Z</time>
      </trkpt>
      <trkpt lat="49.36026" lon="1.05432">
        <ele>102</ele>
        <time>2019-12-30T12:56:51.000Z</time>
      </trkpt>
      <trkpt lat="49.36025" lon="1.05438">
        <ele>101</ele>
        <time>2019-12-30T12:56:52.000Z</time>
      </trkpt>
      <trkpt lat="49.36023" lon="1.05445">
        <ele>101</ele>
        <time>2019-12-30T12:56:53.000Z</time>
      </trkpt>
      <trkpt lat="49.36021" lon="1.05451">
        <ele>101</ele>
        <time>2019-12-30T12:56:54.000Z</time>
      </trkpt>
      <trkpt lat="49.36019" lon="1.05456">
        <ele>100</ele>
        <time>2019-12-30T12:56:55.000Z</time>
      </trkpt>
      <trkpt lat="49.36017" lon="1.05463">
        <ele>100</ele>
        <time>2019-12-30T12:56:56.000Z</time>
      </trkpt>
      <trkpt lat="49.36015" lon="1.05468">
        <ele>100</ele>
        <time>2019-12-30T12:56:57.000Z</time>
      </trkpt>
      <trkpt lat="49.36012" lon="1.05474">
        <ele>99</ele>
        <time>2019-12-30T12:56:58.000Z</time>
      </trkpt>
      <trkpt lat="49.36009" lon="1.05477">
        <ele>99</ele>
        <time>2019-12-30T12:56:59.000Z</time>
      </trkpt>
      <trkpt lat="49.36005" lon="1.05478">
        <ele>99</ele>
        <time>2019-12-30T12:57:00.000Z</time>
      </trkpt>
      <trkpt lat="49.36001" lon="1.05478">
        <ele>98</ele>
        <time>2019-12-30T12:57:01.000Z</time>
      </trkpt>
      <trkpt lat="49.35996" lon="1.05476">
        <ele>98</ele>
        <time>2019-12-30T12:57:02.000Z</time>
      </trkpt>
      <trkpt lat="49.35993" lon="1.05475">
        <ele>98</ele>
        <time>2019-12-30T12:57:03.000Z</time>
      </trkpt>
      <trkpt lat="49.35989" lon="1.05473">
        <ele>98</ele>
        <time>2019-12-30T12:57:04.000Z</time>
      </trkpt>
      <trkpt lat="49.35985" lon="1.05471">
        <ele>97</ele>
        <time>2019-12-30T12:57:05.000Z</time>
      </trkpt>
      <trkpt lat="49.35981" lon="1.05469">
        <ele>97</ele>
        <time>2019-12-30T12:57:06.000Z</time>
      </trkpt>
      <trkpt lat="49.35977" lon="1.05468">
        <ele>97</ele>
        <time>2019-12-30T12:57:07.000Z</time>
      </trkpt>
      <trkpt lat="49.35973" lon="1.05467">
        <ele>97</ele>
        <time>2019-12-30T12:57:08.000Z</time>
      </trkpt>
      <trkpt lat="49.35969" lon="1.05465">
        <ele>97</ele>
        <time>2019-12-30T12:57:09.000Z</time>
      </trkpt>
      <trkpt lat="49.35966" lon="1.05462">
        <ele>97</ele>
        <time>2019-12-30T12:57:10.000Z</time>
      </trkpt>
      <trkpt lat="49.35963" lon="1.05457">
        <ele>96</ele>
        <time>2019-12-30T12:57:11.000Z</time>
      </trkpt>
      <trkpt lat="49.35961" lon="1.05453">
        <ele>96</ele>
        <time>2019-12-30T12:57:12.000Z</time>
      </trkpt>
      <trkpt lat="49.35959" lon="1.05448">
        <ele>96</ele>
        <time>2019-12-30T12:57:13.000Z</time>
      </trkpt>
      <trkpt lat="49.35958" lon="1.05444">
        <ele>96</ele>
        <time>2019-12-30T12:57:14.000Z</time>
      </trkpt>
      <trkpt lat="49.35957" lon="1.05439">
        <ele>97</ele>
        <time>2019-12-30T12:57:15.000Z</time>
      </trkpt>
      <trkpt lat="49.35955" lon="1.05434">
        <ele>97</ele>
        <time>2019-12-30T12:57:16.000Z</time>
      </trkpt>
      <trkpt lat="49.35953" lon="1.05429">
        <ele>97</ele>
        <time>2019-12-30T12:57:17.000Z</time>
      </trkpt>
      <trkpt lat="49.3595" lon="1.05425">
        <ele>97</ele>
        <time>2019-12-30T12:57:18.000Z</time>
      </trkpt>
      <trkpt lat="49.35947" lon="1.0542">
        <ele>97</ele>
        <time>2019-12-30T12:57:19.000Z</time>
      </trkpt>
      <trkpt lat="49.35945" lon="1.05417">
        <ele>97</ele>
        <time>2019-12-30T12:57:20.000Z</time>
      </trkpt>
      <trkpt lat="49.35942" lon="1.05415">
        <ele>97</ele>
        <time>2019-12-30T12:57:21.000Z</time>
      </trkpt>
      <trkpt lat="49.35939" lon="1.05415">
        <ele>97</ele>
        <time>2019-12-30T12:57:22.000Z</time>
      </trkpt>
      <trkpt lat="49.35936" lon="1.05415">
        <ele>97</ele>
        <time>2019-12-30T12:57:23.000Z</time>
      </trkpt>
      <trkpt lat="49.35933" lon="1.05417">
        <ele>97</ele>
        <time>2019-12-30T12:57:24.000Z</time>
      </trkpt>
      <trkpt lat="49.35931" lon="1.05421">
        <ele>97</ele>
        <time>2019-12-30T12:57:25.000Z</time>
      </trkpt>
      <trkpt lat="49.3593" lon="1.05426">
        <ele>97</ele>
        <time>2019-12-30T12:57:26.000Z</time>
      </trkpt>
      <trkpt lat="49.3593" lon="1.05432">
        <ele>97</ele>
        <time>2019-12-30T12:57:27.000Z</time>
      </trkpt>
      <trkpt lat="49.3593" lon="1.05438">
        <ele>97</ele>
        <time>2019-12-30T12:57:28.000Z</time>
      </trkpt>
      <trkpt lat="49.3593" lon="1.05444">
        <ele>97</ele>
        <time>2019-12-30T12:57:29.000Z</time>
      </trkpt>
      <trkpt lat="49.3593" lon="1.05449">
        <ele>97</ele>
        <time>2019-12-30T12:57:30.000Z</time>
      </trkpt>
      <trkpt lat="49.35929" lon="1.05455">
        <ele>98</ele>
        <time>2019-12-30T12:57:31.000Z</time>
      </trkpt>
      <trkpt lat="49.35928" lon="1.05461">
        <ele>98</ele>
        <time>2019-12-30T12:57:32.000Z</time>
      </trkpt>
      <trkpt lat="49.35927" lon="1.05467">
        <ele>98</ele>
        <time>2019-12-30T12:57:33.000Z</time>
      </trkpt>
      <trkpt lat="49.35925" lon="1.05472">
        <ele>98</ele>
        <time>2019-12-30T12:57:34.000Z</time>
      </trkpt>
      <trkpt lat="49.35922" lon="1.05477">
        <ele>98</ele>
        <time>2019-12-30T12:57:35.000Z</time>
      </trkpt>
      <trkpt lat="49.35918" lon="1.05479">
        <ele>98</ele>
        <time>2019-12-30T12:57:36.000Z</time>
      </trkpt>
      <trkpt lat="49.35914" lon="1.05481">
        <ele>99</ele>
        <time>2019-12-30T12:57:37.000Z</time>
      </trkpt>
      <trkpt lat="49.35911" lon="1.05482">
        <ele>99</ele>
        <time>2019-12-30T12:57:38.000Z</time>
      </trkpt>
      <trkpt lat="49.35907" lon="1.05483">
        <ele>99</ele>
        <time>2019-12-30T12:57:39.000Z</time>
      </trkpt>
      <trkpt lat="49.35904" lon="1.05486">
        <ele>99</ele>
        <time>2019-12-30T12:57:40.000Z</time>
      </trkpt>
      <trkpt lat="49.35901" lon="1.0549">
        <ele>99</ele>
        <time>2019-12-30T12:57:41.000Z</time>
      </trkpt>
      <trkpt lat="49.35899" lon="1.05494">
        <ele>99</ele>
        <time>2019-12-30T12:57:42.000Z</time>
      </trkpt>
      <trkpt lat="49.35897" lon="1.05498">
        <ele>99</ele>
        <time>2019-12-30T12:57:43.000Z</time>
      </trkpt>
      <trkpt lat="49.35896" lon="1.05503">
        <ele>99</ele>
        <time>2019-12-30T12:57:44.000Z</time>
      </trkpt>
      <trkpt lat="49.35895" lon="1.05508">
        <ele>99</ele>
        <time>2019-12-30T12:57:45.000Z</time>
      </trkpt>
      <trkpt lat="49.35895" lon="1.05512">
        <ele>99</ele>
        <time>2019-12-30T12:57:46.000Z</time>
      </trkpt>
      <trkpt lat="49.35896" lon="1.05517">
        <ele>99</ele>
        <time>2019-12-30T12:57:47.000Z</time>
      </trkpt>
      <trkpt lat="49.35896" lon="1.05524">
        <ele>99</ele>
        <time>2019-12-30T12:57:48.000Z</time>
      </trkpt>
      <trkpt lat="49.35896" lon="1.05529">
        <ele>99</ele>
        <time>2019-12-30T12:57:49.000Z</time>
      </trkpt>
      <trkpt lat="49.35895" lon="1.05533">
        <ele>99</ele>
        <time>2019-12-30T12:57:50.000Z</time>
      </trkpt>
      <trkpt lat="49.35894" lon="1.05538">
        <ele>99</ele>
        <time>2019-12-30T12:57:51.000Z</time>
      </trkpt>
      <trkpt lat="49.35892" lon="1.05544">
        <ele>99</ele>
        <time>2019-12-30T12:57:52.000Z</time>
      </trkpt>
      <trkpt lat="49.35891" lon="1.05549">
        <ele>99</ele>
        <time>2019-12-30T12:57:53.000Z</time>
      </trkpt>
      <trkpt lat="49.35889" lon="1.05555">
        <ele>99</ele>
        <time>2019-12-30T12:57:54.000Z</time>
      </trkpt>
      <trkpt lat="49.35886" lon="1.05559">
        <ele>100</ele>
        <time>2019-12-30T12:57:55.000Z</time>
      </trkpt>
      <trkpt lat="49.35884" lon="1.05564">
        <ele>100</ele>
        <time>2019-12-30T12:57:56.000Z</time>
      </trkpt>
      <trkpt lat="49.35882" lon="1.05569">
        <ele>100</ele>
        <time>2019-12-30T12:57:57.000Z</time>
      </trkpt>
      <trkpt lat="49.35879" lon="1.05574">
        <ele>100</ele>
        <time>2019-12-30T12:57:58.000Z</time>
      </trkpt>
      <trkpt lat="49.35877" lon="1.05578">
        <ele>100</ele>
        <time>2019-12-30T12:57:59.000Z</time>
      </trkpt>
      <trkpt lat="49.35875" lon="1.05583">
        <ele>100</ele>
        <time>2019-12-30T12:58:00.000Z</time>
      </trkpt>
      <trkpt lat="49.35873" lon="1.05588">
        <ele>100</ele>
        <time>2019-12-30T12:58:01.000Z</time>
      </trkpt>
      <trkpt lat="49.35871" lon="1.0559">
        <ele>100</ele>
        <time>2019-12-30T12:58:02.000Z</time>
      </trkpt>
      <trkpt lat="49.35869" lon="1.05591">
        <ele>100</ele>
        <time>2019-12-30T12:58:03.000Z</time>
      </trkpt>
      <trkpt lat="49.35867" lon="1.05592">
        <ele>100</ele>
        <time>2019-12-30T12:58:04.000Z</time>
      </trkpt>
      <trkpt lat="49.35866" lon="1.05594">
        <ele>100</ele>
        <time>2019-12-30T12:58:05.000Z</time>
      </trkpt>
      <trkpt lat="49.35865" lon="1.05597">
        <ele>100</ele>
        <time>2019-12-30T12:58:06.000Z</time>
      </trkpt>
      <trkpt lat="49.35866" lon="1.05601">
        <ele>100</ele>
        <time>2019-12-30T12:58:07.000Z</time>
      </trkpt>
      <trkpt lat="49.35867" lon="1.05606">
        <ele>100</ele>
        <time>2019-12-30T12:58:08.000Z</time>
      </trkpt>
      <trkpt lat="49.35867" lon="1.05611">
        <ele>100</ele>
        <time>2019-12-30T12:58:09.000Z</time>
      </trkpt>
      <trkpt lat="49.35866" lon="1.05615">
        <ele>100</ele>
        <time>2019-12-30T12:58:10.000Z</time>
      </trkpt>
      <trkpt lat="49.35863" lon="1.05619">
        <ele>100</ele>
        <time>2019-12-30T12:58:11.000Z</time>
      </trkpt>
      <trkpt lat="49.3586" lon="1.05623">
        <ele>100</ele>
        <time>2019-12-30T12:58:12.000Z</time>
      </trkpt>
      <trkpt lat="49.35858" lon="1.05627">
        <ele>100</ele>
        <time>2019-12-30T12:58:13.000Z</time>
      </trkpt>
      <trkpt lat="49.35855" lon="1.05633">
        <ele>100</ele>
        <time>2019-12-30T12:58:14.000Z</time>
      </trkpt>
      <trkpt lat="49.35852" lon="1.05637">
        <ele>100</ele>
        <time>2019-12-30T12:58:15.000Z</time>
      </trkpt>
      <trkpt lat="49.35849" lon="1.05641">
        <ele>100</ele>
        <time>2019-12-30T12:58:16.000Z</time>
      </trkpt>
      <trkpt lat="49.35848" lon="1.05646">
        <ele>100</ele>
        <time>2019-12-30T12:58:17.000Z</time>
      </trkpt>
      <trkpt lat="49.35847" lon="1.05652">
        <ele>100</ele>
        <time>2019-12-30T12:58:18.000Z</time>
      </trkpt>
      <trkpt lat="49.35846" lon="1.05658">
        <ele>100</ele>
        <time>2019-12-30T12:58:19.000Z</time>
      </trkpt>
      <trkpt lat="49.35846" lon="1.05664">
        <ele>100</ele>
        <time>2019-12-30T12:58:20.000Z</time>
      </trkpt>
      <trkpt lat="49.35845" lon="1.0567">
        <ele>100</ele>
        <time>2019-12-30T12:58:21.000Z</time>
      </trkpt>
      <trkpt lat="49.35843" lon="1.05676">
        <ele>100</ele>
        <time>2019-12-30T12:58:22.000Z</time>
      </trkpt>
      <trkpt lat="49.35842" lon="1.05681">
        <ele>100</ele>
        <time>2019-12-30T12:58:23.000Z</time>
      </trkpt>
      <trkpt lat="49.35842" lon="1.05687">
        <ele>100</ele>
        <time>2019-12-30T12:58:24.000Z</time>
      </trkpt>
      <trkpt lat="49.35843" lon="1.05691">
        <ele>100</ele>
        <time>2019-12-30T12:58:25.000Z</time>
      </trkpt>
      <trkpt lat="49.35844" lon="1.05697">
        <ele>100</ele>
        <time>2019-12-30T12:58:26.000Z</time>
      </trkpt>
      <trkpt lat="49.35845" lon="1.05702">
        <ele>100</ele>
        <time>2019-12-30T12:58:27.000Z</time>
      </trkpt>
      <trkpt lat="49.35843" lon="1.05707">
        <ele>100</ele>
        <time>2019-12-30T12:58:28.000Z</time>
      </trkpt>
      <trkpt lat="49.35842" lon="1.05711">
        <ele>101</ele>
        <time>2019-12-30T12:58:29.000Z</time>
      </trkpt>
      <trkpt lat="49.35842" lon="1.05717">
        <ele>101</ele>
        <time>2019-12-30T12:58:30.000Z</time>
      </trkpt>
      <trkpt lat="49.35843" lon="1.05722">
        <ele>101</ele>
        <time>2019-12-30T12:58:31.000Z</time>
      </trkpt>
      <trkpt lat="49.35844" lon="1.05727">
        <ele>101</ele>
        <time>2019-12-30T12:58:32.000Z</time>
      </trkpt>
      <trkpt lat="49.35845" lon="1.05733">
        <ele>101</ele>
        <time>2019-12-30T12:58:33.000Z</time>
      </trkpt>
      <trkpt lat="49.35846" lon="1.05739">
        <ele>102</ele>
        <time>2019-12-30T12:58:34.000Z</time>
      </trkpt>
      <trkpt lat="49.35845" lon="1.05744">
        <ele>102</ele>
        <time>2019-12-30T12:58:35.000Z</time>
      </trkpt>
      <trkpt lat="49.35843" lon="1.05747">
        <ele>102</ele>
        <time>2019-12-30T12:58:36.000Z</time>
      </trkpt>
      <trkpt lat="49.3584" lon="1.05748">
        <ele>102</ele>
        <time>2019-12-30T12:58:37.000Z</time>
      </trkpt>
      <trkpt lat="49.35837" lon="1.05749">
        <ele>102</ele>
        <time>2019-12-30T12:58:38.000Z</time>
      </trkpt>
      <trkpt lat="49.35835" lon="1.05752">
        <ele>102</ele>
        <time>2019-12-30T12:58:39.000Z</time>
      </trkpt>
      <trkpt lat="49.35836" lon="1.05754">
        <ele>102</ele>
        <time>2019-12-30T12:58:40.000Z</time>
      </trkpt>
      <trkpt lat="49.35836" lon="1.05758">
        <ele>102</ele>
        <time>2019-12-30T12:58:41.000Z</time>
      </trkpt>
      <trkpt lat="49.35835" lon="1.05762">
        <ele>102</ele>
        <time>2019-12-30T12:58:42.000Z</time>
      </trkpt>
      <trkpt lat="49.35833" lon="1.05767">
        <ele>102</ele>
        <time>2019-12-30T12:58:43.000Z</time>
      </trkpt>
      <trkpt lat="49.35831" lon="1.05772">
        <ele>102</ele>
        <time>2019-12-30T12:58:44.000Z</time>
      </trkpt>
      <trkpt lat="49.3583" lon="1.05777">
        <ele>102</ele>
        <time>2019-12-30T12:58:45.000Z</time>
      </trkpt>
      <trkpt lat="49.35829" lon="1.05783">
        <ele>103</ele>
        <time>2019-12-30T12:58:46.000Z</time>
      </trkpt>
      <trkpt lat="49.35827" lon="1.05789">
        <ele>103</ele>
        <time>2019-12-30T12:58:47.000Z</time>
      </trkpt>
      <trkpt lat="49.35824" lon="1.05794">
        <ele>103</ele>
        <time>2019-12-30T12:58:48.000Z</time>
      </trkpt>
      <trkpt lat="49.35821" lon="1.05798">
        <ele>103</ele>
        <time>2019-12-30T12:58:49.000Z</time>
      </trkpt>
      <trkpt lat="49.35819" lon="1.05803">
        <ele>103</ele>
        <time>2019-12-30T12:58:50.000Z</time>
      </trkpt>
      <trkpt lat="49.35818" lon="1.05809">
        <ele>104</ele>
        <time>2019-12-30T12:58:51.000Z</time>
      </trkpt>
      <trkpt lat="49.35817" lon="1.05815">
        <ele>104</ele>
        <time>2019-12-30T12:58:52.000Z</time>
      </trkpt>
      <trkpt lat="49.35817" lon="1.05821">
        <ele>104</ele>
        <time>2019-12-30T12:58:53.000Z</time>
      </trkpt>
      <trkpt lat="49.35817" lon="1.05826">
        <ele>104</ele>
        <time>2019-12-30T12:58:54.000Z</time>
      </trkpt>
      <trkpt lat="49.35817" lon="1.05833">
        <ele>104</ele>
        <time>2019-12-30T12:58:55.000Z</time>
      </trkpt>
      <trkpt lat="49.35816" lon="1.05838">
        <ele>104</ele>
        <time>2019-12-30T12:58:56.000Z</time>
      </trkpt>
      <trkpt lat="49.35813" lon="1.05843">
        <ele>104</ele>
        <time>2019-12-30T12:58:57.000Z</time>
      </trkpt>
      <trkpt lat="49.3581" lon="1.05846">
        <ele>104</ele>
        <time>2019-12-30T12:58:58.000Z</time>
      </trkpt>
      <trkpt lat="49.35807" lon="1.05848">
        <ele>104</ele>
        <time>2019-12-30T12:58:59.000Z</time>
      </trkpt>
      <trkpt lat="49.35804" lon="1.05847">
        <ele>104</ele>
        <time>2019-12-30T12:59:00.000Z</time>
      </trkpt>
      <trkpt lat="49.35802" lon="1.05848">
        <ele>104</ele>
        <time>2019-12-30T12:59:01.000Z</time>
      </trkpt>
      <trkpt lat="49.35801" lon="1.05851">
        <ele>104</ele>
        <time>2019-12-30T12:59:02.000Z</time>
      </trkpt>
      <trkpt lat="49.35801" lon="1.05855">
        <ele>104</ele>
        <time>2019-12-30T12:59:03.000Z</time>
      </trkpt>
      <trkpt lat="49.35802" lon="1.05857">
        <ele>103</ele>
        <time>2019-12-30T12:59:04.000Z</time>
      </trkpt>
      <trkpt lat="49.35804" lon="1.05857">
        <ele>103</ele>
        <time>2019-12-30T12:59:05.000Z</time>
      </trkpt>
      <trkpt lat="49.35806" lon="1.05858">
        <ele>103</ele>
        <time>2019-12-30T12:59:06.000Z</time>
      </trkpt>
      <trkpt lat="49.35809" lon="1.05862">
        <ele>103</ele>
        <time>2019-12-30T12:59:07.000Z</time>
      </trkpt>
      <trkpt lat="49.35809" lon="1.05866">
        <ele>103</ele>
        <time>2019-12-30T12:59:08.000Z</time>
      </trkpt>
      <trkpt lat="49.35808" lon="1.0587">
        <ele>103</ele>
        <time>2019-12-30T12:59:09.000Z</time>
      </trkpt>
      <trkpt lat="49.35805" lon="1.05873">
        <ele>103</ele>
        <time>2019-12-30T12:59:10.000Z</time>
      </trkpt>
      <trkpt lat="49.35802" lon="1.05875">
        <ele>103</ele>
        <time>2019-12-30T12:59:11.000Z</time>
      </trkpt>
      <trkpt lat="49.35799" lon="1.05874">
        <ele>103</ele>
        <time>2019-12-30T12:59:12.000Z</time>
      </trkpt>
      <trkpt lat="49.35796" lon="1.05873">
        <ele>103</ele>
        <time>2019-12-30T12:59:13.000Z</time>
      </trkpt>
      <trkpt lat="49.35794" lon="1.05873">
        <ele>103</ele>
        <time>2019-12-30T12:59:14.000Z</time>
      </trkpt>
      <trkpt lat="49.35793" lon="1.05875">
        <ele>103</ele>
        <time>2019-12-30T12:59:15.000Z</time>
      </trkpt>
      <trkpt lat="49.35792" lon="1.05878">
        <ele>103</ele>
        <time>2019-12-30T12:59:16.000Z</time>
      </trkpt>
      <trkpt lat="49.3579" lon="1.05883">
        <ele>102</ele>
        <time>2019-12-30T12:59:17.000Z</time>
      </trkpt>
      <trkpt lat="49.35789" lon="1.05887">
        <ele>102</ele>
        <time>2019-12-30T12:59:18.000Z</time>
      </trkpt>
      <trkpt lat="49.35789" lon="1.05893">
        <ele>102</ele>
        <time>2019-12-30T12:59:19.000Z</time>
      </trkpt>
      <trkpt lat="49.35788" lon="1.05898">
        <ele>102</ele>
        <time>2019-12-30T12:59:20.000Z</time>
      </trkpt>
      <trkpt lat="49.35787" lon="1.05903">
        <ele>102</ele>
        <time>2019-12-30T12:59:21.000Z</time>
      </trkpt>
      <trkpt lat="49.35787" lon="1.05908">
        <ele>102</ele>
        <time>2019-12-30T12:59:22.000Z</time>
      </trkpt>
      <trkpt lat="49.35786" lon="1.05913">
        <ele>102</ele>
        <time>2019-12-30T12:59:23.000Z</time>
      </trkpt>
      <trkpt lat="49.35787" lon="1.05917">
        <ele>103</ele>
        <time>2019-12-30T12:59:24.000Z</time>
      </trkpt>
      <trkpt lat="49.35787" lon="1.05922">
        <ele>103</ele>
        <time>2019-12-30T12:59:25.000Z</time>
      </trkpt>
      <trkpt lat="49.35787" lon="1.05925">
        <ele>103</ele>
        <time>2019-12-30T12:59:26.000Z</time>
      </trkpt>
      <trkpt lat="49.35786" lon="1.05926">
        <ele>103</ele>
        <time>2019-12-30T12:59:27.000Z</time>
      </trkpt>
      <trkpt lat="49.35784" lon="1.05925">
        <ele>103</ele>
        <time>2019-12-30T12:59:28.000Z</time>
      </trkpt>
      <trkpt lat="49.35783" lon="1.05924">
        <ele>103</ele>
        <time>2019-12-30T12:59:29.000Z</time>
      </trkpt>
      <trkpt lat="49.35781" lon="1.05926">
        <ele>103</ele>
        <time>2019-12-30T12:59:30.000Z</time>
      </trkpt>
      <trkpt lat="49.3578" lon="1.05929">
        <ele>103</ele>
        <time>2019-12-30T12:59:31.000Z</time>
      </trkpt>
      <trkpt lat="49.35779" lon="1.05932">
        <ele>103</ele>
        <time>2019-12-30T12:59:32.000Z</time>
      </trkpt>
      <trkpt lat="49.35778" lon="1.05936">
        <ele>103</ele>
        <time>2019-12-30T12:59:33.000Z</time>
      </trkpt>
      <trkpt lat="49.35778" lon="1.0594">
        <ele>102</ele>
        <time>2019-12-30T12:59:34.000Z</time>
      </trkpt>
      <trkpt lat="49.35777" lon="1.05944">
        <ele>102</ele>
        <time>2019-12-30T12:59:35.000Z</time>
      </trkpt>
      <trkpt lat="49.35774" lon="1.05946">
        <ele>102</ele>
        <time>2019-12-30T12:59:36.000Z</time>
      </trkpt>
      <trkpt lat="49.35771" lon="1.05948">
        <ele>102</ele>
        <time>2019-12-30T12:59:37.000Z</time>
      </trkpt>
      <trkpt lat="49.35768" lon="1.05948">
        <ele>102</ele>
        <time>2019-12-30T12:59:38.000Z</time>
      </trkpt>
      <trkpt lat="49.35765" lon="1.05948">
        <ele>102</ele>
        <time>2019-12-30T12:59:39.000Z</time>
      </trkpt>
      <trkpt lat="49.35764" lon="1.0595">
        <ele>101</ele>
        <time>2019-12-30T12:59:40.000Z</time>
      </trkpt>
      <trkpt lat="49.35762" lon="1.05951">
        <ele>101</ele>
        <time>2019-12-30T12:59:41.000Z</time>
      </trkpt>
      <trkpt lat="49.3576" lon="1.05955">
        <ele>101</ele>
        <time>2019-12-30T12:59:42.000Z</time>
      </trkpt>
      <trkpt lat="49.35759" lon="1.0596">
        <ele>101</ele>
        <time>2019-12-30T12:59:43.000Z</time>
      </trkpt>
      <trkpt lat="49.35757" lon="1.05965">
        <ele>100</ele>
        <time>2019-12-30T12:59:44.000Z</time>
      </trkpt>
      <trkpt lat="49.35755" lon="1.0597">
        <ele>100</ele>
        <time>2019-12-30T12:59:45.000Z</time>
      </trkpt>
      <trkpt lat="49.35753" lon="1.05975">
        <ele>100</ele>
        <time>2019-12-30T12:59:46.000Z</time>
      </trkpt>
      <trkpt lat="49.35752" lon="1.0598">
        <ele>100</ele>
        <time>2019-12-30T12:59:47.000Z</time>
      </trkpt>
      <trkpt lat="49.3575" lon="1.05984">
        <ele>100</ele>
        <time>2019-12-30T12:59:48.000Z</time>
      </trkpt>
      <trkpt lat="49.35747" lon="1.05987">
        <ele>100</ele>
        <time>2019-12-30T12:59:49.000Z</time>
      </trkpt>
      <trkpt lat="49.35744" lon="1.05991">
        <ele>100</ele>
        <time>2019-12-30T12:59:50.000Z</time>
      </trkpt>
      <trkpt lat="49.35741" lon="1.05995">
        <ele>99</ele>
        <time>2019-12-30T12:59:51.000Z</time>
      </trkpt>
      <trkpt lat="49.35739" lon="1.05999">
        <ele>99</ele>
        <time>2019-12-30T12:59:52.000Z</time>
      </trkpt>
      <trkpt lat="49.35737" lon="1.06003">
        <ele>99</ele>
        <time>2019-12-30T12:59:53.000Z</time>
      </trkpt>
      <trkpt lat="49.35734" lon="1.06008">
        <ele>99</ele>
        <time>2019-12-30T12:59:54.000Z</time>
      </trkpt>
      <trkpt lat="49.35731" lon="1.06012">
        <ele>99</ele>
        <time>2019-12-30T12:59:55.000Z</time>
      </trkpt>
      <trkpt lat="49.35728" lon="1.06016">
        <ele>99</ele>
        <time>2019-12-30T12:59:56.000Z</time>
      </trkpt>
      <trkpt lat="49.35726" lon="1.06018">
        <ele>99</ele>
        <time>2019-12-30T12:59:57.000Z</time>
      </trkpt>
      <trkpt lat="49.35723" lon="1.06021">
        <ele>99</ele>
        <time>2019-12-30T12:59:58.000Z</time>
      </trkpt>
      <trkpt lat="49.35721" lon="1.06025">
        <ele>98</ele>
        <time>2019-12-30T12:59:59.000Z</time>
      </trkpt>
      <trkpt lat="49.3572" lon="1.0603">
        <ele>98</ele>
        <time>2019-12-30T13:00:00.000Z</time>
      </trkpt>
      <trkpt lat="49.35718" lon="1.06036">
        <ele>98</ele>
        <time>2019-12-30T13:00:01.000Z</time>
      </trkpt>
      <trkpt lat="49.35715" lon="1.0604">
        <ele>98</ele>
        <time>2019-12-30T13:00:02.000Z</time>
      </trkpt>
      <trkpt lat="49.35713" lon="1.06045">
        <ele>99</ele>
        <time>2019-12-30T13:00:03.000Z</time>
      </trkpt>
      <trkpt lat="49.35711" lon="1.0605">
        <ele>99</ele>
        <time>2019-12-30T13:00:04.000Z</time>
      </trkpt>
      <trkpt lat="49.35708" lon="1.06055">
        <ele>99</ele>
        <time>2019-12-30T13:00:05.000Z</time>
      </trkpt>
      <trkpt lat="49.35706" lon="1.0606">
        <ele>99</ele>
        <time>2019-12-30T13:00:06.000Z</time>
      </trkpt>
      <trkpt lat="49.35704" lon="1.06064">
        <ele>98</ele>
        <time>2019-12-30T13:00:07.000Z</time>
      </trkpt>
      <trkpt lat="49.35703" lon="1.06069">
        <ele>98</ele>
        <time>2019-12-30T13:00:08.000Z</time>
      </trkpt>
      <trkpt lat="49.35702" lon="1.06075">
        <ele>99</ele>
        <time>2019-12-30T13:00:09.000Z</time>
      </trkpt>
      <trkpt lat="49.357" lon="1.0608">
        <ele>99</ele>
        <time>2019-12-30T13:00:10.000Z</time>
      </trkpt>
      <trkpt lat="49.35697" lon="1.06084">
        <ele>99</ele>
        <time>2019-12-30T13:00:11.000Z</time>
      </trkpt>
      <trkpt lat="49.35694" lon="1.06086">
        <ele>99</ele>
        <time>2019-12-30T13:00:12.000Z</time>
      </trkpt>
      <trkpt lat="49.35691" lon="1.06089">
        <ele>99</ele>
        <time>2019-12-30T13:00:13.000Z</time>
      </trkpt>
      <trkpt lat="49.35688" lon="1.06091">
        <ele>99</ele>
        <time>2019-12-30T13:00:14.000Z</time>
      </trkpt>
      <trkpt lat="49.35685" lon="1.06092">
        <ele>99</ele>
        <time>2019-12-30T13:00:15.000Z</time>
      </trkpt>
      <trkpt lat="49.35682" lon="1.06094">
        <ele>99</ele>
        <time>2019-12-30T13:00:16.000Z</time>
      </trkpt>
      <trkpt lat="49.35679" lon="1.06095">
        <ele>99</ele>
        <time>2019-12-30T13:00:17.000Z</time>
      </trkpt>
      <trkpt lat="49.35676" lon="1.06096">
        <ele>99</ele>
        <time>2019-12-30T13:00:18.000Z</time>
      </trkpt>
      <trkpt lat="49.35672" lon="1.06097">
        <ele>99</ele>
        <time>2019-12-30T13:00:19.000Z</time>
      </trkpt>
      <trkpt lat="49.35669" lon="1.06098">
        <ele>99</ele>
        <time>2019-12-30T13:00:20.000Z</time>
      </trkpt>
      <trkpt lat="49.35666" lon="1.061">
        <ele>99</ele>
        <time>2019-12-30T13:00:21.000Z</time>
      </trkpt>
      <trkpt lat="49.35663" lon="1.06102">
        <ele>99</ele>
        <time>2019-12-30T13:00:22.000Z</time>
      </trkpt>
      <trkpt lat="49.3566" lon="1.06103">
        <ele>99</ele>
        <time>2019-12-30T13:00:23.000Z</time>
      </trkpt>
      <trkpt lat="49.35656" lon="1.06103">
        <ele>100</ele>
        <time>2019-12-30T13:00:24.000Z</time>
      </trkpt>
      <trkpt lat="49.35653" lon="1.06104">
        <ele>100</ele>
        <time>2019-12-30T13:00:25.000Z</time>
      </trkpt>
      <trkpt lat="49.3565" lon="1.06106">
        <ele>100</ele>
        <time>2019-12-30T13:00:26.000Z</time>
      </trkpt>
      <trkpt lat="49.35646" lon="1.06107">
        <ele>100</ele>
        <time>2019-12-30T13:00:27.000Z</time>
      </trkpt>
      <trkpt lat="49.35643" lon="1.06109">
        <ele>100</ele>
        <time>2019-12-30T13:00:28.000Z</time>
      </trkpt>
      <trkpt lat="49.35641" lon="1.06111">
        <ele>101</ele>
        <time>2019-12-30T13:00:29.000Z</time>
      </trkpt>
      <trkpt lat="49.35638" lon="1.06114">
        <ele>101</ele>
        <time>2019-12-30T13:00:30.000Z</time>
      </trkpt>
      <trkpt lat="49.35636" lon="1.06117">
        <ele>101</ele>
        <time>2019-12-30T13:00:31.000Z</time>
      </trkpt>
      <trkpt lat="49.35633" lon="1.0612">
        <ele>101</ele>
        <time>2019-12-30T13:00:32.000Z</time>
      </trkpt>
      <trkpt lat="49.3563" lon="1.06123">
        <ele>102</ele>
        <time>2019-12-30T13:00:33.000Z</time>
      </trkpt>
      <trkpt lat="49.35627" lon="1.06124">
        <ele>102</ele>
        <time>2019-12-30T13:00:34.000Z</time>
      </trkpt>
      <trkpt lat="49.35623" lon="1.06124">
        <ele>102</ele>
        <time>2019-12-30T13:00:35.000Z</time>
      </trkpt>
      <trkpt lat="49.35621" lon="1.06125">
        <ele>102</ele>
        <time>2019-12-30T13:00:36.000Z</time>
      </trkpt>
      <trkpt lat="49.3562" lon="1.06128">
        <ele>102</ele>
        <time>2019-12-30T13:00:37.000Z</time>
      </trkpt>
      <trkpt lat="49.35618" lon="1.06133">
        <ele>102</ele>
        <time>2019-12-30T13:00:38.000Z</time>
      </trkpt>
      <trkpt lat="49.35617" lon="1.06137">
        <ele>102</ele>
        <time>2019-12-30T13:00:39.000Z</time>
      </trkpt>
      <trkpt lat="49.35616" lon="1.06141">
        <ele>102</ele>
        <time>2019-12-30T13:00:40.000Z</time>
      </trkpt>
      <trkpt lat="49.35616" lon="1.06145">
        <ele>102</ele>
        <time>2019-12-30T13:00:41.000Z</time>
      </trkpt>
      <trkpt lat="49.35617" lon="1.06149">
        <ele>102</ele>
        <time>2019-12-30T13:00:42.000Z</time>
      </trkpt>
      <trkpt lat="49.35616" lon="1.06154">
        <ele>102</ele>
        <time>2019-12-30T13:00:43.000Z</time>
      </trkpt>
      <trkpt lat="49.35615" lon="1.06156">
        <ele>102</ele>
        <time>2019-12-30T13:00:44.000Z</time>
      </trkpt>
      <trkpt lat="49.35612" lon="1.06158">
        <ele>102</ele>
        <time>2019-12-30T13:00:45.000Z</time>
      </trkpt>
      <trkpt lat="49.3561" lon="1.06161">
        <ele>102</ele>
        <time>2019-12-30T13:00:46.000Z</time>
      </trkpt>
      <trkpt lat="49.35609" lon="1.06164">
        <ele>102</ele>
        <time>2019-12-30T13:00:47.000Z</time>
      </trkpt>
      <trkpt lat="49.35606" lon="1.06168">
        <ele>102</ele>
        <time>2019-12-30T13:00:48.000Z</time>
      </trkpt>
      <trkpt lat="49.35604" lon="1.06171">
        <ele>102</ele>
        <time>2019-12-30T13:00:49.000Z</time>
      </trkpt>
      <trkpt lat="49.356" lon="1.06174">
        <ele>102</ele>
        <time>2019-12-30T13:00:50.000Z</time>
      </trkpt>
      <trkpt lat="49.35597" lon="1.06178">
        <ele>102</ele>
        <time>2019-12-30T13:00:51.000Z</time>
      </trkpt>
      <trkpt lat="49.35595" lon="1.06182">
        <ele>101</ele>
        <time>2019-12-30T13:00:52.000Z</time>
      </trkpt>
      <trkpt lat="49.35594" lon="1.06188">
        <ele>101</ele>
        <time>2019-12-30T13:00:53.000Z</time>
      </trkpt>
      <trkpt lat="49.35592" lon="1.06194">
        <ele>101</ele>
        <time>2019-12-30T13:00:54.000Z</time>
      </trkpt>
      <trkpt lat="49.3559" lon="1.06199">
        <ele>101</ele>
        <time>2019-12-30T13:00:55.000Z</time>
      </trkpt>
      <trkpt lat="49.35587" lon="1.06201">
        <ele>101</ele>
        <time>2019-12-30T13:00:56.000Z</time>
      </trkpt>
      <trkpt lat="49.35584" lon="1.06203">
        <ele>101</ele>
        <time>2019-12-30T13:00:57.000Z</time>
      </trkpt>
      <trkpt lat="49.35583" lon="1.06205">
        <ele>101</ele>
        <time>2019-12-30T13:00:58.000Z</time>
      </trkpt>
      <trkpt lat="49.35582" lon="1.06209">
        <ele>101</ele>
        <time>2019-12-30T13:00:59.000Z</time>
      </trkpt>
      <trkpt lat="49.35581" lon="1.06215">
        <ele>101</ele>
        <time>2019-12-30T13:01:00.000Z</time>
      </trkpt>
      <trkpt lat="49.35578" lon="1.06219">
        <ele>101</ele>
        <time>2019-12-30T13:01:01.000Z</time>
      </trkpt>
      <trkpt lat="49.35575" lon="1.06221">
        <ele>101</ele>
        <time>2019-12-30T13:01:02.000Z</time>
      </trkpt>
      <trkpt lat="49.35572" lon="1.06223">
        <ele>101</ele>
        <time>2019-12-30T13:01:03.000Z</time>
      </trkpt>
      <trkpt lat="49.35569" lon="1.06225">
        <ele>101</ele>
        <time>2019-12-30T13:01:04.000Z</time>
      </trkpt>
      <trkpt lat="49.35566" lon="1.06229">
        <ele>100</ele>
        <time>2019-12-30T13:01:05.000Z</time>
      </trkpt>
      <trkpt lat="49.35565" lon="1.06234">
        <ele>100</ele>
        <time>2019-12-30T13:01:06.000Z</time>
      </trkpt>
      <trkpt lat="49.35565" lon="1.06239">
        <ele>100</ele>
        <time>2019-12-30T13:01:07.000Z</time>
      </trkpt>
      <trkpt lat="49.35566" lon="1.06243">
        <ele>100</ele>
        <time>2019-12-30T13:01:08.000Z</time>
      </trkpt>
      <trkpt lat="49.35567" lon="1.06248">
        <ele>100</ele>
        <time>2019-12-30T13:01:09.000Z</time>
      </trkpt>
      <trkpt lat="49.35568" lon="1.06253">
        <ele>100</ele>
        <time>2019-12-30T13:01:10.000Z</time>
      </trkpt>
      <trkpt lat="49.35568" lon="1.06259">
        <ele>99</ele>
        <time>2019-12-30T13:01:11.000Z</time>
      </trkpt>
      <trkpt lat="49.35567" lon="1.06265">
        <ele>99</ele>
        <time>2019-12-30T13:01:12.000Z</time>
      </trkpt>
      <trkpt lat="49.35566" lon="1.06271">
        <ele>99</ele>
        <time>2019-12-30T13:01:13.000Z</time>
      </trkpt>
      <trkpt lat="49.35565" lon="1.06277">
        <ele>99</ele>
        <time>2019-12-30T13:01:14.000Z</time>
      </trkpt>
      <trkpt lat="49.35563" lon="1.06282">
        <ele>99</ele>
        <time>2019-12-30T13:01:15.000Z</time>
      </trkpt>
      <trkpt lat="49.35561" lon="1.06287">
        <ele>99</ele>
        <time>2019-12-30T13:01:16.000Z</time>
      </trkpt>
      <trkpt lat="49.35559" lon="1.06292">
        <ele>99</ele>
        <time>2019-12-30T13:01:17.000Z</time>
      </trkpt>
      <trkpt lat="49.35558" lon="1.06297">
        <ele>99</ele>
        <time>2019-12-30T13:01:18.000Z</time>
      </trkpt>
      <trkpt lat="49.35557" lon="1.06303">
        <ele>99</ele>
        <time>2019-12-30T13:01:19.000Z</time>
      </trkpt>
      <trkpt lat="49.35556" lon="1.06308">
        <ele>99</ele>
        <time>2019-12-30T13:01:20.000Z</time>
      </trkpt>
      <trkpt lat="49.35553" lon="1.06312">
        <ele>99</ele>
        <time>2019-12-30T13:01:21.000Z</time>
      </trkpt>
      <trkpt lat="49.35551" lon="1.06317">
        <ele>99</ele>
        <time>2019-12-30T13:01:22.000Z</time>
      </trkpt>
      <trkpt lat="49.3555" lon="1.06321">
        <ele>99</ele>
        <time>2019-12-30T13:01:23.000Z</time>
      </trkpt>
      <trkpt lat="49.3555" lon="1.06325">
        <ele>99</ele>
        <time>2019-12-30T13:01:24.000Z</time>
      </trkpt>
      <trkpt lat="49.3555" lon="1.0633">
        <ele>99</ele>
        <time>2019-12-30T13:01:25.000Z</time>
      </trkpt>
      <trkpt lat="49.35549" lon="1.06335">
        <ele>98</ele>
        <time>2019-12-30T13:01:26.000Z</time>
      </trkpt>
      <trkpt lat="49.35549" lon="1.06341">
        <ele>98</ele>
        <time>2019-12-30T13:01:27.000Z</time>
      </trkpt>
      <trkpt lat="49.3555" lon="1.06347">
        <ele>98</ele>
        <time>2019-12-30T13:01:28.000Z</time>
      </trkpt>
      <trkpt lat="49.3555" lon="1.06353">
        <ele>98</ele>
        <time>2019-12-30T13:01:29.000Z</time>
      </trkpt>
      <trkpt lat="49.35549" lon="1.06359">
        <ele>98</ele>
        <time>2019-12-30T13:01:30.000Z</time>
      </trkpt>
      <trkpt lat="49.35547" lon="1.06364">
        <ele>97</ele>
        <time>2019-12-30T13:01:31.000Z</time>
      </trkpt>
      <trkpt lat="49.35544" lon="1.06368">
        <ele>97</ele>
        <time>2019-12-30T13:01:32.000Z</time>
      </trkpt>
      <trkpt lat="49.35541" lon="1.06373">
        <ele>97</ele>
        <time>2019-12-30T13:01:33.000Z</time>
      </trkpt>
      <trkpt lat="49.3554" lon="1.06379">
        <ele>97</ele>
        <time>2019-12-30T13:01:34.000Z</time>
      </trkpt>
      <trkpt lat="49.35539" lon="1.06384">
        <ele>97</ele>
        <time>2019-12-30T13:01:35.000Z</time>
      </trkpt>
      <trkpt lat="49.35539" lon="1.0639">
        <ele>97</ele>
        <time>2019-12-30T13:01:36.000Z</time>
      </trkpt>
      <trkpt lat="49.35539" lon="1.06395">
        <ele>97</ele>
        <time>2019-12-30T13:01:37.000Z</time>
      </trkpt>
      <trkpt lat="49.35538" lon="1.06401">
        <ele>97</ele>
        <time>2019-12-30T13:01:38.000Z</time>
      </trkpt>
      <trkpt lat="49.35537" lon="1.06406">
        <ele>97</ele>
        <time>2019-12-30T13:01:39.000Z</time>
      </trkpt>
      <trkpt lat="49.35536" lon="1.06411">
        <ele>97</ele>
        <time>2019-12-30T13:01:40.000Z</time>
      </trkpt>
      <trkpt lat="49.35535" lon="1.06416">
        <ele>97</ele>
        <time>2019-12-30T13:01:41.000Z</time>
      </trkpt>
      <trkpt lat="49.35534" lon="1.06421">
        <ele>97</ele>
        <time>2019-12-30T13:01:42.000Z</time>
      </trkpt>
      <trkpt lat="49.35534" lon="1.06426">
        <ele>97</ele>
        <time>2019-12-30T13:01:43.000Z</time>
      </trkpt>
      <trkpt lat="49.35534" lon="1.06431">
        <ele>97</ele>
        <time>2019-12-30T13:01:44.000Z</time>
      </trkpt>
      <trkpt lat="49.35533" lon="1.06435">
        <ele>96</ele>
        <time>2019-12-30T13:01:45.000Z</time>
      </trkpt>
      <trkpt lat="49.35532" lon="1.0644">
        <ele>96</ele>
        <time>2019-12-30T13:01:46.000Z</time>
      </trkpt>
      <trkpt lat="49.35531" lon="1.06446">
        <ele>96</ele>
        <time>2019-12-30T13:01:47.000Z</time>
      </trkpt>
      <trkpt lat="49.3553" lon="1.06451">
        <ele>96</ele>
        <time>2019-12-30T13:01:48.000Z</time>
      </trkpt>
      <trkpt lat="49.35529" lon="1.06456">
        <ele>96</ele>
        <time>2019-12-30T13:01:49.000Z</time>
      </trkpt>
      <trkpt lat="49.35528" lon="1.06461">
        <ele>96</ele>
        <time>2019-12-30T13:01:50.000Z</time>
      </trkpt>
      <trkpt lat="49.35527" lon="1.06465">
        <ele>96</ele>
        <time>2019-12-30T13:01:51.000Z</time>
      </trkpt>
      <trkpt lat="49.35527" lon="1.0647">
        <ele>96</ele>
        <time>2019-12-30T13:01:52.000Z</time>
      </trkpt>
      <trkpt lat="49.35526" lon="1.06475">
        <ele>96</ele>
        <time>2019-12-30T13:01:53.000Z</time>
      </trkpt>
      <trkpt lat="49.35525" lon="1.0648">
        <ele>96</ele>
        <time>2019-12-30T13:01:54.000Z</time>
      </trkpt>
      <trkpt lat="49.35524" lon="1.06485">
        <ele>96</ele>
        <time>2019-12-30T13:01:55.000Z</time>
      </trkpt>
      <trkpt lat="49.35523" lon="1.06491">
        <ele>96</ele>
        <time>2019-12-30T13:01:56.000Z</time>
      </trkpt>
      <trkpt lat="49.35524" lon="1.06497">
        <ele>97</ele>
        <time>2019-12-30T13:01:57.000Z</time>
      </trkpt>
      <trkpt lat="49.35525" lon="1.06503">
        <ele>97</ele>
        <time>2019-12-30T13:01:58.000Z</time>
      </trkpt>
      <trkpt lat="49.35524" lon="1.06507">
        <ele>97</ele>
        <time>2019-12-30T13:01:59.000Z</time>
      </trkpt>
      <trkpt lat="49.35523" lon="1.06511">
        <ele>97</ele>
        <time>2019-12-30T13:02:00.000Z</time>
      </trkpt>
      <trkpt lat="49.35522" lon="1.06515">
        <ele>97</ele>
        <time>2019-12-30T13:02:01.000Z</time>
      </trkpt>
      <trkpt lat="49.35521" lon="1.0652">
        <ele>97</ele>
        <time>2019-12-30T13:02:02.000Z</time>
      </trkpt>
      <trkpt lat="49.35521" lon="1.06525">
        <ele>97</ele>
        <time>2019-12-30T13:02:03.000Z</time>
      </trkpt>
      <trkpt lat="49.35521" lon="1.06531">
        <ele>96</ele>
        <time>2019-12-30T13:02:04.000Z</time>
      </trkpt>
      <trkpt lat="49.35521" lon="1.06536">
        <ele>96</ele>
        <time>2019-12-30T13:02:05.000Z</time>
      </trkpt>
      <trkpt lat="49.35522" lon="1.06542">
        <ele>96</ele>
        <time>2019-12-30T13:02:06.000Z</time>
      </trkpt>
      <trkpt lat="49.35523" lon="1.06547">
        <ele>96</ele>
        <time>2019-12-30T13:02:07.000Z</time>
      </trkpt>
      <trkpt lat="49.35525" lon="1.06552">
        <ele>96</ele>
        <time>2019-12-30T13:02:08.000Z</time>
      </trkpt>
      <trkpt lat="49.35527" lon="1.06555">
        <ele>96</ele>
        <time>2019-12-30T13:02:09.000Z</time>
      </trkpt>
      <trkpt lat="49.35529" lon="1.06559">
        <ele>96</ele>
        <time>2019-12-30T13:02:10.000Z</time>
      </trkpt>
      <trkpt lat="49.35529" lon="1.06564">
        <ele>96</ele>
        <time>2019-12-30T13:02:11.000Z</time>
      </trkpt>
      <trkpt lat="49.35528" lon="1.06569">
        <ele>96</ele>
        <time>2019-12-30T13:02:12.000Z</time>
      </trkpt>
      <trkpt lat="49.35528" lon="1.06574">
        <ele>96</ele>
        <time>2019-12-30T13:02:13.000Z</time>
      </trkpt>
      <trkpt lat="49.35528" lon="1.06579">
        <ele>96</ele>
        <time>2019-12-30T13:02:14.000Z</time>
      </trkpt>
      <trkpt lat="49.35529" lon="1.06584">
        <ele>96</ele>
        <time>2019-12-30T13:02:15.000Z</time>
      </trkpt>
      <trkpt lat="49.3553" lon="1.06588">
        <ele>96</ele>
        <time>2019-12-30T13:02:16.000Z</time>
      </trkpt>
      <trkpt lat="49.3553" lon="1.06593">
        <ele>96</ele>
        <time>2019-12-30T13:02:17.000Z</time>
      </trkpt>
      <trkpt lat="49.3553" lon="1.06597">
        <ele>96</ele>
        <time>2019-12-30T13:02:18.000Z</time>
      </trkpt>
      <trkpt lat="49.35529" lon="1.06602">
        <ele>96</ele>
        <time>2019-12-30T13:02:19.000Z</time>
      </trkpt>
      <trkpt lat="49.35529" lon="1.06607">
        <ele>96</ele>
        <time>2019-12-30T13:02:20.000Z</time>
      </trkpt>
      <trkpt lat="49.3553" lon="1.06611">
        <ele>95</ele>
        <time>2019-12-30T13:02:21.000Z</time>
      </trkpt>
      <trkpt lat="49.35531" lon="1.06615">
        <ele>95</ele>
        <time>2019-12-30T13:02:22.000Z</time>
      </trkpt>
      <trkpt lat="49.35533" lon="1.06619">
        <ele>96</ele>
        <time>2019-12-30T13:02:23.000Z</time>
      </trkpt>
      <trkpt lat="49.35534" lon="1.06623">
        <ele>96</ele>
        <time>2019-12-30T13:02:24.000Z</time>
      </trkpt>
      <trkpt lat="49.35536" lon="1.06625">
        <ele>95</ele>
        <time>2019-12-30T13:02:25.000Z</time>
      </trkpt>
      <trkpt lat="49.35539" lon="1.06628">
        <ele>95</ele>
        <time>2019-12-30T13:02:26.000Z</time>
      </trkpt>
      <trkpt lat="49.3554" lon="1.06632">
        <ele>95</ele>
        <time>2019-12-30T13:02:27.000Z</time>
      </trkpt>
      <trkpt lat="49.35541" lon="1.06638">
        <ele>95</ele>
        <time>2019-12-30T13:02:28.000Z</time>
      </trkpt>
      <trkpt lat="49.35541" lon="1.06643">
        <ele>95</ele>
        <time>2019-12-30T13:02:29.000Z</time>
      </trkpt>
      <trkpt lat="49.35541" lon="1.06649">
        <ele>95</ele>
        <time>2019-12-30T13:02:30.000Z</time>
      </trkpt>
      <trkpt lat="49.35542" lon="1.06655">
        <ele>94</ele>
        <time>2019-12-30T13:02:31.000Z</time>
      </trkpt>
      <trkpt lat="49.35544" lon="1.06659">
        <ele>94</ele>
        <time>2019-12-30T13:02:32.000Z</time>
      </trkpt>
      <trkpt lat="49.35546" lon="1.06662">
        <ele>94</ele>
        <time>2019-12-30T13:02:33.000Z</time>
      </trkpt>
      <trkpt lat="49.35549" lon="1.06665">
        <ele>93</ele>
        <time>2019-12-30T13:02:34.000Z</time>
      </trkpt>
      <trkpt lat="49.35552" lon="1.06667">
        <ele>93</ele>
        <time>2019-12-30T13:02:35.000Z</time>
      </trkpt>
      <trkpt lat="49.35554" lon="1.06671">
        <ele>93</ele>
        <time>2019-12-30T13:02:36.000Z</time>
      </trkpt>
      <trkpt lat="49.35557" lon="1.06673">
        <ele>93</ele>
        <time>2019-12-30T13:02:37.000Z</time>
      </trkpt>
      <trkpt lat="49.3556" lon="1.06676">
        <ele>92</ele>
        <time>2019-12-30T13:02:38.000Z</time>
      </trkpt>
      <trkpt lat="49.35563" lon="1.06679">
        <ele>92</ele>
        <time>2019-12-30T13:02:39.000Z</time>
      </trkpt>
      <trkpt lat="49.35565" lon="1.06682">
        <ele>92</ele>
        <time>2019-12-30T13:02:40.000Z</time>
      </trkpt>
      <trkpt lat="49.35567" lon="1.06684">
        <ele>92</ele>
        <time>2019-12-30T13:02:41.000Z</time>
      </trkpt>
      <trkpt lat="49.35569" lon="1.06686">
        <ele>92</ele>
        <time>2019-12-30T13:02:42.000Z</time>
      </trkpt>
      <trkpt lat="49.35572" lon="1.06687">
        <ele>92</ele>
        <time>2019-12-30T13:02:43.000Z</time>
      </trkpt>
      <trkpt lat="49.35575" lon="1.06689">
        <ele>92</ele>
        <time>2019-12-30T13:02:44.000Z</time>
      </trkpt>
      <trkpt lat="49.35577" lon="1.06692">
        <ele>92</ele>
        <time>2019-12-30T13:02:45.000Z</time>
      </trkpt>
      <trkpt lat="49.35577" lon="1.06695">
        <ele>92</ele>
        <time>2019-12-30T13:02:46.000Z</time>
      </trkpt>
      <trkpt lat="49.35576" lon="1.06699">
        <ele>92</ele>
        <time>2019-12-30T13:02:47.000Z</time>
      </trkpt>
      <trkpt lat="49.35575" lon="1.06703">
        <ele>92</ele>
        <time>2019-12-30T13:02:48.000Z</time>
      </trkpt>
      <trkpt lat="49.35574" lon="1.06707">
        <ele>92</ele>
        <time>2019-12-30T13:02:49.000Z</time>
      </trkpt>
      <trkpt lat="49.35573" lon="1.0671">
        <ele>92</ele>
        <time>2019-12-30T13:02:50.000Z</time>
      </trkpt>
      <trkpt lat="49.35572" lon="1.06714">
        <ele>92</ele>
        <time>2019-12-30T13:02:51.000Z</time>
      </trkpt>
      <trkpt lat="49.35571" lon="1.06718">
        <ele>92</ele>
        <time>2019-12-30T13:02:52.000Z</time>
      </trkpt>
      <trkpt lat="49.35569" lon="1.06721">
        <ele>92</ele>
        <time>2019-12-30T13:02:53.000Z</time>
      </trkpt>
      <trkpt lat="49.35568" lon="1.06725">
        <ele>92</ele>
        <time>2019-12-30T13:02:54.000Z</time>
      </trkpt>
      <trkpt lat="49.35567" lon="1.0673">
        <ele>91</ele>
        <time>2019-12-30T13:02:55.000Z</time>
      </trkpt>
      <trkpt lat="49.35565" lon="1.06733">
        <ele>91</ele>
        <time>2019-12-30T13:02:56.000Z</time>
      </trkpt>
      <trkpt lat="49.35563" lon="1.06735">
        <ele>91</ele>
        <time>2019-12-30T13:02:57.000Z</time>
      </trkpt>
      <trkpt lat="49.35561" lon="1.06739">
        <ele>91</ele>
        <time>2019-12-30T13:02:58.000Z</time>
      </trkpt>
      <trkpt lat="49.35558" lon="1.06742">
        <ele>90</ele>
        <time>2019-12-30T13:02:59.000Z</time>
      </trkpt>
      <trkpt lat="49.35555" lon="1.06746">
        <ele>90</ele>
        <time>2019-12-30T13:03:00.000Z</time>
      </trkpt>
      <trkpt lat="49.35552" lon="1.06749">
        <ele>90</ele>
        <time>2019-12-30T13:03:01.000Z</time>
      </trkpt>
      <trkpt lat="49.35549" lon="1.06751">
        <ele>90</ele>
        <time>2019-12-30T13:03:02.000Z</time>
      </trkpt>
      <trkpt lat="49.35546" lon="1.06753">
        <ele>90</ele>
        <time>2019-12-30T13:03:03.000Z</time>
      </trkpt>
      <trkpt lat="49.35543" lon="1.06756">
        <ele>90</ele>
        <time>2019-12-30T13:03:04.000Z</time>
      </trkpt>
      <trkpt lat="49.35541" lon="1.06759">
        <ele>90</ele>
        <time>2019-12-30T13:03:05.000Z</time>
      </trkpt>
      <trkpt lat="49.35539" lon="1.06763">
        <ele>90</ele>
        <time>2019-12-30T13:03:06.000Z</time>
      </trkpt>
      <trkpt lat="49.35537" lon="1.06766">
        <ele>90</ele>
        <time>2019-12-30T13:03:07.000Z</time>
      </trkpt>
      <trkpt lat="49.35535" lon="1.06771">
        <ele>90</ele>
        <time>2019-12-30T13:03:08.000Z</time>
      </trkpt>
      <trkpt lat="49.35533" lon="1.06775">
        <ele>90</ele>
        <time>2019-12-30T13:03:09.000Z</time>
      </trkpt>
      <trkpt lat="49.35532" lon="1.06779">
        <ele>90</ele>
        <time>2019-12-30T13:03:10.000Z</time>
      </trkpt>
      <trkpt lat="49.3553" lon="1.06783">
        <ele>90</ele>
        <time>2019-12-30T13:03:11.000Z</time>
      </trkpt>
      <trkpt lat="49.35529" lon="1.06788">
        <ele>90</ele>
        <time>2019-12-30T13:03:12.000Z</time>
      </trkpt>
      <trkpt lat="49.35528" lon="1.06792">
        <ele>90</ele>
        <time>2019-12-30T13:03:13.000Z</time>
      </trkpt>
      <trkpt lat="49.35526" lon="1.06796">
        <ele>91</ele>
        <time>2019-12-30T13:03:14.000Z</time>
      </trkpt>
      <trkpt lat="49.35524" lon="1.068">
        <ele>91</ele>
        <time>2019-12-30T13:03:15.000Z</time>
      </trkpt>
      <trkpt lat="49.35523" lon="1.06805">
        <ele>91</ele>
        <time>2019-12-30T13:03:16.000Z</time>
      </trkpt>
      <trkpt lat="49.35521" lon="1.0681">
        <ele>90</ele>
        <time>2019-12-30T13:03:17.000Z</time>
      </trkpt>
      <trkpt lat="49.35518" lon="1.06814">
        <ele>90</ele>
        <time>2019-12-30T13:03:18.000Z</time>
      </trkpt>
      <trkpt lat="49.35516" lon="1.06819">
        <ele>91</ele>
        <time>2019-12-30T13:03:19.000Z</time>
      </trkpt>
      <trkpt lat="49.35514" lon="1.06824">
        <ele>91</ele>
        <time>2019-12-30T13:03:20.000Z</time>
      </trkpt>
      <trkpt lat="49.35512" lon="1.06829">
        <ele>91</ele>
        <time>2019-12-30T13:03:21.000Z</time>
      </trkpt>
      <trkpt lat="49.3551" lon="1.06834">
        <ele>91</ele>
        <time>2019-12-30T13:03:22.000Z</time>
      </trkpt>
      <trkpt lat="49.35508" lon="1.0684">
        <ele>91</ele>
        <time>2019-12-30T13:03:23.000Z</time>
      </trkpt>
      <trkpt lat="49.35507" lon="1.06845">
        <ele>91</ele>
        <time>2019-12-30T13:03:24.000Z</time>
      </trkpt>
      <trkpt lat="49.35505" lon="1.06851">
        <ele>91</ele>
        <time>2019-12-30T13:03:25.000Z</time>
      </trkpt>
      <trkpt lat="49.35504" lon="1.06856">
        <ele>91</ele>
        <time>2019-12-30T13:03:26.000Z</time>
      </trkpt>
      <trkpt lat="49.35502" lon="1.06862">
        <ele>91</ele>
        <time>2019-12-30T13:03:27.000Z</time>
      </trkpt>
      <trkpt lat="49.355" lon="1.06867">
        <ele>91</ele>
        <time>2019-12-30T13:03:28.000Z</time>
      </trkpt>
      <trkpt lat="49.35498" lon="1.06873">
        <ele>91</ele>
        <time>2019-12-30T13:03:29.000Z</time>
      </trkpt>
      <trkpt lat="49.35496" lon="1.06879">
        <ele>91</ele>
        <time>2019-12-30T13:03:30.000Z</time>
      </trkpt>
      <trkpt lat="49.35494" lon="1.06885">
        <ele>91</ele>
        <time>2019-12-30T13:03:31.000Z</time>
      </trkpt>
      <trkpt lat="49.35493" lon="1.06892">
        <ele>90</ele>
        <time>2019-12-30T13:03:32.000Z</time>
      </trkpt>
      <trkpt lat="49.35491" lon="1.06899">
        <ele>90</ele>
        <time>2019-12-30T13:03:33.000Z</time>
      </trkpt>
      <trkpt lat="49.35488" lon="1.06906">
        <ele>90</ele>
        <time>2019-12-30T13:03:34.000Z</time>
      </trkpt>
      <trkpt lat="49.35486" lon="1.06913">
        <ele>90</ele>
        <time>2019-12-30T13:03:35.000Z</time>
      </trkpt>
      <trkpt lat="49.35484" lon="1.0692">
        <ele>89</ele>
        <time>2019-12-30T13:03:36.000Z</time>
      </trkpt>
      <trkpt lat="49.35482" lon="1.06928">
        <ele>89</ele>
        <time>2019-12-30T13:03:37.000Z</time>
      </trkpt>
      <trkpt lat="49.35479" lon="1.06935">
        <ele>89</ele>
        <time>2019-12-30T13:03:38.000Z</time>
      </trkpt>
      <trkpt lat="49.35477" lon="1.06943">
        <ele>89</ele>
        <time>2019-12-30T13:03:39.000Z</time>
      </trkpt>
      <trkpt lat="49.35475" lon="1.0695">
        <ele>88</ele>
        <time>2019-12-30T13:03:40.000Z</time>
      </trkpt>
      <trkpt lat="49.35473" lon="1.06957">
        <ele>88</ele>
        <time>2019-12-30T13:03:41.000Z</time>
      </trkpt>
      <trkpt lat="49.3547" lon="1.06965">
        <ele>88</ele>
        <time>2019-12-30T13:03:42.000Z</time>
      </trkpt>
      <trkpt lat="49.35468" lon="1.06973">
        <ele>87</ele>
        <time>2019-12-30T13:03:43.000Z</time>
      </trkpt>
      <trkpt lat="49.35465" lon="1.06981">
        <ele>87</ele>
        <time>2019-12-30T13:03:44.000Z</time>
      </trkpt>
      <trkpt lat="49.35463" lon="1.06989">
        <ele>87</ele>
        <time>2019-12-30T13:03:45.000Z</time>
      </trkpt>
      <trkpt lat="49.3546" lon="1.06997">
        <ele>86</ele>
        <time>2019-12-30T13:03:46.000Z</time>
      </trkpt>
      <trkpt lat="49.35458" lon="1.07005">
        <ele>86</ele>
        <time>2019-12-30T13:03:47.000Z</time>
      </trkpt>
      <trkpt lat="49.35455" lon="1.07013">
        <ele>86</ele>
        <time>2019-12-30T13:03:48.000Z</time>
      </trkpt>
      <trkpt lat="49.35453" lon="1.07021">
        <ele>85</ele>
        <time>2019-12-30T13:03:49.000Z</time>
      </trkpt>
      <trkpt lat="49.35451" lon="1.0703">
        <ele>85</ele>
        <time>2019-12-30T13:03:50.000Z</time>
      </trkpt>
      <trkpt lat="49.35448" lon="1.07038">
        <ele>84</ele>
        <time>2019-12-30T13:03:51.000Z</time>
      </trkpt>
      <trkpt lat="49.35446" lon="1.07047">
        <ele>84</ele>
        <time>2019-12-30T13:03:52.000Z</time>
      </trkpt>
      <trkpt lat="49.35444" lon="1.07056">
        <ele>84</ele>
        <time>2019-12-30T13:03:53.000Z</time>
      </trkpt>
      <trkpt lat="49.35442" lon="1.07064">
        <ele>83</ele>
        <time>2019-12-30T13:03:54.000Z</time>
      </trkpt>
      <trkpt lat="49.35439" lon="1.07073">
        <ele>83</ele>
        <time>2019-12-30T13:03:55.000Z</time>
      </trkpt>
      <trkpt lat="49.35435" lon="1.0708">
        <ele>82</ele>
        <time>2019-12-30T13:03:56.000Z</time>
      </trkpt>
      <trkpt lat="49.35431" lon="1.07084">
        <ele>82</ele>
        <time>2019-12-30T13:03:57.000Z</time>
      </trkpt>
      <trkpt lat="49.35427" lon="1.07086">
        <ele>81</ele>
        <time>2019-12-30T13:03:58.000Z</time>
      </trkpt>
      <trkpt lat="49.35423" lon="1.07086">
        <ele>81</ele>
        <time>2019-12-30T13:03:59.000Z</time>
      </trkpt>
      <trkpt lat="49.35419" lon="1.07085">
        <ele>81</ele>
        <time>2019-12-30T13:04:00.000Z</time>
      </trkpt>
      <trkpt lat="49.35414" lon="1.07083">
        <ele>80</ele>
        <time>2019-12-30T13:04:01.000Z</time>
      </trkpt>
      <trkpt lat="49.3541" lon="1.0708">
        <ele>80</ele>
        <time>2019-12-30T13:04:02.000Z</time>
      </trkpt>
      <trkpt lat="49.35406" lon="1.07076">
        <ele>80</ele>
        <time>2019-12-30T13:04:03.000Z</time>
      </trkpt>
      <trkpt lat="49.35402" lon="1.07073">
        <ele>79</ele>
        <time>2019-12-30T13:04:04.000Z</time>
      </trkpt>
      <trkpt lat="49.35397" lon="1.0707">
        <ele>79</ele>
        <time>2019-12-30T13:04:05.000Z</time>
      </trkpt>
      <trkpt lat="49.35393" lon="1.07066">
        <ele>79</ele>
        <time>2019-12-30T13:04:06.000Z</time>
      </trkpt>
      <trkpt lat="49.35388" lon="1.07063">
        <ele>78</ele>
        <time>2019-12-30T13:04:07.000Z</time>
      </trkpt>
      <trkpt lat="49.35384" lon="1.07059">
        <ele>78</ele>
        <time>2019-12-30T13:04:08.000Z</time>
      </trkpt>
      <trkpt lat="49.35379" lon="1.07056">
        <ele>78</ele>
        <time>2019-12-30T13:04:09.000Z</time>
      </trkpt>
      <trkpt lat="49.35374" lon="1.07052">
        <ele>77</ele>
        <time>2019-12-30T13:04:10.000Z</time>
      </trkpt>
      <trkpt lat="49.35369" lon="1.07049">
        <ele>77</ele>
        <time>2019-12-30T13:04:11.000Z</time>
      </trkpt>
      <trkpt lat="49.35365" lon="1.07046">
        <ele>77</ele>
        <time>2019-12-30T13:04:12.000Z</time>
      </trkpt>
      <trkpt lat="49.3536" lon="1.07043">
        <ele>77</ele>
        <time>2019-12-30T13:04:13.000Z</time>
      </trkpt>
      <trkpt lat="49.35355" lon="1.0704">
        <ele>76</ele>
        <time>2019-12-30T13:04:14.000Z</time>
      </trkpt>
      <trkpt lat="49.3535" lon="1.07037">
        <ele>76</ele>
        <time>2019-12-30T13:04:15.000Z</time>
      </trkpt>
      <trkpt lat="49.35345" lon="1.07034">
        <ele>76</ele>
        <time>2019-12-30T13:04:16.000Z</time>
      </trkpt>
      <trkpt lat="49.3534" lon="1.07031">
        <ele>76</ele>
        <time>2019-12-30T13:04:17.000Z</time>
      </trkpt>
      <trkpt lat="49.35335" lon="1.07028">
        <ele>75</ele>
        <time>2019-12-30T13:04:18.000Z</time>
      </trkpt>
      <trkpt lat="49.3533" lon="1.07026">
        <ele>75</ele>
        <time>2019-12-30T13:04:19.000Z</time>
      </trkpt>
      <trkpt lat="49.35325" lon="1.07026">
        <ele>75</ele>
        <time>2019-12-30T13:04:20.000Z</time>
      </trkpt>
      <trkpt lat="49.3532" lon="1.07028">
        <ele>75</ele>
        <time>2019-12-30T13:04:21.000Z</time>
      </trkpt>
      <trkpt lat="49.35315" lon="1.07031">
        <ele>75</ele>
        <time>2019-12-30T13:04:22.000Z</time>
      </trkpt>
      <trkpt lat="49.3531" lon="1.07037">
        <ele>75</ele>
        <time>2019-12-30T13:04:23.000Z</time>
      </trkpt>
      <trkpt lat="49.35306" lon="1.07044">
        <ele>75</ele>
        <time>2019-12-30T13:04:24.000Z</time>
      </trkpt>
      <trkpt lat="49.35303" lon="1.07052">
        <ele>75</ele>
        <time>2019-12-30T13:04:25.000Z</time>
      </trkpt>
      <trkpt lat="49.35301" lon="1.07061">
        <ele>75</ele>
        <time>2019-12-30T13:04:26.000Z</time>
      </trkpt>
      <trkpt lat="49.35299" lon="1.0707">
        <ele>75</ele>
        <time>2019-12-30T13:04:27.000Z</time>
      </trkpt>
      <trkpt lat="49.35297" lon="1.07079">
        <ele>75</ele>
        <time>2019-12-30T13:04:28.000Z</time>
      </trkpt>
      <trkpt lat="49.35296" lon="1.07088">
        <ele>75</ele>
        <time>2019-12-30T13:04:29.000Z</time>
      </trkpt>
      <trkpt lat="49.35294" lon="1.07097">
        <ele>75</ele>
        <time>2019-12-30T13:04:30.000Z</time>
      </trkpt>
      <trkpt lat="49.35292" lon="1.07105">
        <ele>75</ele>
        <time>2019-12-30T13:04:31.000Z</time>
      </trkpt>
      <trkpt lat="49.3529" lon="1.07114">
        <ele>75</ele>
        <time>2019-12-30T13:04:32.000Z</time>
      </trkpt>
      <trkpt lat="49.35288" lon="1.07124">
        <ele>75</ele>
        <time>2019-12-30T13:04:33.000Z</time>
      </trkpt>
      <trkpt lat="49.35287" lon="1.07133">
        <ele>75</ele>
        <time>2019-12-30T13:04:34.000Z</time>
      </trkpt>
      <trkpt lat="49.35285" lon="1.07142">
        <ele>75</ele>
        <time>2019-12-30T13:04:35.000Z</time>
      </trkpt>
      <trkpt lat="49.35283" lon="1.07151">
        <ele>74</ele>
        <time>2019-12-30T13:04:36.000Z</time>
      </trkpt>
      <trkpt lat="49.35281" lon="1.0716">
        <ele>74</ele>
        <time>2019-12-30T13:04:37.000Z</time>
      </trkpt>
      <trkpt lat="49.35279" lon="1.07169">
        <ele>74</ele>
        <time>2019-12-30T13:04:38.000Z</time>
      </trkpt>
      <trkpt lat="49.35277" lon="1.07179">
        <ele>74</ele>
        <time>2019-12-30T13:04:39.000Z</time>
      </trkpt>
      <trkpt lat="49.35275" lon="1.07188">
        <ele>74</ele>
        <time>2019-12-30T13:04:40.000Z</time>
      </trkpt>
      <trkpt lat="49.35273" lon="1.07198">
        <ele>73</ele>
        <time>2019-12-30T13:04:41.000Z</time>
      </trkpt>
      <trkpt lat="49.35271" lon="1.07208">
        <ele>73</ele>
        <time>2019-12-30T13:04:42.000Z</time>
      </trkpt>
      <trkpt lat="49.35269" lon="1.07217">
        <ele>73</ele>
        <time>2019-12-30T13:04:43.000Z</time>
      </trkpt>
      <trkpt lat="49.35267" lon="1.07227">
        <ele>73</ele>
        <time>2019-12-30T13:04:44.000Z</time>
      </trkpt>
      <trkpt lat="49.35266" lon="1.07236">
        <ele>72</ele>
        <time>2019-12-30T13:04:45.000Z</time>
      </trkpt>
      <trkpt lat="49.35264" lon="1.07246">
        <ele>72</ele>
        <time>2019-12-30T13:04:46.000Z</time>
      </trkpt>
      <trkpt lat="49.35262" lon="1.07255">
        <ele>72</ele>
        <time>2019-12-30T13:04:47.000Z</time>
      </trkpt>
      <trkpt lat="49.35261" lon="1.07265">
        <ele>72</ele>
        <time>2019-12-30T13:04:48.000Z</time>
      </trkpt>
      <trkpt lat="49.35259" lon="1.07274">
        <ele>71</ele>
        <time>2019-12-30T13:04:49.000Z</time>
      </trkpt>
      <trkpt lat="49.35258" lon="1.07283">
        <ele>71</ele>
        <time>2019-12-30T13:04:50.000Z</time>
      </trkpt>
      <trkpt lat="49.35256" lon="1.07293">
        <ele>71</ele>
        <time>2019-12-30T13:04:51.000Z</time>
      </trkpt>
      <trkpt lat="49.35254" lon="1.07302">
        <ele>70</ele>
        <time>2019-12-30T13:04:52.000Z</time>
      </trkpt>
      <trkpt lat="49.35253" lon="1.07311">
        <ele>70</ele>
        <time>2019-12-30T13:04:53.000Z</time>
      </trkpt>
      <trkpt lat="49.35251" lon="1.0732">
        <ele>70</ele>
        <time>2019-12-30T13:04:54.000Z</time>
      </trkpt>
      <trkpt lat="49.3525" lon="1.07328">
        <ele>70</ele>
        <time>2019-12-30T13:04:55.000Z</time>
      </trkpt>
      <trkpt lat="49.35249" lon="1.07336">
        <ele>70</ele>
        <time>2019-12-30T13:04:56.000Z</time>
      </trkpt>
      <trkpt lat="49.35248" lon="1.07344">
        <ele>70</ele>
        <time>2019-12-30T13:04:57.000Z</time>
      </trkpt>
      <trkpt lat="49.35246" lon="1.07352">
        <ele>69</ele>
        <time>2019-12-30T13:04:58.000Z</time>
      </trkpt>
      <trkpt lat="49.35245" lon="1.07361">
        <ele>69</ele>
        <time>2019-12-30T13:04:59.000Z</time>
      </trkpt>
      <trkpt lat="49.35244" lon="1.07369">
        <ele>69</ele>
        <time>2019-12-30T13:05:00.000Z</time>
      </trkpt>
      <trkpt lat="49.35243" lon="1.07378">
        <ele>69</ele>
        <time>2019-12-30T13:05:01.000Z</time>
      </trkpt>
      <trkpt lat="49.35241" lon="1.07387">
        <ele>68</ele>
        <time>2019-12-30T13:05:02.000Z</time>
      </trkpt>
      <trkpt lat="49.3524" lon="1.07395">
        <ele>68</ele>
        <time>2019-12-30T13:05:03.000Z</time>
      </trkpt>
      <trkpt lat="49.35238" lon="1.07404">
        <ele>68</ele>
        <time>2019-12-30T13:05:04.000Z</time>
      </trkpt>
      <trkpt lat="49.35237" lon="1.07412">
        <ele>68</ele>
        <time>2019-12-30T13:05:05.000Z</time>
      </trkpt>
      <trkpt lat="49.35236" lon="1.07421">
        <ele>68</ele>
        <time>2019-12-30T13:05:06.000Z</time>
      </trkpt>
      <trkpt lat="49.35234" lon="1.07429">
        <ele>68</ele>
        <time>2019-12-30T13:05:07.000Z</time>
      </trkpt>
      <trkpt lat="49.35233" lon="1.07437">
        <ele>67</ele>
        <time>2019-12-30T13:05:08.000Z</time>
      </trkpt>
      <trkpt lat="49.35232" lon="1.07445">
        <ele>67</ele>
        <time>2019-12-30T13:05:09.000Z</time>
      </trkpt>
      <trkpt lat="49.35231" lon="1.07452">
        <ele>67</ele>
        <time>2019-12-30T13:05:10.000Z</time>
      </trkpt>
      <trkpt lat="49.3523" lon="1.0746">
        <ele>67</ele>
        <time>2019-12-30T13:05:11.000Z</time>
      </trkpt>
      <trkpt lat="49.35229" lon="1.07466">
        <ele>67</ele>
        <time>2019-12-30T13:05:12.000Z</time>
      </trkpt>
      <trkpt lat="49.35226" lon="1.07471">
        <ele>67</ele>
        <time>2019-12-30T13:05:13.000Z</time>
      </trkpt>
      <trkpt lat="49.35223" lon="1.07474">
        <ele>66</ele>
        <time>2019-12-30T13:05:14.000Z</time>
      </trkpt>
      <trkpt lat="49.35218" lon="1.07475">
        <ele>66</ele>
        <time>2019-12-30T13:05:15.000Z</time>
      </trkpt>
      <trkpt lat="49.35213" lon="1.07476">
        <ele>65</ele>
        <time>2019-12-30T13:05:16.000Z</time>
      </trkpt>
      <trkpt lat="49.35208" lon="1.0748">
        <ele>65</ele>
        <time>2019-12-30T13:05:17.000Z</time>
      </trkpt>
      <trkpt lat="49.35203" lon="1.07486">
        <ele>65</ele>
        <time>2019-12-30T13:05:18.000Z</time>
      </trkpt>
      <trkpt lat="49.35199" lon="1.07495">
        <ele>64</ele>
        <time>2019-12-30T13:05:19.000Z</time>
      </trkpt>
      <trkpt lat="49.35195" lon="1.07505">
        <ele>64</ele>
        <time>2019-12-30T13:05:20.000Z</time>
      </trkpt>
      <trkpt lat="49.35192" lon="1.07516">
        <ele>63</ele>
        <time>2019-12-30T13:05:21.000Z</time>
      </trkpt>
      <trkpt lat="49.35189" lon="1.07526">
        <ele>63</ele>
        <time>2019-12-30T13:05:22.000Z</time>
      </trkpt>
      <trkpt lat="49.35185" lon="1.07536">
        <ele>63</ele>
        <time>2019-12-30T13:05:23.000Z</time>
      </trkpt>
      <trkpt lat="49.35182" lon="1.07546">
        <ele>62</ele>
        <time>2019-12-30T13:05:24.000Z</time>
      </trkpt>
      <trkpt lat="49.35178" lon="1.07555">
        <ele>62</ele>
        <time>2019-12-30T13:05:25.000Z</time>
      </trkpt>
      <trkpt lat="49.35173" lon="1.07565">
        <ele>62</ele>
        <time>2019-12-30T13:05:26.000Z</time>
      </trkpt>
      <trkpt lat="49.35169" lon="1.07573">
        <ele>61</ele>
        <time>2019-12-30T13:05:27.000Z</time>
      </trkpt>
      <trkpt lat="49.35164" lon="1.07581">
        <ele>61</ele>
        <time>2019-12-30T13:05:28.000Z</time>
      </trkpt>
      <trkpt lat="49.3516" lon="1.07589">
        <ele>61</ele>
        <time>2019-12-30T13:05:29.000Z</time>
      </trkpt>
      <trkpt lat="49.35156" lon="1.07595">
        <ele>61</ele>
        <time>2019-12-30T13:05:30.000Z</time>
      </trkpt>
      <trkpt lat="49.3515" lon="1.076">
        <ele>61</ele>
        <time>2019-12-30T13:05:31.000Z</time>
      </trkpt>
      <trkpt lat="49.35145" lon="1.07601">
        <ele>61</ele>
        <time>2019-12-30T13:05:32.000Z</time>
      </trkpt>
      <trkpt lat="49.3514" lon="1.07601">
        <ele>61</ele>
        <time>2019-12-30T13:05:33.000Z</time>
      </trkpt>
      <trkpt lat="49.35135" lon="1.07602">
        <ele>61</ele>
        <time>2019-12-30T13:05:34.000Z</time>
      </trkpt>
      <trkpt lat="49.35131" lon="1.07603">
        <ele>61</ele>
        <time>2019-12-30T13:05:35.000Z</time>
      </trkpt>
      <trkpt lat="49.35128" lon="1.07604">
        <ele>61</ele>
        <time>2019-12-30T13:05:36.000Z</time>
      </trkpt>
      <trkpt lat="49.35125" lon="1.07606">
        <ele>60</ele>
        <time>2019-12-30T13:05:37.000Z</time>
      </trkpt>
      <trkpt lat="49.35122" lon="1.07609">
        <ele>60</ele>
        <time>2019-12-30T13:05:38.000Z</time>
      </trkpt>
      <trkpt lat="49.35119" lon="1.07612">
        <ele>60</ele>
        <time>2019-12-30T13:05:39.000Z</time>
      </trkpt>
      <trkpt lat="49.35116" lon="1.07615">
        <ele>60</ele>
        <time>2019-12-30T13:05:40.000Z</time>
      </trkpt>
      <trkpt lat="49.35113" lon="1.07618">
        <ele>60</ele>
        <time>2019-12-30T13:05:41.000Z</time>
      </trkpt>
      <trkpt lat="49.3511" lon="1.07621">
        <ele>60</ele>
        <time>2019-12-30T13:05:42.000Z</time>
      </trkpt>
      <trkpt lat="49.35108" lon="1.07625">
        <ele>60</ele>
        <time>2019-12-30T13:05:43.000Z</time>
      </trkpt>
      <trkpt lat="49.35105" lon="1.07628">
        <ele>60</ele>
        <time>2019-12-30T13:05:44.000Z</time>
      </trkpt>
      <trkpt lat="49.35103" lon="1.07632">
        <ele>60</ele>
        <time>2019-12-30T13:05:45.000Z</time>
      </trkpt>
      <trkpt lat="49.35101" lon="1.07635">
        <ele>60</ele>
        <time>2019-12-30T13:05:46.000Z</time>
      </trkpt>
      <trkpt lat="49.35098" lon="1.07638">
        <ele>60</ele>
        <time>2019-12-30T13:05:47.000Z</time>
      </trkpt>
      <trkpt lat="49.35096" lon="1.07642">
        <ele>60</ele>
        <time>2019-12-30T13:05:48.000Z</time>
      </trkpt>
      <trkpt lat="49.35094" lon="1.07645">
        <ele>60</ele>
        <time>2019-12-30T13:05:49.000Z</time>
      </trkpt>
      <trkpt lat="49.35092" lon="1.07649">
        <ele>60</ele>
        <time>2019-12-30T13:05:50.000Z</time>
      </trkpt>
      <trkpt lat="49.3509" lon="1.07653">
        <ele>60</ele>
        <time>2019-12-30T13:05:51.000Z</time>
      </trkpt>
      <trkpt lat="49.35088" lon="1.07657">
        <ele>61</ele>
        <time>2019-12-30T13:05:52.000Z</time>
      </trkpt>
      <trkpt lat="49.35086" lon="1.07661">
        <ele>61</ele>
        <time>2019-12-30T13:05:53.000Z</time>
      </trkpt>
      <trkpt lat="49.35085" lon="1.07665">
        <ele>61</ele>
        <time>2019-12-30T13:05:54.000Z</time>
      </trkpt>
      <trkpt lat="49.35083" lon="1.07669">
        <ele>61</ele>
        <time>2019-12-30T13:05:55.000Z</time>
      </trkpt>
      <trkpt lat="49.35081" lon="1.07673">
        <ele>61</ele>
        <time>2019-12-30T13:05:56.000Z</time>
      </trkpt>
      <trkpt lat="49.35079" lon="1.07676">
        <ele>61</ele>
        <time>2019-12-30T13:05:57.000Z</time>
      </trkpt>
      <trkpt lat="49.35077" lon="1.07678">
        <ele>61</ele>
        <time>2019-12-30T13:05:58.000Z</time>
      </trkpt>
      <trkpt lat="49.35075" lon="1.0768">
        <ele>62</ele>
        <time>2019-12-30T13:05:59.000Z</time>
      </trkpt>
      <trkpt lat="49.35073" lon="1.07682">
        <ele>62</ele>
        <time>2019-12-30T13:06:00.000Z</time>
      </trkpt>
      <trkpt lat="49.35073" lon="1.07682">
        <ele>62</ele>
        <time>2019-12-30T13:06:01.000Z</time>
      </trkpt>
      <trkpt lat="49.35072" lon="1.0768">
        <ele>62</ele>
        <time>2019-12-30T13:06:02.000Z</time>
      </trkpt>
      <trkpt lat="49.35072" lon="1.07677">
        <ele>62</ele>
        <time>2019-12-30T13:06:03.000Z</time>
      </trkpt>
      <trkpt lat="49.35072" lon="1.07674">
        <ele>62</ele>
        <time>2019-12-30T13:06:04.000Z</time>
      </trkpt>
      <trkpt lat="49.35072" lon="1.0767">
        <ele>63</ele>
        <time>2019-12-30T13:06:05.000Z</time>
      </trkpt>
      <trkpt lat="49.35072" lon="1.07666">
        <ele>63</ele>
        <time>2019-12-30T13:06:06.000Z</time>
      </trkpt>
      <trkpt lat="49.35072" lon="1.07662">
        <ele>63</ele>
        <time>2019-12-30T13:06:07.000Z</time>
      </trkpt>
      <trkpt lat="49.35072" lon="1.07657">
        <ele>63</ele>
        <time>2019-12-30T13:06:08.000Z</time>
      </trkpt>
      <trkpt lat="49.35072" lon="1.07653">
        <ele>64</ele>
        <time>2019-12-30T13:06:09.000Z</time>
      </trkpt>
      <trkpt lat="49.35072" lon="1.07649">
        <ele>64</ele>
        <time>2019-12-30T13:06:10.000Z</time>
      </trkpt>
      <trkpt lat="49.35072" lon="1.07645">
        <ele>64</ele>
        <time>2019-12-30T13:06:11.000Z</time>
      </trkpt>
      <trkpt lat="49.35071" lon="1.07641">
        <ele>64</ele>
        <time>2019-12-30T13:06:12.000Z</time>
      </trkpt>
      <trkpt lat="49.35072" lon="1.07637">
        <ele>65</ele>
        <time>2019-12-30T13:06:13.000Z</time>
      </trkpt>
      <trkpt lat="49.35072" lon="1.07633">
        <ele>65</ele>
        <time>2019-12-30T13:06:14.000Z</time>
      </trkpt>
      <trkpt lat="49.35073" lon="1.0763">
        <ele>65</ele>
        <time>2019-12-30T13:06:15.000Z</time>
      </trkpt>
      <trkpt lat="49.35074" lon="1.07627">
        <ele>65</ele>
        <time>2019-12-30T13:06:16.000Z</time>
      </trkpt>
      <trkpt lat="49.35074" lon="1.07623">
        <ele>65</ele>
        <time>2019-12-30T13:06:17.000Z</time>
      </trkpt>
      <trkpt lat="49.35073" lon="1.07619">
        <ele>66</ele>
        <time>2019-12-30T13:06:18.000Z</time>
      </trkpt>
      <trkpt lat="49.35072" lon="1.07616">
        <ele>66</ele>
        <time>2019-12-30T13:06:19.000Z</time>
      </trkpt>
      <trkpt lat="49.35071" lon="1.07613">
        <ele>66</ele>
        <time>2019-12-30T13:06:20.000Z</time>
      </trkpt>
      <trkpt lat="49.35069" lon="1.07612">
        <ele>66</ele>
        <time>2019-12-30T13:06:21.000Z</time>
      </trkpt>
      <trkpt lat="49.35067" lon="1.0761">
        <ele>67</ele>
        <time>2019-12-30T13:06:22.000Z</time>
      </trkpt>
      <trkpt lat="49.35065" lon="1.07609">
        <ele>67</ele>
        <time>2019-12-30T13:06:23.000Z</time>
      </trkpt>
      <trkpt lat="49.35063" lon="1.07607">
        <ele>67</ele>
        <time>2019-12-30T13:06:24.000Z</time>
      </trkpt>
      <trkpt lat="49.35061" lon="1.07605">
        <ele>67</ele>
        <time>2019-12-30T13:06:25.000Z</time>
      </trkpt>
      <trkpt lat="49.35061" lon="1.07602">
        <ele>67</ele>
        <time>2019-12-30T13:06:26.000Z</time>
      </trkpt>
      <trkpt lat="49.3506" lon="1.07599">
        <ele>67</ele>
        <time>2019-12-30T13:06:27.000Z</time>
      </trkpt>
      <trkpt lat="49.35061" lon="1.07597">
        <ele>68</ele>
        <time>2019-12-30T13:06:28.000Z</time>
      </trkpt>
      <trkpt lat="49.35061" lon="1.07594">
        <ele>68</ele>
        <time>2019-12-30T13:06:29.000Z</time>
      </trkpt>
      <trkpt lat="49.3506" lon="1.0759">
        <ele>68</ele>
        <time>2019-12-30T13:06:30.000Z</time>
      </trkpt>
      <trkpt lat="49.3506" lon="1.07588">
        <ele>68</ele>
        <time>2019-12-30T13:06:31.000Z</time>
      </trkpt>
      <trkpt lat="49.35059" lon="1.07585">
        <ele>69</ele>
        <time>2019-12-30T13:06:32.000Z</time>
      </trkpt>
      <trkpt lat="49.35058" lon="1.07581">
        <ele>69</ele>
        <time>2019-12-30T13:06:33.000Z</time>
      </trkpt>
      <trkpt lat="49.35058" lon="1.07578">
        <ele>69</ele>
        <time>2019-12-30T13:06:34.000Z</time>
      </trkpt>
      <trkpt lat="49.3506" lon="1.07575">
        <ele>69</ele>
        <time>2019-12-30T13:06:35.000Z</time>
      </trkpt>
      <trkpt lat="49.35061" lon="1.07573">
        <ele>69</ele>
        <time>2019-12-30T13:06:36.000Z</time>
      </trkpt>
      <trkpt lat="49.35063" lon="1.07571">
        <ele>69</ele>
        <time>2019-12-30T13:06:37.000Z</time>
      </trkpt>
      <trkpt lat="49.35065" lon="1.0757">
        <ele>69</ele>
        <time>2019-12-30T13:06:38.000Z</time>
      </trkpt>
      <trkpt lat="49.35067" lon="1.07569">
        <ele>69</ele>
        <time>2019-12-30T13:06:39.000Z</time>
      </trkpt>
      <trkpt lat="49.35068" lon="1.07567">
        <ele>69</ele>
        <time>2019-12-30T13:06:40.000Z</time>
      </trkpt>
      <trkpt lat="49.35069" lon="1.07566">
        <ele>69</ele>
        <time>2019-12-30T13:06:41.000Z</time>
      </trkpt>
      <trkpt lat="49.35071" lon="1.07565">
        <ele>69</ele>
        <time>2019-12-30T13:06:42.000Z</time>
      </trkpt>
      <trkpt lat="49.35073" lon="1.07564">
        <ele>69</ele>
        <time>2019-12-30T13:06:43.000Z</time>
      </trkpt>
      <trkpt lat="49.35075" lon="1.07561">
        <ele>69</ele>
        <time>2019-12-30T13:06:44.000Z</time>
      </trkpt>
      <trkpt lat="49.35076" lon="1.07559">
        <ele>69</ele>
        <time>2019-12-30T13:06:45.000Z</time>
      </trkpt>
      <trkpt lat="49.35077" lon="1.07557">
        <ele>68</ele>
        <time>2019-12-30T13:06:46.000Z</time>
      </trkpt>
      <trkpt lat="49.35077" lon="1.07554">
        <ele>68</ele>
        <time>2019-12-30T13:06:47.000Z</time>
      </trkpt>
      <trkpt lat="49.35076" lon="1.0755">
        <ele>68</ele>
        <time>2019-12-30T13:06:48.000Z</time>
      </trkpt>
      <trkpt lat="49.35076" lon="1.07546">
        <ele>68</ele>
        <time>2019-12-30T13:06:49.000Z</time>
      </trkpt>
      <trkpt lat="49.35077" lon="1.07543">
        <ele>68</ele>
        <time>2019-12-30T13:06:50.000Z</time>
      </trkpt>
      <trkpt lat="49.35077" lon="1.0754">
        <ele>69</ele>
        <time>2019-12-30T13:06:51.000Z</time>
      </trkpt>
      <trkpt lat="49.35076" lon="1.07538">
        <ele>69</ele>
        <time>2019-12-30T13:06:52.000Z</time>
      </trkpt>
      <trkpt lat="49.35075" lon="1.07535">
        <ele>69</ele>
        <time>2019-12-30T13:06:53.000Z</time>
      </trkpt>
      <trkpt lat="49.35074" lon="1.0753">
        <ele>69</ele>
        <time>2019-12-30T13:06:54.000Z</time>
      </trkpt>
      <trkpt lat="49.35074" lon="1.07526">
        <ele>69</ele>
        <time>2019-12-30T13:06:55.000Z</time>
      </trkpt>
      <trkpt lat="49.35073" lon="1.07521">
        <ele>69</ele>
        <time>2019-12-30T13:06:56.000Z</time>
      </trkpt>
      <trkpt lat="49.35072" lon="1.07518">
        <ele>70</ele>
        <time>2019-12-30T13:06:57.000Z</time>
      </trkpt>
      <trkpt lat="49.35071" lon="1.07514">
        <ele>70</ele>
        <time>2019-12-30T13:06:58.000Z</time>
      </trkpt>
      <trkpt lat="49.3507" lon="1.0751">
        <ele>70</ele>
        <time>2019-12-30T13:06:59.000Z</time>
      </trkpt>
      <trkpt lat="49.3507" lon="1.07506">
        <ele>71</ele>
        <time>2019-12-30T13:07:00.000Z</time>
      </trkpt>
      <trkpt lat="49.35071" lon="1.07502">
        <ele>71</ele>
        <time>2019-12-30T13:07:01.000Z</time>
      </trkpt>
      <trkpt lat="49.35072" lon="1.07498">
        <ele>71</ele>
        <time>2019-12-30T13:07:02.000Z</time>
      </trkpt>
      <trkpt lat="49.35073" lon="1.07495">
        <ele>71</ele>
        <time>2019-12-30T13:07:03.000Z</time>
      </trkpt>
      <trkpt lat="49.35075" lon="1.07493">
        <ele>71</ele>
        <time>2019-12-30T13:07:04.000Z</time>
      </trkpt>
      <trkpt lat="49.35077" lon="1.07492">
        <ele>71</ele>
        <time>2019-12-30T13:07:05.000Z</time>
      </trkpt>
      <trkpt lat="49.35078" lon="1.07491">
        <ele>71</ele>
        <time>2019-12-30T13:07:06.000Z</time>
      </trkpt>
      <trkpt lat="49.35081" lon="1.0749">
        <ele>71</ele>
        <time>2019-12-30T13:07:07.000Z</time>
      </trkpt>
      <trkpt lat="49.35084" lon="1.0749">
        <ele>71</ele>
        <time>2019-12-30T13:07:08.000Z</time>
      </trkpt>
      <trkpt lat="49.35088" lon="1.07489">
        <ele>70</ele>
        <time>2019-12-30T13:07:09.000Z</time>
      </trkpt>
      <trkpt lat="49.35092" lon="1.07487">
        <ele>70</ele>
        <time>2019-12-30T13:07:10.000Z</time>
      </trkpt>
      <trkpt lat="49.35095" lon="1.07484">
        <ele>70</ele>
        <time>2019-12-30T13:07:11.000Z</time>
      </trkpt>
      <trkpt lat="49.35097" lon="1.07482">
        <ele>70</ele>
        <time>2019-12-30T13:07:12.000Z</time>
      </trkpt>
      <trkpt lat="49.35098" lon="1.07479">
        <ele>70</ele>
        <time>2019-12-30T13:07:13.000Z</time>
      </trkpt>
      <trkpt lat="49.35098" lon="1.07477">
        <ele>70</ele>
        <time>2019-12-30T13:07:14.000Z</time>
      </trkpt>
      <trkpt lat="49.35099" lon="1.07474">
        <ele>69</ele>
        <time>2019-12-30T13:07:15.000Z</time>
      </trkpt>
      <trkpt lat="49.351" lon="1.07472">
        <ele>69</ele>
        <time>2019-12-30T13:07:16.000Z</time>
      </trkpt>
      <trkpt lat="49.35102" lon="1.07469">
        <ele>69</ele>
        <time>2019-12-30T13:07:17.000Z</time>
      </trkpt>
      <trkpt lat="49.35103" lon="1.07467">
        <ele>69</ele>
        <time>2019-12-30T13:07:18.000Z</time>
      </trkpt>
      <trkpt lat="49.35105" lon="1.07464">
        <ele>69</ele>
        <time>2019-12-30T13:07:19.000Z</time>
      </trkpt>
      <trkpt lat="49.35106" lon="1.07462">
        <ele>69</ele>
        <time>2019-12-30T13:07:20.000Z</time>
      </trkpt>
      <trkpt lat="49.35107" lon="1.07458">
        <ele>69</ele>
        <time>2019-12-30T13:07:21.000Z</time>
      </trkpt>
      <trkpt lat="49.35107" lon="1.07453">
        <ele>69</ele>
        <time>2019-12-30T13:07:22.000Z</time>
      </trkpt>
      <trkpt lat="49.35108" lon="1.07448">
        <ele>69</ele>
        <time>2019-12-30T13:07:23.000Z</time>
      </trkpt>
      <trkpt lat="49.35109" lon="1.07444">
        <ele>69</ele>
        <time>2019-12-30T13:07:24.000Z</time>
      </trkpt>
      <trkpt lat="49.3511" lon="1.0744">
        <ele>69</ele>
        <time>2019-12-30T13:07:25.000Z</time>
      </trkpt>
      <trkpt lat="49.35111" lon="1.07438">
        <ele>69</ele>
        <time>2019-12-30T13:07:26.000Z</time>
      </trkpt>
      <trkpt lat="49.35112" lon="1.07435">
        <ele>69</ele>
        <time>2019-12-30T13:07:27.000Z</time>
      </trkpt>
      <trkpt lat="49.35112" lon="1.07432">
        <ele>69</ele>
        <time>2019-12-30T13:07:28.000Z</time>
      </trkpt>
      <trkpt lat="49.35112" lon="1.0743">
        <ele>70</ele>
        <time>2019-12-30T13:07:29.000Z</time>
      </trkpt>
      <trkpt lat="49.3511" lon="1.07426">
        <ele>70</ele>
        <time>2019-12-30T13:07:30.000Z</time>
      </trkpt>
      <trkpt lat="49.35108" lon="1.07424">
        <ele>70</ele>
        <time>2019-12-30T13:07:31.000Z</time>
      </trkpt>
      <trkpt lat="49.35106" lon="1.0742">
        <ele>70</ele>
        <time>2019-12-30T13:07:32.000Z</time>
      </trkpt>
      <trkpt lat="49.35104" lon="1.07417">
        <ele>69</ele>
        <time>2019-12-30T13:07:33.000Z</time>
      </trkpt>
      <trkpt lat="49.35101" lon="1.07414">
        <ele>69</ele>
        <time>2019-12-30T13:07:34.000Z</time>
      </trkpt>
      <trkpt lat="49.351" lon="1.07409">
        <ele>69</ele>
        <time>2019-12-30T13:07:35.000Z</time>
      </trkpt>
      <trkpt lat="49.35099" lon="1.07405">
        <ele>69</ele>
        <time>2019-12-30T13:07:36.000Z</time>
      </trkpt>
      <trkpt lat="49.35099" lon="1.07402">
        <ele>69</ele>
        <time>2019-12-30T13:07:37.000Z</time>
      </trkpt>
      <trkpt lat="49.35099" lon="1.07398">
        <ele>69</ele>
        <time>2019-12-30T13:07:38.000Z</time>
      </trkpt>
      <trkpt lat="49.35099" lon="1.07395">
        <ele>70</ele>
        <time>2019-12-30T13:07:39.000Z</time>
      </trkpt>
      <trkpt lat="49.35098" lon="1.07392">
        <ele>70</ele>
        <time>2019-12-30T13:07:40.000Z</time>
      </trkpt>
      <trkpt lat="49.35097" lon="1.0739">
        <ele>70</ele>
        <time>2019-12-30T13:07:41.000Z</time>
      </trkpt>
      <trkpt lat="49.35096" lon="1.07386">
        <ele>70</ele>
        <time>2019-12-30T13:07:42.000Z</time>
      </trkpt>
      <trkpt lat="49.35095" lon="1.07383">
        <ele>70</ele>
        <time>2019-12-30T13:07:43.000Z</time>
      </trkpt>
      <trkpt lat="49.35093" lon="1.0738">
        <ele>70</ele>
        <time>2019-12-30T13:07:44.000Z</time>
      </trkpt>
      <trkpt lat="49.35091" lon="1.07378">
        <ele>70</ele>
        <time>2019-12-30T13:07:45.000Z</time>
      </trkpt>
      <trkpt lat="49.35089" lon="1.07376">
        <ele>70</ele>
        <time>2019-12-30T13:07:46.000Z</time>
      </trkpt>
      <trkpt lat="49.35087" lon="1.07373">
        <ele>70</ele>
        <time>2019-12-30T13:07:47.000Z</time>
      </trkpt>
      <trkpt lat="49.35085" lon="1.07371">
        <ele>70</ele>
        <time>2019-12-30T13:07:48.000Z</time>
      </trkpt>
      <trkpt lat="49.35084" lon="1.07368">
        <ele>71</ele>
        <time>2019-12-30T13:07:49.000Z</time>
      </trkpt>
      <trkpt lat="49.35083" lon="1.07365">
        <ele>71</ele>
        <time>2019-12-30T13:07:50.000Z</time>
      </trkpt>
      <trkpt lat="49.35082" lon="1.07361">
        <ele>71</ele>
        <time>2019-12-30T13:07:51.000Z</time>
      </trkpt>
      <trkpt lat="49.35081" lon="1.07358">
        <ele>71</ele>
        <time>2019-12-30T13:07:52.000Z</time>
      </trkpt>
      <trkpt lat="49.3508" lon="1.07355">
        <ele>71</ele>
        <time>2019-12-30T13:07:53.000Z</time>
      </trkpt>
      <trkpt lat="49.3508" lon="1.07351">
        <ele>71</ele>
        <time>2019-12-30T13:07:54.000Z</time>
      </trkpt>
      <trkpt lat="49.35079" lon="1.07347">
        <ele>71</ele>
        <time>2019-12-30T13:07:55.000Z</time>
      </trkpt>
      <trkpt lat="49.35079" lon="1.07342">
        <ele>71</ele>
        <time>2019-12-30T13:07:56.000Z</time>
      </trkpt>
      <trkpt lat="49.35079" lon="1.07338">
        <ele>72</ele>
        <time>2019-12-30T13:07:57.000Z</time>
      </trkpt>
      <trkpt lat="49.35079" lon="1.07334">
        <ele>72</ele>
        <time>2019-12-30T13:07:58.000Z</time>
      </trkpt>
      <trkpt lat="49.3508" lon="1.0733">
        <ele>72</ele>
        <time>2019-12-30T13:07:59.000Z</time>
      </trkpt>
      <trkpt lat="49.35081" lon="1.07326">
        <ele>73</ele>
        <time>2019-12-30T13:08:00.000Z</time>
      </trkpt>
      <trkpt lat="49.35081" lon="1.07322">
        <ele>73</ele>
        <time>2019-12-30T13:08:01.000Z</time>
      </trkpt>
      <trkpt lat="49.35082" lon="1.07319">
        <ele>73</ele>
        <time>2019-12-30T13:08:02.000Z</time>
      </trkpt>
      <trkpt lat="49.35081" lon="1.07315">
        <ele>73</ele>
        <time>2019-12-30T13:08:03.000Z</time>
      </trkpt>
      <trkpt lat="49.35081" lon="1.07311">
        <ele>74</ele>
        <time>2019-12-30T13:08:04.000Z</time>
      </trkpt>
      <trkpt lat="49.35081" lon="1.07308">
        <ele>74</ele>
        <time>2019-12-30T13:08:05.000Z</time>
      </trkpt>
      <trkpt lat="49.3508" lon="1.07304">
        <ele>74</ele>
        <time>2019-12-30T13:08:06.000Z</time>
      </trkpt>
      <trkpt lat="49.3508" lon="1.07301">
        <ele>75</ele>
        <time>2019-12-30T13:08:07.000Z</time>
      </trkpt>
      <trkpt lat="49.35079" lon="1.07298">
        <ele>75</ele>
        <time>2019-12-30T13:08:08.000Z</time>
      </trkpt>
      <trkpt lat="49.35078" lon="1.07295">
        <ele>75</ele>
        <time>2019-12-30T13:08:09.000Z</time>
      </trkpt>
      <trkpt lat="49.35076" lon="1.07293">
        <ele>75</ele>
        <time>2019-12-30T13:08:10.000Z</time>
      </trkpt>
      <trkpt lat="49.35074" lon="1.07291">
        <ele>75</ele>
        <time>2019-12-30T13:08:11.000Z</time>
      </trkpt>
      <trkpt lat="49.35073" lon="1.0729">
        <ele>75</ele>
        <time>2019-12-30T13:08:12.000Z</time>
      </trkpt>
      <trkpt lat="49.3507" lon="1.07288">
        <ele>75</ele>
        <time>2019-12-30T13:08:13.000Z</time>
      </trkpt>
      <trkpt lat="49.35068" lon="1.07287">
        <ele>76</ele>
        <time>2019-12-30T13:08:14.000Z</time>
      </trkpt>
      <trkpt lat="49.35066" lon="1.07286">
        <ele>76</ele>
        <time>2019-12-30T13:08:15.000Z</time>
      </trkpt>
      <trkpt lat="49.35064" lon="1.07285">
        <ele>76</ele>
        <time>2019-12-30T13:08:16.000Z</time>
      </trkpt>
      <trkpt lat="49.35063" lon="1.07282">
        <ele>76</ele>
        <time>2019-12-30T13:08:17.000Z</time>
      </trkpt>
      <trkpt lat="49.35062" lon="1.0728">
        <ele>76</ele>
        <time>2019-12-30T13:08:18.000Z</time>
      </trkpt>
      <trkpt lat="49.35061" lon="1.07277">
        <ele>76</ele>
        <time>2019-12-30T13:08:19.000Z</time>
      </trkpt>
      <trkpt lat="49.35061" lon="1.07274">
        <ele>76</ele>
        <time>2019-12-30T13:08:20.000Z</time>
      </trkpt>
      <trkpt lat="49.35061" lon="1.0727">
        <ele>76</ele>
        <time>2019-12-30T13:08:21.000Z</time>
      </trkpt>
      <trkpt lat="49.3506" lon="1.07267">
        <ele>76</ele>
        <time>2019-12-30T13:08:22.000Z</time>
      </trkpt>
      <trkpt lat="49.35061" lon="1.07264">
        <ele>76</ele>
        <time>2019-12-30T13:08:23.000Z</time>
      </trkpt>
      <trkpt lat="49.35061" lon="1.0726">
        <ele>76</ele>
        <time>2019-12-30T13:08:24.000Z</time>
      </trkpt>
      <trkpt lat="49.35061" lon="1.07257">
        <ele>76</ele>
        <time>2019-12-30T13:08:25.000Z</time>
      </trkpt>
      <trkpt lat="49.35061" lon="1.07253">
        <ele>76</ele>
        <time>2019-12-30T13:08:26.000Z</time>
      </trkpt>
      <trkpt lat="49.35061" lon="1.07249">
        <ele>76</ele>
        <time>2019-12-30T13:08:27.000Z</time>
      </trkpt>
      <trkpt lat="49.35061" lon="1.07246">
        <ele>76</ele>
        <time>2019-12-30T13:08:28.000Z</time>
      </trkpt>
      <trkpt lat="49.35062" lon="1.07242">
        <ele>76</ele>
        <time>2019-12-30T13:08:29.000Z</time>
      </trkpt>
      <trkpt lat="49.35062" lon="1.07239">
        <ele>76</ele>
        <time>2019-12-30T13:08:30.000Z</time>
      </trkpt>
      <trkpt lat="49.35062" lon="1.07235">
        <ele>76</ele>
        <time>2019-12-30T13:08:31.000Z</time>
      </trkpt>
      <trkpt lat="49.35062" lon="1.07231">
        <ele>76</ele>
        <time>2019-12-30T13:08:32.000Z</time>
      </trkpt>
      <trkpt lat="49.35062" lon="1.07227">
        <ele>77</ele>
        <time>2019-12-30T13:08:33.000Z</time>
      </trkpt>
      <trkpt lat="49.35062" lon="1.07223">
        <ele>77</ele>
        <time>2019-12-30T13:08:34.000Z</time>
      </trkpt>
      <trkpt lat="49.35062" lon="1.07219">
        <ele>77</ele>
        <time>2019-12-30T13:08:35.000Z</time>
      </trkpt>
      <trkpt lat="49.35062" lon="1.07215">
        <ele>77</ele>
        <time>2019-12-30T13:08:36.000Z</time>
      </trkpt>
      <trkpt lat="49.35062" lon="1.07211">
        <ele>77</ele>
        <time>2019-12-30T13:08:37.000Z</time>
      </trkpt>
      <trkpt lat="49.35062" lon="1.07207">
        <ele>77</ele>
        <time>2019-12-30T13:08:38.000Z</time>
      </trkpt>
      <trkpt lat="49.35062" lon="1.07203">
        <ele>77</ele>
        <time>2019-12-30T13:08:39.000Z</time>
      </trkpt>
      <trkpt lat="49.35062" lon="1.07199">
        <ele>77</ele>
        <time>2019-12-30T13:08:40.000Z</time>
      </trkpt>
      <trkpt lat="49.35062" lon="1.07194">
        <ele>77</ele>
        <time>2019-12-30T13:08:41.000Z</time>
      </trkpt>
      <trkpt lat="49.35062" lon="1.0719">
        <ele>77</ele>
        <time>2019-12-30T13:08:42.000Z</time>
      </trkpt>
      <trkpt lat="49.35062" lon="1.07186">
        <ele>77</ele>
        <time>2019-12-30T13:08:43.000Z</time>
      </trkpt>
      <trkpt lat="49.35061" lon="1.07182">
        <ele>77</ele>
        <time>2019-12-30T13:08:44.000Z</time>
      </trkpt>
      <trkpt lat="49.3506" lon="1.07179">
        <ele>77</ele>
        <time>2019-12-30T13:08:45.000Z</time>
      </trkpt>
      <trkpt lat="49.35058" lon="1.07178">
        <ele>77</ele>
        <time>2019-12-30T13:08:46.000Z</time>
      </trkpt>
      <trkpt lat="49.35056" lon="1.07177">
        <ele>77</ele>
        <time>2019-12-30T13:08:47.000Z</time>
      </trkpt>
      <trkpt lat="49.35053" lon="1.07177">
        <ele>77</ele>
        <time>2019-12-30T13:08:48.000Z</time>
      </trkpt>
      <trkpt lat="49.3505" lon="1.07176">
        <ele>77</ele>
        <time>2019-12-30T13:08:49.000Z</time>
      </trkpt>
      <trkpt lat="49.35047" lon="1.07174">
        <ele>77</ele>
        <time>2019-12-30T13:08:50.000Z</time>
      </trkpt>
      <trkpt lat="49.35044" lon="1.07173">
        <ele>77</ele>
        <time>2019-12-30T13:08:51.000Z</time>
      </trkpt>
      <trkpt lat="49.35041" lon="1.07172">
        <ele>77</ele>
        <time>2019-12-30T13:08:52.000Z</time>
      </trkpt>
      <trkpt lat="49.35038" lon="1.0717">
        <ele>76</ele>
        <time>2019-12-30T13:08:53.000Z</time>
      </trkpt>
      <trkpt lat="49.35035" lon="1.07168">
        <ele>76</ele>
        <time>2019-12-30T13:08:54.000Z</time>
      </trkpt>
      <trkpt lat="49.35032" lon="1.07166">
        <ele>76</ele>
        <time>2019-12-30T13:08:55.000Z</time>
      </trkpt>
      <trkpt lat="49.35029" lon="1.07162">
        <ele>76</ele>
        <time>2019-12-30T13:08:56.000Z</time>
      </trkpt>
      <trkpt lat="49.35026" lon="1.0716">
        <ele>76</ele>
        <time>2019-12-30T13:08:57.000Z</time>
      </trkpt>
      <trkpt lat="49.35023" lon="1.07157">
        <ele>76</ele>
        <time>2019-12-30T13:08:58.000Z</time>
      </trkpt>
      <trkpt lat="49.35021" lon="1.07155">
        <ele>76</ele>
        <time>2019-12-30T13:08:59.000Z</time>
      </trkpt>
      <trkpt lat="49.35017" lon="1.07153">
        <ele>76</ele>
        <time>2019-12-30T13:09:00.000Z</time>
      </trkpt>
      <trkpt lat="49.35014" lon="1.0715">
        <ele>76</ele>
        <time>2019-12-30T13:09:01.000Z</time>
      </trkpt>
      <trkpt lat="49.35011" lon="1.07147">
        <ele>76</ele>
        <time>2019-12-30T13:09:02.000Z</time>
      </trkpt>
      <trkpt lat="49.35008" lon="1.07145">
        <ele>76</ele>
        <time>2019-12-30T13:09:03.000Z</time>
      </trkpt>
      <trkpt lat="49.35005" lon="1.07143">
        <ele>75</ele>
        <time>2019-12-30T13:09:04.000Z</time>
      </trkpt>
      <trkpt lat="49.35002" lon="1.07141">
        <ele>75</ele>
        <time>2019-12-30T13:09:05.000Z</time>
      </trkpt>
      <trkpt lat="49.34999" lon="1.07138">
        <ele>75</ele>
        <time>2019-12-30T13:09:06.000Z</time>
      </trkpt>
      <trkpt lat="49.34996" lon="1.07136">
        <ele>75</ele>
        <time>2019-12-30T13:09:07.000Z</time>
      </trkpt>
      <trkpt lat="49.34992" lon="1.07134">
        <ele>76</ele>
        <time>2019-12-30T13:09:08.000Z</time>
      </trkpt>
      <trkpt lat="49.34989" lon="1.07132">
        <ele>76</ele>
        <time>2019-12-30T13:09:09.000Z</time>
      </trkpt>
      <trkpt lat="49.34986" lon="1.07129">
        <ele>76</ele>
        <time>2019-12-30T13:09:10.000Z</time>
      </trkpt>
      <trkpt lat="49.34982" lon="1.07127">
        <ele>76</ele>
        <time>2019-12-30T13:09:11.000Z</time>
      </trkpt>
      <trkpt lat="49.34979" lon="1.07125">
        <ele>76</ele>
        <time>2019-12-30T13:09:12.000Z</time>
      </trkpt>
      <trkpt lat="49.34975" lon="1.07123">
        <ele>76</ele>
        <time>2019-12-30T13:09:13.000Z</time>
      </trkpt>
      <trkpt lat="49.34972" lon="1.0712">
        <ele>76</ele>
        <time>2019-12-30T13:09:14.000Z</time>
      </trkpt>
      <trkpt lat="49.34969" lon="1.07118">
        <ele>76</ele>
        <time>2019-12-30T13:09:15.000Z</time>
      </trkpt>
      <trkpt lat="49.34965" lon="1.07116">
        <ele>76</ele>
        <time>2019-12-30T13:09:16.000Z</time>
      </trkpt>
      <trkpt lat="49.34962" lon="1.07114">
        <ele>76</ele>
        <time>2019-12-30T13:09:17.000Z</time>
      </trkpt>
      <trkpt lat="49.34958" lon="1.07112">
        <ele>76</ele>
        <time>2019-12-30T13:09:18.000Z</time>
      </trkpt>
      <trkpt lat="49.34955" lon="1.0711">
        <ele>76</ele>
        <time>2019-12-30T13:09:19.000Z</time>
      </trkpt>
      <trkpt lat="49.34951" lon="1.07108">
        <ele>76</ele>
        <time>2019-12-30T13:09:20.000Z</time>
      </trkpt>
      <trkpt lat="49.34948" lon="1.07106">
        <ele>76</ele>
        <time>2019-12-30T13:09:21.000Z</time>
      </trkpt>
      <trkpt lat="49.34945" lon="1.07104">
        <ele>76</ele>
        <time>2019-12-30T13:09:22.000Z</time>
      </trkpt>
      <trkpt lat="49.34941" lon="1.07102">
        <ele>76</ele>
        <time>2019-12-30T13:09:23.000Z</time>
      </trkpt>
      <trkpt lat="49.34938" lon="1.071">
        <ele>76</ele>
        <time>2019-12-30T13:09:24.000Z</time>
      </trkpt>
      <trkpt lat="49.34934" lon="1.07098">
        <ele>76</ele>
        <time>2019-12-30T13:09:25.000Z</time>
      </trkpt>
      <trkpt lat="49.3493" lon="1.07095">
        <ele>76</ele>
        <time>2019-12-30T13:09:26.000Z</time>
      </trkpt>
      <trkpt lat="49.34927" lon="1.07093">
        <ele>76</ele>
        <time>2019-12-30T13:09:27.000Z</time>
      </trkpt>
      <trkpt lat="49.34923" lon="1.0709">
        <ele>76</ele>
        <time>2019-12-30T13:09:28.000Z</time>
      </trkpt>
      <trkpt lat="49.34919" lon="1.07087">
        <ele>76</ele>
        <time>2019-12-30T13:09:29.000Z</time>
      </trkpt>
      <trkpt lat="49.34915" lon="1.07086">
        <ele>76</ele>
        <time>2019-12-30T13:09:30.000Z</time>
      </trkpt>
      <trkpt lat="49.34911" lon="1.07083">
        <ele>76</ele>
        <time>2019-12-30T13:09:31.000Z</time>
      </trkpt>
      <trkpt lat="49.34907" lon="1.07081">
        <ele>77</ele>
        <time>2019-12-30T13:09:32.000Z</time>
      </trkpt>
      <trkpt lat="49.34903" lon="1.07078">
        <ele>77</ele>
        <time>2019-12-30T13:09:33.000Z</time>
      </trkpt>
      <trkpt lat="49.349" lon="1.07075">
        <ele>77</ele>
        <time>2019-12-30T13:09:34.000Z</time>
      </trkpt>
      <trkpt lat="49.34896" lon="1.07073">
        <ele>77</ele>
        <time>2019-12-30T13:09:35.000Z</time>
      </trkpt>
      <trkpt lat="49.34892" lon="1.0707">
        <ele>77</ele>
        <time>2019-12-30T13:09:36.000Z</time>
      </trkpt>
      <trkpt lat="49.34888" lon="1.07067">
        <ele>76</ele>
        <time>2019-12-30T13:09:37.000Z</time>
      </trkpt>
      <trkpt lat="49.34885" lon="1.07064">
        <ele>76</ele>
        <time>2019-12-30T13:09:38.000Z</time>
      </trkpt>
      <trkpt lat="49.34881" lon="1.07062">
        <ele>77</ele>
        <time>2019-12-30T13:09:39.000Z</time>
      </trkpt>
      <trkpt lat="49.34877" lon="1.07059">
        <ele>77</ele>
        <time>2019-12-30T13:09:40.000Z</time>
      </trkpt>
      <trkpt lat="49.34873" lon="1.07056">
        <ele>77</ele>
        <time>2019-12-30T13:09:41.000Z</time>
      </trkpt>
      <trkpt lat="49.3487" lon="1.07053">
        <ele>77</ele>
        <time>2019-12-30T13:09:42.000Z</time>
      </trkpt>
      <trkpt lat="49.34866" lon="1.0705">
        <ele>77</ele>
        <time>2019-12-30T13:09:43.000Z</time>
      </trkpt>
      <trkpt lat="49.34863" lon="1.07047">
        <ele>77</ele>
        <time>2019-12-30T13:09:44.000Z</time>
      </trkpt>
      <trkpt lat="49.34859" lon="1.07044">
        <ele>77</ele>
        <time>2019-12-30T13:09:45.000Z</time>
      </trkpt>
      <trkpt lat="49.34855" lon="1.07041">
        <ele>77</ele>
        <time>2019-12-30T13:09:46.000Z</time>
      </trkpt>
      <trkpt lat="49.34851" lon="1.07038">
        <ele>77</ele>
        <time>2019-12-30T13:09:47.000Z</time>
      </trkpt>
      <trkpt lat="49.34847" lon="1.07034">
        <ele>77</ele>
        <time>2019-12-30T13:09:48.000Z</time>
      </trkpt>
      <trkpt lat="49.34843" lon="1.07031">
        <ele>77</ele>
        <time>2019-12-30T13:09:49.000Z</time>
      </trkpt>
      <trkpt lat="49.34839" lon="1.07028">
        <ele>77</ele>
        <time>2019-12-30T13:09:50.000Z</time>
      </trkpt>
      <trkpt lat="49.34836" lon="1.07025">
        <ele>77</ele>
        <time>2019-12-30T13:09:51.000Z</time>
      </trkpt>
      <trkpt lat="49.34832" lon="1.07021">
        <ele>77</ele>
        <time>2019-12-30T13:09:52.000Z</time>
      </trkpt>
      <trkpt lat="49.34828" lon="1.07019">
        <ele>77</ele>
        <time>2019-12-30T13:09:53.000Z</time>
      </trkpt>
      <trkpt lat="49.34824" lon="1.07017">
        <ele>77</ele>
        <time>2019-12-30T13:09:54.000Z</time>
      </trkpt>
      <trkpt lat="49.3482" lon="1.07016">
        <ele>77</ele>
        <time>2019-12-30T13:09:55.000Z</time>
      </trkpt>
      <trkpt lat="49.34817" lon="1.07014">
        <ele>77</ele>
        <time>2019-12-30T13:09:56.000Z</time>
      </trkpt>
      <trkpt lat="49.34814" lon="1.07012">
        <ele>77</ele>
        <time>2019-12-30T13:09:57.000Z</time>
      </trkpt>
      <trkpt lat="49.34812" lon="1.07008">
        <ele>77</ele>
        <time>2019-12-30T13:09:58.000Z</time>
      </trkpt>
      <trkpt lat="49.3481" lon="1.07003">
        <ele>77</ele>
        <time>2019-12-30T13:09:59.000Z</time>
      </trkpt>
      <trkpt lat="49.34811" lon="1.06999">
        <ele>77</ele>
        <time>2019-12-30T13:10:00.000Z</time>
      </trkpt>
      <trkpt lat="49.34811" lon="1.06994">
        <ele>76</ele>
        <time>2019-12-30T13:10:01.000Z</time>
      </trkpt>
      <trkpt lat="49.34812" lon="1.0699">
        <ele>76</ele>
        <time>2019-12-30T13:10:02.000Z</time>
      </trkpt>
      <trkpt lat="49.34814" lon="1.06986">
        <ele>76</ele>
        <time>2019-12-30T13:10:03.000Z</time>
      </trkpt>
      <trkpt lat="49.34815" lon="1.06982">
        <ele>76</ele>
        <time>2019-12-30T13:10:04.000Z</time>
      </trkpt>
      <trkpt lat="49.34815" lon="1.06977">
        <ele>76</ele>
        <time>2019-12-30T13:10:05.000Z</time>
      </trkpt>
      <trkpt lat="49.34815" lon="1.06971">
        <ele>76</ele>
        <time>2019-12-30T13:10:06.000Z</time>
      </trkpt>
      <trkpt lat="49.34815" lon="1.06965">
        <ele>76</ele>
        <time>2019-12-30T13:10:07.000Z</time>
      </trkpt>
      <trkpt lat="49.34816" lon="1.0696">
        <ele>76</ele>
        <time>2019-12-30T13:10:08.000Z</time>
      </trkpt>
      <trkpt lat="49.34816" lon="1.06955">
        <ele>76</ele>
        <time>2019-12-30T13:10:09.000Z</time>
      </trkpt>
      <trkpt lat="49.34817" lon="1.0695">
        <ele>76</ele>
        <time>2019-12-30T13:10:10.000Z</time>
      </trkpt>
      <trkpt lat="49.34819" lon="1.06945">
        <ele>76</ele>
        <time>2019-12-30T13:10:11.000Z</time>
      </trkpt>
      <trkpt lat="49.3482" lon="1.0694">
        <ele>76</ele>
        <time>2019-12-30T13:10:12.000Z</time>
      </trkpt>
      <trkpt lat="49.34822" lon="1.06936">
        <ele>76</ele>
        <time>2019-12-30T13:10:13.000Z</time>
      </trkpt>
      <trkpt lat="49.34823" lon="1.06931">
        <ele>76</ele>
        <time>2019-12-30T13:10:14.000Z</time>
      </trkpt>
      <trkpt lat="49.34823" lon="1.06926">
        <ele>76</ele>
        <time>2019-12-30T13:10:15.000Z</time>
      </trkpt>
      <trkpt lat="49.34824" lon="1.06922">
        <ele>76</ele>
        <time>2019-12-30T13:10:16.000Z</time>
      </trkpt>
      <trkpt lat="49.34825" lon="1.06916">
        <ele>76</ele>
        <time>2019-12-30T13:10:17.000Z</time>
      </trkpt>
      <trkpt lat="49.34827" lon="1.06911">
        <ele>76</ele>
        <time>2019-12-30T13:10:18.000Z</time>
      </trkpt>
      <trkpt lat="49.34829" lon="1.06906">
        <ele>76</ele>
        <time>2019-12-30T13:10:19.000Z</time>
      </trkpt>
      <trkpt lat="49.3483" lon="1.06901">
        <ele>76</ele>
        <time>2019-12-30T13:10:20.000Z</time>
      </trkpt>
      <trkpt lat="49.34831" lon="1.06896">
        <ele>76</ele>
        <time>2019-12-30T13:10:21.000Z</time>
      </trkpt>
      <trkpt lat="49.34831" lon="1.0689">
        <ele>76</ele>
        <time>2019-12-30T13:10:22.000Z</time>
      </trkpt>
      <trkpt lat="49.34832" lon="1.06885">
        <ele>76</ele>
        <time>2019-12-30T13:10:23.000Z</time>
      </trkpt>
      <trkpt lat="49.34834" lon="1.0688">
        <ele>76</ele>
        <time>2019-12-30T13:10:24.000Z</time>
      </trkpt>
      <trkpt lat="49.34836" lon="1.06875">
        <ele>77</ele>
        <time>2019-12-30T13:10:25.000Z</time>
      </trkpt>
      <trkpt lat="49.34837" lon="1.06871">
        <ele>77</ele>
        <time>2019-12-30T13:10:26.000Z</time>
      </trkpt>
      <trkpt lat="49.34839" lon="1.06867">
        <ele>77</ele>
        <time>2019-12-30T13:10:27.000Z</time>
      </trkpt>
      <trkpt lat="49.3484" lon="1.06864">
        <ele>77</ele>
        <time>2019-12-30T13:10:28.000Z</time>
      </trkpt>
      <trkpt lat="49.34842" lon="1.06861">
        <ele>77</ele>
        <time>2019-12-30T13:10:29.000Z</time>
      </trkpt>
      <trkpt lat="49.34845" lon="1.06858">
        <ele>78</ele>
        <time>2019-12-30T13:10:30.000Z</time>
      </trkpt>
      <trkpt lat="49.34847" lon="1.06855">
        <ele>78</ele>
        <time>2019-12-30T13:10:31.000Z</time>
      </trkpt>
      <trkpt lat="49.34849" lon="1.06852">
        <ele>78</ele>
        <time>2019-12-30T13:10:32.000Z</time>
      </trkpt>
      <trkpt lat="49.34851" lon="1.06848">
        <ele>78</ele>
        <time>2019-12-30T13:10:33.000Z</time>
      </trkpt>
      <trkpt lat="49.34853" lon="1.06843">
        <ele>78</ele>
        <time>2019-12-30T13:10:34.000Z</time>
      </trkpt>
      <trkpt lat="49.34854" lon="1.06839">
        <ele>78</ele>
        <time>2019-12-30T13:10:35.000Z</time>
      </trkpt>
      <trkpt lat="49.34855" lon="1.06834">
        <ele>78</ele>
        <time>2019-12-30T13:10:36.000Z</time>
      </trkpt>
      <trkpt lat="49.34857" lon="1.06829">
        <ele>79</ele>
        <time>2019-12-30T13:10:37.000Z</time>
      </trkpt>
      <trkpt lat="49.34858" lon="1.06824">
        <ele>79</ele>
        <time>2019-12-30T13:10:38.000Z</time>
      </trkpt>
      <trkpt lat="49.3486" lon="1.0682">
        <ele>79</ele>
        <time>2019-12-30T13:10:39.000Z</time>
      </trkpt>
      <trkpt lat="49.34861" lon="1.06815">
        <ele>79</ele>
        <time>2019-12-30T13:10:40.000Z</time>
      </trkpt>
      <trkpt lat="49.34862" lon="1.06811">
        <ele>79</ele>
        <time>2019-12-30T13:10:41.000Z</time>
      </trkpt>
      <trkpt lat="49.34863" lon="1.06806">
        <ele>79</ele>
        <time>2019-12-30T13:10:42.000Z</time>
      </trkpt>
      <trkpt lat="49.34864" lon="1.06801">
        <ele>79</ele>
        <time>2019-12-30T13:10:43.000Z</time>
      </trkpt>
      <trkpt lat="49.34864" lon="1.06795">
        <ele>79</ele>
        <time>2019-12-30T13:10:44.000Z</time>
      </trkpt>
      <trkpt lat="49.34864" lon="1.06789">
        <ele>80</ele>
        <time>2019-12-30T13:10:45.000Z</time>
      </trkpt>
      <trkpt lat="49.34865" lon="1.06783">
        <ele>80</ele>
        <time>2019-12-30T13:10:46.000Z</time>
      </trkpt>
      <trkpt lat="49.34866" lon="1.06778">
        <ele>80</ele>
        <time>2019-12-30T13:10:47.000Z</time>
      </trkpt>
      <trkpt lat="49.34866" lon="1.06773">
        <ele>80</ele>
        <time>2019-12-30T13:10:48.000Z</time>
      </trkpt>
      <trkpt lat="49.34867" lon="1.06768">
        <ele>80</ele>
        <time>2019-12-30T13:10:49.000Z</time>
      </trkpt>
      <trkpt lat="49.34867" lon="1.06762">
        <ele>81</ele>
        <time>2019-12-30T13:10:50.000Z</time>
      </trkpt>
      <trkpt lat="49.34868" lon="1.06756">
        <ele>81</ele>
        <time>2019-12-30T13:10:51.000Z</time>
      </trkpt>
      <trkpt lat="49.34868" lon="1.06749">
        <ele>81</ele>
        <time>2019-12-30T13:10:52.000Z</time>
      </trkpt>
      <trkpt lat="49.3487" lon="1.06744">
        <ele>81</ele>
        <time>2019-12-30T13:10:53.000Z</time>
      </trkpt>
      <trkpt lat="49.34872" lon="1.06739">
        <ele>82</ele>
        <time>2019-12-30T13:10:54.000Z</time>
      </trkpt>
      <trkpt lat="49.34874" lon="1.06735">
        <ele>82</ele>
        <time>2019-12-30T13:10:55.000Z</time>
      </trkpt>
      <trkpt lat="49.34875" lon="1.0673">
        <ele>82</ele>
        <time>2019-12-30T13:10:56.000Z</time>
      </trkpt>
      <trkpt lat="49.34876" lon="1.06726">
        <ele>82</ele>
        <time>2019-12-30T13:10:57.000Z</time>
      </trkpt>
      <trkpt lat="49.34878" lon="1.06721">
        <ele>82</ele>
        <time>2019-12-30T13:10:58.000Z</time>
      </trkpt>
      <trkpt lat="49.3488" lon="1.06716">
        <ele>82</ele>
        <time>2019-12-30T13:10:59.000Z</time>
      </trkpt>
      <trkpt lat="49.34882" lon="1.06713">
        <ele>83</ele>
        <time>2019-12-30T13:11:00.000Z</time>
      </trkpt>
      <trkpt lat="49.34883" lon="1.06709">
        <ele>83</ele>
        <time>2019-12-30T13:11:01.000Z</time>
      </trkpt>
      <trkpt lat="49.34885" lon="1.06706">
        <ele>83</ele>
        <time>2019-12-30T13:11:02.000Z</time>
      </trkpt>
      <trkpt lat="49.34887" lon="1.06703">
        <ele>83</ele>
        <time>2019-12-30T13:11:03.000Z</time>
      </trkpt>
      <trkpt lat="49.34889" lon="1.067">
        <ele>83</ele>
        <time>2019-12-30T13:11:04.000Z</time>
      </trkpt>
      <trkpt lat="49.34892" lon="1.06698">
        <ele>83</ele>
        <time>2019-12-30T13:11:05.000Z</time>
      </trkpt>
      <trkpt lat="49.34893" lon="1.06694">
        <ele>83</ele>
        <time>2019-12-30T13:11:06.000Z</time>
      </trkpt>
      <trkpt lat="49.34894" lon="1.0669">
        <ele>83</ele>
        <time>2019-12-30T13:11:07.000Z</time>
      </trkpt>
      <trkpt lat="49.34894" lon="1.06685">
        <ele>84</ele>
        <time>2019-12-30T13:11:08.000Z</time>
      </trkpt>
      <trkpt lat="49.34894" lon="1.0668">
        <ele>84</ele>
        <time>2019-12-30T13:11:09.000Z</time>
      </trkpt>
      <trkpt lat="49.34894" lon="1.06674">
        <ele>84</ele>
        <time>2019-12-30T13:11:10.000Z</time>
      </trkpt>
      <trkpt lat="49.34894" lon="1.06669">
        <ele>84</ele>
        <time>2019-12-30T13:11:11.000Z</time>
      </trkpt>
      <trkpt lat="49.34895" lon="1.06663">
        <ele>84</ele>
        <time>2019-12-30T13:11:12.000Z</time>
      </trkpt>
      <trkpt lat="49.34896" lon="1.06659">
        <ele>85</ele>
        <time>2019-12-30T13:11:13.000Z</time>
      </trkpt>
      <trkpt lat="49.34898" lon="1.06655">
        <ele>85</ele>
        <time>2019-12-30T13:11:14.000Z</time>
      </trkpt>
      <trkpt lat="49.349" lon="1.06651">
        <ele>85</ele>
        <time>2019-12-30T13:11:15.000Z</time>
      </trkpt>
      <trkpt lat="49.34901" lon="1.06648">
        <ele>85</ele>
        <time>2019-12-30T13:11:16.000Z</time>
      </trkpt>
      <trkpt lat="49.34903" lon="1.06645">
        <ele>85</ele>
        <time>2019-12-30T13:11:17.000Z</time>
      </trkpt>
      <trkpt lat="49.34904" lon="1.06641">
        <ele>85</ele>
        <time>2019-12-30T13:11:18.000Z</time>
      </trkpt>
      <trkpt lat="49.34906" lon="1.06637">
        <ele>86</ele>
        <time>2019-12-30T13:11:19.000Z</time>
      </trkpt>
      <trkpt lat="49.34907" lon="1.06633">
        <ele>86</ele>
        <time>2019-12-30T13:11:20.000Z</time>
      </trkpt>
      <trkpt lat="49.34909" lon="1.06629">
        <ele>86</ele>
        <time>2019-12-30T13:11:21.000Z</time>
      </trkpt>
      <trkpt lat="49.34911" lon="1.06626">
        <ele>86</ele>
        <time>2019-12-30T13:11:22.000Z</time>
      </trkpt>
      <trkpt lat="49.34914" lon="1.06624">
        <ele>86</ele>
        <time>2019-12-30T13:11:23.000Z</time>
      </trkpt>
      <trkpt lat="49.34916" lon="1.06623">
        <ele>86</ele>
        <time>2019-12-30T13:11:24.000Z</time>
      </trkpt>
      <trkpt lat="49.34918" lon="1.06621">
        <ele>86</ele>
        <time>2019-12-30T13:11:25.000Z</time>
      </trkpt>
      <trkpt lat="49.3492" lon="1.06618">
        <ele>86</ele>
        <time>2019-12-30T13:11:26.000Z</time>
      </trkpt>
      <trkpt lat="49.34921" lon="1.06615">
        <ele>86</ele>
        <time>2019-12-30T13:11:27.000Z</time>
      </trkpt>
      <trkpt lat="49.34922" lon="1.06611">
        <ele>86</ele>
        <time>2019-12-30T13:11:28.000Z</time>
      </trkpt>
      <trkpt lat="49.34922" lon="1.06607">
        <ele>86</ele>
        <time>2019-12-30T13:11:29.000Z</time>
      </trkpt>
      <trkpt lat="49.34923" lon="1.06602">
        <ele>86</ele>
        <time>2019-12-30T13:11:30.000Z</time>
      </trkpt>
      <trkpt lat="49.34924" lon="1.06597">
        <ele>86</ele>
        <time>2019-12-30T13:11:31.000Z</time>
      </trkpt>
      <trkpt lat="49.34924" lon="1.06591">
        <ele>86</ele>
        <time>2019-12-30T13:11:32.000Z</time>
      </trkpt>
      <trkpt lat="49.34925" lon="1.06585">
        <ele>86</ele>
        <time>2019-12-30T13:11:33.000Z</time>
      </trkpt>
      <trkpt lat="49.34927" lon="1.06581">
        <ele>86</ele>
        <time>2019-12-30T13:11:34.000Z</time>
      </trkpt>
      <trkpt lat="49.34929" lon="1.06577">
        <ele>86</ele>
        <time>2019-12-30T13:11:35.000Z</time>
      </trkpt>
      <trkpt lat="49.34931" lon="1.06575">
        <ele>86</ele>
        <time>2019-12-30T13:11:36.000Z</time>
      </trkpt>
      <trkpt lat="49.34932" lon="1.06571">
        <ele>86</ele>
        <time>2019-12-30T13:11:37.000Z</time>
      </trkpt>
      <trkpt lat="49.34933" lon="1.06566">
        <ele>86</ele>
        <time>2019-12-30T13:11:38.000Z</time>
      </trkpt>
      <trkpt lat="49.34933" lon="1.06561">
        <ele>86</ele>
        <time>2019-12-30T13:11:39.000Z</time>
      </trkpt>
      <trkpt lat="49.34935" lon="1.06556">
        <ele>86</ele>
        <time>2019-12-30T13:11:40.000Z</time>
      </trkpt>
      <trkpt lat="49.34936" lon="1.06552">
        <ele>86</ele>
        <time>2019-12-30T13:11:41.000Z</time>
      </trkpt>
      <trkpt lat="49.34937" lon="1.06548">
        <ele>86</ele>
        <time>2019-12-30T13:11:42.000Z</time>
      </trkpt>
      <trkpt lat="49.34937" lon="1.06543">
        <ele>86</ele>
        <time>2019-12-30T13:11:43.000Z</time>
      </trkpt>
      <trkpt lat="49.34938" lon="1.06539">
        <ele>87</ele>
        <time>2019-12-30T13:11:44.000Z</time>
      </trkpt>
      <trkpt lat="49.3494" lon="1.06535">
        <ele>87</ele>
        <time>2019-12-30T13:11:45.000Z</time>
      </trkpt>
      <trkpt lat="49.34942" lon="1.06532">
        <ele>87</ele>
        <time>2019-12-30T13:11:46.000Z</time>
      </trkpt>
      <trkpt lat="49.34944" lon="1.0653">
        <ele>87</ele>
        <time>2019-12-30T13:11:47.000Z</time>
      </trkpt>
      <trkpt lat="49.34947" lon="1.06528">
        <ele>87</ele>
        <time>2019-12-30T13:11:48.000Z</time>
      </trkpt>
      <trkpt lat="49.3495" lon="1.06527">
        <ele>87</ele>
        <time>2019-12-30T13:11:49.000Z</time>
      </trkpt>
      <trkpt lat="49.34952" lon="1.06528">
        <ele>87</ele>
        <time>2019-12-30T13:11:50.000Z</time>
      </trkpt>
      <trkpt lat="49.34954" lon="1.06528">
        <ele>87</ele>
        <time>2019-12-30T13:11:51.000Z</time>
      </trkpt>
      <trkpt lat="49.34956" lon="1.06528">
        <ele>86</ele>
        <time>2019-12-30T13:11:52.000Z</time>
      </trkpt>
      <trkpt lat="49.34958" lon="1.06528">
        <ele>86</ele>
        <time>2019-12-30T13:11:53.000Z</time>
      </trkpt>
      <trkpt lat="49.3496" lon="1.06526">
        <ele>86</ele>
        <time>2019-12-30T13:11:54.000Z</time>
      </trkpt>
      <trkpt lat="49.34961" lon="1.06523">
        <ele>86</ele>
        <time>2019-12-30T13:11:55.000Z</time>
      </trkpt>
      <trkpt lat="49.34963" lon="1.0652">
        <ele>86</ele>
        <time>2019-12-30T13:11:56.000Z</time>
      </trkpt>
      <trkpt lat="49.34965" lon="1.06518">
        <ele>86</ele>
        <time>2019-12-30T13:11:57.000Z</time>
      </trkpt>
      <trkpt lat="49.34967" lon="1.06515">
        <ele>86</ele>
        <time>2019-12-30T13:11:58.000Z</time>
      </trkpt>
      <trkpt lat="49.34969" lon="1.06512">
        <ele>86</ele>
        <time>2019-12-30T13:11:59.000Z</time>
      </trkpt>
      <trkpt lat="49.3497" lon="1.06509">
        <ele>85</ele>
        <time>2019-12-30T13:12:00.000Z</time>
      </trkpt>
      <trkpt lat="49.34971" lon="1.06505">
        <ele>85</ele>
        <time>2019-12-30T13:12:01.000Z</time>
      </trkpt>
      <trkpt lat="49.34972" lon="1.06501">
        <ele>86</ele>
        <time>2019-12-30T13:12:02.000Z</time>
      </trkpt>
      <trkpt lat="49.34973" lon="1.06498">
        <ele>86</ele>
        <time>2019-12-30T13:12:03.000Z</time>
      </trkpt>
      <trkpt lat="49.34975" lon="1.06495">
        <ele>86</ele>
        <time>2019-12-30T13:12:04.000Z</time>
      </trkpt>
      <trkpt lat="49.34977" lon="1.06494">
        <ele>86</ele>
        <time>2019-12-30T13:12:05.000Z</time>
      </trkpt>
      <trkpt lat="49.34978" lon="1.06494">
        <ele>86</ele>
        <time>2019-12-30T13:12:06.000Z</time>
      </trkpt>
      <trkpt lat="49.3498" lon="1.06492">
        <ele>86</ele>
        <time>2019-12-30T13:12:07.000Z</time>
      </trkpt>
      <trkpt lat="49.34981" lon="1.06491">
        <ele>86</ele>
        <time>2019-12-30T13:12:08.000Z</time>
      </trkpt>
      <trkpt lat="49.34982" lon="1.06488">
        <ele>86</ele>
        <time>2019-12-30T13:12:09.000Z</time>
      </trkpt>
      <trkpt lat="49.34983" lon="1.06486">
        <ele>86</ele>
        <time>2019-12-30T13:12:10.000Z</time>
      </trkpt>
      <trkpt lat="49.34984" lon="1.06484">
        <ele>86</ele>
        <time>2019-12-30T13:12:11.000Z</time>
      </trkpt>
      <trkpt lat="49.34985" lon="1.06482">
        <ele>86</ele>
        <time>2019-12-30T13:12:12.000Z</time>
      </trkpt>
      <trkpt lat="49.34986" lon="1.06481">
        <ele>86</ele>
        <time>2019-12-30T13:12:13.000Z</time>
      </trkpt>
      <trkpt lat="49.34987" lon="1.06479">
        <ele>86</ele>
        <time>2019-12-30T13:12:14.000Z</time>
      </trkpt>
      <trkpt lat="49.34989" lon="1.06478">
        <ele>86</ele>
        <time>2019-12-30T13:12:15.000Z</time>
      </trkpt>
      <trkpt lat="49.34991" lon="1.06477">
        <ele>86</ele>
        <time>2019-12-30T13:12:16.000Z</time>
      </trkpt>
      <trkpt lat="49.34993" lon="1.06475">
        <ele>86</ele>
        <time>2019-12-30T13:12:17.000Z</time>
      </trkpt>
      <trkpt lat="49.34994" lon="1.06473">
        <ele>86</ele>
        <time>2019-12-30T13:12:18.000Z</time>
      </trkpt>
      <trkpt lat="49.34995" lon="1.06471">
        <ele>87</ele>
        <time>2019-12-30T13:12:19.000Z</time>
      </trkpt>
      <trkpt lat="49.34995" lon="1.06467">
        <ele>87</ele>
        <time>2019-12-30T13:12:20.000Z</time>
      </trkpt>
      <trkpt lat="49.34995" lon="1.06464">
        <ele>87</ele>
        <time>2019-12-30T13:12:21.000Z</time>
      </trkpt>
      <trkpt lat="49.34994" lon="1.0646">
        <ele>87</ele>
        <time>2019-12-30T13:12:22.000Z</time>
      </trkpt>
      <trkpt lat="49.34992" lon="1.06455">
        <ele>87</ele>
        <time>2019-12-30T13:12:23.000Z</time>
      </trkpt>
      <trkpt lat="49.34992" lon="1.06449">
        <ele>87</ele>
        <time>2019-12-30T13:12:24.000Z</time>
      </trkpt>
      <trkpt lat="49.34993" lon="1.06443">
        <ele>87</ele>
        <time>2019-12-30T13:12:25.000Z</time>
      </trkpt>
      <trkpt lat="49.34995" lon="1.06438">
        <ele>87</ele>
        <time>2019-12-30T13:12:26.000Z</time>
      </trkpt>
      <trkpt lat="49.34996" lon="1.06436">
        <ele>87</ele>
        <time>2019-12-30T13:12:27.000Z</time>
      </trkpt>
      <trkpt lat="49.34998" lon="1.06434">
        <ele>88</ele>
        <time>2019-12-30T13:12:28.000Z</time>
      </trkpt>
      <trkpt lat="49.35" lon="1.06432">
        <ele>88</ele>
        <time>2019-12-30T13:12:29.000Z</time>
      </trkpt>
      <trkpt lat="49.35001" lon="1.06429">
        <ele>88</ele>
        <time>2019-12-30T13:12:30.000Z</time>
      </trkpt>
      <trkpt lat="49.35002" lon="1.06426">
        <ele>88</ele>
        <time>2019-12-30T13:12:31.000Z</time>
      </trkpt>
      <trkpt lat="49.35003" lon="1.06423">
        <ele>88</ele>
        <time>2019-12-30T13:12:32.000Z</time>
      </trkpt>
      <trkpt lat="49.35005" lon="1.06419">
        <ele>88</ele>
        <time>2019-12-30T13:12:33.000Z</time>
      </trkpt>
      <trkpt lat="49.35006" lon="1.06415">
        <ele>88</ele>
        <time>2019-12-30T13:12:34.000Z</time>
      </trkpt>
      <trkpt lat="49.35008" lon="1.06412">
        <ele>88</ele>
        <time>2019-12-30T13:12:35.000Z</time>
      </trkpt>
      <trkpt lat="49.35009" lon="1.06409">
        <ele>88</ele>
        <time>2019-12-30T13:12:36.000Z</time>
      </trkpt>
      <trkpt lat="49.35011" lon="1.06405">
        <ele>88</ele>
        <time>2019-12-30T13:12:37.000Z</time>
      </trkpt>
      <trkpt lat="49.35014" lon="1.06403">
        <ele>88</ele>
        <time>2019-12-30T13:12:38.000Z</time>
      </trkpt>
      <trkpt lat="49.35016" lon="1.06401">
        <ele>88</ele>
        <time>2019-12-30T13:12:39.000Z</time>
      </trkpt>
      <trkpt lat="49.35018" lon="1.06399">
        <ele>88</ele>
        <time>2019-12-30T13:12:40.000Z</time>
      </trkpt>
      <trkpt lat="49.35019" lon="1.06397">
        <ele>88</ele>
        <time>2019-12-30T13:12:41.000Z</time>
      </trkpt>
      <trkpt lat="49.35021" lon="1.06394">
        <ele>88</ele>
        <time>2019-12-30T13:12:42.000Z</time>
      </trkpt>
      <trkpt lat="49.35022" lon="1.0639">
        <ele>88</ele>
        <time>2019-12-30T13:12:43.000Z</time>
      </trkpt>
      <trkpt lat="49.35023" lon="1.06386">
        <ele>88</ele>
        <time>2019-12-30T13:12:44.000Z</time>
      </trkpt>
      <trkpt lat="49.35025" lon="1.06384">
        <ele>88</ele>
        <time>2019-12-30T13:12:45.000Z</time>
      </trkpt>
      <trkpt lat="49.35027" lon="1.06382">
        <ele>88</ele>
        <time>2019-12-30T13:12:46.000Z</time>
      </trkpt>
      <trkpt lat="49.35029" lon="1.06379">
        <ele>89</ele>
        <time>2019-12-30T13:12:47.000Z</time>
      </trkpt>
      <trkpt lat="49.3503" lon="1.06376">
        <ele>89</ele>
        <time>2019-12-30T13:12:48.000Z</time>
      </trkpt>
      <trkpt lat="49.35031" lon="1.06372">
        <ele>89</ele>
        <time>2019-12-30T13:12:49.000Z</time>
      </trkpt>
      <trkpt lat="49.35033" lon="1.06369">
        <ele>89</ele>
        <time>2019-12-30T13:12:50.000Z</time>
      </trkpt>
      <trkpt lat="49.35034" lon="1.06367">
        <ele>88</ele>
        <time>2019-12-30T13:12:51.000Z</time>
      </trkpt>
      <trkpt lat="49.35036" lon="1.06366">
        <ele>88</ele>
        <time>2019-12-30T13:12:52.000Z</time>
      </trkpt>
      <trkpt lat="49.35037" lon="1.06364">
        <ele>87</ele>
        <time>2019-12-30T13:12:53.000Z</time>
      </trkpt>
      <trkpt lat="49.35038" lon="1.06361">
        <ele>87</ele>
        <time>2019-12-30T13:12:54.000Z</time>
      </trkpt>
      <trkpt lat="49.35039" lon="1.06358">
        <ele>87</ele>
        <time>2019-12-30T13:12:55.000Z</time>
      </trkpt>
      <trkpt lat="49.3504" lon="1.06354">
        <ele>87</ele>
        <time>2019-12-30T13:12:56.000Z</time>
      </trkpt>
      <trkpt lat="49.3504" lon="1.06351">
        <ele>87</ele>
        <time>2019-12-30T13:12:57.000Z</time>
      </trkpt>
      <trkpt lat="49.35041" lon="1.06347">
        <ele>87</ele>
        <time>2019-12-30T13:12:58.000Z</time>
      </trkpt>
      <trkpt lat="49.35042" lon="1.06343">
        <ele>87</ele>
        <time>2019-12-30T13:12:59.000Z</time>
      </trkpt>
      <trkpt lat="49.35043" lon="1.0634">
        <ele>87</ele>
        <time>2019-12-30T13:13:00.000Z</time>
      </trkpt>
      <trkpt lat="49.35046" lon="1.06339">
        <ele>87</ele>
        <time>2019-12-30T13:13:01.000Z</time>
      </trkpt>
      <trkpt lat="49.35049" lon="1.06338">
        <ele>87</ele>
        <time>2019-12-30T13:13:02.000Z</time>
      </trkpt>
      <trkpt lat="49.35051" lon="1.06337">
        <ele>87</ele>
        <time>2019-12-30T13:13:03.000Z</time>
      </trkpt>
      <trkpt lat="49.35053" lon="1.06336">
        <ele>87</ele>
        <time>2019-12-30T13:13:04.000Z</time>
      </trkpt>
      <trkpt lat="49.35056" lon="1.06335">
        <ele>87</ele>
        <time>2019-12-30T13:13:05.000Z</time>
      </trkpt>
      <trkpt lat="49.35058" lon="1.06333">
        <ele>87</ele>
        <time>2019-12-30T13:13:06.000Z</time>
      </trkpt>
      <trkpt lat="49.3506" lon="1.06333">
        <ele>87</ele>
        <time>2019-12-30T13:13:07.000Z</time>
      </trkpt>
      <trkpt lat="49.35062" lon="1.06333">
        <ele>87</ele>
        <time>2019-12-30T13:13:08.000Z</time>
      </trkpt>
      <trkpt lat="49.35064" lon="1.06334">
        <ele>87</ele>
        <time>2019-12-30T13:13:09.000Z</time>
      </trkpt>
      <trkpt lat="49.35065" lon="1.06334">
        <ele>87</ele>
        <time>2019-12-30T13:13:10.000Z</time>
      </trkpt>
      <trkpt lat="49.35067" lon="1.06334">
        <ele>87</ele>
        <time>2019-12-30T13:13:11.000Z</time>
      </trkpt>
      <trkpt lat="49.35069" lon="1.06333">
        <ele>86</ele>
        <time>2019-12-30T13:13:12.000Z</time>
      </trkpt>
      <trkpt lat="49.35071" lon="1.06332">
        <ele>86</ele>
        <time>2019-12-30T13:13:13.000Z</time>
      </trkpt>
      <trkpt lat="49.35073" lon="1.06329">
        <ele>86</ele>
        <time>2019-12-30T13:13:14.000Z</time>
      </trkpt>
      <trkpt lat="49.35075" lon="1.06326">
        <ele>86</ele>
        <time>2019-12-30T13:13:15.000Z</time>
      </trkpt>
      <trkpt lat="49.35077" lon="1.06323">
        <ele>86</ele>
        <time>2019-12-30T13:13:16.000Z</time>
      </trkpt>
      <trkpt lat="49.35079" lon="1.06321">
        <ele>86</ele>
        <time>2019-12-30T13:13:17.000Z</time>
      </trkpt>
      <trkpt lat="49.35081" lon="1.06317">
        <ele>86</ele>
        <time>2019-12-30T13:13:18.000Z</time>
      </trkpt>
      <trkpt lat="49.35083" lon="1.06314">
        <ele>86</ele>
        <time>2019-12-30T13:13:19.000Z</time>
      </trkpt>
      <trkpt lat="49.35085" lon="1.06311">
        <ele>86</ele>
        <time>2019-12-30T13:13:20.000Z</time>
      </trkpt>
      <trkpt lat="49.35087" lon="1.06308">
        <ele>86</ele>
        <time>2019-12-30T13:13:21.000Z</time>
      </trkpt>
      <trkpt lat="49.35089" lon="1.06304">
        <ele>87</ele>
        <time>2019-12-30T13:13:22.000Z</time>
      </trkpt>
      <trkpt lat="49.3509" lon="1.063">
        <ele>87</ele>
        <time>2019-12-30T13:13:23.000Z</time>
      </trkpt>
      <trkpt lat="49.35092" lon="1.06297">
        <ele>87</ele>
        <time>2019-12-30T13:13:24.000Z</time>
      </trkpt>
      <trkpt lat="49.35093" lon="1.06293">
        <ele>87</ele>
        <time>2019-12-30T13:13:25.000Z</time>
      </trkpt>
      <trkpt lat="49.35095" lon="1.06289">
        <ele>87</ele>
        <time>2019-12-30T13:13:26.000Z</time>
      </trkpt>
      <trkpt lat="49.35097" lon="1.06286">
        <ele>87</ele>
        <time>2019-12-30T13:13:27.000Z</time>
      </trkpt>
      <trkpt lat="49.35098" lon="1.06282">
        <ele>87</ele>
        <time>2019-12-30T13:13:28.000Z</time>
      </trkpt>
      <trkpt lat="49.35099" lon="1.06278">
        <ele>87</ele>
        <time>2019-12-30T13:13:29.000Z</time>
      </trkpt>
      <trkpt lat="49.35099" lon="1.06274">
        <ele>87</ele>
        <time>2019-12-30T13:13:30.000Z</time>
      </trkpt>
      <trkpt lat="49.35099" lon="1.0627">
        <ele>87</ele>
        <time>2019-12-30T13:13:31.000Z</time>
      </trkpt>
      <trkpt lat="49.351" lon="1.06265">
        <ele>87</ele>
        <time>2019-12-30T13:13:32.000Z</time>
      </trkpt>
      <trkpt lat="49.351" lon="1.0626">
        <ele>87</ele>
        <time>2019-12-30T13:13:33.000Z</time>
      </trkpt>
      <trkpt lat="49.35101" lon="1.06255">
        <ele>87</ele>
        <time>2019-12-30T13:13:34.000Z</time>
      </trkpt>
      <trkpt lat="49.35103" lon="1.06252">
        <ele>87</ele>
        <time>2019-12-30T13:13:35.000Z</time>
      </trkpt>
      <trkpt lat="49.35105" lon="1.06248">
        <ele>87</ele>
        <time>2019-12-30T13:13:36.000Z</time>
      </trkpt>
      <trkpt lat="49.35106" lon="1.06243">
        <ele>87</ele>
        <time>2019-12-30T13:13:37.000Z</time>
      </trkpt>
      <trkpt lat="49.35108" lon="1.06239">
        <ele>87</ele>
        <time>2019-12-30T13:13:38.000Z</time>
      </trkpt>
      <trkpt lat="49.3511" lon="1.06235">
        <ele>87</ele>
        <time>2019-12-30T13:13:39.000Z</time>
      </trkpt>
      <trkpt lat="49.35112" lon="1.06231">
        <ele>87</ele>
        <time>2019-12-30T13:13:40.000Z</time>
      </trkpt>
      <trkpt lat="49.35113" lon="1.06227">
        <ele>87</ele>
        <time>2019-12-30T13:13:41.000Z</time>
      </trkpt>
      <trkpt lat="49.35115" lon="1.06223">
        <ele>87</ele>
        <time>2019-12-30T13:13:42.000Z</time>
      </trkpt>
      <trkpt lat="49.35116" lon="1.06219">
        <ele>87</ele>
        <time>2019-12-30T13:13:43.000Z</time>
      </trkpt>
      <trkpt lat="49.35117" lon="1.06215">
        <ele>87</ele>
        <time>2019-12-30T13:13:44.000Z</time>
      </trkpt>
      <trkpt lat="49.35118" lon="1.06211">
        <ele>87</ele>
        <time>2019-12-30T13:13:45.000Z</time>
      </trkpt>
      <trkpt lat="49.3512" lon="1.06207">
        <ele>87</ele>
        <time>2019-12-30T13:13:46.000Z</time>
      </trkpt>
      <trkpt lat="49.35122" lon="1.06203">
        <ele>87</ele>
        <time>2019-12-30T13:13:47.000Z</time>
      </trkpt>
      <trkpt lat="49.35124" lon="1.06199">
        <ele>87</ele>
        <time>2019-12-30T13:13:48.000Z</time>
      </trkpt>
      <trkpt lat="49.35126" lon="1.06196">
        <ele>87</ele>
        <time>2019-12-30T13:13:49.000Z</time>
      </trkpt>
      <trkpt lat="49.35127" lon="1.06192">
        <ele>87</ele>
        <time>2019-12-30T13:13:50.000Z</time>
      </trkpt>
      <trkpt lat="49.35128" lon="1.06188">
        <ele>87</ele>
        <time>2019-12-30T13:13:51.000Z</time>
      </trkpt>
      <trkpt lat="49.35129" lon="1.06183">
        <ele>87</ele>
        <time>2019-12-30T13:13:52.000Z</time>
      </trkpt>
      <trkpt lat="49.35129" lon="1.06179">
        <ele>87</ele>
        <time>2019-12-30T13:13:53.000Z</time>
      </trkpt>
      <trkpt lat="49.3513" lon="1.06174">
        <ele>87</ele>
        <time>2019-12-30T13:13:54.000Z</time>
      </trkpt>
      <trkpt lat="49.3513" lon="1.0617">
        <ele>87</ele>
        <time>2019-12-30T13:13:55.000Z</time>
      </trkpt>
      <trkpt lat="49.35131" lon="1.06166">
        <ele>88</ele>
        <time>2019-12-30T13:13:56.000Z</time>
      </trkpt>
      <trkpt lat="49.35131" lon="1.06161">
        <ele>88</ele>
        <time>2019-12-30T13:13:57.000Z</time>
      </trkpt>
      <trkpt lat="49.35132" lon="1.06156">
        <ele>88</ele>
        <time>2019-12-30T13:13:58.000Z</time>
      </trkpt>
      <trkpt lat="49.35131" lon="1.06152">
        <ele>88</ele>
        <time>2019-12-30T13:13:59.000Z</time>
      </trkpt>
      <trkpt lat="49.35131" lon="1.06146">
        <ele>89</ele>
        <time>2019-12-30T13:14:00.000Z</time>
      </trkpt>
      <trkpt lat="49.3513" lon="1.06141">
        <ele>89</ele>
        <time>2019-12-30T13:14:01.000Z</time>
      </trkpt>
      <trkpt lat="49.3513" lon="1.06136">
        <ele>89</ele>
        <time>2019-12-30T13:14:02.000Z</time>
      </trkpt>
      <trkpt lat="49.3513" lon="1.06131">
        <ele>90</ele>
        <time>2019-12-30T13:14:03.000Z</time>
      </trkpt>
      <trkpt lat="49.35131" lon="1.06126">
        <ele>90</ele>
        <time>2019-12-30T13:14:04.000Z</time>
      </trkpt>
      <trkpt lat="49.35132" lon="1.06121">
        <ele>91</ele>
        <time>2019-12-30T13:14:05.000Z</time>
      </trkpt>
      <trkpt lat="49.35133" lon="1.06117">
        <ele>91</ele>
        <time>2019-12-30T13:14:06.000Z</time>
      </trkpt>
      <trkpt lat="49.35135" lon="1.06114">
        <ele>91</ele>
        <time>2019-12-30T13:14:07.000Z</time>
      </trkpt>
      <trkpt lat="49.35137" lon="1.06111">
        <ele>91</ele>
        <time>2019-12-30T13:14:08.000Z</time>
      </trkpt>
      <trkpt lat="49.35139" lon="1.06108">
        <ele>91</ele>
        <time>2019-12-30T13:14:09.000Z</time>
      </trkpt>
      <trkpt lat="49.35141" lon="1.06105">
        <ele>91</ele>
        <time>2019-12-30T13:14:10.000Z</time>
      </trkpt>
      <trkpt lat="49.35143" lon="1.06102">
        <ele>91</ele>
        <time>2019-12-30T13:14:11.000Z</time>
      </trkpt>
      <trkpt lat="49.35145" lon="1.06099">
        <ele>91</ele>
        <time>2019-12-30T13:14:12.000Z</time>
      </trkpt>
      <trkpt lat="49.35147" lon="1.06095">
        <ele>91</ele>
        <time>2019-12-30T13:14:13.000Z</time>
      </trkpt>
      <trkpt lat="49.35148" lon="1.06092">
        <ele>91</ele>
        <time>2019-12-30T13:14:14.000Z</time>
      </trkpt>
      <trkpt lat="49.3515" lon="1.0609">
        <ele>91</ele>
        <time>2019-12-30T13:14:15.000Z</time>
      </trkpt>
      <trkpt lat="49.35152" lon="1.06088">
        <ele>91</ele>
        <time>2019-12-30T13:14:16.000Z</time>
      </trkpt>
      <trkpt lat="49.35154" lon="1.06086">
        <ele>91</ele>
        <time>2019-12-30T13:14:17.000Z</time>
      </trkpt>
      <trkpt lat="49.35155" lon="1.06082">
        <ele>91</ele>
        <time>2019-12-30T13:14:18.000Z</time>
      </trkpt>
      <trkpt lat="49.35157" lon="1.06078">
        <ele>91</ele>
        <time>2019-12-30T13:14:19.000Z</time>
      </trkpt>
      <trkpt lat="49.35159" lon="1.06075">
        <ele>91</ele>
        <time>2019-12-30T13:14:20.000Z</time>
      </trkpt>
      <trkpt lat="49.3516" lon="1.06071">
        <ele>91</ele>
        <time>2019-12-30T13:14:21.000Z</time>
      </trkpt>
      <trkpt lat="49.35162" lon="1.06067">
        <ele>91</ele>
        <time>2019-12-30T13:14:22.000Z</time>
      </trkpt>
      <trkpt lat="49.35163" lon="1.06063">
        <ele>91</ele>
        <time>2019-12-30T13:14:23.000Z</time>
      </trkpt>
      <trkpt lat="49.35163" lon="1.06058">
        <ele>91</ele>
        <time>2019-12-30T13:14:24.000Z</time>
      </trkpt>
      <trkpt lat="49.35164" lon="1.06053">
        <ele>91</ele>
        <time>2019-12-30T13:14:25.000Z</time>
      </trkpt>
      <trkpt lat="49.35164" lon="1.06048">
        <ele>91</ele>
        <time>2019-12-30T13:14:26.000Z</time>
      </trkpt>
      <trkpt lat="49.35164" lon="1.06042">
        <ele>91</ele>
        <time>2019-12-30T13:14:27.000Z</time>
      </trkpt>
      <trkpt lat="49.35165" lon="1.06037">
        <ele>91</ele>
        <time>2019-12-30T13:14:28.000Z</time>
      </trkpt>
      <trkpt lat="49.35165" lon="1.06034">
        <ele>91</ele>
        <time>2019-12-30T13:14:29.000Z</time>
      </trkpt>
      <trkpt lat="49.35165" lon="1.06031">
        <ele>92</ele>
        <time>2019-12-30T13:14:30.000Z</time>
      </trkpt>
      <trkpt lat="49.35164" lon="1.06029">
        <ele>92</ele>
        <time>2019-12-30T13:14:31.000Z</time>
      </trkpt>
      <trkpt lat="49.35163" lon="1.06028">
        <ele>92</ele>
        <time>2019-12-30T13:14:32.000Z</time>
      </trkpt>
      <trkpt lat="49.35162" lon="1.06026">
        <ele>92</ele>
        <time>2019-12-30T13:14:33.000Z</time>
      </trkpt>
      <trkpt lat="49.3516" lon="1.06024">
        <ele>92</ele>
        <time>2019-12-30T13:14:34.000Z</time>
      </trkpt>
      <trkpt lat="49.35158" lon="1.06022">
        <ele>92</ele>
        <time>2019-12-30T13:14:35.000Z</time>
      </trkpt>
      <trkpt lat="49.35156" lon="1.0602">
        <ele>92</ele>
        <time>2019-12-30T13:14:36.000Z</time>
      </trkpt>
      <trkpt lat="49.35153" lon="1.06018">
        <ele>92</ele>
        <time>2019-12-30T13:14:37.000Z</time>
      </trkpt>
      <trkpt lat="49.35151" lon="1.06016">
        <ele>92</ele>
        <time>2019-12-30T13:14:38.000Z</time>
      </trkpt>
      <trkpt lat="49.35147" lon="1.06014">
        <ele>91</ele>
        <time>2019-12-30T13:14:39.000Z</time>
      </trkpt>
      <trkpt lat="49.35144" lon="1.06013">
        <ele>91</ele>
        <time>2019-12-30T13:14:40.000Z</time>
      </trkpt>
      <trkpt lat="49.35141" lon="1.06011">
        <ele>91</ele>
        <time>2019-12-30T13:14:41.000Z</time>
      </trkpt>
      <trkpt lat="49.35137" lon="1.0601">
        <ele>91</ele>
        <time>2019-12-30T13:14:42.000Z</time>
      </trkpt>
      <trkpt lat="49.35135" lon="1.06011">
        <ele>91</ele>
        <time>2019-12-30T13:14:43.000Z</time>
      </trkpt>
      <trkpt lat="49.35132" lon="1.06011">
        <ele>91</ele>
        <time>2019-12-30T13:14:44.000Z</time>
      </trkpt>
      <trkpt lat="49.35129" lon="1.06011">
        <ele>91</ele>
        <time>2019-12-30T13:14:45.000Z</time>
      </trkpt>
      <trkpt lat="49.35126" lon="1.06009">
        <ele>90</ele>
        <time>2019-12-30T13:14:46.000Z</time>
      </trkpt>
      <trkpt lat="49.35124" lon="1.06008">
        <ele>90</ele>
        <time>2019-12-30T13:14:47.000Z</time>
      </trkpt>
      <trkpt lat="49.35121" lon="1.06006">
        <ele>90</ele>
        <time>2019-12-30T13:14:48.000Z</time>
      </trkpt>
      <trkpt lat="49.3512" lon="1.06006">
        <ele>90</ele>
        <time>2019-12-30T13:14:49.000Z</time>
      </trkpt>
      <trkpt lat="49.35119" lon="1.06009">
        <ele>90</ele>
        <time>2019-12-30T13:14:50.000Z</time>
      </trkpt>
      <trkpt lat="49.35118" lon="1.06012">
        <ele>89</ele>
        <time>2019-12-30T13:14:51.000Z</time>
      </trkpt>
      <trkpt lat="49.35117" lon="1.06017">
        <ele>89</ele>
        <time>2019-12-30T13:14:52.000Z</time>
      </trkpt>
      <trkpt lat="49.35116" lon="1.06023">
        <ele>89</ele>
        <time>2019-12-30T13:14:53.000Z</time>
      </trkpt>
      <trkpt lat="49.35114" lon="1.06029">
        <ele>89</ele>
        <time>2019-12-30T13:14:54.000Z</time>
      </trkpt>
      <trkpt lat="49.35112" lon="1.06035">
        <ele>89</ele>
        <time>2019-12-30T13:14:55.000Z</time>
      </trkpt>
      <trkpt lat="49.3511" lon="1.06043">
        <ele>89</ele>
        <time>2019-12-30T13:14:56.000Z</time>
      </trkpt>
      <trkpt lat="49.35108" lon="1.0605">
        <ele>89</ele>
        <time>2019-12-30T13:14:57.000Z</time>
      </trkpt>
      <trkpt lat="49.35106" lon="1.06058">
        <ele>89</ele>
        <time>2019-12-30T13:14:58.000Z</time>
      </trkpt>
      <trkpt lat="49.35103" lon="1.06065">
        <ele>89</ele>
        <time>2019-12-30T13:14:59.000Z</time>
      </trkpt>
      <trkpt lat="49.35101" lon="1.06073">
        <ele>88</ele>
        <time>2019-12-30T13:15:00.000Z</time>
      </trkpt>
      <trkpt lat="49.35098" lon="1.06082">
        <ele>88</ele>
        <time>2019-12-30T13:15:01.000Z</time>
      </trkpt>
      <trkpt lat="49.35096" lon="1.0609">
        <ele>88</ele>
        <time>2019-12-30T13:15:02.000Z</time>
      </trkpt>
      <trkpt lat="49.35093" lon="1.06098">
        <ele>88</ele>
        <time>2019-12-30T13:15:03.000Z</time>
      </trkpt>
      <trkpt lat="49.35089" lon="1.06106">
        <ele>87</ele>
        <time>2019-12-30T13:15:04.000Z</time>
      </trkpt>
      <trkpt lat="49.35085" lon="1.06113">
        <ele>87</ele>
        <time>2019-12-30T13:15:05.000Z</time>
      </trkpt>
      <trkpt lat="49.35079" lon="1.06119">
        <ele>87</ele>
        <time>2019-12-30T13:15:06.000Z</time>
      </trkpt>
      <trkpt lat="49.35073" lon="1.06123">
        <ele>86</ele>
        <time>2019-12-30T13:15:07.000Z</time>
      </trkpt>
      <trkpt lat="49.35066" lon="1.06125">
        <ele>86</ele>
        <time>2019-12-30T13:15:08.000Z</time>
      </trkpt>
      <trkpt lat="49.35059" lon="1.06124">
        <ele>85</ele>
        <time>2019-12-30T13:15:09.000Z</time>
      </trkpt>
      <trkpt lat="49.35052" lon="1.06124">
        <ele>85</ele>
        <time>2019-12-30T13:15:10.000Z</time>
      </trkpt>
      <trkpt lat="49.35047" lon="1.06126">
        <ele>84</ele>
        <time>2019-12-30T13:15:11.000Z</time>
      </trkpt>
      <trkpt lat="49.35043" lon="1.06128">
        <ele>84</ele>
        <time>2019-12-30T13:15:12.000Z</time>
      </trkpt>
      <trkpt lat="49.35039" lon="1.06132">
        <ele>83</ele>
        <time>2019-12-30T13:15:13.000Z</time>
      </trkpt>
      <trkpt lat="49.35036" lon="1.06136">
        <ele>83</ele>
        <time>2019-12-30T13:15:14.000Z</time>
      </trkpt>
      <trkpt lat="49.35032" lon="1.0614">
        <ele>82</ele>
        <time>2019-12-30T13:15:15.000Z</time>
      </trkpt>
      <trkpt lat="49.35029" lon="1.06144">
        <ele>82</ele>
        <time>2019-12-30T13:15:16.000Z</time>
      </trkpt>
      <trkpt lat="49.35026" lon="1.06148">
        <ele>82</ele>
        <time>2019-12-30T13:15:17.000Z</time>
      </trkpt>
      <trkpt lat="49.35023" lon="1.06151">
        <ele>81</ele>
        <time>2019-12-30T13:15:18.000Z</time>
      </trkpt>
      <trkpt lat="49.3502" lon="1.06154">
        <ele>81</ele>
        <time>2019-12-30T13:15:19.000Z</time>
      </trkpt>
      <trkpt lat="49.35016" lon="1.06156">
        <ele>81</ele>
        <time>2019-12-30T13:15:20.000Z</time>
      </trkpt>
      <trkpt lat="49.35013" lon="1.06157">
        <ele>81</ele>
        <time>2019-12-30T13:15:21.000Z</time>
      </trkpt>
      <trkpt lat="49.35009" lon="1.06158">
        <ele>80</ele>
        <time>2019-12-30T13:15:22.000Z</time>
      </trkpt>
      <trkpt lat="49.35005" lon="1.0616">
        <ele>80</ele>
        <time>2019-12-30T13:15:23.000Z</time>
      </trkpt>
      <trkpt lat="49.35001" lon="1.06161">
        <ele>80</ele>
        <time>2019-12-30T13:15:24.000Z</time>
      </trkpt>
      <trkpt lat="49.34998" lon="1.06164">
        <ele>80</ele>
        <time>2019-12-30T13:15:25.000Z</time>
      </trkpt>
      <trkpt lat="49.34995" lon="1.06166">
        <ele>80</ele>
        <time>2019-12-30T13:15:26.000Z</time>
      </trkpt>
      <trkpt lat="49.34992" lon="1.0617">
        <ele>80</ele>
        <time>2019-12-30T13:15:27.000Z</time>
      </trkpt>
      <trkpt lat="49.34989" lon="1.06175">
        <ele>79</ele>
        <time>2019-12-30T13:15:28.000Z</time>
      </trkpt>
      <trkpt lat="49.34987" lon="1.0618">
        <ele>79</ele>
        <time>2019-12-30T13:15:29.000Z</time>
      </trkpt>
      <trkpt lat="49.34985" lon="1.06184">
        <ele>79</ele>
        <time>2019-12-30T13:15:30.000Z</time>
      </trkpt>
      <trkpt lat="49.34983" lon="1.06189">
        <ele>79</ele>
        <time>2019-12-30T13:15:31.000Z</time>
      </trkpt>
      <trkpt lat="49.34981" lon="1.06193">
        <ele>79</ele>
        <time>2019-12-30T13:15:32.000Z</time>
      </trkpt>
      <trkpt lat="49.34978" lon="1.06197">
        <ele>79</ele>
        <time>2019-12-30T13:15:33.000Z</time>
      </trkpt>
      <trkpt lat="49.34976" lon="1.06202">
        <ele>79</ele>
        <time>2019-12-30T13:15:34.000Z</time>
      </trkpt>
      <trkpt lat="49.34973" lon="1.06206">
        <ele>79</ele>
        <time>2019-12-30T13:15:35.000Z</time>
      </trkpt>
      <trkpt lat="49.34971" lon="1.06209">
        <ele>79</ele>
        <time>2019-12-30T13:15:36.000Z</time>
      </trkpt>
      <trkpt lat="49.34968" lon="1.06213">
        <ele>79</ele>
        <time>2019-12-30T13:15:37.000Z</time>
      </trkpt>
      <trkpt lat="49.34966" lon="1.06216">
        <ele>79</ele>
        <time>2019-12-30T13:15:38.000Z</time>
      </trkpt>
      <trkpt lat="49.34963" lon="1.0622">
        <ele>79</ele>
        <time>2019-12-30T13:15:39.000Z</time>
      </trkpt>
      <trkpt lat="49.3496" lon="1.06223">
        <ele>80</ele>
        <time>2019-12-30T13:15:40.000Z</time>
      </trkpt>
      <trkpt lat="49.34957" lon="1.06226">
        <ele>80</ele>
        <time>2019-12-30T13:15:41.000Z</time>
      </trkpt>
      <trkpt lat="49.34955" lon="1.06229">
        <ele>80</ele>
        <time>2019-12-30T13:15:42.000Z</time>
      </trkpt>
      <trkpt lat="49.34952" lon="1.06232">
        <ele>80</ele>
        <time>2019-12-30T13:15:43.000Z</time>
      </trkpt>
      <trkpt lat="49.34949" lon="1.06235">
        <ele>80</ele>
        <time>2019-12-30T13:15:44.000Z</time>
      </trkpt>
      <trkpt lat="49.34946" lon="1.06238">
        <ele>81</ele>
        <time>2019-12-30T13:15:45.000Z</time>
      </trkpt>
      <trkpt lat="49.34943" lon="1.06241">
        <ele>81</ele>
        <time>2019-12-30T13:15:46.000Z</time>
      </trkpt>
      <trkpt lat="49.3494" lon="1.06244">
        <ele>81</ele>
        <time>2019-12-30T13:15:47.000Z</time>
      </trkpt>
      <trkpt lat="49.34938" lon="1.06246">
        <ele>81</ele>
        <time>2019-12-30T13:15:48.000Z</time>
      </trkpt>
      <trkpt lat="49.34935" lon="1.06249">
        <ele>82</ele>
        <time>2019-12-30T13:15:49.000Z</time>
      </trkpt>
      <trkpt lat="49.34932" lon="1.06251">
        <ele>82</ele>
        <time>2019-12-30T13:15:50.000Z</time>
      </trkpt>
      <trkpt lat="49.34929" lon="1.06253">
        <ele>82</ele>
        <time>2019-12-30T13:15:51.000Z</time>
      </trkpt>
      <trkpt lat="49.34926" lon="1.06255">
        <ele>82</ele>
        <time>2019-12-30T13:15:52.000Z</time>
      </trkpt>
      <trkpt lat="49.34923" lon="1.06256">
        <ele>82</ele>
        <time>2019-12-30T13:15:53.000Z</time>
      </trkpt>
      <trkpt lat="49.34919" lon="1.06257">
        <ele>83</ele>
        <time>2019-12-30T13:15:54.000Z</time>
      </trkpt>
      <trkpt lat="49.34916" lon="1.06258">
        <ele>83</ele>
        <time>2019-12-30T13:15:55.000Z</time>
      </trkpt>
      <trkpt lat="49.34913" lon="1.06258">
        <ele>83</ele>
        <time>2019-12-30T13:15:56.000Z</time>
      </trkpt>
      <trkpt lat="49.34909" lon="1.06258">
        <ele>83</ele>
        <time>2019-12-30T13:15:57.000Z</time>
      </trkpt>
      <trkpt lat="49.34906" lon="1.06258">
        <ele>84</ele>
        <time>2019-12-30T13:15:58.000Z</time>
      </trkpt>
      <trkpt lat="49.34903" lon="1.06256">
        <ele>84</ele>
        <time>2019-12-30T13:15:59.000Z</time>
      </trkpt>
      <trkpt lat="49.349" lon="1.06255">
        <ele>84</ele>
        <time>2019-12-30T13:16:00.000Z</time>
      </trkpt>
      <trkpt lat="49.34897" lon="1.06254">
        <ele>84</ele>
        <time>2019-12-30T13:16:01.000Z</time>
      </trkpt>
      <trkpt lat="49.34894" lon="1.06253">
        <ele>85</ele>
        <time>2019-12-30T13:16:02.000Z</time>
      </trkpt>
      <trkpt lat="49.3489" lon="1.06251">
        <ele>85</ele>
        <time>2019-12-30T13:16:03.000Z</time>
      </trkpt>
      <trkpt lat="49.34887" lon="1.06249">
        <ele>85</ele>
        <time>2019-12-30T13:16:04.000Z</time>
      </trkpt>
      <trkpt lat="49.34884" lon="1.06247">
        <ele>85</ele>
        <time>2019-12-30T13:16:05.000Z</time>
      </trkpt>
      <trkpt lat="49.34881" lon="1.06246">
        <ele>85</ele>
        <time>2019-12-30T13:16:06.000Z</time>
      </trkpt>
      <trkpt lat="49.34878" lon="1.06244">
        <ele>85</ele>
        <time>2019-12-30T13:16:07.000Z</time>
      </trkpt>
      <trkpt lat="49.34875" lon="1.06242">
        <ele>86</ele>
        <time>2019-12-30T13:16:08.000Z</time>
      </trkpt>
      <trkpt lat="49.34872" lon="1.0624">
        <ele>86</ele>
        <time>2019-12-30T13:16:09.000Z</time>
      </trkpt>
      <trkpt lat="49.34869" lon="1.06238">
        <ele>86</ele>
        <time>2019-12-30T13:16:10.000Z</time>
      </trkpt>
      <trkpt lat="49.34866" lon="1.06235">
        <ele>86</ele>
        <time>2019-12-30T13:16:11.000Z</time>
      </trkpt>
      <trkpt lat="49.34863" lon="1.06233">
        <ele>86</ele>
        <time>2019-12-30T13:16:12.000Z</time>
      </trkpt>
      <trkpt lat="49.3486" lon="1.06231">
        <ele>86</ele>
        <time>2019-12-30T13:16:13.000Z</time>
      </trkpt>
      <trkpt lat="49.34857" lon="1.06229">
        <ele>87</ele>
        <time>2019-12-30T13:16:14.000Z</time>
      </trkpt>
      <trkpt lat="49.34854" lon="1.06227">
        <ele>87</ele>
        <time>2019-12-30T13:16:15.000Z</time>
      </trkpt>
      <trkpt lat="49.34851" lon="1.06225">
        <ele>87</ele>
        <time>2019-12-30T13:16:16.000Z</time>
      </trkpt>
      <trkpt lat="49.34848" lon="1.06222">
        <ele>87</ele>
        <time>2019-12-30T13:16:17.000Z</time>
      </trkpt>
      <trkpt lat="49.34846" lon="1.0622">
        <ele>87</ele>
        <time>2019-12-30T13:16:18.000Z</time>
      </trkpt>
      <trkpt lat="49.34843" lon="1.06218">
        <ele>87</ele>
        <time>2019-12-30T13:16:19.000Z</time>
      </trkpt>
      <trkpt lat="49.3484" lon="1.06216">
        <ele>88</ele>
        <time>2019-12-30T13:16:20.000Z</time>
      </trkpt>
      <trkpt lat="49.34837" lon="1.06214">
        <ele>88</ele>
        <time>2019-12-30T13:16:21.000Z</time>
      </trkpt>
      <trkpt lat="49.34834" lon="1.06211">
        <ele>88</ele>
        <time>2019-12-30T13:16:22.000Z</time>
      </trkpt>
      <trkpt lat="49.34831" lon="1.06209">
        <ele>88</ele>
        <time>2019-12-30T13:16:23.000Z</time>
      </trkpt>
      <trkpt lat="49.34828" lon="1.06207">
        <ele>88</ele>
        <time>2019-12-30T13:16:24.000Z</time>
      </trkpt>
      <trkpt lat="49.34825" lon="1.06205">
        <ele>88</ele>
        <time>2019-12-30T13:16:25.000Z</time>
      </trkpt>
      <trkpt lat="49.34822" lon="1.06203">
        <ele>88</ele>
        <time>2019-12-30T13:16:26.000Z</time>
      </trkpt>
      <trkpt lat="49.34819" lon="1.06201">
        <ele>88</ele>
        <time>2019-12-30T13:16:27.000Z</time>
      </trkpt>
      <trkpt lat="49.34816" lon="1.06198">
        <ele>88</ele>
        <time>2019-12-30T13:16:28.000Z</time>
      </trkpt>
      <trkpt lat="49.34814" lon="1.06196">
        <ele>89</ele>
        <time>2019-12-30T13:16:29.000Z</time>
      </trkpt>
      <trkpt lat="49.34811" lon="1.06194">
        <ele>89</ele>
        <time>2019-12-30T13:16:30.000Z</time>
      </trkpt>
      <trkpt lat="49.34808" lon="1.06192">
        <ele>89</ele>
        <time>2019-12-30T13:16:31.000Z</time>
      </trkpt>
      <trkpt lat="49.34804" lon="1.06189">
        <ele>89</ele>
        <time>2019-12-30T13:16:32.000Z</time>
      </trkpt>
      <trkpt lat="49.34801" lon="1.06187">
        <ele>89</ele>
        <time>2019-12-30T13:16:33.000Z</time>
      </trkpt>
      <trkpt lat="49.34798" lon="1.06185">
        <ele>89</ele>
        <time>2019-12-30T13:16:34.000Z</time>
      </trkpt>
      <trkpt lat="49.34795" lon="1.06183">
        <ele>89</ele>
        <time>2019-12-30T13:16:35.000Z</time>
      </trkpt>
      <trkpt lat="49.34792" lon="1.0618">
        <ele>89</ele>
        <time>2019-12-30T13:16:36.000Z</time>
      </trkpt>
      <trkpt lat="49.34789" lon="1.06178">
        <ele>89</ele>
        <time>2019-12-30T13:16:37.000Z</time>
      </trkpt>
      <trkpt lat="49.34786" lon="1.06176">
        <ele>89</ele>
        <time>2019-12-30T13:16:38.000Z</time>
      </trkpt>
      <trkpt lat="49.34783" lon="1.06173">
        <ele>90</ele>
        <time>2019-12-30T13:16:39.000Z</time>
      </trkpt>
      <trkpt lat="49.3478" lon="1.06171">
        <ele>90</ele>
        <time>2019-12-30T13:16:40.000Z</time>
      </trkpt>
      <trkpt lat="49.34777" lon="1.06169">
        <ele>90</ele>
        <time>2019-12-30T13:16:41.000Z</time>
      </trkpt>
      <trkpt lat="49.34774" lon="1.06167">
        <ele>90</ele>
        <time>2019-12-30T13:16:42.000Z</time>
      </trkpt>
      <trkpt lat="49.34771" lon="1.06164">
        <ele>90</ele>
        <time>2019-12-30T13:16:43.000Z</time>
      </trkpt>
      <trkpt lat="49.34767" lon="1.06162">
        <ele>90</ele>
        <time>2019-12-30T13:16:44.000Z</time>
      </trkpt>
      <trkpt lat="49.34764" lon="1.06159">
        <ele>90</ele>
        <time>2019-12-30T13:16:45.000Z</time>
      </trkpt>
      <trkpt lat="49.34761" lon="1.06157">
        <ele>90</ele>
        <time>2019-12-30T13:16:46.000Z</time>
      </trkpt>
      <trkpt lat="49.34759" lon="1.06154">
        <ele>90</ele>
        <time>2019-12-30T13:16:47.000Z</time>
      </trkpt>
      <trkpt lat="49.34757" lon="1.0615">
        <ele>90</ele>
        <time>2019-12-30T13:16:48.000Z</time>
      </trkpt>
      <trkpt lat="49.34756" lon="1.06145">
        <ele>90</ele>
        <time>2019-12-30T13:16:49.000Z</time>
      </trkpt>
      <trkpt lat="49.34755" lon="1.0614">
        <ele>90</ele>
        <time>2019-12-30T13:16:50.000Z</time>
      </trkpt>
      <trkpt lat="49.34754" lon="1.06135">
        <ele>90</ele>
        <time>2019-12-30T13:16:51.000Z</time>
      </trkpt>
      <trkpt lat="49.34755" lon="1.0613">
        <ele>90</ele>
        <time>2019-12-30T13:16:52.000Z</time>
      </trkpt>
      <trkpt lat="49.34755" lon="1.06124">
        <ele>91</ele>
        <time>2019-12-30T13:16:53.000Z</time>
      </trkpt>
      <trkpt lat="49.34755" lon="1.06119">
        <ele>91</ele>
        <time>2019-12-30T13:16:54.000Z</time>
      </trkpt>
      <trkpt lat="49.34756" lon="1.06114">
        <ele>91</ele>
        <time>2019-12-30T13:16:55.000Z</time>
      </trkpt>
      <trkpt lat="49.34757" lon="1.0611">
        <ele>91</ele>
        <time>2019-12-30T13:16:56.000Z</time>
      </trkpt>
      <trkpt lat="49.34757" lon="1.06104">
        <ele>91</ele>
        <time>2019-12-30T13:16:57.000Z</time>
      </trkpt>
      <trkpt lat="49.34757" lon="1.06099">
        <ele>91</ele>
        <time>2019-12-30T13:16:58.000Z</time>
      </trkpt>
      <trkpt lat="49.34758" lon="1.06094">
        <ele>91</ele>
        <time>2019-12-30T13:16:59.000Z</time>
      </trkpt>
      <trkpt lat="49.34758" lon="1.06089">
        <ele>91</ele>
        <time>2019-12-30T13:17:00.000Z</time>
      </trkpt>
      <trkpt lat="49.34759" lon="1.06084">
        <ele>92</ele>
        <time>2019-12-30T13:17:01.000Z</time>
      </trkpt>
      <trkpt lat="49.34759" lon="1.06079">
        <ele>92</ele>
        <time>2019-12-30T13:17:02.000Z</time>
      </trkpt>
      <trkpt lat="49.3476" lon="1.06074">
        <ele>92</ele>
        <time>2019-12-30T13:17:03.000Z</time>
      </trkpt>
      <trkpt lat="49.34761" lon="1.06069">
        <ele>92</ele>
        <time>2019-12-30T13:17:04.000Z</time>
      </trkpt>
      <trkpt lat="49.34761" lon="1.06064">
        <ele>92</ele>
        <time>2019-12-30T13:17:05.000Z</time>
      </trkpt>
      <trkpt lat="49.34762" lon="1.06058">
        <ele>92</ele>
        <time>2019-12-30T13:17:06.000Z</time>
      </trkpt>
      <trkpt lat="49.34763" lon="1.06054">
        <ele>92</ele>
        <time>2019-12-30T13:17:07.000Z</time>
      </trkpt>
      <trkpt lat="49.34763" lon="1.06048">
        <ele>92</ele>
        <time>2019-12-30T13:17:08.000Z</time>
      </trkpt>
      <trkpt lat="49.34764" lon="1.06043">
        <ele>92</ele>
        <time>2019-12-30T13:17:09.000Z</time>
      </trkpt>
      <trkpt lat="49.34764" lon="1.06038">
        <ele>92</ele>
        <time>2019-12-30T13:17:10.000Z</time>
      </trkpt>
      <trkpt lat="49.34765" lon="1.06033">
        <ele>92</ele>
        <time>2019-12-30T13:17:11.000Z</time>
      </trkpt>
      <trkpt lat="49.34766" lon="1.06028">
        <ele>92</ele>
        <time>2019-12-30T13:17:12.000Z</time>
      </trkpt>
      <trkpt lat="49.34766" lon="1.06023">
        <ele>92</ele>
        <time>2019-12-30T13:17:13.000Z</time>
      </trkpt>
      <trkpt lat="49.34767" lon="1.06018">
        <ele>93</ele>
        <time>2019-12-30T13:17:14.000Z</time>
      </trkpt>
      <trkpt lat="49.34767" lon="1.06013">
        <ele>93</ele>
        <time>2019-12-30T13:17:15.000Z</time>
      </trkpt>
      <trkpt lat="49.34768" lon="1.06009">
        <ele>93</ele>
        <time>2019-12-30T13:17:16.000Z</time>
      </trkpt>
      <trkpt lat="49.34769" lon="1.06004">
        <ele>93</ele>
        <time>2019-12-30T13:17:17.000Z</time>
      </trkpt>
      <trkpt lat="49.34769" lon="1.06">
        <ele>93</ele>
        <time>2019-12-30T13:17:18.000Z</time>
      </trkpt>
      <trkpt lat="49.3477" lon="1.05995">
        <ele>93</ele>
        <time>2019-12-30T13:17:19.000Z</time>
      </trkpt>
      <trkpt lat="49.34771" lon="1.0599">
        <ele>93</ele>
        <time>2019-12-30T13:17:20.000Z</time>
      </trkpt>
      <trkpt lat="49.34771" lon="1.05986">
        <ele>92</ele>
        <time>2019-12-30T13:17:21.000Z</time>
      </trkpt>
      <trkpt lat="49.34772" lon="1.05981">
        <ele>92</ele>
        <time>2019-12-30T13:17:22.000Z</time>
      </trkpt>
      <trkpt lat="49.34773" lon="1.05977">
        <ele>92</ele>
        <time>2019-12-30T13:17:23.000Z</time>
      </trkpt>
      <trkpt lat="49.34773" lon="1.05972">
        <ele>92</ele>
        <time>2019-12-30T13:17:24.000Z</time>
      </trkpt>
      <trkpt lat="49.34774" lon="1.05968">
        <ele>92</ele>
        <time>2019-12-30T13:17:25.000Z</time>
      </trkpt>
      <trkpt lat="49.34774" lon="1.05963">
        <ele>92</ele>
        <time>2019-12-30T13:17:26.000Z</time>
      </trkpt>
      <trkpt lat="49.34775" lon="1.05958">
        <ele>92</ele>
        <time>2019-12-30T13:17:27.000Z</time>
      </trkpt>
      <trkpt lat="49.34776" lon="1.05954">
        <ele>93</ele>
        <time>2019-12-30T13:17:28.000Z</time>
      </trkpt>
      <trkpt lat="49.34776" lon="1.05949">
        <ele>93</ele>
        <time>2019-12-30T13:17:29.000Z</time>
      </trkpt>
      <trkpt lat="49.34777" lon="1.05945">
        <ele>93</ele>
        <time>2019-12-30T13:17:30.000Z</time>
      </trkpt>
      <trkpt lat="49.34778" lon="1.0594">
        <ele>93</ele>
        <time>2019-12-30T13:17:31.000Z</time>
      </trkpt>
      <trkpt lat="49.34778" lon="1.05935">
        <ele>93</ele>
        <time>2019-12-30T13:17:32.000Z</time>
      </trkpt>
      <trkpt lat="49.34779" lon="1.05931">
        <ele>93</ele>
        <time>2019-12-30T13:17:33.000Z</time>
      </trkpt>
      <trkpt lat="49.34779" lon="1.05927">
        <ele>93</ele>
        <time>2019-12-30T13:17:34.000Z</time>
      </trkpt>
      <trkpt lat="49.3478" lon="1.05923">
        <ele>93</ele>
        <time>2019-12-30T13:17:35.000Z</time>
      </trkpt>
      <trkpt lat="49.3478" lon="1.05918">
        <ele>93</ele>
        <time>2019-12-30T13:17:36.000Z</time>
      </trkpt>
      <trkpt lat="49.34781" lon="1.05914">
        <ele>93</ele>
        <time>2019-12-30T13:17:37.000Z</time>
      </trkpt>
      <trkpt lat="49.34781" lon="1.05909">
        <ele>93</ele>
        <time>2019-12-30T13:17:38.000Z</time>
      </trkpt>
      <trkpt lat="49.34782" lon="1.05904">
        <ele>94</ele>
        <time>2019-12-30T13:17:39.000Z</time>
      </trkpt>
      <trkpt lat="49.34782" lon="1.059">
        <ele>94</ele>
        <time>2019-12-30T13:17:40.000Z</time>
      </trkpt>
      <trkpt lat="49.34783" lon="1.05895">
        <ele>94</ele>
        <time>2019-12-30T13:17:41.000Z</time>
      </trkpt>
      <trkpt lat="49.34783" lon="1.05891">
        <ele>94</ele>
        <time>2019-12-30T13:17:42.000Z</time>
      </trkpt>
      <trkpt lat="49.34784" lon="1.05886">
        <ele>94</ele>
        <time>2019-12-30T13:17:43.000Z</time>
      </trkpt>
      <trkpt lat="49.34784" lon="1.05882">
        <ele>94</ele>
        <time>2019-12-30T13:17:44.000Z</time>
      </trkpt>
      <trkpt lat="49.34784" lon="1.05878">
        <ele>94</ele>
        <time>2019-12-30T13:17:45.000Z</time>
      </trkpt>
      <trkpt lat="49.34784" lon="1.05874">
        <ele>94</ele>
        <time>2019-12-30T13:17:46.000Z</time>
      </trkpt>
      <trkpt lat="49.34782" lon="1.05872">
        <ele>94</ele>
        <time>2019-12-30T13:17:47.000Z</time>
      </trkpt>
      <trkpt lat="49.3478" lon="1.0587">
        <ele>94</ele>
        <time>2019-12-30T13:17:48.000Z</time>
      </trkpt>
      <trkpt lat="49.34778" lon="1.05869">
        <ele>94</ele>
        <time>2019-12-30T13:17:49.000Z</time>
      </trkpt>
      <trkpt lat="49.34776" lon="1.05867">
        <ele>95</ele>
        <time>2019-12-30T13:17:50.000Z</time>
      </trkpt>
      <trkpt lat="49.34773" lon="1.05865">
        <ele>95</ele>
        <time>2019-12-30T13:17:51.000Z</time>
      </trkpt>
      <trkpt lat="49.34771" lon="1.05864">
        <ele>95</ele>
        <time>2019-12-30T13:17:52.000Z</time>
      </trkpt>
      <trkpt lat="49.34769" lon="1.05862">
        <ele>95</ele>
        <time>2019-12-30T13:17:53.000Z</time>
      </trkpt>
      <trkpt lat="49.34767" lon="1.05861">
        <ele>95</ele>
        <time>2019-12-30T13:17:54.000Z</time>
      </trkpt>
      <trkpt lat="49.34764" lon="1.05859">
        <ele>95</ele>
        <time>2019-12-30T13:17:55.000Z</time>
      </trkpt>
      <trkpt lat="49.34761" lon="1.05858">
        <ele>96</ele>
        <time>2019-12-30T13:17:56.000Z</time>
      </trkpt>
      <trkpt lat="49.34758" lon="1.05856">
        <ele>96</ele>
        <time>2019-12-30T13:17:57.000Z</time>
      </trkpt>
      <trkpt lat="49.34755" lon="1.05855">
        <ele>96</ele>
        <time>2019-12-30T13:17:58.000Z</time>
      </trkpt>
      <trkpt lat="49.34752" lon="1.05854">
        <ele>96</ele>
        <time>2019-12-30T13:17:59.000Z</time>
      </trkpt>
      <trkpt lat="49.3475" lon="1.05853">
        <ele>96</ele>
        <time>2019-12-30T13:18:00.000Z</time>
      </trkpt>
      <trkpt lat="49.34747" lon="1.05851">
        <ele>96</ele>
        <time>2019-12-30T13:18:01.000Z</time>
      </trkpt>
      <trkpt lat="49.34745" lon="1.05851">
        <ele>96</ele>
        <time>2019-12-30T13:18:02.000Z</time>
      </trkpt>
      <trkpt lat="49.34743" lon="1.05851">
        <ele>96</ele>
        <time>2019-12-30T13:18:03.000Z</time>
      </trkpt>
      <trkpt lat="49.34742" lon="1.0585">
        <ele>97</ele>
        <time>2019-12-30T13:18:04.000Z</time>
      </trkpt>
      <trkpt lat="49.3474" lon="1.0585">
        <ele>97</ele>
        <time>2019-12-30T13:18:05.000Z</time>
      </trkpt>
      <trkpt lat="49.34739" lon="1.0585">
        <ele>97</ele>
        <time>2019-12-30T13:18:06.000Z</time>
      </trkpt>
      <trkpt lat="49.34737" lon="1.05848">
        <ele>97</ele>
        <time>2019-12-30T13:18:07.000Z</time>
      </trkpt>
      <trkpt lat="49.34736" lon="1.05847">
        <ele>97</ele>
        <time>2019-12-30T13:18:08.000Z</time>
      </trkpt>
      <trkpt lat="49.34735" lon="1.05846">
        <ele>97</ele>
        <time>2019-12-30T13:18:09.000Z</time>
      </trkpt>
      <trkpt lat="49.34734" lon="1.05845">
        <ele>97</ele>
        <time>2019-12-30T13:18:10.000Z</time>
      </trkpt>
      <trkpt lat="49.34733" lon="1.05845">
        <ele>97</ele>
        <time>2019-12-30T13:18:11.000Z</time>
      </trkpt>
      <trkpt lat="49.34732" lon="1.05844">
        <ele>97</ele>
        <time>2019-12-30T13:18:12.000Z</time>
      </trkpt>
      <trkpt lat="49.34731" lon="1.05844">
        <ele>97</ele>
        <time>2019-12-30T13:18:13.000Z</time>
      </trkpt>
      <trkpt lat="49.34729" lon="1.05844">
        <ele>97</ele>
        <time>2019-12-30T13:18:14.000Z</time>
      </trkpt>
      <trkpt lat="49.34728" lon="1.05844">
        <ele>97</ele>
        <time>2019-12-30T13:18:15.000Z</time>
      </trkpt>
      <trkpt lat="49.34727" lon="1.05844">
        <ele>98</ele>
        <time>2019-12-30T13:18:16.000Z</time>
      </trkpt>
      <trkpt lat="49.34726" lon="1.05843">
        <ele>98</ele>
        <time>2019-12-30T13:18:17.000Z</time>
      </trkpt>
      <trkpt lat="49.34725" lon="1.05842">
        <ele>98</ele>
        <time>2019-12-30T13:18:18.000Z</time>
      </trkpt>
      <trkpt lat="49.34724" lon="1.05841">
        <ele>98</ele>
        <time>2019-12-30T13:18:19.000Z</time>
      </trkpt>
      <trkpt lat="49.34722" lon="1.0584">
        <ele>98</ele>
        <time>2019-12-30T13:18:20.000Z</time>
      </trkpt>
      <trkpt lat="49.3472" lon="1.05839">
        <ele>98</ele>
        <time>2019-12-30T13:18:21.000Z</time>
      </trkpt>
      <trkpt lat="49.34718" lon="1.05837">
        <ele>98</ele>
        <time>2019-12-30T13:18:22.000Z</time>
      </trkpt>
      <trkpt lat="49.34715" lon="1.05835">
        <ele>98</ele>
        <time>2019-12-30T13:18:23.000Z</time>
      </trkpt>
      <trkpt lat="49.34713" lon="1.05833">
        <ele>98</ele>
        <time>2019-12-30T13:18:24.000Z</time>
      </trkpt>
      <trkpt lat="49.3471" lon="1.05832">
        <ele>98</ele>
        <time>2019-12-30T13:18:25.000Z</time>
      </trkpt>
      <trkpt lat="49.34707" lon="1.05831">
        <ele>98</ele>
        <time>2019-12-30T13:18:26.000Z</time>
      </trkpt>
      <trkpt lat="49.34705" lon="1.0583">
        <ele>98</ele>
        <time>2019-12-30T13:18:27.000Z</time>
      </trkpt>
      <trkpt lat="49.34702" lon="1.0583">
        <ele>98</ele>
        <time>2019-12-30T13:18:28.000Z</time>
      </trkpt>
      <trkpt lat="49.34701" lon="1.0583">
        <ele>98</ele>
        <time>2019-12-30T13:18:29.000Z</time>
      </trkpt>
      <trkpt lat="49.347" lon="1.0583">
        <ele>98</ele>
        <time>2019-12-30T13:18:30.000Z</time>
      </trkpt>
      <trkpt lat="49.347" lon="1.0583">
        <ele>98</ele>
        <time>2019-12-30T13:18:31.000Z</time>
      </trkpt>
      <trkpt lat="49.347" lon="1.05829">
        <ele>98</ele>
        <time>2019-12-30T13:18:32.000Z</time>
      </trkpt>
      <trkpt lat="49.34699" lon="1.05829">
        <ele>98</ele>
        <time>2019-12-30T13:18:33.000Z</time>
      </trkpt>
      <trkpt lat="49.34689" lon="1.05829">
        <ele>99</ele>
        <time>2019-12-30T13:18:34.000Z</time>
      </trkpt>
      <trkpt lat="49.34687" lon="1.05827">
        <ele>99</ele>
        <time>2019-12-30T13:18:35.000Z</time>
      </trkpt>
      <trkpt lat="49.34684" lon="1.05825">
        <ele>99</ele>
        <time>2019-12-30T13:18:36.000Z</time>
      </trkpt>
      <trkpt lat="49.34682" lon="1.05823">
        <ele>99</ele>
        <time>2019-12-30T13:18:37.000Z</time>
      </trkpt>
      <trkpt lat="49.3468" lon="1.05822">
        <ele>99</ele>
        <time>2019-12-30T13:18:38.000Z</time>
      </trkpt>
      <trkpt lat="49.34679" lon="1.05822">
        <ele>99</ele>
        <time>2019-12-30T13:18:39.000Z</time>
      </trkpt>
      <trkpt lat="49.34677" lon="1.05822">
        <ele>99</ele>
        <time>2019-12-30T13:18:40.000Z</time>
      </trkpt>
      <trkpt lat="49.34676" lon="1.05822">
        <ele>99</ele>
        <time>2019-12-30T13:18:41.000Z</time>
      </trkpt>
      <trkpt lat="49.34674" lon="1.05822">
        <ele>99</ele>
        <time>2019-12-30T13:18:42.000Z</time>
      </trkpt>
      <trkpt lat="49.34673" lon="1.0582">
        <ele>99</ele>
        <time>2019-12-30T13:18:43.000Z</time>
      </trkpt>
      <trkpt lat="49.34672" lon="1.05819">
        <ele>99</ele>
        <time>2019-12-30T13:18:44.000Z</time>
      </trkpt>
      <trkpt lat="49.3467" lon="1.05817">
        <ele>99</ele>
        <time>2019-12-30T13:18:45.000Z</time>
      </trkpt>
      <trkpt lat="49.34668" lon="1.05815">
        <ele>99</ele>
        <time>2019-12-30T13:18:46.000Z</time>
      </trkpt>
      <trkpt lat="49.34666" lon="1.05814">
        <ele>99</ele>
        <time>2019-12-30T13:18:47.000Z</time>
      </trkpt>
      <trkpt lat="49.34664" lon="1.05814">
        <ele>99</ele>
        <time>2019-12-30T13:18:48.000Z</time>
      </trkpt>
      <trkpt lat="49.34663" lon="1.05816">
        <ele>99</ele>
        <time>2019-12-30T13:18:49.000Z</time>
      </trkpt>
      <trkpt lat="49.34661" lon="1.05819">
        <ele>99</ele>
        <time>2019-12-30T13:18:50.000Z</time>
      </trkpt>
      <trkpt lat="49.3466" lon="1.05823">
        <ele>98</ele>
        <time>2019-12-30T13:18:51.000Z</time>
      </trkpt>
      <trkpt lat="49.34659" lon="1.05828">
        <ele>98</ele>
        <time>2019-12-30T13:18:52.000Z</time>
      </trkpt>
      <trkpt lat="49.34657" lon="1.05832">
        <ele>98</ele>
        <time>2019-12-30T13:18:53.000Z</time>
      </trkpt>
      <trkpt lat="49.34655" lon="1.05836">
        <ele>98</ele>
        <time>2019-12-30T13:18:54.000Z</time>
      </trkpt>
      <trkpt lat="49.34654" lon="1.05841">
        <ele>98</ele>
        <time>2019-12-30T13:18:55.000Z</time>
      </trkpt>
      <trkpt lat="49.34652" lon="1.05845">
        <ele>98</ele>
        <time>2019-12-30T13:18:56.000Z</time>
      </trkpt>
      <trkpt lat="49.34651" lon="1.0585">
        <ele>98</ele>
        <time>2019-12-30T13:18:57.000Z</time>
      </trkpt>
      <trkpt lat="49.34651" lon="1.05855">
        <ele>98</ele>
        <time>2019-12-30T13:18:58.000Z</time>
      </trkpt>
      <trkpt lat="49.34651" lon="1.0586">
        <ele>98</ele>
        <time>2019-12-30T13:18:59.000Z</time>
      </trkpt>
      <trkpt lat="49.34649" lon="1.05865">
        <ele>98</ele>
        <time>2019-12-30T13:19:00.000Z</time>
      </trkpt>
      <trkpt lat="49.34647" lon="1.05869">
        <ele>98</ele>
        <time>2019-12-30T13:19:01.000Z</time>
      </trkpt>
      <trkpt lat="49.34644" lon="1.05872">
        <ele>98</ele>
        <time>2019-12-30T13:19:02.000Z</time>
      </trkpt>
      <trkpt lat="49.3464" lon="1.05874">
        <ele>98</ele>
        <time>2019-12-30T13:19:03.000Z</time>
      </trkpt>
      <trkpt lat="49.34637" lon="1.05876">
        <ele>98</ele>
        <time>2019-12-30T13:19:04.000Z</time>
      </trkpt>
      <trkpt lat="49.34633" lon="1.05879">
        <ele>98</ele>
        <time>2019-12-30T13:19:05.000Z</time>
      </trkpt>
      <trkpt lat="49.3463" lon="1.05883">
        <ele>98</ele>
        <time>2019-12-30T13:19:06.000Z</time>
      </trkpt>
      <trkpt lat="49.34627" lon="1.05886">
        <ele>98</ele>
        <time>2019-12-30T13:19:07.000Z</time>
      </trkpt>
      <trkpt lat="49.34626" lon="1.05891">
        <ele>98</ele>
        <time>2019-12-30T13:19:08.000Z</time>
      </trkpt>
      <trkpt lat="49.34625" lon="1.05896">
        <ele>98</ele>
        <time>2019-12-30T13:19:09.000Z</time>
      </trkpt>
      <trkpt lat="49.34624" lon="1.05902">
        <ele>98</ele>
        <time>2019-12-30T13:19:10.000Z</time>
      </trkpt>
      <trkpt lat="49.34623" lon="1.05908">
        <ele>98</ele>
        <time>2019-12-30T13:19:11.000Z</time>
      </trkpt>
      <trkpt lat="49.34623" lon="1.05914">
        <ele>98</ele>
        <time>2019-12-30T13:19:12.000Z</time>
      </trkpt>
      <trkpt lat="49.34622" lon="1.0592">
        <ele>98</ele>
        <time>2019-12-30T13:19:13.000Z</time>
      </trkpt>
      <trkpt lat="49.3462" lon="1.05926">
        <ele>97</ele>
        <time>2019-12-30T13:19:14.000Z</time>
      </trkpt>
      <trkpt lat="49.3462" lon="1.05933">
        <ele>97</ele>
        <time>2019-12-30T13:19:15.000Z</time>
      </trkpt>
      <trkpt lat="49.34619" lon="1.05939">
        <ele>97</ele>
        <time>2019-12-30T13:19:16.000Z</time>
      </trkpt>
      <trkpt lat="49.34618" lon="1.05945">
        <ele>97</ele>
        <time>2019-12-30T13:19:17.000Z</time>
      </trkpt>
      <trkpt lat="49.34617" lon="1.05952">
        <ele>97</ele>
        <time>2019-12-30T13:19:18.000Z</time>
      </trkpt>
      <trkpt lat="49.34616" lon="1.05958">
        <ele>97</ele>
        <time>2019-12-30T13:19:19.000Z</time>
      </trkpt>
      <trkpt lat="49.34616" lon="1.05964">
        <ele>97</ele>
        <time>2019-12-30T13:19:20.000Z</time>
      </trkpt>
      <trkpt lat="49.34614" lon="1.05971">
        <ele>97</ele>
        <time>2019-12-30T13:19:21.000Z</time>
      </trkpt>
      <trkpt lat="49.34613" lon="1.05978">
        <ele>97</ele>
        <time>2019-12-30T13:19:22.000Z</time>
      </trkpt>
      <trkpt lat="49.34612" lon="1.05984">
        <ele>97</ele>
        <time>2019-12-30T13:19:23.000Z</time>
      </trkpt>
      <trkpt lat="49.3461" lon="1.0599">
        <ele>97</ele>
        <time>2019-12-30T13:19:24.000Z</time>
      </trkpt>
      <trkpt lat="49.34608" lon="1.05995">
        <ele>97</ele>
        <time>2019-12-30T13:19:25.000Z</time>
      </trkpt>
      <trkpt lat="49.34605" lon="1.06">
        <ele>97</ele>
        <time>2019-12-30T13:19:26.000Z</time>
      </trkpt>
      <trkpt lat="49.34604" lon="1.06006">
        <ele>97</ele>
        <time>2019-12-30T13:19:27.000Z</time>
      </trkpt>
      <trkpt lat="49.34603" lon="1.06012">
        <ele>96</ele>
        <time>2019-12-30T13:19:28.000Z</time>
      </trkpt>
      <trkpt lat="49.34602" lon="1.06019">
        <ele>96</ele>
        <time>2019-12-30T13:19:29.000Z</time>
      </trkpt>
      <trkpt lat="49.34601" lon="1.06025">
        <ele>96</ele>
        <time>2019-12-30T13:19:30.000Z</time>
      </trkpt>
      <trkpt lat="49.34599" lon="1.06031">
        <ele>96</ele>
        <time>2019-12-30T13:19:31.000Z</time>
      </trkpt>
      <trkpt lat="49.34596" lon="1.06034">
        <ele>95</ele>
        <time>2019-12-30T13:19:32.000Z</time>
      </trkpt>
      <trkpt lat="49.34593" lon="1.06035">
        <ele>95</ele>
        <time>2019-12-30T13:19:33.000Z</time>
      </trkpt>
      <trkpt lat="49.3459" lon="1.06034">
        <ele>95</ele>
        <time>2019-12-30T13:19:34.000Z</time>
      </trkpt>
      <trkpt lat="49.34587" lon="1.06032">
        <ele>95</ele>
        <time>2019-12-30T13:19:35.000Z</time>
      </trkpt>
      <trkpt lat="49.34584" lon="1.0603">
        <ele>94</ele>
        <time>2019-12-30T13:19:36.000Z</time>
      </trkpt>
      <trkpt lat="49.34581" lon="1.06027">
        <ele>94</ele>
        <time>2019-12-30T13:19:37.000Z</time>
      </trkpt>
      <trkpt lat="49.34578" lon="1.06025">
        <ele>94</ele>
        <time>2019-12-30T13:19:38.000Z</time>
      </trkpt>
      <trkpt lat="49.34574" lon="1.06023">
        <ele>94</ele>
        <time>2019-12-30T13:19:39.000Z</time>
      </trkpt>
      <trkpt lat="49.3457" lon="1.0602">
        <ele>94</ele>
        <time>2019-12-30T13:19:40.000Z</time>
      </trkpt>
      <trkpt lat="49.34567" lon="1.06018">
        <ele>93</ele>
        <time>2019-12-30T13:19:41.000Z</time>
      </trkpt>
      <trkpt lat="49.34563" lon="1.06016">
        <ele>93</ele>
        <time>2019-12-30T13:19:42.000Z</time>
      </trkpt>
      <trkpt lat="49.34559" lon="1.06014">
        <ele>93</ele>
        <time>2019-12-30T13:19:43.000Z</time>
      </trkpt>
      <trkpt lat="49.34556" lon="1.06012">
        <ele>93</ele>
        <time>2019-12-30T13:19:44.000Z</time>
      </trkpt>
      <trkpt lat="49.34552" lon="1.06009">
        <ele>93</ele>
        <time>2019-12-30T13:19:45.000Z</time>
      </trkpt>
      <trkpt lat="49.34549" lon="1.06005">
        <ele>93</ele>
        <time>2019-12-30T13:19:46.000Z</time>
      </trkpt>
      <trkpt lat="49.34546" lon="1.06002">
        <ele>93</ele>
        <time>2019-12-30T13:19:47.000Z</time>
      </trkpt>
      <trkpt lat="49.34543" lon="1.06">
        <ele>93</ele>
        <time>2019-12-30T13:19:48.000Z</time>
      </trkpt>
      <trkpt lat="49.3454" lon="1.05998">
        <ele>93</ele>
        <time>2019-12-30T13:19:49.000Z</time>
      </trkpt>
      <trkpt lat="49.34536" lon="1.05999">
        <ele>93</ele>
        <time>2019-12-30T13:19:50.000Z</time>
      </trkpt>
      <trkpt lat="49.34533" lon="1.05998">
        <ele>93</ele>
        <time>2019-12-30T13:19:51.000Z</time>
      </trkpt>
      <trkpt lat="49.3453" lon="1.05995">
        <ele>93</ele>
        <time>2019-12-30T13:19:52.000Z</time>
      </trkpt>
      <trkpt lat="49.34528" lon="1.05992">
        <ele>93</ele>
        <time>2019-12-30T13:19:53.000Z</time>
      </trkpt>
      <trkpt lat="49.34526" lon="1.0599">
        <ele>93</ele>
        <time>2019-12-30T13:19:54.000Z</time>
      </trkpt>
      <trkpt lat="49.34523" lon="1.05988">
        <ele>93</ele>
        <time>2019-12-30T13:19:55.000Z</time>
      </trkpt>
      <trkpt lat="49.3452" lon="1.05987">
        <ele>93</ele>
        <time>2019-12-30T13:19:56.000Z</time>
      </trkpt>
      <trkpt lat="49.34518" lon="1.05985">
        <ele>93</ele>
        <time>2019-12-30T13:19:57.000Z</time>
      </trkpt>
      <trkpt lat="49.34516" lon="1.05985">
        <ele>93</ele>
        <time>2019-12-30T13:19:58.000Z</time>
      </trkpt>
      <trkpt lat="49.34514" lon="1.05984">
        <ele>93</ele>
        <time>2019-12-30T13:19:59.000Z</time>
      </trkpt>
      <trkpt lat="49.34514" lon="1.05984">
        <ele>93</ele>
        <time>2019-12-30T13:20:00.000Z</time>
      </trkpt>
      <trkpt lat="49.34513" lon="1.05984">
        <ele>93</ele>
        <time>2019-12-30T13:20:01.000Z</time>
      </trkpt>
      <trkpt lat="49.34511" lon="1.05983">
        <ele>93</ele>
        <time>2019-12-30T13:20:02.000Z</time>
      </trkpt>
      <trkpt lat="49.3451" lon="1.05983">
        <ele>93</ele>
        <time>2019-12-30T13:20:03.000Z</time>
      </trkpt>
      <trkpt lat="49.34507" lon="1.05982">
        <ele>93</ele>
        <time>2019-12-30T13:20:04.000Z</time>
      </trkpt>
      <trkpt lat="49.34505" lon="1.05979">
        <ele>93</ele>
        <time>2019-12-30T13:20:05.000Z</time>
      </trkpt>
      <trkpt lat="49.34502" lon="1.05976">
        <ele>93</ele>
        <time>2019-12-30T13:20:06.000Z</time>
      </trkpt>
      <trkpt lat="49.345" lon="1.05972">
        <ele>93</ele>
        <time>2019-12-30T13:20:07.000Z</time>
      </trkpt>
      <trkpt lat="49.34497" lon="1.0597">
        <ele>93</ele>
        <time>2019-12-30T13:20:08.000Z</time>
      </trkpt>
      <trkpt lat="49.34494" lon="1.05968">
        <ele>93</ele>
        <time>2019-12-30T13:20:09.000Z</time>
      </trkpt>
      <trkpt lat="49.3449" lon="1.05965">
        <ele>93</ele>
        <time>2019-12-30T13:20:10.000Z</time>
      </trkpt>
      <trkpt lat="49.34487" lon="1.05963">
        <ele>93</ele>
        <time>2019-12-30T13:20:11.000Z</time>
      </trkpt>
      <trkpt lat="49.34484" lon="1.05961">
        <ele>93</ele>
        <time>2019-12-30T13:20:12.000Z</time>
      </trkpt>
      <trkpt lat="49.3448" lon="1.05958">
        <ele>92</ele>
        <time>2019-12-30T13:20:13.000Z</time>
      </trkpt>
      <trkpt lat="49.34477" lon="1.05956">
        <ele>92</ele>
        <time>2019-12-30T13:20:14.000Z</time>
      </trkpt>
      <trkpt lat="49.34474" lon="1.05953">
        <ele>92</ele>
        <time>2019-12-30T13:20:15.000Z</time>
      </trkpt>
      <trkpt lat="49.3447" lon="1.0595">
        <ele>92</ele>
        <time>2019-12-30T13:20:16.000Z</time>
      </trkpt>
      <trkpt lat="49.34466" lon="1.05947">
        <ele>92</ele>
        <time>2019-12-30T13:20:17.000Z</time>
      </trkpt>
      <trkpt lat="49.34463" lon="1.05944">
        <ele>92</ele>
        <time>2019-12-30T13:20:18.000Z</time>
      </trkpt>
      <trkpt lat="49.34459" lon="1.05941">
        <ele>91</ele>
        <time>2019-12-30T13:20:19.000Z</time>
      </trkpt>
      <trkpt lat="49.34455" lon="1.05938">
        <ele>91</ele>
        <time>2019-12-30T13:20:20.000Z</time>
      </trkpt>
      <trkpt lat="49.34451" lon="1.05936">
        <ele>91</ele>
        <time>2019-12-30T13:20:21.000Z</time>
      </trkpt>
      <trkpt lat="49.34447" lon="1.05933">
        <ele>91</ele>
        <time>2019-12-30T13:20:22.000Z</time>
      </trkpt>
      <trkpt lat="49.34443" lon="1.0593">
        <ele>91</ele>
        <time>2019-12-30T13:20:23.000Z</time>
      </trkpt>
      <trkpt lat="49.3444" lon="1.05927">
        <ele>90</ele>
        <time>2019-12-30T13:20:24.000Z</time>
      </trkpt>
      <trkpt lat="49.34436" lon="1.05924">
        <ele>90</ele>
        <time>2019-12-30T13:20:25.000Z</time>
      </trkpt>
      <trkpt lat="49.34433" lon="1.05921">
        <ele>90</ele>
        <time>2019-12-30T13:20:26.000Z</time>
      </trkpt>
      <trkpt lat="49.3443" lon="1.05919">
        <ele>90</ele>
        <time>2019-12-30T13:20:27.000Z</time>
      </trkpt>
      <trkpt lat="49.34427" lon="1.05916">
        <ele>90</ele>
        <time>2019-12-30T13:20:28.000Z</time>
      </trkpt>
      <trkpt lat="49.34425" lon="1.05913">
        <ele>90</ele>
        <time>2019-12-30T13:20:29.000Z</time>
      </trkpt>
      <trkpt lat="49.34423" lon="1.05911">
        <ele>90</ele>
        <time>2019-12-30T13:20:30.000Z</time>
      </trkpt>
      <trkpt lat="49.34422" lon="1.05908">
        <ele>90</ele>
        <time>2019-12-30T13:20:31.000Z</time>
      </trkpt>
      <trkpt lat="49.34422" lon="1.05906">
        <ele>90</ele>
        <time>2019-12-30T13:20:32.000Z</time>
      </trkpt>
      <trkpt lat="49.34423" lon="1.05905">
        <ele>90</ele>
        <time>2019-12-30T13:20:33.000Z</time>
      </trkpt>
      <trkpt lat="49.34425" lon="1.05904">
        <ele>90</ele>
        <time>2019-12-30T13:20:34.000Z</time>
      </trkpt>
      <trkpt lat="49.34427" lon="1.05902">
        <ele>90</ele>
        <time>2019-12-30T13:20:35.000Z</time>
      </trkpt>
      <trkpt lat="49.3443" lon="1.059">
        <ele>90</ele>
        <time>2019-12-30T13:20:36.000Z</time>
      </trkpt>
      <trkpt lat="49.34433" lon="1.05898">
        <ele>90</ele>
        <time>2019-12-30T13:20:37.000Z</time>
      </trkpt>
      <trkpt lat="49.34436" lon="1.05894">
        <ele>90</ele>
        <time>2019-12-30T13:20:38.000Z</time>
      </trkpt>
      <trkpt lat="49.34439" lon="1.05891">
        <ele>90</ele>
        <time>2019-12-30T13:20:39.000Z</time>
      </trkpt>
      <trkpt lat="49.34441" lon="1.05888">
        <ele>89</ele>
        <time>2019-12-30T13:20:40.000Z</time>
      </trkpt>
      <trkpt lat="49.34441" lon="1.05885">
        <ele>89</ele>
        <time>2019-12-30T13:20:41.000Z</time>
      </trkpt>
      <trkpt lat="49.34441" lon="1.05882">
        <ele>89</ele>
        <time>2019-12-30T13:20:42.000Z</time>
      </trkpt>
      <trkpt lat="49.3444" lon="1.05878">
        <ele>89</ele>
        <time>2019-12-30T13:20:43.000Z</time>
      </trkpt>
      <trkpt lat="49.34438" lon="1.05874">
        <ele>89</ele>
        <time>2019-12-30T13:20:44.000Z</time>
      </trkpt>
      <trkpt lat="49.34437" lon="1.05871">
        <ele>89</ele>
        <time>2019-12-30T13:20:45.000Z</time>
      </trkpt>
      <trkpt lat="49.34435" lon="1.05867">
        <ele>89</ele>
        <time>2019-12-30T13:20:46.000Z</time>
      </trkpt>
      <trkpt lat="49.34434" lon="1.05863">
        <ele>89</ele>
        <time>2019-12-30T13:20:47.000Z</time>
      </trkpt>
      <trkpt lat="49.34433" lon="1.0586">
        <ele>89</ele>
        <time>2019-12-30T13:20:48.000Z</time>
      </trkpt>
      <trkpt lat="49.34431" lon="1.05856">
        <ele>89</ele>
        <time>2019-12-30T13:20:49.000Z</time>
      </trkpt>
      <trkpt lat="49.3443" lon="1.05852">
        <ele>89</ele>
        <time>2019-12-30T13:20:50.000Z</time>
      </trkpt>
      <trkpt lat="49.34429" lon="1.05848">
        <ele>89</ele>
        <time>2019-12-30T13:20:51.000Z</time>
      </trkpt>
      <trkpt lat="49.34428" lon="1.05844">
        <ele>90</ele>
        <time>2019-12-30T13:20:52.000Z</time>
      </trkpt>
      <trkpt lat="49.34426" lon="1.05841">
        <ele>90</ele>
        <time>2019-12-30T13:20:53.000Z</time>
      </trkpt>
      <trkpt lat="49.34425" lon="1.05839">
        <ele>90</ele>
        <time>2019-12-30T13:20:54.000Z</time>
      </trkpt>
      <trkpt lat="49.34423" lon="1.05838">
        <ele>90</ele>
        <time>2019-12-30T13:20:55.000Z</time>
      </trkpt>
      <trkpt lat="49.34421" lon="1.05837">
        <ele>90</ele>
        <time>2019-12-30T13:20:56.000Z</time>
      </trkpt>
      <trkpt lat="49.34419" lon="1.05835">
        <ele>90</ele>
        <time>2019-12-30T13:20:57.000Z</time>
      </trkpt>
      <trkpt lat="49.34418" lon="1.05832">
        <ele>90</ele>
        <time>2019-12-30T13:20:58.000Z</time>
      </trkpt>
      <trkpt lat="49.34416" lon="1.05829">
        <ele>91</ele>
        <time>2019-12-30T13:20:59.000Z</time>
      </trkpt>
      <trkpt lat="49.34415" lon="1.05826">
        <ele>91</ele>
        <time>2019-12-30T13:21:00.000Z</time>
      </trkpt>
      <trkpt lat="49.34414" lon="1.05822">
        <ele>91</ele>
        <time>2019-12-30T13:21:01.000Z</time>
      </trkpt>
      <trkpt lat="49.34413" lon="1.05818">
        <ele>91</ele>
        <time>2019-12-30T13:21:02.000Z</time>
      </trkpt>
      <trkpt lat="49.34413" lon="1.05814">
        <ele>92</ele>
        <time>2019-12-30T13:21:03.000Z</time>
      </trkpt>
      <trkpt lat="49.34412" lon="1.05809">
        <ele>92</ele>
        <time>2019-12-30T13:21:04.000Z</time>
      </trkpt>
      <trkpt lat="49.34412" lon="1.05805">
        <ele>92</ele>
        <time>2019-12-30T13:21:05.000Z</time>
      </trkpt>
      <trkpt lat="49.34411" lon="1.05801">
        <ele>93</ele>
        <time>2019-12-30T13:21:06.000Z</time>
      </trkpt>
      <trkpt lat="49.34411" lon="1.05797">
        <ele>93</ele>
        <time>2019-12-30T13:21:07.000Z</time>
      </trkpt>
      <trkpt lat="49.34411" lon="1.05793">
        <ele>93</ele>
        <time>2019-12-30T13:21:08.000Z</time>
      </trkpt>
      <trkpt lat="49.34411" lon="1.05789">
        <ele>93</ele>
        <time>2019-12-30T13:21:09.000Z</time>
      </trkpt>
      <trkpt lat="49.3441" lon="1.05785">
        <ele>94</ele>
        <time>2019-12-30T13:21:10.000Z</time>
      </trkpt>
      <trkpt lat="49.3441" lon="1.05782">
        <ele>94</ele>
        <time>2019-12-30T13:21:11.000Z</time>
      </trkpt>
      <trkpt lat="49.3441" lon="1.05778">
        <ele>94</ele>
        <time>2019-12-30T13:21:12.000Z</time>
      </trkpt>
      <trkpt lat="49.3441" lon="1.05776">
        <ele>94</ele>
        <time>2019-12-30T13:21:13.000Z</time>
      </trkpt>
      <trkpt lat="49.3441" lon="1.05773">
        <ele>94</ele>
        <time>2019-12-30T13:21:14.000Z</time>
      </trkpt>
      <trkpt lat="49.34411" lon="1.05771">
        <ele>94</ele>
        <time>2019-12-30T13:21:15.000Z</time>
      </trkpt>
      <trkpt lat="49.34411" lon="1.05769">
        <ele>94</ele>
        <time>2019-12-30T13:21:16.000Z</time>
      </trkpt>
      <trkpt lat="49.34411" lon="1.05765">
        <ele>94</ele>
        <time>2019-12-30T13:21:17.000Z</time>
      </trkpt>
      <trkpt lat="49.34412" lon="1.05761">
        <ele>94</ele>
        <time>2019-12-30T13:21:18.000Z</time>
      </trkpt>
      <trkpt lat="49.34412" lon="1.05758">
        <ele>94</ele>
        <time>2019-12-30T13:21:19.000Z</time>
      </trkpt>
      <trkpt lat="49.34412" lon="1.05753">
        <ele>95</ele>
        <time>2019-12-30T13:21:20.000Z</time>
      </trkpt>
      <trkpt lat="49.34412" lon="1.05749">
        <ele>95</ele>
        <time>2019-12-30T13:21:21.000Z</time>
      </trkpt>
      <trkpt lat="49.34411" lon="1.05744">
        <ele>95</ele>
        <time>2019-12-30T13:21:22.000Z</time>
      </trkpt>
      <trkpt lat="49.34411" lon="1.05739">
        <ele>95</ele>
        <time>2019-12-30T13:21:23.000Z</time>
      </trkpt>
      <trkpt lat="49.34412" lon="1.05735">
        <ele>95</ele>
        <time>2019-12-30T13:21:24.000Z</time>
      </trkpt>
      <trkpt lat="49.34413" lon="1.05731">
        <ele>95</ele>
        <time>2019-12-30T13:21:25.000Z</time>
      </trkpt>
      <trkpt lat="49.34415" lon="1.05729">
        <ele>95</ele>
        <time>2019-12-30T13:21:26.000Z</time>
      </trkpt>
      <trkpt lat="49.34417" lon="1.05729">
        <ele>95</ele>
        <time>2019-12-30T13:21:27.000Z</time>
      </trkpt>
      <trkpt lat="49.34419" lon="1.05728">
        <ele>95</ele>
        <time>2019-12-30T13:21:28.000Z</time>
      </trkpt>
      <trkpt lat="49.3442" lon="1.05727">
        <ele>95</ele>
        <time>2019-12-30T13:21:29.000Z</time>
      </trkpt>
      <trkpt lat="49.34421" lon="1.05725">
        <ele>95</ele>
        <time>2019-12-30T13:21:30.000Z</time>
      </trkpt>
      <trkpt lat="49.34421" lon="1.05722">
        <ele>96</ele>
        <time>2019-12-30T13:21:31.000Z</time>
      </trkpt>
      <trkpt lat="49.34421" lon="1.05718">
        <ele>96</ele>
        <time>2019-12-30T13:21:32.000Z</time>
      </trkpt>
      <trkpt lat="49.34421" lon="1.05714">
        <ele>96</ele>
        <time>2019-12-30T13:21:33.000Z</time>
      </trkpt>
      <trkpt lat="49.34421" lon="1.05711">
        <ele>96</ele>
        <time>2019-12-30T13:21:34.000Z</time>
      </trkpt>
      <trkpt lat="49.34419" lon="1.05707">
        <ele>96</ele>
        <time>2019-12-30T13:21:35.000Z</time>
      </trkpt>
      <trkpt lat="49.34418" lon="1.05705">
        <ele>96</ele>
        <time>2019-12-30T13:21:36.000Z</time>
      </trkpt>
      <trkpt lat="49.34416" lon="1.05703">
        <ele>96</ele>
        <time>2019-12-30T13:21:37.000Z</time>
      </trkpt>
      <trkpt lat="49.34414" lon="1.057">
        <ele>97</ele>
        <time>2019-12-30T13:21:38.000Z</time>
      </trkpt>
      <trkpt lat="49.34413" lon="1.05698">
        <ele>97</ele>
        <time>2019-12-30T13:21:39.000Z</time>
      </trkpt>
      <trkpt lat="49.34412" lon="1.05694">
        <ele>97</ele>
        <time>2019-12-30T13:21:40.000Z</time>
      </trkpt>
      <trkpt lat="49.34412" lon="1.05692">
        <ele>97</ele>
        <time>2019-12-30T13:21:41.000Z</time>
      </trkpt>
      <trkpt lat="49.34411" lon="1.05689">
        <ele>97</ele>
        <time>2019-12-30T13:21:42.000Z</time>
      </trkpt>
      <trkpt lat="49.3441" lon="1.05685">
        <ele>97</ele>
        <time>2019-12-30T13:21:43.000Z</time>
      </trkpt>
      <trkpt lat="49.3441" lon="1.05681">
        <ele>98</ele>
        <time>2019-12-30T13:21:44.000Z</time>
      </trkpt>
      <trkpt lat="49.3441" lon="1.05678">
        <ele>98</ele>
        <time>2019-12-30T13:21:45.000Z</time>
      </trkpt>
      <trkpt lat="49.34411" lon="1.05675">
        <ele>98</ele>
        <time>2019-12-30T13:21:46.000Z</time>
      </trkpt>
      <trkpt lat="49.3441" lon="1.05671">
        <ele>98</ele>
        <time>2019-12-30T13:21:47.000Z</time>
      </trkpt>
      <trkpt lat="49.3441" lon="1.05668">
        <ele>99</ele>
        <time>2019-12-30T13:21:48.000Z</time>
      </trkpt>
      <trkpt lat="49.34409" lon="1.05664">
        <ele>99</ele>
        <time>2019-12-30T13:21:49.000Z</time>
      </trkpt>
      <trkpt lat="49.34409" lon="1.0566">
        <ele>99</ele>
        <time>2019-12-30T13:21:50.000Z</time>
      </trkpt>
      <trkpt lat="49.34408" lon="1.05657">
        <ele>100</ele>
        <time>2019-12-30T13:21:51.000Z</time>
      </trkpt>
      <trkpt lat="49.34409" lon="1.05653">
        <ele>100</ele>
        <time>2019-12-30T13:21:52.000Z</time>
      </trkpt>
      <trkpt lat="49.34409" lon="1.05649">
        <ele>101</ele>
        <time>2019-12-30T13:21:53.000Z</time>
      </trkpt>
      <trkpt lat="49.34408" lon="1.05645">
        <ele>101</ele>
        <time>2019-12-30T13:21:54.000Z</time>
      </trkpt>
      <trkpt lat="49.34407" lon="1.05642">
        <ele>102</ele>
        <time>2019-12-30T13:21:55.000Z</time>
      </trkpt>
      <trkpt lat="49.34406" lon="1.0564">
        <ele>102</ele>
        <time>2019-12-30T13:21:56.000Z</time>
      </trkpt>
      <trkpt lat="49.34405" lon="1.05638">
        <ele>102</ele>
        <time>2019-12-30T13:21:57.000Z</time>
      </trkpt>
      <trkpt lat="49.34403" lon="1.05635">
        <ele>103</ele>
        <time>2019-12-30T13:21:58.000Z</time>
      </trkpt>
      <trkpt lat="49.34402" lon="1.05632">
        <ele>103</ele>
        <time>2019-12-30T13:21:59.000Z</time>
      </trkpt>
      <trkpt lat="49.34401" lon="1.05629">
        <ele>103</ele>
        <time>2019-12-30T13:22:00.000Z</time>
      </trkpt>
      <trkpt lat="49.34401" lon="1.05626">
        <ele>103</ele>
        <time>2019-12-30T13:22:01.000Z</time>
      </trkpt>
      <trkpt lat="49.344" lon="1.05623">
        <ele>103</ele>
        <time>2019-12-30T13:22:02.000Z</time>
      </trkpt>
      <trkpt lat="49.344" lon="1.05619">
        <ele>103</ele>
        <time>2019-12-30T13:22:03.000Z</time>
      </trkpt>
      <trkpt lat="49.34401" lon="1.05617">
        <ele>103</ele>
        <time>2019-12-30T13:22:04.000Z</time>
      </trkpt>
      <trkpt lat="49.34402" lon="1.05616">
        <ele>103</ele>
        <time>2019-12-30T13:22:05.000Z</time>
      </trkpt>
      <trkpt lat="49.34403" lon="1.05614">
        <ele>103</ele>
        <time>2019-12-30T13:22:06.000Z</time>
      </trkpt>
      <trkpt lat="49.34404" lon="1.05611">
        <ele>103</ele>
        <time>2019-12-30T13:22:07.000Z</time>
      </trkpt>
      <trkpt lat="49.34404" lon="1.05607">
        <ele>103</ele>
        <time>2019-12-30T13:22:08.000Z</time>
      </trkpt>
      <trkpt lat="49.34403" lon="1.05604">
        <ele>103</ele>
        <time>2019-12-30T13:22:09.000Z</time>
      </trkpt>
      <trkpt lat="49.34404" lon="1.05601">
        <ele>102</ele>
        <time>2019-12-30T13:22:10.000Z</time>
      </trkpt>
      <trkpt lat="49.34405" lon="1.05598">
        <ele>102</ele>
        <time>2019-12-30T13:22:11.000Z</time>
      </trkpt>
      <trkpt lat="49.34405" lon="1.05595">
        <ele>102</ele>
        <time>2019-12-30T13:22:12.000Z</time>
      </trkpt>
      <trkpt lat="49.34406" lon="1.05592">
        <ele>102</ele>
        <time>2019-12-30T13:22:13.000Z</time>
      </trkpt>
      <trkpt lat="49.34406" lon="1.05588">
        <ele>102</ele>
        <time>2019-12-30T13:22:14.000Z</time>
      </trkpt>
      <trkpt lat="49.34407" lon="1.05585">
        <ele>102</ele>
        <time>2019-12-30T13:22:15.000Z</time>
      </trkpt>
      <trkpt lat="49.34407" lon="1.05581">
        <ele>102</ele>
        <time>2019-12-30T13:22:16.000Z</time>
      </trkpt>
      <trkpt lat="49.34408" lon="1.05578">
        <ele>102</ele>
        <time>2019-12-30T13:22:17.000Z</time>
      </trkpt>
      <trkpt lat="49.34409" lon="1.05574">
        <ele>102</ele>
        <time>2019-12-30T13:22:18.000Z</time>
      </trkpt>
      <trkpt lat="49.34411" lon="1.05571">
        <ele>102</ele>
        <time>2019-12-30T13:22:19.000Z</time>
      </trkpt>
      <trkpt lat="49.34413" lon="1.05569">
        <ele>102</ele>
        <time>2019-12-30T13:22:20.000Z</time>
      </trkpt>
      <trkpt lat="49.34415" lon="1.05567">
        <ele>102</ele>
        <time>2019-12-30T13:22:21.000Z</time>
      </trkpt>
      <trkpt lat="49.34417" lon="1.05565">
        <ele>102</ele>
        <time>2019-12-30T13:22:22.000Z</time>
      </trkpt>
      <trkpt lat="49.34419" lon="1.05563">
        <ele>102</ele>
        <time>2019-12-30T13:22:23.000Z</time>
      </trkpt>
      <trkpt lat="49.34421" lon="1.05559">
        <ele>102</ele>
        <time>2019-12-30T13:22:24.000Z</time>
      </trkpt>
      <trkpt lat="49.34423" lon="1.05556">
        <ele>102</ele>
        <time>2019-12-30T13:22:25.000Z</time>
      </trkpt>
      <trkpt lat="49.34425" lon="1.05553">
        <ele>102</ele>
        <time>2019-12-30T13:22:26.000Z</time>
      </trkpt>
      <trkpt lat="49.34426" lon="1.05549">
        <ele>102</ele>
        <time>2019-12-30T13:22:27.000Z</time>
      </trkpt>
      <trkpt lat="49.34428" lon="1.05545">
        <ele>102</ele>
        <time>2019-12-30T13:22:28.000Z</time>
      </trkpt>
      <trkpt lat="49.3443" lon="1.05541">
        <ele>101</ele>
        <time>2019-12-30T13:22:29.000Z</time>
      </trkpt>
      <trkpt lat="49.34431" lon="1.05538">
        <ele>101</ele>
        <time>2019-12-30T13:22:30.000Z</time>
      </trkpt>
      <trkpt lat="49.34433" lon="1.05534">
        <ele>101</ele>
        <time>2019-12-30T13:22:31.000Z</time>
      </trkpt>
      <trkpt lat="49.34434" lon="1.0553">
        <ele>101</ele>
        <time>2019-12-30T13:22:32.000Z</time>
      </trkpt>
      <trkpt lat="49.34434" lon="1.05525">
        <ele>101</ele>
        <time>2019-12-30T13:22:33.000Z</time>
      </trkpt>
      <trkpt lat="49.34435" lon="1.05521">
        <ele>101</ele>
        <time>2019-12-30T13:22:34.000Z</time>
      </trkpt>
      <trkpt lat="49.34436" lon="1.05518">
        <ele>101</ele>
        <time>2019-12-30T13:22:35.000Z</time>
      </trkpt>
      <trkpt lat="49.34438" lon="1.05514">
        <ele>101</ele>
        <time>2019-12-30T13:22:36.000Z</time>
      </trkpt>
      <trkpt lat="49.34438" lon="1.0551">
        <ele>101</ele>
        <time>2019-12-30T13:22:37.000Z</time>
      </trkpt>
      <trkpt lat="49.34439" lon="1.05506">
        <ele>101</ele>
        <time>2019-12-30T13:22:38.000Z</time>
      </trkpt>
      <trkpt lat="49.34439" lon="1.05502">
        <ele>101</ele>
        <time>2019-12-30T13:22:39.000Z</time>
      </trkpt>
      <trkpt lat="49.3444" lon="1.05498">
        <ele>101</ele>
        <time>2019-12-30T13:22:40.000Z</time>
      </trkpt>
      <trkpt lat="49.34441" lon="1.05494">
        <ele>101</ele>
        <time>2019-12-30T13:22:41.000Z</time>
      </trkpt>
      <trkpt lat="49.34442" lon="1.0549">
        <ele>101</ele>
        <time>2019-12-30T13:22:42.000Z</time>
      </trkpt>
      <trkpt lat="49.34444" lon="1.05486">
        <ele>101</ele>
        <time>2019-12-30T13:22:43.000Z</time>
      </trkpt>
      <trkpt lat="49.34445" lon="1.05483">
        <ele>101</ele>
        <time>2019-12-30T13:22:44.000Z</time>
      </trkpt>
      <trkpt lat="49.34446" lon="1.0548">
        <ele>101</ele>
        <time>2019-12-30T13:22:45.000Z</time>
      </trkpt>
      <trkpt lat="49.34446" lon="1.05478">
        <ele>101</ele>
        <time>2019-12-30T13:22:46.000Z</time>
      </trkpt>
      <trkpt lat="49.34445" lon="1.05475">
        <ele>101</ele>
        <time>2019-12-30T13:22:47.000Z</time>
      </trkpt>
      <trkpt lat="49.34444" lon="1.05471">
        <ele>102</ele>
        <time>2019-12-30T13:22:48.000Z</time>
      </trkpt>
      <trkpt lat="49.34444" lon="1.05467">
        <ele>102</ele>
        <time>2019-12-30T13:22:49.000Z</time>
      </trkpt>
      <trkpt lat="49.34444" lon="1.05463">
        <ele>102</ele>
        <time>2019-12-30T13:22:50.000Z</time>
      </trkpt>
      <trkpt lat="49.34444" lon="1.05459">
        <ele>102</ele>
        <time>2019-12-30T13:22:51.000Z</time>
      </trkpt>
      <trkpt lat="49.34443" lon="1.05454">
        <ele>103</ele>
        <time>2019-12-30T13:22:52.000Z</time>
      </trkpt>
      <trkpt lat="49.34442" lon="1.05451">
        <ele>103</ele>
        <time>2019-12-30T13:22:53.000Z</time>
      </trkpt>
      <trkpt lat="49.3444" lon="1.05447">
        <ele>103</ele>
        <time>2019-12-30T13:22:54.000Z</time>
      </trkpt>
      <trkpt lat="49.34439" lon="1.05444">
        <ele>103</ele>
        <time>2019-12-30T13:22:55.000Z</time>
      </trkpt>
      <trkpt lat="49.34438" lon="1.0544">
        <ele>104</ele>
        <time>2019-12-30T13:22:56.000Z</time>
      </trkpt>
      <trkpt lat="49.34439" lon="1.05436">
        <ele>104</ele>
        <time>2019-12-30T13:22:57.000Z</time>
      </trkpt>
      <trkpt lat="49.3444" lon="1.05433">
        <ele>104</ele>
        <time>2019-12-30T13:22:58.000Z</time>
      </trkpt>
      <trkpt lat="49.34442" lon="1.0543">
        <ele>104</ele>
        <time>2019-12-30T13:22:59.000Z</time>
      </trkpt>
      <trkpt lat="49.34444" lon="1.05427">
        <ele>104</ele>
        <time>2019-12-30T13:23:00.000Z</time>
      </trkpt>
      <trkpt lat="49.34445" lon="1.05425">
        <ele>104</ele>
        <time>2019-12-30T13:23:01.000Z</time>
      </trkpt>
      <trkpt lat="49.34446" lon="1.05422">
        <ele>105</ele>
        <time>2019-12-30T13:23:02.000Z</time>
      </trkpt>
      <trkpt lat="49.34446" lon="1.05419">
        <ele>105</ele>
        <time>2019-12-30T13:23:03.000Z</time>
      </trkpt>
      <trkpt lat="49.34446" lon="1.05416">
        <ele>105</ele>
        <time>2019-12-30T13:23:04.000Z</time>
      </trkpt>
      <trkpt lat="49.34445" lon="1.05414">
        <ele>105</ele>
        <time>2019-12-30T13:23:05.000Z</time>
      </trkpt>
      <trkpt lat="49.34443" lon="1.05412">
        <ele>105</ele>
        <time>2019-12-30T13:23:06.000Z</time>
      </trkpt>
      <trkpt lat="49.3444" lon="1.05409">
        <ele>105</ele>
        <time>2019-12-30T13:23:07.000Z</time>
      </trkpt>
      <trkpt lat="49.34438" lon="1.05407">
        <ele>105</ele>
        <time>2019-12-30T13:23:08.000Z</time>
      </trkpt>
      <trkpt lat="49.34437" lon="1.05404">
        <ele>105</ele>
        <time>2019-12-30T13:23:09.000Z</time>
      </trkpt>
      <trkpt lat="49.34435" lon="1.05401">
        <ele>105</ele>
        <time>2019-12-30T13:23:10.000Z</time>
      </trkpt>
      <trkpt lat="49.34433" lon="1.05399">
        <ele>105</ele>
        <time>2019-12-30T13:23:11.000Z</time>
      </trkpt>
      <trkpt lat="49.34431" lon="1.05397">
        <ele>105</ele>
        <time>2019-12-30T13:23:12.000Z</time>
      </trkpt>
      <trkpt lat="49.34429" lon="1.05395">
        <ele>105</ele>
        <time>2019-12-30T13:23:13.000Z</time>
      </trkpt>
      <trkpt lat="49.34427" lon="1.05391">
        <ele>105</ele>
        <time>2019-12-30T13:23:14.000Z</time>
      </trkpt>
      <trkpt lat="49.34427" lon="1.05387">
        <ele>105</ele>
        <time>2019-12-30T13:23:15.000Z</time>
      </trkpt>
      <trkpt lat="49.34428" lon="1.05383">
        <ele>105</ele>
        <time>2019-12-30T13:23:16.000Z</time>
      </trkpt>
      <trkpt lat="49.34428" lon="1.05379">
        <ele>106</ele>
        <time>2019-12-30T13:23:17.000Z</time>
      </trkpt>
      <trkpt lat="49.34428" lon="1.05375">
        <ele>106</ele>
        <time>2019-12-30T13:23:18.000Z</time>
      </trkpt>
      <trkpt lat="49.34428" lon="1.05371">
        <ele>106</ele>
        <time>2019-12-30T13:23:19.000Z</time>
      </trkpt>
      <trkpt lat="49.34428" lon="1.05367">
        <ele>107</ele>
        <time>2019-12-30T13:23:20.000Z</time>
      </trkpt>
      <trkpt lat="49.34428" lon="1.05363">
        <ele>107</ele>
        <time>2019-12-30T13:23:21.000Z</time>
      </trkpt>
      <trkpt lat="49.34428" lon="1.05358">
        <ele>107</ele>
        <time>2019-12-30T13:23:22.000Z</time>
      </trkpt>
      <trkpt lat="49.34427" lon="1.05354">
        <ele>108</ele>
        <time>2019-12-30T13:23:23.000Z</time>
      </trkpt>
      <trkpt lat="49.34427" lon="1.0535">
        <ele>108</ele>
        <time>2019-12-30T13:23:24.000Z</time>
      </trkpt>
      <trkpt lat="49.34426" lon="1.05345">
        <ele>108</ele>
        <time>2019-12-30T13:23:25.000Z</time>
      </trkpt>
      <trkpt lat="49.34426" lon="1.05341">
        <ele>108</ele>
        <time>2019-12-30T13:23:26.000Z</time>
      </trkpt>
      <trkpt lat="49.34427" lon="1.05337">
        <ele>108</ele>
        <time>2019-12-30T13:23:27.000Z</time>
      </trkpt>
      <trkpt lat="49.34427" lon="1.05332">
        <ele>109</ele>
        <time>2019-12-30T13:23:28.000Z</time>
      </trkpt>
      <trkpt lat="49.34427" lon="1.05328">
        <ele>109</ele>
        <time>2019-12-30T13:23:29.000Z</time>
      </trkpt>
      <trkpt lat="49.34427" lon="1.05324">
        <ele>109</ele>
        <time>2019-12-30T13:23:30.000Z</time>
      </trkpt>
      <trkpt lat="49.34427" lon="1.0532">
        <ele>109</ele>
        <time>2019-12-30T13:23:31.000Z</time>
      </trkpt>
      <trkpt lat="49.34428" lon="1.05316">
        <ele>109</ele>
        <time>2019-12-30T13:23:32.000Z</time>
      </trkpt>
      <trkpt lat="49.34429" lon="1.05313">
        <ele>109</ele>
        <time>2019-12-30T13:23:33.000Z</time>
      </trkpt>
      <trkpt lat="49.34429" lon="1.05309">
        <ele>109</ele>
        <time>2019-12-30T13:23:34.000Z</time>
      </trkpt>
      <trkpt lat="49.3443" lon="1.05305">
        <ele>109</ele>
        <time>2019-12-30T13:23:35.000Z</time>
      </trkpt>
      <trkpt lat="49.3443" lon="1.05302">
        <ele>109</ele>
        <time>2019-12-30T13:23:36.000Z</time>
      </trkpt>
      <trkpt lat="49.3443" lon="1.05299">
        <ele>109</ele>
        <time>2019-12-30T13:23:37.000Z</time>
      </trkpt>
      <trkpt lat="49.3443" lon="1.05296">
        <ele>109</ele>
        <time>2019-12-30T13:23:38.000Z</time>
      </trkpt>
      <trkpt lat="49.34431" lon="1.05292">
        <ele>109</ele>
        <time>2019-12-30T13:23:39.000Z</time>
      </trkpt>
      <trkpt lat="49.34433" lon="1.05289">
        <ele>109</ele>
        <time>2019-12-30T13:23:40.000Z</time>
      </trkpt>
      <trkpt lat="49.34435" lon="1.05286">
        <ele>109</ele>
        <time>2019-12-30T13:23:41.000Z</time>
      </trkpt>
      <trkpt lat="49.34436" lon="1.05283">
        <ele>109</ele>
        <time>2019-12-30T13:23:42.000Z</time>
      </trkpt>
      <trkpt lat="49.34437" lon="1.0528">
        <ele>110</ele>
        <time>2019-12-30T13:23:43.000Z</time>
      </trkpt>
      <trkpt lat="49.34438" lon="1.05276">
        <ele>110</ele>
        <time>2019-12-30T13:23:44.000Z</time>
      </trkpt>
      <trkpt lat="49.34438" lon="1.05272">
        <ele>110</ele>
        <time>2019-12-30T13:23:45.000Z</time>
      </trkpt>
      <trkpt lat="49.34439" lon="1.05268">
        <ele>110</ele>
        <time>2019-12-30T13:23:46.000Z</time>
      </trkpt>
      <trkpt lat="49.3444" lon="1.05266">
        <ele>111</ele>
        <time>2019-12-30T13:23:47.000Z</time>
      </trkpt>
      <trkpt lat="49.34441" lon="1.05264">
        <ele>111</ele>
        <time>2019-12-30T13:23:48.000Z</time>
      </trkpt>
      <trkpt lat="49.34441" lon="1.05262">
        <ele>111</ele>
        <time>2019-12-30T13:23:49.000Z</time>
      </trkpt>
      <trkpt lat="49.34442" lon="1.05261">
        <ele>112</ele>
        <time>2019-12-30T13:23:50.000Z</time>
      </trkpt>
      <trkpt lat="49.34442" lon="1.0526">
        <ele>112</ele>
        <time>2019-12-30T13:23:51.000Z</time>
      </trkpt>
      <trkpt lat="49.34442" lon="1.0526">
        <ele>112</ele>
        <time>2019-12-30T13:23:52.000Z</time>
      </trkpt>
      <trkpt lat="49.34442" lon="1.0526">
        <ele>112</ele>
        <time>2019-12-30T13:23:53.000Z</time>
      </trkpt>
      <trkpt lat="49.34446" lon="1.0526">
        <ele>113</ele>
        <time>2019-12-30T13:23:54.000Z</time>
      </trkpt>
      <trkpt lat="49.34447" lon="1.05261">
        <ele>113</ele>
        <time>2019-12-30T13:23:55.000Z</time>
      </trkpt>
      <trkpt lat="49.34448" lon="1.05262">
        <ele>113</ele>
        <time>2019-12-30T13:23:56.000Z</time>
      </trkpt>
      <trkpt lat="49.3445" lon="1.05261">
        <ele>113</ele>
        <time>2019-12-30T13:23:57.000Z</time>
      </trkpt>
      <trkpt lat="49.34451" lon="1.0526">
        <ele>113</ele>
        <time>2019-12-30T13:23:58.000Z</time>
      </trkpt>
      <trkpt lat="49.34452" lon="1.05257">
        <ele>113</ele>
        <time>2019-12-30T13:23:59.000Z</time>
      </trkpt>
      <trkpt lat="49.34453" lon="1.05253">
        <ele>113</ele>
        <time>2019-12-30T13:24:00.000Z</time>
      </trkpt>
      <trkpt lat="49.34454" lon="1.05248">
        <ele>113</ele>
        <time>2019-12-30T13:24:01.000Z</time>
      </trkpt>
      <trkpt lat="49.34457" lon="1.05245">
        <ele>112</ele>
        <time>2019-12-30T13:24:02.000Z</time>
      </trkpt>
      <trkpt lat="49.34459" lon="1.05241">
        <ele>112</ele>
        <time>2019-12-30T13:24:03.000Z</time>
      </trkpt>
      <trkpt lat="49.34462" lon="1.05238">
        <ele>112</ele>
        <time>2019-12-30T13:24:04.000Z</time>
      </trkpt>
      <trkpt lat="49.34463" lon="1.05233">
        <ele>112</ele>
        <time>2019-12-30T13:24:05.000Z</time>
      </trkpt>
      <trkpt lat="49.34463" lon="1.05229">
        <ele>112</ele>
        <time>2019-12-30T13:24:06.000Z</time>
      </trkpt>
      <trkpt lat="49.34462" lon="1.05226">
        <ele>112</ele>
        <time>2019-12-30T13:24:07.000Z</time>
      </trkpt>
      <trkpt lat="49.3446" lon="1.05224">
        <ele>112</ele>
        <time>2019-12-30T13:24:08.000Z</time>
      </trkpt>
      <trkpt lat="49.34458" lon="1.05223">
        <ele>112</ele>
        <time>2019-12-30T13:24:09.000Z</time>
      </trkpt>
      <trkpt lat="49.34456" lon="1.05222">
        <ele>112</ele>
        <time>2019-12-30T13:24:10.000Z</time>
      </trkpt>
      <trkpt lat="49.34455" lon="1.05219">
        <ele>112</ele>
        <time>2019-12-30T13:24:11.000Z</time>
      </trkpt>
      <trkpt lat="49.34455" lon="1.05215">
        <ele>112</ele>
        <time>2019-12-30T13:24:12.000Z</time>
      </trkpt>
      <trkpt lat="49.34456" lon="1.05211">
        <ele>111</ele>
        <time>2019-12-30T13:24:13.000Z</time>
      </trkpt>
      <trkpt lat="49.34457" lon="1.05208">
        <ele>111</ele>
        <time>2019-12-30T13:24:14.000Z</time>
      </trkpt>
      <trkpt lat="49.34458" lon="1.05205">
        <ele>111</ele>
        <time>2019-12-30T13:24:15.000Z</time>
      </trkpt>
      <trkpt lat="49.34458" lon="1.052">
        <ele>111</ele>
        <time>2019-12-30T13:24:16.000Z</time>
      </trkpt>
      <trkpt lat="49.34458" lon="1.05197">
        <ele>112</ele>
        <time>2019-12-30T13:24:17.000Z</time>
      </trkpt>
      <trkpt lat="49.34458" lon="1.05193">
        <ele>112</ele>
        <time>2019-12-30T13:24:18.000Z</time>
      </trkpt>
      <trkpt lat="49.34458" lon="1.05189">
        <ele>112</ele>
        <time>2019-12-30T13:24:19.000Z</time>
      </trkpt>
      <trkpt lat="49.34459" lon="1.05185">
        <ele>111</ele>
        <time>2019-12-30T13:24:20.000Z</time>
      </trkpt>
      <trkpt lat="49.34459" lon="1.05181">
        <ele>111</ele>
        <time>2019-12-30T13:24:21.000Z</time>
      </trkpt>
      <trkpt lat="49.3446" lon="1.05176">
        <ele>111</ele>
        <time>2019-12-30T13:24:22.000Z</time>
      </trkpt>
      <trkpt lat="49.34462" lon="1.05172">
        <ele>111</ele>
        <time>2019-12-30T13:24:23.000Z</time>
      </trkpt>
      <trkpt lat="49.34463" lon="1.05167">
        <ele>111</ele>
        <time>2019-12-30T13:24:24.000Z</time>
      </trkpt>
      <trkpt lat="49.34465" lon="1.05163">
        <ele>111</ele>
        <time>2019-12-30T13:24:25.000Z</time>
      </trkpt>
      <trkpt lat="49.34467" lon="1.05158">
        <ele>111</ele>
        <time>2019-12-30T13:24:26.000Z</time>
      </trkpt>
      <trkpt lat="49.3447" lon="1.05155">
        <ele>111</ele>
        <time>2019-12-30T13:24:27.000Z</time>
      </trkpt>
      <trkpt lat="49.34473" lon="1.05155">
        <ele>111</ele>
        <time>2019-12-30T13:24:28.000Z</time>
      </trkpt>
      <trkpt lat="49.34475" lon="1.05155">
        <ele>111</ele>
        <time>2019-12-30T13:24:29.000Z</time>
      </trkpt>
      <trkpt lat="49.34476" lon="1.05154">
        <ele>111</ele>
        <time>2019-12-30T13:24:30.000Z</time>
      </trkpt>
      <trkpt lat="49.34477" lon="1.05153">
        <ele>111</ele>
        <time>2019-12-30T13:24:31.000Z</time>
      </trkpt>
      <trkpt lat="49.34477" lon="1.05151">
        <ele>111</ele>
        <time>2019-12-30T13:24:32.000Z</time>
      </trkpt>
      <trkpt lat="49.34477" lon="1.05149">
        <ele>111</ele>
        <time>2019-12-30T13:24:33.000Z</time>
      </trkpt>
      <trkpt lat="49.34477" lon="1.05147">
        <ele>110</ele>
        <time>2019-12-30T13:24:34.000Z</time>
      </trkpt>
      <trkpt lat="49.34478" lon="1.05145">
        <ele>110</ele>
        <time>2019-12-30T13:24:35.000Z</time>
      </trkpt>
      <trkpt lat="49.34478" lon="1.05141">
        <ele>110</ele>
        <time>2019-12-30T13:24:36.000Z</time>
      </trkpt>
      <trkpt lat="49.34479" lon="1.05137">
        <ele>110</ele>
        <time>2019-12-30T13:24:37.000Z</time>
      </trkpt>
      <trkpt lat="49.3448" lon="1.05133">
        <ele>110</ele>
        <time>2019-12-30T13:24:38.000Z</time>
      </trkpt>
      <trkpt lat="49.3448" lon="1.05128">
        <ele>110</ele>
        <time>2019-12-30T13:24:39.000Z</time>
      </trkpt>
      <trkpt lat="49.3448" lon="1.05124">
        <ele>110</ele>
        <time>2019-12-30T13:24:40.000Z</time>
      </trkpt>
      <trkpt lat="49.3448" lon="1.0512">
        <ele>110</ele>
        <time>2019-12-30T13:24:41.000Z</time>
      </trkpt>
      <trkpt lat="49.34479" lon="1.05116">
        <ele>110</ele>
        <time>2019-12-30T13:24:42.000Z</time>
      </trkpt>
      <trkpt lat="49.34479" lon="1.05112">
        <ele>110</ele>
        <time>2019-12-30T13:24:43.000Z</time>
      </trkpt>
      <trkpt lat="49.34479" lon="1.05107">
        <ele>110</ele>
        <time>2019-12-30T13:24:44.000Z</time>
      </trkpt>
      <trkpt lat="49.34479" lon="1.05102">
        <ele>110</ele>
        <time>2019-12-30T13:24:45.000Z</time>
      </trkpt>
      <trkpt lat="49.3448" lon="1.05097">
        <ele>110</ele>
        <time>2019-12-30T13:24:46.000Z</time>
      </trkpt>
      <trkpt lat="49.34481" lon="1.05093">
        <ele>111</ele>
        <time>2019-12-30T13:24:47.000Z</time>
      </trkpt>
      <trkpt lat="49.34482" lon="1.05088">
        <ele>111</ele>
        <time>2019-12-30T13:24:48.000Z</time>
      </trkpt>
      <trkpt lat="49.34483" lon="1.05084">
        <ele>111</ele>
        <time>2019-12-30T13:24:49.000Z</time>
      </trkpt>
      <trkpt lat="49.34483" lon="1.0508">
        <ele>111</ele>
        <time>2019-12-30T13:24:50.000Z</time>
      </trkpt>
      <trkpt lat="49.34484" lon="1.05075">
        <ele>111</ele>
        <time>2019-12-30T13:24:51.000Z</time>
      </trkpt>
      <trkpt lat="49.34485" lon="1.05071">
        <ele>111</ele>
        <time>2019-12-30T13:24:52.000Z</time>
      </trkpt>
      <trkpt lat="49.34487" lon="1.05067">
        <ele>112</ele>
        <time>2019-12-30T13:24:53.000Z</time>
      </trkpt>
      <trkpt lat="49.34488" lon="1.05063">
        <ele>112</ele>
        <time>2019-12-30T13:24:54.000Z</time>
      </trkpt>
      <trkpt lat="49.3449" lon="1.0506">
        <ele>112</ele>
        <time>2019-12-30T13:24:55.000Z</time>
      </trkpt>
      <trkpt lat="49.34491" lon="1.05056">
        <ele>112</ele>
        <time>2019-12-30T13:24:56.000Z</time>
      </trkpt>
      <trkpt lat="49.34492" lon="1.05052">
        <ele>112</ele>
        <time>2019-12-30T13:24:57.000Z</time>
      </trkpt>
      <trkpt lat="49.34493" lon="1.05048">
        <ele>112</ele>
        <time>2019-12-30T13:24:58.000Z</time>
      </trkpt>
      <trkpt lat="49.34495" lon="1.05044">
        <ele>112</ele>
        <time>2019-12-30T13:24:59.000Z</time>
      </trkpt>
      <trkpt lat="49.34495" lon="1.05039">
        <ele>112</ele>
        <time>2019-12-30T13:25:00.000Z</time>
      </trkpt>
      <trkpt lat="49.34497" lon="1.05036">
        <ele>112</ele>
        <time>2019-12-30T13:25:01.000Z</time>
      </trkpt>
      <trkpt lat="49.34498" lon="1.05032">
        <ele>113</ele>
        <time>2019-12-30T13:25:02.000Z</time>
      </trkpt>
      <trkpt lat="49.34499" lon="1.05028">
        <ele>113</ele>
        <time>2019-12-30T13:25:03.000Z</time>
      </trkpt>
      <trkpt lat="49.345" lon="1.05024">
        <ele>113</ele>
        <time>2019-12-30T13:25:04.000Z</time>
      </trkpt>
      <trkpt lat="49.34501" lon="1.0502">
        <ele>113</ele>
        <time>2019-12-30T13:25:05.000Z</time>
      </trkpt>
      <trkpt lat="49.34502" lon="1.05016">
        <ele>113</ele>
        <time>2019-12-30T13:25:06.000Z</time>
      </trkpt>
      <trkpt lat="49.34503" lon="1.05012">
        <ele>113</ele>
        <time>2019-12-30T13:25:07.000Z</time>
      </trkpt>
      <trkpt lat="49.34504" lon="1.05008">
        <ele>113</ele>
        <time>2019-12-30T13:25:08.000Z</time>
      </trkpt>
      <trkpt lat="49.34505" lon="1.05004">
        <ele>113</ele>
        <time>2019-12-30T13:25:09.000Z</time>
      </trkpt>
      <trkpt lat="49.34507" lon="1.05001">
        <ele>113</ele>
        <time>2019-12-30T13:25:10.000Z</time>
      </trkpt>
      <trkpt lat="49.34508" lon="1.04997">
        <ele>113</ele>
        <time>2019-12-30T13:25:11.000Z</time>
      </trkpt>
      <trkpt lat="49.34509" lon="1.04994">
        <ele>114</ele>
        <time>2019-12-30T13:25:12.000Z</time>
      </trkpt>
      <trkpt lat="49.34511" lon="1.0499">
        <ele>114</ele>
        <time>2019-12-30T13:25:13.000Z</time>
      </trkpt>
      <trkpt lat="49.34512" lon="1.04987">
        <ele>114</ele>
        <time>2019-12-30T13:25:14.000Z</time>
      </trkpt>
      <trkpt lat="49.34513" lon="1.04983">
        <ele>114</ele>
        <time>2019-12-30T13:25:15.000Z</time>
      </trkpt>
      <trkpt lat="49.34514" lon="1.04979">
        <ele>114</ele>
        <time>2019-12-30T13:25:16.000Z</time>
      </trkpt>
      <trkpt lat="49.34515" lon="1.04975">
        <ele>114</ele>
        <time>2019-12-30T13:25:17.000Z</time>
      </trkpt>
      <trkpt lat="49.34516" lon="1.04971">
        <ele>114</ele>
        <time>2019-12-30T13:25:18.000Z</time>
      </trkpt>
      <trkpt lat="49.34518" lon="1.04967">
        <ele>115</ele>
        <time>2019-12-30T13:25:19.000Z</time>
      </trkpt>
      <trkpt lat="49.34519" lon="1.04965">
        <ele>115</ele>
        <time>2019-12-30T13:25:20.000Z</time>
      </trkpt>
      <trkpt lat="49.34521" lon="1.04962">
        <ele>115</ele>
        <time>2019-12-30T13:25:21.000Z</time>
      </trkpt>
      <trkpt lat="49.34522" lon="1.04959">
        <ele>115</ele>
        <time>2019-12-30T13:25:22.000Z</time>
      </trkpt>
      <trkpt lat="49.34523" lon="1.04956">
        <ele>115</ele>
        <time>2019-12-30T13:25:23.000Z</time>
      </trkpt>
      <trkpt lat="49.34524" lon="1.04954">
        <ele>115</ele>
        <time>2019-12-30T13:25:24.000Z</time>
      </trkpt>
      <trkpt lat="49.34524" lon="1.04951">
        <ele>115</ele>
        <time>2019-12-30T13:25:25.000Z</time>
      </trkpt>
      <trkpt lat="49.34524" lon="1.04948">
        <ele>115</ele>
        <time>2019-12-30T13:25:26.000Z</time>
      </trkpt>
      <trkpt lat="49.34523" lon="1.04945">
        <ele>115</ele>
        <time>2019-12-30T13:25:27.000Z</time>
      </trkpt>
      <trkpt lat="49.34521" lon="1.04943">
        <ele>115</ele>
        <time>2019-12-30T13:25:28.000Z</time>
      </trkpt>
      <trkpt lat="49.34519" lon="1.0494">
        <ele>115</ele>
        <time>2019-12-30T13:25:29.000Z</time>
      </trkpt>
      <trkpt lat="49.34517" lon="1.04938">
        <ele>115</ele>
        <time>2019-12-30T13:25:30.000Z</time>
      </trkpt>
      <trkpt lat="49.34514" lon="1.04936">
        <ele>115</ele>
        <time>2019-12-30T13:25:31.000Z</time>
      </trkpt>
      <trkpt lat="49.34511" lon="1.04934">
        <ele>115</ele>
        <time>2019-12-30T13:25:32.000Z</time>
      </trkpt>
      <trkpt lat="49.34509" lon="1.04932">
        <ele>115</ele>
        <time>2019-12-30T13:25:33.000Z</time>
      </trkpt>
      <trkpt lat="49.34507" lon="1.0493">
        <ele>115</ele>
        <time>2019-12-30T13:25:34.000Z</time>
      </trkpt>
      <trkpt lat="49.34504" lon="1.04928">
        <ele>115</ele>
        <time>2019-12-30T13:25:35.000Z</time>
      </trkpt>
      <trkpt lat="49.34501" lon="1.04926">
        <ele>115</ele>
        <time>2019-12-30T13:25:36.000Z</time>
      </trkpt>
      <trkpt lat="49.34499" lon="1.04924">
        <ele>115</ele>
        <time>2019-12-30T13:25:37.000Z</time>
      </trkpt>
      <trkpt lat="49.34496" lon="1.04922">
        <ele>115</ele>
        <time>2019-12-30T13:25:38.000Z</time>
      </trkpt>
      <trkpt lat="49.34493" lon="1.0492">
        <ele>115</ele>
        <time>2019-12-30T13:25:39.000Z</time>
      </trkpt>
      <trkpt lat="49.34491" lon="1.04918">
        <ele>115</ele>
        <time>2019-12-30T13:25:40.000Z</time>
      </trkpt>
      <trkpt lat="49.34488" lon="1.04916">
        <ele>115</ele>
        <time>2019-12-30T13:25:41.000Z</time>
      </trkpt>
      <trkpt lat="49.34485" lon="1.04914">
        <ele>115</ele>
        <time>2019-12-30T13:25:42.000Z</time>
      </trkpt>
      <trkpt lat="49.34483" lon="1.04911">
        <ele>115</ele>
        <time>2019-12-30T13:25:43.000Z</time>
      </trkpt>
      <trkpt lat="49.34481" lon="1.04908">
        <ele>115</ele>
        <time>2019-12-30T13:25:44.000Z</time>
      </trkpt>
      <trkpt lat="49.3448" lon="1.04905">
        <ele>115</ele>
        <time>2019-12-30T13:25:45.000Z</time>
      </trkpt>
      <trkpt lat="49.3448" lon="1.04901">
        <ele>115</ele>
        <time>2019-12-30T13:25:46.000Z</time>
      </trkpt>
      <trkpt lat="49.34479" lon="1.04898">
        <ele>115</ele>
        <time>2019-12-30T13:25:47.000Z</time>
      </trkpt>
      <trkpt lat="49.34479" lon="1.04895">
        <ele>115</ele>
        <time>2019-12-30T13:25:48.000Z</time>
      </trkpt>
      <trkpt lat="49.34479" lon="1.04891">
        <ele>115</ele>
        <time>2019-12-30T13:25:49.000Z</time>
      </trkpt>
      <trkpt lat="49.34478" lon="1.04888">
        <ele>115</ele>
        <time>2019-12-30T13:25:50.000Z</time>
      </trkpt>
      <trkpt lat="49.34477" lon="1.04885">
        <ele>115</ele>
        <time>2019-12-30T13:25:51.000Z</time>
      </trkpt>
      <trkpt lat="49.34476" lon="1.04881">
        <ele>115</ele>
        <time>2019-12-30T13:25:52.000Z</time>
      </trkpt>
      <trkpt lat="49.34476" lon="1.04877">
        <ele>115</ele>
        <time>2019-12-30T13:25:53.000Z</time>
      </trkpt>
      <trkpt lat="49.34475" lon="1.04874">
        <ele>115</ele>
        <time>2019-12-30T13:25:54.000Z</time>
      </trkpt>
      <trkpt lat="49.34474" lon="1.04871">
        <ele>115</ele>
        <time>2019-12-30T13:25:55.000Z</time>
      </trkpt>
      <trkpt lat="49.34472" lon="1.04868">
        <ele>116</ele>
        <time>2019-12-30T13:25:56.000Z</time>
      </trkpt>
      <trkpt lat="49.34471" lon="1.04864">
        <ele>116</ele>
        <time>2019-12-30T13:25:57.000Z</time>
      </trkpt>
      <trkpt lat="49.34471" lon="1.04859">
        <ele>116</ele>
        <time>2019-12-30T13:25:58.000Z</time>
      </trkpt>
      <trkpt lat="49.34471" lon="1.04855">
        <ele>116</ele>
        <time>2019-12-30T13:25:59.000Z</time>
      </trkpt>
      <trkpt lat="49.34472" lon="1.04852">
        <ele>116</ele>
        <time>2019-12-30T13:26:00.000Z</time>
      </trkpt>
      <trkpt lat="49.34473" lon="1.0485">
        <ele>117</ele>
        <time>2019-12-30T13:26:01.000Z</time>
      </trkpt>
      <trkpt lat="49.34475" lon="1.04849">
        <ele>117</ele>
        <time>2019-12-30T13:26:02.000Z</time>
      </trkpt>
      <trkpt lat="49.34477" lon="1.04847">
        <ele>117</ele>
        <time>2019-12-30T13:26:03.000Z</time>
      </trkpt>
      <trkpt lat="49.34479" lon="1.04846">
        <ele>117</ele>
        <time>2019-12-30T13:26:04.000Z</time>
      </trkpt>
      <trkpt lat="49.34481" lon="1.04843">
        <ele>117</ele>
        <time>2019-12-30T13:26:05.000Z</time>
      </trkpt>
      <trkpt lat="49.34482" lon="1.0484">
        <ele>117</ele>
        <time>2019-12-30T13:26:06.000Z</time>
      </trkpt>
      <trkpt lat="49.34483" lon="1.04836">
        <ele>117</ele>
        <time>2019-12-30T13:26:07.000Z</time>
      </trkpt>
      <trkpt lat="49.34484" lon="1.04832">
        <ele>117</ele>
        <time>2019-12-30T13:26:08.000Z</time>
      </trkpt>
      <trkpt lat="49.34484" lon="1.04829">
        <ele>117</ele>
        <time>2019-12-30T13:26:09.000Z</time>
      </trkpt>
      <trkpt lat="49.34484" lon="1.04825">
        <ele>118</ele>
        <time>2019-12-30T13:26:10.000Z</time>
      </trkpt>
      <trkpt lat="49.34484" lon="1.04821">
        <ele>118</ele>
        <time>2019-12-30T13:26:11.000Z</time>
      </trkpt>
      <trkpt lat="49.34485" lon="1.04816">
        <ele>118</ele>
        <time>2019-12-30T13:26:12.000Z</time>
      </trkpt>
      <trkpt lat="49.34485" lon="1.04813">
        <ele>118</ele>
        <time>2019-12-30T13:26:13.000Z</time>
      </trkpt>
      <trkpt lat="49.34487" lon="1.04811">
        <ele>119</ele>
        <time>2019-12-30T13:26:14.000Z</time>
      </trkpt>
      <trkpt lat="49.34488" lon="1.04808">
        <ele>119</ele>
        <time>2019-12-30T13:26:15.000Z</time>
      </trkpt>
      <trkpt lat="49.34489" lon="1.04805">
        <ele>119</ele>
        <time>2019-12-30T13:26:16.000Z</time>
      </trkpt>
      <trkpt lat="49.3449" lon="1.04802">
        <ele>120</ele>
        <time>2019-12-30T13:26:17.000Z</time>
      </trkpt>
      <trkpt lat="49.34491" lon="1.04799">
        <ele>120</ele>
        <time>2019-12-30T13:26:18.000Z</time>
      </trkpt>
      <trkpt lat="49.34491" lon="1.04795">
        <ele>120</ele>
        <time>2019-12-30T13:26:19.000Z</time>
      </trkpt>
      <trkpt lat="49.3449" lon="1.04791">
        <ele>121</ele>
        <time>2019-12-30T13:26:20.000Z</time>
      </trkpt>
      <trkpt lat="49.34491" lon="1.04786">
        <ele>121</ele>
        <time>2019-12-30T13:26:21.000Z</time>
      </trkpt>
      <trkpt lat="49.34492" lon="1.04782">
        <ele>121</ele>
        <time>2019-12-30T13:26:22.000Z</time>
      </trkpt>
      <trkpt lat="49.34492" lon="1.04778">
        <ele>122</ele>
        <time>2019-12-30T13:26:23.000Z</time>
      </trkpt>
      <trkpt lat="49.34492" lon="1.04775">
        <ele>122</ele>
        <time>2019-12-30T13:26:24.000Z</time>
      </trkpt>
      <trkpt lat="49.34491" lon="1.04772">
        <ele>122</ele>
        <time>2019-12-30T13:26:25.000Z</time>
      </trkpt>
      <trkpt lat="49.3449" lon="1.04769">
        <ele>122</ele>
        <time>2019-12-30T13:26:26.000Z</time>
      </trkpt>
      <trkpt lat="49.34489" lon="1.04766">
        <ele>122</ele>
        <time>2019-12-30T13:26:27.000Z</time>
      </trkpt>
      <trkpt lat="49.34489" lon="1.04763">
        <ele>122</ele>
        <time>2019-12-30T13:26:28.000Z</time>
      </trkpt>
      <trkpt lat="49.34488" lon="1.0476">
        <ele>122</ele>
        <time>2019-12-30T13:26:29.000Z</time>
      </trkpt>
      <trkpt lat="49.34487" lon="1.04757">
        <ele>122</ele>
        <time>2019-12-30T13:26:30.000Z</time>
      </trkpt>
      <trkpt lat="49.34485" lon="1.04753">
        <ele>122</ele>
        <time>2019-12-30T13:26:31.000Z</time>
      </trkpt>
      <trkpt lat="49.34484" lon="1.04749">
        <ele>122</ele>
        <time>2019-12-30T13:26:32.000Z</time>
      </trkpt>
      <trkpt lat="49.34484" lon="1.04744">
        <ele>122</ele>
        <time>2019-12-30T13:26:33.000Z</time>
      </trkpt>
      <trkpt lat="49.34484" lon="1.0474">
        <ele>122</ele>
        <time>2019-12-30T13:26:34.000Z</time>
      </trkpt>
      <trkpt lat="49.34484" lon="1.04735">
        <ele>122</ele>
        <time>2019-12-30T13:26:35.000Z</time>
      </trkpt>
      <trkpt lat="49.34484" lon="1.0473">
        <ele>122</ele>
        <time>2019-12-30T13:26:36.000Z</time>
      </trkpt>
      <trkpt lat="49.34484" lon="1.04726">
        <ele>122</ele>
        <time>2019-12-30T13:26:37.000Z</time>
      </trkpt>
      <trkpt lat="49.34483" lon="1.04722">
        <ele>122</ele>
        <time>2019-12-30T13:26:38.000Z</time>
      </trkpt>
      <trkpt lat="49.34482" lon="1.04718">
        <ele>122</ele>
        <time>2019-12-30T13:26:39.000Z</time>
      </trkpt>
      <trkpt lat="49.34481" lon="1.04714">
        <ele>122</ele>
        <time>2019-12-30T13:26:40.000Z</time>
      </trkpt>
      <trkpt lat="49.3448" lon="1.0471">
        <ele>122</ele>
        <time>2019-12-30T13:26:41.000Z</time>
      </trkpt>
      <trkpt lat="49.34479" lon="1.04706">
        <ele>122</ele>
        <time>2019-12-30T13:26:42.000Z</time>
      </trkpt>
      <trkpt lat="49.34478" lon="1.04702">
        <ele>122</ele>
        <time>2019-12-30T13:26:43.000Z</time>
      </trkpt>
      <trkpt lat="49.34477" lon="1.04698">
        <ele>122</ele>
        <time>2019-12-30T13:26:44.000Z</time>
      </trkpt>
      <trkpt lat="49.34476" lon="1.04695">
        <ele>122</ele>
        <time>2019-12-30T13:26:45.000Z</time>
      </trkpt>
      <trkpt lat="49.34474" lon="1.04692">
        <ele>122</ele>
        <time>2019-12-30T13:26:46.000Z</time>
      </trkpt>
      <trkpt lat="49.34472" lon="1.04689">
        <ele>122</ele>
        <time>2019-12-30T13:26:47.000Z</time>
      </trkpt>
      <trkpt lat="49.3447" lon="1.04687">
        <ele>122</ele>
        <time>2019-12-30T13:26:48.000Z</time>
      </trkpt>
      <trkpt lat="49.34469" lon="1.04683">
        <ele>122</ele>
        <time>2019-12-30T13:26:49.000Z</time>
      </trkpt>
      <trkpt lat="49.34468" lon="1.04679">
        <ele>122</ele>
        <time>2019-12-30T13:26:50.000Z</time>
      </trkpt>
      <trkpt lat="49.34468" lon="1.04675">
        <ele>121</ele>
        <time>2019-12-30T13:26:51.000Z</time>
      </trkpt>
      <trkpt lat="49.34469" lon="1.0467">
        <ele>121</ele>
        <time>2019-12-30T13:26:52.000Z</time>
      </trkpt>
      <trkpt lat="49.3447" lon="1.04666">
        <ele>121</ele>
        <time>2019-12-30T13:26:53.000Z</time>
      </trkpt>
      <trkpt lat="49.34471" lon="1.04661">
        <ele>122</ele>
        <time>2019-12-30T13:26:54.000Z</time>
      </trkpt>
      <trkpt lat="49.34473" lon="1.04657">
        <ele>122</ele>
        <time>2019-12-30T13:26:55.000Z</time>
      </trkpt>
      <trkpt lat="49.34474" lon="1.04652">
        <ele>122</ele>
        <time>2019-12-30T13:26:56.000Z</time>
      </trkpt>
      <trkpt lat="49.34475" lon="1.04647">
        <ele>122</ele>
        <time>2019-12-30T13:26:57.000Z</time>
      </trkpt>
      <trkpt lat="49.34475" lon="1.04641">
        <ele>123</ele>
        <time>2019-12-30T13:26:58.000Z</time>
      </trkpt>
      <trkpt lat="49.34476" lon="1.04636">
        <ele>123</ele>
        <time>2019-12-30T13:26:59.000Z</time>
      </trkpt>
      <trkpt lat="49.34477" lon="1.04631">
        <ele>123</ele>
        <time>2019-12-30T13:27:00.000Z</time>
      </trkpt>
      <trkpt lat="49.34478" lon="1.04626">
        <ele>123</ele>
        <time>2019-12-30T13:27:01.000Z</time>
      </trkpt>
      <trkpt lat="49.34479" lon="1.04621">
        <ele>124</ele>
        <time>2019-12-30T13:27:02.000Z</time>
      </trkpt>
      <trkpt lat="49.3448" lon="1.04616">
        <ele>124</ele>
        <time>2019-12-30T13:27:03.000Z</time>
      </trkpt>
      <trkpt lat="49.34481" lon="1.04612">
        <ele>124</ele>
        <time>2019-12-30T13:27:04.000Z</time>
      </trkpt>
      <trkpt lat="49.34482" lon="1.04607">
        <ele>124</ele>
        <time>2019-12-30T13:27:05.000Z</time>
      </trkpt>
      <trkpt lat="49.34483" lon="1.04603">
        <ele>125</ele>
        <time>2019-12-30T13:27:06.000Z</time>
      </trkpt>
      <trkpt lat="49.34484" lon="1.04597">
        <ele>125</ele>
        <time>2019-12-30T13:27:07.000Z</time>
      </trkpt>
      <trkpt lat="49.34484" lon="1.04593">
        <ele>125</ele>
        <time>2019-12-30T13:27:08.000Z</time>
      </trkpt>
      <trkpt lat="49.34485" lon="1.04589">
        <ele>125</ele>
        <time>2019-12-30T13:27:09.000Z</time>
      </trkpt>
      <trkpt lat="49.34486" lon="1.04585">
        <ele>125</ele>
        <time>2019-12-30T13:27:10.000Z</time>
      </trkpt>
      <trkpt lat="49.34486" lon="1.0458">
        <ele>125</ele>
        <time>2019-12-30T13:27:11.000Z</time>
      </trkpt>
      <trkpt lat="49.34487" lon="1.04574">
        <ele>126</ele>
        <time>2019-12-30T13:27:12.000Z</time>
      </trkpt>
      <trkpt lat="49.34488" lon="1.04569">
        <ele>126</ele>
        <time>2019-12-30T13:27:13.000Z</time>
      </trkpt>
      <trkpt lat="49.34489" lon="1.04565">
        <ele>126</ele>
        <time>2019-12-30T13:27:14.000Z</time>
      </trkpt>
      <trkpt lat="49.3449" lon="1.0456">
        <ele>126</ele>
        <time>2019-12-30T13:27:15.000Z</time>
      </trkpt>
      <trkpt lat="49.34491" lon="1.04554">
        <ele>126</ele>
        <time>2019-12-30T13:27:16.000Z</time>
      </trkpt>
      <trkpt lat="49.34492" lon="1.04549">
        <ele>127</ele>
        <time>2019-12-30T13:27:17.000Z</time>
      </trkpt>
      <trkpt lat="49.34493" lon="1.04544">
        <ele>127</ele>
        <time>2019-12-30T13:27:18.000Z</time>
      </trkpt>
      <trkpt lat="49.34493" lon="1.0454">
        <ele>127</ele>
        <time>2019-12-30T13:27:19.000Z</time>
      </trkpt>
      <trkpt lat="49.34495" lon="1.04535">
        <ele>127</ele>
        <time>2019-12-30T13:27:20.000Z</time>
      </trkpt>
      <trkpt lat="49.34496" lon="1.0453">
        <ele>127</ele>
        <time>2019-12-30T13:27:21.000Z</time>
      </trkpt>
      <trkpt lat="49.34497" lon="1.04526">
        <ele>127</ele>
        <time>2019-12-30T13:27:22.000Z</time>
      </trkpt>
      <trkpt lat="49.34498" lon="1.0452">
        <ele>127</ele>
        <time>2019-12-30T13:27:23.000Z</time>
      </trkpt>
      <trkpt lat="49.34499" lon="1.04515">
        <ele>127</ele>
        <time>2019-12-30T13:27:24.000Z</time>
      </trkpt>
      <trkpt lat="49.345" lon="1.04511">
        <ele>127</ele>
        <time>2019-12-30T13:27:25.000Z</time>
      </trkpt>
      <trkpt lat="49.34502" lon="1.04506">
        <ele>127</ele>
        <time>2019-12-30T13:27:26.000Z</time>
      </trkpt>
      <trkpt lat="49.34503" lon="1.04501">
        <ele>127</ele>
        <time>2019-12-30T13:27:27.000Z</time>
      </trkpt>
      <trkpt lat="49.34505" lon="1.04497">
        <ele>128</ele>
        <time>2019-12-30T13:27:28.000Z</time>
      </trkpt>
      <trkpt lat="49.34507" lon="1.04494">
        <ele>128</ele>
        <time>2019-12-30T13:27:29.000Z</time>
      </trkpt>
      <trkpt lat="49.34509" lon="1.0449">
        <ele>128</ele>
        <time>2019-12-30T13:27:30.000Z</time>
      </trkpt>
      <trkpt lat="49.3451" lon="1.04486">
        <ele>128</ele>
        <time>2019-12-30T13:27:31.000Z</time>
      </trkpt>
      <trkpt lat="49.34511" lon="1.04481">
        <ele>128</ele>
        <time>2019-12-30T13:27:32.000Z</time>
      </trkpt>
      <trkpt lat="49.34512" lon="1.04478">
        <ele>128</ele>
        <time>2019-12-30T13:27:33.000Z</time>
      </trkpt>
      <trkpt lat="49.34514" lon="1.04474">
        <ele>129</ele>
        <time>2019-12-30T13:27:34.000Z</time>
      </trkpt>
      <trkpt lat="49.34516" lon="1.0447">
        <ele>129</ele>
        <time>2019-12-30T13:27:35.000Z</time>
      </trkpt>
      <trkpt lat="49.34517" lon="1.04466">
        <ele>129</ele>
        <time>2019-12-30T13:27:36.000Z</time>
      </trkpt>
      <trkpt lat="49.34518" lon="1.04461">
        <ele>130</ele>
        <time>2019-12-30T13:27:37.000Z</time>
      </trkpt>
      <trkpt lat="49.3452" lon="1.04456">
        <ele>130</ele>
        <time>2019-12-30T13:27:38.000Z</time>
      </trkpt>
      <trkpt lat="49.34521" lon="1.04451">
        <ele>131</ele>
        <time>2019-12-30T13:27:39.000Z</time>
      </trkpt>
      <trkpt lat="49.34522" lon="1.04446">
        <ele>131</ele>
        <time>2019-12-30T13:27:40.000Z</time>
      </trkpt>
      <trkpt lat="49.34523" lon="1.04441">
        <ele>131</ele>
        <time>2019-12-30T13:27:41.000Z</time>
      </trkpt>
      <trkpt lat="49.34524" lon="1.04438">
        <ele>132</ele>
        <time>2019-12-30T13:27:42.000Z</time>
      </trkpt>
      <trkpt lat="49.34526" lon="1.04433">
        <ele>132</ele>
        <time>2019-12-30T13:27:43.000Z</time>
      </trkpt>
      <trkpt lat="49.34527" lon="1.04429">
        <ele>132</ele>
        <time>2019-12-30T13:27:44.000Z</time>
      </trkpt>
      <trkpt lat="49.34529" lon="1.04424">
        <ele>132</ele>
        <time>2019-12-30T13:27:45.000Z</time>
      </trkpt>
      <trkpt lat="49.3453" lon="1.04419">
        <ele>131</ele>
        <time>2019-12-30T13:27:46.000Z</time>
      </trkpt>
      <trkpt lat="49.34532" lon="1.04415">
        <ele>131</ele>
        <time>2019-12-30T13:27:47.000Z</time>
      </trkpt>
      <trkpt lat="49.34534" lon="1.0441">
        <ele>131</ele>
        <time>2019-12-30T13:27:48.000Z</time>
      </trkpt>
      <trkpt lat="49.34535" lon="1.04405">
        <ele>131</ele>
        <time>2019-12-30T13:27:49.000Z</time>
      </trkpt>
      <trkpt lat="49.34537" lon="1.04401">
        <ele>130</ele>
        <time>2019-12-30T13:27:50.000Z</time>
      </trkpt>
      <trkpt lat="49.34538" lon="1.04396">
        <ele>130</ele>
        <time>2019-12-30T13:27:51.000Z</time>
      </trkpt>
      <trkpt lat="49.3454" lon="1.04391">
        <ele>130</ele>
        <time>2019-12-30T13:27:52.000Z</time>
      </trkpt>
      <trkpt lat="49.34542" lon="1.04386">
        <ele>130</ele>
        <time>2019-12-30T13:27:53.000Z</time>
      </trkpt>
      <trkpt lat="49.34544" lon="1.04381">
        <ele>129</ele>
        <time>2019-12-30T13:27:54.000Z</time>
      </trkpt>
      <trkpt lat="49.34547" lon="1.04377">
        <ele>129</ele>
        <time>2019-12-30T13:27:55.000Z</time>
      </trkpt>
      <trkpt lat="49.34549" lon="1.04372">
        <ele>129</ele>
        <time>2019-12-30T13:27:56.000Z</time>
      </trkpt>
      <trkpt lat="49.34551" lon="1.04368">
        <ele>128</ele>
        <time>2019-12-30T13:27:57.000Z</time>
      </trkpt>
      <trkpt lat="49.34553" lon="1.04364">
        <ele>128</ele>
        <time>2019-12-30T13:27:58.000Z</time>
      </trkpt>
      <trkpt lat="49.34556" lon="1.0436">
        <ele>128</ele>
        <time>2019-12-30T13:27:59.000Z</time>
      </trkpt>
      <trkpt lat="49.34559" lon="1.04356">
        <ele>127</ele>
        <time>2019-12-30T13:28:00.000Z</time>
      </trkpt>
      <trkpt lat="49.34562" lon="1.04351">
        <ele>127</ele>
        <time>2019-12-30T13:28:01.000Z</time>
      </trkpt>
      <trkpt lat="49.34565" lon="1.04346">
        <ele>127</ele>
        <time>2019-12-30T13:28:02.000Z</time>
      </trkpt>
      <trkpt lat="49.34568" lon="1.04342">
        <ele>126</ele>
        <time>2019-12-30T13:28:03.000Z</time>
      </trkpt>
      <trkpt lat="49.34571" lon="1.04338">
        <ele>126</ele>
        <time>2019-12-30T13:28:04.000Z</time>
      </trkpt>
      <trkpt lat="49.34574" lon="1.04334">
        <ele>126</ele>
        <time>2019-12-30T13:28:05.000Z</time>
      </trkpt>
      <trkpt lat="49.34576" lon="1.0433">
        <ele>126</ele>
        <time>2019-12-30T13:28:06.000Z</time>
      </trkpt>
      <trkpt lat="49.34578" lon="1.04326">
        <ele>125</ele>
        <time>2019-12-30T13:28:07.000Z</time>
      </trkpt>
      <trkpt lat="49.34579" lon="1.04321">
        <ele>125</ele>
        <time>2019-12-30T13:28:08.000Z</time>
      </trkpt>
      <trkpt lat="49.34582" lon="1.04316">
        <ele>125</ele>
        <time>2019-12-30T13:28:09.000Z</time>
      </trkpt>
      <trkpt lat="49.34583" lon="1.04311">
        <ele>125</ele>
        <time>2019-12-30T13:28:10.000Z</time>
      </trkpt>
      <trkpt lat="49.34585" lon="1.04307">
        <ele>125</ele>
        <time>2019-12-30T13:28:11.000Z</time>
      </trkpt>
      <trkpt lat="49.34586" lon="1.04302">
        <ele>124</ele>
        <time>2019-12-30T13:28:12.000Z</time>
      </trkpt>
      <trkpt lat="49.34587" lon="1.04297">
        <ele>124</ele>
        <time>2019-12-30T13:28:13.000Z</time>
      </trkpt>
      <trkpt lat="49.34588" lon="1.04292">
        <ele>124</ele>
        <time>2019-12-30T13:28:14.000Z</time>
      </trkpt>
      <trkpt lat="49.3459" lon="1.04288">
        <ele>123</ele>
        <time>2019-12-30T13:28:15.000Z</time>
      </trkpt>
      <trkpt lat="49.34591" lon="1.04283">
        <ele>123</ele>
        <time>2019-12-30T13:28:16.000Z</time>
      </trkpt>
      <trkpt lat="49.34592" lon="1.04278">
        <ele>123</ele>
        <time>2019-12-30T13:28:17.000Z</time>
      </trkpt>
      <trkpt lat="49.34593" lon="1.04274">
        <ele>123</ele>
        <time>2019-12-30T13:28:18.000Z</time>
      </trkpt>
      <trkpt lat="49.34594" lon="1.04269">
        <ele>122</ele>
        <time>2019-12-30T13:28:19.000Z</time>
      </trkpt>
      <trkpt lat="49.34595" lon="1.04265">
        <ele>122</ele>
        <time>2019-12-30T13:28:20.000Z</time>
      </trkpt>
      <trkpt lat="49.34595" lon="1.04261">
        <ele>122</ele>
        <time>2019-12-30T13:28:21.000Z</time>
      </trkpt>
      <trkpt lat="49.34597" lon="1.04259">
        <ele>122</ele>
        <time>2019-12-30T13:28:22.000Z</time>
      </trkpt>
      <trkpt lat="49.34599" lon="1.04259">
        <ele>122</ele>
        <time>2019-12-30T13:28:23.000Z</time>
      </trkpt>
      <trkpt lat="49.34601" lon="1.0426">
        <ele>121</ele>
        <time>2019-12-30T13:28:24.000Z</time>
      </trkpt>
      <trkpt lat="49.34604" lon="1.04262">
        <ele>121</ele>
        <time>2019-12-30T13:28:25.000Z</time>
      </trkpt>
      <trkpt lat="49.34606" lon="1.04264">
        <ele>121</ele>
        <time>2019-12-30T13:28:26.000Z</time>
      </trkpt>
      <trkpt lat="49.3461" lon="1.04266">
        <ele>121</ele>
        <time>2019-12-30T13:28:27.000Z</time>
      </trkpt>
      <trkpt lat="49.34613" lon="1.04269">
        <ele>121</ele>
        <time>2019-12-30T13:28:28.000Z</time>
      </trkpt>
      <trkpt lat="49.34617" lon="1.04271">
        <ele>121</ele>
        <time>2019-12-30T13:28:29.000Z</time>
      </trkpt>
      <trkpt lat="49.34622" lon="1.04274">
        <ele>120</ele>
        <time>2019-12-30T13:28:30.000Z</time>
      </trkpt>
      <trkpt lat="49.34626" lon="1.04278">
        <ele>120</ele>
        <time>2019-12-30T13:28:31.000Z</time>
      </trkpt>
      <trkpt lat="49.3463" lon="1.04281">
        <ele>120</ele>
        <time>2019-12-30T13:28:32.000Z</time>
      </trkpt>
      <trkpt lat="49.34635" lon="1.04284">
        <ele>120</ele>
        <time>2019-12-30T13:28:33.000Z</time>
      </trkpt>
      <trkpt lat="49.34639" lon="1.04287">
        <ele>120</ele>
        <time>2019-12-30T13:28:34.000Z</time>
      </trkpt>
      <trkpt lat="49.34644" lon="1.0429">
        <ele>120</ele>
        <time>2019-12-30T13:28:35.000Z</time>
      </trkpt>
      <trkpt lat="49.34648" lon="1.04293">
        <ele>120</ele>
        <time>2019-12-30T13:28:36.000Z</time>
      </trkpt>
      <trkpt lat="49.34653" lon="1.04297">
        <ele>120</ele>
        <time>2019-12-30T13:28:37.000Z</time>
      </trkpt>
      <trkpt lat="49.34657" lon="1.043">
        <ele>119</ele>
        <time>2019-12-30T13:28:38.000Z</time>
      </trkpt>
      <trkpt lat="49.34662" lon="1.04303">
        <ele>119</ele>
        <time>2019-12-30T13:28:39.000Z</time>
      </trkpt>
      <trkpt lat="49.34667" lon="1.04307">
        <ele>119</ele>
        <time>2019-12-30T13:28:40.000Z</time>
      </trkpt>
      <trkpt lat="49.34671" lon="1.0431">
        <ele>119</ele>
        <time>2019-12-30T13:28:41.000Z</time>
      </trkpt>
      <trkpt lat="49.34676" lon="1.04313">
        <ele>119</ele>
        <time>2019-12-30T13:28:42.000Z</time>
      </trkpt>
      <trkpt lat="49.34681" lon="1.04317">
        <ele>119</ele>
        <time>2019-12-30T13:28:43.000Z</time>
      </trkpt>
      <trkpt lat="49.34686" lon="1.0432">
        <ele>119</ele>
        <time>2019-12-30T13:28:44.000Z</time>
      </trkpt>
      <trkpt lat="49.3469" lon="1.04323">
        <ele>119</ele>
        <time>2019-12-30T13:28:45.000Z</time>
      </trkpt>
      <trkpt lat="49.34695" lon="1.04326">
        <ele>119</ele>
        <time>2019-12-30T13:28:46.000Z</time>
      </trkpt>
      <trkpt lat="49.34699" lon="1.04329">
        <ele>119</ele>
        <time>2019-12-30T13:28:47.000Z</time>
      </trkpt>
      <trkpt lat="49.34703" lon="1.04332">
        <ele>119</ele>
        <time>2019-12-30T13:28:48.000Z</time>
      </trkpt>
      <trkpt lat="49.34708" lon="1.04335">
        <ele>119</ele>
        <time>2019-12-30T13:28:49.000Z</time>
      </trkpt>
      <trkpt lat="49.34712" lon="1.04339">
        <ele>118</ele>
        <time>2019-12-30T13:28:50.000Z</time>
      </trkpt>
      <trkpt lat="49.34717" lon="1.04342">
        <ele>118</ele>
        <time>2019-12-30T13:28:51.000Z</time>
      </trkpt>
      <trkpt lat="49.34721" lon="1.04345">
        <ele>118</ele>
        <time>2019-12-30T13:28:52.000Z</time>
      </trkpt>
      <trkpt lat="49.34725" lon="1.04349">
        <ele>118</ele>
        <time>2019-12-30T13:28:53.000Z</time>
      </trkpt>
      <trkpt lat="49.3473" lon="1.04352">
        <ele>118</ele>
        <time>2019-12-30T13:28:54.000Z</time>
      </trkpt>
      <trkpt lat="49.34734" lon="1.04355">
        <ele>118</ele>
        <time>2019-12-30T13:28:55.000Z</time>
      </trkpt>
      <trkpt lat="49.34738" lon="1.04358">
        <ele>118</ele>
        <time>2019-12-30T13:28:56.000Z</time>
      </trkpt>
      <trkpt lat="49.34742" lon="1.04362">
        <ele>118</ele>
        <time>2019-12-30T13:28:57.000Z</time>
      </trkpt>
      <trkpt lat="49.34746" lon="1.04365">
        <ele>118</ele>
        <time>2019-12-30T13:28:58.000Z</time>
      </trkpt>
      <trkpt lat="49.3475" lon="1.04368">
        <ele>118</ele>
        <time>2019-12-30T13:28:59.000Z</time>
      </trkpt>
      <trkpt lat="49.34754" lon="1.04372">
        <ele>118</ele>
        <time>2019-12-30T13:29:00.000Z</time>
      </trkpt>
      <trkpt lat="49.34758" lon="1.04375">
        <ele>118</ele>
        <time>2019-12-30T13:29:01.000Z</time>
      </trkpt>
      <trkpt lat="49.34762" lon="1.04378">
        <ele>118</ele>
        <time>2019-12-30T13:29:02.000Z</time>
      </trkpt>
      <trkpt lat="49.34766" lon="1.04381">
        <ele>118</ele>
        <time>2019-12-30T13:29:03.000Z</time>
      </trkpt>
      <trkpt lat="49.34769" lon="1.04384">
        <ele>118</ele>
        <time>2019-12-30T13:29:04.000Z</time>
      </trkpt>
      <trkpt lat="49.34772" lon="1.04386">
        <ele>118</ele>
        <time>2019-12-30T13:29:05.000Z</time>
      </trkpt>
      <trkpt lat="49.34775" lon="1.04388">
        <ele>118</ele>
        <time>2019-12-30T13:29:06.000Z</time>
      </trkpt>
      <trkpt lat="49.34778" lon="1.0439">
        <ele>118</ele>
        <time>2019-12-30T13:29:07.000Z</time>
      </trkpt>
      <trkpt lat="49.34781" lon="1.04392">
        <ele>117</ele>
        <time>2019-12-30T13:29:08.000Z</time>
      </trkpt>
      <trkpt lat="49.34783" lon="1.04393">
        <ele>117</ele>
        <time>2019-12-30T13:29:09.000Z</time>
      </trkpt>
      <trkpt lat="49.34786" lon="1.04393">
        <ele>117</ele>
        <time>2019-12-30T13:29:10.000Z</time>
      </trkpt>
      <trkpt lat="49.34788" lon="1.04396">
        <ele>117</ele>
        <time>2019-12-30T13:29:11.000Z</time>
      </trkpt>
      <trkpt lat="49.34789" lon="1.04399">
        <ele>117</ele>
        <time>2019-12-30T13:29:12.000Z</time>
      </trkpt>
      <trkpt lat="49.34789" lon="1.04403">
        <ele>117</ele>
        <time>2019-12-30T13:29:13.000Z</time>
      </trkpt>
      <trkpt lat="49.3479" lon="1.04404">
        <ele>117</ele>
        <time>2019-12-30T13:29:14.000Z</time>
      </trkpt>
      <trkpt lat="49.3479" lon="1.04405">
        <ele>117</ele>
        <time>2019-12-30T13:29:15.000Z</time>
      </trkpt>
      <trkpt lat="49.34789" lon="1.04405">
        <ele>117</ele>
        <time>2019-12-30T13:29:16.000Z</time>
      </trkpt>
      <trkpt lat="49.34788" lon="1.04405">
        <ele>117</ele>
        <time>2019-12-30T13:29:17.000Z</time>
      </trkpt>
      <trkpt lat="49.3479" lon="1.04406">
        <ele>117</ele>
        <time>2019-12-30T13:29:18.000Z</time>
      </trkpt>
      <trkpt lat="49.34793" lon="1.04407">
        <ele>117</ele>
        <time>2019-12-30T13:29:19.000Z</time>
      </trkpt>
      <trkpt lat="49.34795" lon="1.04407">
        <ele>117</ele>
        <time>2019-12-30T13:29:20.000Z</time>
      </trkpt>
      <trkpt lat="49.34796" lon="1.04406">
        <ele>118</ele>
        <time>2019-12-30T13:29:21.000Z</time>
      </trkpt>
      <trkpt lat="49.34797" lon="1.04405">
        <ele>118</ele>
        <time>2019-12-30T13:29:22.000Z</time>
      </trkpt>
      <trkpt lat="49.34797" lon="1.04405">
        <ele>118</ele>
        <time>2019-12-30T13:29:23.000Z</time>
      </trkpt>
      <trkpt lat="49.34797" lon="1.04405">
        <ele>118</ele>
        <time>2019-12-30T13:29:24.000Z</time>
      </trkpt>
      <trkpt lat="49.34801" lon="1.04404">
        <ele>118</ele>
        <time>2019-12-30T13:29:25.000Z</time>
      </trkpt>
      <trkpt lat="49.34803" lon="1.04402">
        <ele>117</ele>
        <time>2019-12-30T13:29:26.000Z</time>
      </trkpt>
      <trkpt lat="49.34805" lon="1.04399">
        <ele>117</ele>
        <time>2019-12-30T13:29:27.000Z</time>
      </trkpt>
      <trkpt lat="49.34807" lon="1.04393">
        <ele>117</ele>
        <time>2019-12-30T13:29:28.000Z</time>
      </trkpt>
      <trkpt lat="49.34808" lon="1.04387">
        <ele>117</ele>
        <time>2019-12-30T13:29:29.000Z</time>
      </trkpt>
      <trkpt lat="49.3481" lon="1.04381">
        <ele>117</ele>
        <time>2019-12-30T13:29:30.000Z</time>
      </trkpt>
      <trkpt lat="49.34811" lon="1.04375">
        <ele>117</ele>
        <time>2019-12-30T13:29:31.000Z</time>
      </trkpt>
      <trkpt lat="49.34812" lon="1.04368">
        <ele>117</ele>
        <time>2019-12-30T13:29:32.000Z</time>
      </trkpt>
      <trkpt lat="49.34813" lon="1.04361">
        <ele>118</ele>
        <time>2019-12-30T13:29:33.000Z</time>
      </trkpt>
      <trkpt lat="49.34814" lon="1.04355">
        <ele>118</ele>
        <time>2019-12-30T13:29:34.000Z</time>
      </trkpt>
      <trkpt lat="49.34815" lon="1.04348">
        <ele>118</ele>
        <time>2019-12-30T13:29:35.000Z</time>
      </trkpt>
      <trkpt lat="49.34816" lon="1.04342">
        <ele>118</ele>
        <time>2019-12-30T13:29:36.000Z</time>
      </trkpt>
      <trkpt lat="49.34817" lon="1.04336">
        <ele>118</ele>
        <time>2019-12-30T13:29:37.000Z</time>
      </trkpt>
      <trkpt lat="49.34819" lon="1.04329">
        <ele>118</ele>
        <time>2019-12-30T13:29:38.000Z</time>
      </trkpt>
      <trkpt lat="49.3482" lon="1.04323">
        <ele>118</ele>
        <time>2019-12-30T13:29:39.000Z</time>
      </trkpt>
      <trkpt lat="49.34822" lon="1.04316">
        <ele>118</ele>
        <time>2019-12-30T13:29:40.000Z</time>
      </trkpt>
      <trkpt lat="49.34823" lon="1.04309">
        <ele>119</ele>
        <time>2019-12-30T13:29:41.000Z</time>
      </trkpt>
      <trkpt lat="49.34825" lon="1.04303">
        <ele>119</ele>
        <time>2019-12-30T13:29:42.000Z</time>
      </trkpt>
      <trkpt lat="49.34826" lon="1.04296">
        <ele>119</ele>
        <time>2019-12-30T13:29:43.000Z</time>
      </trkpt>
      <trkpt lat="49.34827" lon="1.04289">
        <ele>119</ele>
        <time>2019-12-30T13:29:44.000Z</time>
      </trkpt>
      <trkpt lat="49.34828" lon="1.04282">
        <ele>119</ele>
        <time>2019-12-30T13:29:45.000Z</time>
      </trkpt>
      <trkpt lat="49.3483" lon="1.04275">
        <ele>119</ele>
        <time>2019-12-30T13:29:46.000Z</time>
      </trkpt>
      <trkpt lat="49.34831" lon="1.04268">
        <ele>120</ele>
        <time>2019-12-30T13:29:47.000Z</time>
      </trkpt>
      <trkpt lat="49.34833" lon="1.04261">
        <ele>120</ele>
        <time>2019-12-30T13:29:48.000Z</time>
      </trkpt>
      <trkpt lat="49.34834" lon="1.04254">
        <ele>120</ele>
        <time>2019-12-30T13:29:49.000Z</time>
      </trkpt>
      <trkpt lat="49.34835" lon="1.04247">
        <ele>120</ele>
        <time>2019-12-30T13:29:50.000Z</time>
      </trkpt>
      <trkpt lat="49.34837" lon="1.0424">
        <ele>121</ele>
        <time>2019-12-30T13:29:51.000Z</time>
      </trkpt>
      <trkpt lat="49.34838" lon="1.04233">
        <ele>121</ele>
        <time>2019-12-30T13:29:52.000Z</time>
      </trkpt>
      <trkpt lat="49.34839" lon="1.04226">
        <ele>121</ele>
        <time>2019-12-30T13:29:53.000Z</time>
      </trkpt>
      <trkpt lat="49.34841" lon="1.04218">
        <ele>121</ele>
        <time>2019-12-30T13:29:54.000Z</time>
      </trkpt>
      <trkpt lat="49.34842" lon="1.04211">
        <ele>121</ele>
        <time>2019-12-30T13:29:55.000Z</time>
      </trkpt>
      <trkpt lat="49.34844" lon="1.04204">
        <ele>121</ele>
        <time>2019-12-30T13:29:56.000Z</time>
      </trkpt>
      <trkpt lat="49.34845" lon="1.04197">
        <ele>121</ele>
        <time>2019-12-30T13:29:57.000Z</time>
      </trkpt>
      <trkpt lat="49.34847" lon="1.04189">
        <ele>121</ele>
        <time>2019-12-30T13:29:58.000Z</time>
      </trkpt>
      <trkpt lat="49.34848" lon="1.04182">
        <ele>121</ele>
        <time>2019-12-30T13:29:59.000Z</time>
      </trkpt>
      <trkpt lat="49.3485" lon="1.04175">
        <ele>121</ele>
        <time>2019-12-30T13:30:00.000Z</time>
      </trkpt>
      <trkpt lat="49.34851" lon="1.04168">
        <ele>121</ele>
        <time>2019-12-30T13:30:01.000Z</time>
      </trkpt>
      <trkpt lat="49.34853" lon="1.04161">
        <ele>121</ele>
        <time>2019-12-30T13:30:02.000Z</time>
      </trkpt>
      <trkpt lat="49.34854" lon="1.04154">
        <ele>121</ele>
        <time>2019-12-30T13:30:03.000Z</time>
      </trkpt>
      <trkpt lat="49.34856" lon="1.04146">
        <ele>121</ele>
        <time>2019-12-30T13:30:04.000Z</time>
      </trkpt>
      <trkpt lat="49.34857" lon="1.04139">
        <ele>121</ele>
        <time>2019-12-30T13:30:05.000Z</time>
      </trkpt>
      <trkpt lat="49.34858" lon="1.04132">
        <ele>121</ele>
        <time>2019-12-30T13:30:06.000Z</time>
      </trkpt>
      <trkpt lat="49.3486" lon="1.04125">
        <ele>121</ele>
        <time>2019-12-30T13:30:07.000Z</time>
      </trkpt>
      <trkpt lat="49.34861" lon="1.04118">
        <ele>122</ele>
        <time>2019-12-30T13:30:08.000Z</time>
      </trkpt>
      <trkpt lat="49.34863" lon="1.04111">
        <ele>122</ele>
        <time>2019-12-30T13:30:09.000Z</time>
      </trkpt>
      <trkpt lat="49.34864" lon="1.04104">
        <ele>122</ele>
        <time>2019-12-30T13:30:10.000Z</time>
      </trkpt>
      <trkpt lat="49.34865" lon="1.04097">
        <ele>122</ele>
        <time>2019-12-30T13:30:11.000Z</time>
      </trkpt>
      <trkpt lat="49.34867" lon="1.0409">
        <ele>122</ele>
        <time>2019-12-30T13:30:12.000Z</time>
      </trkpt>
      <trkpt lat="49.34868" lon="1.04083">
        <ele>122</ele>
        <time>2019-12-30T13:30:13.000Z</time>
      </trkpt>
      <trkpt lat="49.34869" lon="1.04076">
        <ele>122</ele>
        <time>2019-12-30T13:30:14.000Z</time>
      </trkpt>
      <trkpt lat="49.3487" lon="1.04069">
        <ele>122</ele>
        <time>2019-12-30T13:30:15.000Z</time>
      </trkpt>
      <trkpt lat="49.34872" lon="1.04062">
        <ele>122</ele>
        <time>2019-12-30T13:30:16.000Z</time>
      </trkpt>
      <trkpt lat="49.34873" lon="1.04055">
        <ele>122</ele>
        <time>2019-12-30T13:30:17.000Z</time>
      </trkpt>
      <trkpt lat="49.34874" lon="1.04048">
        <ele>122</ele>
        <time>2019-12-30T13:30:18.000Z</time>
      </trkpt>
      <trkpt lat="49.34876" lon="1.04041">
        <ele>122</ele>
        <time>2019-12-30T13:30:19.000Z</time>
      </trkpt>
      <trkpt lat="49.34877" lon="1.04034">
        <ele>122</ele>
        <time>2019-12-30T13:30:20.000Z</time>
      </trkpt>
      <trkpt lat="49.34878" lon="1.04027">
        <ele>122</ele>
        <time>2019-12-30T13:30:21.000Z</time>
      </trkpt>
      <trkpt lat="49.34879" lon="1.0402">
        <ele>122</ele>
        <time>2019-12-30T13:30:22.000Z</time>
      </trkpt>
      <trkpt lat="49.34881" lon="1.04013">
        <ele>122</ele>
        <time>2019-12-30T13:30:23.000Z</time>
      </trkpt>
      <trkpt lat="49.34882" lon="1.04006">
        <ele>122</ele>
        <time>2019-12-30T13:30:24.000Z</time>
      </trkpt>
      <trkpt lat="49.34883" lon="1.03999">
        <ele>122</ele>
        <time>2019-12-30T13:30:25.000Z</time>
      </trkpt>
      <trkpt lat="49.34884" lon="1.03992">
        <ele>122</ele>
        <time>2019-12-30T13:30:26.000Z</time>
      </trkpt>
      <trkpt lat="49.34885" lon="1.03985">
        <ele>122</ele>
        <time>2019-12-30T13:30:27.000Z</time>
      </trkpt>
      <trkpt lat="49.34886" lon="1.03978">
        <ele>122</ele>
        <time>2019-12-30T13:30:28.000Z</time>
      </trkpt>
      <trkpt lat="49.34887" lon="1.03971">
        <ele>122</ele>
        <time>2019-12-30T13:30:29.000Z</time>
      </trkpt>
      <trkpt lat="49.34888" lon="1.03964">
        <ele>122</ele>
        <time>2019-12-30T13:30:30.000Z</time>
      </trkpt>
      <trkpt lat="49.34889" lon="1.03957">
        <ele>123</ele>
        <time>2019-12-30T13:30:31.000Z</time>
      </trkpt>
      <trkpt lat="49.3489" lon="1.03949">
        <ele>123</ele>
        <time>2019-12-30T13:30:32.000Z</time>
      </trkpt>
      <trkpt lat="49.34891" lon="1.03942">
        <ele>123</ele>
        <time>2019-12-30T13:30:33.000Z</time>
      </trkpt>
      <trkpt lat="49.34892" lon="1.03935">
        <ele>123</ele>
        <time>2019-12-30T13:30:34.000Z</time>
      </trkpt>
      <trkpt lat="49.34893" lon="1.03928">
        <ele>123</ele>
        <time>2019-12-30T13:30:35.000Z</time>
      </trkpt>
      <trkpt lat="49.34894" lon="1.03921">
        <ele>123</ele>
        <time>2019-12-30T13:30:36.000Z</time>
      </trkpt>
      <trkpt lat="49.34895" lon="1.03914">
        <ele>123</ele>
        <time>2019-12-30T13:30:37.000Z</time>
      </trkpt>
      <trkpt lat="49.34896" lon="1.03907">
        <ele>123</ele>
        <time>2019-12-30T13:30:38.000Z</time>
      </trkpt>
      <trkpt lat="49.34897" lon="1.039">
        <ele>123</ele>
        <time>2019-12-30T13:30:39.000Z</time>
      </trkpt>
      <trkpt lat="49.34898" lon="1.03893">
        <ele>123</ele>
        <time>2019-12-30T13:30:40.000Z</time>
      </trkpt>
      <trkpt lat="49.34899" lon="1.03886">
        <ele>123</ele>
        <time>2019-12-30T13:30:41.000Z</time>
      </trkpt>
      <trkpt lat="49.349" lon="1.03879">
        <ele>123</ele>
        <time>2019-12-30T13:30:42.000Z</time>
      </trkpt>
      <trkpt lat="49.34901" lon="1.03872">
        <ele>123</ele>
        <time>2019-12-30T13:30:43.000Z</time>
      </trkpt>
      <trkpt lat="49.34902" lon="1.03866">
        <ele>123</ele>
        <time>2019-12-30T13:30:44.000Z</time>
      </trkpt>
      <trkpt lat="49.34903" lon="1.03859">
        <ele>123</ele>
        <time>2019-12-30T13:30:45.000Z</time>
      </trkpt>
      <trkpt lat="49.34904" lon="1.03852">
        <ele>123</ele>
        <time>2019-12-30T13:30:46.000Z</time>
      </trkpt>
      <trkpt lat="49.34905" lon="1.03846">
        <ele>123</ele>
        <time>2019-12-30T13:30:47.000Z</time>
      </trkpt>
      <trkpt lat="49.34906" lon="1.03839">
        <ele>124</ele>
        <time>2019-12-30T13:30:48.000Z</time>
      </trkpt>
      <trkpt lat="49.34906" lon="1.03833">
        <ele>124</ele>
        <time>2019-12-30T13:30:49.000Z</time>
      </trkpt>
      <trkpt lat="49.34907" lon="1.03826">
        <ele>124</ele>
        <time>2019-12-30T13:30:50.000Z</time>
      </trkpt>
      <trkpt lat="49.34907" lon="1.0382">
        <ele>124</ele>
        <time>2019-12-30T13:30:51.000Z</time>
      </trkpt>
      <trkpt lat="49.34908" lon="1.03813">
        <ele>124</ele>
        <time>2019-12-30T13:30:52.000Z</time>
      </trkpt>
      <trkpt lat="49.34908" lon="1.03807">
        <ele>124</ele>
        <time>2019-12-30T13:30:53.000Z</time>
      </trkpt>
      <trkpt lat="49.34908" lon="1.03801">
        <ele>124</ele>
        <time>2019-12-30T13:30:54.000Z</time>
      </trkpt>
      <trkpt lat="49.34908" lon="1.03794">
        <ele>124</ele>
        <time>2019-12-30T13:30:55.000Z</time>
      </trkpt>
      <trkpt lat="49.34909" lon="1.03788">
        <ele>124</ele>
        <time>2019-12-30T13:30:56.000Z</time>
      </trkpt>
      <trkpt lat="49.34909" lon="1.03782">
        <ele>124</ele>
        <time>2019-12-30T13:30:57.000Z</time>
      </trkpt>
      <trkpt lat="49.34909" lon="1.03776">
        <ele>124</ele>
        <time>2019-12-30T13:30:58.000Z</time>
      </trkpt>
      <trkpt lat="49.3491" lon="1.0377">
        <ele>124</ele>
        <time>2019-12-30T13:30:59.000Z</time>
      </trkpt>
      <trkpt lat="49.3491" lon="1.03765">
        <ele>125</ele>
        <time>2019-12-30T13:31:00.000Z</time>
      </trkpt>
      <trkpt lat="49.3491" lon="1.03759">
        <ele>125</ele>
        <time>2019-12-30T13:31:01.000Z</time>
      </trkpt>
      <trkpt lat="49.34911" lon="1.03753">
        <ele>125</ele>
        <time>2019-12-30T13:31:02.000Z</time>
      </trkpt>
      <trkpt lat="49.34911" lon="1.03747">
        <ele>125</ele>
        <time>2019-12-30T13:31:03.000Z</time>
      </trkpt>
      <trkpt lat="49.34911" lon="1.03741">
        <ele>125</ele>
        <time>2019-12-30T13:31:04.000Z</time>
      </trkpt>
      <trkpt lat="49.34912" lon="1.03735">
        <ele>125</ele>
        <time>2019-12-30T13:31:05.000Z</time>
      </trkpt>
      <trkpt lat="49.34912" lon="1.03729">
        <ele>125</ele>
        <time>2019-12-30T13:31:06.000Z</time>
      </trkpt>
      <trkpt lat="49.34913" lon="1.03723">
        <ele>125</ele>
        <time>2019-12-30T13:31:07.000Z</time>
      </trkpt>
      <trkpt lat="49.34915" lon="1.03717">
        <ele>125</ele>
        <time>2019-12-30T13:31:08.000Z</time>
      </trkpt>
      <trkpt lat="49.34916" lon="1.03711">
        <ele>126</ele>
        <time>2019-12-30T13:31:09.000Z</time>
      </trkpt>
      <trkpt lat="49.34917" lon="1.03704">
        <ele>126</ele>
        <time>2019-12-30T13:31:10.000Z</time>
      </trkpt>
      <trkpt lat="49.34918" lon="1.03698">
        <ele>126</ele>
        <time>2019-12-30T13:31:11.000Z</time>
      </trkpt>
      <trkpt lat="49.34918" lon="1.03691">
        <ele>126</ele>
        <time>2019-12-30T13:31:12.000Z</time>
      </trkpt>
      <trkpt lat="49.34918" lon="1.03685">
        <ele>126</ele>
        <time>2019-12-30T13:31:13.000Z</time>
      </trkpt>
      <trkpt lat="49.34918" lon="1.03678">
        <ele>126</ele>
        <time>2019-12-30T13:31:14.000Z</time>
      </trkpt>
      <trkpt lat="49.34919" lon="1.03671">
        <ele>126</ele>
        <time>2019-12-30T13:31:15.000Z</time>
      </trkpt>
      <trkpt lat="49.34919" lon="1.03665">
        <ele>126</ele>
        <time>2019-12-30T13:31:16.000Z</time>
      </trkpt>
      <trkpt lat="49.34919" lon="1.03658">
        <ele>126</ele>
        <time>2019-12-30T13:31:17.000Z</time>
      </trkpt>
      <trkpt lat="49.34919" lon="1.03651">
        <ele>127</ele>
        <time>2019-12-30T13:31:18.000Z</time>
      </trkpt>
      <trkpt lat="49.34919" lon="1.03645">
        <ele>127</ele>
        <time>2019-12-30T13:31:19.000Z</time>
      </trkpt>
      <trkpt lat="49.3492" lon="1.03638">
        <ele>127</ele>
        <time>2019-12-30T13:31:20.000Z</time>
      </trkpt>
      <trkpt lat="49.3492" lon="1.03632">
        <ele>127</ele>
        <time>2019-12-30T13:31:21.000Z</time>
      </trkpt>
      <trkpt lat="49.3492" lon="1.03625">
        <ele>127</ele>
        <time>2019-12-30T13:31:22.000Z</time>
      </trkpt>
      <trkpt lat="49.3492" lon="1.03619">
        <ele>127</ele>
        <time>2019-12-30T13:31:23.000Z</time>
      </trkpt>
      <trkpt lat="49.34921" lon="1.03613">
        <ele>127</ele>
        <time>2019-12-30T13:31:24.000Z</time>
      </trkpt>
      <trkpt lat="49.34921" lon="1.03606">
        <ele>127</ele>
        <time>2019-12-30T13:31:25.000Z</time>
      </trkpt>
      <trkpt lat="49.34921" lon="1.036">
        <ele>127</ele>
        <time>2019-12-30T13:31:26.000Z</time>
      </trkpt>
      <trkpt lat="49.34921" lon="1.03593">
        <ele>128</ele>
        <time>2019-12-30T13:31:27.000Z</time>
      </trkpt>
      <trkpt lat="49.34921" lon="1.03587">
        <ele>128</ele>
        <time>2019-12-30T13:31:28.000Z</time>
      </trkpt>
      <trkpt lat="49.34922" lon="1.0358">
        <ele>128</ele>
        <time>2019-12-30T13:31:29.000Z</time>
      </trkpt>
      <trkpt lat="49.34922" lon="1.03574">
        <ele>128</ele>
        <time>2019-12-30T13:31:30.000Z</time>
      </trkpt>
      <trkpt lat="49.34922" lon="1.03568">
        <ele>128</ele>
        <time>2019-12-30T13:31:31.000Z</time>
      </trkpt>
      <trkpt lat="49.34922" lon="1.03561">
        <ele>128</ele>
        <time>2019-12-30T13:31:32.000Z</time>
      </trkpt>
      <trkpt lat="49.34923" lon="1.03554">
        <ele>128</ele>
        <time>2019-12-30T13:31:33.000Z</time>
      </trkpt>
      <trkpt lat="49.34923" lon="1.03548">
        <ele>128</ele>
        <time>2019-12-30T13:31:34.000Z</time>
      </trkpt>
      <trkpt lat="49.34923" lon="1.03541">
        <ele>128</ele>
        <time>2019-12-30T13:31:35.000Z</time>
      </trkpt>
      <trkpt lat="49.34923" lon="1.03534">
        <ele>128</ele>
        <time>2019-12-30T13:31:36.000Z</time>
      </trkpt>
      <trkpt lat="49.34924" lon="1.03527">
        <ele>128</ele>
        <time>2019-12-30T13:31:37.000Z</time>
      </trkpt>
      <trkpt lat="49.34924" lon="1.03521">
        <ele>128</ele>
        <time>2019-12-30T13:31:38.000Z</time>
      </trkpt>
      <trkpt lat="49.34924" lon="1.03514">
        <ele>128</ele>
        <time>2019-12-30T13:31:39.000Z</time>
      </trkpt>
      <trkpt lat="49.34925" lon="1.03507">
        <ele>128</ele>
        <time>2019-12-30T13:31:40.000Z</time>
      </trkpt>
      <trkpt lat="49.34925" lon="1.035">
        <ele>128</ele>
        <time>2019-12-30T13:31:41.000Z</time>
      </trkpt>
      <trkpt lat="49.34925" lon="1.03493">
        <ele>128</ele>
        <time>2019-12-30T13:31:42.000Z</time>
      </trkpt>
      <trkpt lat="49.34926" lon="1.03486">
        <ele>128</ele>
        <time>2019-12-30T13:31:43.000Z</time>
      </trkpt>
      <trkpt lat="49.34926" lon="1.03478">
        <ele>128</ele>
        <time>2019-12-30T13:31:44.000Z</time>
      </trkpt>
      <trkpt lat="49.34926" lon="1.03471">
        <ele>128</ele>
        <time>2019-12-30T13:31:45.000Z</time>
      </trkpt>
      <trkpt lat="49.34927" lon="1.03464">
        <ele>128</ele>
        <time>2019-12-30T13:31:46.000Z</time>
      </trkpt>
      <trkpt lat="49.34927" lon="1.03456">
        <ele>128</ele>
        <time>2019-12-30T13:31:47.000Z</time>
      </trkpt>
      <trkpt lat="49.34928" lon="1.03449">
        <ele>128</ele>
        <time>2019-12-30T13:31:48.000Z</time>
      </trkpt>
      <trkpt lat="49.34928" lon="1.03441">
        <ele>128</ele>
        <time>2019-12-30T13:31:49.000Z</time>
      </trkpt>
      <trkpt lat="49.34928" lon="1.03433">
        <ele>128</ele>
        <time>2019-12-30T13:31:50.000Z</time>
      </trkpt>
      <trkpt lat="49.34929" lon="1.03425">
        <ele>128</ele>
        <time>2019-12-30T13:31:51.000Z</time>
      </trkpt>
      <trkpt lat="49.34929" lon="1.03417">
        <ele>128</ele>
        <time>2019-12-30T13:31:52.000Z</time>
      </trkpt>
      <trkpt lat="49.3493" lon="1.03408">
        <ele>128</ele>
        <time>2019-12-30T13:31:53.000Z</time>
      </trkpt>
      <trkpt lat="49.34931" lon="1.03399">
        <ele>128</ele>
        <time>2019-12-30T13:31:54.000Z</time>
      </trkpt>
      <trkpt lat="49.34931" lon="1.0339">
        <ele>128</ele>
        <time>2019-12-30T13:31:55.000Z</time>
      </trkpt>
      <trkpt lat="49.34932" lon="1.03381">
        <ele>128</ele>
        <time>2019-12-30T13:31:56.000Z</time>
      </trkpt>
      <trkpt lat="49.34933" lon="1.03372">
        <ele>128</ele>
        <time>2019-12-30T13:31:57.000Z</time>
      </trkpt>
      <trkpt lat="49.34934" lon="1.03363">
        <ele>128</ele>
        <time>2019-12-30T13:31:58.000Z</time>
      </trkpt>
      <trkpt lat="49.34935" lon="1.03354">
        <ele>128</ele>
        <time>2019-12-30T13:31:59.000Z</time>
      </trkpt>
      <trkpt lat="49.34936" lon="1.03345">
        <ele>128</ele>
        <time>2019-12-30T13:32:00.000Z</time>
      </trkpt>
      <trkpt lat="49.34937" lon="1.03336">
        <ele>128</ele>
        <time>2019-12-30T13:32:01.000Z</time>
      </trkpt>
      <trkpt lat="49.34938" lon="1.03327">
        <ele>128</ele>
        <time>2019-12-30T13:32:02.000Z</time>
      </trkpt>
      <trkpt lat="49.3494" lon="1.03318">
        <ele>128</ele>
        <time>2019-12-30T13:32:03.000Z</time>
      </trkpt>
      <trkpt lat="49.34941" lon="1.03309">
        <ele>128</ele>
        <time>2019-12-30T13:32:04.000Z</time>
      </trkpt>
      <trkpt lat="49.34943" lon="1.033">
        <ele>128</ele>
        <time>2019-12-30T13:32:05.000Z</time>
      </trkpt>
      <trkpt lat="49.34944" lon="1.03291">
        <ele>128</ele>
        <time>2019-12-30T13:32:06.000Z</time>
      </trkpt>
      <trkpt lat="49.34946" lon="1.03282">
        <ele>128</ele>
        <time>2019-12-30T13:32:07.000Z</time>
      </trkpt>
      <trkpt lat="49.34948" lon="1.03272">
        <ele>128</ele>
        <time>2019-12-30T13:32:08.000Z</time>
      </trkpt>
      <trkpt lat="49.3495" lon="1.03262">
        <ele>128</ele>
        <time>2019-12-30T13:32:09.000Z</time>
      </trkpt>
      <trkpt lat="49.34952" lon="1.03253">
        <ele>127</ele>
        <time>2019-12-30T13:32:10.000Z</time>
      </trkpt>
      <trkpt lat="49.34954" lon="1.03243">
        <ele>127</ele>
        <time>2019-12-30T13:32:11.000Z</time>
      </trkpt>
      <trkpt lat="49.34957" lon="1.03234">
        <ele>127</ele>
        <time>2019-12-30T13:32:12.000Z</time>
      </trkpt>
      <trkpt lat="49.34959" lon="1.03224">
        <ele>127</ele>
        <time>2019-12-30T13:32:13.000Z</time>
      </trkpt>
      <trkpt lat="49.34962" lon="1.03215">
        <ele>127</ele>
        <time>2019-12-30T13:32:14.000Z</time>
      </trkpt>
      <trkpt lat="49.34964" lon="1.03205">
        <ele>126</ele>
        <time>2019-12-30T13:32:15.000Z</time>
      </trkpt>
      <trkpt lat="49.34967" lon="1.03196">
        <ele>126</ele>
        <time>2019-12-30T13:32:16.000Z</time>
      </trkpt>
      <trkpt lat="49.34969" lon="1.03187">
        <ele>126</ele>
        <time>2019-12-30T13:32:17.000Z</time>
      </trkpt>
      <trkpt lat="49.34971" lon="1.03178">
        <ele>126</ele>
        <time>2019-12-30T13:32:18.000Z</time>
      </trkpt>
      <trkpt lat="49.34973" lon="1.03169">
        <ele>126</ele>
        <time>2019-12-30T13:32:19.000Z</time>
      </trkpt>
      <trkpt lat="49.34975" lon="1.0316">
        <ele>125</ele>
        <time>2019-12-30T13:32:20.000Z</time>
      </trkpt>
      <trkpt lat="49.34977" lon="1.03151">
        <ele>125</ele>
        <time>2019-12-30T13:32:21.000Z</time>
      </trkpt>
      <trkpt lat="49.34978" lon="1.03142">
        <ele>125</ele>
        <time>2019-12-30T13:32:22.000Z</time>
      </trkpt>
      <trkpt lat="49.3498" lon="1.03134">
        <ele>125</ele>
        <time>2019-12-30T13:32:23.000Z</time>
      </trkpt>
      <trkpt lat="49.34981" lon="1.03127">
        <ele>125</ele>
        <time>2019-12-30T13:32:24.000Z</time>
      </trkpt>
      <trkpt lat="49.34982" lon="1.03121">
        <ele>125</ele>
        <time>2019-12-30T13:32:25.000Z</time>
      </trkpt>
      <trkpt lat="49.34981" lon="1.03116">
        <ele>125</ele>
        <time>2019-12-30T13:32:26.000Z</time>
      </trkpt>
      <trkpt lat="49.3498" lon="1.03114">
        <ele>125</ele>
        <time>2019-12-30T13:32:27.000Z</time>
      </trkpt>
      <trkpt lat="49.34979" lon="1.03114">
        <ele>124</ele>
        <time>2019-12-30T13:32:28.000Z</time>
      </trkpt>
      <trkpt lat="49.34977" lon="1.03115">
        <ele>124</ele>
        <time>2019-12-30T13:32:29.000Z</time>
      </trkpt>
      <trkpt lat="49.34976" lon="1.03119">
        <ele>124</ele>
        <time>2019-12-30T13:32:30.000Z</time>
      </trkpt>
      <trkpt lat="49.34974" lon="1.03123">
        <ele>124</ele>
        <time>2019-12-30T13:32:31.000Z</time>
      </trkpt>
      <trkpt lat="49.34972" lon="1.03127">
        <ele>124</ele>
        <time>2019-12-30T13:32:32.000Z</time>
      </trkpt>
      <trkpt lat="49.3497" lon="1.03133">
        <ele>123</ele>
        <time>2019-12-30T13:32:33.000Z</time>
      </trkpt>
      <trkpt lat="49.34968" lon="1.03138">
        <ele>123</ele>
        <time>2019-12-30T13:32:34.000Z</time>
      </trkpt>
      <trkpt lat="49.34967" lon="1.03144">
        <ele>123</ele>
        <time>2019-12-30T13:32:35.000Z</time>
      </trkpt>
      <trkpt lat="49.34965" lon="1.0315">
        <ele>123</ele>
        <time>2019-12-30T13:32:36.000Z</time>
      </trkpt>
      <trkpt lat="49.34963" lon="1.03155">
        <ele>123</ele>
        <time>2019-12-30T13:32:37.000Z</time>
      </trkpt>
      <trkpt lat="49.3496" lon="1.03161">
        <ele>123</ele>
        <time>2019-12-30T13:32:38.000Z</time>
      </trkpt>
      <trkpt lat="49.34958" lon="1.03167">
        <ele>123</ele>
        <time>2019-12-30T13:32:39.000Z</time>
      </trkpt>
      <trkpt lat="49.34956" lon="1.03173">
        <ele>123</ele>
        <time>2019-12-30T13:32:40.000Z</time>
      </trkpt>
      <trkpt lat="49.34954" lon="1.03179">
        <ele>123</ele>
        <time>2019-12-30T13:32:41.000Z</time>
      </trkpt>
      <trkpt lat="49.34952" lon="1.03185">
        <ele>123</ele>
        <time>2019-12-30T13:32:42.000Z</time>
      </trkpt>
      <trkpt lat="49.3495" lon="1.03191">
        <ele>123</ele>
        <time>2019-12-30T13:32:43.000Z</time>
      </trkpt>
      <trkpt lat="49.34948" lon="1.03197">
        <ele>123</ele>
        <time>2019-12-30T13:32:44.000Z</time>
      </trkpt>
      <trkpt lat="49.34946" lon="1.03203">
        <ele>123</ele>
        <time>2019-12-30T13:32:45.000Z</time>
      </trkpt>
      <trkpt lat="49.34944" lon="1.03209">
        <ele>123</ele>
        <time>2019-12-30T13:32:46.000Z</time>
      </trkpt>
      <trkpt lat="49.34941" lon="1.03215">
        <ele>123</ele>
        <time>2019-12-30T13:32:47.000Z</time>
      </trkpt>
      <trkpt lat="49.34939" lon="1.03221">
        <ele>123</ele>
        <time>2019-12-30T13:32:48.000Z</time>
      </trkpt>
      <trkpt lat="49.34937" lon="1.03228">
        <ele>123</ele>
        <time>2019-12-30T13:32:49.000Z</time>
      </trkpt>
      <trkpt lat="49.34935" lon="1.03234">
        <ele>123</ele>
        <time>2019-12-30T13:32:50.000Z</time>
      </trkpt>
      <trkpt lat="49.34933" lon="1.03241">
        <ele>123</ele>
        <time>2019-12-30T13:32:51.000Z</time>
      </trkpt>
      <trkpt lat="49.34931" lon="1.03247">
        <ele>123</ele>
        <time>2019-12-30T13:32:52.000Z</time>
      </trkpt>
      <trkpt lat="49.34928" lon="1.03254">
        <ele>123</ele>
        <time>2019-12-30T13:32:53.000Z</time>
      </trkpt>
      <trkpt lat="49.34926" lon="1.0326">
        <ele>123</ele>
        <time>2019-12-30T13:32:54.000Z</time>
      </trkpt>
      <trkpt lat="49.34924" lon="1.03267">
        <ele>123</ele>
        <time>2019-12-30T13:32:55.000Z</time>
      </trkpt>
      <trkpt lat="49.34922" lon="1.03274">
        <ele>123</ele>
        <time>2019-12-30T13:32:56.000Z</time>
      </trkpt>
      <trkpt lat="49.3492" lon="1.0328">
        <ele>123</ele>
        <time>2019-12-30T13:32:57.000Z</time>
      </trkpt>
      <trkpt lat="49.34918" lon="1.03287">
        <ele>123</ele>
        <time>2019-12-30T13:32:58.000Z</time>
      </trkpt>
      <trkpt lat="49.34916" lon="1.03293">
        <ele>123</ele>
        <time>2019-12-30T13:32:59.000Z</time>
      </trkpt>
      <trkpt lat="49.34914" lon="1.033">
        <ele>123</ele>
        <time>2019-12-30T13:33:00.000Z</time>
      </trkpt>
      <trkpt lat="49.34911" lon="1.03306">
        <ele>123</ele>
        <time>2019-12-30T13:33:01.000Z</time>
      </trkpt>
      <trkpt lat="49.34909" lon="1.03313">
        <ele>123</ele>
        <time>2019-12-30T13:33:02.000Z</time>
      </trkpt>
      <trkpt lat="49.34907" lon="1.0332">
        <ele>123</ele>
        <time>2019-12-30T13:33:03.000Z</time>
      </trkpt>
      <trkpt lat="49.34905" lon="1.03327">
        <ele>123</ele>
        <time>2019-12-30T13:33:04.000Z</time>
      </trkpt>
      <trkpt lat="49.34903" lon="1.03334">
        <ele>123</ele>
        <time>2019-12-30T13:33:05.000Z</time>
      </trkpt>
      <trkpt lat="49.34901" lon="1.0334">
        <ele>123</ele>
        <time>2019-12-30T13:33:06.000Z</time>
      </trkpt>
      <trkpt lat="49.34898" lon="1.03347">
        <ele>123</ele>
        <time>2019-12-30T13:33:07.000Z</time>
      </trkpt>
      <trkpt lat="49.34896" lon="1.03354">
        <ele>123</ele>
        <time>2019-12-30T13:33:08.000Z</time>
      </trkpt>
      <trkpt lat="49.34894" lon="1.03361">
        <ele>123</ele>
        <time>2019-12-30T13:33:09.000Z</time>
      </trkpt>
      <trkpt lat="49.34892" lon="1.03367">
        <ele>123</ele>
        <time>2019-12-30T13:33:10.000Z</time>
      </trkpt>
      <trkpt lat="49.34889" lon="1.03374">
        <ele>123</ele>
        <time>2019-12-30T13:33:11.000Z</time>
      </trkpt>
      <trkpt lat="49.34887" lon="1.03381">
        <ele>123</ele>
        <time>2019-12-30T13:33:12.000Z</time>
      </trkpt>
      <trkpt lat="49.34885" lon="1.03387">
        <ele>123</ele>
        <time>2019-12-30T13:33:13.000Z</time>
      </trkpt>
      <trkpt lat="49.34883" lon="1.03394">
        <ele>123</ele>
        <time>2019-12-30T13:33:14.000Z</time>
      </trkpt>
      <trkpt lat="49.34881" lon="1.03401">
        <ele>123</ele>
        <time>2019-12-30T13:33:15.000Z</time>
      </trkpt>
      <trkpt lat="49.34879" lon="1.03407">
        <ele>123</ele>
        <time>2019-12-30T13:33:16.000Z</time>
      </trkpt>
      <trkpt lat="49.34877" lon="1.03414">
        <ele>123</ele>
        <time>2019-12-30T13:33:17.000Z</time>
      </trkpt>
      <trkpt lat="49.34875" lon="1.03421">
        <ele>123</ele>
        <time>2019-12-30T13:33:18.000Z</time>
      </trkpt>
      <trkpt lat="49.34872" lon="1.03427">
        <ele>123</ele>
        <time>2019-12-30T13:33:19.000Z</time>
      </trkpt>
      <trkpt lat="49.3487" lon="1.03433">
        <ele>123</ele>
        <time>2019-12-30T13:33:20.000Z</time>
      </trkpt>
      <trkpt lat="49.34868" lon="1.0344">
        <ele>123</ele>
        <time>2019-12-30T13:33:21.000Z</time>
      </trkpt>
      <trkpt lat="49.34866" lon="1.03446">
        <ele>123</ele>
        <time>2019-12-30T13:33:22.000Z</time>
      </trkpt>
      <trkpt lat="49.34864" lon="1.03452">
        <ele>123</ele>
        <time>2019-12-30T13:33:23.000Z</time>
      </trkpt>
      <trkpt lat="49.34861" lon="1.03459">
        <ele>123</ele>
        <time>2019-12-30T13:33:24.000Z</time>
      </trkpt>
      <trkpt lat="49.34859" lon="1.03465">
        <ele>123</ele>
        <time>2019-12-30T13:33:25.000Z</time>
      </trkpt>
      <trkpt lat="49.34856" lon="1.03471">
        <ele>123</ele>
        <time>2019-12-30T13:33:26.000Z</time>
      </trkpt>
      <trkpt lat="49.34853" lon="1.03477">
        <ele>123</ele>
        <time>2019-12-30T13:33:27.000Z</time>
      </trkpt>
      <trkpt lat="49.3485" lon="1.03484">
        <ele>123</ele>
        <time>2019-12-30T13:33:28.000Z</time>
      </trkpt>
      <trkpt lat="49.34847" lon="1.0349">
        <ele>122</ele>
        <time>2019-12-30T13:33:29.000Z</time>
      </trkpt>
      <trkpt lat="49.34844" lon="1.03496">
        <ele>122</ele>
        <time>2019-12-30T13:33:30.000Z</time>
      </trkpt>
      <trkpt lat="49.34841" lon="1.03502">
        <ele>122</ele>
        <time>2019-12-30T13:33:31.000Z</time>
      </trkpt>
      <trkpt lat="49.34838" lon="1.03509">
        <ele>122</ele>
        <time>2019-12-30T13:33:32.000Z</time>
      </trkpt>
      <trkpt lat="49.34835" lon="1.03515">
        <ele>122</ele>
        <time>2019-12-30T13:33:33.000Z</time>
      </trkpt>
      <trkpt lat="49.34833" lon="1.03521">
        <ele>122</ele>
        <time>2019-12-30T13:33:34.000Z</time>
      </trkpt>
      <trkpt lat="49.3483" lon="1.03527">
        <ele>122</ele>
        <time>2019-12-30T13:33:35.000Z</time>
      </trkpt>
      <trkpt lat="49.34827" lon="1.03533">
        <ele>122</ele>
        <time>2019-12-30T13:33:36.000Z</time>
      </trkpt>
      <trkpt lat="49.34823" lon="1.03539">
        <ele>122</ele>
        <time>2019-12-30T13:33:37.000Z</time>
      </trkpt>
      <trkpt lat="49.3482" lon="1.03544">
        <ele>122</ele>
        <time>2019-12-30T13:33:38.000Z</time>
      </trkpt>
      <trkpt lat="49.34817" lon="1.0355">
        <ele>122</ele>
        <time>2019-12-30T13:33:39.000Z</time>
      </trkpt>
      <trkpt lat="49.34813" lon="1.03556">
        <ele>122</ele>
        <time>2019-12-30T13:33:40.000Z</time>
      </trkpt>
      <trkpt lat="49.3481" lon="1.03561">
        <ele>122</ele>
        <time>2019-12-30T13:33:41.000Z</time>
      </trkpt>
      <trkpt lat="49.34806" lon="1.03567">
        <ele>122</ele>
        <time>2019-12-30T13:33:42.000Z</time>
      </trkpt>
      <trkpt lat="49.34803" lon="1.03572">
        <ele>122</ele>
        <time>2019-12-30T13:33:43.000Z</time>
      </trkpt>
      <trkpt lat="49.34799" lon="1.03578">
        <ele>122</ele>
        <time>2019-12-30T13:33:44.000Z</time>
      </trkpt>
      <trkpt lat="49.34795" lon="1.03584">
        <ele>122</ele>
        <time>2019-12-30T13:33:45.000Z</time>
      </trkpt>
      <trkpt lat="49.34792" lon="1.03589">
        <ele>122</ele>
        <time>2019-12-30T13:33:46.000Z</time>
      </trkpt>
      <trkpt lat="49.34788" lon="1.03594">
        <ele>122</ele>
        <time>2019-12-30T13:33:47.000Z</time>
      </trkpt>
      <trkpt lat="49.34784" lon="1.036">
        <ele>122</ele>
        <time>2019-12-30T13:33:48.000Z</time>
      </trkpt>
      <trkpt lat="49.3478" lon="1.03605">
        <ele>122</ele>
        <time>2019-12-30T13:33:49.000Z</time>
      </trkpt>
      <trkpt lat="49.34776" lon="1.03611">
        <ele>122</ele>
        <time>2019-12-30T13:33:50.000Z</time>
      </trkpt>
      <trkpt lat="49.34773" lon="1.03616">
        <ele>123</ele>
        <time>2019-12-30T13:33:51.000Z</time>
      </trkpt>
      <trkpt lat="49.34769" lon="1.03622">
        <ele>123</ele>
        <time>2019-12-30T13:33:52.000Z</time>
      </trkpt>
      <trkpt lat="49.34765" lon="1.03627">
        <ele>123</ele>
        <time>2019-12-30T13:33:53.000Z</time>
      </trkpt>
      <trkpt lat="49.34762" lon="1.03633">
        <ele>123</ele>
        <time>2019-12-30T13:33:54.000Z</time>
      </trkpt>
      <trkpt lat="49.34758" lon="1.03639">
        <ele>123</ele>
        <time>2019-12-30T13:33:55.000Z</time>
      </trkpt>
      <trkpt lat="49.34754" lon="1.03644">
        <ele>123</ele>
        <time>2019-12-30T13:33:56.000Z</time>
      </trkpt>
      <trkpt lat="49.34749" lon="1.0365">
        <ele>123</ele>
        <time>2019-12-30T13:33:57.000Z</time>
      </trkpt>
      <trkpt lat="49.34745" lon="1.03655">
        <ele>123</ele>
        <time>2019-12-30T13:33:58.000Z</time>
      </trkpt>
      <trkpt lat="49.34741" lon="1.0366">
        <ele>123</ele>
        <time>2019-12-30T13:33:59.000Z</time>
      </trkpt>
      <trkpt lat="49.34737" lon="1.03666">
        <ele>123</ele>
        <time>2019-12-30T13:34:00.000Z</time>
      </trkpt>
      <trkpt lat="49.34733" lon="1.03672">
        <ele>122</ele>
        <time>2019-12-30T13:34:01.000Z</time>
      </trkpt>
      <trkpt lat="49.34729" lon="1.03677">
        <ele>122</ele>
        <time>2019-12-30T13:34:02.000Z</time>
      </trkpt>
      <trkpt lat="49.34725" lon="1.03682">
        <ele>122</ele>
        <time>2019-12-30T13:34:03.000Z</time>
      </trkpt>
      <trkpt lat="49.34721" lon="1.03687">
        <ele>122</ele>
        <time>2019-12-30T13:34:04.000Z</time>
      </trkpt>
      <trkpt lat="49.34717" lon="1.03693">
        <ele>122</ele>
        <time>2019-12-30T13:34:05.000Z</time>
      </trkpt>
      <trkpt lat="49.34713" lon="1.03698">
        <ele>122</ele>
        <time>2019-12-30T13:34:06.000Z</time>
      </trkpt>
      <trkpt lat="49.34709" lon="1.03703">
        <ele>122</ele>
        <time>2019-12-30T13:34:07.000Z</time>
      </trkpt>
      <trkpt lat="49.34704" lon="1.03708">
        <ele>122</ele>
        <time>2019-12-30T13:34:08.000Z</time>
      </trkpt>
      <trkpt lat="49.347" lon="1.03712">
        <ele>122</ele>
        <time>2019-12-30T13:34:09.000Z</time>
      </trkpt>
      <trkpt lat="49.34695" lon="1.03715">
        <ele>122</ele>
        <time>2019-12-30T13:34:10.000Z</time>
      </trkpt>
      <trkpt lat="49.3469" lon="1.03717">
        <ele>122</ele>
        <time>2019-12-30T13:34:11.000Z</time>
      </trkpt>
      <trkpt lat="49.34685" lon="1.03717">
        <ele>122</ele>
        <time>2019-12-30T13:34:12.000Z</time>
      </trkpt>
      <trkpt lat="49.3468" lon="1.03716">
        <ele>121</ele>
        <time>2019-12-30T13:34:13.000Z</time>
      </trkpt>
      <trkpt lat="49.34675" lon="1.03715">
        <ele>121</ele>
        <time>2019-12-30T13:34:14.000Z</time>
      </trkpt>
      <trkpt lat="49.34671" lon="1.03713">
        <ele>121</ele>
        <time>2019-12-30T13:34:15.000Z</time>
      </trkpt>
      <trkpt lat="49.34666" lon="1.03712">
        <ele>121</ele>
        <time>2019-12-30T13:34:16.000Z</time>
      </trkpt>
      <trkpt lat="49.34661" lon="1.0371">
        <ele>121</ele>
        <time>2019-12-30T13:34:17.000Z</time>
      </trkpt>
      <trkpt lat="49.34657" lon="1.03708">
        <ele>121</ele>
        <time>2019-12-30T13:34:18.000Z</time>
      </trkpt>
      <trkpt lat="49.34652" lon="1.03706">
        <ele>121</ele>
        <time>2019-12-30T13:34:19.000Z</time>
      </trkpt>
      <trkpt lat="49.34648" lon="1.03704">
        <ele>121</ele>
        <time>2019-12-30T13:34:20.000Z</time>
      </trkpt>
      <trkpt lat="49.34643" lon="1.03701">
        <ele>121</ele>
        <time>2019-12-30T13:34:21.000Z</time>
      </trkpt>
      <trkpt lat="49.34639" lon="1.03699">
        <ele>121</ele>
        <time>2019-12-30T13:34:22.000Z</time>
      </trkpt>
      <trkpt lat="49.34634" lon="1.03697">
        <ele>121</ele>
        <time>2019-12-30T13:34:23.000Z</time>
      </trkpt>
      <trkpt lat="49.3463" lon="1.03694">
        <ele>121</ele>
        <time>2019-12-30T13:34:24.000Z</time>
      </trkpt>
      <trkpt lat="49.34626" lon="1.03692">
        <ele>121</ele>
        <time>2019-12-30T13:34:25.000Z</time>
      </trkpt>
      <trkpt lat="49.34621" lon="1.0369">
        <ele>121</ele>
        <time>2019-12-30T13:34:26.000Z</time>
      </trkpt>
      <trkpt lat="49.34617" lon="1.03688">
        <ele>121</ele>
        <time>2019-12-30T13:34:27.000Z</time>
      </trkpt>
      <trkpt lat="49.34613" lon="1.03686">
        <ele>121</ele>
        <time>2019-12-30T13:34:28.000Z</time>
      </trkpt>
      <trkpt lat="49.34608" lon="1.03684">
        <ele>121</ele>
        <time>2019-12-30T13:34:29.000Z</time>
      </trkpt>
      <trkpt lat="49.34604" lon="1.03683">
        <ele>122</ele>
        <time>2019-12-30T13:34:30.000Z</time>
      </trkpt>
      <trkpt lat="49.346" lon="1.03681">
        <ele>122</ele>
        <time>2019-12-30T13:34:31.000Z</time>
      </trkpt>
      <trkpt lat="49.34595" lon="1.03679">
        <ele>122</ele>
        <time>2019-12-30T13:34:32.000Z</time>
      </trkpt>
      <trkpt lat="49.34591" lon="1.03677">
        <ele>122</ele>
        <time>2019-12-30T13:34:33.000Z</time>
      </trkpt>
      <trkpt lat="49.34586" lon="1.03675">
        <ele>122</ele>
        <time>2019-12-30T13:34:34.000Z</time>
      </trkpt>
      <trkpt lat="49.34582" lon="1.03673">
        <ele>122</ele>
        <time>2019-12-30T13:34:35.000Z</time>
      </trkpt>
      <trkpt lat="49.34578" lon="1.03671">
        <ele>122</ele>
        <time>2019-12-30T13:34:36.000Z</time>
      </trkpt>
      <trkpt lat="49.34574" lon="1.03669">
        <ele>122</ele>
        <time>2019-12-30T13:34:37.000Z</time>
      </trkpt>
      <trkpt lat="49.3457" lon="1.03668">
        <ele>122</ele>
        <time>2019-12-30T13:34:38.000Z</time>
      </trkpt>
      <trkpt lat="49.34565" lon="1.03666">
        <ele>123</ele>
        <time>2019-12-30T13:34:39.000Z</time>
      </trkpt>
      <trkpt lat="49.34561" lon="1.03664">
        <ele>123</ele>
        <time>2019-12-30T13:34:40.000Z</time>
      </trkpt>
      <trkpt lat="49.34557" lon="1.03662">
        <ele>123</ele>
        <time>2019-12-30T13:34:41.000Z</time>
      </trkpt>
      <trkpt lat="49.34552" lon="1.0366">
        <ele>123</ele>
        <time>2019-12-30T13:34:42.000Z</time>
      </trkpt>
      <trkpt lat="49.34548" lon="1.03658">
        <ele>123</ele>
        <time>2019-12-30T13:34:43.000Z</time>
      </trkpt>
      <trkpt lat="49.34544" lon="1.03656">
        <ele>123</ele>
        <time>2019-12-30T13:34:44.000Z</time>
      </trkpt>
      <trkpt lat="49.34539" lon="1.03654">
        <ele>124</ele>
        <time>2019-12-30T13:34:45.000Z</time>
      </trkpt>
      <trkpt lat="49.34535" lon="1.03652">
        <ele>124</ele>
        <time>2019-12-30T13:34:46.000Z</time>
      </trkpt>
      <trkpt lat="49.34531" lon="1.03651">
        <ele>124</ele>
        <time>2019-12-30T13:34:47.000Z</time>
      </trkpt>
      <trkpt lat="49.34526" lon="1.03648">
        <ele>124</ele>
        <time>2019-12-30T13:34:48.000Z</time>
      </trkpt>
      <trkpt lat="49.34522" lon="1.03646">
        <ele>124</ele>
        <time>2019-12-30T13:34:49.000Z</time>
      </trkpt>
      <trkpt lat="49.34517" lon="1.03644">
        <ele>125</ele>
        <time>2019-12-30T13:34:50.000Z</time>
      </trkpt>
      <trkpt lat="49.34513" lon="1.03642">
        <ele>125</ele>
        <time>2019-12-30T13:34:51.000Z</time>
      </trkpt>
      <trkpt lat="49.34508" lon="1.0364">
        <ele>125</ele>
        <time>2019-12-30T13:34:52.000Z</time>
      </trkpt>
      <trkpt lat="49.34504" lon="1.03638">
        <ele>126</ele>
        <time>2019-12-30T13:34:53.000Z</time>
      </trkpt>
      <trkpt lat="49.345" lon="1.03635">
        <ele>126</ele>
        <time>2019-12-30T13:34:54.000Z</time>
      </trkpt>
      <trkpt lat="49.34495" lon="1.03633">
        <ele>126</ele>
        <time>2019-12-30T13:34:55.000Z</time>
      </trkpt>
      <trkpt lat="49.34491" lon="1.03631">
        <ele>126</ele>
        <time>2019-12-30T13:34:56.000Z</time>
      </trkpt>
      <trkpt lat="49.34486" lon="1.0363">
        <ele>127</ele>
        <time>2019-12-30T13:34:57.000Z</time>
      </trkpt>
      <trkpt lat="49.34482" lon="1.03628">
        <ele>127</ele>
        <time>2019-12-30T13:34:58.000Z</time>
      </trkpt>
      <trkpt lat="49.34478" lon="1.03626">
        <ele>127</ele>
        <time>2019-12-30T13:34:59.000Z</time>
      </trkpt>
      <trkpt lat="49.34474" lon="1.03624">
        <ele>127</ele>
        <time>2019-12-30T13:35:00.000Z</time>
      </trkpt>
      <trkpt lat="49.34469" lon="1.03622">
        <ele>127</ele>
        <time>2019-12-30T13:35:01.000Z</time>
      </trkpt>
      <trkpt lat="49.34465" lon="1.0362">
        <ele>128</ele>
        <time>2019-12-30T13:35:02.000Z</time>
      </trkpt>
      <trkpt lat="49.34461" lon="1.03618">
        <ele>128</ele>
        <time>2019-12-30T13:35:03.000Z</time>
      </trkpt>
      <trkpt lat="49.34457" lon="1.03617">
        <ele>128</ele>
        <time>2019-12-30T13:35:04.000Z</time>
      </trkpt>
      <trkpt lat="49.34452" lon="1.03615">
        <ele>128</ele>
        <time>2019-12-30T13:35:05.000Z</time>
      </trkpt>
      <trkpt lat="49.34448" lon="1.03613">
        <ele>128</ele>
        <time>2019-12-30T13:35:06.000Z</time>
      </trkpt>
      <trkpt lat="49.34444" lon="1.03611">
        <ele>129</ele>
        <time>2019-12-30T13:35:07.000Z</time>
      </trkpt>
      <trkpt lat="49.3444" lon="1.03609">
        <ele>129</ele>
        <time>2019-12-30T13:35:08.000Z</time>
      </trkpt>
      <trkpt lat="49.34435" lon="1.03607">
        <ele>129</ele>
        <time>2019-12-30T13:35:09.000Z</time>
      </trkpt>
      <trkpt lat="49.34431" lon="1.03605">
        <ele>129</ele>
        <time>2019-12-30T13:35:10.000Z</time>
      </trkpt>
      <trkpt lat="49.34426" lon="1.03603">
        <ele>129</ele>
        <time>2019-12-30T13:35:11.000Z</time>
      </trkpt>
      <trkpt lat="49.34422" lon="1.03601">
        <ele>129</ele>
        <time>2019-12-30T13:35:12.000Z</time>
      </trkpt>
      <trkpt lat="49.34418" lon="1.03599">
        <ele>129</ele>
        <time>2019-12-30T13:35:13.000Z</time>
      </trkpt>
      <trkpt lat="49.34414" lon="1.03597">
        <ele>129</ele>
        <time>2019-12-30T13:35:14.000Z</time>
      </trkpt>
      <trkpt lat="49.34409" lon="1.03596">
        <ele>129</ele>
        <time>2019-12-30T13:35:15.000Z</time>
      </trkpt>
      <trkpt lat="49.34405" lon="1.03594">
        <ele>130</ele>
        <time>2019-12-30T13:35:16.000Z</time>
      </trkpt>
      <trkpt lat="49.34401" lon="1.03592">
        <ele>130</ele>
        <time>2019-12-30T13:35:17.000Z</time>
      </trkpt>
      <trkpt lat="49.34397" lon="1.0359">
        <ele>130</ele>
        <time>2019-12-30T13:35:18.000Z</time>
      </trkpt>
      <trkpt lat="49.34393" lon="1.03588">
        <ele>130</ele>
        <time>2019-12-30T13:35:19.000Z</time>
      </trkpt>
      <trkpt lat="49.34388" lon="1.03586">
        <ele>130</ele>
        <time>2019-12-30T13:35:20.000Z</time>
      </trkpt>
      <trkpt lat="49.34384" lon="1.03584">
        <ele>130</ele>
        <time>2019-12-30T13:35:21.000Z</time>
      </trkpt>
      <trkpt lat="49.34379" lon="1.03582">
        <ele>130</ele>
        <time>2019-12-30T13:35:22.000Z</time>
      </trkpt>
      <trkpt lat="49.34376" lon="1.0358">
        <ele>130</ele>
        <time>2019-12-30T13:35:23.000Z</time>
      </trkpt>
      <trkpt lat="49.34372" lon="1.03578">
        <ele>130</ele>
        <time>2019-12-30T13:35:24.000Z</time>
      </trkpt>
      <trkpt lat="49.34368" lon="1.03576">
        <ele>130</ele>
        <time>2019-12-30T13:35:25.000Z</time>
      </trkpt>
      <trkpt lat="49.34364" lon="1.03574">
        <ele>129</ele>
        <time>2019-12-30T13:35:26.000Z</time>
      </trkpt>
      <trkpt lat="49.34361" lon="1.03572">
        <ele>129</ele>
        <time>2019-12-30T13:35:27.000Z</time>
      </trkpt>
      <trkpt lat="49.34356" lon="1.0357">
        <ele>129</ele>
        <time>2019-12-30T13:35:28.000Z</time>
      </trkpt>
      <trkpt lat="49.34352" lon="1.03568">
        <ele>129</ele>
        <time>2019-12-30T13:35:29.000Z</time>
      </trkpt>
      <trkpt lat="49.34347" lon="1.03567">
        <ele>129</ele>
        <time>2019-12-30T13:35:30.000Z</time>
      </trkpt>
      <trkpt lat="49.34343" lon="1.03565">
        <ele>129</ele>
        <time>2019-12-30T13:35:31.000Z</time>
      </trkpt>
      <trkpt lat="49.34339" lon="1.03563">
        <ele>129</ele>
        <time>2019-12-30T13:35:32.000Z</time>
      </trkpt>
      <trkpt lat="49.34335" lon="1.03561">
        <ele>129</ele>
        <time>2019-12-30T13:35:33.000Z</time>
      </trkpt>
      <trkpt lat="49.34331" lon="1.0356">
        <ele>129</ele>
        <time>2019-12-30T13:35:34.000Z</time>
      </trkpt>
      <trkpt lat="49.3433" lon="1.03559">
        <ele>129</ele>
        <time>2019-12-30T13:35:35.000Z</time>
      </trkpt>
      <trkpt lat="49.34329" lon="1.03559">
        <ele>129</ele>
        <time>2019-12-30T13:35:36.000Z</time>
      </trkpt>
      <trkpt lat="49.34326" lon="1.03557">
        <ele>130</ele>
        <time>2019-12-30T13:35:37.000Z</time>
      </trkpt>
      <trkpt lat="49.34322" lon="1.03554">
        <ele>130</ele>
        <time>2019-12-30T13:35:38.000Z</time>
      </trkpt>
      <trkpt lat="49.34318" lon="1.03552">
        <ele>130</ele>
        <time>2019-12-30T13:35:39.000Z</time>
      </trkpt>
      <trkpt lat="49.34313" lon="1.0355">
        <ele>130</ele>
        <time>2019-12-30T13:35:40.000Z</time>
      </trkpt>
      <trkpt lat="49.34309" lon="1.03548">
        <ele>130</ele>
        <time>2019-12-30T13:35:41.000Z</time>
      </trkpt>
      <trkpt lat="49.34304" lon="1.03546">
        <ele>130</ele>
        <time>2019-12-30T13:35:42.000Z</time>
      </trkpt>
      <trkpt lat="49.343" lon="1.03544">
        <ele>130</ele>
        <time>2019-12-30T13:35:43.000Z</time>
      </trkpt>
      <trkpt lat="49.34296" lon="1.03542">
        <ele>130</ele>
        <time>2019-12-30T13:35:44.000Z</time>
      </trkpt>
      <trkpt lat="49.34292" lon="1.03541">
        <ele>130</ele>
        <time>2019-12-30T13:35:45.000Z</time>
      </trkpt>
      <trkpt lat="49.34287" lon="1.0354">
        <ele>130</ele>
        <time>2019-12-30T13:35:46.000Z</time>
      </trkpt>
      <trkpt lat="49.34283" lon="1.03538">
        <ele>130</ele>
        <time>2019-12-30T13:35:47.000Z</time>
      </trkpt>
      <trkpt lat="49.34279" lon="1.03537">
        <ele>130</ele>
        <time>2019-12-30T13:35:48.000Z</time>
      </trkpt>
      <trkpt lat="49.34274" lon="1.03535">
        <ele>130</ele>
        <time>2019-12-30T13:35:49.000Z</time>
      </trkpt>
      <trkpt lat="49.3427" lon="1.03534">
        <ele>130</ele>
        <time>2019-12-30T13:35:50.000Z</time>
      </trkpt>
      <trkpt lat="49.34266" lon="1.03532">
        <ele>130</ele>
        <time>2019-12-30T13:35:51.000Z</time>
      </trkpt>
      <trkpt lat="49.34262" lon="1.03531">
        <ele>130</ele>
        <time>2019-12-30T13:35:52.000Z</time>
      </trkpt>
      <trkpt lat="49.34258" lon="1.03529">
        <ele>130</ele>
        <time>2019-12-30T13:35:53.000Z</time>
      </trkpt>
      <trkpt lat="49.34254" lon="1.03528">
        <ele>130</ele>
        <time>2019-12-30T13:35:54.000Z</time>
      </trkpt>
      <trkpt lat="49.34251" lon="1.03526">
        <ele>130</ele>
        <time>2019-12-30T13:35:55.000Z</time>
      </trkpt>
      <trkpt lat="49.34247" lon="1.03525">
        <ele>130</ele>
        <time>2019-12-30T13:35:56.000Z</time>
      </trkpt>
      <trkpt lat="49.34243" lon="1.03524">
        <ele>130</ele>
        <time>2019-12-30T13:35:57.000Z</time>
      </trkpt>
      <trkpt lat="49.34239" lon="1.03523">
        <ele>130</ele>
        <time>2019-12-30T13:35:58.000Z</time>
      </trkpt>
      <trkpt lat="49.34234" lon="1.03521">
        <ele>130</ele>
        <time>2019-12-30T13:35:59.000Z</time>
      </trkpt>
      <trkpt lat="49.3423" lon="1.03519">
        <ele>130</ele>
        <time>2019-12-30T13:36:00.000Z</time>
      </trkpt>
      <trkpt lat="49.34225" lon="1.03518">
        <ele>130</ele>
        <time>2019-12-30T13:36:01.000Z</time>
      </trkpt>
      <trkpt lat="49.34219" lon="1.03515">
        <ele>130</ele>
        <time>2019-12-30T13:36:02.000Z</time>
      </trkpt>
      <trkpt lat="49.34214" lon="1.03513">
        <ele>130</ele>
        <time>2019-12-30T13:36:03.000Z</time>
      </trkpt>
      <trkpt lat="49.34208" lon="1.0351">
        <ele>130</ele>
        <time>2019-12-30T13:36:04.000Z</time>
      </trkpt>
      <trkpt lat="49.34202" lon="1.03507">
        <ele>130</ele>
        <time>2019-12-30T13:36:05.000Z</time>
      </trkpt>
      <trkpt lat="49.34195" lon="1.03504">
        <ele>129</ele>
        <time>2019-12-30T13:36:06.000Z</time>
      </trkpt>
      <trkpt lat="49.3419" lon="1.03501">
        <ele>129</ele>
        <time>2019-12-30T13:36:07.000Z</time>
      </trkpt>
      <trkpt lat="49.34184" lon="1.03498">
        <ele>129</ele>
        <time>2019-12-30T13:36:08.000Z</time>
      </trkpt>
      <trkpt lat="49.34178" lon="1.03495">
        <ele>129</ele>
        <time>2019-12-30T13:36:09.000Z</time>
      </trkpt>
      <trkpt lat="49.34173" lon="1.03492">
        <ele>129</ele>
        <time>2019-12-30T13:36:10.000Z</time>
      </trkpt>
      <trkpt lat="49.34167" lon="1.0349">
        <ele>129</ele>
        <time>2019-12-30T13:36:11.000Z</time>
      </trkpt>
      <trkpt lat="49.34162" lon="1.03488">
        <ele>129</ele>
        <time>2019-12-30T13:36:12.000Z</time>
      </trkpt>
      <trkpt lat="49.34158" lon="1.03487">
        <ele>129</ele>
        <time>2019-12-30T13:36:13.000Z</time>
      </trkpt>
      <trkpt lat="49.34153" lon="1.03486">
        <ele>129</ele>
        <time>2019-12-30T13:36:14.000Z</time>
      </trkpt>
      <trkpt lat="49.3415" lon="1.03486">
        <ele>129</ele>
        <time>2019-12-30T13:36:15.000Z</time>
      </trkpt>
      <trkpt lat="49.34148" lon="1.03489">
        <ele>129</ele>
        <time>2019-12-30T13:36:16.000Z</time>
      </trkpt>
      <trkpt lat="49.34146" lon="1.03495">
        <ele>128</ele>
        <time>2019-12-30T13:36:17.000Z</time>
      </trkpt>
      <trkpt lat="49.34144" lon="1.03502">
        <ele>128</ele>
        <time>2019-12-30T13:36:18.000Z</time>
      </trkpt>
      <trkpt lat="49.34142" lon="1.0351">
        <ele>128</ele>
        <time>2019-12-30T13:36:19.000Z</time>
      </trkpt>
      <trkpt lat="49.3414" lon="1.03517">
        <ele>128</ele>
        <time>2019-12-30T13:36:20.000Z</time>
      </trkpt>
      <trkpt lat="49.34138" lon="1.03524">
        <ele>128</ele>
        <time>2019-12-30T13:36:21.000Z</time>
      </trkpt>
      <trkpt lat="49.34136" lon="1.0353">
        <ele>128</ele>
        <time>2019-12-30T13:36:22.000Z</time>
      </trkpt>
      <trkpt lat="49.34134" lon="1.03537">
        <ele>128</ele>
        <time>2019-12-30T13:36:23.000Z</time>
      </trkpt>
      <trkpt lat="49.34133" lon="1.03544">
        <ele>128</ele>
        <time>2019-12-30T13:36:24.000Z</time>
      </trkpt>
      <trkpt lat="49.34132" lon="1.03551">
        <ele>129</ele>
        <time>2019-12-30T13:36:25.000Z</time>
      </trkpt>
      <trkpt lat="49.3413" lon="1.03558">
        <ele>129</ele>
        <time>2019-12-30T13:36:26.000Z</time>
      </trkpt>
      <trkpt lat="49.34129" lon="1.03564">
        <ele>129</ele>
        <time>2019-12-30T13:36:27.000Z</time>
      </trkpt>
      <trkpt lat="49.34127" lon="1.0357">
        <ele>129</ele>
        <time>2019-12-30T13:36:28.000Z</time>
      </trkpt>
      <trkpt lat="49.34125" lon="1.03574">
        <ele>129</ele>
        <time>2019-12-30T13:36:29.000Z</time>
      </trkpt>
      <trkpt lat="49.34124" lon="1.03579">
        <ele>129</ele>
        <time>2019-12-30T13:36:30.000Z</time>
      </trkpt>
      <trkpt lat="49.34124" lon="1.03585">
        <ele>130</ele>
        <time>2019-12-30T13:36:31.000Z</time>
      </trkpt>
      <trkpt lat="49.34123" lon="1.03591">
        <ele>130</ele>
        <time>2019-12-30T13:36:32.000Z</time>
      </trkpt>
      <trkpt lat="49.34121" lon="1.03597">
        <ele>130</ele>
        <time>2019-12-30T13:36:33.000Z</time>
      </trkpt>
      <trkpt lat="49.3412" lon="1.03603">
        <ele>130</ele>
        <time>2019-12-30T13:36:34.000Z</time>
      </trkpt>
      <trkpt lat="49.34118" lon="1.03608">
        <ele>130</ele>
        <time>2019-12-30T13:36:35.000Z</time>
      </trkpt>
      <trkpt lat="49.34116" lon="1.03613">
        <ele>131</ele>
        <time>2019-12-30T13:36:36.000Z</time>
      </trkpt>
      <trkpt lat="49.34115" lon="1.03617">
        <ele>131</ele>
        <time>2019-12-30T13:36:37.000Z</time>
      </trkpt>
      <trkpt lat="49.34114" lon="1.03622">
        <ele>131</ele>
        <time>2019-12-30T13:36:38.000Z</time>
      </trkpt>
      <trkpt lat="49.34112" lon="1.03628">
        <ele>132</ele>
        <time>2019-12-30T13:36:39.000Z</time>
      </trkpt>
      <trkpt lat="49.34111" lon="1.03633">
        <ele>132</ele>
        <time>2019-12-30T13:36:40.000Z</time>
      </trkpt>
      <trkpt lat="49.34109" lon="1.03639">
        <ele>132</ele>
        <time>2019-12-30T13:36:41.000Z</time>
      </trkpt>
      <trkpt lat="49.34108" lon="1.03645">
        <ele>133</ele>
        <time>2019-12-30T13:36:42.000Z</time>
      </trkpt>
      <trkpt lat="49.34106" lon="1.03651">
        <ele>133</ele>
        <time>2019-12-30T13:36:43.000Z</time>
      </trkpt>
      <trkpt lat="49.34104" lon="1.03656">
        <ele>133</ele>
        <time>2019-12-30T13:36:44.000Z</time>
      </trkpt>
      <trkpt lat="49.34103" lon="1.03662">
        <ele>133</ele>
        <time>2019-12-30T13:36:45.000Z</time>
      </trkpt>
      <trkpt lat="49.34101" lon="1.03668">
        <ele>134</ele>
        <time>2019-12-30T13:36:46.000Z</time>
      </trkpt>
      <trkpt lat="49.34101" lon="1.03673">
        <ele>134</ele>
        <time>2019-12-30T13:36:47.000Z</time>
      </trkpt>
      <trkpt lat="49.341" lon="1.03679">
        <ele>134</ele>
        <time>2019-12-30T13:36:48.000Z</time>
      </trkpt>
      <trkpt lat="49.34101" lon="1.03685">
        <ele>134</ele>
        <time>2019-12-30T13:36:49.000Z</time>
      </trkpt>
      <trkpt lat="49.34101" lon="1.0369">
        <ele>134</ele>
        <time>2019-12-30T13:36:50.000Z</time>
      </trkpt>
      <trkpt lat="49.341" lon="1.03696">
        <ele>135</ele>
        <time>2019-12-30T13:36:51.000Z</time>
      </trkpt>
      <trkpt lat="49.34098" lon="1.037">
        <ele>135</ele>
        <time>2019-12-30T13:36:52.000Z</time>
      </trkpt>
      <trkpt lat="49.34097" lon="1.03705">
        <ele>135</ele>
        <time>2019-12-30T13:36:53.000Z</time>
      </trkpt>
      <trkpt lat="49.34095" lon="1.0371">
        <ele>135</ele>
        <time>2019-12-30T13:36:54.000Z</time>
      </trkpt>
      <trkpt lat="49.34095" lon="1.03716">
        <ele>136</ele>
        <time>2019-12-30T13:36:55.000Z</time>
      </trkpt>
      <trkpt lat="49.34094" lon="1.03721">
        <ele>136</ele>
        <time>2019-12-30T13:36:56.000Z</time>
      </trkpt>
      <trkpt lat="49.34093" lon="1.03727">
        <ele>136</ele>
        <time>2019-12-30T13:36:57.000Z</time>
      </trkpt>
      <trkpt lat="49.34092" lon="1.03732">
        <ele>136</ele>
        <time>2019-12-30T13:36:58.000Z</time>
      </trkpt>
      <trkpt lat="49.34092" lon="1.03738">
        <ele>137</ele>
        <time>2019-12-30T13:36:59.000Z</time>
      </trkpt>
      <trkpt lat="49.34092" lon="1.03743">
        <ele>137</ele>
        <time>2019-12-30T13:37:00.000Z</time>
      </trkpt>
      <trkpt lat="49.34091" lon="1.03748">
        <ele>137</ele>
        <time>2019-12-30T13:37:01.000Z</time>
      </trkpt>
      <trkpt lat="49.34089" lon="1.03754">
        <ele>137</ele>
        <time>2019-12-30T13:37:02.000Z</time>
      </trkpt>
      <trkpt lat="49.34087" lon="1.03759">
        <ele>137</ele>
        <time>2019-12-30T13:37:03.000Z</time>
      </trkpt>
      <trkpt lat="49.34086" lon="1.03764">
        <ele>137</ele>
        <time>2019-12-30T13:37:04.000Z</time>
      </trkpt>
      <trkpt lat="49.34085" lon="1.03769">
        <ele>138</ele>
        <time>2019-12-30T13:37:05.000Z</time>
      </trkpt>
      <trkpt lat="49.34086" lon="1.03773">
        <ele>138</ele>
        <time>2019-12-30T13:37:06.000Z</time>
      </trkpt>
      <trkpt lat="49.34085" lon="1.03779">
        <ele>138</ele>
        <time>2019-12-30T13:37:07.000Z</time>
      </trkpt>
      <trkpt lat="49.34084" lon="1.03785">
        <ele>138</ele>
        <time>2019-12-30T13:37:08.000Z</time>
      </trkpt>
      <trkpt lat="49.34083" lon="1.03791">
        <ele>137</ele>
        <time>2019-12-30T13:37:09.000Z</time>
      </trkpt>
      <trkpt lat="49.34081" lon="1.03796">
        <ele>137</ele>
        <time>2019-12-30T13:37:10.000Z</time>
      </trkpt>
      <trkpt lat="49.34079" lon="1.03802">
        <ele>137</ele>
        <time>2019-12-30T13:37:11.000Z</time>
      </trkpt>
      <trkpt lat="49.34078" lon="1.03807">
        <ele>137</ele>
        <time>2019-12-30T13:37:12.000Z</time>
      </trkpt>
      <trkpt lat="49.34077" lon="1.03812">
        <ele>137</ele>
        <time>2019-12-30T13:37:13.000Z</time>
      </trkpt>
      <trkpt lat="49.34076" lon="1.03818">
        <ele>137</ele>
        <time>2019-12-30T13:37:14.000Z</time>
      </trkpt>
      <trkpt lat="49.34074" lon="1.03824">
        <ele>137</ele>
        <time>2019-12-30T13:37:15.000Z</time>
      </trkpt>
      <trkpt lat="49.34073" lon="1.03829">
        <ele>137</ele>
        <time>2019-12-30T13:37:16.000Z</time>
      </trkpt>
      <trkpt lat="49.34072" lon="1.03833">
        <ele>137</ele>
        <time>2019-12-30T13:37:17.000Z</time>
      </trkpt>
      <trkpt lat="49.34071" lon="1.03837">
        <ele>137</ele>
        <time>2019-12-30T13:37:18.000Z</time>
      </trkpt>
      <trkpt lat="49.34069" lon="1.03842">
        <ele>137</ele>
        <time>2019-12-30T13:37:19.000Z</time>
      </trkpt>
      <trkpt lat="49.34067" lon="1.03845">
        <ele>137</ele>
        <time>2019-12-30T13:37:20.000Z</time>
      </trkpt>
      <trkpt lat="49.34066" lon="1.03849">
        <ele>137</ele>
        <time>2019-12-30T13:37:21.000Z</time>
      </trkpt>
      <trkpt lat="49.34064" lon="1.03854">
        <ele>137</ele>
        <time>2019-12-30T13:37:22.000Z</time>
      </trkpt>
      <trkpt lat="49.34063" lon="1.03859">
        <ele>137</ele>
        <time>2019-12-30T13:37:23.000Z</time>
      </trkpt>
      <trkpt lat="49.34063" lon="1.03863">
        <ele>137</ele>
        <time>2019-12-30T13:37:24.000Z</time>
      </trkpt>
      <trkpt lat="49.34062" lon="1.03868">
        <ele>137</ele>
        <time>2019-12-30T13:37:25.000Z</time>
      </trkpt>
      <trkpt lat="49.34061" lon="1.03872">
        <ele>137</ele>
        <time>2019-12-30T13:37:26.000Z</time>
      </trkpt>
      <trkpt lat="49.34062" lon="1.03875">
        <ele>136</ele>
        <time>2019-12-30T13:37:27.000Z</time>
      </trkpt>
      <trkpt lat="49.34063" lon="1.03879">
        <ele>136</ele>
        <time>2019-12-30T13:37:28.000Z</time>
      </trkpt>
      <trkpt lat="49.34065" lon="1.03882">
        <ele>136</ele>
        <time>2019-12-30T13:37:29.000Z</time>
      </trkpt>
      <trkpt lat="49.34068" lon="1.03885">
        <ele>135</ele>
        <time>2019-12-30T13:37:30.000Z</time>
      </trkpt>
      <trkpt lat="49.34071" lon="1.03887">
        <ele>135</ele>
        <time>2019-12-30T13:37:31.000Z</time>
      </trkpt>
      <trkpt lat="49.34075" lon="1.03889">
        <ele>135</ele>
        <time>2019-12-30T13:37:32.000Z</time>
      </trkpt>
      <trkpt lat="49.34079" lon="1.03892">
        <ele>135</ele>
        <time>2019-12-30T13:37:33.000Z</time>
      </trkpt>
      <trkpt lat="49.34082" lon="1.03895">
        <ele>134</ele>
        <time>2019-12-30T13:37:34.000Z</time>
      </trkpt>
      <trkpt lat="49.34086" lon="1.03897">
        <ele>134</ele>
        <time>2019-12-30T13:37:35.000Z</time>
      </trkpt>
      <trkpt lat="49.3409" lon="1.039">
        <ele>134</ele>
        <time>2019-12-30T13:37:36.000Z</time>
      </trkpt>
      <trkpt lat="49.34094" lon="1.03903">
        <ele>133</ele>
        <time>2019-12-30T13:37:37.000Z</time>
      </trkpt>
      <trkpt lat="49.34098" lon="1.03905">
        <ele>133</ele>
        <time>2019-12-30T13:37:38.000Z</time>
      </trkpt>
      <trkpt lat="49.34101" lon="1.03908">
        <ele>132</ele>
        <time>2019-12-30T13:37:39.000Z</time>
      </trkpt>
      <trkpt lat="49.34105" lon="1.03911">
        <ele>132</ele>
        <time>2019-12-30T13:37:40.000Z</time>
      </trkpt>
      <trkpt lat="49.34109" lon="1.03914">
        <ele>132</ele>
        <time>2019-12-30T13:37:41.000Z</time>
      </trkpt>
      <trkpt lat="49.34112" lon="1.03916">
        <ele>131</ele>
        <time>2019-12-30T13:37:42.000Z</time>
      </trkpt>
      <trkpt lat="49.34116" lon="1.03919">
        <ele>131</ele>
        <time>2019-12-30T13:37:43.000Z</time>
      </trkpt>
      <trkpt lat="49.3412" lon="1.03922">
        <ele>131</ele>
        <time>2019-12-30T13:37:44.000Z</time>
      </trkpt>
      <trkpt lat="49.34124" lon="1.03924">
        <ele>130</ele>
        <time>2019-12-30T13:37:45.000Z</time>
      </trkpt>
      <trkpt lat="49.34127" lon="1.03927">
        <ele>130</ele>
        <time>2019-12-30T13:37:46.000Z</time>
      </trkpt>
      <trkpt lat="49.34131" lon="1.0393">
        <ele>130</ele>
        <time>2019-12-30T13:37:47.000Z</time>
      </trkpt>
      <trkpt lat="49.34135" lon="1.03932">
        <ele>129</ele>
        <time>2019-12-30T13:37:48.000Z</time>
      </trkpt>
      <trkpt lat="49.34138" lon="1.03935">
        <ele>129</ele>
        <time>2019-12-30T13:37:49.000Z</time>
      </trkpt>
      <trkpt lat="49.34142" lon="1.03938">
        <ele>129</ele>
        <time>2019-12-30T13:37:50.000Z</time>
      </trkpt>
      <trkpt lat="49.34146" lon="1.03941">
        <ele>128</ele>
        <time>2019-12-30T13:37:51.000Z</time>
      </trkpt>
      <trkpt lat="49.3415" lon="1.03943">
        <ele>128</ele>
        <time>2019-12-30T13:37:52.000Z</time>
      </trkpt>
      <trkpt lat="49.34154" lon="1.03946">
        <ele>128</ele>
        <time>2019-12-30T13:37:53.000Z</time>
      </trkpt>
      <trkpt lat="49.34158" lon="1.03948">
        <ele>127</ele>
        <time>2019-12-30T13:37:54.000Z</time>
      </trkpt>
      <trkpt lat="49.34162" lon="1.03951">
        <ele>127</ele>
        <time>2019-12-30T13:37:55.000Z</time>
      </trkpt>
      <trkpt lat="49.34166" lon="1.03954">
        <ele>127</ele>
        <time>2019-12-30T13:37:56.000Z</time>
      </trkpt>
      <trkpt lat="49.3417" lon="1.03956">
        <ele>127</ele>
        <time>2019-12-30T13:37:57.000Z</time>
      </trkpt>
      <trkpt lat="49.34174" lon="1.03959">
        <ele>126</ele>
        <time>2019-12-30T13:37:58.000Z</time>
      </trkpt>
      <trkpt lat="49.34178" lon="1.03962">
        <ele>126</ele>
        <time>2019-12-30T13:37:59.000Z</time>
      </trkpt>
      <trkpt lat="49.34183" lon="1.03965">
        <ele>126</ele>
        <time>2019-12-30T13:38:00.000Z</time>
      </trkpt>
      <trkpt lat="49.34187" lon="1.03968">
        <ele>125</ele>
        <time>2019-12-30T13:38:01.000Z</time>
      </trkpt>
      <trkpt lat="49.34191" lon="1.0397">
        <ele>125</ele>
        <time>2019-12-30T13:38:02.000Z</time>
      </trkpt>
      <trkpt lat="49.34195" lon="1.03973">
        <ele>125</ele>
        <time>2019-12-30T13:38:03.000Z</time>
      </trkpt>
      <trkpt lat="49.34199" lon="1.03976">
        <ele>125</ele>
        <time>2019-12-30T13:38:04.000Z</time>
      </trkpt>
      <trkpt lat="49.34203" lon="1.0398">
        <ele>125</ele>
        <time>2019-12-30T13:38:05.000Z</time>
      </trkpt>
      <trkpt lat="49.34207" lon="1.03984">
        <ele>125</ele>
        <time>2019-12-30T13:38:06.000Z</time>
      </trkpt>
      <trkpt lat="49.3421" lon="1.03988">
        <ele>124</ele>
        <time>2019-12-30T13:38:07.000Z</time>
      </trkpt>
      <trkpt lat="49.34214" lon="1.03991">
        <ele>124</ele>
        <time>2019-12-30T13:38:08.000Z</time>
      </trkpt>
      <trkpt lat="49.34218" lon="1.03994">
        <ele>124</ele>
        <time>2019-12-30T13:38:09.000Z</time>
      </trkpt>
      <trkpt lat="49.34223" lon="1.03997">
        <ele>124</ele>
        <time>2019-12-30T13:38:10.000Z</time>
      </trkpt>
      <trkpt lat="49.34227" lon="1.03999">
        <ele>124</ele>
        <time>2019-12-30T13:38:11.000Z</time>
      </trkpt>
      <trkpt lat="49.34231" lon="1.04002">
        <ele>125</ele>
        <time>2019-12-30T13:38:12.000Z</time>
      </trkpt>
      <trkpt lat="49.34236" lon="1.04005">
        <ele>125</ele>
        <time>2019-12-30T13:38:13.000Z</time>
      </trkpt>
      <trkpt lat="49.3424" lon="1.04009">
        <ele>125</ele>
        <time>2019-12-30T13:38:14.000Z</time>
      </trkpt>
      <trkpt lat="49.34245" lon="1.04012">
        <ele>125</ele>
        <time>2019-12-30T13:38:15.000Z</time>
      </trkpt>
      <trkpt lat="49.3425" lon="1.04015">
        <ele>125</ele>
        <time>2019-12-30T13:38:16.000Z</time>
      </trkpt>
      <trkpt lat="49.34255" lon="1.04018">
        <ele>126</ele>
        <time>2019-12-30T13:38:17.000Z</time>
      </trkpt>
      <trkpt lat="49.3426" lon="1.04021">
        <ele>126</ele>
        <time>2019-12-30T13:38:18.000Z</time>
      </trkpt>
      <trkpt lat="49.34265" lon="1.04024">
        <ele>126</ele>
        <time>2019-12-30T13:38:19.000Z</time>
      </trkpt>
      <trkpt lat="49.34269" lon="1.04027">
        <ele>126</ele>
        <time>2019-12-30T13:38:20.000Z</time>
      </trkpt>
      <trkpt lat="49.34273" lon="1.04029">
        <ele>127</ele>
        <time>2019-12-30T13:38:21.000Z</time>
      </trkpt>
      <trkpt lat="49.34278" lon="1.04031">
        <ele>127</ele>
        <time>2019-12-30T13:38:22.000Z</time>
      </trkpt>
      <trkpt lat="49.34283" lon="1.04034">
        <ele>127</ele>
        <time>2019-12-30T13:38:23.000Z</time>
      </trkpt>
      <trkpt lat="49.34287" lon="1.04037">
        <ele>127</ele>
        <time>2019-12-30T13:38:24.000Z</time>
      </trkpt>
      <trkpt lat="49.34292" lon="1.04039">
        <ele>127</ele>
        <time>2019-12-30T13:38:25.000Z</time>
      </trkpt>
      <trkpt lat="49.34296" lon="1.04041">
        <ele>128</ele>
        <time>2019-12-30T13:38:26.000Z</time>
      </trkpt>
      <trkpt lat="49.343" lon="1.04044">
        <ele>128</ele>
        <time>2019-12-30T13:38:27.000Z</time>
      </trkpt>
      <trkpt lat="49.34303" lon="1.04047">
        <ele>128</ele>
        <time>2019-12-30T13:38:28.000Z</time>
      </trkpt>
      <trkpt lat="49.34305" lon="1.0405">
        <ele>128</ele>
        <time>2019-12-30T13:38:29.000Z</time>
      </trkpt>
      <trkpt lat="49.34307" lon="1.04054">
        <ele>128</ele>
        <time>2019-12-30T13:38:30.000Z</time>
      </trkpt>
      <trkpt lat="49.34309" lon="1.0406">
        <ele>128</ele>
        <time>2019-12-30T13:38:31.000Z</time>
      </trkpt>
      <trkpt lat="49.34309" lon="1.04066">
        <ele>127</ele>
        <time>2019-12-30T13:38:32.000Z</time>
      </trkpt>
      <trkpt lat="49.34309" lon="1.04073">
        <ele>127</ele>
        <time>2019-12-30T13:38:33.000Z</time>
      </trkpt>
      <trkpt lat="49.34309" lon="1.0408">
        <ele>127</ele>
        <time>2019-12-30T13:38:34.000Z</time>
      </trkpt>
      <trkpt lat="49.34308" lon="1.04087">
        <ele>127</ele>
        <time>2019-12-30T13:38:35.000Z</time>
      </trkpt>
      <trkpt lat="49.34308" lon="1.04094">
        <ele>127</ele>
        <time>2019-12-30T13:38:36.000Z</time>
      </trkpt>
      <trkpt lat="49.34308" lon="1.04101">
        <ele>127</ele>
        <time>2019-12-30T13:38:37.000Z</time>
      </trkpt>
      <trkpt lat="49.34308" lon="1.04107">
        <ele>127</ele>
        <time>2019-12-30T13:38:38.000Z</time>
      </trkpt>
      <trkpt lat="49.34307" lon="1.04113">
        <ele>126</ele>
        <time>2019-12-30T13:38:39.000Z</time>
      </trkpt>
      <trkpt lat="49.34307" lon="1.0412">
        <ele>126</ele>
        <time>2019-12-30T13:38:40.000Z</time>
      </trkpt>
      <trkpt lat="49.34307" lon="1.04126">
        <ele>126</ele>
        <time>2019-12-30T13:38:41.000Z</time>
      </trkpt>
      <trkpt lat="49.34307" lon="1.04133">
        <ele>126</ele>
        <time>2019-12-30T13:38:42.000Z</time>
      </trkpt>
      <trkpt lat="49.34307" lon="1.0414">
        <ele>126</ele>
        <time>2019-12-30T13:38:43.000Z</time>
      </trkpt>
      <trkpt lat="49.34307" lon="1.04146">
        <ele>126</ele>
        <time>2019-12-30T13:38:44.000Z</time>
      </trkpt>
      <trkpt lat="49.34307" lon="1.04153">
        <ele>125</ele>
        <time>2019-12-30T13:38:45.000Z</time>
      </trkpt>
      <trkpt lat="49.34307" lon="1.0416">
        <ele>125</ele>
        <time>2019-12-30T13:38:46.000Z</time>
      </trkpt>
      <trkpt lat="49.34307" lon="1.04166">
        <ele>125</ele>
        <time>2019-12-30T13:38:47.000Z</time>
      </trkpt>
      <trkpt lat="49.34306" lon="1.04172">
        <ele>125</ele>
        <time>2019-12-30T13:38:48.000Z</time>
      </trkpt>
      <trkpt lat="49.34306" lon="1.04178">
        <ele>125</ele>
        <time>2019-12-30T13:38:49.000Z</time>
      </trkpt>
      <trkpt lat="49.34306" lon="1.04185">
        <ele>125</ele>
        <time>2019-12-30T13:38:50.000Z</time>
      </trkpt>
      <trkpt lat="49.34306" lon="1.04191">
        <ele>124</ele>
        <time>2019-12-30T13:38:51.000Z</time>
      </trkpt>
      <trkpt lat="49.34305" lon="1.04197">
        <ele>124</ele>
        <time>2019-12-30T13:38:52.000Z</time>
      </trkpt>
      <trkpt lat="49.34305" lon="1.04203">
        <ele>124</ele>
        <time>2019-12-30T13:38:53.000Z</time>
      </trkpt>
      <trkpt lat="49.34305" lon="1.04209">
        <ele>123</ele>
        <time>2019-12-30T13:38:54.000Z</time>
      </trkpt>
      <trkpt lat="49.34305" lon="1.04215">
        <ele>123</ele>
        <time>2019-12-30T13:38:55.000Z</time>
      </trkpt>
      <trkpt lat="49.34305" lon="1.04222">
        <ele>123</ele>
        <time>2019-12-30T13:38:56.000Z</time>
      </trkpt>
      <trkpt lat="49.34305" lon="1.04228">
        <ele>123</ele>
        <time>2019-12-30T13:38:57.000Z</time>
      </trkpt>
      <trkpt lat="49.34304" lon="1.04234">
        <ele>122</ele>
        <time>2019-12-30T13:38:58.000Z</time>
      </trkpt>
      <trkpt lat="49.34304" lon="1.04241">
        <ele>122</ele>
        <time>2019-12-30T13:38:59.000Z</time>
      </trkpt>
      <trkpt lat="49.34304" lon="1.04247">
        <ele>122</ele>
        <time>2019-12-30T13:39:00.000Z</time>
      </trkpt>
      <trkpt lat="49.34304" lon="1.04254">
        <ele>121</ele>
        <time>2019-12-30T13:39:01.000Z</time>
      </trkpt>
      <trkpt lat="49.34304" lon="1.04261">
        <ele>121</ele>
        <time>2019-12-30T13:39:02.000Z</time>
      </trkpt>
      <trkpt lat="49.34304" lon="1.04268">
        <ele>121</ele>
        <time>2019-12-30T13:39:03.000Z</time>
      </trkpt>
      <trkpt lat="49.34304" lon="1.04274">
        <ele>121</ele>
        <time>2019-12-30T13:39:04.000Z</time>
      </trkpt>
      <trkpt lat="49.34304" lon="1.04281">
        <ele>120</ele>
        <time>2019-12-30T13:39:05.000Z</time>
      </trkpt>
      <trkpt lat="49.34303" lon="1.04288">
        <ele>120</ele>
        <time>2019-12-30T13:39:06.000Z</time>
      </trkpt>
      <trkpt lat="49.34304" lon="1.04294">
        <ele>120</ele>
        <time>2019-12-30T13:39:07.000Z</time>
      </trkpt>
      <trkpt lat="49.34304" lon="1.04301">
        <ele>120</ele>
        <time>2019-12-30T13:39:08.000Z</time>
      </trkpt>
      <trkpt lat="49.34304" lon="1.04307">
        <ele>120</ele>
        <time>2019-12-30T13:39:09.000Z</time>
      </trkpt>
      <trkpt lat="49.34304" lon="1.04313">
        <ele>120</ele>
        <time>2019-12-30T13:39:10.000Z</time>
      </trkpt>
      <trkpt lat="49.34304" lon="1.04319">
        <ele>119</ele>
        <time>2019-12-30T13:39:11.000Z</time>
      </trkpt>
      <trkpt lat="49.34303" lon="1.04324">
        <ele>120</ele>
        <time>2019-12-30T13:39:12.000Z</time>
      </trkpt>
      <trkpt lat="49.34303" lon="1.0433">
        <ele>119</ele>
        <time>2019-12-30T13:39:13.000Z</time>
      </trkpt>
      <trkpt lat="49.34303" lon="1.04336">
        <ele>119</ele>
        <time>2019-12-30T13:39:14.000Z</time>
      </trkpt>
      <trkpt lat="49.34303" lon="1.04342">
        <ele>119</ele>
        <time>2019-12-30T13:39:15.000Z</time>
      </trkpt>
      <trkpt lat="49.34303" lon="1.04347">
        <ele>119</ele>
        <time>2019-12-30T13:39:16.000Z</time>
      </trkpt>
      <trkpt lat="49.34303" lon="1.04353">
        <ele>119</ele>
        <time>2019-12-30T13:39:17.000Z</time>
      </trkpt>
      <trkpt lat="49.34302" lon="1.04358">
        <ele>119</ele>
        <time>2019-12-30T13:39:18.000Z</time>
      </trkpt>
      <trkpt lat="49.34302" lon="1.04365">
        <ele>120</ele>
        <time>2019-12-30T13:39:19.000Z</time>
      </trkpt>
      <trkpt lat="49.34302" lon="1.04372">
        <ele>120</ele>
        <time>2019-12-30T13:39:20.000Z</time>
      </trkpt>
      <trkpt lat="49.34302" lon="1.04379">
        <ele>120</ele>
        <time>2019-12-30T13:39:21.000Z</time>
      </trkpt>
      <trkpt lat="49.34302" lon="1.04385">
        <ele>120</ele>
        <time>2019-12-30T13:39:22.000Z</time>
      </trkpt>
      <trkpt lat="49.34302" lon="1.04392">
        <ele>120</ele>
        <time>2019-12-30T13:39:23.000Z</time>
      </trkpt>
      <trkpt lat="49.34302" lon="1.04399">
        <ele>120</ele>
        <time>2019-12-30T13:39:24.000Z</time>
      </trkpt>
      <trkpt lat="49.34302" lon="1.04405">
        <ele>120</ele>
        <time>2019-12-30T13:39:25.000Z</time>
      </trkpt>
      <trkpt lat="49.34303" lon="1.04412">
        <ele>120</ele>
        <time>2019-12-30T13:39:26.000Z</time>
      </trkpt>
      <trkpt lat="49.34303" lon="1.04418">
        <ele>120</ele>
        <time>2019-12-30T13:39:27.000Z</time>
      </trkpt>
      <trkpt lat="49.34304" lon="1.04425">
        <ele>120</ele>
        <time>2019-12-30T13:39:28.000Z</time>
      </trkpt>
      <trkpt lat="49.34304" lon="1.04431">
        <ele>120</ele>
        <time>2019-12-30T13:39:29.000Z</time>
      </trkpt>
      <trkpt lat="49.34304" lon="1.04438">
        <ele>120</ele>
        <time>2019-12-30T13:39:30.000Z</time>
      </trkpt>
      <trkpt lat="49.34304" lon="1.04445">
        <ele>120</ele>
        <time>2019-12-30T13:39:31.000Z</time>
      </trkpt>
      <trkpt lat="49.34304" lon="1.04452">
        <ele>120</ele>
        <time>2019-12-30T13:39:32.000Z</time>
      </trkpt>
      <trkpt lat="49.34304" lon="1.04458">
        <ele>120</ele>
        <time>2019-12-30T13:39:33.000Z</time>
      </trkpt>
      <trkpt lat="49.34305" lon="1.04465">
        <ele>120</ele>
        <time>2019-12-30T13:39:34.000Z</time>
      </trkpt>
      <trkpt lat="49.34304" lon="1.04471">
        <ele>120</ele>
        <time>2019-12-30T13:39:35.000Z</time>
      </trkpt>
      <trkpt lat="49.34304" lon="1.04477">
        <ele>120</ele>
        <time>2019-12-30T13:39:36.000Z</time>
      </trkpt>
      <trkpt lat="49.34305" lon="1.04483">
        <ele>120</ele>
        <time>2019-12-30T13:39:37.000Z</time>
      </trkpt>
      <trkpt lat="49.34306" lon="1.04489">
        <ele>120</ele>
        <time>2019-12-30T13:39:38.000Z</time>
      </trkpt>
      <trkpt lat="49.34306" lon="1.04495">
        <ele>120</ele>
        <time>2019-12-30T13:39:39.000Z</time>
      </trkpt>
      <trkpt lat="49.34307" lon="1.04502">
        <ele>120</ele>
        <time>2019-12-30T13:39:40.000Z</time>
      </trkpt>
      <trkpt lat="49.34307" lon="1.04508">
        <ele>120</ele>
        <time>2019-12-30T13:39:41.000Z</time>
      </trkpt>
      <trkpt lat="49.34307" lon="1.04515">
        <ele>121</ele>
        <time>2019-12-30T13:39:42.000Z</time>
      </trkpt>
      <trkpt lat="49.34307" lon="1.04521">
        <ele>120</ele>
        <time>2019-12-30T13:39:43.000Z</time>
      </trkpt>
      <trkpt lat="49.34307" lon="1.04526">
        <ele>120</ele>
        <time>2019-12-30T13:39:44.000Z</time>
      </trkpt>
      <trkpt lat="49.34307" lon="1.04532">
        <ele>120</ele>
        <time>2019-12-30T13:39:45.000Z</time>
      </trkpt>
      <trkpt lat="49.34307" lon="1.04538">
        <ele>120</ele>
        <time>2019-12-30T13:39:46.000Z</time>
      </trkpt>
      <trkpt lat="49.34307" lon="1.04544">
        <ele>120</ele>
        <time>2019-12-30T13:39:47.000Z</time>
      </trkpt>
      <trkpt lat="49.34307" lon="1.04551">
        <ele>120</ele>
        <time>2019-12-30T13:39:48.000Z</time>
      </trkpt>
      <trkpt lat="49.34307" lon="1.04558">
        <ele>120</ele>
        <time>2019-12-30T13:39:49.000Z</time>
      </trkpt>
      <trkpt lat="49.34307" lon="1.04564">
        <ele>119</ele>
        <time>2019-12-30T13:39:50.000Z</time>
      </trkpt>
      <trkpt lat="49.34307" lon="1.04571">
        <ele>119</ele>
        <time>2019-12-30T13:39:51.000Z</time>
      </trkpt>
      <trkpt lat="49.34307" lon="1.04578">
        <ele>119</ele>
        <time>2019-12-30T13:39:52.000Z</time>
      </trkpt>
      <trkpt lat="49.34307" lon="1.04585">
        <ele>119</ele>
        <time>2019-12-30T13:39:53.000Z</time>
      </trkpt>
      <trkpt lat="49.34307" lon="1.04592">
        <ele>119</ele>
        <time>2019-12-30T13:39:54.000Z</time>
      </trkpt>
      <trkpt lat="49.34307" lon="1.04598">
        <ele>119</ele>
        <time>2019-12-30T13:39:55.000Z</time>
      </trkpt>
      <trkpt lat="49.34307" lon="1.04605">
        <ele>119</ele>
        <time>2019-12-30T13:39:56.000Z</time>
      </trkpt>
      <trkpt lat="49.34307" lon="1.04612">
        <ele>119</ele>
        <time>2019-12-30T13:39:57.000Z</time>
      </trkpt>
      <trkpt lat="49.34307" lon="1.04619">
        <ele>119</ele>
        <time>2019-12-30T13:39:58.000Z</time>
      </trkpt>
      <trkpt lat="49.34307" lon="1.04625">
        <ele>119</ele>
        <time>2019-12-30T13:39:59.000Z</time>
      </trkpt>
      <trkpt lat="49.34307" lon="1.04632">
        <ele>118</ele>
        <time>2019-12-30T13:40:00.000Z</time>
      </trkpt>
      <trkpt lat="49.34307" lon="1.04639">
        <ele>118</ele>
        <time>2019-12-30T13:40:01.000Z</time>
      </trkpt>
      <trkpt lat="49.34307" lon="1.04646">
        <ele>118</ele>
        <time>2019-12-30T13:40:02.000Z</time>
      </trkpt>
      <trkpt lat="49.34307" lon="1.04652">
        <ele>118</ele>
        <time>2019-12-30T13:40:03.000Z</time>
      </trkpt>
      <trkpt lat="49.34307" lon="1.04659">
        <ele>118</ele>
        <time>2019-12-30T13:40:04.000Z</time>
      </trkpt>
      <trkpt lat="49.34307" lon="1.04666">
        <ele>118</ele>
        <time>2019-12-30T13:40:05.000Z</time>
      </trkpt>
      <trkpt lat="49.34308" lon="1.04672">
        <ele>118</ele>
        <time>2019-12-30T13:40:06.000Z</time>
      </trkpt>
      <trkpt lat="49.34308" lon="1.04679">
        <ele>118</ele>
        <time>2019-12-30T13:40:07.000Z</time>
      </trkpt>
      <trkpt lat="49.34308" lon="1.04685">
        <ele>118</ele>
        <time>2019-12-30T13:40:08.000Z</time>
      </trkpt>
      <trkpt lat="49.34308" lon="1.04691">
        <ele>118</ele>
        <time>2019-12-30T13:40:09.000Z</time>
      </trkpt>
      <trkpt lat="49.34307" lon="1.04698">
        <ele>118</ele>
        <time>2019-12-30T13:40:10.000Z</time>
      </trkpt>
      <trkpt lat="49.34307" lon="1.04705">
        <ele>118</ele>
        <time>2019-12-30T13:40:11.000Z</time>
      </trkpt>
      <trkpt lat="49.34307" lon="1.04711">
        <ele>118</ele>
        <time>2019-12-30T13:40:12.000Z</time>
      </trkpt>
      <trkpt lat="49.34307" lon="1.04718">
        <ele>118</ele>
        <time>2019-12-30T13:40:13.000Z</time>
      </trkpt>
      <trkpt lat="49.34307" lon="1.04724">
        <ele>118</ele>
        <time>2019-12-30T13:40:14.000Z</time>
      </trkpt>
      <trkpt lat="49.34307" lon="1.04731">
        <ele>118</ele>
        <time>2019-12-30T13:40:15.000Z</time>
      </trkpt>
      <trkpt lat="49.34307" lon="1.04738">
        <ele>118</ele>
        <time>2019-12-30T13:40:16.000Z</time>
      </trkpt>
      <trkpt lat="49.34307" lon="1.04744">
        <ele>118</ele>
        <time>2019-12-30T13:40:17.000Z</time>
      </trkpt>
      <trkpt lat="49.34307" lon="1.04751">
        <ele>118</ele>
        <time>2019-12-30T13:40:18.000Z</time>
      </trkpt>
      <trkpt lat="49.34307" lon="1.04758">
        <ele>118</ele>
        <time>2019-12-30T13:40:19.000Z</time>
      </trkpt>
      <trkpt lat="49.34307" lon="1.04765">
        <ele>117</ele>
        <time>2019-12-30T13:40:20.000Z</time>
      </trkpt>
      <trkpt lat="49.34307" lon="1.04771">
        <ele>117</ele>
        <time>2019-12-30T13:40:21.000Z</time>
      </trkpt>
      <trkpt lat="49.34307" lon="1.04778">
        <ele>117</ele>
        <time>2019-12-30T13:40:22.000Z</time>
      </trkpt>
      <trkpt lat="49.34307" lon="1.04785">
        <ele>117</ele>
        <time>2019-12-30T13:40:23.000Z</time>
      </trkpt>
      <trkpt lat="49.34307" lon="1.04791">
        <ele>117</ele>
        <time>2019-12-30T13:40:24.000Z</time>
      </trkpt>
      <trkpt lat="49.34306" lon="1.04798">
        <ele>117</ele>
        <time>2019-12-30T13:40:25.000Z</time>
      </trkpt>
      <trkpt lat="49.34306" lon="1.04805">
        <ele>117</ele>
        <time>2019-12-30T13:40:26.000Z</time>
      </trkpt>
      <trkpt lat="49.34306" lon="1.04812">
        <ele>117</ele>
        <time>2019-12-30T13:40:27.000Z</time>
      </trkpt>
      <trkpt lat="49.34307" lon="1.04819">
        <ele>116</ele>
        <time>2019-12-30T13:40:28.000Z</time>
      </trkpt>
      <trkpt lat="49.34307" lon="1.04826">
        <ele>116</ele>
        <time>2019-12-30T13:40:29.000Z</time>
      </trkpt>
      <trkpt lat="49.34306" lon="1.04833">
        <ele>116</ele>
        <time>2019-12-30T13:40:30.000Z</time>
      </trkpt>
      <trkpt lat="49.34306" lon="1.0484">
        <ele>116</ele>
        <time>2019-12-30T13:40:31.000Z</time>
      </trkpt>
      <trkpt lat="49.34306" lon="1.04847">
        <ele>116</ele>
        <time>2019-12-30T13:40:32.000Z</time>
      </trkpt>
      <trkpt lat="49.34306" lon="1.04854">
        <ele>116</ele>
        <time>2019-12-30T13:40:33.000Z</time>
      </trkpt>
      <trkpt lat="49.34306" lon="1.04861">
        <ele>116</ele>
        <time>2019-12-30T13:40:34.000Z</time>
      </trkpt>
      <trkpt lat="49.34306" lon="1.04868">
        <ele>116</ele>
        <time>2019-12-30T13:40:35.000Z</time>
      </trkpt>
      <trkpt lat="49.34306" lon="1.04876">
        <ele>116</ele>
        <time>2019-12-30T13:40:36.000Z</time>
      </trkpt>
      <trkpt lat="49.34306" lon="1.04883">
        <ele>116</ele>
        <time>2019-12-30T13:40:37.000Z</time>
      </trkpt>
      <trkpt lat="49.34306" lon="1.0489">
        <ele>115</ele>
        <time>2019-12-30T13:40:38.000Z</time>
      </trkpt>
      <trkpt lat="49.34306" lon="1.04897">
        <ele>115</ele>
        <time>2019-12-30T13:40:39.000Z</time>
      </trkpt>
      <trkpt lat="49.34305" lon="1.04904">
        <ele>115</ele>
        <time>2019-12-30T13:40:40.000Z</time>
      </trkpt>
      <trkpt lat="49.34305" lon="1.04912">
        <ele>115</ele>
        <time>2019-12-30T13:40:41.000Z</time>
      </trkpt>
      <trkpt lat="49.34305" lon="1.04918">
        <ele>115</ele>
        <time>2019-12-30T13:40:42.000Z</time>
      </trkpt>
      <trkpt lat="49.34305" lon="1.04926">
        <ele>114</ele>
        <time>2019-12-30T13:40:43.000Z</time>
      </trkpt>
      <trkpt lat="49.34305" lon="1.04933">
        <ele>114</ele>
        <time>2019-12-30T13:40:44.000Z</time>
      </trkpt>
      <trkpt lat="49.34305" lon="1.0494">
        <ele>114</ele>
        <time>2019-12-30T13:40:45.000Z</time>
      </trkpt>
      <trkpt lat="49.34304" lon="1.04947">
        <ele>114</ele>
        <time>2019-12-30T13:40:46.000Z</time>
      </trkpt>
      <trkpt lat="49.34304" lon="1.04954">
        <ele>114</ele>
        <time>2019-12-30T13:40:47.000Z</time>
      </trkpt>
      <trkpt lat="49.34303" lon="1.04961">
        <ele>113</ele>
        <time>2019-12-30T13:40:48.000Z</time>
      </trkpt>
      <trkpt lat="49.34303" lon="1.04968">
        <ele>113</ele>
        <time>2019-12-30T13:40:49.000Z</time>
      </trkpt>
      <trkpt lat="49.34303" lon="1.04976">
        <ele>113</ele>
        <time>2019-12-30T13:40:50.000Z</time>
      </trkpt>
      <trkpt lat="49.34302" lon="1.04982">
        <ele>113</ele>
        <time>2019-12-30T13:40:51.000Z</time>
      </trkpt>
      <trkpt lat="49.34301" lon="1.04989">
        <ele>113</ele>
        <time>2019-12-30T13:40:52.000Z</time>
      </trkpt>
      <trkpt lat="49.343" lon="1.04996">
        <ele>113</ele>
        <time>2019-12-30T13:40:53.000Z</time>
      </trkpt>
      <trkpt lat="49.343" lon="1.05003">
        <ele>113</ele>
        <time>2019-12-30T13:40:54.000Z</time>
      </trkpt>
      <trkpt lat="49.343" lon="1.0501">
        <ele>113</ele>
        <time>2019-12-30T13:40:55.000Z</time>
      </trkpt>
      <trkpt lat="49.34301" lon="1.05017">
        <ele>113</ele>
        <time>2019-12-30T13:40:56.000Z</time>
      </trkpt>
      <trkpt lat="49.34302" lon="1.05024">
        <ele>113</ele>
        <time>2019-12-30T13:40:57.000Z</time>
      </trkpt>
      <trkpt lat="49.34302" lon="1.05031">
        <ele>113</ele>
        <time>2019-12-30T13:40:58.000Z</time>
      </trkpt>
      <trkpt lat="49.34302" lon="1.05039">
        <ele>112</ele>
        <time>2019-12-30T13:40:59.000Z</time>
      </trkpt>
      <trkpt lat="49.34301" lon="1.05046">
        <ele>112</ele>
        <time>2019-12-30T13:41:00.000Z</time>
      </trkpt>
      <trkpt lat="49.343" lon="1.05054">
        <ele>112</ele>
        <time>2019-12-30T13:41:01.000Z</time>
      </trkpt>
      <trkpt lat="49.34299" lon="1.05061">
        <ele>112</ele>
        <time>2019-12-30T13:41:02.000Z</time>
      </trkpt>
      <trkpt lat="49.34298" lon="1.05068">
        <ele>112</ele>
        <time>2019-12-30T13:41:03.000Z</time>
      </trkpt>
      <trkpt lat="49.34297" lon="1.05075">
        <ele>112</ele>
        <time>2019-12-30T13:41:04.000Z</time>
      </trkpt>
      <trkpt lat="49.34296" lon="1.05082">
        <ele>112</ele>
        <time>2019-12-30T13:41:05.000Z</time>
      </trkpt>
      <trkpt lat="49.34296" lon="1.05089">
        <ele>112</ele>
        <time>2019-12-30T13:41:06.000Z</time>
      </trkpt>
      <trkpt lat="49.34295" lon="1.05096">
        <ele>112</ele>
        <time>2019-12-30T13:41:07.000Z</time>
      </trkpt>
      <trkpt lat="49.34293" lon="1.05103">
        <ele>111</ele>
        <time>2019-12-30T13:41:08.000Z</time>
      </trkpt>
      <trkpt lat="49.34292" lon="1.05109">
        <ele>111</ele>
        <time>2019-12-30T13:41:09.000Z</time>
      </trkpt>
      <trkpt lat="49.34292" lon="1.05116">
        <ele>111</ele>
        <time>2019-12-30T13:41:10.000Z</time>
      </trkpt>
      <trkpt lat="49.34292" lon="1.05123">
        <ele>111</ele>
        <time>2019-12-30T13:41:11.000Z</time>
      </trkpt>
      <trkpt lat="49.34293" lon="1.0513">
        <ele>111</ele>
        <time>2019-12-30T13:41:12.000Z</time>
      </trkpt>
      <trkpt lat="49.34294" lon="1.05137">
        <ele>111</ele>
        <time>2019-12-30T13:41:13.000Z</time>
      </trkpt>
      <trkpt lat="49.34295" lon="1.05144">
        <ele>111</ele>
        <time>2019-12-30T13:41:14.000Z</time>
      </trkpt>
      <trkpt lat="49.34295" lon="1.05151">
        <ele>111</ele>
        <time>2019-12-30T13:41:15.000Z</time>
      </trkpt>
      <trkpt lat="49.34296" lon="1.05158">
        <ele>111</ele>
        <time>2019-12-30T13:41:16.000Z</time>
      </trkpt>
      <trkpt lat="49.34297" lon="1.05165">
        <ele>111</ele>
        <time>2019-12-30T13:41:17.000Z</time>
      </trkpt>
      <trkpt lat="49.34297" lon="1.05172">
        <ele>111</ele>
        <time>2019-12-30T13:41:18.000Z</time>
      </trkpt>
      <trkpt lat="49.34297" lon="1.05179">
        <ele>111</ele>
        <time>2019-12-30T13:41:19.000Z</time>
      </trkpt>
      <trkpt lat="49.34296" lon="1.05186">
        <ele>111</ele>
        <time>2019-12-30T13:41:20.000Z</time>
      </trkpt>
      <trkpt lat="49.34293" lon="1.05192">
        <ele>111</ele>
        <time>2019-12-30T13:41:21.000Z</time>
      </trkpt>
      <trkpt lat="49.34291" lon="1.05197">
        <ele>111</ele>
        <time>2019-12-30T13:41:22.000Z</time>
      </trkpt>
      <trkpt lat="49.34289" lon="1.05203">
        <ele>111</ele>
        <time>2019-12-30T13:41:23.000Z</time>
      </trkpt>
      <trkpt lat="49.34287" lon="1.05209">
        <ele>111</ele>
        <time>2019-12-30T13:41:24.000Z</time>
      </trkpt>
      <trkpt lat="49.34286" lon="1.05216">
        <ele>111</ele>
        <time>2019-12-30T13:41:25.000Z</time>
      </trkpt>
      <trkpt lat="49.34285" lon="1.05223">
        <ele>111</ele>
        <time>2019-12-30T13:41:26.000Z</time>
      </trkpt>
      <trkpt lat="49.34284" lon="1.0523">
        <ele>111</ele>
        <time>2019-12-30T13:41:27.000Z</time>
      </trkpt>
      <trkpt lat="49.34283" lon="1.05237">
        <ele>111</ele>
        <time>2019-12-30T13:41:28.000Z</time>
      </trkpt>
      <trkpt lat="49.34281" lon="1.05243">
        <ele>111</ele>
        <time>2019-12-30T13:41:29.000Z</time>
      </trkpt>
      <trkpt lat="49.34279" lon="1.0525">
        <ele>111</ele>
        <time>2019-12-30T13:41:30.000Z</time>
      </trkpt>
      <trkpt lat="49.34278" lon="1.05257">
        <ele>110</ele>
        <time>2019-12-30T13:41:31.000Z</time>
      </trkpt>
      <trkpt lat="49.34277" lon="1.05264">
        <ele>110</ele>
        <time>2019-12-30T13:41:32.000Z</time>
      </trkpt>
      <trkpt lat="49.34276" lon="1.05271">
        <ele>110</ele>
        <time>2019-12-30T13:41:33.000Z</time>
      </trkpt>
      <trkpt lat="49.34276" lon="1.05278">
        <ele>110</ele>
        <time>2019-12-30T13:41:34.000Z</time>
      </trkpt>
      <trkpt lat="49.34276" lon="1.05285">
        <ele>109</ele>
        <time>2019-12-30T13:41:35.000Z</time>
      </trkpt>
      <trkpt lat="49.34276" lon="1.05293">
        <ele>109</ele>
        <time>2019-12-30T13:41:36.000Z</time>
      </trkpt>
      <trkpt lat="49.34277" lon="1.053">
        <ele>109</ele>
        <time>2019-12-30T13:41:37.000Z</time>
      </trkpt>
      <trkpt lat="49.34278" lon="1.05307">
        <ele>109</ele>
        <time>2019-12-30T13:41:38.000Z</time>
      </trkpt>
      <trkpt lat="49.34279" lon="1.05314">
        <ele>109</ele>
        <time>2019-12-30T13:41:39.000Z</time>
      </trkpt>
      <trkpt lat="49.3428" lon="1.05321">
        <ele>108</ele>
        <time>2019-12-30T13:41:40.000Z</time>
      </trkpt>
      <trkpt lat="49.34281" lon="1.05328">
        <ele>108</ele>
        <time>2019-12-30T13:41:41.000Z</time>
      </trkpt>
      <trkpt lat="49.34282" lon="1.05336">
        <ele>108</ele>
        <time>2019-12-30T13:41:42.000Z</time>
      </trkpt>
      <trkpt lat="49.34282" lon="1.05343">
        <ele>108</ele>
        <time>2019-12-30T13:41:43.000Z</time>
      </trkpt>
      <trkpt lat="49.34283" lon="1.05351">
        <ele>107</ele>
        <time>2019-12-30T13:41:44.000Z</time>
      </trkpt>
      <trkpt lat="49.34284" lon="1.05358">
        <ele>107</ele>
        <time>2019-12-30T13:41:45.000Z</time>
      </trkpt>
      <trkpt lat="49.34285" lon="1.05366">
        <ele>107</ele>
        <time>2019-12-30T13:41:46.000Z</time>
      </trkpt>
      <trkpt lat="49.34285" lon="1.05373">
        <ele>107</ele>
        <time>2019-12-30T13:41:47.000Z</time>
      </trkpt>
      <trkpt lat="49.34286" lon="1.05381">
        <ele>106</ele>
        <time>2019-12-30T13:41:48.000Z</time>
      </trkpt>
      <trkpt lat="49.34286" lon="1.05388">
        <ele>106</ele>
        <time>2019-12-30T13:41:49.000Z</time>
      </trkpt>
      <trkpt lat="49.34286" lon="1.05396">
        <ele>106</ele>
        <time>2019-12-30T13:41:50.000Z</time>
      </trkpt>
      <trkpt lat="49.34286" lon="1.05403">
        <ele>106</ele>
        <time>2019-12-30T13:41:51.000Z</time>
      </trkpt>
      <trkpt lat="49.34286" lon="1.05411">
        <ele>105</ele>
        <time>2019-12-30T13:41:52.000Z</time>
      </trkpt>
      <trkpt lat="49.34286" lon="1.05418">
        <ele>105</ele>
        <time>2019-12-30T13:41:53.000Z</time>
      </trkpt>
      <trkpt lat="49.34286" lon="1.05426">
        <ele>105</ele>
        <time>2019-12-30T13:41:54.000Z</time>
      </trkpt>
      <trkpt lat="49.34286" lon="1.05434">
        <ele>105</ele>
        <time>2019-12-30T13:41:55.000Z</time>
      </trkpt>
      <trkpt lat="49.34285" lon="1.05442">
        <ele>105</ele>
        <time>2019-12-30T13:41:56.000Z</time>
      </trkpt>
      <trkpt lat="49.34286" lon="1.0545">
        <ele>104</ele>
        <time>2019-12-30T13:41:57.000Z</time>
      </trkpt>
      <trkpt lat="49.34286" lon="1.05457">
        <ele>104</ele>
        <time>2019-12-30T13:41:58.000Z</time>
      </trkpt>
      <trkpt lat="49.34285" lon="1.05465">
        <ele>104</ele>
        <time>2019-12-30T13:41:59.000Z</time>
      </trkpt>
      <trkpt lat="49.34284" lon="1.05473">
        <ele>103</ele>
        <time>2019-12-30T13:42:00.000Z</time>
      </trkpt>
      <trkpt lat="49.34283" lon="1.05482">
        <ele>103</ele>
        <time>2019-12-30T13:42:01.000Z</time>
      </trkpt>
      <trkpt lat="49.34283" lon="1.0549">
        <ele>103</ele>
        <time>2019-12-30T13:42:02.000Z</time>
      </trkpt>
      <trkpt lat="49.34282" lon="1.05498">
        <ele>103</ele>
        <time>2019-12-30T13:42:03.000Z</time>
      </trkpt>
      <trkpt lat="49.3428" lon="1.05507">
        <ele>102</ele>
        <time>2019-12-30T13:42:04.000Z</time>
      </trkpt>
      <trkpt lat="49.34279" lon="1.05515">
        <ele>102</ele>
        <time>2019-12-30T13:42:05.000Z</time>
      </trkpt>
      <trkpt lat="49.34278" lon="1.05523">
        <ele>102</ele>
        <time>2019-12-30T13:42:06.000Z</time>
      </trkpt>
      <trkpt lat="49.34279" lon="1.05532">
        <ele>102</ele>
        <time>2019-12-30T13:42:07.000Z</time>
      </trkpt>
      <trkpt lat="49.3428" lon="1.0554">
        <ele>101</ele>
        <time>2019-12-30T13:42:08.000Z</time>
      </trkpt>
      <trkpt lat="49.34282" lon="1.05547">
        <ele>101</ele>
        <time>2019-12-30T13:42:09.000Z</time>
      </trkpt>
      <trkpt lat="49.34284" lon="1.05554">
        <ele>101</ele>
        <time>2019-12-30T13:42:10.000Z</time>
      </trkpt>
      <trkpt lat="49.34285" lon="1.0556">
        <ele>101</ele>
        <time>2019-12-30T13:42:11.000Z</time>
      </trkpt>
      <trkpt lat="49.34287" lon="1.05567">
        <ele>101</ele>
        <time>2019-12-30T13:42:12.000Z</time>
      </trkpt>
      <trkpt lat="49.34288" lon="1.05574">
        <ele>101</ele>
        <time>2019-12-30T13:42:13.000Z</time>
      </trkpt>
      <trkpt lat="49.3429" lon="1.0558">
        <ele>101</ele>
        <time>2019-12-30T13:42:14.000Z</time>
      </trkpt>
      <trkpt lat="49.34292" lon="1.05587">
        <ele>101</ele>
        <time>2019-12-30T13:42:15.000Z</time>
      </trkpt>
      <trkpt lat="49.34293" lon="1.05595">
        <ele>101</ele>
        <time>2019-12-30T13:42:16.000Z</time>
      </trkpt>
      <trkpt lat="49.34294" lon="1.05602">
        <ele>101</ele>
        <time>2019-12-30T13:42:17.000Z</time>
      </trkpt>
      <trkpt lat="49.34294" lon="1.05611">
        <ele>101</ele>
        <time>2019-12-30T13:42:18.000Z</time>
      </trkpt>
      <trkpt lat="49.34294" lon="1.05619">
        <ele>101</ele>
        <time>2019-12-30T13:42:19.000Z</time>
      </trkpt>
      <trkpt lat="49.34294" lon="1.05627">
        <ele>101</ele>
        <time>2019-12-30T13:42:20.000Z</time>
      </trkpt>
      <trkpt lat="49.34294" lon="1.05635">
        <ele>101</ele>
        <time>2019-12-30T13:42:21.000Z</time>
      </trkpt>
      <trkpt lat="49.34295" lon="1.05644">
        <ele>101</ele>
        <time>2019-12-30T13:42:22.000Z</time>
      </trkpt>
      <trkpt lat="49.34295" lon="1.05651">
        <ele>100</ele>
        <time>2019-12-30T13:42:23.000Z</time>
      </trkpt>
      <trkpt lat="49.34296" lon="1.05658">
        <ele>100</ele>
        <time>2019-12-30T13:42:24.000Z</time>
      </trkpt>
      <trkpt lat="49.34296" lon="1.05665">
        <ele>100</ele>
        <time>2019-12-30T13:42:25.000Z</time>
      </trkpt>
      <trkpt lat="49.34295" lon="1.05671">
        <ele>100</ele>
        <time>2019-12-30T13:42:26.000Z</time>
      </trkpt>
      <trkpt lat="49.34293" lon="1.05678">
        <ele>100</ele>
        <time>2019-12-30T13:42:27.000Z</time>
      </trkpt>
      <trkpt lat="49.3429" lon="1.05684">
        <ele>99</ele>
        <time>2019-12-30T13:42:28.000Z</time>
      </trkpt>
      <trkpt lat="49.34288" lon="1.05691">
        <ele>99</ele>
        <time>2019-12-30T13:42:29.000Z</time>
      </trkpt>
      <trkpt lat="49.34287" lon="1.05698">
        <ele>99</ele>
        <time>2019-12-30T13:42:30.000Z</time>
      </trkpt>
      <trkpt lat="49.34286" lon="1.05704">
        <ele>98</ele>
        <time>2019-12-30T13:42:31.000Z</time>
      </trkpt>
      <trkpt lat="49.34286" lon="1.05711">
        <ele>98</ele>
        <time>2019-12-30T13:42:32.000Z</time>
      </trkpt>
      <trkpt lat="49.34288" lon="1.05718">
        <ele>97</ele>
        <time>2019-12-30T13:42:33.000Z</time>
      </trkpt>
      <trkpt lat="49.34289" lon="1.05724">
        <ele>97</ele>
        <time>2019-12-30T13:42:34.000Z</time>
      </trkpt>
      <trkpt lat="49.3429" lon="1.0573">
        <ele>97</ele>
        <time>2019-12-30T13:42:35.000Z</time>
      </trkpt>
      <trkpt lat="49.34291" lon="1.05737">
        <ele>96</ele>
        <time>2019-12-30T13:42:36.000Z</time>
      </trkpt>
      <trkpt lat="49.3429" lon="1.05745">
        <ele>96</ele>
        <time>2019-12-30T13:42:37.000Z</time>
      </trkpt>
      <trkpt lat="49.3429" lon="1.05753">
        <ele>96</ele>
        <time>2019-12-30T13:42:38.000Z</time>
      </trkpt>
      <trkpt lat="49.34289" lon="1.05762">
        <ele>95</ele>
        <time>2019-12-30T13:42:39.000Z</time>
      </trkpt>
      <trkpt lat="49.34289" lon="1.05771">
        <ele>95</ele>
        <time>2019-12-30T13:42:40.000Z</time>
      </trkpt>
      <trkpt lat="49.34289" lon="1.05778">
        <ele>94</ele>
        <time>2019-12-30T13:42:41.000Z</time>
      </trkpt>
      <trkpt lat="49.34289" lon="1.05785">
        <ele>94</ele>
        <time>2019-12-30T13:42:42.000Z</time>
      </trkpt>
      <trkpt lat="49.34289" lon="1.05792">
        <ele>94</ele>
        <time>2019-12-30T13:42:43.000Z</time>
      </trkpt>
      <trkpt lat="49.3429" lon="1.05798">
        <ele>93</ele>
        <time>2019-12-30T13:42:44.000Z</time>
      </trkpt>
      <trkpt lat="49.34292" lon="1.05802">
        <ele>93</ele>
        <time>2019-12-30T13:42:45.000Z</time>
      </trkpt>
      <trkpt lat="49.34294" lon="1.05807">
        <ele>93</ele>
        <time>2019-12-30T13:42:46.000Z</time>
      </trkpt>
      <trkpt lat="49.34295" lon="1.05811">
        <ele>93</ele>
        <time>2019-12-30T13:42:47.000Z</time>
      </trkpt>
      <trkpt lat="49.34296" lon="1.05816">
        <ele>93</ele>
        <time>2019-12-30T13:42:48.000Z</time>
      </trkpt>
      <trkpt lat="49.34295" lon="1.05818">
        <ele>92</ele>
        <time>2019-12-30T13:42:49.000Z</time>
      </trkpt>
      <trkpt lat="49.34294" lon="1.05821">
        <ele>92</ele>
        <time>2019-12-30T13:42:50.000Z</time>
      </trkpt>
      <trkpt lat="49.34294" lon="1.05826">
        <ele>92</ele>
        <time>2019-12-30T13:42:51.000Z</time>
      </trkpt>
      <trkpt lat="49.34293" lon="1.0583">
        <ele>91</ele>
        <time>2019-12-30T13:42:52.000Z</time>
      </trkpt>
      <trkpt lat="49.34292" lon="1.05835">
        <ele>91</ele>
        <time>2019-12-30T13:42:53.000Z</time>
      </trkpt>
      <trkpt lat="49.34291" lon="1.0584">
        <ele>91</ele>
        <time>2019-12-30T13:42:54.000Z</time>
      </trkpt>
      <trkpt lat="49.34291" lon="1.05844">
        <ele>91</ele>
        <time>2019-12-30T13:42:55.000Z</time>
      </trkpt>
      <trkpt lat="49.3429" lon="1.05848">
        <ele>90</ele>
        <time>2019-12-30T13:42:56.000Z</time>
      </trkpt>
      <trkpt lat="49.3429" lon="1.05852">
        <ele>90</ele>
        <time>2019-12-30T13:42:57.000Z</time>
      </trkpt>
      <trkpt lat="49.34291" lon="1.05855">
        <ele>90</ele>
        <time>2019-12-30T13:42:58.000Z</time>
      </trkpt>
      <trkpt lat="49.34291" lon="1.05859">
        <ele>90</ele>
        <time>2019-12-30T13:42:59.000Z</time>
      </trkpt>
      <trkpt lat="49.34291" lon="1.05862">
        <ele>90</ele>
        <time>2019-12-30T13:43:00.000Z</time>
      </trkpt>
      <trkpt lat="49.3429" lon="1.05867">
        <ele>90</ele>
        <time>2019-12-30T13:43:01.000Z</time>
      </trkpt>
      <trkpt lat="49.34288" lon="1.05872">
        <ele>90</ele>
        <time>2019-12-30T13:43:02.000Z</time>
      </trkpt>
      <trkpt lat="49.34287" lon="1.05877">
        <ele>90</ele>
        <time>2019-12-30T13:43:03.000Z</time>
      </trkpt>
      <trkpt lat="49.34287" lon="1.05882">
        <ele>90</ele>
        <time>2019-12-30T13:43:04.000Z</time>
      </trkpt>
      <trkpt lat="49.34287" lon="1.05887">
        <ele>89</ele>
        <time>2019-12-30T13:43:05.000Z</time>
      </trkpt>
      <trkpt lat="49.34285" lon="1.05891">
        <ele>89</ele>
        <time>2019-12-30T13:43:06.000Z</time>
      </trkpt>
      <trkpt lat="49.34284" lon="1.05894">
        <ele>89</ele>
        <time>2019-12-30T13:43:07.000Z</time>
      </trkpt>
      <trkpt lat="49.34282" lon="1.05896">
        <ele>89</ele>
        <time>2019-12-30T13:43:08.000Z</time>
      </trkpt>
      <trkpt lat="49.3428" lon="1.059">
        <ele>89</ele>
        <time>2019-12-30T13:43:09.000Z</time>
      </trkpt>
      <trkpt lat="49.3428" lon="1.05905">
        <ele>89</ele>
        <time>2019-12-30T13:43:10.000Z</time>
      </trkpt>
      <trkpt lat="49.34279" lon="1.05911">
        <ele>89</ele>
        <time>2019-12-30T13:43:11.000Z</time>
      </trkpt>
      <trkpt lat="49.34279" lon="1.05916">
        <ele>88</ele>
        <time>2019-12-30T13:43:12.000Z</time>
      </trkpt>
      <trkpt lat="49.3428" lon="1.0592">
        <ele>88</ele>
        <time>2019-12-30T13:43:13.000Z</time>
      </trkpt>
      <trkpt lat="49.34281" lon="1.05925">
        <ele>88</ele>
        <time>2019-12-30T13:43:14.000Z</time>
      </trkpt>
      <trkpt lat="49.34281" lon="1.05931">
        <ele>88</ele>
        <time>2019-12-30T13:43:15.000Z</time>
      </trkpt>
      <trkpt lat="49.3428" lon="1.05936">
        <ele>87</ele>
        <time>2019-12-30T13:43:16.000Z</time>
      </trkpt>
      <trkpt lat="49.34279" lon="1.05942">
        <ele>87</ele>
        <time>2019-12-30T13:43:17.000Z</time>
      </trkpt>
      <trkpt lat="49.34279" lon="1.05948">
        <ele>87</ele>
        <time>2019-12-30T13:43:18.000Z</time>
      </trkpt>
      <trkpt lat="49.34278" lon="1.05953">
        <ele>87</ele>
        <time>2019-12-30T13:43:19.000Z</time>
      </trkpt>
      <trkpt lat="49.34278" lon="1.05959">
        <ele>87</ele>
        <time>2019-12-30T13:43:20.000Z</time>
      </trkpt>
      <trkpt lat="49.34278" lon="1.05965">
        <ele>86</ele>
        <time>2019-12-30T13:43:21.000Z</time>
      </trkpt>
      <trkpt lat="49.34278" lon="1.0597">
        <ele>86</ele>
        <time>2019-12-30T13:43:22.000Z</time>
      </trkpt>
      <trkpt lat="49.34278" lon="1.05975">
        <ele>86</ele>
        <time>2019-12-30T13:43:23.000Z</time>
      </trkpt>
      <trkpt lat="49.34278" lon="1.05982">
        <ele>86</ele>
        <time>2019-12-30T13:43:24.000Z</time>
      </trkpt>
      <trkpt lat="49.34278" lon="1.05989">
        <ele>86</ele>
        <time>2019-12-30T13:43:25.000Z</time>
      </trkpt>
      <trkpt lat="49.34276" lon="1.05995">
        <ele>86</ele>
        <time>2019-12-30T13:43:26.000Z</time>
      </trkpt>
      <trkpt lat="49.34275" lon="1.06002">
        <ele>86</ele>
        <time>2019-12-30T13:43:27.000Z</time>
      </trkpt>
      <trkpt lat="49.34272" lon="1.06009">
        <ele>86</ele>
        <time>2019-12-30T13:43:28.000Z</time>
      </trkpt>
      <trkpt lat="49.3427" lon="1.06015">
        <ele>85</ele>
        <time>2019-12-30T13:43:29.000Z</time>
      </trkpt>
      <trkpt lat="49.34269" lon="1.06022">
        <ele>85</ele>
        <time>2019-12-30T13:43:30.000Z</time>
      </trkpt>
      <trkpt lat="49.34268" lon="1.06026">
        <ele>85</ele>
        <time>2019-12-30T13:43:31.000Z</time>
      </trkpt>
      <trkpt lat="49.34268" lon="1.0603">
        <ele>85</ele>
        <time>2019-12-30T13:43:32.000Z</time>
      </trkpt>
      <trkpt lat="49.34269" lon="1.06034">
        <ele>85</ele>
        <time>2019-12-30T13:43:33.000Z</time>
      </trkpt>
      <trkpt lat="49.34269" lon="1.06038">
        <ele>85</ele>
        <time>2019-12-30T13:43:34.000Z</time>
      </trkpt>
      <trkpt lat="49.34269" lon="1.06043">
        <ele>85</ele>
        <time>2019-12-30T13:43:35.000Z</time>
      </trkpt>
      <trkpt lat="49.34268" lon="1.06048">
        <ele>85</ele>
        <time>2019-12-30T13:43:36.000Z</time>
      </trkpt>
      <trkpt lat="49.34267" lon="1.06053">
        <ele>85</ele>
        <time>2019-12-30T13:43:37.000Z</time>
      </trkpt>
      <trkpt lat="49.34267" lon="1.06058">
        <ele>85</ele>
        <time>2019-12-30T13:43:38.000Z</time>
      </trkpt>
      <trkpt lat="49.34267" lon="1.06061">
        <ele>85</ele>
        <time>2019-12-30T13:43:39.000Z</time>
      </trkpt>
      <trkpt lat="49.34267" lon="1.06065">
        <ele>84</ele>
        <time>2019-12-30T13:43:40.000Z</time>
      </trkpt>
      <trkpt lat="49.34266" lon="1.06069">
        <ele>84</ele>
        <time>2019-12-30T13:43:41.000Z</time>
      </trkpt>
      <trkpt lat="49.34266" lon="1.06074">
        <ele>84</ele>
        <time>2019-12-30T13:43:42.000Z</time>
      </trkpt>
      <trkpt lat="49.34265" lon="1.06077">
        <ele>84</ele>
        <time>2019-12-30T13:43:43.000Z</time>
      </trkpt>
      <trkpt lat="49.34264" lon="1.0608">
        <ele>84</ele>
        <time>2019-12-30T13:43:44.000Z</time>
      </trkpt>
      <trkpt lat="49.34264" lon="1.06082">
        <ele>84</ele>
        <time>2019-12-30T13:43:45.000Z</time>
      </trkpt>
      <trkpt lat="49.34264" lon="1.06084">
        <ele>84</ele>
        <time>2019-12-30T13:43:46.000Z</time>
      </trkpt>
      <trkpt lat="49.34264" lon="1.06088">
        <ele>84</ele>
        <time>2019-12-30T13:43:47.000Z</time>
      </trkpt>
      <trkpt lat="49.34263" lon="1.06091">
        <ele>83</ele>
        <time>2019-12-30T13:43:48.000Z</time>
      </trkpt>
      <trkpt lat="49.34262" lon="1.06095">
        <ele>83</ele>
        <time>2019-12-30T13:43:49.000Z</time>
      </trkpt>
      <trkpt lat="49.34261" lon="1.061">
        <ele>83</ele>
        <time>2019-12-30T13:43:50.000Z</time>
      </trkpt>
      <trkpt lat="49.34261" lon="1.06104">
        <ele>83</ele>
        <time>2019-12-30T13:43:51.000Z</time>
      </trkpt>
      <trkpt lat="49.3426" lon="1.06108">
        <ele>83</ele>
        <time>2019-12-30T13:43:52.000Z</time>
      </trkpt>
      <trkpt lat="49.34259" lon="1.06112">
        <ele>83</ele>
        <time>2019-12-30T13:43:53.000Z</time>
      </trkpt>
      <trkpt lat="49.34259" lon="1.06116">
        <ele>83</ele>
        <time>2019-12-30T13:43:54.000Z</time>
      </trkpt>
      <trkpt lat="49.34258" lon="1.0612">
        <ele>83</ele>
        <time>2019-12-30T13:43:55.000Z</time>
      </trkpt>
      <trkpt lat="49.34257" lon="1.06125">
        <ele>83</ele>
        <time>2019-12-30T13:43:56.000Z</time>
      </trkpt>
      <trkpt lat="49.34256" lon="1.0613">
        <ele>83</ele>
        <time>2019-12-30T13:43:57.000Z</time>
      </trkpt>
      <trkpt lat="49.34255" lon="1.06134">
        <ele>83</ele>
        <time>2019-12-30T13:43:58.000Z</time>
      </trkpt>
      <trkpt lat="49.34255" lon="1.06138">
        <ele>83</ele>
        <time>2019-12-30T13:43:59.000Z</time>
      </trkpt>
      <trkpt lat="49.34254" lon="1.06142">
        <ele>83</ele>
        <time>2019-12-30T13:44:00.000Z</time>
      </trkpt>
      <trkpt lat="49.34252" lon="1.06146">
        <ele>82</ele>
        <time>2019-12-30T13:44:01.000Z</time>
      </trkpt>
      <trkpt lat="49.3425" lon="1.06151">
        <ele>82</ele>
        <time>2019-12-30T13:44:02.000Z</time>
      </trkpt>
      <trkpt lat="49.34248" lon="1.06156">
        <ele>82</ele>
        <time>2019-12-30T13:44:03.000Z</time>
      </trkpt>
      <trkpt lat="49.34247" lon="1.06162">
        <ele>82</ele>
        <time>2019-12-30T13:44:04.000Z</time>
      </trkpt>
      <trkpt lat="49.34246" lon="1.06167">
        <ele>82</ele>
        <time>2019-12-30T13:44:05.000Z</time>
      </trkpt>
      <trkpt lat="49.34244" lon="1.06172">
        <ele>82</ele>
        <time>2019-12-30T13:44:06.000Z</time>
      </trkpt>
      <trkpt lat="49.34242" lon="1.06177">
        <ele>82</ele>
        <time>2019-12-30T13:44:07.000Z</time>
      </trkpt>
      <trkpt lat="49.34241" lon="1.06182">
        <ele>81</ele>
        <time>2019-12-30T13:44:08.000Z</time>
      </trkpt>
      <trkpt lat="49.3424" lon="1.06186">
        <ele>81</ele>
        <time>2019-12-30T13:44:09.000Z</time>
      </trkpt>
      <trkpt lat="49.34239" lon="1.0619">
        <ele>81</ele>
        <time>2019-12-30T13:44:10.000Z</time>
      </trkpt>
      <trkpt lat="49.34237" lon="1.06195">
        <ele>81</ele>
        <time>2019-12-30T13:44:11.000Z</time>
      </trkpt>
      <trkpt lat="49.34236" lon="1.062">
        <ele>81</ele>
        <time>2019-12-30T13:44:12.000Z</time>
      </trkpt>
      <trkpt lat="49.34235" lon="1.06204">
        <ele>81</ele>
        <time>2019-12-30T13:44:13.000Z</time>
      </trkpt>
      <trkpt lat="49.34234" lon="1.0621">
        <ele>81</ele>
        <time>2019-12-30T13:44:14.000Z</time>
      </trkpt>
      <trkpt lat="49.34234" lon="1.06215">
        <ele>81</ele>
        <time>2019-12-30T13:44:15.000Z</time>
      </trkpt>
      <trkpt lat="49.34233" lon="1.06221">
        <ele>81</ele>
        <time>2019-12-30T13:44:16.000Z</time>
      </trkpt>
      <trkpt lat="49.34231" lon="1.06226">
        <ele>81</ele>
        <time>2019-12-30T13:44:17.000Z</time>
      </trkpt>
      <trkpt lat="49.3423" lon="1.06231">
        <ele>81</ele>
        <time>2019-12-30T13:44:18.000Z</time>
      </trkpt>
      <trkpt lat="49.34229" lon="1.06234">
        <ele>80</ele>
        <time>2019-12-30T13:44:19.000Z</time>
      </trkpt>
      <trkpt lat="49.34229" lon="1.06236">
        <ele>80</ele>
        <time>2019-12-30T13:44:20.000Z</time>
      </trkpt>
      <trkpt lat="49.3423" lon="1.06239">
        <ele>80</ele>
        <time>2019-12-30T13:44:21.000Z</time>
      </trkpt>
      <trkpt lat="49.34229" lon="1.06242">
        <ele>80</ele>
        <time>2019-12-30T13:44:22.000Z</time>
      </trkpt>
      <trkpt lat="49.34229" lon="1.06245">
        <ele>80</ele>
        <time>2019-12-30T13:44:23.000Z</time>
      </trkpt>
      <trkpt lat="49.34227" lon="1.06248">
        <ele>80</ele>
        <time>2019-12-30T13:44:24.000Z</time>
      </trkpt>
      <trkpt lat="49.34225" lon="1.06252">
        <ele>80</ele>
        <time>2019-12-30T13:44:25.000Z</time>
      </trkpt>
      <trkpt lat="49.34224" lon="1.06257">
        <ele>80</ele>
        <time>2019-12-30T13:44:26.000Z</time>
      </trkpt>
      <trkpt lat="49.34222" lon="1.06262">
        <ele>79</ele>
        <time>2019-12-30T13:44:27.000Z</time>
      </trkpt>
      <trkpt lat="49.34221" lon="1.06267">
        <ele>79</ele>
        <time>2019-12-30T13:44:28.000Z</time>
      </trkpt>
      <trkpt lat="49.34219" lon="1.06272">
        <ele>79</ele>
        <time>2019-12-30T13:44:29.000Z</time>
      </trkpt>
      <trkpt lat="49.34217" lon="1.06275">
        <ele>79</ele>
        <time>2019-12-30T13:44:30.000Z</time>
      </trkpt>
      <trkpt lat="49.34215" lon="1.06279">
        <ele>79</ele>
        <time>2019-12-30T13:44:31.000Z</time>
      </trkpt>
      <trkpt lat="49.34213" lon="1.06283">
        <ele>79</ele>
        <time>2019-12-30T13:44:32.000Z</time>
      </trkpt>
      <trkpt lat="49.34211" lon="1.06288">
        <ele>79</ele>
        <time>2019-12-30T13:44:33.000Z</time>
      </trkpt>
      <trkpt lat="49.34208" lon="1.06293">
        <ele>79</ele>
        <time>2019-12-30T13:44:34.000Z</time>
      </trkpt>
      <trkpt lat="49.34205" lon="1.06296">
        <ele>79</ele>
        <time>2019-12-30T13:44:35.000Z</time>
      </trkpt>
      <trkpt lat="49.34202" lon="1.06299">
        <ele>78</ele>
        <time>2019-12-30T13:44:36.000Z</time>
      </trkpt>
      <trkpt lat="49.342" lon="1.06303">
        <ele>78</ele>
        <time>2019-12-30T13:44:37.000Z</time>
      </trkpt>
      <trkpt lat="49.34199" lon="1.06307">
        <ele>78</ele>
        <time>2019-12-30T13:44:38.000Z</time>
      </trkpt>
      <trkpt lat="49.34197" lon="1.06313">
        <ele>79</ele>
        <time>2019-12-30T13:44:39.000Z</time>
      </trkpt>
      <trkpt lat="49.34195" lon="1.06318">
        <ele>79</ele>
        <time>2019-12-30T13:44:40.000Z</time>
      </trkpt>
      <trkpt lat="49.34193" lon="1.06323">
        <ele>79</ele>
        <time>2019-12-30T13:44:41.000Z</time>
      </trkpt>
      <trkpt lat="49.34191" lon="1.06329">
        <ele>79</ele>
        <time>2019-12-30T13:44:42.000Z</time>
      </trkpt>
      <trkpt lat="49.3419" lon="1.06335">
        <ele>79</ele>
        <time>2019-12-30T13:44:43.000Z</time>
      </trkpt>
      <trkpt lat="49.3419" lon="1.06338">
        <ele>79</ele>
        <time>2019-12-30T13:44:44.000Z</time>
      </trkpt>
      <trkpt lat="49.3419" lon="1.0634">
        <ele>78</ele>
        <time>2019-12-30T13:44:45.000Z</time>
      </trkpt>
      <trkpt lat="49.34189" lon="1.06343">
        <ele>78</ele>
        <time>2019-12-30T13:44:46.000Z</time>
      </trkpt>
      <trkpt lat="49.34187" lon="1.06346">
        <ele>78</ele>
        <time>2019-12-30T13:44:47.000Z</time>
      </trkpt>
      <trkpt lat="49.34186" lon="1.06348">
        <ele>78</ele>
        <time>2019-12-30T13:44:48.000Z</time>
      </trkpt>
      <trkpt lat="49.34184" lon="1.06352">
        <ele>78</ele>
        <time>2019-12-30T13:44:49.000Z</time>
      </trkpt>
      <trkpt lat="49.34182" lon="1.06356">
        <ele>78</ele>
        <time>2019-12-30T13:44:50.000Z</time>
      </trkpt>
      <trkpt lat="49.34181" lon="1.0636">
        <ele>78</ele>
        <time>2019-12-30T13:44:51.000Z</time>
      </trkpt>
      <trkpt lat="49.3418" lon="1.06365">
        <ele>78</ele>
        <time>2019-12-30T13:44:52.000Z</time>
      </trkpt>
      <trkpt lat="49.34179" lon="1.0637">
        <ele>78</ele>
        <time>2019-12-30T13:44:53.000Z</time>
      </trkpt>
      <trkpt lat="49.34177" lon="1.06375">
        <ele>78</ele>
        <time>2019-12-30T13:44:54.000Z</time>
      </trkpt>
      <trkpt lat="49.34175" lon="1.06378">
        <ele>78</ele>
        <time>2019-12-30T13:44:55.000Z</time>
      </trkpt>
      <trkpt lat="49.34174" lon="1.06382">
        <ele>78</ele>
        <time>2019-12-30T13:44:56.000Z</time>
      </trkpt>
      <trkpt lat="49.34172" lon="1.06387">
        <ele>78</ele>
        <time>2019-12-30T13:44:57.000Z</time>
      </trkpt>
      <trkpt lat="49.3417" lon="1.06392">
        <ele>78</ele>
        <time>2019-12-30T13:44:58.000Z</time>
      </trkpt>
      <trkpt lat="49.34167" lon="1.06396">
        <ele>78</ele>
        <time>2019-12-30T13:44:59.000Z</time>
      </trkpt>
      <trkpt lat="49.34165" lon="1.06399">
        <ele>78</ele>
        <time>2019-12-30T13:45:00.000Z</time>
      </trkpt>
      <trkpt lat="49.34163" lon="1.06403">
        <ele>77</ele>
        <time>2019-12-30T13:45:01.000Z</time>
      </trkpt>
      <trkpt lat="49.34161" lon="1.06409">
        <ele>77</ele>
        <time>2019-12-30T13:45:02.000Z</time>
      </trkpt>
      <trkpt lat="49.34159" lon="1.06414">
        <ele>77</ele>
        <time>2019-12-30T13:45:03.000Z</time>
      </trkpt>
      <trkpt lat="49.34158" lon="1.06419">
        <ele>77</ele>
        <time>2019-12-30T13:45:04.000Z</time>
      </trkpt>
      <trkpt lat="49.34157" lon="1.06424">
        <ele>77</ele>
        <time>2019-12-30T13:45:05.000Z</time>
      </trkpt>
      <trkpt lat="49.34155" lon="1.06429">
        <ele>77</ele>
        <time>2019-12-30T13:45:06.000Z</time>
      </trkpt>
      <trkpt lat="49.34154" lon="1.06434">
        <ele>77</ele>
        <time>2019-12-30T13:45:07.000Z</time>
      </trkpt>
      <trkpt lat="49.34151" lon="1.06439">
        <ele>77</ele>
        <time>2019-12-30T13:45:08.000Z</time>
      </trkpt>
      <trkpt lat="49.34148" lon="1.06442">
        <ele>77</ele>
        <time>2019-12-30T13:45:09.000Z</time>
      </trkpt>
      <trkpt lat="49.34144" lon="1.06445">
        <ele>77</ele>
        <time>2019-12-30T13:45:10.000Z</time>
      </trkpt>
      <trkpt lat="49.34141" lon="1.06448">
        <ele>77</ele>
        <time>2019-12-30T13:45:11.000Z</time>
      </trkpt>
      <trkpt lat="49.3414" lon="1.06453">
        <ele>76</ele>
        <time>2019-12-30T13:45:12.000Z</time>
      </trkpt>
      <trkpt lat="49.34138" lon="1.06458">
        <ele>76</ele>
        <time>2019-12-30T13:45:13.000Z</time>
      </trkpt>
      <trkpt lat="49.34136" lon="1.06463">
        <ele>76</ele>
        <time>2019-12-30T13:45:14.000Z</time>
      </trkpt>
      <trkpt lat="49.34134" lon="1.06468">
        <ele>76</ele>
        <time>2019-12-30T13:45:15.000Z</time>
      </trkpt>
      <trkpt lat="49.34132" lon="1.06473">
        <ele>76</ele>
        <time>2019-12-30T13:45:16.000Z</time>
      </trkpt>
      <trkpt lat="49.3413" lon="1.06478">
        <ele>76</ele>
        <time>2019-12-30T13:45:17.000Z</time>
      </trkpt>
      <trkpt lat="49.34128" lon="1.06482">
        <ele>76</ele>
        <time>2019-12-30T13:45:18.000Z</time>
      </trkpt>
      <trkpt lat="49.34127" lon="1.06487">
        <ele>75</ele>
        <time>2019-12-30T13:45:19.000Z</time>
      </trkpt>
      <trkpt lat="49.34126" lon="1.06493">
        <ele>75</ele>
        <time>2019-12-30T13:45:20.000Z</time>
      </trkpt>
      <trkpt lat="49.34124" lon="1.06497">
        <ele>75</ele>
        <time>2019-12-30T13:45:21.000Z</time>
      </trkpt>
      <trkpt lat="49.34121" lon="1.06501">
        <ele>75</ele>
        <time>2019-12-30T13:45:22.000Z</time>
      </trkpt>
      <trkpt lat="49.34118" lon="1.06506">
        <ele>75</ele>
        <time>2019-12-30T13:45:23.000Z</time>
      </trkpt>
      <trkpt lat="49.34117" lon="1.06511">
        <ele>75</ele>
        <time>2019-12-30T13:45:24.000Z</time>
      </trkpt>
      <trkpt lat="49.34115" lon="1.06514">
        <ele>75</ele>
        <time>2019-12-30T13:45:25.000Z</time>
      </trkpt>
      <trkpt lat="49.34114" lon="1.06518">
        <ele>75</ele>
        <time>2019-12-30T13:45:26.000Z</time>
      </trkpt>
      <trkpt lat="49.34113" lon="1.06522">
        <ele>75</ele>
        <time>2019-12-30T13:45:27.000Z</time>
      </trkpt>
      <trkpt lat="49.34113" lon="1.06526">
        <ele>75</ele>
        <time>2019-12-30T13:45:28.000Z</time>
      </trkpt>
      <trkpt lat="49.34112" lon="1.0653">
        <ele>75</ele>
        <time>2019-12-30T13:45:29.000Z</time>
      </trkpt>
      <trkpt lat="49.34111" lon="1.06534">
        <ele>75</ele>
        <time>2019-12-30T13:45:30.000Z</time>
      </trkpt>
      <trkpt lat="49.34109" lon="1.06538">
        <ele>75</ele>
        <time>2019-12-30T13:45:31.000Z</time>
      </trkpt>
      <trkpt lat="49.34107" lon="1.06543">
        <ele>75</ele>
        <time>2019-12-30T13:45:32.000Z</time>
      </trkpt>
      <trkpt lat="49.34105" lon="1.06547">
        <ele>75</ele>
        <time>2019-12-30T13:45:33.000Z</time>
      </trkpt>
      <trkpt lat="49.34104" lon="1.0655">
        <ele>75</ele>
        <time>2019-12-30T13:45:34.000Z</time>
      </trkpt>
      <trkpt lat="49.34102" lon="1.06554">
        <ele>75</ele>
        <time>2019-12-30T13:45:35.000Z</time>
      </trkpt>
      <trkpt lat="49.34101" lon="1.06558">
        <ele>75</ele>
        <time>2019-12-30T13:45:36.000Z</time>
      </trkpt>
      <trkpt lat="49.34099" lon="1.06562">
        <ele>75</ele>
        <time>2019-12-30T13:45:37.000Z</time>
      </trkpt>
      <trkpt lat="49.34097" lon="1.06565">
        <ele>75</ele>
        <time>2019-12-30T13:45:38.000Z</time>
      </trkpt>
      <trkpt lat="49.34095" lon="1.06568">
        <ele>75</ele>
        <time>2019-12-30T13:45:39.000Z</time>
      </trkpt>
      <trkpt lat="49.34093" lon="1.06572">
        <ele>75</ele>
        <time>2019-12-30T13:45:40.000Z</time>
      </trkpt>
      <trkpt lat="49.3409" lon="1.06575">
        <ele>75</ele>
        <time>2019-12-30T13:45:41.000Z</time>
      </trkpt>
      <trkpt lat="49.34087" lon="1.06579">
        <ele>75</ele>
        <time>2019-12-30T13:45:42.000Z</time>
      </trkpt>
      <trkpt lat="49.34083" lon="1.06583">
        <ele>75</ele>
        <time>2019-12-30T13:45:43.000Z</time>
      </trkpt>
      <trkpt lat="49.34079" lon="1.06587">
        <ele>75</ele>
        <time>2019-12-30T13:45:44.000Z</time>
      </trkpt>
      <trkpt lat="49.34076" lon="1.06591">
        <ele>75</ele>
        <time>2019-12-30T13:45:45.000Z</time>
      </trkpt>
      <trkpt lat="49.34074" lon="1.06597">
        <ele>75</ele>
        <time>2019-12-30T13:45:46.000Z</time>
      </trkpt>
      <trkpt lat="49.34073" lon="1.06602">
        <ele>75</ele>
        <time>2019-12-30T13:45:47.000Z</time>
      </trkpt>
      <trkpt lat="49.34072" lon="1.06605">
        <ele>75</ele>
        <time>2019-12-30T13:45:48.000Z</time>
      </trkpt>
      <trkpt lat="49.34069" lon="1.06608">
        <ele>75</ele>
        <time>2019-12-30T13:45:49.000Z</time>
      </trkpt>
      <trkpt lat="49.34067" lon="1.06612">
        <ele>75</ele>
        <time>2019-12-30T13:45:50.000Z</time>
      </trkpt>
      <trkpt lat="49.34063" lon="1.06616">
        <ele>76</ele>
        <time>2019-12-30T13:45:51.000Z</time>
      </trkpt>
      <trkpt lat="49.3406" lon="1.0662">
        <ele>76</ele>
        <time>2019-12-30T13:45:52.000Z</time>
      </trkpt>
      <trkpt lat="49.34057" lon="1.06625">
        <ele>76</ele>
        <time>2019-12-30T13:45:53.000Z</time>
      </trkpt>
      <trkpt lat="49.34054" lon="1.0663">
        <ele>76</ele>
        <time>2019-12-30T13:45:54.000Z</time>
      </trkpt>
      <trkpt lat="49.34051" lon="1.06633">
        <ele>76</ele>
        <time>2019-12-30T13:45:55.000Z</time>
      </trkpt>
      <trkpt lat="49.34048" lon="1.06637">
        <ele>76</ele>
        <time>2019-12-30T13:45:56.000Z</time>
      </trkpt>
      <trkpt lat="49.34047" lon="1.06642">
        <ele>76</ele>
        <time>2019-12-30T13:45:57.000Z</time>
      </trkpt>
      <trkpt lat="49.34045" lon="1.06646">
        <ele>76</ele>
        <time>2019-12-30T13:45:58.000Z</time>
      </trkpt>
      <trkpt lat="49.34044" lon="1.0665">
        <ele>76</ele>
        <time>2019-12-30T13:45:59.000Z</time>
      </trkpt>
      <trkpt lat="49.34041" lon="1.06653">
        <ele>76</ele>
        <time>2019-12-30T13:46:00.000Z</time>
      </trkpt>
      <trkpt lat="49.34038" lon="1.06657">
        <ele>76</ele>
        <time>2019-12-30T13:46:01.000Z</time>
      </trkpt>
      <trkpt lat="49.34036" lon="1.06661">
        <ele>77</ele>
        <time>2019-12-30T13:46:02.000Z</time>
      </trkpt>
      <trkpt lat="49.34035" lon="1.06664">
        <ele>77</ele>
        <time>2019-12-30T13:46:03.000Z</time>
      </trkpt>
      <trkpt lat="49.34034" lon="1.06667">
        <ele>77</ele>
        <time>2019-12-30T13:46:04.000Z</time>
      </trkpt>
      <trkpt lat="49.34034" lon="1.0667">
        <ele>77</ele>
        <time>2019-12-30T13:46:05.000Z</time>
      </trkpt>
      <trkpt lat="49.34033" lon="1.06672">
        <ele>77</ele>
        <time>2019-12-30T13:46:06.000Z</time>
      </trkpt>
      <trkpt lat="49.34032" lon="1.06675">
        <ele>77</ele>
        <time>2019-12-30T13:46:07.000Z</time>
      </trkpt>
      <trkpt lat="49.34031" lon="1.06679">
        <ele>77</ele>
        <time>2019-12-30T13:46:08.000Z</time>
      </trkpt>
      <trkpt lat="49.34029" lon="1.06682">
        <ele>77</ele>
        <time>2019-12-30T13:46:09.000Z</time>
      </trkpt>
      <trkpt lat="49.34027" lon="1.06685">
        <ele>78</ele>
        <time>2019-12-30T13:46:10.000Z</time>
      </trkpt>
      <trkpt lat="49.34026" lon="1.06688">
        <ele>78</ele>
        <time>2019-12-30T13:46:11.000Z</time>
      </trkpt>
      <trkpt lat="49.34024" lon="1.06691">
        <ele>78</ele>
        <time>2019-12-30T13:46:12.000Z</time>
      </trkpt>
      <trkpt lat="49.34023" lon="1.06694">
        <ele>78</ele>
        <time>2019-12-30T13:46:13.000Z</time>
      </trkpt>
      <trkpt lat="49.34021" lon="1.06698">
        <ele>78</ele>
        <time>2019-12-30T13:46:14.000Z</time>
      </trkpt>
      <trkpt lat="49.34019" lon="1.067">
        <ele>78</ele>
        <time>2019-12-30T13:46:15.000Z</time>
      </trkpt>
      <trkpt lat="49.34017" lon="1.06703">
        <ele>78</ele>
        <time>2019-12-30T13:46:16.000Z</time>
      </trkpt>
      <trkpt lat="49.34015" lon="1.06705">
        <ele>78</ele>
        <time>2019-12-30T13:46:17.000Z</time>
      </trkpt>
      <trkpt lat="49.34013" lon="1.06708">
        <ele>78</ele>
        <time>2019-12-30T13:46:18.000Z</time>
      </trkpt>
      <trkpt lat="49.34011" lon="1.06711">
        <ele>78</ele>
        <time>2019-12-30T13:46:19.000Z</time>
      </trkpt>
      <trkpt lat="49.34009" lon="1.06714">
        <ele>78</ele>
        <time>2019-12-30T13:46:20.000Z</time>
      </trkpt>
      <trkpt lat="49.34008" lon="1.06717">
        <ele>78</ele>
        <time>2019-12-30T13:46:21.000Z</time>
      </trkpt>
      <trkpt lat="49.34006" lon="1.06719">
        <ele>78</ele>
        <time>2019-12-30T13:46:22.000Z</time>
      </trkpt>
      <trkpt lat="49.34005" lon="1.06722">
        <ele>79</ele>
        <time>2019-12-30T13:46:23.000Z</time>
      </trkpt>
      <trkpt lat="49.34004" lon="1.06725">
        <ele>79</ele>
        <time>2019-12-30T13:46:24.000Z</time>
      </trkpt>
      <trkpt lat="49.34003" lon="1.06727">
        <ele>79</ele>
        <time>2019-12-30T13:46:25.000Z</time>
      </trkpt>
      <trkpt lat="49.34001" lon="1.06729">
        <ele>79</ele>
        <time>2019-12-30T13:46:26.000Z</time>
      </trkpt>
      <trkpt lat="49.34" lon="1.06731">
        <ele>79</ele>
        <time>2019-12-30T13:46:27.000Z</time>
      </trkpt>
      <trkpt lat="49.33998" lon="1.06734">
        <ele>79</ele>
        <time>2019-12-30T13:46:28.000Z</time>
      </trkpt>
      <trkpt lat="49.33997" lon="1.06737">
        <ele>79</ele>
        <time>2019-12-30T13:46:29.000Z</time>
      </trkpt>
      <trkpt lat="49.33996" lon="1.0674">
        <ele>79</ele>
        <time>2019-12-30T13:46:30.000Z</time>
      </trkpt>
      <trkpt lat="49.33994" lon="1.06744">
        <ele>79</ele>
        <time>2019-12-30T13:46:31.000Z</time>
      </trkpt>
      <trkpt lat="49.33992" lon="1.06747">
        <ele>79</ele>
        <time>2019-12-30T13:46:32.000Z</time>
      </trkpt>
      <trkpt lat="49.33991" lon="1.06751">
        <ele>79</ele>
        <time>2019-12-30T13:46:33.000Z</time>
      </trkpt>
      <trkpt lat="49.33989" lon="1.06754">
        <ele>80</ele>
        <time>2019-12-30T13:46:34.000Z</time>
      </trkpt>
      <trkpt lat="49.33986" lon="1.06757">
        <ele>80</ele>
        <time>2019-12-30T13:46:35.000Z</time>
      </trkpt>
      <trkpt lat="49.33983" lon="1.06759">
        <ele>80</ele>
        <time>2019-12-30T13:46:36.000Z</time>
      </trkpt>
      <trkpt lat="49.33981" lon="1.06762">
        <ele>80</ele>
        <time>2019-12-30T13:46:37.000Z</time>
      </trkpt>
      <trkpt lat="49.33978" lon="1.06765">
        <ele>80</ele>
        <time>2019-12-30T13:46:38.000Z</time>
      </trkpt>
      <trkpt lat="49.33976" lon="1.06768">
        <ele>80</ele>
        <time>2019-12-30T13:46:39.000Z</time>
      </trkpt>
      <trkpt lat="49.33975" lon="1.06771">
        <ele>80</ele>
        <time>2019-12-30T13:46:40.000Z</time>
      </trkpt>
      <trkpt lat="49.33973" lon="1.06775">
        <ele>80</ele>
        <time>2019-12-30T13:46:41.000Z</time>
      </trkpt>
      <trkpt lat="49.33971" lon="1.06779">
        <ele>80</ele>
        <time>2019-12-30T13:46:42.000Z</time>
      </trkpt>
      <trkpt lat="49.33969" lon="1.06782">
        <ele>80</ele>
        <time>2019-12-30T13:46:43.000Z</time>
      </trkpt>
      <trkpt lat="49.33966" lon="1.06784">
        <ele>80</ele>
        <time>2019-12-30T13:46:44.000Z</time>
      </trkpt>
      <trkpt lat="49.33964" lon="1.06786">
        <ele>80</ele>
        <time>2019-12-30T13:46:45.000Z</time>
      </trkpt>
      <trkpt lat="49.33962" lon="1.06789">
        <ele>80</ele>
        <time>2019-12-30T13:46:46.000Z</time>
      </trkpt>
      <trkpt lat="49.3396" lon="1.06791">
        <ele>80</ele>
        <time>2019-12-30T13:46:47.000Z</time>
      </trkpt>
      <trkpt lat="49.33958" lon="1.06794">
        <ele>80</ele>
        <time>2019-12-30T13:46:48.000Z</time>
      </trkpt>
      <trkpt lat="49.33956" lon="1.06797">
        <ele>80</ele>
        <time>2019-12-30T13:46:49.000Z</time>
      </trkpt>
      <trkpt lat="49.33954" lon="1.06801">
        <ele>80</ele>
        <time>2019-12-30T13:46:50.000Z</time>
      </trkpt>
      <trkpt lat="49.33952" lon="1.06804">
        <ele>80</ele>
        <time>2019-12-30T13:46:51.000Z</time>
      </trkpt>
      <trkpt lat="49.3395" lon="1.06808">
        <ele>80</ele>
        <time>2019-12-30T13:46:52.000Z</time>
      </trkpt>
      <trkpt lat="49.33948" lon="1.06813">
        <ele>80</ele>
        <time>2019-12-30T13:46:53.000Z</time>
      </trkpt>
      <trkpt lat="49.33945" lon="1.06815">
        <ele>80</ele>
        <time>2019-12-30T13:46:54.000Z</time>
      </trkpt>
      <trkpt lat="49.33943" lon="1.06816">
        <ele>80</ele>
        <time>2019-12-30T13:46:55.000Z</time>
      </trkpt>
      <trkpt lat="49.3394" lon="1.0682">
        <ele>80</ele>
        <time>2019-12-30T13:46:56.000Z</time>
      </trkpt>
      <trkpt lat="49.33937" lon="1.06823">
        <ele>80</ele>
        <time>2019-12-30T13:46:57.000Z</time>
      </trkpt>
      <trkpt lat="49.33933" lon="1.06825">
        <ele>80</ele>
        <time>2019-12-30T13:46:58.000Z</time>
      </trkpt>
      <trkpt lat="49.3393" lon="1.0683">
        <ele>80</ele>
        <time>2019-12-30T13:46:59.000Z</time>
      </trkpt>
      <trkpt lat="49.33928" lon="1.06836">
        <ele>80</ele>
        <time>2019-12-30T13:47:00.000Z</time>
      </trkpt>
      <trkpt lat="49.33924" lon="1.06841">
        <ele>80</ele>
        <time>2019-12-30T13:47:01.000Z</time>
      </trkpt>
      <trkpt lat="49.3392" lon="1.06846">
        <ele>80</ele>
        <time>2019-12-30T13:47:02.000Z</time>
      </trkpt>
      <trkpt lat="49.33916" lon="1.06851">
        <ele>80</ele>
        <time>2019-12-30T13:47:03.000Z</time>
      </trkpt>
      <trkpt lat="49.33913" lon="1.06855">
        <ele>80</ele>
        <time>2019-12-30T13:47:04.000Z</time>
      </trkpt>
      <trkpt lat="49.33911" lon="1.0686">
        <ele>79</ele>
        <time>2019-12-30T13:47:05.000Z</time>
      </trkpt>
      <trkpt lat="49.33909" lon="1.06863">
        <ele>79</ele>
        <time>2019-12-30T13:47:06.000Z</time>
      </trkpt>
      <trkpt lat="49.33907" lon="1.06866">
        <ele>79</ele>
        <time>2019-12-30T13:47:07.000Z</time>
      </trkpt>
      <trkpt lat="49.33905" lon="1.06868">
        <ele>79</ele>
        <time>2019-12-30T13:47:08.000Z</time>
      </trkpt>
      <trkpt lat="49.33904" lon="1.06869">
        <ele>79</ele>
        <time>2019-12-30T13:47:09.000Z</time>
      </trkpt>
      <trkpt lat="49.33904" lon="1.0687">
        <ele>79</ele>
        <time>2019-12-30T13:47:10.000Z</time>
      </trkpt>
      <trkpt lat="49.33903" lon="1.06872">
        <ele>78</ele>
        <time>2019-12-30T13:47:11.000Z</time>
      </trkpt>
      <trkpt lat="49.33903" lon="1.06876">
        <ele>78</ele>
        <time>2019-12-30T13:47:12.000Z</time>
      </trkpt>
      <trkpt lat="49.33902" lon="1.0688">
        <ele>78</ele>
        <time>2019-12-30T13:47:13.000Z</time>
      </trkpt>
      <trkpt lat="49.33902" lon="1.06882">
        <ele>78</ele>
        <time>2019-12-30T13:47:14.000Z</time>
      </trkpt>
      <trkpt lat="49.33902" lon="1.06882">
        <ele>78</ele>
        <time>2019-12-30T13:47:15.000Z</time>
      </trkpt>
      <trkpt lat="49.33902" lon="1.06883">
        <ele>77</ele>
        <time>2019-12-30T13:47:16.000Z</time>
      </trkpt>
      <trkpt lat="49.33897" lon="1.06893">
        <ele>75</ele>
        <time>2019-12-30T13:47:17.000Z</time>
      </trkpt>
      <trkpt lat="49.33896" lon="1.06897">
        <ele>75</ele>
        <time>2019-12-30T13:47:18.000Z</time>
      </trkpt>
      <trkpt lat="49.33894" lon="1.069">
        <ele>75</ele>
        <time>2019-12-30T13:47:19.000Z</time>
      </trkpt>
      <trkpt lat="49.33893" lon="1.06904">
        <ele>74</ele>
        <time>2019-12-30T13:47:20.000Z</time>
      </trkpt>
      <trkpt lat="49.33891" lon="1.0691">
        <ele>74</ele>
        <time>2019-12-30T13:47:21.000Z</time>
      </trkpt>
      <trkpt lat="49.33889" lon="1.06916">
        <ele>74</ele>
        <time>2019-12-30T13:47:22.000Z</time>
      </trkpt>
      <trkpt lat="49.33887" lon="1.06922">
        <ele>74</ele>
        <time>2019-12-30T13:47:23.000Z</time>
      </trkpt>
      <trkpt lat="49.33884" lon="1.06926">
        <ele>74</ele>
        <time>2019-12-30T13:47:24.000Z</time>
      </trkpt>
      <trkpt lat="49.33881" lon="1.06932">
        <ele>73</ele>
        <time>2019-12-30T13:47:25.000Z</time>
      </trkpt>
      <trkpt lat="49.33878" lon="1.06937">
        <ele>73</ele>
        <time>2019-12-30T13:47:26.000Z</time>
      </trkpt>
      <trkpt lat="49.33875" lon="1.06941">
        <ele>73</ele>
        <time>2019-12-30T13:47:27.000Z</time>
      </trkpt>
      <trkpt lat="49.33873" lon="1.06944">
        <ele>73</ele>
        <time>2019-12-30T13:47:28.000Z</time>
      </trkpt>
      <trkpt lat="49.3387" lon="1.06947">
        <ele>72</ele>
        <time>2019-12-30T13:47:29.000Z</time>
      </trkpt>
      <trkpt lat="49.33867" lon="1.06949">
        <ele>72</ele>
        <time>2019-12-30T13:47:30.000Z</time>
      </trkpt>
      <trkpt lat="49.33864" lon="1.06948">
        <ele>72</ele>
        <time>2019-12-30T13:47:31.000Z</time>
      </trkpt>
      <trkpt lat="49.33861" lon="1.06946">
        <ele>71</ele>
        <time>2019-12-30T13:47:32.000Z</time>
      </trkpt>
      <trkpt lat="49.3386" lon="1.06943">
        <ele>71</ele>
        <time>2019-12-30T13:47:33.000Z</time>
      </trkpt>
      <trkpt lat="49.33858" lon="1.0694">
        <ele>71</ele>
        <time>2019-12-30T13:47:34.000Z</time>
      </trkpt>
      <trkpt lat="49.33856" lon="1.06937">
        <ele>70</ele>
        <time>2019-12-30T13:47:35.000Z</time>
      </trkpt>
      <trkpt lat="49.33852" lon="1.06935">
        <ele>70</ele>
        <time>2019-12-30T13:47:36.000Z</time>
      </trkpt>
      <trkpt lat="49.33847" lon="1.06933">
        <ele>69</ele>
        <time>2019-12-30T13:47:37.000Z</time>
      </trkpt>
      <trkpt lat="49.33843" lon="1.06932">
        <ele>69</ele>
        <time>2019-12-30T13:47:38.000Z</time>
      </trkpt>
      <trkpt lat="49.3384" lon="1.0693">
        <ele>69</ele>
        <time>2019-12-30T13:47:39.000Z</time>
      </trkpt>
      <trkpt lat="49.33837" lon="1.06928">
        <ele>68</ele>
        <time>2019-12-30T13:47:40.000Z</time>
      </trkpt>
      <trkpt lat="49.33835" lon="1.06927">
        <ele>68</ele>
        <time>2019-12-30T13:47:41.000Z</time>
      </trkpt>
      <trkpt lat="49.33834" lon="1.06923">
        <ele>67</ele>
        <time>2019-12-30T13:47:42.000Z</time>
      </trkpt>
      <trkpt lat="49.33833" lon="1.06918">
        <ele>67</ele>
        <time>2019-12-30T13:47:43.000Z</time>
      </trkpt>
      <trkpt lat="49.33833" lon="1.06913">
        <ele>67</ele>
        <time>2019-12-30T13:47:44.000Z</time>
      </trkpt>
      <trkpt lat="49.33833" lon="1.06907">
        <ele>66</ele>
        <time>2019-12-30T13:47:45.000Z</time>
      </trkpt>
      <trkpt lat="49.33833" lon="1.069">
        <ele>66</ele>
        <time>2019-12-30T13:47:46.000Z</time>
      </trkpt>
      <trkpt lat="49.33832" lon="1.06891">
        <ele>66</ele>
        <time>2019-12-30T13:47:47.000Z</time>
      </trkpt>
      <trkpt lat="49.33833" lon="1.06882">
        <ele>65</ele>
        <time>2019-12-30T13:47:48.000Z</time>
      </trkpt>
      <trkpt lat="49.33835" lon="1.06873">
        <ele>65</ele>
        <time>2019-12-30T13:47:49.000Z</time>
      </trkpt>
      <trkpt lat="49.33837" lon="1.06865">
        <ele>65</ele>
        <time>2019-12-30T13:47:50.000Z</time>
      </trkpt>
      <trkpt lat="49.33838" lon="1.06857">
        <ele>65</ele>
        <time>2019-12-30T13:47:51.000Z</time>
      </trkpt>
      <trkpt lat="49.3384" lon="1.0685">
        <ele>65</ele>
        <time>2019-12-30T13:47:52.000Z</time>
      </trkpt>
      <trkpt lat="49.33842" lon="1.06843">
        <ele>64</ele>
        <time>2019-12-30T13:47:53.000Z</time>
      </trkpt>
      <trkpt lat="49.33844" lon="1.06836">
        <ele>64</ele>
        <time>2019-12-30T13:47:54.000Z</time>
      </trkpt>
      <trkpt lat="49.33846" lon="1.06829">
        <ele>64</ele>
        <time>2019-12-30T13:47:55.000Z</time>
      </trkpt>
      <trkpt lat="49.33848" lon="1.06821">
        <ele>64</ele>
        <time>2019-12-30T13:47:56.000Z</time>
      </trkpt>
      <trkpt lat="49.3385" lon="1.06813">
        <ele>64</ele>
        <time>2019-12-30T13:47:57.000Z</time>
      </trkpt>
      <trkpt lat="49.33852" lon="1.06805">
        <ele>64</ele>
        <time>2019-12-30T13:47:58.000Z</time>
      </trkpt>
      <trkpt lat="49.33854" lon="1.06797">
        <ele>63</ele>
        <time>2019-12-30T13:47:59.000Z</time>
      </trkpt>
      <trkpt lat="49.33857" lon="1.0679">
        <ele>63</ele>
        <time>2019-12-30T13:48:00.000Z</time>
      </trkpt>
      <trkpt lat="49.33861" lon="1.06784">
        <ele>63</ele>
        <time>2019-12-30T13:48:01.000Z</time>
      </trkpt>
      <trkpt lat="49.33864" lon="1.06779">
        <ele>63</ele>
        <time>2019-12-30T13:48:02.000Z</time>
      </trkpt>
      <trkpt lat="49.33868" lon="1.06774">
        <ele>62</ele>
        <time>2019-12-30T13:48:03.000Z</time>
      </trkpt>
      <trkpt lat="49.33871" lon="1.06769">
        <ele>62</ele>
        <time>2019-12-30T13:48:04.000Z</time>
      </trkpt>
      <trkpt lat="49.33875" lon="1.06764">
        <ele>62</ele>
        <time>2019-12-30T13:48:05.000Z</time>
      </trkpt>
      <trkpt lat="49.33878" lon="1.0676">
        <ele>61</ele>
        <time>2019-12-30T13:48:06.000Z</time>
      </trkpt>
      <trkpt lat="49.33882" lon="1.06756">
        <ele>61</ele>
        <time>2019-12-30T13:48:07.000Z</time>
      </trkpt>
      <trkpt lat="49.33885" lon="1.06751">
        <ele>61</ele>
        <time>2019-12-30T13:48:08.000Z</time>
      </trkpt>
      <trkpt lat="49.33889" lon="1.06746">
        <ele>61</ele>
        <time>2019-12-30T13:48:09.000Z</time>
      </trkpt>
      <trkpt lat="49.33892" lon="1.06741">
        <ele>60</ele>
        <time>2019-12-30T13:48:10.000Z</time>
      </trkpt>
      <trkpt lat="49.33896" lon="1.06736">
        <ele>60</ele>
        <time>2019-12-30T13:48:11.000Z</time>
      </trkpt>
      <trkpt lat="49.339" lon="1.06731">
        <ele>60</ele>
        <time>2019-12-30T13:48:12.000Z</time>
      </trkpt>
      <trkpt lat="49.33905" lon="1.06726">
        <ele>60</ele>
        <time>2019-12-30T13:48:13.000Z</time>
      </trkpt>
      <trkpt lat="49.33909" lon="1.06721">
        <ele>60</ele>
        <time>2019-12-30T13:48:14.000Z</time>
      </trkpt>
      <trkpt lat="49.33913" lon="1.06715">
        <ele>60</ele>
        <time>2019-12-30T13:48:15.000Z</time>
      </trkpt>
      <trkpt lat="49.33917" lon="1.0671">
        <ele>60</ele>
        <time>2019-12-30T13:48:16.000Z</time>
      </trkpt>
      <trkpt lat="49.33922" lon="1.06705">
        <ele>59</ele>
        <time>2019-12-30T13:48:17.000Z</time>
      </trkpt>
      <trkpt lat="49.33926" lon="1.067">
        <ele>59</ele>
        <time>2019-12-30T13:48:18.000Z</time>
      </trkpt>
      <trkpt lat="49.3393" lon="1.06696">
        <ele>59</ele>
        <time>2019-12-30T13:48:19.000Z</time>
      </trkpt>
      <trkpt lat="49.33933" lon="1.06692">
        <ele>59</ele>
        <time>2019-12-30T13:48:20.000Z</time>
      </trkpt>
      <trkpt lat="49.33937" lon="1.06689">
        <ele>59</ele>
        <time>2019-12-30T13:48:21.000Z</time>
      </trkpt>
      <trkpt lat="49.33941" lon="1.06685">
        <ele>59</ele>
        <time>2019-12-30T13:48:22.000Z</time>
      </trkpt>
      <trkpt lat="49.33946" lon="1.06681">
        <ele>58</ele>
        <time>2019-12-30T13:48:23.000Z</time>
      </trkpt>
      <trkpt lat="49.3395" lon="1.06677">
        <ele>58</ele>
        <time>2019-12-30T13:48:24.000Z</time>
      </trkpt>
      <trkpt lat="49.33953" lon="1.06673">
        <ele>58</ele>
        <time>2019-12-30T13:48:25.000Z</time>
      </trkpt>
      <trkpt lat="49.33956" lon="1.06668">
        <ele>58</ele>
        <time>2019-12-30T13:48:26.000Z</time>
      </trkpt>
      <trkpt lat="49.33959" lon="1.06663">
        <ele>58</ele>
        <time>2019-12-30T13:48:27.000Z</time>
      </trkpt>
      <trkpt lat="49.33962" lon="1.06657">
        <ele>57</ele>
        <time>2019-12-30T13:48:28.000Z</time>
      </trkpt>
      <trkpt lat="49.33965" lon="1.06652">
        <ele>57</ele>
        <time>2019-12-30T13:48:29.000Z</time>
      </trkpt>
      <trkpt lat="49.33969" lon="1.06648">
        <ele>57</ele>
        <time>2019-12-30T13:48:30.000Z</time>
      </trkpt>
      <trkpt lat="49.33974" lon="1.06643">
        <ele>57</ele>
        <time>2019-12-30T13:48:31.000Z</time>
      </trkpt>
      <trkpt lat="49.33978" lon="1.06637">
        <ele>57</ele>
        <time>2019-12-30T13:48:32.000Z</time>
      </trkpt>
      <trkpt lat="49.33982" lon="1.06631">
        <ele>57</ele>
        <time>2019-12-30T13:48:33.000Z</time>
      </trkpt>
      <trkpt lat="49.33985" lon="1.06625">
        <ele>57</ele>
        <time>2019-12-30T13:48:34.000Z</time>
      </trkpt>
      <trkpt lat="49.33988" lon="1.06619">
        <ele>57</ele>
        <time>2019-12-30T13:48:35.000Z</time>
      </trkpt>
      <trkpt lat="49.33991" lon="1.06613">
        <ele>57</ele>
        <time>2019-12-30T13:48:36.000Z</time>
      </trkpt>
      <trkpt lat="49.33994" lon="1.06607">
        <ele>57</ele>
        <time>2019-12-30T13:48:37.000Z</time>
      </trkpt>
      <trkpt lat="49.33997" lon="1.06601">
        <ele>57</ele>
        <time>2019-12-30T13:48:38.000Z</time>
      </trkpt>
      <trkpt lat="49.34" lon="1.06595">
        <ele>57</ele>
        <time>2019-12-30T13:48:39.000Z</time>
      </trkpt>
      <trkpt lat="49.34004" lon="1.0659">
        <ele>56</ele>
        <time>2019-12-30T13:48:40.000Z</time>
      </trkpt>
      <trkpt lat="49.34007" lon="1.06585">
        <ele>56</ele>
        <time>2019-12-30T13:48:41.000Z</time>
      </trkpt>
      <trkpt lat="49.34011" lon="1.0658">
        <ele>56</ele>
        <time>2019-12-30T13:48:42.000Z</time>
      </trkpt>
      <trkpt lat="49.34013" lon="1.06575">
        <ele>56</ele>
        <time>2019-12-30T13:48:43.000Z</time>
      </trkpt>
      <trkpt lat="49.34016" lon="1.06569">
        <ele>56</ele>
        <time>2019-12-30T13:48:44.000Z</time>
      </trkpt>
      <trkpt lat="49.34018" lon="1.06562">
        <ele>56</ele>
        <time>2019-12-30T13:48:45.000Z</time>
      </trkpt>
      <trkpt lat="49.3402" lon="1.06553">
        <ele>55</ele>
        <time>2019-12-30T13:48:46.000Z</time>
      </trkpt>
      <trkpt lat="49.34023" lon="1.06545">
        <ele>55</ele>
        <time>2019-12-30T13:48:47.000Z</time>
      </trkpt>
      <trkpt lat="49.34027" lon="1.06536">
        <ele>55</ele>
        <time>2019-12-30T13:48:48.000Z</time>
      </trkpt>
      <trkpt lat="49.34031" lon="1.06528">
        <ele>55</ele>
        <time>2019-12-30T13:48:49.000Z</time>
      </trkpt>
      <trkpt lat="49.34035" lon="1.0652">
        <ele>55</ele>
        <time>2019-12-30T13:48:50.000Z</time>
      </trkpt>
      <trkpt lat="49.34039" lon="1.06514">
        <ele>55</ele>
        <time>2019-12-30T13:48:51.000Z</time>
      </trkpt>
      <trkpt lat="49.34042" lon="1.06508">
        <ele>55</ele>
        <time>2019-12-30T13:48:52.000Z</time>
      </trkpt>
      <trkpt lat="49.34043" lon="1.06502">
        <ele>54</ele>
        <time>2019-12-30T13:48:53.000Z</time>
      </trkpt>
      <trkpt lat="49.34043" lon="1.06495">
        <ele>54</ele>
        <time>2019-12-30T13:48:54.000Z</time>
      </trkpt>
      <trkpt lat="49.34043" lon="1.06488">
        <ele>54</ele>
        <time>2019-12-30T13:48:55.000Z</time>
      </trkpt>
      <trkpt lat="49.34045" lon="1.06482">
        <ele>53</ele>
        <time>2019-12-30T13:48:56.000Z</time>
      </trkpt>
      <trkpt lat="49.34047" lon="1.06477">
        <ele>53</ele>
        <time>2019-12-30T13:48:57.000Z</time>
      </trkpt>
      <trkpt lat="49.34049" lon="1.06473">
        <ele>52</ele>
        <time>2019-12-30T13:48:58.000Z</time>
      </trkpt>
      <trkpt lat="49.34052" lon="1.06469">
        <ele>52</ele>
        <time>2019-12-30T13:48:59.000Z</time>
      </trkpt>
      <trkpt lat="49.34055" lon="1.06465">
        <ele>51</ele>
        <time>2019-12-30T13:49:00.000Z</time>
      </trkpt>
      <trkpt lat="49.34057" lon="1.06462">
        <ele>51</ele>
        <time>2019-12-30T13:49:01.000Z</time>
      </trkpt>
      <trkpt lat="49.3406" lon="1.06458">
        <ele>51</ele>
        <time>2019-12-30T13:49:02.000Z</time>
      </trkpt>
      <trkpt lat="49.34062" lon="1.06455">
        <ele>50</ele>
        <time>2019-12-30T13:49:03.000Z</time>
      </trkpt>
      <trkpt lat="49.34065" lon="1.06451">
        <ele>50</ele>
        <time>2019-12-30T13:49:04.000Z</time>
      </trkpt>
      <trkpt lat="49.34068" lon="1.06447">
        <ele>50</ele>
        <time>2019-12-30T13:49:05.000Z</time>
      </trkpt>
      <trkpt lat="49.3407" lon="1.06443">
        <ele>50</ele>
        <time>2019-12-30T13:49:06.000Z</time>
      </trkpt>
      <trkpt lat="49.34072" lon="1.06439">
        <ele>49</ele>
        <time>2019-12-30T13:49:07.000Z</time>
      </trkpt>
      <trkpt lat="49.34074" lon="1.06434">
        <ele>49</ele>
        <time>2019-12-30T13:49:08.000Z</time>
      </trkpt>
      <trkpt lat="49.34076" lon="1.0643">
        <ele>49</ele>
        <time>2019-12-30T13:49:09.000Z</time>
      </trkpt>
      <trkpt lat="49.34078" lon="1.06425">
        <ele>49</ele>
        <time>2019-12-30T13:49:10.000Z</time>
      </trkpt>
      <trkpt lat="49.34081" lon="1.06422">
        <ele>49</ele>
        <time>2019-12-30T13:49:11.000Z</time>
      </trkpt>
      <trkpt lat="49.34083" lon="1.06418">
        <ele>49</ele>
        <time>2019-12-30T13:49:12.000Z</time>
      </trkpt>
      <trkpt lat="49.34086" lon="1.06413">
        <ele>49</ele>
        <time>2019-12-30T13:49:13.000Z</time>
      </trkpt>
      <trkpt lat="49.34088" lon="1.06409">
        <ele>49</ele>
        <time>2019-12-30T13:49:14.000Z</time>
      </trkpt>
      <trkpt lat="49.34091" lon="1.06405">
        <ele>49</ele>
        <time>2019-12-30T13:49:15.000Z</time>
      </trkpt>
      <trkpt lat="49.34093" lon="1.06401">
        <ele>49</ele>
        <time>2019-12-30T13:49:16.000Z</time>
      </trkpt>
      <trkpt lat="49.34095" lon="1.06397">
        <ele>49</ele>
        <time>2019-12-30T13:49:17.000Z</time>
      </trkpt>
      <trkpt lat="49.34097" lon="1.06393">
        <ele>49</ele>
        <time>2019-12-30T13:49:18.000Z</time>
      </trkpt>
      <trkpt lat="49.34098" lon="1.06388">
        <ele>49</ele>
        <time>2019-12-30T13:49:19.000Z</time>
      </trkpt>
      <trkpt lat="49.341" lon="1.06383">
        <ele>49</ele>
        <time>2019-12-30T13:49:20.000Z</time>
      </trkpt>
      <trkpt lat="49.34102" lon="1.06378">
        <ele>49</ele>
        <time>2019-12-30T13:49:21.000Z</time>
      </trkpt>
      <trkpt lat="49.34104" lon="1.06374">
        <ele>49</ele>
        <time>2019-12-30T13:49:22.000Z</time>
      </trkpt>
      <trkpt lat="49.34105" lon="1.06368">
        <ele>49</ele>
        <time>2019-12-30T13:49:23.000Z</time>
      </trkpt>
      <trkpt lat="49.34107" lon="1.06363">
        <ele>49</ele>
        <time>2019-12-30T13:49:24.000Z</time>
      </trkpt>
      <trkpt lat="49.34108" lon="1.06358">
        <ele>49</ele>
        <time>2019-12-30T13:49:25.000Z</time>
      </trkpt>
      <trkpt lat="49.3411" lon="1.06352">
        <ele>49</ele>
        <time>2019-12-30T13:49:26.000Z</time>
      </trkpt>
      <trkpt lat="49.34113" lon="1.06347">
        <ele>49</ele>
        <time>2019-12-30T13:49:27.000Z</time>
      </trkpt>
      <trkpt lat="49.34116" lon="1.06342">
        <ele>50</ele>
        <time>2019-12-30T13:49:28.000Z</time>
      </trkpt>
      <trkpt lat="49.34118" lon="1.06337">
        <ele>50</ele>
        <time>2019-12-30T13:49:29.000Z</time>
      </trkpt>
      <trkpt lat="49.34119" lon="1.06331">
        <ele>50</ele>
        <time>2019-12-30T13:49:30.000Z</time>
      </trkpt>
      <trkpt lat="49.3412" lon="1.06326">
        <ele>50</ele>
        <time>2019-12-30T13:49:31.000Z</time>
      </trkpt>
      <trkpt lat="49.34121" lon="1.0632">
        <ele>51</ele>
        <time>2019-12-30T13:49:32.000Z</time>
      </trkpt>
      <trkpt lat="49.34123" lon="1.06314">
        <ele>51</ele>
        <time>2019-12-30T13:49:33.000Z</time>
      </trkpt>
      <trkpt lat="49.34125" lon="1.06309">
        <ele>51</ele>
        <time>2019-12-30T13:49:34.000Z</time>
      </trkpt>
      <trkpt lat="49.34126" lon="1.06304">
        <ele>51</ele>
        <time>2019-12-30T13:49:35.000Z</time>
      </trkpt>
      <trkpt lat="49.34128" lon="1.06298">
        <ele>51</ele>
        <time>2019-12-30T13:49:36.000Z</time>
      </trkpt>
      <trkpt lat="49.34129" lon="1.06292">
        <ele>52</ele>
        <time>2019-12-30T13:49:37.000Z</time>
      </trkpt>
      <trkpt lat="49.34131" lon="1.06287">
        <ele>52</ele>
        <time>2019-12-30T13:49:38.000Z</time>
      </trkpt>
      <trkpt lat="49.34132" lon="1.06282">
        <ele>52</ele>
        <time>2019-12-30T13:49:39.000Z</time>
      </trkpt>
      <trkpt lat="49.34134" lon="1.06277">
        <ele>52</ele>
        <time>2019-12-30T13:49:40.000Z</time>
      </trkpt>
      <trkpt lat="49.34135" lon="1.06272">
        <ele>52</ele>
        <time>2019-12-30T13:49:41.000Z</time>
      </trkpt>
      <trkpt lat="49.34137" lon="1.06267">
        <ele>52</ele>
        <time>2019-12-30T13:49:42.000Z</time>
      </trkpt>
      <trkpt lat="49.34138" lon="1.06262">
        <ele>53</ele>
        <time>2019-12-30T13:49:43.000Z</time>
      </trkpt>
      <trkpt lat="49.3414" lon="1.06257">
        <ele>53</ele>
        <time>2019-12-30T13:49:44.000Z</time>
      </trkpt>
      <trkpt lat="49.34141" lon="1.06253">
        <ele>53</ele>
        <time>2019-12-30T13:49:45.000Z</time>
      </trkpt>
      <trkpt lat="49.34143" lon="1.06248">
        <ele>53</ele>
        <time>2019-12-30T13:49:46.000Z</time>
      </trkpt>
      <trkpt lat="49.34145" lon="1.06244">
        <ele>53</ele>
        <time>2019-12-30T13:49:47.000Z</time>
      </trkpt>
      <trkpt lat="49.34147" lon="1.06239">
        <ele>54</ele>
        <time>2019-12-30T13:49:48.000Z</time>
      </trkpt>
      <trkpt lat="49.34148" lon="1.06233">
        <ele>54</ele>
        <time>2019-12-30T13:49:49.000Z</time>
      </trkpt>
      <trkpt lat="49.3415" lon="1.06227">
        <ele>54</ele>
        <time>2019-12-30T13:49:50.000Z</time>
      </trkpt>
      <trkpt lat="49.34151" lon="1.06221">
        <ele>54</ele>
        <time>2019-12-30T13:49:51.000Z</time>
      </trkpt>
      <trkpt lat="49.34152" lon="1.06216">
        <ele>55</ele>
        <time>2019-12-30T13:49:52.000Z</time>
      </trkpt>
      <trkpt lat="49.34153" lon="1.0621">
        <ele>55</ele>
        <time>2019-12-30T13:49:53.000Z</time>
      </trkpt>
      <trkpt lat="49.34154" lon="1.06204">
        <ele>55</ele>
        <time>2019-12-30T13:49:54.000Z</time>
      </trkpt>
      <trkpt lat="49.34155" lon="1.06199">
        <ele>56</ele>
        <time>2019-12-30T13:49:55.000Z</time>
      </trkpt>
      <trkpt lat="49.34157" lon="1.06194">
        <ele>56</ele>
        <time>2019-12-30T13:49:56.000Z</time>
      </trkpt>
      <trkpt lat="49.34158" lon="1.06188">
        <ele>56</ele>
        <time>2019-12-30T13:49:57.000Z</time>
      </trkpt>
      <trkpt lat="49.3416" lon="1.06183">
        <ele>56</ele>
        <time>2019-12-30T13:49:58.000Z</time>
      </trkpt>
      <trkpt lat="49.34161" lon="1.06178">
        <ele>56</ele>
        <time>2019-12-30T13:49:59.000Z</time>
      </trkpt>
      <trkpt lat="49.34163" lon="1.06172">
        <ele>57</ele>
        <time>2019-12-30T13:50:00.000Z</time>
      </trkpt>
      <trkpt lat="49.34164" lon="1.06167">
        <ele>57</ele>
        <time>2019-12-30T13:50:01.000Z</time>
      </trkpt>
      <trkpt lat="49.34165" lon="1.06161">
        <ele>57</ele>
        <time>2019-12-30T13:50:02.000Z</time>
      </trkpt>
      <trkpt lat="49.34166" lon="1.06156">
        <ele>57</ele>
        <time>2019-12-30T13:50:03.000Z</time>
      </trkpt>
      <trkpt lat="49.34167" lon="1.0615">
        <ele>58</ele>
        <time>2019-12-30T13:50:04.000Z</time>
      </trkpt>
      <trkpt lat="49.34169" lon="1.06145">
        <ele>58</ele>
        <time>2019-12-30T13:50:05.000Z</time>
      </trkpt>
      <trkpt lat="49.34169" lon="1.06138">
        <ele>58</ele>
        <time>2019-12-30T13:50:06.000Z</time>
      </trkpt>
      <trkpt lat="49.3417" lon="1.06133">
        <ele>58</ele>
        <time>2019-12-30T13:50:07.000Z</time>
      </trkpt>
      <trkpt lat="49.34171" lon="1.06127">
        <ele>58</ele>
        <time>2019-12-30T13:50:08.000Z</time>
      </trkpt>
      <trkpt lat="49.34171" lon="1.06121">
        <ele>59</ele>
        <time>2019-12-30T13:50:09.000Z</time>
      </trkpt>
      <trkpt lat="49.34172" lon="1.06115">
        <ele>59</ele>
        <time>2019-12-30T13:50:10.000Z</time>
      </trkpt>
      <trkpt lat="49.34172" lon="1.06109">
        <ele>59</ele>
        <time>2019-12-30T13:50:11.000Z</time>
      </trkpt>
      <trkpt lat="49.34173" lon="1.06103">
        <ele>60</ele>
        <time>2019-12-30T13:50:12.000Z</time>
      </trkpt>
      <trkpt lat="49.34174" lon="1.06097">
        <ele>60</ele>
        <time>2019-12-30T13:50:13.000Z</time>
      </trkpt>
      <trkpt lat="49.34174" lon="1.06091">
        <ele>60</ele>
        <time>2019-12-30T13:50:14.000Z</time>
      </trkpt>
      <trkpt lat="49.34176" lon="1.06086">
        <ele>60</ele>
        <time>2019-12-30T13:50:15.000Z</time>
      </trkpt>
      <trkpt lat="49.34177" lon="1.06081">
        <ele>60</ele>
        <time>2019-12-30T13:50:16.000Z</time>
      </trkpt>
      <trkpt lat="49.34178" lon="1.06075">
        <ele>61</ele>
        <time>2019-12-30T13:50:17.000Z</time>
      </trkpt>
      <trkpt lat="49.3418" lon="1.0607">
        <ele>61</ele>
        <time>2019-12-30T13:50:18.000Z</time>
      </trkpt>
      <trkpt lat="49.34181" lon="1.06065">
        <ele>61</ele>
        <time>2019-12-30T13:50:19.000Z</time>
      </trkpt>
      <trkpt lat="49.34183" lon="1.0606">
        <ele>61</ele>
        <time>2019-12-30T13:50:20.000Z</time>
      </trkpt>
      <trkpt lat="49.34186" lon="1.06055">
        <ele>61</ele>
        <time>2019-12-30T13:50:21.000Z</time>
      </trkpt>
      <trkpt lat="49.34189" lon="1.0605">
        <ele>61</ele>
        <time>2019-12-30T13:50:22.000Z</time>
      </trkpt>
      <trkpt lat="49.34192" lon="1.06044">
        <ele>62</ele>
        <time>2019-12-30T13:50:23.000Z</time>
      </trkpt>
      <trkpt lat="49.34194" lon="1.06039">
        <ele>62</ele>
        <time>2019-12-30T13:50:24.000Z</time>
      </trkpt>
      <trkpt lat="49.34196" lon="1.06034">
        <ele>62</ele>
        <time>2019-12-30T13:50:25.000Z</time>
      </trkpt>
      <trkpt lat="49.34198" lon="1.06029">
        <ele>62</ele>
        <time>2019-12-30T13:50:26.000Z</time>
      </trkpt>
      <trkpt lat="49.342" lon="1.06024">
        <ele>63</ele>
        <time>2019-12-30T13:50:27.000Z</time>
      </trkpt>
      <trkpt lat="49.34203" lon="1.06019">
        <ele>63</ele>
        <time>2019-12-30T13:50:28.000Z</time>
      </trkpt>
      <trkpt lat="49.34206" lon="1.06014">
        <ele>63</ele>
        <time>2019-12-30T13:50:29.000Z</time>
      </trkpt>
      <trkpt lat="49.34209" lon="1.0601">
        <ele>64</ele>
        <time>2019-12-30T13:50:30.000Z</time>
      </trkpt>
      <trkpt lat="49.34211" lon="1.06005">
        <ele>64</ele>
        <time>2019-12-30T13:50:31.000Z</time>
      </trkpt>
      <trkpt lat="49.34212" lon="1.06">
        <ele>64</ele>
        <time>2019-12-30T13:50:32.000Z</time>
      </trkpt>
      <trkpt lat="49.34212" lon="1.05995">
        <ele>64</ele>
        <time>2019-12-30T13:50:33.000Z</time>
      </trkpt>
      <trkpt lat="49.34212" lon="1.05989">
        <ele>65</ele>
        <time>2019-12-30T13:50:34.000Z</time>
      </trkpt>
      <trkpt lat="49.34212" lon="1.05984">
        <ele>65</ele>
        <time>2019-12-30T13:50:35.000Z</time>
      </trkpt>
      <trkpt lat="49.34212" lon="1.05978">
        <ele>65</ele>
        <time>2019-12-30T13:50:36.000Z</time>
      </trkpt>
      <trkpt lat="49.34211" lon="1.05972">
        <ele>65</ele>
        <time>2019-12-30T13:50:37.000Z</time>
      </trkpt>
      <trkpt lat="49.3421" lon="1.05966">
        <ele>65</ele>
        <time>2019-12-30T13:50:38.000Z</time>
      </trkpt>
      <trkpt lat="49.34209" lon="1.05961">
        <ele>66</ele>
        <time>2019-12-30T13:50:39.000Z</time>
      </trkpt>
      <trkpt lat="49.34208" lon="1.05956">
        <ele>66</ele>
        <time>2019-12-30T13:50:40.000Z</time>
      </trkpt>
      <trkpt lat="49.34207" lon="1.0595">
        <ele>66</ele>
        <time>2019-12-30T13:50:41.000Z</time>
      </trkpt>
      <trkpt lat="49.34206" lon="1.05944">
        <ele>66</ele>
        <time>2019-12-30T13:50:42.000Z</time>
      </trkpt>
      <trkpt lat="49.34205" lon="1.05938">
        <ele>66</ele>
        <time>2019-12-30T13:50:43.000Z</time>
      </trkpt>
      <trkpt lat="49.34204" lon="1.05933">
        <ele>66</ele>
        <time>2019-12-30T13:50:44.000Z</time>
      </trkpt>
      <trkpt lat="49.34203" lon="1.05927">
        <ele>66</ele>
        <time>2019-12-30T13:50:45.000Z</time>
      </trkpt>
      <trkpt lat="49.34202" lon="1.05921">
        <ele>66</ele>
        <time>2019-12-30T13:50:46.000Z</time>
      </trkpt>
      <trkpt lat="49.34201" lon="1.05916">
        <ele>65</ele>
        <time>2019-12-30T13:50:47.000Z</time>
      </trkpt>
      <trkpt lat="49.342" lon="1.05911">
        <ele>65</ele>
        <time>2019-12-30T13:50:48.000Z</time>
      </trkpt>
      <trkpt lat="49.34199" lon="1.05905">
        <ele>65</ele>
        <time>2019-12-30T13:50:49.000Z</time>
      </trkpt>
      <trkpt lat="49.34198" lon="1.05901">
        <ele>65</ele>
        <time>2019-12-30T13:50:50.000Z</time>
      </trkpt>
      <trkpt lat="49.34197" lon="1.05896">
        <ele>65</ele>
        <time>2019-12-30T13:50:51.000Z</time>
      </trkpt>
      <trkpt lat="49.34196" lon="1.05891">
        <ele>65</ele>
        <time>2019-12-30T13:50:52.000Z</time>
      </trkpt>
      <trkpt lat="49.34194" lon="1.05886">
        <ele>65</ele>
        <time>2019-12-30T13:50:53.000Z</time>
      </trkpt>
      <trkpt lat="49.34193" lon="1.05882">
        <ele>65</ele>
        <time>2019-12-30T13:50:54.000Z</time>
      </trkpt>
      <trkpt lat="49.34192" lon="1.05878">
        <ele>65</ele>
        <time>2019-12-30T13:50:55.000Z</time>
      </trkpt>
      <trkpt lat="49.34191" lon="1.05874">
        <ele>65</ele>
        <time>2019-12-30T13:50:56.000Z</time>
      </trkpt>
      <trkpt lat="49.3419" lon="1.05871">
        <ele>65</ele>
        <time>2019-12-30T13:50:57.000Z</time>
      </trkpt>
      <trkpt lat="49.34189" lon="1.05869">
        <ele>65</ele>
        <time>2019-12-30T13:50:58.000Z</time>
      </trkpt>
      <trkpt lat="49.34187" lon="1.05868">
        <ele>65</ele>
        <time>2019-12-30T13:50:59.000Z</time>
      </trkpt>
      <trkpt lat="49.34186" lon="1.05868">
        <ele>65</ele>
        <time>2019-12-30T13:51:00.000Z</time>
      </trkpt>
      <trkpt lat="49.34185" lon="1.05868">
        <ele>65</ele>
        <time>2019-12-30T13:51:01.000Z</time>
      </trkpt>
      <trkpt lat="49.34185" lon="1.05868">
        <ele>65</ele>
        <time>2019-12-30T13:51:02.000Z</time>
      </trkpt>
      <trkpt lat="49.3418" lon="1.05879">
        <ele>67</ele>
        <time>2019-12-30T13:51:03.000Z</time>
      </trkpt>
      <trkpt lat="49.3418" lon="1.05883">
        <ele>67</ele>
        <time>2019-12-30T13:51:04.000Z</time>
      </trkpt>
      <trkpt lat="49.34181" lon="1.05887">
        <ele>66</ele>
        <time>2019-12-30T13:51:05.000Z</time>
      </trkpt>
      <trkpt lat="49.3418" lon="1.05891">
        <ele>66</ele>
        <time>2019-12-30T13:51:06.000Z</time>
      </trkpt>
      <trkpt lat="49.34179" lon="1.05894">
        <ele>66</ele>
        <time>2019-12-30T13:51:07.000Z</time>
      </trkpt>
      <trkpt lat="49.34179" lon="1.05897">
        <ele>66</ele>
        <time>2019-12-30T13:51:08.000Z</time>
      </trkpt>
      <trkpt lat="49.34178" lon="1.05901">
        <ele>66</ele>
        <time>2019-12-30T13:51:09.000Z</time>
      </trkpt>
      <trkpt lat="49.34178" lon="1.05905">
        <ele>66</ele>
        <time>2019-12-30T13:51:10.000Z</time>
      </trkpt>
      <trkpt lat="49.34179" lon="1.05908">
        <ele>66</ele>
        <time>2019-12-30T13:51:11.000Z</time>
      </trkpt>
      <trkpt lat="49.3418" lon="1.05912">
        <ele>66</ele>
        <time>2019-12-30T13:51:12.000Z</time>
      </trkpt>
      <trkpt lat="49.34182" lon="1.05917">
        <ele>66</ele>
        <time>2019-12-30T13:51:13.000Z</time>
      </trkpt>
      <trkpt lat="49.34183" lon="1.05921">
        <ele>66</ele>
        <time>2019-12-30T13:51:14.000Z</time>
      </trkpt>
      <trkpt lat="49.34185" lon="1.05925">
        <ele>66</ele>
        <time>2019-12-30T13:51:15.000Z</time>
      </trkpt>
      <trkpt lat="49.34186" lon="1.05929">
        <ele>66</ele>
        <time>2019-12-30T13:51:16.000Z</time>
      </trkpt>
      <trkpt lat="49.34187" lon="1.05933">
        <ele>66</ele>
        <time>2019-12-30T13:51:17.000Z</time>
      </trkpt>
      <trkpt lat="49.34188" lon="1.05936">
        <ele>66</ele>
        <time>2019-12-30T13:51:18.000Z</time>
      </trkpt>
      <trkpt lat="49.34189" lon="1.05939">
        <ele>65</ele>
        <time>2019-12-30T13:51:19.000Z</time>
      </trkpt>
      <trkpt lat="49.3419" lon="1.05943">
        <ele>65</ele>
        <time>2019-12-30T13:51:20.000Z</time>
      </trkpt>
      <trkpt lat="49.34191" lon="1.05946">
        <ele>65</ele>
        <time>2019-12-30T13:51:21.000Z</time>
      </trkpt>
      <trkpt lat="49.34191" lon="1.0595">
        <ele>65</ele>
        <time>2019-12-30T13:51:22.000Z</time>
      </trkpt>
      <trkpt lat="49.34191" lon="1.05955">
        <ele>65</ele>
        <time>2019-12-30T13:51:23.000Z</time>
      </trkpt>
      <trkpt lat="49.34191" lon="1.0596">
        <ele>65</ele>
        <time>2019-12-30T13:51:24.000Z</time>
      </trkpt>
      <trkpt lat="49.3419" lon="1.05965">
        <ele>65</ele>
        <time>2019-12-30T13:51:25.000Z</time>
      </trkpt>
      <trkpt lat="49.3419" lon="1.0597">
        <ele>65</ele>
        <time>2019-12-30T13:51:26.000Z</time>
      </trkpt>
      <trkpt lat="49.34191" lon="1.05976">
        <ele>65</ele>
        <time>2019-12-30T13:51:27.000Z</time>
      </trkpt>
      <trkpt lat="49.34191" lon="1.0598">
        <ele>65</ele>
        <time>2019-12-30T13:51:28.000Z</time>
      </trkpt>
      <trkpt lat="49.34191" lon="1.05983">
        <ele>65</ele>
        <time>2019-12-30T13:51:29.000Z</time>
      </trkpt>
      <trkpt lat="49.34191" lon="1.05988">
        <ele>65</ele>
        <time>2019-12-30T13:51:30.000Z</time>
      </trkpt>
      <trkpt lat="49.34191" lon="1.05992">
        <ele>65</ele>
        <time>2019-12-30T13:51:31.000Z</time>
      </trkpt>
      <trkpt lat="49.3419" lon="1.05997">
        <ele>65</ele>
        <time>2019-12-30T13:51:32.000Z</time>
      </trkpt>
      <trkpt lat="49.34189" lon="1.06">
        <ele>66</ele>
        <time>2019-12-30T13:51:33.000Z</time>
      </trkpt>
      <trkpt lat="49.34189" lon="1.06004">
        <ele>66</ele>
        <time>2019-12-30T13:51:34.000Z</time>
      </trkpt>
      <trkpt lat="49.34188" lon="1.06007">
        <ele>66</ele>
        <time>2019-12-30T13:51:35.000Z</time>
      </trkpt>
      <trkpt lat="49.34188" lon="1.06009">
        <ele>66</ele>
        <time>2019-12-30T13:51:36.000Z</time>
      </trkpt>
      <trkpt lat="49.34187" lon="1.06012">
        <ele>66</ele>
        <time>2019-12-30T13:51:37.000Z</time>
      </trkpt>
      <trkpt lat="49.34186" lon="1.06017">
        <ele>66</ele>
        <time>2019-12-30T13:51:38.000Z</time>
      </trkpt>
      <trkpt lat="49.34185" lon="1.06022">
        <ele>66</ele>
        <time>2019-12-30T13:51:39.000Z</time>
      </trkpt>
      <trkpt lat="49.34182" lon="1.06027">
        <ele>66</ele>
        <time>2019-12-30T13:51:40.000Z</time>
      </trkpt>
      <trkpt lat="49.3418" lon="1.06032">
        <ele>66</ele>
        <time>2019-12-30T13:51:41.000Z</time>
      </trkpt>
      <trkpt lat="49.34178" lon="1.06037">
        <ele>66</ele>
        <time>2019-12-30T13:51:42.000Z</time>
      </trkpt>
      <trkpt lat="49.34176" lon="1.06042">
        <ele>66</ele>
        <time>2019-12-30T13:51:43.000Z</time>
      </trkpt>
      <trkpt lat="49.34174" lon="1.06047">
        <ele>65</ele>
        <time>2019-12-30T13:51:44.000Z</time>
      </trkpt>
      <trkpt lat="49.34173" lon="1.06051">
        <ele>65</ele>
        <time>2019-12-30T13:51:45.000Z</time>
      </trkpt>
      <trkpt lat="49.34171" lon="1.06055">
        <ele>65</ele>
        <time>2019-12-30T13:51:46.000Z</time>
      </trkpt>
      <trkpt lat="49.34169" lon="1.06058">
        <ele>65</ele>
        <time>2019-12-30T13:51:47.000Z</time>
      </trkpt>
      <trkpt lat="49.34168" lon="1.06062">
        <ele>65</ele>
        <time>2019-12-30T13:51:48.000Z</time>
      </trkpt>
      <trkpt lat="49.34166" lon="1.06064">
        <ele>64</ele>
        <time>2019-12-30T13:51:49.000Z</time>
      </trkpt>
      <trkpt lat="49.34163" lon="1.06066">
        <ele>64</ele>
        <time>2019-12-30T13:51:50.000Z</time>
      </trkpt>
      <trkpt lat="49.34161" lon="1.06066">
        <ele>64</ele>
        <time>2019-12-30T13:51:51.000Z</time>
      </trkpt>
      <trkpt lat="49.34159" lon="1.06065">
        <ele>63</ele>
        <time>2019-12-30T13:51:52.000Z</time>
      </trkpt>
      <trkpt lat="49.34157" lon="1.06064">
        <ele>63</ele>
        <time>2019-12-30T13:51:53.000Z</time>
      </trkpt>
      <trkpt lat="49.34157" lon="1.06064">
        <ele>62</ele>
        <time>2019-12-30T13:51:54.000Z</time>
      </trkpt>
      <trkpt lat="49.34156" lon="1.06063">
        <ele>62</ele>
        <time>2019-12-30T13:51:55.000Z</time>
      </trkpt>
      <trkpt lat="49.34155" lon="1.06062">
        <ele>61</ele>
        <time>2019-12-30T13:51:56.000Z</time>
      </trkpt>
      <trkpt lat="49.34153" lon="1.06062">
        <ele>61</ele>
        <time>2019-12-30T13:51:57.000Z</time>
      </trkpt>
      <trkpt lat="49.34153" lon="1.06062">
        <ele>60</ele>
        <time>2019-12-30T13:51:58.000Z</time>
      </trkpt>
      <trkpt lat="49.34152" lon="1.06063">
        <ele>60</ele>
        <time>2019-12-30T13:51:59.000Z</time>
      </trkpt>
      <trkpt lat="49.34151" lon="1.06066">
        <ele>59</ele>
        <time>2019-12-30T13:52:00.000Z</time>
      </trkpt>
      <trkpt lat="49.34149" lon="1.06067">
        <ele>59</ele>
        <time>2019-12-30T13:52:01.000Z</time>
      </trkpt>
      <trkpt lat="49.34147" lon="1.06068">
        <ele>59</ele>
        <time>2019-12-30T13:52:02.000Z</time>
      </trkpt>
      <trkpt lat="49.34146" lon="1.06068">
        <ele>58</ele>
        <time>2019-12-30T13:52:03.000Z</time>
      </trkpt>
      <trkpt lat="49.34145" lon="1.06067">
        <ele>58</ele>
        <time>2019-12-30T13:52:04.000Z</time>
      </trkpt>
      <trkpt lat="49.34144" lon="1.06067">
        <ele>58</ele>
        <time>2019-12-30T13:52:05.000Z</time>
      </trkpt>
      <trkpt lat="49.34143" lon="1.06067">
        <ele>57</ele>
        <time>2019-12-30T13:52:06.000Z</time>
      </trkpt>
      <trkpt lat="49.34142" lon="1.06067">
        <ele>57</ele>
        <time>2019-12-30T13:52:07.000Z</time>
      </trkpt>
      <trkpt lat="49.3414" lon="1.06067">
        <ele>57</ele>
        <time>2019-12-30T13:52:08.000Z</time>
      </trkpt>
      <trkpt lat="49.34139" lon="1.06066">
        <ele>57</ele>
        <time>2019-12-30T13:52:09.000Z</time>
      </trkpt>
      <trkpt lat="49.34137" lon="1.06064">
        <ele>57</ele>
        <time>2019-12-30T13:52:10.000Z</time>
      </trkpt>
      <trkpt lat="49.34136" lon="1.06063">
        <ele>56</ele>
        <time>2019-12-30T13:52:11.000Z</time>
      </trkpt>
      <trkpt lat="49.34134" lon="1.06062">
        <ele>56</ele>
        <time>2019-12-30T13:52:12.000Z</time>
      </trkpt>
      <trkpt lat="49.34132" lon="1.06061">
        <ele>56</ele>
        <time>2019-12-30T13:52:13.000Z</time>
      </trkpt>
      <trkpt lat="49.3413" lon="1.06061">
        <ele>56</ele>
        <time>2019-12-30T13:52:14.000Z</time>
      </trkpt>
      <trkpt lat="49.34128" lon="1.06061">
        <ele>56</ele>
        <time>2019-12-30T13:52:15.000Z</time>
      </trkpt>
      <trkpt lat="49.34127" lon="1.06061">
        <ele>56</ele>
        <time>2019-12-30T13:52:16.000Z</time>
      </trkpt>
      <trkpt lat="49.34125" lon="1.06062">
        <ele>56</ele>
        <time>2019-12-30T13:52:17.000Z</time>
      </trkpt>
      <trkpt lat="49.34124" lon="1.06064">
        <ele>56</ele>
        <time>2019-12-30T13:52:18.000Z</time>
      </trkpt>
      <trkpt lat="49.34123" lon="1.06065">
        <ele>55</ele>
        <time>2019-12-30T13:52:19.000Z</time>
      </trkpt>
      <trkpt lat="49.34121" lon="1.06066">
        <ele>55</ele>
        <time>2019-12-30T13:52:20.000Z</time>
      </trkpt>
      <trkpt lat="49.3412" lon="1.06067">
        <ele>55</ele>
        <time>2019-12-30T13:52:21.000Z</time>
      </trkpt>
      <trkpt lat="49.34118" lon="1.06067">
        <ele>55</ele>
        <time>2019-12-30T13:52:22.000Z</time>
      </trkpt>
      <trkpt lat="49.34117" lon="1.06067">
        <ele>55</ele>
        <time>2019-12-30T13:52:23.000Z</time>
      </trkpt>
      <trkpt lat="49.34115" lon="1.06067">
        <ele>55</ele>
        <time>2019-12-30T13:52:24.000Z</time>
      </trkpt>
      <trkpt lat="49.34114" lon="1.06067">
        <ele>55</ele>
        <time>2019-12-30T13:52:25.000Z</time>
      </trkpt>
      <trkpt lat="49.34112" lon="1.06067">
        <ele>55</ele>
        <time>2019-12-30T13:52:26.000Z</time>
      </trkpt>
      <trkpt lat="49.3411" lon="1.06067">
        <ele>55</ele>
        <time>2019-12-30T13:52:27.000Z</time>
      </trkpt>
      <trkpt lat="49.34108" lon="1.06067">
        <ele>55</ele>
        <time>2019-12-30T13:52:28.000Z</time>
      </trkpt>
      <trkpt lat="49.34106" lon="1.06067">
        <ele>55</ele>
        <time>2019-12-30T13:52:29.000Z</time>
      </trkpt>
      <trkpt lat="49.34104" lon="1.06067">
        <ele>55</ele>
        <time>2019-12-30T13:52:30.000Z</time>
      </trkpt>
      <trkpt lat="49.34102" lon="1.06067">
        <ele>55</ele>
        <time>2019-12-30T13:52:31.000Z</time>
      </trkpt>
      <trkpt lat="49.341" lon="1.06066">
        <ele>55</ele>
        <time>2019-12-30T13:52:32.000Z</time>
      </trkpt>
      <trkpt lat="49.34099" lon="1.06066">
        <ele>55</ele>
        <time>2019-12-30T13:52:33.000Z</time>
      </trkpt>
      <trkpt lat="49.34097" lon="1.06066">
        <ele>55</ele>
        <time>2019-12-30T13:52:34.000Z</time>
      </trkpt>
      <trkpt lat="49.34095" lon="1.06066">
        <ele>55</ele>
        <time>2019-12-30T13:52:35.000Z</time>
      </trkpt>
      <trkpt lat="49.34094" lon="1.06067">
        <ele>55</ele>
        <time>2019-12-30T13:52:36.000Z</time>
      </trkpt>
      <trkpt lat="49.34092" lon="1.06067">
        <ele>55</ele>
        <time>2019-12-30T13:52:37.000Z</time>
      </trkpt>
      <trkpt lat="49.3409" lon="1.06067">
        <ele>55</ele>
        <time>2019-12-30T13:52:38.000Z</time>
      </trkpt>
      <trkpt lat="49.34088" lon="1.06067">
        <ele>55</ele>
        <time>2019-12-30T13:52:39.000Z</time>
      </trkpt>
      <trkpt lat="49.34086" lon="1.06067">
        <ele>55</ele>
        <time>2019-12-30T13:52:40.000Z</time>
      </trkpt>
      <trkpt lat="49.34085" lon="1.06067">
        <ele>55</ele>
        <time>2019-12-30T13:52:41.000Z</time>
      </trkpt>
      <trkpt lat="49.34083" lon="1.06067">
        <ele>56</ele>
        <time>2019-12-30T13:52:42.000Z</time>
      </trkpt>
      <trkpt lat="49.34081" lon="1.06067">
        <ele>56</ele>
        <time>2019-12-30T13:52:43.000Z</time>
      </trkpt>
      <trkpt lat="49.34079" lon="1.06067">
        <ele>56</ele>
        <time>2019-12-30T13:52:44.000Z</time>
      </trkpt>
      <trkpt lat="49.34077" lon="1.06067">
        <ele>56</ele>
        <time>2019-12-30T13:52:45.000Z</time>
      </trkpt>
      <trkpt lat="49.34075" lon="1.06067">
        <ele>57</ele>
        <time>2019-12-30T13:52:46.000Z</time>
      </trkpt>
      <trkpt lat="49.34073" lon="1.06067">
        <ele>57</ele>
        <time>2019-12-30T13:52:47.000Z</time>
      </trkpt>
      <trkpt lat="49.34071" lon="1.06066">
        <ele>57</ele>
        <time>2019-12-30T13:52:48.000Z</time>
      </trkpt>
      <trkpt lat="49.34069" lon="1.06064">
        <ele>57</ele>
        <time>2019-12-30T13:52:49.000Z</time>
      </trkpt>
      <trkpt lat="49.34068" lon="1.06063">
        <ele>58</ele>
        <time>2019-12-30T13:52:50.000Z</time>
      </trkpt>
      <trkpt lat="49.34067" lon="1.06062">
        <ele>58</ele>
        <time>2019-12-30T13:52:51.000Z</time>
      </trkpt>
      <trkpt lat="49.34065" lon="1.06061">
        <ele>58</ele>
        <time>2019-12-30T13:52:52.000Z</time>
      </trkpt>
      <trkpt lat="49.34064" lon="1.0606">
        <ele>58</ele>
        <time>2019-12-30T13:52:53.000Z</time>
      </trkpt>
      <trkpt lat="49.34062" lon="1.06059">
        <ele>58</ele>
        <time>2019-12-30T13:52:54.000Z</time>
      </trkpt>
      <trkpt lat="49.3406" lon="1.06058">
        <ele>58</ele>
        <time>2019-12-30T13:52:55.000Z</time>
      </trkpt>
      <trkpt lat="49.34059" lon="1.06058">
        <ele>59</ele>
        <time>2019-12-30T13:52:56.000Z</time>
      </trkpt>
      <trkpt lat="49.34057" lon="1.06057">
        <ele>59</ele>
        <time>2019-12-30T13:52:57.000Z</time>
      </trkpt>
      <trkpt lat="49.34055" lon="1.06057">
        <ele>59</ele>
        <time>2019-12-30T13:52:58.000Z</time>
      </trkpt>
      <trkpt lat="49.34053" lon="1.06057">
        <ele>60</ele>
        <time>2019-12-30T13:52:59.000Z</time>
      </trkpt>
      <trkpt lat="49.34052" lon="1.06057">
        <ele>60</ele>
        <time>2019-12-30T13:53:00.000Z</time>
      </trkpt>
      <trkpt lat="49.3405" lon="1.06057">
        <ele>61</ele>
        <time>2019-12-30T13:53:01.000Z</time>
      </trkpt>
      <trkpt lat="49.34049" lon="1.06058">
        <ele>61</ele>
        <time>2019-12-30T13:53:02.000Z</time>
      </trkpt>
      <trkpt lat="49.34047" lon="1.06058">
        <ele>61</ele>
        <time>2019-12-30T13:53:03.000Z</time>
      </trkpt>
      <trkpt lat="49.34046" lon="1.06058">
        <ele>62</ele>
        <time>2019-12-30T13:53:04.000Z</time>
      </trkpt>
      <trkpt lat="49.34045" lon="1.06059">
        <ele>62</ele>
        <time>2019-12-30T13:53:05.000Z</time>
      </trkpt>
      <trkpt lat="49.34043" lon="1.06059">
        <ele>62</ele>
        <time>2019-12-30T13:53:06.000Z</time>
      </trkpt>
      <trkpt lat="49.34042" lon="1.0606">
        <ele>63</ele>
        <time>2019-12-30T13:53:07.000Z</time>
      </trkpt>
      <trkpt lat="49.34041" lon="1.06062">
        <ele>63</ele>
        <time>2019-12-30T13:53:08.000Z</time>
      </trkpt>
      <trkpt lat="49.3404" lon="1.06063">
        <ele>63</ele>
        <time>2019-12-30T13:53:09.000Z</time>
      </trkpt>
      <trkpt lat="49.34039" lon="1.06064">
        <ele>64</ele>
        <time>2019-12-30T13:53:10.000Z</time>
      </trkpt>
      <trkpt lat="49.34037" lon="1.06066">
        <ele>64</ele>
        <time>2019-12-30T13:53:11.000Z</time>
      </trkpt>
      <trkpt lat="49.34036" lon="1.06067">
        <ele>65</ele>
        <time>2019-12-30T13:53:12.000Z</time>
      </trkpt>
      <trkpt lat="49.34035" lon="1.06068">
        <ele>65</ele>
        <time>2019-12-30T13:53:13.000Z</time>
      </trkpt>
      <trkpt lat="49.34033" lon="1.0607">
        <ele>65</ele>
        <time>2019-12-30T13:53:14.000Z</time>
      </trkpt>
      <trkpt lat="49.34032" lon="1.06072">
        <ele>66</ele>
        <time>2019-12-30T13:53:15.000Z</time>
      </trkpt>
      <trkpt lat="49.3403" lon="1.06075">
        <ele>66</ele>
        <time>2019-12-30T13:53:16.000Z</time>
      </trkpt>
      <trkpt lat="49.34029" lon="1.06077">
        <ele>67</ele>
        <time>2019-12-30T13:53:17.000Z</time>
      </trkpt>
      <trkpt lat="49.34028" lon="1.06079">
        <ele>67</ele>
        <time>2019-12-30T13:53:18.000Z</time>
      </trkpt>
      <trkpt lat="49.34027" lon="1.06082">
        <ele>68</ele>
        <time>2019-12-30T13:53:19.000Z</time>
      </trkpt>
      <trkpt lat="49.34026" lon="1.06084">
        <ele>68</ele>
        <time>2019-12-30T13:53:20.000Z</time>
      </trkpt>
      <trkpt lat="49.34024" lon="1.06086">
        <ele>69</ele>
        <time>2019-12-30T13:53:21.000Z</time>
      </trkpt>
      <trkpt lat="49.34023" lon="1.06088">
        <ele>69</ele>
        <time>2019-12-30T13:53:22.000Z</time>
      </trkpt>
      <trkpt lat="49.34021" lon="1.0609">
        <ele>70</ele>
        <time>2019-12-30T13:53:23.000Z</time>
      </trkpt>
      <trkpt lat="49.3402" lon="1.06092">
        <ele>70</ele>
        <time>2019-12-30T13:53:24.000Z</time>
      </trkpt>
      <trkpt lat="49.3402" lon="1.06094">
        <ele>71</ele>
        <time>2019-12-30T13:53:25.000Z</time>
      </trkpt>
      <trkpt lat="49.34019" lon="1.06097">
        <ele>71</ele>
        <time>2019-12-30T13:53:26.000Z</time>
      </trkpt>
      <trkpt lat="49.34019" lon="1.061">
        <ele>71</ele>
        <time>2019-12-30T13:53:27.000Z</time>
      </trkpt>
      <trkpt lat="49.34018" lon="1.06103">
        <ele>72</ele>
        <time>2019-12-30T13:53:28.000Z</time>
      </trkpt>
      <trkpt lat="49.34017" lon="1.06106">
        <ele>72</ele>
        <time>2019-12-30T13:53:29.000Z</time>
      </trkpt>
      <trkpt lat="49.34017" lon="1.06109">
        <ele>73</ele>
        <time>2019-12-30T13:53:30.000Z</time>
      </trkpt>
      <trkpt lat="49.34016" lon="1.06111">
        <ele>73</ele>
        <time>2019-12-30T13:53:31.000Z</time>
      </trkpt>
      <trkpt lat="49.34016" lon="1.06113">
        <ele>73</ele>
        <time>2019-12-30T13:53:32.000Z</time>
      </trkpt>
      <trkpt lat="49.34016" lon="1.06116">
        <ele>73</ele>
        <time>2019-12-30T13:53:33.000Z</time>
      </trkpt>
      <trkpt lat="49.34016" lon="1.06118">
        <ele>74</ele>
        <time>2019-12-30T13:53:34.000Z</time>
      </trkpt>
      <trkpt lat="49.34016" lon="1.0612">
        <ele>74</ele>
        <time>2019-12-30T13:53:35.000Z</time>
      </trkpt>
      <trkpt lat="49.34015" lon="1.06122">
        <ele>74</ele>
        <time>2019-12-30T13:53:36.000Z</time>
      </trkpt>
      <trkpt lat="49.34016" lon="1.06125">
        <ele>74</ele>
        <time>2019-12-30T13:53:37.000Z</time>
      </trkpt>
      <trkpt lat="49.34016" lon="1.06127">
        <ele>74</ele>
        <time>2019-12-30T13:53:38.000Z</time>
      </trkpt>
      <trkpt lat="49.34016" lon="1.0613">
        <ele>74</ele>
        <time>2019-12-30T13:53:39.000Z</time>
      </trkpt>
      <trkpt lat="49.34015" lon="1.06133">
        <ele>74</ele>
        <time>2019-12-30T13:53:40.000Z</time>
      </trkpt>
      <trkpt lat="49.34015" lon="1.06134">
        <ele>74</ele>
        <time>2019-12-30T13:53:41.000Z</time>
      </trkpt>
      <trkpt lat="49.34015" lon="1.06136">
        <ele>74</ele>
        <time>2019-12-30T13:53:42.000Z</time>
      </trkpt>
      <trkpt lat="49.34014" lon="1.06138">
        <ele>74</ele>
        <time>2019-12-30T13:53:43.000Z</time>
      </trkpt>
      <trkpt lat="49.34014" lon="1.0614">
        <ele>74</ele>
        <time>2019-12-30T13:53:44.000Z</time>
      </trkpt>
      <trkpt lat="49.34014" lon="1.06142">
        <ele>74</ele>
        <time>2019-12-30T13:53:45.000Z</time>
      </trkpt>
      <trkpt lat="49.34013" lon="1.06144">
        <ele>74</ele>
        <time>2019-12-30T13:53:46.000Z</time>
      </trkpt>
      <trkpt lat="49.34013" lon="1.06146">
        <ele>74</ele>
        <time>2019-12-30T13:53:47.000Z</time>
      </trkpt>
      <trkpt lat="49.34012" lon="1.06149">
        <ele>73</ele>
        <time>2019-12-30T13:53:48.000Z</time>
      </trkpt>
      <trkpt lat="49.34011" lon="1.06151">
        <ele>73</ele>
        <time>2019-12-30T13:53:49.000Z</time>
      </trkpt>
      <trkpt lat="49.3401" lon="1.06152">
        <ele>73</ele>
        <time>2019-12-30T13:53:50.000Z</time>
      </trkpt>
      <trkpt lat="49.34009" lon="1.06155">
        <ele>73</ele>
        <time>2019-12-30T13:53:51.000Z</time>
      </trkpt>
      <trkpt lat="49.34009" lon="1.06157">
        <ele>73</ele>
        <time>2019-12-30T13:53:52.000Z</time>
      </trkpt>
      <trkpt lat="49.34009" lon="1.06159">
        <ele>73</ele>
        <time>2019-12-30T13:53:53.000Z</time>
      </trkpt>
      <trkpt lat="49.34009" lon="1.06162">
        <ele>73</ele>
        <time>2019-12-30T13:53:54.000Z</time>
      </trkpt>
      <trkpt lat="49.34008" lon="1.06165">
        <ele>73</ele>
        <time>2019-12-30T13:53:55.000Z</time>
      </trkpt>
      <trkpt lat="49.34007" lon="1.06168">
        <ele>73</ele>
        <time>2019-12-30T13:53:56.000Z</time>
      </trkpt>
      <trkpt lat="49.34007" lon="1.06172">
        <ele>72</ele>
        <time>2019-12-30T13:53:57.000Z</time>
      </trkpt>
      <trkpt lat="49.34005" lon="1.06175">
        <ele>72</ele>
        <time>2019-12-30T13:53:58.000Z</time>
      </trkpt>
      <trkpt lat="49.34004" lon="1.06178">
        <ele>72</ele>
        <time>2019-12-30T13:53:59.000Z</time>
      </trkpt>
      <trkpt lat="49.34003" lon="1.0618">
        <ele>72</ele>
        <time>2019-12-30T13:54:00.000Z</time>
      </trkpt>
      <trkpt lat="49.34002" lon="1.06181">
        <ele>72</ele>
        <time>2019-12-30T13:54:01.000Z</time>
      </trkpt>
      <trkpt lat="49.34" lon="1.06182">
        <ele>72</ele>
        <time>2019-12-30T13:54:02.000Z</time>
      </trkpt>
      <trkpt lat="49.33999" lon="1.06182">
        <ele>72</ele>
        <time>2019-12-30T13:54:03.000Z</time>
      </trkpt>
      <trkpt lat="49.33997" lon="1.06183">
        <ele>72</ele>
        <time>2019-12-30T13:54:04.000Z</time>
      </trkpt>
      <trkpt lat="49.33996" lon="1.06182">
        <ele>72</ele>
        <time>2019-12-30T13:54:05.000Z</time>
      </trkpt>
      <trkpt lat="49.33995" lon="1.06181">
        <ele>72</ele>
        <time>2019-12-30T13:54:06.000Z</time>
      </trkpt>
      <trkpt lat="49.33995" lon="1.06179">
        <ele>73</ele>
        <time>2019-12-30T13:54:07.000Z</time>
      </trkpt>
      <trkpt lat="49.33995" lon="1.06178">
        <ele>73</ele>
        <time>2019-12-30T13:54:08.000Z</time>
      </trkpt>
      <trkpt lat="49.33996" lon="1.06175">
        <ele>73</ele>
        <time>2019-12-30T13:54:09.000Z</time>
      </trkpt>
      <trkpt lat="49.33997" lon="1.06174">
        <ele>73</ele>
        <time>2019-12-30T13:54:10.000Z</time>
      </trkpt>
      <trkpt lat="49.33998" lon="1.06172">
        <ele>73</ele>
        <time>2019-12-30T13:54:11.000Z</time>
      </trkpt>
      <trkpt lat="49.33999" lon="1.06171">
        <ele>73</ele>
        <time>2019-12-30T13:54:12.000Z</time>
      </trkpt>
      <trkpt lat="49.33999" lon="1.06169">
        <ele>73</ele>
        <time>2019-12-30T13:54:13.000Z</time>
      </trkpt>
      <trkpt lat="49.33999" lon="1.06167">
        <ele>73</ele>
        <time>2019-12-30T13:54:14.000Z</time>
      </trkpt>
      <trkpt lat="49.33998" lon="1.06165">
        <ele>74</ele>
        <time>2019-12-30T13:54:15.000Z</time>
      </trkpt>
      <trkpt lat="49.33999" lon="1.06163">
        <ele>74</ele>
        <time>2019-12-30T13:54:16.000Z</time>
      </trkpt>
      <trkpt lat="49.33998" lon="1.0616">
        <ele>74</ele>
        <time>2019-12-30T13:54:17.000Z</time>
      </trkpt>
      <trkpt lat="49.33998" lon="1.06157">
        <ele>74</ele>
        <time>2019-12-30T13:54:18.000Z</time>
      </trkpt>
      <trkpt lat="49.33998" lon="1.06155">
        <ele>74</ele>
        <time>2019-12-30T13:54:19.000Z</time>
      </trkpt>
      <trkpt lat="49.33998" lon="1.06152">
        <ele>74</ele>
        <time>2019-12-30T13:54:20.000Z</time>
      </trkpt>
      <trkpt lat="49.33998" lon="1.06148">
        <ele>74</ele>
        <time>2019-12-30T13:54:21.000Z</time>
      </trkpt>
      <trkpt lat="49.33998" lon="1.06146">
        <ele>75</ele>
        <time>2019-12-30T13:54:22.000Z</time>
      </trkpt>
      <trkpt lat="49.33997" lon="1.06143">
        <ele>75</ele>
        <time>2019-12-30T13:54:23.000Z</time>
      </trkpt>
      <trkpt lat="49.33997" lon="1.06141">
        <ele>75</ele>
        <time>2019-12-30T13:54:24.000Z</time>
      </trkpt>
      <trkpt lat="49.33996" lon="1.06139">
        <ele>75</ele>
        <time>2019-12-30T13:54:25.000Z</time>
      </trkpt>
      <trkpt lat="49.33995" lon="1.06136">
        <ele>75</ele>
        <time>2019-12-30T13:54:26.000Z</time>
      </trkpt>
      <trkpt lat="49.33995" lon="1.06133">
        <ele>76</ele>
        <time>2019-12-30T13:54:27.000Z</time>
      </trkpt>
      <trkpt lat="49.33994" lon="1.06132">
        <ele>76</ele>
        <time>2019-12-30T13:54:28.000Z</time>
      </trkpt>
      <trkpt lat="49.33994" lon="1.0613">
        <ele>76</ele>
        <time>2019-12-30T13:54:29.000Z</time>
      </trkpt>
      <trkpt lat="49.33993" lon="1.06128">
        <ele>76</ele>
        <time>2019-12-30T13:54:30.000Z</time>
      </trkpt>
      <trkpt lat="49.33992" lon="1.06125">
        <ele>76</ele>
        <time>2019-12-30T13:54:31.000Z</time>
      </trkpt>
      <trkpt lat="49.33992" lon="1.06123">
        <ele>76</ele>
        <time>2019-12-30T13:54:32.000Z</time>
      </trkpt>
      <trkpt lat="49.33991" lon="1.06121">
        <ele>76</ele>
        <time>2019-12-30T13:54:33.000Z</time>
      </trkpt>
      <trkpt lat="49.3399" lon="1.06119">
        <ele>77</ele>
        <time>2019-12-30T13:54:34.000Z</time>
      </trkpt>
      <trkpt lat="49.3399" lon="1.06116">
        <ele>77</ele>
        <time>2019-12-30T13:54:35.000Z</time>
      </trkpt>
      <trkpt lat="49.33989" lon="1.06115">
        <ele>77</ele>
        <time>2019-12-30T13:54:36.000Z</time>
      </trkpt>
      <trkpt lat="49.33989" lon="1.06113">
        <ele>77</ele>
        <time>2019-12-30T13:54:37.000Z</time>
      </trkpt>
      <trkpt lat="49.33989" lon="1.06112">
        <ele>77</ele>
        <time>2019-12-30T13:54:38.000Z</time>
      </trkpt>
      <trkpt lat="49.33988" lon="1.0611">
        <ele>78</ele>
        <time>2019-12-30T13:54:39.000Z</time>
      </trkpt>
      <trkpt lat="49.33988" lon="1.06108">
        <ele>78</ele>
        <time>2019-12-30T13:54:40.000Z</time>
      </trkpt>
      <trkpt lat="49.33988" lon="1.06106">
        <ele>78</ele>
        <time>2019-12-30T13:54:41.000Z</time>
      </trkpt>
      <trkpt lat="49.33988" lon="1.06103">
        <ele>79</ele>
        <time>2019-12-30T13:54:42.000Z</time>
      </trkpt>
      <trkpt lat="49.33989" lon="1.06101">
        <ele>79</ele>
        <time>2019-12-30T13:54:43.000Z</time>
      </trkpt>
      <trkpt lat="49.33989" lon="1.06099">
        <ele>79</ele>
        <time>2019-12-30T13:54:44.000Z</time>
      </trkpt>
      <trkpt lat="49.3399" lon="1.06097">
        <ele>80</ele>
        <time>2019-12-30T13:54:45.000Z</time>
      </trkpt>
      <trkpt lat="49.3399" lon="1.06095">
        <ele>80</ele>
        <time>2019-12-30T13:54:46.000Z</time>
      </trkpt>
      <trkpt lat="49.3399" lon="1.06092">
        <ele>80</ele>
        <time>2019-12-30T13:54:47.000Z</time>
      </trkpt>
      <trkpt lat="49.3399" lon="1.06091">
        <ele>81</ele>
        <time>2019-12-30T13:54:48.000Z</time>
      </trkpt>
      <trkpt lat="49.33989" lon="1.06089">
        <ele>81</ele>
        <time>2019-12-30T13:54:49.000Z</time>
      </trkpt>
      <trkpt lat="49.33988" lon="1.06086">
        <ele>81</ele>
        <time>2019-12-30T13:54:50.000Z</time>
      </trkpt>
      <trkpt lat="49.33988" lon="1.06083">
        <ele>81</ele>
        <time>2019-12-30T13:54:51.000Z</time>
      </trkpt>
      <trkpt lat="49.33987" lon="1.06081">
        <ele>81</ele>
        <time>2019-12-30T13:54:52.000Z</time>
      </trkpt>
      <trkpt lat="49.33986" lon="1.06079">
        <ele>81</ele>
        <time>2019-12-30T13:54:53.000Z</time>
      </trkpt>
      <trkpt lat="49.33986" lon="1.06076">
        <ele>81</ele>
        <time>2019-12-30T13:54:54.000Z</time>
      </trkpt>
      <trkpt lat="49.33986" lon="1.06073">
        <ele>81</ele>
        <time>2019-12-30T13:54:55.000Z</time>
      </trkpt>
      <trkpt lat="49.33986" lon="1.06071">
        <ele>81</ele>
        <time>2019-12-30T13:54:56.000Z</time>
      </trkpt>
      <trkpt lat="49.33987" lon="1.06069">
        <ele>82</ele>
        <time>2019-12-30T13:54:57.000Z</time>
      </trkpt>
      <trkpt lat="49.33988" lon="1.06066">
        <ele>82</ele>
        <time>2019-12-30T13:54:58.000Z</time>
      </trkpt>
      <trkpt lat="49.33989" lon="1.06063">
        <ele>82</ele>
        <time>2019-12-30T13:54:59.000Z</time>
      </trkpt>
      <trkpt lat="49.3399" lon="1.0606">
        <ele>82</ele>
        <time>2019-12-30T13:55:00.000Z</time>
      </trkpt>
      <trkpt lat="49.3399" lon="1.06057">
        <ele>82</ele>
        <time>2019-12-30T13:55:01.000Z</time>
      </trkpt>
      <trkpt lat="49.33991" lon="1.06054">
        <ele>83</ele>
        <time>2019-12-30T13:55:02.000Z</time>
      </trkpt>
      <trkpt lat="49.3399" lon="1.06051">
        <ele>83</ele>
        <time>2019-12-30T13:55:03.000Z</time>
      </trkpt>
      <trkpt lat="49.3399" lon="1.06048">
        <ele>83</ele>
        <time>2019-12-30T13:55:04.000Z</time>
      </trkpt>
      <trkpt lat="49.33991" lon="1.06045">
        <ele>84</ele>
        <time>2019-12-30T13:55:05.000Z</time>
      </trkpt>
      <trkpt lat="49.3399" lon="1.06043">
        <ele>84</ele>
        <time>2019-12-30T13:55:06.000Z</time>
      </trkpt>
      <trkpt lat="49.3399" lon="1.0604">
        <ele>84</ele>
        <time>2019-12-30T13:55:07.000Z</time>
      </trkpt>
      <trkpt lat="49.3399" lon="1.06037">
        <ele>85</ele>
        <time>2019-12-30T13:55:08.000Z</time>
      </trkpt>
      <trkpt lat="49.33991" lon="1.06034">
        <ele>85</ele>
        <time>2019-12-30T13:55:09.000Z</time>
      </trkpt>
      <trkpt lat="49.33991" lon="1.06032">
        <ele>85</ele>
        <time>2019-12-30T13:55:10.000Z</time>
      </trkpt>
      <trkpt lat="49.33991" lon="1.06028">
        <ele>86</ele>
        <time>2019-12-30T13:55:11.000Z</time>
      </trkpt>
      <trkpt lat="49.3399" lon="1.06025">
        <ele>86</ele>
        <time>2019-12-30T13:55:12.000Z</time>
      </trkpt>
      <trkpt lat="49.3399" lon="1.06022">
        <ele>86</ele>
        <time>2019-12-30T13:55:13.000Z</time>
      </trkpt>
      <trkpt lat="49.33991" lon="1.06018">
        <ele>87</ele>
        <time>2019-12-30T13:55:14.000Z</time>
      </trkpt>
      <trkpt lat="49.3399" lon="1.06014">
        <ele>87</ele>
        <time>2019-12-30T13:55:15.000Z</time>
      </trkpt>
      <trkpt lat="49.3399" lon="1.06011">
        <ele>87</ele>
        <time>2019-12-30T13:55:16.000Z</time>
      </trkpt>
      <trkpt lat="49.3399" lon="1.06007">
        <ele>88</ele>
        <time>2019-12-30T13:55:17.000Z</time>
      </trkpt>
      <trkpt lat="49.3399" lon="1.06004">
        <ele>88</ele>
        <time>2019-12-30T13:55:18.000Z</time>
      </trkpt>
      <trkpt lat="49.33989" lon="1.06001">
        <ele>88</ele>
        <time>2019-12-30T13:55:19.000Z</time>
      </trkpt>
      <trkpt lat="49.3399" lon="1.05998">
        <ele>89</ele>
        <time>2019-12-30T13:55:20.000Z</time>
      </trkpt>
      <trkpt lat="49.33991" lon="1.05996">
        <ele>89</ele>
        <time>2019-12-30T13:55:21.000Z</time>
      </trkpt>
      <trkpt lat="49.33992" lon="1.05994">
        <ele>89</ele>
        <time>2019-12-30T13:55:22.000Z</time>
      </trkpt>
      <trkpt lat="49.33993" lon="1.05991">
        <ele>89</ele>
        <time>2019-12-30T13:55:23.000Z</time>
      </trkpt>
      <trkpt lat="49.33994" lon="1.05988">
        <ele>90</ele>
        <time>2019-12-30T13:55:24.000Z</time>
      </trkpt>
      <trkpt lat="49.33994" lon="1.05984">
        <ele>90</ele>
        <time>2019-12-30T13:55:25.000Z</time>
      </trkpt>
      <trkpt lat="49.33995" lon="1.0598">
        <ele>90</ele>
        <time>2019-12-30T13:55:26.000Z</time>
      </trkpt>
      <trkpt lat="49.33995" lon="1.05976">
        <ele>91</ele>
        <time>2019-12-30T13:55:27.000Z</time>
      </trkpt>
      <trkpt lat="49.33994" lon="1.05972">
        <ele>91</ele>
        <time>2019-12-30T13:55:28.000Z</time>
      </trkpt>
      <trkpt lat="49.33994" lon="1.05968">
        <ele>91</ele>
        <time>2019-12-30T13:55:29.000Z</time>
      </trkpt>
      <trkpt lat="49.33994" lon="1.05964">
        <ele>91</ele>
        <time>2019-12-30T13:55:30.000Z</time>
      </trkpt>
      <trkpt lat="49.33994" lon="1.0596">
        <ele>92</ele>
        <time>2019-12-30T13:55:31.000Z</time>
      </trkpt>
      <trkpt lat="49.33994" lon="1.05956">
        <ele>92</ele>
        <time>2019-12-30T13:55:32.000Z</time>
      </trkpt>
      <trkpt lat="49.33994" lon="1.05952">
        <ele>92</ele>
        <time>2019-12-30T13:55:33.000Z</time>
      </trkpt>
      <trkpt lat="49.33994" lon="1.05948">
        <ele>93</ele>
        <time>2019-12-30T13:55:34.000Z</time>
      </trkpt>
      <trkpt lat="49.33994" lon="1.05945">
        <ele>93</ele>
        <time>2019-12-30T13:55:35.000Z</time>
      </trkpt>
      <trkpt lat="49.33994" lon="1.05941">
        <ele>93</ele>
        <time>2019-12-30T13:55:36.000Z</time>
      </trkpt>
      <trkpt lat="49.33993" lon="1.05938">
        <ele>93</ele>
        <time>2019-12-30T13:55:37.000Z</time>
      </trkpt>
      <trkpt lat="49.33993" lon="1.05934">
        <ele>93</ele>
        <time>2019-12-30T13:55:38.000Z</time>
      </trkpt>
      <trkpt lat="49.33992" lon="1.05932">
        <ele>93</ele>
        <time>2019-12-30T13:55:39.000Z</time>
      </trkpt>
      <trkpt lat="49.33992" lon="1.05928">
        <ele>93</ele>
        <time>2019-12-30T13:55:40.000Z</time>
      </trkpt>
      <trkpt lat="49.33991" lon="1.05925">
        <ele>93</ele>
        <time>2019-12-30T13:55:41.000Z</time>
      </trkpt>
      <trkpt lat="49.33991" lon="1.05921">
        <ele>93</ele>
        <time>2019-12-30T13:55:42.000Z</time>
      </trkpt>
      <trkpt lat="49.33991" lon="1.05918">
        <ele>93</ele>
        <time>2019-12-30T13:55:43.000Z</time>
      </trkpt>
      <trkpt lat="49.33991" lon="1.05914">
        <ele>93</ele>
        <time>2019-12-30T13:55:44.000Z</time>
      </trkpt>
      <trkpt lat="49.33991" lon="1.05911">
        <ele>93</ele>
        <time>2019-12-30T13:55:45.000Z</time>
      </trkpt>
      <trkpt lat="49.33991" lon="1.05908">
        <ele>93</ele>
        <time>2019-12-30T13:55:46.000Z</time>
      </trkpt>
      <trkpt lat="49.33991" lon="1.05905">
        <ele>93</ele>
        <time>2019-12-30T13:55:47.000Z</time>
      </trkpt>
      <trkpt lat="49.3399" lon="1.05902">
        <ele>93</ele>
        <time>2019-12-30T13:55:48.000Z</time>
      </trkpt>
      <trkpt lat="49.33989" lon="1.059">
        <ele>93</ele>
        <time>2019-12-30T13:55:49.000Z</time>
      </trkpt>
      <trkpt lat="49.33988" lon="1.05897">
        <ele>93</ele>
        <time>2019-12-30T13:55:50.000Z</time>
      </trkpt>
      <trkpt lat="49.33988" lon="1.05894">
        <ele>93</ele>
        <time>2019-12-30T13:55:51.000Z</time>
      </trkpt>
      <trkpt lat="49.33987" lon="1.05891">
        <ele>93</ele>
        <time>2019-12-30T13:55:52.000Z</time>
      </trkpt>
      <trkpt lat="49.33986" lon="1.05888">
        <ele>93</ele>
        <time>2019-12-30T13:55:53.000Z</time>
      </trkpt>
      <trkpt lat="49.33986" lon="1.05885">
        <ele>93</ele>
        <time>2019-12-30T13:55:54.000Z</time>
      </trkpt>
      <trkpt lat="49.33985" lon="1.05883">
        <ele>93</ele>
        <time>2019-12-30T13:55:55.000Z</time>
      </trkpt>
      <trkpt lat="49.33985" lon="1.0588">
        <ele>93</ele>
        <time>2019-12-30T13:55:56.000Z</time>
      </trkpt>
      <trkpt lat="49.33985" lon="1.05877">
        <ele>92</ele>
        <time>2019-12-30T13:55:57.000Z</time>
      </trkpt>
      <trkpt lat="49.33985" lon="1.05875">
        <ele>92</ele>
        <time>2019-12-30T13:55:58.000Z</time>
      </trkpt>
      <trkpt lat="49.33985" lon="1.05872">
        <ele>92</ele>
        <time>2019-12-30T13:55:59.000Z</time>
      </trkpt>
      <trkpt lat="49.33984" lon="1.0587">
        <ele>92</ele>
        <time>2019-12-30T13:56:00.000Z</time>
      </trkpt>
      <trkpt lat="49.33983" lon="1.05867">
        <ele>92</ele>
        <time>2019-12-30T13:56:01.000Z</time>
      </trkpt>
      <trkpt lat="49.33983" lon="1.05864">
        <ele>92</ele>
        <time>2019-12-30T13:56:02.000Z</time>
      </trkpt>
      <trkpt lat="49.33982" lon="1.0586">
        <ele>92</ele>
        <time>2019-12-30T13:56:03.000Z</time>
      </trkpt>
      <trkpt lat="49.33981" lon="1.05857">
        <ele>92</ele>
        <time>2019-12-30T13:56:04.000Z</time>
      </trkpt>
      <trkpt lat="49.3398" lon="1.05855">
        <ele>92</ele>
        <time>2019-12-30T13:56:05.000Z</time>
      </trkpt>
      <trkpt lat="49.33978" lon="1.05853">
        <ele>92</ele>
        <time>2019-12-30T13:56:06.000Z</time>
      </trkpt>
      <trkpt lat="49.33976" lon="1.05851">
        <ele>92</ele>
        <time>2019-12-30T13:56:07.000Z</time>
      </trkpt>
      <trkpt lat="49.33975" lon="1.05849">
        <ele>92</ele>
        <time>2019-12-30T13:56:08.000Z</time>
      </trkpt>
      <trkpt lat="49.33974" lon="1.05847">
        <ele>92</ele>
        <time>2019-12-30T13:56:09.000Z</time>
      </trkpt>
      <trkpt lat="49.33974" lon="1.05845">
        <ele>92</ele>
        <time>2019-12-30T13:56:10.000Z</time>
      </trkpt>
      <trkpt lat="49.33974" lon="1.05843">
        <ele>93</ele>
        <time>2019-12-30T13:56:11.000Z</time>
      </trkpt>
      <trkpt lat="49.33973" lon="1.0584">
        <ele>93</ele>
        <time>2019-12-30T13:56:12.000Z</time>
      </trkpt>
      <trkpt lat="49.33972" lon="1.05838">
        <ele>93</ele>
        <time>2019-12-30T13:56:13.000Z</time>
      </trkpt>
      <trkpt lat="49.33972" lon="1.05835">
        <ele>93</ele>
        <time>2019-12-30T13:56:14.000Z</time>
      </trkpt>
      <trkpt lat="49.33971" lon="1.05833">
        <ele>93</ele>
        <time>2019-12-30T13:56:15.000Z</time>
      </trkpt>
      <trkpt lat="49.3397" lon="1.05831">
        <ele>93</ele>
        <time>2019-12-30T13:56:16.000Z</time>
      </trkpt>
      <trkpt lat="49.33969" lon="1.0583">
        <ele>93</ele>
        <time>2019-12-30T13:56:17.000Z</time>
      </trkpt>
      <trkpt lat="49.33968" lon="1.0583">
        <ele>93</ele>
        <time>2019-12-30T13:56:18.000Z</time>
      </trkpt>
      <trkpt lat="49.33965" lon="1.05829">
        <ele>93</ele>
        <time>2019-12-30T13:56:19.000Z</time>
      </trkpt>
      <trkpt lat="49.33963" lon="1.05827">
        <ele>93</ele>
        <time>2019-12-30T13:56:20.000Z</time>
      </trkpt>
      <trkpt lat="49.33961" lon="1.05825">
        <ele>94</ele>
        <time>2019-12-30T13:56:21.000Z</time>
      </trkpt>
      <trkpt lat="49.3396" lon="1.05824">
        <ele>94</ele>
        <time>2019-12-30T13:56:22.000Z</time>
      </trkpt>
      <trkpt lat="49.33959" lon="1.05822">
        <ele>94</ele>
        <time>2019-12-30T13:56:23.000Z</time>
      </trkpt>
      <trkpt lat="49.33958" lon="1.05819">
        <ele>94</ele>
        <time>2019-12-30T13:56:24.000Z</time>
      </trkpt>
      <trkpt lat="49.33958" lon="1.05816">
        <ele>94</ele>
        <time>2019-12-30T13:56:25.000Z</time>
      </trkpt>
      <trkpt lat="49.33959" lon="1.05813">
        <ele>94</ele>
        <time>2019-12-30T13:56:26.000Z</time>
      </trkpt>
      <trkpt lat="49.3396" lon="1.0581">
        <ele>94</ele>
        <time>2019-12-30T13:56:27.000Z</time>
      </trkpt>
      <trkpt lat="49.33961" lon="1.05808">
        <ele>94</ele>
        <time>2019-12-30T13:56:28.000Z</time>
      </trkpt>
      <trkpt lat="49.33963" lon="1.05806">
        <ele>94</ele>
        <time>2019-12-30T13:56:29.000Z</time>
      </trkpt>
      <trkpt lat="49.33965" lon="1.05804">
        <ele>94</ele>
        <time>2019-12-30T13:56:30.000Z</time>
      </trkpt>
      <trkpt lat="49.33968" lon="1.05802">
        <ele>94</ele>
        <time>2019-12-30T13:56:31.000Z</time>
      </trkpt>
      <trkpt lat="49.3397" lon="1.058">
        <ele>95</ele>
        <time>2019-12-30T13:56:32.000Z</time>
      </trkpt>
      <trkpt lat="49.33972" lon="1.05796">
        <ele>95</ele>
        <time>2019-12-30T13:56:33.000Z</time>
      </trkpt>
      <trkpt lat="49.33974" lon="1.05793">
        <ele>95</ele>
        <time>2019-12-30T13:56:34.000Z</time>
      </trkpt>
      <trkpt lat="49.33976" lon="1.05792">
        <ele>96</ele>
        <time>2019-12-30T13:56:35.000Z</time>
      </trkpt>
      <trkpt lat="49.33978" lon="1.05791">
        <ele>96</ele>
        <time>2019-12-30T13:56:36.000Z</time>
      </trkpt>
      <trkpt lat="49.3398" lon="1.05789">
        <ele>96</ele>
        <time>2019-12-30T13:56:37.000Z</time>
      </trkpt>
      <trkpt lat="49.33982" lon="1.05787">
        <ele>97</ele>
        <time>2019-12-30T13:56:38.000Z</time>
      </trkpt>
      <trkpt lat="49.33984" lon="1.05785">
        <ele>97</ele>
        <time>2019-12-30T13:56:39.000Z</time>
      </trkpt>
      <trkpt lat="49.33986" lon="1.05782">
        <ele>97</ele>
        <time>2019-12-30T13:56:40.000Z</time>
      </trkpt>
      <trkpt lat="49.33986" lon="1.05777">
        <ele>97</ele>
        <time>2019-12-30T13:56:41.000Z</time>
      </trkpt>
      <trkpt lat="49.33986" lon="1.05772">
        <ele>97</ele>
        <time>2019-12-30T13:56:42.000Z</time>
      </trkpt>
      <trkpt lat="49.33986" lon="1.05766">
        <ele>97</ele>
        <time>2019-12-30T13:56:43.000Z</time>
      </trkpt>
      <trkpt lat="49.33987" lon="1.05761">
        <ele>97</ele>
        <time>2019-12-30T13:56:44.000Z</time>
      </trkpt>
      <trkpt lat="49.33989" lon="1.05756">
        <ele>97</ele>
        <time>2019-12-30T13:56:45.000Z</time>
      </trkpt>
      <trkpt lat="49.3399" lon="1.05751">
        <ele>98</ele>
        <time>2019-12-30T13:56:46.000Z</time>
      </trkpt>
      <trkpt lat="49.33993" lon="1.05747">
        <ele>98</ele>
        <time>2019-12-30T13:56:47.000Z</time>
      </trkpt>
      <trkpt lat="49.33997" lon="1.05744">
        <ele>98</ele>
        <time>2019-12-30T13:56:48.000Z</time>
      </trkpt>
      <trkpt lat="49.34" lon="1.0574">
        <ele>98</ele>
        <time>2019-12-30T13:56:49.000Z</time>
      </trkpt>
      <trkpt lat="49.34002" lon="1.05736">
        <ele>98</ele>
        <time>2019-12-30T13:56:50.000Z</time>
      </trkpt>
      <trkpt lat="49.34004" lon="1.05732">
        <ele>98</ele>
        <time>2019-12-30T13:56:51.000Z</time>
      </trkpt>
      <trkpt lat="49.34004" lon="1.05727">
        <ele>98</ele>
        <time>2019-12-30T13:56:52.000Z</time>
      </trkpt>
      <trkpt lat="49.34004" lon="1.05721">
        <ele>98</ele>
        <time>2019-12-30T13:56:53.000Z</time>
      </trkpt>
      <trkpt lat="49.34004" lon="1.05718">
        <ele>98</ele>
        <time>2019-12-30T13:56:54.000Z</time>
      </trkpt>
      <trkpt lat="49.34003" lon="1.05717">
        <ele>98</ele>
        <time>2019-12-30T13:56:55.000Z</time>
      </trkpt>
      <trkpt lat="49.34003" lon="1.05716">
        <ele>98</ele>
        <time>2019-12-30T13:56:56.000Z</time>
      </trkpt>
      <trkpt lat="49.34003" lon="1.05715">
        <ele>98</ele>
        <time>2019-12-30T13:56:57.000Z</time>
      </trkpt>
      <trkpt lat="49.33994" lon="1.05702">
        <ele>97</ele>
        <time>2019-12-30T13:56:58.000Z</time>
      </trkpt>
      <trkpt lat="49.33993" lon="1.057">
        <ele>97</ele>
        <time>2019-12-30T13:56:59.000Z</time>
      </trkpt>
      <trkpt lat="49.33992" lon="1.05697">
        <ele>97</ele>
        <time>2019-12-30T13:57:00.000Z</time>
      </trkpt>
      <trkpt lat="49.3399" lon="1.05695">
        <ele>96</ele>
        <time>2019-12-30T13:57:01.000Z</time>
      </trkpt>
      <trkpt lat="49.33988" lon="1.05693">
        <ele>96</ele>
        <time>2019-12-30T13:57:02.000Z</time>
      </trkpt>
      <trkpt lat="49.33986" lon="1.0569">
        <ele>96</ele>
        <time>2019-12-30T13:57:03.000Z</time>
      </trkpt>
      <trkpt lat="49.33984" lon="1.05687">
        <ele>96</ele>
        <time>2019-12-30T13:57:04.000Z</time>
      </trkpt>
      <trkpt lat="49.33982" lon="1.05684">
        <ele>96</ele>
        <time>2019-12-30T13:57:05.000Z</time>
      </trkpt>
      <trkpt lat="49.33981" lon="1.05683">
        <ele>96</ele>
        <time>2019-12-30T13:57:06.000Z</time>
      </trkpt>
      <trkpt lat="49.3398" lon="1.05682">
        <ele>95</ele>
        <time>2019-12-30T13:57:07.000Z</time>
      </trkpt>
      <trkpt lat="49.33979" lon="1.05681">
        <ele>95</ele>
        <time>2019-12-30T13:57:08.000Z</time>
      </trkpt>
      <trkpt lat="49.33977" lon="1.0568">
        <ele>95</ele>
        <time>2019-12-30T13:57:09.000Z</time>
      </trkpt>
      <trkpt lat="49.33976" lon="1.05676">
        <ele>94</ele>
        <time>2019-12-30T13:57:10.000Z</time>
      </trkpt>
      <trkpt lat="49.33974" lon="1.05673">
        <ele>94</ele>
        <time>2019-12-30T13:57:11.000Z</time>
      </trkpt>
      <trkpt lat="49.33973" lon="1.0567">
        <ele>94</ele>
        <time>2019-12-30T13:57:12.000Z</time>
      </trkpt>
      <trkpt lat="49.33971" lon="1.05668">
        <ele>94</ele>
        <time>2019-12-30T13:57:13.000Z</time>
      </trkpt>
      <trkpt lat="49.3397" lon="1.05667">
        <ele>93</ele>
        <time>2019-12-30T13:57:14.000Z</time>
      </trkpt>
      <trkpt lat="49.33969" lon="1.05665">
        <ele>93</ele>
        <time>2019-12-30T13:57:15.000Z</time>
      </trkpt>
      <trkpt lat="49.33968" lon="1.05664">
        <ele>93</ele>
        <time>2019-12-30T13:57:16.000Z</time>
      </trkpt>
      <trkpt lat="49.33967" lon="1.05663">
        <ele>93</ele>
        <time>2019-12-30T13:57:17.000Z</time>
      </trkpt>
      <trkpt lat="49.33966" lon="1.05663">
        <ele>93</ele>
        <time>2019-12-30T13:57:18.000Z</time>
      </trkpt>
      <trkpt lat="49.33965" lon="1.05664">
        <ele>93</ele>
        <time>2019-12-30T13:57:19.000Z</time>
      </trkpt>
      <trkpt lat="49.33964" lon="1.05664">
        <ele>93</ele>
        <time>2019-12-30T13:57:20.000Z</time>
      </trkpt>
      <trkpt lat="49.33963" lon="1.05664">
        <ele>93</ele>
        <time>2019-12-30T13:57:21.000Z</time>
      </trkpt>
      <trkpt lat="49.33962" lon="1.05663">
        <ele>93</ele>
        <time>2019-12-30T13:57:22.000Z</time>
      </trkpt>
      <trkpt lat="49.3396" lon="1.05662">
        <ele>93</ele>
        <time>2019-12-30T13:57:23.000Z</time>
      </trkpt>
      <trkpt lat="49.33959" lon="1.05662">
        <ele>93</ele>
        <time>2019-12-30T13:57:24.000Z</time>
      </trkpt>
      <trkpt lat="49.33957" lon="1.05661">
        <ele>93</ele>
        <time>2019-12-30T13:57:25.000Z</time>
      </trkpt>
      <trkpt lat="49.33953" lon="1.05661">
        <ele>93</ele>
        <time>2019-12-30T13:57:26.000Z</time>
      </trkpt>
      <trkpt lat="49.33949" lon="1.05661">
        <ele>94</ele>
        <time>2019-12-30T13:57:27.000Z</time>
      </trkpt>
      <trkpt lat="49.33945" lon="1.05661">
        <ele>94</ele>
        <time>2019-12-30T13:57:28.000Z</time>
      </trkpt>
      <trkpt lat="49.33941" lon="1.05661">
        <ele>94</ele>
        <time>2019-12-30T13:57:29.000Z</time>
      </trkpt>
      <trkpt lat="49.33938" lon="1.0566">
        <ele>94</ele>
        <time>2019-12-30T13:57:30.000Z</time>
      </trkpt>
      <trkpt lat="49.33935" lon="1.05659">
        <ele>94</ele>
        <time>2019-12-30T13:57:31.000Z</time>
      </trkpt>
      <trkpt lat="49.33934" lon="1.05658">
        <ele>95</ele>
        <time>2019-12-30T13:57:32.000Z</time>
      </trkpt>
      <trkpt lat="49.33933" lon="1.05657">
        <ele>95</ele>
        <time>2019-12-30T13:57:33.000Z</time>
      </trkpt>
      <trkpt lat="49.33932" lon="1.05654">
        <ele>95</ele>
        <time>2019-12-30T13:57:34.000Z</time>
      </trkpt>
      <trkpt lat="49.33931" lon="1.05653">
        <ele>95</ele>
        <time>2019-12-30T13:57:35.000Z</time>
      </trkpt>
      <trkpt lat="49.3393" lon="1.05652">
        <ele>95</ele>
        <time>2019-12-30T13:57:36.000Z</time>
      </trkpt>
      <trkpt lat="49.33929" lon="1.05652">
        <ele>95</ele>
        <time>2019-12-30T13:57:37.000Z</time>
      </trkpt>
      <trkpt lat="49.33928" lon="1.05652">
        <ele>95</ele>
        <time>2019-12-30T13:57:38.000Z</time>
      </trkpt>
      <trkpt lat="49.33926" lon="1.05652">
        <ele>95</ele>
        <time>2019-12-30T13:57:39.000Z</time>
      </trkpt>
      <trkpt lat="49.33924" lon="1.05652">
        <ele>95</ele>
        <time>2019-12-30T13:57:40.000Z</time>
      </trkpt>
      <trkpt lat="49.33922" lon="1.05652">
        <ele>95</ele>
        <time>2019-12-30T13:57:41.000Z</time>
      </trkpt>
      <trkpt lat="49.3392" lon="1.05652">
        <ele>95</ele>
        <time>2019-12-30T13:57:42.000Z</time>
      </trkpt>
      <trkpt lat="49.33918" lon="1.05652">
        <ele>96</ele>
        <time>2019-12-30T13:57:43.000Z</time>
      </trkpt>
      <trkpt lat="49.33916" lon="1.05653">
        <ele>96</ele>
        <time>2019-12-30T13:57:44.000Z</time>
      </trkpt>
      <trkpt lat="49.33913" lon="1.05653">
        <ele>96</ele>
        <time>2019-12-30T13:57:45.000Z</time>
      </trkpt>
      <trkpt lat="49.33911" lon="1.05654">
        <ele>96</ele>
        <time>2019-12-30T13:57:46.000Z</time>
      </trkpt>
      <trkpt lat="49.3391" lon="1.05655">
        <ele>97</ele>
        <time>2019-12-30T13:57:47.000Z</time>
      </trkpt>
      <trkpt lat="49.33909" lon="1.05656">
        <ele>97</ele>
        <time>2019-12-30T13:57:48.000Z</time>
      </trkpt>
      <trkpt lat="49.33909" lon="1.05657">
        <ele>97</ele>
        <time>2019-12-30T13:57:49.000Z</time>
      </trkpt>
      <trkpt lat="49.33908" lon="1.05657">
        <ele>97</ele>
        <time>2019-12-30T13:57:50.000Z</time>
      </trkpt>
      <trkpt lat="49.33906" lon="1.05658">
        <ele>98</ele>
        <time>2019-12-30T13:57:51.000Z</time>
      </trkpt>
      <trkpt lat="49.33905" lon="1.05658">
        <ele>98</ele>
        <time>2019-12-30T13:57:52.000Z</time>
      </trkpt>
      <trkpt lat="49.33903" lon="1.05658">
        <ele>98</ele>
        <time>2019-12-30T13:57:53.000Z</time>
      </trkpt>
      <trkpt lat="49.33902" lon="1.05658">
        <ele>99</ele>
        <time>2019-12-30T13:57:54.000Z</time>
      </trkpt>
      <trkpt lat="49.33901" lon="1.05658">
        <ele>99</ele>
        <time>2019-12-30T13:57:55.000Z</time>
      </trkpt>
      <trkpt lat="49.33899" lon="1.05659">
        <ele>99</ele>
        <time>2019-12-30T13:57:56.000Z</time>
      </trkpt>
      <trkpt lat="49.33897" lon="1.05658">
        <ele>99</ele>
        <time>2019-12-30T13:57:57.000Z</time>
      </trkpt>
      <trkpt lat="49.33895" lon="1.05659">
        <ele>100</ele>
        <time>2019-12-30T13:57:58.000Z</time>
      </trkpt>
      <trkpt lat="49.33892" lon="1.05659">
        <ele>100</ele>
        <time>2019-12-30T13:57:59.000Z</time>
      </trkpt>
      <trkpt lat="49.33891" lon="1.05659">
        <ele>100</ele>
        <time>2019-12-30T13:58:00.000Z</time>
      </trkpt>
      <trkpt lat="49.3389" lon="1.05658">
        <ele>100</ele>
        <time>2019-12-30T13:58:01.000Z</time>
      </trkpt>
      <trkpt lat="49.33889" lon="1.05657">
        <ele>101</ele>
        <time>2019-12-30T13:58:02.000Z</time>
      </trkpt>
      <trkpt lat="49.33888" lon="1.05657">
        <ele>101</ele>
        <time>2019-12-30T13:58:03.000Z</time>
      </trkpt>
      <trkpt lat="49.33887" lon="1.05656">
        <ele>101</ele>
        <time>2019-12-30T13:58:04.000Z</time>
      </trkpt>
      <trkpt lat="49.33886" lon="1.05655">
        <ele>101</ele>
        <time>2019-12-30T13:58:05.000Z</time>
      </trkpt>
      <trkpt lat="49.33885" lon="1.05653">
        <ele>101</ele>
        <time>2019-12-30T13:58:06.000Z</time>
      </trkpt>
      <trkpt lat="49.33884" lon="1.05651">
        <ele>101</ele>
        <time>2019-12-30T13:58:07.000Z</time>
      </trkpt>
      <trkpt lat="49.33882" lon="1.05649">
        <ele>101</ele>
        <time>2019-12-30T13:58:08.000Z</time>
      </trkpt>
      <trkpt lat="49.33881" lon="1.05646">
        <ele>101</ele>
        <time>2019-12-30T13:58:09.000Z</time>
      </trkpt>
      <trkpt lat="49.33879" lon="1.05644">
        <ele>102</ele>
        <time>2019-12-30T13:58:10.000Z</time>
      </trkpt>
      <trkpt lat="49.33877" lon="1.05643">
        <ele>102</ele>
        <time>2019-12-30T13:58:11.000Z</time>
      </trkpt>
      <trkpt lat="49.33876" lon="1.05642">
        <ele>102</ele>
        <time>2019-12-30T13:58:12.000Z</time>
      </trkpt>
      <trkpt lat="49.33874" lon="1.05641">
        <ele>102</ele>
        <time>2019-12-30T13:58:13.000Z</time>
      </trkpt>
      <trkpt lat="49.33873" lon="1.0564">
        <ele>102</ele>
        <time>2019-12-30T13:58:14.000Z</time>
      </trkpt>
      <trkpt lat="49.33872" lon="1.05638">
        <ele>102</ele>
        <time>2019-12-30T13:58:15.000Z</time>
      </trkpt>
      <trkpt lat="49.33871" lon="1.05636">
        <ele>102</ele>
        <time>2019-12-30T13:58:16.000Z</time>
      </trkpt>
      <trkpt lat="49.3387" lon="1.05634">
        <ele>102</ele>
        <time>2019-12-30T13:58:17.000Z</time>
      </trkpt>
      <trkpt lat="49.33869" lon="1.05632">
        <ele>102</ele>
        <time>2019-12-30T13:58:18.000Z</time>
      </trkpt>
      <trkpt lat="49.33867" lon="1.05631">
        <ele>102</ele>
        <time>2019-12-30T13:58:19.000Z</time>
      </trkpt>
      <trkpt lat="49.33865" lon="1.05631">
        <ele>102</ele>
        <time>2019-12-30T13:58:20.000Z</time>
      </trkpt>
      <trkpt lat="49.33864" lon="1.05632">
        <ele>102</ele>
        <time>2019-12-30T13:58:21.000Z</time>
      </trkpt>
      <trkpt lat="49.33864" lon="1.05632">
        <ele>102</ele>
        <time>2019-12-30T13:58:22.000Z</time>
      </trkpt>
      <trkpt lat="49.33863" lon="1.05632">
        <ele>102</ele>
        <time>2019-12-30T13:58:23.000Z</time>
      </trkpt>
      <trkpt lat="49.33862" lon="1.05632">
        <ele>102</ele>
        <time>2019-12-30T13:58:24.000Z</time>
      </trkpt>
      <trkpt lat="49.33861" lon="1.05633">
        <ele>102</ele>
        <time>2019-12-30T13:58:25.000Z</time>
      </trkpt>
      <trkpt lat="49.33857" lon="1.05636">
        <ele>103</ele>
        <time>2019-12-30T13:58:26.000Z</time>
      </trkpt>
      <trkpt lat="49.33856" lon="1.05636">
        <ele>103</ele>
        <time>2019-12-30T13:58:27.000Z</time>
      </trkpt>
      <trkpt lat="49.33845" lon="1.05632">
        <ele>105</ele>
        <time>2019-12-30T13:58:28.000Z</time>
      </trkpt>
      <trkpt lat="49.33844" lon="1.05629">
        <ele>105</ele>
        <time>2019-12-30T13:58:29.000Z</time>
      </trkpt>
      <trkpt lat="49.33843" lon="1.05627">
        <ele>105</ele>
        <time>2019-12-30T13:58:30.000Z</time>
      </trkpt>
      <trkpt lat="49.33842" lon="1.05625">
        <ele>105</ele>
        <time>2019-12-30T13:58:31.000Z</time>
      </trkpt>
      <trkpt lat="49.33841" lon="1.05624">
        <ele>105</ele>
        <time>2019-12-30T13:58:32.000Z</time>
      </trkpt>
      <trkpt lat="49.3384" lon="1.05623">
        <ele>105</ele>
        <time>2019-12-30T13:58:33.000Z</time>
      </trkpt>
      <trkpt lat="49.33838" lon="1.05621">
        <ele>105</ele>
        <time>2019-12-30T13:58:34.000Z</time>
      </trkpt>
      <trkpt lat="49.33837" lon="1.0562">
        <ele>105</ele>
        <time>2019-12-30T13:58:35.000Z</time>
      </trkpt>
      <trkpt lat="49.33834" lon="1.05618">
        <ele>105</ele>
        <time>2019-12-30T13:58:36.000Z</time>
      </trkpt>
      <trkpt lat="49.33832" lon="1.05617">
        <ele>105</ele>
        <time>2019-12-30T13:58:37.000Z</time>
      </trkpt>
      <trkpt lat="49.3383" lon="1.05615">
        <ele>105</ele>
        <time>2019-12-30T13:58:38.000Z</time>
      </trkpt>
      <trkpt lat="49.33828" lon="1.05614">
        <ele>105</ele>
        <time>2019-12-30T13:58:39.000Z</time>
      </trkpt>
      <trkpt lat="49.33825" lon="1.05614">
        <ele>105</ele>
        <time>2019-12-30T13:58:40.000Z</time>
      </trkpt>
      <trkpt lat="49.33821" lon="1.05612">
        <ele>105</ele>
        <time>2019-12-30T13:58:41.000Z</time>
      </trkpt>
      <trkpt lat="49.33819" lon="1.05611">
        <ele>105</ele>
        <time>2019-12-30T13:58:42.000Z</time>
      </trkpt>
      <trkpt lat="49.33817" lon="1.05611">
        <ele>104</ele>
        <time>2019-12-30T13:58:43.000Z</time>
      </trkpt>
      <trkpt lat="49.33817" lon="1.05611">
        <ele>105</ele>
        <time>2019-12-30T13:58:44.000Z</time>
      </trkpt>
      <trkpt lat="49.33816" lon="1.0561">
        <ele>105</ele>
        <time>2019-12-30T13:58:45.000Z</time>
      </trkpt>
      <trkpt lat="49.33816" lon="1.0561">
        <ele>105</ele>
        <time>2019-12-30T13:58:46.000Z</time>
      </trkpt>
      <trkpt lat="49.33815" lon="1.05609">
        <ele>105</ele>
        <time>2019-12-30T13:58:47.000Z</time>
      </trkpt>
      <trkpt lat="49.338" lon="1.05601">
        <ele>105</ele>
        <time>2019-12-30T13:58:48.000Z</time>
      </trkpt>
      <trkpt lat="49.33799" lon="1.056">
        <ele>105</ele>
        <time>2019-12-30T13:58:49.000Z</time>
      </trkpt>
      <trkpt lat="49.33797" lon="1.05598">
        <ele>105</ele>
        <time>2019-12-30T13:58:50.000Z</time>
      </trkpt>
      <trkpt lat="49.33795" lon="1.05597">
        <ele>105</ele>
        <time>2019-12-30T13:58:51.000Z</time>
      </trkpt>
      <trkpt lat="49.33794" lon="1.05595">
        <ele>105</ele>
        <time>2019-12-30T13:58:52.000Z</time>
      </trkpt>
      <trkpt lat="49.33792" lon="1.05594">
        <ele>105</ele>
        <time>2019-12-30T13:58:53.000Z</time>
      </trkpt>
      <trkpt lat="49.3379" lon="1.05592">
        <ele>105</ele>
        <time>2019-12-30T13:58:54.000Z</time>
      </trkpt>
      <trkpt lat="49.33789" lon="1.05591">
        <ele>105</ele>
        <time>2019-12-30T13:58:55.000Z</time>
      </trkpt>
      <trkpt lat="49.33787" lon="1.0559">
        <ele>105</ele>
        <time>2019-12-30T13:58:56.000Z</time>
      </trkpt>
      <trkpt lat="49.33784" lon="1.0559">
        <ele>105</ele>
        <time>2019-12-30T13:58:57.000Z</time>
      </trkpt>
      <trkpt lat="49.33782" lon="1.05591">
        <ele>106</ele>
        <time>2019-12-30T13:58:58.000Z</time>
      </trkpt>
      <trkpt lat="49.3378" lon="1.05591">
        <ele>106</ele>
        <time>2019-12-30T13:58:59.000Z</time>
      </trkpt>
      <trkpt lat="49.33779" lon="1.0559">
        <ele>106</ele>
        <time>2019-12-30T13:59:00.000Z</time>
      </trkpt>
      <trkpt lat="49.33778" lon="1.05589">
        <ele>106</ele>
        <time>2019-12-30T13:59:01.000Z</time>
      </trkpt>
      <trkpt lat="49.33777" lon="1.05587">
        <ele>106</ele>
        <time>2019-12-30T13:59:02.000Z</time>
      </trkpt>
      <trkpt lat="49.33775" lon="1.05586">
        <ele>106</ele>
        <time>2019-12-30T13:59:03.000Z</time>
      </trkpt>
      <trkpt lat="49.33773" lon="1.05585">
        <ele>107</ele>
        <time>2019-12-30T13:59:04.000Z</time>
      </trkpt>
      <trkpt lat="49.33772" lon="1.05584">
        <ele>107</ele>
        <time>2019-12-30T13:59:05.000Z</time>
      </trkpt>
      <trkpt lat="49.33769" lon="1.05582">
        <ele>107</ele>
        <time>2019-12-30T13:59:06.000Z</time>
      </trkpt>
      <trkpt lat="49.33768" lon="1.05581">
        <ele>107</ele>
        <time>2019-12-30T13:59:07.000Z</time>
      </trkpt>
      <trkpt lat="49.33766" lon="1.05579">
        <ele>107</ele>
        <time>2019-12-30T13:59:08.000Z</time>
      </trkpt>
      <trkpt lat="49.33764" lon="1.05578">
        <ele>107</ele>
        <time>2019-12-30T13:59:09.000Z</time>
      </trkpt>
      <trkpt lat="49.33762" lon="1.05577">
        <ele>108</ele>
        <time>2019-12-30T13:59:10.000Z</time>
      </trkpt>
      <trkpt lat="49.3376" lon="1.05576">
        <ele>108</ele>
        <time>2019-12-30T13:59:11.000Z</time>
      </trkpt>
      <trkpt lat="49.33758" lon="1.05574">
        <ele>108</ele>
        <time>2019-12-30T13:59:12.000Z</time>
      </trkpt>
      <trkpt lat="49.33756" lon="1.05572">
        <ele>108</ele>
        <time>2019-12-30T13:59:13.000Z</time>
      </trkpt>
      <trkpt lat="49.33754" lon="1.0557">
        <ele>108</ele>
        <time>2019-12-30T13:59:14.000Z</time>
      </trkpt>
      <trkpt lat="49.33752" lon="1.05568">
        <ele>108</ele>
        <time>2019-12-30T13:59:15.000Z</time>
      </trkpt>
      <trkpt lat="49.3375" lon="1.05566">
        <ele>109</ele>
        <time>2019-12-30T13:59:16.000Z</time>
      </trkpt>
      <trkpt lat="49.33749" lon="1.05564">
        <ele>109</ele>
        <time>2019-12-30T13:59:17.000Z</time>
      </trkpt>
      <trkpt lat="49.33747" lon="1.05562">
        <ele>109</ele>
        <time>2019-12-30T13:59:18.000Z</time>
      </trkpt>
      <trkpt lat="49.33745" lon="1.05559">
        <ele>109</ele>
        <time>2019-12-30T13:59:19.000Z</time>
      </trkpt>
      <trkpt lat="49.33744" lon="1.05556">
        <ele>109</ele>
        <time>2019-12-30T13:59:20.000Z</time>
      </trkpt>
      <trkpt lat="49.33743" lon="1.05553">
        <ele>109</ele>
        <time>2019-12-30T13:59:21.000Z</time>
      </trkpt>
      <trkpt lat="49.33742" lon="1.0555">
        <ele>110</ele>
        <time>2019-12-30T13:59:22.000Z</time>
      </trkpt>
      <trkpt lat="49.33741" lon="1.05547">
        <ele>110</ele>
        <time>2019-12-30T13:59:23.000Z</time>
      </trkpt>
      <trkpt lat="49.3374" lon="1.05543">
        <ele>110</ele>
        <time>2019-12-30T13:59:24.000Z</time>
      </trkpt>
      <trkpt lat="49.33739" lon="1.05539">
        <ele>110</ele>
        <time>2019-12-30T13:59:25.000Z</time>
      </trkpt>
      <trkpt lat="49.33738" lon="1.05535">
        <ele>110</ele>
        <time>2019-12-30T13:59:26.000Z</time>
      </trkpt>
      <trkpt lat="49.33738" lon="1.05531">
        <ele>110</ele>
        <time>2019-12-30T13:59:27.000Z</time>
      </trkpt>
      <trkpt lat="49.33738" lon="1.05526">
        <ele>110</ele>
        <time>2019-12-30T13:59:28.000Z</time>
      </trkpt>
      <trkpt lat="49.33738" lon="1.05522">
        <ele>110</ele>
        <time>2019-12-30T13:59:29.000Z</time>
      </trkpt>
      <trkpt lat="49.33738" lon="1.05518">
        <ele>110</ele>
        <time>2019-12-30T13:59:30.000Z</time>
      </trkpt>
      <trkpt lat="49.33739" lon="1.05514">
        <ele>110</ele>
        <time>2019-12-30T13:59:31.000Z</time>
      </trkpt>
      <trkpt lat="49.33741" lon="1.05511">
        <ele>110</ele>
        <time>2019-12-30T13:59:32.000Z</time>
      </trkpt>
      <trkpt lat="49.33742" lon="1.05508">
        <ele>110</ele>
        <time>2019-12-30T13:59:33.000Z</time>
      </trkpt>
      <trkpt lat="49.33742" lon="1.05506">
        <ele>111</ele>
        <time>2019-12-30T13:59:34.000Z</time>
      </trkpt>
      <trkpt lat="49.33742" lon="1.05504">
        <ele>111</ele>
        <time>2019-12-30T13:59:35.000Z</time>
      </trkpt>
      <trkpt lat="49.33741" lon="1.05502">
        <ele>111</ele>
        <time>2019-12-30T13:59:36.000Z</time>
      </trkpt>
      <trkpt lat="49.33741" lon="1.055">
        <ele>111</ele>
        <time>2019-12-30T13:59:37.000Z</time>
      </trkpt>
      <trkpt lat="49.33741" lon="1.05497">
        <ele>111</ele>
        <time>2019-12-30T13:59:38.000Z</time>
      </trkpt>
      <trkpt lat="49.33741" lon="1.05494">
        <ele>111</ele>
        <time>2019-12-30T13:59:39.000Z</time>
      </trkpt>
      <trkpt lat="49.33741" lon="1.05493">
        <ele>111</ele>
        <time>2019-12-30T13:59:40.000Z</time>
      </trkpt>
      <trkpt lat="49.3374" lon="1.0549">
        <ele>111</ele>
        <time>2019-12-30T13:59:41.000Z</time>
      </trkpt>
      <trkpt lat="49.33739" lon="1.05488">
        <ele>111</ele>
        <time>2019-12-30T13:59:42.000Z</time>
      </trkpt>
      <trkpt lat="49.33737" lon="1.05486">
        <ele>111</ele>
        <time>2019-12-30T13:59:43.000Z</time>
      </trkpt>
      <trkpt lat="49.33736" lon="1.05484">
        <ele>111</ele>
        <time>2019-12-30T13:59:44.000Z</time>
      </trkpt>
      <trkpt lat="49.33734" lon="1.05481">
        <ele>111</ele>
        <time>2019-12-30T13:59:45.000Z</time>
      </trkpt>
      <trkpt lat="49.33733" lon="1.05477">
        <ele>111</ele>
        <time>2019-12-30T13:59:46.000Z</time>
      </trkpt>
      <trkpt lat="49.33732" lon="1.05475">
        <ele>111</ele>
        <time>2019-12-30T13:59:47.000Z</time>
      </trkpt>
      <trkpt lat="49.33731" lon="1.05472">
        <ele>111</ele>
        <time>2019-12-30T13:59:48.000Z</time>
      </trkpt>
      <trkpt lat="49.3373" lon="1.05469">
        <ele>111</ele>
        <time>2019-12-30T13:59:49.000Z</time>
      </trkpt>
      <trkpt lat="49.33729" lon="1.05465">
        <ele>111</ele>
        <time>2019-12-30T13:59:50.000Z</time>
      </trkpt>
      <trkpt lat="49.33728" lon="1.05462">
        <ele>111</ele>
        <time>2019-12-30T13:59:51.000Z</time>
      </trkpt>
      <trkpt lat="49.33727" lon="1.05458">
        <ele>111</ele>
        <time>2019-12-30T13:59:52.000Z</time>
      </trkpt>
      <trkpt lat="49.33726" lon="1.05454">
        <ele>111</ele>
        <time>2019-12-30T13:59:53.000Z</time>
      </trkpt>
      <trkpt lat="49.33725" lon="1.05451">
        <ele>111</ele>
        <time>2019-12-30T13:59:54.000Z</time>
      </trkpt>
      <trkpt lat="49.33725" lon="1.05448">
        <ele>111</ele>
        <time>2019-12-30T13:59:55.000Z</time>
      </trkpt>
      <trkpt lat="49.33725" lon="1.05444">
        <ele>111</ele>
        <time>2019-12-30T13:59:56.000Z</time>
      </trkpt>
      <trkpt lat="49.33726" lon="1.0544">
        <ele>111</ele>
        <time>2019-12-30T13:59:57.000Z</time>
      </trkpt>
      <trkpt lat="49.33726" lon="1.05436">
        <ele>111</ele>
        <time>2019-12-30T13:59:58.000Z</time>
      </trkpt>
      <trkpt lat="49.33727" lon="1.05432">
        <ele>111</ele>
        <time>2019-12-30T13:59:59.000Z</time>
      </trkpt>
      <trkpt lat="49.33727" lon="1.05429">
        <ele>111</ele>
        <time>2019-12-30T14:00:00.000Z</time>
      </trkpt>
      <trkpt lat="49.33728" lon="1.05425">
        <ele>111</ele>
        <time>2019-12-30T14:00:01.000Z</time>
      </trkpt>
      <trkpt lat="49.33729" lon="1.05423">
        <ele>111</ele>
        <time>2019-12-30T14:00:02.000Z</time>
      </trkpt>
      <trkpt lat="49.33729" lon="1.05422">
        <ele>111</ele>
        <time>2019-12-30T14:00:03.000Z</time>
      </trkpt>
      <trkpt lat="49.33728" lon="1.0542">
        <ele>111</ele>
        <time>2019-12-30T14:00:04.000Z</time>
      </trkpt>
      <trkpt lat="49.33727" lon="1.05419">
        <ele>111</ele>
        <time>2019-12-30T14:00:05.000Z</time>
      </trkpt>
      <trkpt lat="49.33725" lon="1.05419">
        <ele>111</ele>
        <time>2019-12-30T14:00:06.000Z</time>
      </trkpt>
      <trkpt lat="49.33724" lon="1.05418">
        <ele>111</ele>
        <time>2019-12-30T14:00:07.000Z</time>
      </trkpt>
      <trkpt lat="49.33723" lon="1.05418">
        <ele>111</ele>
        <time>2019-12-30T14:00:08.000Z</time>
      </trkpt>
      <trkpt lat="49.33721" lon="1.05417">
        <ele>111</ele>
        <time>2019-12-30T14:00:09.000Z</time>
      </trkpt>
      <trkpt lat="49.3372" lon="1.05416">
        <ele>111</ele>
        <time>2019-12-30T14:00:10.000Z</time>
      </trkpt>
      <trkpt lat="49.33719" lon="1.05414">
        <ele>111</ele>
        <time>2019-12-30T14:00:11.000Z</time>
      </trkpt>
      <trkpt lat="49.33719" lon="1.05412">
        <ele>111</ele>
        <time>2019-12-30T14:00:12.000Z</time>
      </trkpt>
      <trkpt lat="49.33718" lon="1.0541">
        <ele>112</ele>
        <time>2019-12-30T14:00:13.000Z</time>
      </trkpt>
      <trkpt lat="49.33717" lon="1.05407">
        <ele>112</ele>
        <time>2019-12-30T14:00:14.000Z</time>
      </trkpt>
      <trkpt lat="49.33716" lon="1.05404">
        <ele>112</ele>
        <time>2019-12-30T14:00:15.000Z</time>
      </trkpt>
      <trkpt lat="49.33715" lon="1.05403">
        <ele>112</ele>
        <time>2019-12-30T14:00:16.000Z</time>
      </trkpt>
      <trkpt lat="49.33714" lon="1.05402">
        <ele>112</ele>
        <time>2019-12-30T14:00:17.000Z</time>
      </trkpt>
      <trkpt lat="49.33712" lon="1.054">
        <ele>112</ele>
        <time>2019-12-30T14:00:18.000Z</time>
      </trkpt>
      <trkpt lat="49.33711" lon="1.05398">
        <ele>112</ele>
        <time>2019-12-30T14:00:19.000Z</time>
      </trkpt>
      <trkpt lat="49.33709" lon="1.05396">
        <ele>112</ele>
        <time>2019-12-30T14:00:20.000Z</time>
      </trkpt>
      <trkpt lat="49.33708" lon="1.05395">
        <ele>112</ele>
        <time>2019-12-30T14:00:21.000Z</time>
      </trkpt>
      <trkpt lat="49.33706" lon="1.05393">
        <ele>112</ele>
        <time>2019-12-30T14:00:22.000Z</time>
      </trkpt>
      <trkpt lat="49.33704" lon="1.0539">
        <ele>112</ele>
        <time>2019-12-30T14:00:23.000Z</time>
      </trkpt>
      <trkpt lat="49.33703" lon="1.05387">
        <ele>112</ele>
        <time>2019-12-30T14:00:24.000Z</time>
      </trkpt>
      <trkpt lat="49.33702" lon="1.05383">
        <ele>112</ele>
        <time>2019-12-30T14:00:25.000Z</time>
      </trkpt>
      <trkpt lat="49.33701" lon="1.0538">
        <ele>112</ele>
        <time>2019-12-30T14:00:26.000Z</time>
      </trkpt>
      <trkpt lat="49.337" lon="1.05377">
        <ele>112</ele>
        <time>2019-12-30T14:00:27.000Z</time>
      </trkpt>
      <trkpt lat="49.337" lon="1.05374">
        <ele>112</ele>
        <time>2019-12-30T14:00:28.000Z</time>
      </trkpt>
      <trkpt lat="49.33699" lon="1.05371">
        <ele>112</ele>
        <time>2019-12-30T14:00:29.000Z</time>
      </trkpt>
      <trkpt lat="49.33698" lon="1.05367">
        <ele>112</ele>
        <time>2019-12-30T14:00:30.000Z</time>
      </trkpt>
      <trkpt lat="49.33698" lon="1.05364">
        <ele>112</ele>
        <time>2019-12-30T14:00:31.000Z</time>
      </trkpt>
      <trkpt lat="49.33698" lon="1.05361">
        <ele>112</ele>
        <time>2019-12-30T14:00:32.000Z</time>
      </trkpt>
      <trkpt lat="49.33697" lon="1.05358">
        <ele>113</ele>
        <time>2019-12-30T14:00:33.000Z</time>
      </trkpt>
      <trkpt lat="49.33696" lon="1.05355">
        <ele>113</ele>
        <time>2019-12-30T14:00:34.000Z</time>
      </trkpt>
      <trkpt lat="49.33696" lon="1.05352">
        <ele>113</ele>
        <time>2019-12-30T14:00:35.000Z</time>
      </trkpt>
      <trkpt lat="49.33696" lon="1.05347">
        <ele>113</ele>
        <time>2019-12-30T14:00:36.000Z</time>
      </trkpt>
      <trkpt lat="49.33697" lon="1.05342">
        <ele>113</ele>
        <time>2019-12-30T14:00:37.000Z</time>
      </trkpt>
      <trkpt lat="49.33697" lon="1.05337">
        <ele>113</ele>
        <time>2019-12-30T14:00:38.000Z</time>
      </trkpt>
      <trkpt lat="49.33697" lon="1.05332">
        <ele>113</ele>
        <time>2019-12-30T14:00:39.000Z</time>
      </trkpt>
      <trkpt lat="49.33696" lon="1.05328">
        <ele>113</ele>
        <time>2019-12-30T14:00:40.000Z</time>
      </trkpt>
      <trkpt lat="49.33695" lon="1.05324">
        <ele>113</ele>
        <time>2019-12-30T14:00:41.000Z</time>
      </trkpt>
      <trkpt lat="49.33695" lon="1.05319">
        <ele>113</ele>
        <time>2019-12-30T14:00:42.000Z</time>
      </trkpt>
      <trkpt lat="49.33694" lon="1.05316">
        <ele>113</ele>
        <time>2019-12-30T14:00:43.000Z</time>
      </trkpt>
      <trkpt lat="49.33694" lon="1.05312">
        <ele>113</ele>
        <time>2019-12-30T14:00:44.000Z</time>
      </trkpt>
      <trkpt lat="49.33694" lon="1.05309">
        <ele>113</ele>
        <time>2019-12-30T14:00:45.000Z</time>
      </trkpt>
      <trkpt lat="49.33693" lon="1.05307">
        <ele>113</ele>
        <time>2019-12-30T14:00:46.000Z</time>
      </trkpt>
      <trkpt lat="49.33693" lon="1.05305">
        <ele>113</ele>
        <time>2019-12-30T14:00:47.000Z</time>
      </trkpt>
      <trkpt lat="49.33692" lon="1.05304">
        <ele>113</ele>
        <time>2019-12-30T14:00:48.000Z</time>
      </trkpt>
      <trkpt lat="49.33691" lon="1.05301">
        <ele>114</ele>
        <time>2019-12-30T14:00:49.000Z</time>
      </trkpt>
      <trkpt lat="49.3369" lon="1.05298">
        <ele>114</ele>
        <time>2019-12-30T14:00:50.000Z</time>
      </trkpt>
      <trkpt lat="49.33688" lon="1.05294">
        <ele>114</ele>
        <time>2019-12-30T14:00:51.000Z</time>
      </trkpt>
      <trkpt lat="49.33687" lon="1.0529">
        <ele>114</ele>
        <time>2019-12-30T14:00:52.000Z</time>
      </trkpt>
      <trkpt lat="49.33686" lon="1.05287">
        <ele>114</ele>
        <time>2019-12-30T14:00:53.000Z</time>
      </trkpt>
      <trkpt lat="49.33685" lon="1.05283">
        <ele>114</ele>
        <time>2019-12-30T14:00:54.000Z</time>
      </trkpt>
      <trkpt lat="49.33685" lon="1.0528">
        <ele>114</ele>
        <time>2019-12-30T14:00:55.000Z</time>
      </trkpt>
      <trkpt lat="49.33685" lon="1.05278">
        <ele>114</ele>
        <time>2019-12-30T14:00:56.000Z</time>
      </trkpt>
      <trkpt lat="49.33686" lon="1.05276">
        <ele>114</ele>
        <time>2019-12-30T14:00:57.000Z</time>
      </trkpt>
      <trkpt lat="49.33686" lon="1.05273">
        <ele>114</ele>
        <time>2019-12-30T14:00:58.000Z</time>
      </trkpt>
      <trkpt lat="49.33685" lon="1.05271">
        <ele>114</ele>
        <time>2019-12-30T14:00:59.000Z</time>
      </trkpt>
      <trkpt lat="49.33685" lon="1.05269">
        <ele>114</ele>
        <time>2019-12-30T14:01:00.000Z</time>
      </trkpt>
      <trkpt lat="49.33684" lon="1.05268">
        <ele>114</ele>
        <time>2019-12-30T14:01:01.000Z</time>
      </trkpt>
      <trkpt lat="49.33683" lon="1.05266">
        <ele>114</ele>
        <time>2019-12-30T14:01:02.000Z</time>
      </trkpt>
      <trkpt lat="49.33681" lon="1.05265">
        <ele>114</ele>
        <time>2019-12-30T14:01:03.000Z</time>
      </trkpt>
      <trkpt lat="49.33679" lon="1.05262">
        <ele>114</ele>
        <time>2019-12-30T14:01:04.000Z</time>
      </trkpt>
      <trkpt lat="49.33678" lon="1.05261">
        <ele>114</ele>
        <time>2019-12-30T14:01:05.000Z</time>
      </trkpt>
      <trkpt lat="49.33676" lon="1.05258">
        <ele>114</ele>
        <time>2019-12-30T14:01:06.000Z</time>
      </trkpt>
      <trkpt lat="49.33675" lon="1.05255">
        <ele>114</ele>
        <time>2019-12-30T14:01:07.000Z</time>
      </trkpt>
      <trkpt lat="49.33674" lon="1.05251">
        <ele>114</ele>
        <time>2019-12-30T14:01:08.000Z</time>
      </trkpt>
      <trkpt lat="49.33674" lon="1.05247">
        <ele>114</ele>
        <time>2019-12-30T14:01:09.000Z</time>
      </trkpt>
      <trkpt lat="49.33674" lon="1.05243">
        <ele>114</ele>
        <time>2019-12-30T14:01:10.000Z</time>
      </trkpt>
      <trkpt lat="49.33673" lon="1.05239">
        <ele>114</ele>
        <time>2019-12-30T14:01:11.000Z</time>
      </trkpt>
      <trkpt lat="49.33672" lon="1.05236">
        <ele>114</ele>
        <time>2019-12-30T14:01:12.000Z</time>
      </trkpt>
      <trkpt lat="49.33671" lon="1.05233">
        <ele>114</ele>
        <time>2019-12-30T14:01:13.000Z</time>
      </trkpt>
      <trkpt lat="49.33671" lon="1.05229">
        <ele>115</ele>
        <time>2019-12-30T14:01:14.000Z</time>
      </trkpt>
      <trkpt lat="49.33671" lon="1.05225">
        <ele>115</ele>
        <time>2019-12-30T14:01:15.000Z</time>
      </trkpt>
      <trkpt lat="49.33671" lon="1.05221">
        <ele>115</ele>
        <time>2019-12-30T14:01:16.000Z</time>
      </trkpt>
      <trkpt lat="49.33671" lon="1.05217">
        <ele>115</ele>
        <time>2019-12-30T14:01:17.000Z</time>
      </trkpt>
      <trkpt lat="49.33671" lon="1.05212">
        <ele>115</ele>
        <time>2019-12-30T14:01:18.000Z</time>
      </trkpt>
      <trkpt lat="49.33671" lon="1.05209">
        <ele>115</ele>
        <time>2019-12-30T14:01:19.000Z</time>
      </trkpt>
      <trkpt lat="49.33671" lon="1.05206">
        <ele>115</ele>
        <time>2019-12-30T14:01:20.000Z</time>
      </trkpt>
      <trkpt lat="49.3367" lon="1.05203">
        <ele>116</ele>
        <time>2019-12-30T14:01:21.000Z</time>
      </trkpt>
      <trkpt lat="49.33669" lon="1.052">
        <ele>116</ele>
        <time>2019-12-30T14:01:22.000Z</time>
      </trkpt>
      <trkpt lat="49.33668" lon="1.05196">
        <ele>116</ele>
        <time>2019-12-30T14:01:23.000Z</time>
      </trkpt>
      <trkpt lat="49.33667" lon="1.05193">
        <ele>116</ele>
        <time>2019-12-30T14:01:24.000Z</time>
      </trkpt>
      <trkpt lat="49.33665" lon="1.0519">
        <ele>116</ele>
        <time>2019-12-30T14:01:25.000Z</time>
      </trkpt>
      <trkpt lat="49.33664" lon="1.05187">
        <ele>116</ele>
        <time>2019-12-30T14:01:26.000Z</time>
      </trkpt>
      <trkpt lat="49.33663" lon="1.05185">
        <ele>116</ele>
        <time>2019-12-30T14:01:27.000Z</time>
      </trkpt>
      <trkpt lat="49.33662" lon="1.05182">
        <ele>116</ele>
        <time>2019-12-30T14:01:28.000Z</time>
      </trkpt>
      <trkpt lat="49.33661" lon="1.05179">
        <ele>117</ele>
        <time>2019-12-30T14:01:29.000Z</time>
      </trkpt>
      <trkpt lat="49.33661" lon="1.05176">
        <ele>117</ele>
        <time>2019-12-30T14:01:30.000Z</time>
      </trkpt>
      <trkpt lat="49.33659" lon="1.05173">
        <ele>117</ele>
        <time>2019-12-30T14:01:31.000Z</time>
      </trkpt>
      <trkpt lat="49.33658" lon="1.0517">
        <ele>117</ele>
        <time>2019-12-30T14:01:32.000Z</time>
      </trkpt>
      <trkpt lat="49.33657" lon="1.05166">
        <ele>117</ele>
        <time>2019-12-30T14:01:33.000Z</time>
      </trkpt>
      <trkpt lat="49.33656" lon="1.05163">
        <ele>117</ele>
        <time>2019-12-30T14:01:34.000Z</time>
      </trkpt>
      <trkpt lat="49.33655" lon="1.0516">
        <ele>118</ele>
        <time>2019-12-30T14:01:35.000Z</time>
      </trkpt>
      <trkpt lat="49.33654" lon="1.05157">
        <ele>118</ele>
        <time>2019-12-30T14:01:36.000Z</time>
      </trkpt>
      <trkpt lat="49.33653" lon="1.05154">
        <ele>118</ele>
        <time>2019-12-30T14:01:37.000Z</time>
      </trkpt>
      <trkpt lat="49.33652" lon="1.05151">
        <ele>119</ele>
        <time>2019-12-30T14:01:38.000Z</time>
      </trkpt>
      <trkpt lat="49.33651" lon="1.05148">
        <ele>119</ele>
        <time>2019-12-30T14:01:39.000Z</time>
      </trkpt>
      <trkpt lat="49.3365" lon="1.05145">
        <ele>119</ele>
        <time>2019-12-30T14:01:40.000Z</time>
      </trkpt>
      <trkpt lat="49.33649" lon="1.05142">
        <ele>120</ele>
        <time>2019-12-30T14:01:41.000Z</time>
      </trkpt>
      <trkpt lat="49.33648" lon="1.05138">
        <ele>120</ele>
        <time>2019-12-30T14:01:42.000Z</time>
      </trkpt>
      <trkpt lat="49.33647" lon="1.05135">
        <ele>120</ele>
        <time>2019-12-30T14:01:43.000Z</time>
      </trkpt>
      <trkpt lat="49.33646" lon="1.05131">
        <ele>120</ele>
        <time>2019-12-30T14:01:44.000Z</time>
      </trkpt>
      <trkpt lat="49.33645" lon="1.05128">
        <ele>121</ele>
        <time>2019-12-30T14:01:45.000Z</time>
      </trkpt>
      <trkpt lat="49.33644" lon="1.05125">
        <ele>121</ele>
        <time>2019-12-30T14:01:46.000Z</time>
      </trkpt>
      <trkpt lat="49.33643" lon="1.05122">
        <ele>121</ele>
        <time>2019-12-30T14:01:47.000Z</time>
      </trkpt>
      <trkpt lat="49.33642" lon="1.05119">
        <ele>121</ele>
        <time>2019-12-30T14:01:48.000Z</time>
      </trkpt>
      <trkpt lat="49.33641" lon="1.05116">
        <ele>121</ele>
        <time>2019-12-30T14:01:49.000Z</time>
      </trkpt>
      <trkpt lat="49.3364" lon="1.05113">
        <ele>121</ele>
        <time>2019-12-30T14:01:50.000Z</time>
      </trkpt>
      <trkpt lat="49.33639" lon="1.0511">
        <ele>120</ele>
        <time>2019-12-30T14:01:51.000Z</time>
      </trkpt>
      <trkpt lat="49.33637" lon="1.05107">
        <ele>120</ele>
        <time>2019-12-30T14:01:52.000Z</time>
      </trkpt>
      <trkpt lat="49.33635" lon="1.05103">
        <ele>120</ele>
        <time>2019-12-30T14:01:53.000Z</time>
      </trkpt>
      <trkpt lat="49.33634" lon="1.05099">
        <ele>120</ele>
        <time>2019-12-30T14:01:54.000Z</time>
      </trkpt>
      <trkpt lat="49.33632" lon="1.05096">
        <ele>121</ele>
        <time>2019-12-30T14:01:55.000Z</time>
      </trkpt>
      <trkpt lat="49.33631" lon="1.05094">
        <ele>121</ele>
        <time>2019-12-30T14:01:56.000Z</time>
      </trkpt>
      <trkpt lat="49.3363" lon="1.05091">
        <ele>121</ele>
        <time>2019-12-30T14:01:57.000Z</time>
      </trkpt>
      <trkpt lat="49.33628" lon="1.05089">
        <ele>121</ele>
        <time>2019-12-30T14:01:58.000Z</time>
      </trkpt>
      <trkpt lat="49.33626" lon="1.05086">
        <ele>121</ele>
        <time>2019-12-30T14:01:59.000Z</time>
      </trkpt>
      <trkpt lat="49.33625" lon="1.05083">
        <ele>121</ele>
        <time>2019-12-30T14:02:00.000Z</time>
      </trkpt>
      <trkpt lat="49.33625" lon="1.05078">
        <ele>121</ele>
        <time>2019-12-30T14:02:01.000Z</time>
      </trkpt>
      <trkpt lat="49.33624" lon="1.05076">
        <ele>121</ele>
        <time>2019-12-30T14:02:02.000Z</time>
      </trkpt>
      <trkpt lat="49.33623" lon="1.05074">
        <ele>121</ele>
        <time>2019-12-30T14:02:03.000Z</time>
      </trkpt>
      <trkpt lat="49.33622" lon="1.05071">
        <ele>121</ele>
        <time>2019-12-30T14:02:04.000Z</time>
      </trkpt>
      <trkpt lat="49.33621" lon="1.05067">
        <ele>121</ele>
        <time>2019-12-30T14:02:05.000Z</time>
      </trkpt>
      <trkpt lat="49.3362" lon="1.05064">
        <ele>122</ele>
        <time>2019-12-30T14:02:06.000Z</time>
      </trkpt>
      <trkpt lat="49.33619" lon="1.05061">
        <ele>122</ele>
        <time>2019-12-30T14:02:07.000Z</time>
      </trkpt>
      <trkpt lat="49.33618" lon="1.05058">
        <ele>122</ele>
        <time>2019-12-30T14:02:08.000Z</time>
      </trkpt>
      <trkpt lat="49.33617" lon="1.05055">
        <ele>122</ele>
        <time>2019-12-30T14:02:09.000Z</time>
      </trkpt>
      <trkpt lat="49.33616" lon="1.05052">
        <ele>122</ele>
        <time>2019-12-30T14:02:10.000Z</time>
      </trkpt>
      <trkpt lat="49.33615" lon="1.05049">
        <ele>122</ele>
        <time>2019-12-30T14:02:11.000Z</time>
      </trkpt>
      <trkpt lat="49.33615" lon="1.05045">
        <ele>122</ele>
        <time>2019-12-30T14:02:12.000Z</time>
      </trkpt>
      <trkpt lat="49.33614" lon="1.05042">
        <ele>122</ele>
        <time>2019-12-30T14:02:13.000Z</time>
      </trkpt>
      <trkpt lat="49.33612" lon="1.05038">
        <ele>122</ele>
        <time>2019-12-30T14:02:14.000Z</time>
      </trkpt>
      <trkpt lat="49.33611" lon="1.05034">
        <ele>122</ele>
        <time>2019-12-30T14:02:15.000Z</time>
      </trkpt>
      <trkpt lat="49.3361" lon="1.0503">
        <ele>121</ele>
        <time>2019-12-30T14:02:16.000Z</time>
      </trkpt>
      <trkpt lat="49.33608" lon="1.05026">
        <ele>121</ele>
        <time>2019-12-30T14:02:17.000Z</time>
      </trkpt>
      <trkpt lat="49.33606" lon="1.05023">
        <ele>121</ele>
        <time>2019-12-30T14:02:18.000Z</time>
      </trkpt>
      <trkpt lat="49.33605" lon="1.0502">
        <ele>121</ele>
        <time>2019-12-30T14:02:19.000Z</time>
      </trkpt>
      <trkpt lat="49.33604" lon="1.05017">
        <ele>121</ele>
        <time>2019-12-30T14:02:20.000Z</time>
      </trkpt>
      <trkpt lat="49.33602" lon="1.05014">
        <ele>121</ele>
        <time>2019-12-30T14:02:21.000Z</time>
      </trkpt>
      <trkpt lat="49.33601" lon="1.05011">
        <ele>121</ele>
        <time>2019-12-30T14:02:22.000Z</time>
      </trkpt>
      <trkpt lat="49.336" lon="1.05008">
        <ele>121</ele>
        <time>2019-12-30T14:02:23.000Z</time>
      </trkpt>
      <trkpt lat="49.33599" lon="1.05004">
        <ele>121</ele>
        <time>2019-12-30T14:02:24.000Z</time>
      </trkpt>
      <trkpt lat="49.33598" lon="1.05">
        <ele>121</ele>
        <time>2019-12-30T14:02:25.000Z</time>
      </trkpt>
      <trkpt lat="49.33596" lon="1.04995">
        <ele>120</ele>
        <time>2019-12-30T14:02:26.000Z</time>
      </trkpt>
      <trkpt lat="49.33593" lon="1.04991">
        <ele>120</ele>
        <time>2019-12-30T14:02:27.000Z</time>
      </trkpt>
      <trkpt lat="49.33592" lon="1.04987">
        <ele>120</ele>
        <time>2019-12-30T14:02:28.000Z</time>
      </trkpt>
      <trkpt lat="49.3359" lon="1.04982">
        <ele>120</ele>
        <time>2019-12-30T14:02:29.000Z</time>
      </trkpt>
      <trkpt lat="49.33589" lon="1.04978">
        <ele>120</ele>
        <time>2019-12-30T14:02:30.000Z</time>
      </trkpt>
      <trkpt lat="49.33588" lon="1.04974">
        <ele>120</ele>
        <time>2019-12-30T14:02:31.000Z</time>
      </trkpt>
      <trkpt lat="49.33586" lon="1.0497">
        <ele>120</ele>
        <time>2019-12-30T14:02:32.000Z</time>
      </trkpt>
      <trkpt lat="49.33585" lon="1.04966">
        <ele>120</ele>
        <time>2019-12-30T14:02:33.000Z</time>
      </trkpt>
      <trkpt lat="49.33583" lon="1.04962">
        <ele>120</ele>
        <time>2019-12-30T14:02:34.000Z</time>
      </trkpt>
      <trkpt lat="49.33583" lon="1.04958">
        <ele>120</ele>
        <time>2019-12-30T14:02:35.000Z</time>
      </trkpt>
      <trkpt lat="49.33582" lon="1.04954">
        <ele>120</ele>
        <time>2019-12-30T14:02:36.000Z</time>
      </trkpt>
      <trkpt lat="49.33581" lon="1.04951">
        <ele>120</ele>
        <time>2019-12-30T14:02:37.000Z</time>
      </trkpt>
      <trkpt lat="49.33581" lon="1.04946">
        <ele>120</ele>
        <time>2019-12-30T14:02:38.000Z</time>
      </trkpt>
      <trkpt lat="49.33579" lon="1.04942">
        <ele>120</ele>
        <time>2019-12-30T14:02:39.000Z</time>
      </trkpt>
      <trkpt lat="49.33578" lon="1.04937">
        <ele>120</ele>
        <time>2019-12-30T14:02:40.000Z</time>
      </trkpt>
      <trkpt lat="49.33576" lon="1.04933">
        <ele>120</ele>
        <time>2019-12-30T14:02:41.000Z</time>
      </trkpt>
      <trkpt lat="49.33575" lon="1.04929">
        <ele>120</ele>
        <time>2019-12-30T14:02:42.000Z</time>
      </trkpt>
      <trkpt lat="49.33573" lon="1.04925">
        <ele>120</ele>
        <time>2019-12-30T14:02:43.000Z</time>
      </trkpt>
      <trkpt lat="49.33571" lon="1.0492">
        <ele>120</ele>
        <time>2019-12-30T14:02:44.000Z</time>
      </trkpt>
      <trkpt lat="49.33569" lon="1.04915">
        <ele>120</ele>
        <time>2019-12-30T14:02:45.000Z</time>
      </trkpt>
      <trkpt lat="49.33568" lon="1.04911">
        <ele>120</ele>
        <time>2019-12-30T14:02:46.000Z</time>
      </trkpt>
      <trkpt lat="49.33566" lon="1.04906">
        <ele>120</ele>
        <time>2019-12-30T14:02:47.000Z</time>
      </trkpt>
      <trkpt lat="49.33565" lon="1.04901">
        <ele>120</ele>
        <time>2019-12-30T14:02:48.000Z</time>
      </trkpt>
      <trkpt lat="49.33564" lon="1.04896">
        <ele>120</ele>
        <time>2019-12-30T14:02:49.000Z</time>
      </trkpt>
      <trkpt lat="49.33563" lon="1.04891">
        <ele>120</ele>
        <time>2019-12-30T14:02:50.000Z</time>
      </trkpt>
      <trkpt lat="49.33561" lon="1.04886">
        <ele>120</ele>
        <time>2019-12-30T14:02:51.000Z</time>
      </trkpt>
      <trkpt lat="49.3356" lon="1.04882">
        <ele>120</ele>
        <time>2019-12-30T14:02:52.000Z</time>
      </trkpt>
      <trkpt lat="49.33558" lon="1.04877">
        <ele>120</ele>
        <time>2019-12-30T14:02:53.000Z</time>
      </trkpt>
      <trkpt lat="49.33556" lon="1.04871">
        <ele>120</ele>
        <time>2019-12-30T14:02:54.000Z</time>
      </trkpt>
      <trkpt lat="49.33554" lon="1.04865">
        <ele>120</ele>
        <time>2019-12-30T14:02:55.000Z</time>
      </trkpt>
      <trkpt lat="49.33552" lon="1.04859">
        <ele>119</ele>
        <time>2019-12-30T14:02:56.000Z</time>
      </trkpt>
      <trkpt lat="49.3355" lon="1.04853">
        <ele>119</ele>
        <time>2019-12-30T14:02:57.000Z</time>
      </trkpt>
      <trkpt lat="49.33548" lon="1.04848">
        <ele>119</ele>
        <time>2019-12-30T14:02:58.000Z</time>
      </trkpt>
      <trkpt lat="49.33546" lon="1.04842">
        <ele>119</ele>
        <time>2019-12-30T14:02:59.000Z</time>
      </trkpt>
      <trkpt lat="49.33544" lon="1.04837">
        <ele>119</ele>
        <time>2019-12-30T14:03:00.000Z</time>
      </trkpt>
      <trkpt lat="49.33542" lon="1.04832">
        <ele>119</ele>
        <time>2019-12-30T14:03:01.000Z</time>
      </trkpt>
      <trkpt lat="49.3354" lon="1.04827">
        <ele>119</ele>
        <time>2019-12-30T14:03:02.000Z</time>
      </trkpt>
      <trkpt lat="49.33538" lon="1.04824">
        <ele>118</ele>
        <time>2019-12-30T14:03:03.000Z</time>
      </trkpt>
      <trkpt lat="49.33535" lon="1.04822">
        <ele>118</ele>
        <time>2019-12-30T14:03:04.000Z</time>
      </trkpt>
      <trkpt lat="49.33532" lon="1.0482">
        <ele>118</ele>
        <time>2019-12-30T14:03:05.000Z</time>
      </trkpt>
      <trkpt lat="49.33529" lon="1.04818">
        <ele>117</ele>
        <time>2019-12-30T14:03:06.000Z</time>
      </trkpt>
      <trkpt lat="49.33526" lon="1.04815">
        <ele>117</ele>
        <time>2019-12-30T14:03:07.000Z</time>
      </trkpt>
      <trkpt lat="49.33524" lon="1.04812">
        <ele>116</ele>
        <time>2019-12-30T14:03:08.000Z</time>
      </trkpt>
      <trkpt lat="49.33522" lon="1.04808">
        <ele>116</ele>
        <time>2019-12-30T14:03:09.000Z</time>
      </trkpt>
      <trkpt lat="49.33521" lon="1.04804">
        <ele>116</ele>
        <time>2019-12-30T14:03:10.000Z</time>
      </trkpt>
      <trkpt lat="49.3352" lon="1.04801">
        <ele>116</ele>
        <time>2019-12-30T14:03:11.000Z</time>
      </trkpt>
      <trkpt lat="49.33519" lon="1.04798">
        <ele>116</ele>
        <time>2019-12-30T14:03:12.000Z</time>
      </trkpt>
      <trkpt lat="49.33518" lon="1.04793">
        <ele>116</ele>
        <time>2019-12-30T14:03:13.000Z</time>
      </trkpt>
      <trkpt lat="49.33517" lon="1.04788">
        <ele>116</ele>
        <time>2019-12-30T14:03:14.000Z</time>
      </trkpt>
      <trkpt lat="49.33516" lon="1.04783">
        <ele>116</ele>
        <time>2019-12-30T14:03:15.000Z</time>
      </trkpt>
      <trkpt lat="49.33515" lon="1.04777">
        <ele>116</ele>
        <time>2019-12-30T14:03:16.000Z</time>
      </trkpt>
      <trkpt lat="49.33513" lon="1.04772">
        <ele>116</ele>
        <time>2019-12-30T14:03:17.000Z</time>
      </trkpt>
      <trkpt lat="49.33512" lon="1.04766">
        <ele>116</ele>
        <time>2019-12-30T14:03:18.000Z</time>
      </trkpt>
      <trkpt lat="49.33511" lon="1.0476">
        <ele>116</ele>
        <time>2019-12-30T14:03:19.000Z</time>
      </trkpt>
      <trkpt lat="49.33509" lon="1.04755">
        <ele>116</ele>
        <time>2019-12-30T14:03:20.000Z</time>
      </trkpt>
      <trkpt lat="49.33507" lon="1.04749">
        <ele>116</ele>
        <time>2019-12-30T14:03:21.000Z</time>
      </trkpt>
      <trkpt lat="49.33506" lon="1.04744">
        <ele>116</ele>
        <time>2019-12-30T14:03:22.000Z</time>
      </trkpt>
      <trkpt lat="49.33504" lon="1.04739">
        <ele>116</ele>
        <time>2019-12-30T14:03:23.000Z</time>
      </trkpt>
      <trkpt lat="49.33503" lon="1.04733">
        <ele>116</ele>
        <time>2019-12-30T14:03:24.000Z</time>
      </trkpt>
      <trkpt lat="49.33501" lon="1.04728">
        <ele>116</ele>
        <time>2019-12-30T14:03:25.000Z</time>
      </trkpt>
      <trkpt lat="49.335" lon="1.04723">
        <ele>116</ele>
        <time>2019-12-30T14:03:26.000Z</time>
      </trkpt>
      <trkpt lat="49.33499" lon="1.04718">
        <ele>116</ele>
        <time>2019-12-30T14:03:27.000Z</time>
      </trkpt>
      <trkpt lat="49.33497" lon="1.04713">
        <ele>116</ele>
        <time>2019-12-30T14:03:28.000Z</time>
      </trkpt>
      <trkpt lat="49.33495" lon="1.04708">
        <ele>115</ele>
        <time>2019-12-30T14:03:29.000Z</time>
      </trkpt>
      <trkpt lat="49.33494" lon="1.04703">
        <ele>115</ele>
        <time>2019-12-30T14:03:30.000Z</time>
      </trkpt>
      <trkpt lat="49.33494" lon="1.04699">
        <ele>115</ele>
        <time>2019-12-30T14:03:31.000Z</time>
      </trkpt>
      <trkpt lat="49.33492" lon="1.04695">
        <ele>115</ele>
        <time>2019-12-30T14:03:32.000Z</time>
      </trkpt>
      <trkpt lat="49.3349" lon="1.0469">
        <ele>115</ele>
        <time>2019-12-30T14:03:33.000Z</time>
      </trkpt>
      <trkpt lat="49.33489" lon="1.04685">
        <ele>115</ele>
        <time>2019-12-30T14:03:34.000Z</time>
      </trkpt>
      <trkpt lat="49.33488" lon="1.04678">
        <ele>114</ele>
        <time>2019-12-30T14:03:35.000Z</time>
      </trkpt>
      <trkpt lat="49.33487" lon="1.04672">
        <ele>114</ele>
        <time>2019-12-30T14:03:36.000Z</time>
      </trkpt>
      <trkpt lat="49.33485" lon="1.04667">
        <ele>114</ele>
        <time>2019-12-30T14:03:37.000Z</time>
      </trkpt>
      <trkpt lat="49.33485" lon="1.04662">
        <ele>114</ele>
        <time>2019-12-30T14:03:38.000Z</time>
      </trkpt>
      <trkpt lat="49.33484" lon="1.04656">
        <ele>114</ele>
        <time>2019-12-30T14:03:39.000Z</time>
      </trkpt>
      <trkpt lat="49.33483" lon="1.0465">
        <ele>114</ele>
        <time>2019-12-30T14:03:40.000Z</time>
      </trkpt>
      <trkpt lat="49.33482" lon="1.04643">
        <ele>114</ele>
        <time>2019-12-30T14:03:41.000Z</time>
      </trkpt>
      <trkpt lat="49.3348" lon="1.04638">
        <ele>113</ele>
        <time>2019-12-30T14:03:42.000Z</time>
      </trkpt>
      <trkpt lat="49.33479" lon="1.04633">
        <ele>113</ele>
        <time>2019-12-30T14:03:43.000Z</time>
      </trkpt>
      <trkpt lat="49.33477" lon="1.04629">
        <ele>113</ele>
        <time>2019-12-30T14:03:44.000Z</time>
      </trkpt>
      <trkpt lat="49.33475" lon="1.04624">
        <ele>113</ele>
        <time>2019-12-30T14:03:45.000Z</time>
      </trkpt>
      <trkpt lat="49.33474" lon="1.04619">
        <ele>113</ele>
        <time>2019-12-30T14:03:46.000Z</time>
      </trkpt>
      <trkpt lat="49.33473" lon="1.04613">
        <ele>113</ele>
        <time>2019-12-30T14:03:47.000Z</time>
      </trkpt>
      <trkpt lat="49.33472" lon="1.04607">
        <ele>113</ele>
        <time>2019-12-30T14:03:48.000Z</time>
      </trkpt>
      <trkpt lat="49.33472" lon="1.04602">
        <ele>113</ele>
        <time>2019-12-30T14:03:49.000Z</time>
      </trkpt>
      <trkpt lat="49.33472" lon="1.04596">
        <ele>113</ele>
        <time>2019-12-30T14:03:50.000Z</time>
      </trkpt>
      <trkpt lat="49.3347" lon="1.04591">
        <ele>113</ele>
        <time>2019-12-30T14:03:51.000Z</time>
      </trkpt>
      <trkpt lat="49.33469" lon="1.04586">
        <ele>113</ele>
        <time>2019-12-30T14:03:52.000Z</time>
      </trkpt>
      <trkpt lat="49.33468" lon="1.04581">
        <ele>113</ele>
        <time>2019-12-30T14:03:53.000Z</time>
      </trkpt>
      <trkpt lat="49.33466" lon="1.04577">
        <ele>113</ele>
        <time>2019-12-30T14:03:54.000Z</time>
      </trkpt>
      <trkpt lat="49.33465" lon="1.04573">
        <ele>113</ele>
        <time>2019-12-30T14:03:55.000Z</time>
      </trkpt>
      <trkpt lat="49.33463" lon="1.04568">
        <ele>113</ele>
        <time>2019-12-30T14:03:56.000Z</time>
      </trkpt>
      <trkpt lat="49.33463" lon="1.04562">
        <ele>113</ele>
        <time>2019-12-30T14:03:57.000Z</time>
      </trkpt>
      <trkpt lat="49.33461" lon="1.04557">
        <ele>113</ele>
        <time>2019-12-30T14:03:58.000Z</time>
      </trkpt>
      <trkpt lat="49.33459" lon="1.04552">
        <ele>113</ele>
        <time>2019-12-30T14:03:59.000Z</time>
      </trkpt>
      <trkpt lat="49.33458" lon="1.04548">
        <ele>113</ele>
        <time>2019-12-30T14:04:00.000Z</time>
      </trkpt>
      <trkpt lat="49.33456" lon="1.04543">
        <ele>113</ele>
        <time>2019-12-30T14:04:01.000Z</time>
      </trkpt>
      <trkpt lat="49.33455" lon="1.04538">
        <ele>113</ele>
        <time>2019-12-30T14:04:02.000Z</time>
      </trkpt>
      <trkpt lat="49.33454" lon="1.04533">
        <ele>113</ele>
        <time>2019-12-30T14:04:03.000Z</time>
      </trkpt>
      <trkpt lat="49.33452" lon="1.04529">
        <ele>112</ele>
        <time>2019-12-30T14:04:04.000Z</time>
      </trkpt>
      <trkpt lat="49.33451" lon="1.04526">
        <ele>112</ele>
        <time>2019-12-30T14:04:05.000Z</time>
      </trkpt>
      <trkpt lat="49.33449" lon="1.04521">
        <ele>112</ele>
        <time>2019-12-30T14:04:06.000Z</time>
      </trkpt>
      <trkpt lat="49.33448" lon="1.04517">
        <ele>112</ele>
        <time>2019-12-30T14:04:07.000Z</time>
      </trkpt>
      <trkpt lat="49.33447" lon="1.04512">
        <ele>112</ele>
        <time>2019-12-30T14:04:08.000Z</time>
      </trkpt>
      <trkpt lat="49.33445" lon="1.04507">
        <ele>112</ele>
        <time>2019-12-30T14:04:09.000Z</time>
      </trkpt>
      <trkpt lat="49.33444" lon="1.04502">
        <ele>112</ele>
        <time>2019-12-30T14:04:10.000Z</time>
      </trkpt>
      <trkpt lat="49.33443" lon="1.04498">
        <ele>112</ele>
        <time>2019-12-30T14:04:11.000Z</time>
      </trkpt>
      <trkpt lat="49.33442" lon="1.04494">
        <ele>112</ele>
        <time>2019-12-30T14:04:12.000Z</time>
      </trkpt>
      <trkpt lat="49.33441" lon="1.0449">
        <ele>112</ele>
        <time>2019-12-30T14:04:13.000Z</time>
      </trkpt>
      <trkpt lat="49.3344" lon="1.04486">
        <ele>112</ele>
        <time>2019-12-30T14:04:14.000Z</time>
      </trkpt>
      <trkpt lat="49.33439" lon="1.04482">
        <ele>112</ele>
        <time>2019-12-30T14:04:15.000Z</time>
      </trkpt>
      <trkpt lat="49.33437" lon="1.04478">
        <ele>112</ele>
        <time>2019-12-30T14:04:16.000Z</time>
      </trkpt>
      <trkpt lat="49.33437" lon="1.04474">
        <ele>112</ele>
        <time>2019-12-30T14:04:17.000Z</time>
      </trkpt>
      <trkpt lat="49.33436" lon="1.0447">
        <ele>112</ele>
        <time>2019-12-30T14:04:18.000Z</time>
      </trkpt>
      <trkpt lat="49.33435" lon="1.04466">
        <ele>112</ele>
        <time>2019-12-30T14:04:19.000Z</time>
      </trkpt>
      <trkpt lat="49.33434" lon="1.04462">
        <ele>112</ele>
        <time>2019-12-30T14:04:20.000Z</time>
      </trkpt>
      <trkpt lat="49.33434" lon="1.04459">
        <ele>112</ele>
        <time>2019-12-30T14:04:21.000Z</time>
      </trkpt>
      <trkpt lat="49.33432" lon="1.04456">
        <ele>112</ele>
        <time>2019-12-30T14:04:22.000Z</time>
      </trkpt>
      <trkpt lat="49.33432" lon="1.04452">
        <ele>112</ele>
        <time>2019-12-30T14:04:23.000Z</time>
      </trkpt>
      <trkpt lat="49.33431" lon="1.04449">
        <ele>112</ele>
        <time>2019-12-30T14:04:24.000Z</time>
      </trkpt>
      <trkpt lat="49.3343" lon="1.04445">
        <ele>112</ele>
        <time>2019-12-30T14:04:25.000Z</time>
      </trkpt>
      <trkpt lat="49.33428" lon="1.04441">
        <ele>112</ele>
        <time>2019-12-30T14:04:26.000Z</time>
      </trkpt>
      <trkpt lat="49.33428" lon="1.04438">
        <ele>113</ele>
        <time>2019-12-30T14:04:27.000Z</time>
      </trkpt>
      <trkpt lat="49.33427" lon="1.04436">
        <ele>113</ele>
        <time>2019-12-30T14:04:28.000Z</time>
      </trkpt>
      <trkpt lat="49.33427" lon="1.04433">
        <ele>113</ele>
        <time>2019-12-30T14:04:29.000Z</time>
      </trkpt>
      <trkpt lat="49.33426" lon="1.0443">
        <ele>113</ele>
        <time>2019-12-30T14:04:30.000Z</time>
      </trkpt>
      <trkpt lat="49.33425" lon="1.04427">
        <ele>113</ele>
        <time>2019-12-30T14:04:31.000Z</time>
      </trkpt>
      <trkpt lat="49.33424" lon="1.04423">
        <ele>114</ele>
        <time>2019-12-30T14:04:32.000Z</time>
      </trkpt>
      <trkpt lat="49.33423" lon="1.0442">
        <ele>114</ele>
        <time>2019-12-30T14:04:33.000Z</time>
      </trkpt>
      <trkpt lat="49.33422" lon="1.04417">
        <ele>114</ele>
        <time>2019-12-30T14:04:34.000Z</time>
      </trkpt>
      <trkpt lat="49.33421" lon="1.04414">
        <ele>114</ele>
        <time>2019-12-30T14:04:35.000Z</time>
      </trkpt>
      <trkpt lat="49.3342" lon="1.0441">
        <ele>114</ele>
        <time>2019-12-30T14:04:36.000Z</time>
      </trkpt>
      <trkpt lat="49.33419" lon="1.04407">
        <ele>114</ele>
        <time>2019-12-30T14:04:37.000Z</time>
      </trkpt>
      <trkpt lat="49.33419" lon="1.04404">
        <ele>114</ele>
        <time>2019-12-30T14:04:38.000Z</time>
      </trkpt>
      <trkpt lat="49.33418" lon="1.044">
        <ele>115</ele>
        <time>2019-12-30T14:04:39.000Z</time>
      </trkpt>
      <trkpt lat="49.33417" lon="1.04397">
        <ele>115</ele>
        <time>2019-12-30T14:04:40.000Z</time>
      </trkpt>
      <trkpt lat="49.33416" lon="1.04394">
        <ele>115</ele>
        <time>2019-12-30T14:04:41.000Z</time>
      </trkpt>
      <trkpt lat="49.33415" lon="1.04391">
        <ele>115</ele>
        <time>2019-12-30T14:04:42.000Z</time>
      </trkpt>
      <trkpt lat="49.33414" lon="1.04388">
        <ele>115</ele>
        <time>2019-12-30T14:04:43.000Z</time>
      </trkpt>
      <trkpt lat="49.33414" lon="1.04384">
        <ele>116</ele>
        <time>2019-12-30T14:04:44.000Z</time>
      </trkpt>
      <trkpt lat="49.33413" lon="1.04381">
        <ele>116</ele>
        <time>2019-12-30T14:04:45.000Z</time>
      </trkpt>
      <trkpt lat="49.33412" lon="1.04378">
        <ele>116</ele>
        <time>2019-12-30T14:04:46.000Z</time>
      </trkpt>
      <trkpt lat="49.33411" lon="1.04374">
        <ele>116</ele>
        <time>2019-12-30T14:04:47.000Z</time>
      </trkpt>
      <trkpt lat="49.33411" lon="1.04371">
        <ele>117</ele>
        <time>2019-12-30T14:04:48.000Z</time>
      </trkpt>
      <trkpt lat="49.3341" lon="1.04368">
        <ele>117</ele>
        <time>2019-12-30T14:04:49.000Z</time>
      </trkpt>
      <trkpt lat="49.3341" lon="1.04364">
        <ele>117</ele>
        <time>2019-12-30T14:04:50.000Z</time>
      </trkpt>
      <trkpt lat="49.33409" lon="1.04361">
        <ele>118</ele>
        <time>2019-12-30T14:04:51.000Z</time>
      </trkpt>
      <trkpt lat="49.33409" lon="1.04358">
        <ele>118</ele>
        <time>2019-12-30T14:04:52.000Z</time>
      </trkpt>
      <trkpt lat="49.33408" lon="1.04354">
        <ele>118</ele>
        <time>2019-12-30T14:04:53.000Z</time>
      </trkpt>
      <trkpt lat="49.33407" lon="1.04351">
        <ele>118</ele>
        <time>2019-12-30T14:04:54.000Z</time>
      </trkpt>
      <trkpt lat="49.33406" lon="1.04348">
        <ele>118</ele>
        <time>2019-12-30T14:04:55.000Z</time>
      </trkpt>
      <trkpt lat="49.33405" lon="1.04345">
        <ele>118</ele>
        <time>2019-12-30T14:04:56.000Z</time>
      </trkpt>
      <trkpt lat="49.33404" lon="1.04342">
        <ele>119</ele>
        <time>2019-12-30T14:04:57.000Z</time>
      </trkpt>
      <trkpt lat="49.33403" lon="1.04338">
        <ele>119</ele>
        <time>2019-12-30T14:04:58.000Z</time>
      </trkpt>
      <trkpt lat="49.33403" lon="1.04335">
        <ele>119</ele>
        <time>2019-12-30T14:04:59.000Z</time>
      </trkpt>
      <trkpt lat="49.33403" lon="1.04332">
        <ele>119</ele>
        <time>2019-12-30T14:05:00.000Z</time>
      </trkpt>
      <trkpt lat="49.33402" lon="1.04328">
        <ele>119</ele>
        <time>2019-12-30T14:05:01.000Z</time>
      </trkpt>
      <trkpt lat="49.33402" lon="1.04325">
        <ele>119</ele>
        <time>2019-12-30T14:05:02.000Z</time>
      </trkpt>
      <trkpt lat="49.33401" lon="1.04322">
        <ele>119</ele>
        <time>2019-12-30T14:05:03.000Z</time>
      </trkpt>
      <trkpt lat="49.334" lon="1.0432">
        <ele>119</ele>
        <time>2019-12-30T14:05:04.000Z</time>
      </trkpt>
      <trkpt lat="49.33399" lon="1.04317">
        <ele>119</ele>
        <time>2019-12-30T14:05:05.000Z</time>
      </trkpt>
      <trkpt lat="49.33399" lon="1.04314">
        <ele>119</ele>
        <time>2019-12-30T14:05:06.000Z</time>
      </trkpt>
      <trkpt lat="49.33398" lon="1.04311">
        <ele>119</ele>
        <time>2019-12-30T14:05:07.000Z</time>
      </trkpt>
      <trkpt lat="49.33397" lon="1.04308">
        <ele>119</ele>
        <time>2019-12-30T14:05:08.000Z</time>
      </trkpt>
      <trkpt lat="49.33396" lon="1.04304">
        <ele>120</ele>
        <time>2019-12-30T14:05:09.000Z</time>
      </trkpt>
      <trkpt lat="49.33395" lon="1.04301">
        <ele>120</ele>
        <time>2019-12-30T14:05:10.000Z</time>
      </trkpt>
      <trkpt lat="49.33394" lon="1.04298">
        <ele>120</ele>
        <time>2019-12-30T14:05:11.000Z</time>
      </trkpt>
      <trkpt lat="49.33394" lon="1.04295">
        <ele>120</ele>
        <time>2019-12-30T14:05:12.000Z</time>
      </trkpt>
      <trkpt lat="49.33393" lon="1.04291">
        <ele>120</ele>
        <time>2019-12-30T14:05:13.000Z</time>
      </trkpt>
      <trkpt lat="49.33392" lon="1.04287">
        <ele>120</ele>
        <time>2019-12-30T14:05:14.000Z</time>
      </trkpt>
      <trkpt lat="49.33391" lon="1.04284">
        <ele>121</ele>
        <time>2019-12-30T14:05:15.000Z</time>
      </trkpt>
      <trkpt lat="49.33391" lon="1.0428">
        <ele>121</ele>
        <time>2019-12-30T14:05:16.000Z</time>
      </trkpt>
      <trkpt lat="49.33391" lon="1.04277">
        <ele>121</ele>
        <time>2019-12-30T14:05:17.000Z</time>
      </trkpt>
      <trkpt lat="49.33391" lon="1.04273">
        <ele>121</ele>
        <time>2019-12-30T14:05:18.000Z</time>
      </trkpt>
      <trkpt lat="49.3339" lon="1.0427">
        <ele>121</ele>
        <time>2019-12-30T14:05:19.000Z</time>
      </trkpt>
      <trkpt lat="49.33389" lon="1.04267">
        <ele>122</ele>
        <time>2019-12-30T14:05:20.000Z</time>
      </trkpt>
      <trkpt lat="49.33388" lon="1.04264">
        <ele>122</ele>
        <time>2019-12-30T14:05:21.000Z</time>
      </trkpt>
      <trkpt lat="49.33387" lon="1.04261">
        <ele>122</ele>
        <time>2019-12-30T14:05:22.000Z</time>
      </trkpt>
      <trkpt lat="49.33386" lon="1.04257">
        <ele>122</ele>
        <time>2019-12-30T14:05:23.000Z</time>
      </trkpt>
      <trkpt lat="49.33386" lon="1.04254">
        <ele>122</ele>
        <time>2019-12-30T14:05:24.000Z</time>
      </trkpt>
      <trkpt lat="49.33385" lon="1.04249">
        <ele>123</ele>
        <time>2019-12-30T14:05:25.000Z</time>
      </trkpt>
      <trkpt lat="49.33383" lon="1.04246">
        <ele>123</ele>
        <time>2019-12-30T14:05:26.000Z</time>
      </trkpt>
      <trkpt lat="49.33382" lon="1.04241">
        <ele>123</ele>
        <time>2019-12-30T14:05:27.000Z</time>
      </trkpt>
      <trkpt lat="49.33381" lon="1.04237">
        <ele>123</ele>
        <time>2019-12-30T14:05:28.000Z</time>
      </trkpt>
      <trkpt lat="49.33381" lon="1.04234">
        <ele>123</ele>
        <time>2019-12-30T14:05:29.000Z</time>
      </trkpt>
      <trkpt lat="49.3338" lon="1.04232">
        <ele>123</ele>
        <time>2019-12-30T14:05:30.000Z</time>
      </trkpt>
      <trkpt lat="49.33379" lon="1.04231">
        <ele>124</ele>
        <time>2019-12-30T14:05:31.000Z</time>
      </trkpt>
      <trkpt lat="49.33378" lon="1.04228">
        <ele>124</ele>
        <time>2019-12-30T14:05:32.000Z</time>
      </trkpt>
      <trkpt lat="49.33377" lon="1.04224">
        <ele>124</ele>
        <time>2019-12-30T14:05:33.000Z</time>
      </trkpt>
      <trkpt lat="49.33376" lon="1.04221">
        <ele>124</ele>
        <time>2019-12-30T14:05:34.000Z</time>
      </trkpt>
      <trkpt lat="49.33375" lon="1.04218">
        <ele>125</ele>
        <time>2019-12-30T14:05:35.000Z</time>
      </trkpt>
      <trkpt lat="49.33375" lon="1.04214">
        <ele>125</ele>
        <time>2019-12-30T14:05:36.000Z</time>
      </trkpt>
      <trkpt lat="49.33375" lon="1.0421">
        <ele>125</ele>
        <time>2019-12-30T14:05:37.000Z</time>
      </trkpt>
      <trkpt lat="49.33374" lon="1.04206">
        <ele>126</ele>
        <time>2019-12-30T14:05:38.000Z</time>
      </trkpt>
      <trkpt lat="49.33373" lon="1.04202">
        <ele>126</ele>
        <time>2019-12-30T14:05:39.000Z</time>
      </trkpt>
      <trkpt lat="49.33372" lon="1.04198">
        <ele>126</ele>
        <time>2019-12-30T14:05:40.000Z</time>
      </trkpt>
      <trkpt lat="49.33371" lon="1.04194">
        <ele>126</ele>
        <time>2019-12-30T14:05:41.000Z</time>
      </trkpt>
      <trkpt lat="49.3337" lon="1.0419">
        <ele>126</ele>
        <time>2019-12-30T14:05:42.000Z</time>
      </trkpt>
      <trkpt lat="49.33371" lon="1.04186">
        <ele>126</ele>
        <time>2019-12-30T14:05:43.000Z</time>
      </trkpt>
      <trkpt lat="49.3337" lon="1.04181">
        <ele>126</ele>
        <time>2019-12-30T14:05:44.000Z</time>
      </trkpt>
      <trkpt lat="49.33369" lon="1.04176">
        <ele>126</ele>
        <time>2019-12-30T14:05:45.000Z</time>
      </trkpt>
      <trkpt lat="49.33369" lon="1.04172">
        <ele>126</ele>
        <time>2019-12-30T14:05:46.000Z</time>
      </trkpt>
      <trkpt lat="49.33368" lon="1.04167">
        <ele>126</ele>
        <time>2019-12-30T14:05:47.000Z</time>
      </trkpt>
      <trkpt lat="49.33367" lon="1.04163">
        <ele>126</ele>
        <time>2019-12-30T14:05:48.000Z</time>
      </trkpt>
      <trkpt lat="49.33366" lon="1.04158">
        <ele>126</ele>
        <time>2019-12-30T14:05:49.000Z</time>
      </trkpt>
      <trkpt lat="49.33365" lon="1.04154">
        <ele>126</ele>
        <time>2019-12-30T14:05:50.000Z</time>
      </trkpt>
      <trkpt lat="49.33364" lon="1.0415">
        <ele>126</ele>
        <time>2019-12-30T14:05:51.000Z</time>
      </trkpt>
      <trkpt lat="49.33363" lon="1.04145">
        <ele>126</ele>
        <time>2019-12-30T14:05:52.000Z</time>
      </trkpt>
      <trkpt lat="49.33361" lon="1.04139">
        <ele>126</ele>
        <time>2019-12-30T14:05:53.000Z</time>
      </trkpt>
      <trkpt lat="49.3336" lon="1.04135">
        <ele>127</ele>
        <time>2019-12-30T14:05:54.000Z</time>
      </trkpt>
      <trkpt lat="49.33359" lon="1.04129">
        <ele>127</ele>
        <time>2019-12-30T14:05:55.000Z</time>
      </trkpt>
      <trkpt lat="49.33358" lon="1.04124">
        <ele>127</ele>
        <time>2019-12-30T14:05:56.000Z</time>
      </trkpt>
      <trkpt lat="49.33357" lon="1.04119">
        <ele>126</ele>
        <time>2019-12-30T14:05:57.000Z</time>
      </trkpt>
      <trkpt lat="49.33355" lon="1.04114">
        <ele>126</ele>
        <time>2019-12-30T14:05:58.000Z</time>
      </trkpt>
      <trkpt lat="49.33354" lon="1.04109">
        <ele>126</ele>
        <time>2019-12-30T14:05:59.000Z</time>
      </trkpt>
      <trkpt lat="49.33352" lon="1.04105">
        <ele>126</ele>
        <time>2019-12-30T14:06:00.000Z</time>
      </trkpt>
      <trkpt lat="49.3335" lon="1.041">
        <ele>126</ele>
        <time>2019-12-30T14:06:01.000Z</time>
      </trkpt>
      <trkpt lat="49.33349" lon="1.04095">
        <ele>126</ele>
        <time>2019-12-30T14:06:02.000Z</time>
      </trkpt>
      <trkpt lat="49.33348" lon="1.0409">
        <ele>126</ele>
        <time>2019-12-30T14:06:03.000Z</time>
      </trkpt>
      <trkpt lat="49.33347" lon="1.04085">
        <ele>126</ele>
        <time>2019-12-30T14:06:04.000Z</time>
      </trkpt>
      <trkpt lat="49.33347" lon="1.0408">
        <ele>126</ele>
        <time>2019-12-30T14:06:05.000Z</time>
      </trkpt>
      <trkpt lat="49.33347" lon="1.04075">
        <ele>126</ele>
        <time>2019-12-30T14:06:06.000Z</time>
      </trkpt>
      <trkpt lat="49.33346" lon="1.04071">
        <ele>126</ele>
        <time>2019-12-30T14:06:07.000Z</time>
      </trkpt>
      <trkpt lat="49.33344" lon="1.04067">
        <ele>126</ele>
        <time>2019-12-30T14:06:08.000Z</time>
      </trkpt>
      <trkpt lat="49.33342" lon="1.04064">
        <ele>126</ele>
        <time>2019-12-30T14:06:09.000Z</time>
      </trkpt>
      <trkpt lat="49.33338" lon="1.0406">
        <ele>125</ele>
        <time>2019-12-30T14:06:10.000Z</time>
      </trkpt>
      <trkpt lat="49.33335" lon="1.04057">
        <ele>125</ele>
        <time>2019-12-30T14:06:11.000Z</time>
      </trkpt>
      <trkpt lat="49.33332" lon="1.04053">
        <ele>125</ele>
        <time>2019-12-30T14:06:12.000Z</time>
      </trkpt>
      <trkpt lat="49.3333" lon="1.04048">
        <ele>125</ele>
        <time>2019-12-30T14:06:13.000Z</time>
      </trkpt>
      <trkpt lat="49.33329" lon="1.04043">
        <ele>125</ele>
        <time>2019-12-30T14:06:14.000Z</time>
      </trkpt>
      <trkpt lat="49.33327" lon="1.04037">
        <ele>125</ele>
        <time>2019-12-30T14:06:15.000Z</time>
      </trkpt>
      <trkpt lat="49.33325" lon="1.04032">
        <ele>125</ele>
        <time>2019-12-30T14:06:16.000Z</time>
      </trkpt>
      <trkpt lat="49.33323" lon="1.04028">
        <ele>125</ele>
        <time>2019-12-30T14:06:17.000Z</time>
      </trkpt>
      <trkpt lat="49.3332" lon="1.04025">
        <ele>125</ele>
        <time>2019-12-30T14:06:18.000Z</time>
      </trkpt>
      <trkpt lat="49.33318" lon="1.04022">
        <ele>124</ele>
        <time>2019-12-30T14:06:19.000Z</time>
      </trkpt>
      <trkpt lat="49.33316" lon="1.04018">
        <ele>124</ele>
        <time>2019-12-30T14:06:20.000Z</time>
      </trkpt>
      <trkpt lat="49.33314" lon="1.04013">
        <ele>124</ele>
        <time>2019-12-30T14:06:21.000Z</time>
      </trkpt>
      <trkpt lat="49.33313" lon="1.04008">
        <ele>124</ele>
        <time>2019-12-30T14:06:22.000Z</time>
      </trkpt>
      <trkpt lat="49.33312" lon="1.04004">
        <ele>124</ele>
        <time>2019-12-30T14:06:23.000Z</time>
      </trkpt>
      <trkpt lat="49.3331" lon="1.04002">
        <ele>124</ele>
        <time>2019-12-30T14:06:24.000Z</time>
      </trkpt>
      <trkpt lat="49.33308" lon="1.04002">
        <ele>123</ele>
        <time>2019-12-30T14:06:25.000Z</time>
      </trkpt>
      <trkpt lat="49.33306" lon="1.04003">
        <ele>123</ele>
        <time>2019-12-30T14:06:26.000Z</time>
      </trkpt>
      <trkpt lat="49.33303" lon="1.04004">
        <ele>123</ele>
        <time>2019-12-30T14:06:27.000Z</time>
      </trkpt>
      <trkpt lat="49.33301" lon="1.04006">
        <ele>123</ele>
        <time>2019-12-30T14:06:28.000Z</time>
      </trkpt>
      <trkpt lat="49.33298" lon="1.04008">
        <ele>123</ele>
        <time>2019-12-30T14:06:29.000Z</time>
      </trkpt>
      <trkpt lat="49.33295" lon="1.04009">
        <ele>123</ele>
        <time>2019-12-30T14:06:30.000Z</time>
      </trkpt>
      <trkpt lat="49.33293" lon="1.0401">
        <ele>123</ele>
        <time>2019-12-30T14:06:31.000Z</time>
      </trkpt>
      <trkpt lat="49.3329" lon="1.04012">
        <ele>123</ele>
        <time>2019-12-30T14:06:32.000Z</time>
      </trkpt>
      <trkpt lat="49.33286" lon="1.04013">
        <ele>123</ele>
        <time>2019-12-30T14:06:33.000Z</time>
      </trkpt>
      <trkpt lat="49.33283" lon="1.04014">
        <ele>123</ele>
        <time>2019-12-30T14:06:34.000Z</time>
      </trkpt>
      <trkpt lat="49.33281" lon="1.04015">
        <ele>123</ele>
        <time>2019-12-30T14:06:35.000Z</time>
      </trkpt>
      <trkpt lat="49.33278" lon="1.04017">
        <ele>124</ele>
        <time>2019-12-30T14:06:36.000Z</time>
      </trkpt>
      <trkpt lat="49.33278" lon="1.04017">
        <ele>124</ele>
        <time>2019-12-30T14:06:37.000Z</time>
      </trkpt>
      <trkpt lat="49.33276" lon="1.04018">
        <ele>124</ele>
        <time>2019-12-30T14:06:38.000Z</time>
      </trkpt>
      <trkpt lat="49.33274" lon="1.0402">
        <ele>124</ele>
        <time>2019-12-30T14:06:39.000Z</time>
      </trkpt>
      <trkpt lat="49.33271" lon="1.04021">
        <ele>124</ele>
        <time>2019-12-30T14:06:40.000Z</time>
      </trkpt>
      <trkpt lat="49.33268" lon="1.04023">
        <ele>124</ele>
        <time>2019-12-30T14:06:41.000Z</time>
      </trkpt>
      <trkpt lat="49.33265" lon="1.04024">
        <ele>124</ele>
        <time>2019-12-30T14:06:42.000Z</time>
      </trkpt>
      <trkpt lat="49.33262" lon="1.04025">
        <ele>124</ele>
        <time>2019-12-30T14:06:43.000Z</time>
      </trkpt>
      <trkpt lat="49.33259" lon="1.04026">
        <ele>125</ele>
        <time>2019-12-30T14:06:44.000Z</time>
      </trkpt>
      <trkpt lat="49.33256" lon="1.04027">
        <ele>125</ele>
        <time>2019-12-30T14:06:45.000Z</time>
      </trkpt>
      <trkpt lat="49.33253" lon="1.04027">
        <ele>125</ele>
        <time>2019-12-30T14:06:46.000Z</time>
      </trkpt>
      <trkpt lat="49.33251" lon="1.04028">
        <ele>125</ele>
        <time>2019-12-30T14:06:47.000Z</time>
      </trkpt>
      <trkpt lat="49.3325" lon="1.04029">
        <ele>125</ele>
        <time>2019-12-30T14:06:48.000Z</time>
      </trkpt>
      <trkpt lat="49.3325" lon="1.04029">
        <ele>126</ele>
        <time>2019-12-30T14:06:49.000Z</time>
      </trkpt>
      <trkpt lat="49.33249" lon="1.04029">
        <ele>126</ele>
        <time>2019-12-30T14:06:50.000Z</time>
      </trkpt>
      <trkpt lat="49.33249" lon="1.04029">
        <ele>126</ele>
        <time>2019-12-30T14:06:51.000Z</time>
      </trkpt>
      <trkpt lat="49.33239" lon="1.04028">
        <ele>132</ele>
        <time>2019-12-30T14:06:52.000Z</time>
      </trkpt>
      <trkpt lat="49.33239" lon="1.04025">
        <ele>132</ele>
        <time>2019-12-30T14:06:53.000Z</time>
      </trkpt>
      <trkpt lat="49.33239" lon="1.04022">
        <ele>132</ele>
        <time>2019-12-30T14:06:54.000Z</time>
      </trkpt>
      <trkpt lat="49.33239" lon="1.04018">
        <ele>132</ele>
        <time>2019-12-30T14:06:55.000Z</time>
      </trkpt>
      <trkpt lat="49.33239" lon="1.04013">
        <ele>132</ele>
        <time>2019-12-30T14:06:56.000Z</time>
      </trkpt>
      <trkpt lat="49.33239" lon="1.04008">
        <ele>132</ele>
        <time>2019-12-30T14:06:57.000Z</time>
      </trkpt>
      <trkpt lat="49.33238" lon="1.04002">
        <ele>132</ele>
        <time>2019-12-30T14:06:58.000Z</time>
      </trkpt>
      <trkpt lat="49.33237" lon="1.03996">
        <ele>131</ele>
        <time>2019-12-30T14:06:59.000Z</time>
      </trkpt>
      <trkpt lat="49.33236" lon="1.03991">
        <ele>131</ele>
        <time>2019-12-30T14:07:00.000Z</time>
      </trkpt>
      <trkpt lat="49.33235" lon="1.03985">
        <ele>131</ele>
        <time>2019-12-30T14:07:01.000Z</time>
      </trkpt>
      <trkpt lat="49.33234" lon="1.03978">
        <ele>131</ele>
        <time>2019-12-30T14:07:02.000Z</time>
      </trkpt>
      <trkpt lat="49.33232" lon="1.03972">
        <ele>130</ele>
        <time>2019-12-30T14:07:03.000Z</time>
      </trkpt>
      <trkpt lat="49.33231" lon="1.03966">
        <ele>130</ele>
        <time>2019-12-30T14:07:04.000Z</time>
      </trkpt>
      <trkpt lat="49.3323" lon="1.0396">
        <ele>130</ele>
        <time>2019-12-30T14:07:05.000Z</time>
      </trkpt>
      <trkpt lat="49.33229" lon="1.03953">
        <ele>129</ele>
        <time>2019-12-30T14:07:06.000Z</time>
      </trkpt>
      <trkpt lat="49.33228" lon="1.03947">
        <ele>129</ele>
        <time>2019-12-30T14:07:07.000Z</time>
      </trkpt>
      <trkpt lat="49.33227" lon="1.0394">
        <ele>129</ele>
        <time>2019-12-30T14:07:08.000Z</time>
      </trkpt>
      <trkpt lat="49.33226" lon="1.03934">
        <ele>128</ele>
        <time>2019-12-30T14:07:09.000Z</time>
      </trkpt>
      <trkpt lat="49.33225" lon="1.03927">
        <ele>128</ele>
        <time>2019-12-30T14:07:10.000Z</time>
      </trkpt>
      <trkpt lat="49.33223" lon="1.03921">
        <ele>128</ele>
        <time>2019-12-30T14:07:11.000Z</time>
      </trkpt>
      <trkpt lat="49.33222" lon="1.03914">
        <ele>127</ele>
        <time>2019-12-30T14:07:12.000Z</time>
      </trkpt>
      <trkpt lat="49.33221" lon="1.03908">
        <ele>127</ele>
        <time>2019-12-30T14:07:13.000Z</time>
      </trkpt>
      <trkpt lat="49.3322" lon="1.03901">
        <ele>127</ele>
        <time>2019-12-30T14:07:14.000Z</time>
      </trkpt>
      <trkpt lat="49.33218" lon="1.03895">
        <ele>126</ele>
        <time>2019-12-30T14:07:15.000Z</time>
      </trkpt>
      <trkpt lat="49.33216" lon="1.03888">
        <ele>126</ele>
        <time>2019-12-30T14:07:16.000Z</time>
      </trkpt>
      <trkpt lat="49.33214" lon="1.03881">
        <ele>126</ele>
        <time>2019-12-30T14:07:17.000Z</time>
      </trkpt>
      <trkpt lat="49.33212" lon="1.03874">
        <ele>126</ele>
        <time>2019-12-30T14:07:18.000Z</time>
      </trkpt>
      <trkpt lat="49.3321" lon="1.03868">
        <ele>126</ele>
        <time>2019-12-30T14:07:19.000Z</time>
      </trkpt>
      <trkpt lat="49.33208" lon="1.03861">
        <ele>126</ele>
        <time>2019-12-30T14:07:20.000Z</time>
      </trkpt>
      <trkpt lat="49.33206" lon="1.03855">
        <ele>126</ele>
        <time>2019-12-30T14:07:21.000Z</time>
      </trkpt>
      <trkpt lat="49.33204" lon="1.03848">
        <ele>126</ele>
        <time>2019-12-30T14:07:22.000Z</time>
      </trkpt>
      <trkpt lat="49.33202" lon="1.03842">
        <ele>125</ele>
        <time>2019-12-30T14:07:23.000Z</time>
      </trkpt>
      <trkpt lat="49.332" lon="1.03836">
        <ele>125</ele>
        <time>2019-12-30T14:07:24.000Z</time>
      </trkpt>
      <trkpt lat="49.33198" lon="1.0383">
        <ele>125</ele>
        <time>2019-12-30T14:07:25.000Z</time>
      </trkpt>
      <trkpt lat="49.33197" lon="1.03825">
        <ele>125</ele>
        <time>2019-12-30T14:07:26.000Z</time>
      </trkpt>
      <trkpt lat="49.33195" lon="1.03819">
        <ele>125</ele>
        <time>2019-12-30T14:07:27.000Z</time>
      </trkpt>
      <trkpt lat="49.33193" lon="1.03814">
        <ele>125</ele>
        <time>2019-12-30T14:07:28.000Z</time>
      </trkpt>
      <trkpt lat="49.33191" lon="1.03808">
        <ele>125</ele>
        <time>2019-12-30T14:07:29.000Z</time>
      </trkpt>
      <trkpt lat="49.33188" lon="1.03803">
        <ele>125</ele>
        <time>2019-12-30T14:07:30.000Z</time>
      </trkpt>
      <trkpt lat="49.33186" lon="1.03799">
        <ele>124</ele>
        <time>2019-12-30T14:07:31.000Z</time>
      </trkpt>
      <trkpt lat="49.33184" lon="1.03795">
        <ele>124</ele>
        <time>2019-12-30T14:07:32.000Z</time>
      </trkpt>
      <trkpt lat="49.33182" lon="1.03794">
        <ele>124</ele>
        <time>2019-12-30T14:07:33.000Z</time>
      </trkpt>
      <trkpt lat="49.33179" lon="1.03793">
        <ele>124</ele>
        <time>2019-12-30T14:07:34.000Z</time>
      </trkpt>
      <trkpt lat="49.33176" lon="1.03794">
        <ele>125</ele>
        <time>2019-12-30T14:07:35.000Z</time>
      </trkpt>
      <trkpt lat="49.33173" lon="1.03796">
        <ele>125</ele>
        <time>2019-12-30T14:07:36.000Z</time>
      </trkpt>
      <trkpt lat="49.3317" lon="1.03798">
        <ele>125</ele>
        <time>2019-12-30T14:07:37.000Z</time>
      </trkpt>
      <trkpt lat="49.33166" lon="1.03799">
        <ele>125</ele>
        <time>2019-12-30T14:07:38.000Z</time>
      </trkpt>
      <trkpt lat="49.33162" lon="1.038">
        <ele>125</ele>
        <time>2019-12-30T14:07:39.000Z</time>
      </trkpt>
      <trkpt lat="49.33158" lon="1.03801">
        <ele>126</ele>
        <time>2019-12-30T14:07:40.000Z</time>
      </trkpt>
      <trkpt lat="49.33154" lon="1.03803">
        <ele>126</ele>
        <time>2019-12-30T14:07:41.000Z</time>
      </trkpt>
      <trkpt lat="49.3315" lon="1.03804">
        <ele>126</ele>
        <time>2019-12-30T14:07:42.000Z</time>
      </trkpt>
      <trkpt lat="49.33147" lon="1.03805">
        <ele>126</ele>
        <time>2019-12-30T14:07:43.000Z</time>
      </trkpt>
      <trkpt lat="49.33143" lon="1.03806">
        <ele>126</ele>
        <time>2019-12-30T14:07:44.000Z</time>
      </trkpt>
      <trkpt lat="49.3314" lon="1.03808">
        <ele>127</ele>
        <time>2019-12-30T14:07:45.000Z</time>
      </trkpt>
      <trkpt lat="49.33136" lon="1.03809">
        <ele>127</ele>
        <time>2019-12-30T14:07:46.000Z</time>
      </trkpt>
      <trkpt lat="49.33133" lon="1.03811">
        <ele>127</ele>
        <time>2019-12-30T14:07:47.000Z</time>
      </trkpt>
      <trkpt lat="49.33129" lon="1.03813">
        <ele>128</ele>
        <time>2019-12-30T14:07:48.000Z</time>
      </trkpt>
      <trkpt lat="49.33126" lon="1.03814">
        <ele>128</ele>
        <time>2019-12-30T14:07:49.000Z</time>
      </trkpt>
      <trkpt lat="49.33122" lon="1.03816">
        <ele>128</ele>
        <time>2019-12-30T14:07:50.000Z</time>
      </trkpt>
      <trkpt lat="49.33119" lon="1.03818">
        <ele>129</ele>
        <time>2019-12-30T14:07:51.000Z</time>
      </trkpt>
      <trkpt lat="49.33116" lon="1.03819">
        <ele>129</ele>
        <time>2019-12-30T14:07:52.000Z</time>
      </trkpt>
      <trkpt lat="49.33113" lon="1.03821">
        <ele>129</ele>
        <time>2019-12-30T14:07:53.000Z</time>
      </trkpt>
      <trkpt lat="49.33109" lon="1.03822">
        <ele>130</ele>
        <time>2019-12-30T14:07:54.000Z</time>
      </trkpt>
      <trkpt lat="49.33105" lon="1.03824">
        <ele>130</ele>
        <time>2019-12-30T14:07:55.000Z</time>
      </trkpt>
      <trkpt lat="49.33102" lon="1.03826">
        <ele>130</ele>
        <time>2019-12-30T14:07:56.000Z</time>
      </trkpt>
      <trkpt lat="49.33098" lon="1.03827">
        <ele>131</ele>
        <time>2019-12-30T14:07:57.000Z</time>
      </trkpt>
      <trkpt lat="49.33094" lon="1.03828">
        <ele>131</ele>
        <time>2019-12-30T14:07:58.000Z</time>
      </trkpt>
      <trkpt lat="49.33091" lon="1.03829">
        <ele>131</ele>
        <time>2019-12-30T14:07:59.000Z</time>
      </trkpt>
      <trkpt lat="49.33088" lon="1.03831">
        <ele>131</ele>
        <time>2019-12-30T14:08:00.000Z</time>
      </trkpt>
      <trkpt lat="49.33085" lon="1.03832">
        <ele>132</ele>
        <time>2019-12-30T14:08:01.000Z</time>
      </trkpt>
      <trkpt lat="49.33082" lon="1.03833">
        <ele>132</ele>
        <time>2019-12-30T14:08:02.000Z</time>
      </trkpt>
      <trkpt lat="49.33078" lon="1.03835">
        <ele>132</ele>
        <time>2019-12-30T14:08:03.000Z</time>
      </trkpt>
      <trkpt lat="49.33075" lon="1.03837">
        <ele>132</ele>
        <time>2019-12-30T14:08:04.000Z</time>
      </trkpt>
      <trkpt lat="49.33071" lon="1.03838">
        <ele>132</ele>
        <time>2019-12-30T14:08:05.000Z</time>
      </trkpt>
      <trkpt lat="49.33068" lon="1.03839">
        <ele>133</ele>
        <time>2019-12-30T14:08:06.000Z</time>
      </trkpt>
      <trkpt lat="49.33065" lon="1.03841">
        <ele>133</ele>
        <time>2019-12-30T14:08:07.000Z</time>
      </trkpt>
      <trkpt lat="49.33061" lon="1.03843">
        <ele>133</ele>
        <time>2019-12-30T14:08:08.000Z</time>
      </trkpt>
      <trkpt lat="49.33058" lon="1.03844">
        <ele>133</ele>
        <time>2019-12-30T14:08:09.000Z</time>
      </trkpt>
      <trkpt lat="49.33054" lon="1.03846">
        <ele>134</ele>
        <time>2019-12-30T14:08:10.000Z</time>
      </trkpt>
      <trkpt lat="49.3305" lon="1.03848">
        <ele>134</ele>
        <time>2019-12-30T14:08:11.000Z</time>
      </trkpt>
      <trkpt lat="49.33047" lon="1.03849">
        <ele>134</ele>
        <time>2019-12-30T14:08:12.000Z</time>
      </trkpt>
      <trkpt lat="49.33043" lon="1.0385">
        <ele>134</ele>
        <time>2019-12-30T14:08:13.000Z</time>
      </trkpt>
      <trkpt lat="49.3304" lon="1.03852">
        <ele>134</ele>
        <time>2019-12-30T14:08:14.000Z</time>
      </trkpt>
      <trkpt lat="49.33037" lon="1.03854">
        <ele>135</ele>
        <time>2019-12-30T14:08:15.000Z</time>
      </trkpt>
      <trkpt lat="49.33033" lon="1.03855">
        <ele>135</ele>
        <time>2019-12-30T14:08:16.000Z</time>
      </trkpt>
      <trkpt lat="49.3303" lon="1.03857">
        <ele>135</ele>
        <time>2019-12-30T14:08:17.000Z</time>
      </trkpt>
      <trkpt lat="49.33027" lon="1.03858">
        <ele>135</ele>
        <time>2019-12-30T14:08:18.000Z</time>
      </trkpt>
      <trkpt lat="49.33023" lon="1.03859">
        <ele>135</ele>
        <time>2019-12-30T14:08:19.000Z</time>
      </trkpt>
      <trkpt lat="49.3302" lon="1.0386">
        <ele>135</ele>
        <time>2019-12-30T14:08:20.000Z</time>
      </trkpt>
      <trkpt lat="49.33017" lon="1.03861">
        <ele>135</ele>
        <time>2019-12-30T14:08:21.000Z</time>
      </trkpt>
      <trkpt lat="49.33013" lon="1.03862">
        <ele>135</ele>
        <time>2019-12-30T14:08:22.000Z</time>
      </trkpt>
      <trkpt lat="49.3301" lon="1.03863">
        <ele>135</ele>
        <time>2019-12-30T14:08:23.000Z</time>
      </trkpt>
      <trkpt lat="49.33006" lon="1.03864">
        <ele>135</ele>
        <time>2019-12-30T14:08:24.000Z</time>
      </trkpt>
      <trkpt lat="49.33002" lon="1.03865">
        <ele>135</ele>
        <time>2019-12-30T14:08:25.000Z</time>
      </trkpt>
      <trkpt lat="49.32999" lon="1.03866">
        <ele>135</ele>
        <time>2019-12-30T14:08:26.000Z</time>
      </trkpt>
      <trkpt lat="49.32996" lon="1.03867">
        <ele>135</ele>
        <time>2019-12-30T14:08:27.000Z</time>
      </trkpt>
      <trkpt lat="49.32992" lon="1.03868">
        <ele>135</ele>
        <time>2019-12-30T14:08:28.000Z</time>
      </trkpt>
      <trkpt lat="49.32989" lon="1.0387">
        <ele>135</ele>
        <time>2019-12-30T14:08:29.000Z</time>
      </trkpt>
      <trkpt lat="49.32985" lon="1.03872">
        <ele>135</ele>
        <time>2019-12-30T14:08:30.000Z</time>
      </trkpt>
      <trkpt lat="49.32981" lon="1.03872">
        <ele>135</ele>
        <time>2019-12-30T14:08:31.000Z</time>
      </trkpt>
      <trkpt lat="49.32978" lon="1.03872">
        <ele>135</ele>
        <time>2019-12-30T14:08:32.000Z</time>
      </trkpt>
      <trkpt lat="49.32976" lon="1.03871">
        <ele>135</ele>
        <time>2019-12-30T14:08:33.000Z</time>
      </trkpt>
      <trkpt lat="49.32974" lon="1.03869">
        <ele>135</ele>
        <time>2019-12-30T14:08:34.000Z</time>
      </trkpt>
      <trkpt lat="49.32972" lon="1.03866">
        <ele>134</ele>
        <time>2019-12-30T14:08:35.000Z</time>
      </trkpt>
      <trkpt lat="49.32972" lon="1.03862">
        <ele>134</ele>
        <time>2019-12-30T14:08:36.000Z</time>
      </trkpt>
      <trkpt lat="49.32972" lon="1.03857">
        <ele>134</ele>
        <time>2019-12-30T14:08:37.000Z</time>
      </trkpt>
      <trkpt lat="49.32972" lon="1.03853">
        <ele>134</ele>
        <time>2019-12-30T14:08:38.000Z</time>
      </trkpt>
      <trkpt lat="49.32972" lon="1.03848">
        <ele>134</ele>
        <time>2019-12-30T14:08:39.000Z</time>
      </trkpt>
      <trkpt lat="49.32972" lon="1.03843">
        <ele>134</ele>
        <time>2019-12-30T14:08:40.000Z</time>
      </trkpt>
      <trkpt lat="49.32972" lon="1.03839">
        <ele>134</ele>
        <time>2019-12-30T14:08:41.000Z</time>
      </trkpt>
      <trkpt lat="49.32971" lon="1.03834">
        <ele>134</ele>
        <time>2019-12-30T14:08:42.000Z</time>
      </trkpt>
      <trkpt lat="49.32971" lon="1.03829">
        <ele>134</ele>
        <time>2019-12-30T14:08:43.000Z</time>
      </trkpt>
      <trkpt lat="49.32971" lon="1.03825">
        <ele>134</ele>
        <time>2019-12-30T14:08:44.000Z</time>
      </trkpt>
      <trkpt lat="49.32971" lon="1.0382">
        <ele>134</ele>
        <time>2019-12-30T14:08:45.000Z</time>
      </trkpt>
      <trkpt lat="49.32971" lon="1.03815">
        <ele>134</ele>
        <time>2019-12-30T14:08:46.000Z</time>
      </trkpt>
      <trkpt lat="49.3297" lon="1.0381">
        <ele>134</ele>
        <time>2019-12-30T14:08:47.000Z</time>
      </trkpt>
      <trkpt lat="49.3297" lon="1.03805">
        <ele>134</ele>
        <time>2019-12-30T14:08:48.000Z</time>
      </trkpt>
      <trkpt lat="49.3297" lon="1.038">
        <ele>133</ele>
        <time>2019-12-30T14:08:49.000Z</time>
      </trkpt>
      <trkpt lat="49.3297" lon="1.03795">
        <ele>133</ele>
        <time>2019-12-30T14:08:50.000Z</time>
      </trkpt>
      <trkpt lat="49.32969" lon="1.03789">
        <ele>133</ele>
        <time>2019-12-30T14:08:51.000Z</time>
      </trkpt>
      <trkpt lat="49.32969" lon="1.03784">
        <ele>133</ele>
        <time>2019-12-30T14:08:52.000Z</time>
      </trkpt>
      <trkpt lat="49.32968" lon="1.03779">
        <ele>133</ele>
        <time>2019-12-30T14:08:53.000Z</time>
      </trkpt>
      <trkpt lat="49.32969" lon="1.03774">
        <ele>133</ele>
        <time>2019-12-30T14:08:54.000Z</time>
      </trkpt>
      <trkpt lat="49.32969" lon="1.03769">
        <ele>133</ele>
        <time>2019-12-30T14:08:55.000Z</time>
      </trkpt>
      <trkpt lat="49.32969" lon="1.03763">
        <ele>133</ele>
        <time>2019-12-30T14:08:56.000Z</time>
      </trkpt>
      <trkpt lat="49.32969" lon="1.03758">
        <ele>133</ele>
        <time>2019-12-30T14:08:57.000Z</time>
      </trkpt>
      <trkpt lat="49.32969" lon="1.03753">
        <ele>133</ele>
        <time>2019-12-30T14:08:58.000Z</time>
      </trkpt>
      <trkpt lat="49.32969" lon="1.03747">
        <ele>133</ele>
        <time>2019-12-30T14:08:59.000Z</time>
      </trkpt>
      <trkpt lat="49.32969" lon="1.03743">
        <ele>133</ele>
        <time>2019-12-30T14:09:00.000Z</time>
      </trkpt>
      <trkpt lat="49.32968" lon="1.03738">
        <ele>133</ele>
        <time>2019-12-30T14:09:01.000Z</time>
      </trkpt>
      <trkpt lat="49.32967" lon="1.03733">
        <ele>133</ele>
        <time>2019-12-30T14:09:02.000Z</time>
      </trkpt>
      <trkpt lat="49.32966" lon="1.03728">
        <ele>133</ele>
        <time>2019-12-30T14:09:03.000Z</time>
      </trkpt>
      <trkpt lat="49.32965" lon="1.03724">
        <ele>133</ele>
        <time>2019-12-30T14:09:04.000Z</time>
      </trkpt>
      <trkpt lat="49.32965" lon="1.03719">
        <ele>133</ele>
        <time>2019-12-30T14:09:05.000Z</time>
      </trkpt>
      <trkpt lat="49.32964" lon="1.03714">
        <ele>133</ele>
        <time>2019-12-30T14:09:06.000Z</time>
      </trkpt>
      <trkpt lat="49.32963" lon="1.03709">
        <ele>133</ele>
        <time>2019-12-30T14:09:07.000Z</time>
      </trkpt>
      <trkpt lat="49.32963" lon="1.03703">
        <ele>133</ele>
        <time>2019-12-30T14:09:08.000Z</time>
      </trkpt>
      <trkpt lat="49.32962" lon="1.03698">
        <ele>133</ele>
        <time>2019-12-30T14:09:09.000Z</time>
      </trkpt>
      <trkpt lat="49.32962" lon="1.03693">
        <ele>133</ele>
        <time>2019-12-30T14:09:10.000Z</time>
      </trkpt>
      <trkpt lat="49.3296" lon="1.03688">
        <ele>133</ele>
        <time>2019-12-30T14:09:11.000Z</time>
      </trkpt>
      <trkpt lat="49.3296" lon="1.03682">
        <ele>133</ele>
        <time>2019-12-30T14:09:12.000Z</time>
      </trkpt>
      <trkpt lat="49.32959" lon="1.03676">
        <ele>132</ele>
        <time>2019-12-30T14:09:13.000Z</time>
      </trkpt>
      <trkpt lat="49.32958" lon="1.0367">
        <ele>132</ele>
        <time>2019-12-30T14:09:14.000Z</time>
      </trkpt>
      <trkpt lat="49.32958" lon="1.03665">
        <ele>132</ele>
        <time>2019-12-30T14:09:15.000Z</time>
      </trkpt>
      <trkpt lat="49.32957" lon="1.0366">
        <ele>132</ele>
        <time>2019-12-30T14:09:16.000Z</time>
      </trkpt>
      <trkpt lat="49.32956" lon="1.03654">
        <ele>132</ele>
        <time>2019-12-30T14:09:17.000Z</time>
      </trkpt>
      <trkpt lat="49.32954" lon="1.03649">
        <ele>132</ele>
        <time>2019-12-30T14:09:18.000Z</time>
      </trkpt>
      <trkpt lat="49.32952" lon="1.03644">
        <ele>132</ele>
        <time>2019-12-30T14:09:19.000Z</time>
      </trkpt>
      <trkpt lat="49.3295" lon="1.03642">
        <ele>132</ele>
        <time>2019-12-30T14:09:20.000Z</time>
      </trkpt>
      <trkpt lat="49.32948" lon="1.0364">
        <ele>132</ele>
        <time>2019-12-30T14:09:21.000Z</time>
      </trkpt>
      <trkpt lat="49.32945" lon="1.0364">
        <ele>131</ele>
        <time>2019-12-30T14:09:22.000Z</time>
      </trkpt>
      <trkpt lat="49.32942" lon="1.0364">
        <ele>131</ele>
        <time>2019-12-30T14:09:23.000Z</time>
      </trkpt>
      <trkpt lat="49.32939" lon="1.03642">
        <ele>131</ele>
        <time>2019-12-30T14:09:24.000Z</time>
      </trkpt>
      <trkpt lat="49.32936" lon="1.03643">
        <ele>131</ele>
        <time>2019-12-30T14:09:25.000Z</time>
      </trkpt>
      <trkpt lat="49.32933" lon="1.03642">
        <ele>131</ele>
        <time>2019-12-30T14:09:26.000Z</time>
      </trkpt>
      <trkpt lat="49.32931" lon="1.03641">
        <ele>131</ele>
        <time>2019-12-30T14:09:27.000Z</time>
      </trkpt>
      <trkpt lat="49.32928" lon="1.03639">
        <ele>131</ele>
        <time>2019-12-30T14:09:28.000Z</time>
      </trkpt>
      <trkpt lat="49.32924" lon="1.03638">
        <ele>131</ele>
        <time>2019-12-30T14:09:29.000Z</time>
      </trkpt>
      <trkpt lat="49.32922" lon="1.03636">
        <ele>131</ele>
        <time>2019-12-30T14:09:30.000Z</time>
      </trkpt>
      <trkpt lat="49.32919" lon="1.03634">
        <ele>131</ele>
        <time>2019-12-30T14:09:31.000Z</time>
      </trkpt>
      <trkpt lat="49.32916" lon="1.03631">
        <ele>131</ele>
        <time>2019-12-30T14:09:32.000Z</time>
      </trkpt>
      <trkpt lat="49.32914" lon="1.0363">
        <ele>131</ele>
        <time>2019-12-30T14:09:33.000Z</time>
      </trkpt>
      <trkpt lat="49.32912" lon="1.03628">
        <ele>131</ele>
        <time>2019-12-30T14:09:34.000Z</time>
      </trkpt>
      <trkpt lat="49.3291" lon="1.03625">
        <ele>131</ele>
        <time>2019-12-30T14:09:35.000Z</time>
      </trkpt>
      <trkpt lat="49.32909" lon="1.03621">
        <ele>131</ele>
        <time>2019-12-30T14:09:36.000Z</time>
      </trkpt>
      <trkpt lat="49.32909" lon="1.03617">
        <ele>131</ele>
        <time>2019-12-30T14:09:37.000Z</time>
      </trkpt>
      <trkpt lat="49.32909" lon="1.03612">
        <ele>131</ele>
        <time>2019-12-30T14:09:38.000Z</time>
      </trkpt>
      <trkpt lat="49.32909" lon="1.03607">
        <ele>131</ele>
        <time>2019-12-30T14:09:39.000Z</time>
      </trkpt>
      <trkpt lat="49.32909" lon="1.03602">
        <ele>131</ele>
        <time>2019-12-30T14:09:40.000Z</time>
      </trkpt>
      <trkpt lat="49.32909" lon="1.03598">
        <ele>131</ele>
        <time>2019-12-30T14:09:41.000Z</time>
      </trkpt>
      <trkpt lat="49.3291" lon="1.03594">
        <ele>130</ele>
        <time>2019-12-30T14:09:42.000Z</time>
      </trkpt>
      <trkpt lat="49.32912" lon="1.0359">
        <ele>130</ele>
        <time>2019-12-30T14:09:43.000Z</time>
      </trkpt>
      <trkpt lat="49.32913" lon="1.03586">
        <ele>130</ele>
        <time>2019-12-30T14:09:44.000Z</time>
      </trkpt>
      <trkpt lat="49.32914" lon="1.03582">
        <ele>130</ele>
        <time>2019-12-30T14:09:45.000Z</time>
      </trkpt>
      <trkpt lat="49.32915" lon="1.03577">
        <ele>130</ele>
        <time>2019-12-30T14:09:46.000Z</time>
      </trkpt>
      <trkpt lat="49.32914" lon="1.03572">
        <ele>130</ele>
        <time>2019-12-30T14:09:47.000Z</time>
      </trkpt>
      <trkpt lat="49.32914" lon="1.0357">
        <ele>130</ele>
        <time>2019-12-30T14:09:48.000Z</time>
      </trkpt>
      <trkpt lat="49.32914" lon="1.03569">
        <ele>130</ele>
        <time>2019-12-30T14:09:49.000Z</time>
      </trkpt>
      <trkpt lat="49.32913" lon="1.03569">
        <ele>130</ele>
        <time>2019-12-30T14:09:50.000Z</time>
      </trkpt>
      <trkpt lat="49.32913" lon="1.03568">
        <ele>130</ele>
        <time>2019-12-30T14:09:51.000Z</time>
      </trkpt>
      <trkpt lat="49.32913" lon="1.03568">
        <ele>130</ele>
        <time>2019-12-30T14:09:52.000Z</time>
      </trkpt>
      <trkpt lat="49.32909" lon="1.03559">
        <ele>129</ele>
        <time>2019-12-30T14:09:53.000Z</time>
      </trkpt>
      <trkpt lat="49.32909" lon="1.03556">
        <ele>129</ele>
        <time>2019-12-30T14:09:54.000Z</time>
      </trkpt>
      <trkpt lat="49.32909" lon="1.03552">
        <ele>129</ele>
        <time>2019-12-30T14:09:55.000Z</time>
      </trkpt>
      <trkpt lat="49.32908" lon="1.03547">
        <ele>129</ele>
        <time>2019-12-30T14:09:56.000Z</time>
      </trkpt>
      <trkpt lat="49.32908" lon="1.03542">
        <ele>129</ele>
        <time>2019-12-30T14:09:57.000Z</time>
      </trkpt>
      <trkpt lat="49.32908" lon="1.03537">
        <ele>129</ele>
        <time>2019-12-30T14:09:58.000Z</time>
      </trkpt>
      <trkpt lat="49.32907" lon="1.03532">
        <ele>129</ele>
        <time>2019-12-30T14:09:59.000Z</time>
      </trkpt>
      <trkpt lat="49.32905" lon="1.03528">
        <ele>129</ele>
        <time>2019-12-30T14:10:00.000Z</time>
      </trkpt>
      <trkpt lat="49.32904" lon="1.03522">
        <ele>129</ele>
        <time>2019-12-30T14:10:01.000Z</time>
      </trkpt>
      <trkpt lat="49.32902" lon="1.03517">
        <ele>129</ele>
        <time>2019-12-30T14:10:02.000Z</time>
      </trkpt>
      <trkpt lat="49.32901" lon="1.03512">
        <ele>129</ele>
        <time>2019-12-30T14:10:03.000Z</time>
      </trkpt>
      <trkpt lat="49.32899" lon="1.03507">
        <ele>129</ele>
        <time>2019-12-30T14:10:04.000Z</time>
      </trkpt>
      <trkpt lat="49.32897" lon="1.03502">
        <ele>129</ele>
        <time>2019-12-30T14:10:05.000Z</time>
      </trkpt>
      <trkpt lat="49.32895" lon="1.03497">
        <ele>129</ele>
        <time>2019-12-30T14:10:06.000Z</time>
      </trkpt>
      <trkpt lat="49.32893" lon="1.03491">
        <ele>129</ele>
        <time>2019-12-30T14:10:07.000Z</time>
      </trkpt>
      <trkpt lat="49.32891" lon="1.03485">
        <ele>129</ele>
        <time>2019-12-30T14:10:08.000Z</time>
      </trkpt>
      <trkpt lat="49.32889" lon="1.03479">
        <ele>129</ele>
        <time>2019-12-30T14:10:09.000Z</time>
      </trkpt>
      <trkpt lat="49.32888" lon="1.03474">
        <ele>129</ele>
        <time>2019-12-30T14:10:10.000Z</time>
      </trkpt>
      <trkpt lat="49.32886" lon="1.03468">
        <ele>129</ele>
        <time>2019-12-30T14:10:11.000Z</time>
      </trkpt>
      <trkpt lat="49.32885" lon="1.03462">
        <ele>129</ele>
        <time>2019-12-30T14:10:12.000Z</time>
      </trkpt>
      <trkpt lat="49.32884" lon="1.03457">
        <ele>129</ele>
        <time>2019-12-30T14:10:13.000Z</time>
      </trkpt>
      <trkpt lat="49.32882" lon="1.03451">
        <ele>129</ele>
        <time>2019-12-30T14:10:14.000Z</time>
      </trkpt>
      <trkpt lat="49.32881" lon="1.03445">
        <ele>129</ele>
        <time>2019-12-30T14:10:15.000Z</time>
      </trkpt>
      <trkpt lat="49.3288" lon="1.0344">
        <ele>129</ele>
        <time>2019-12-30T14:10:16.000Z</time>
      </trkpt>
      <trkpt lat="49.32878" lon="1.03436">
        <ele>129</ele>
        <time>2019-12-30T14:10:17.000Z</time>
      </trkpt>
      <trkpt lat="49.32876" lon="1.0343">
        <ele>128</ele>
        <time>2019-12-30T14:10:18.000Z</time>
      </trkpt>
      <trkpt lat="49.32874" lon="1.03425">
        <ele>128</ele>
        <time>2019-12-30T14:10:19.000Z</time>
      </trkpt>
      <trkpt lat="49.32873" lon="1.03419">
        <ele>128</ele>
        <time>2019-12-30T14:10:20.000Z</time>
      </trkpt>
      <trkpt lat="49.32872" lon="1.03414">
        <ele>128</ele>
        <time>2019-12-30T14:10:21.000Z</time>
      </trkpt>
      <trkpt lat="49.32872" lon="1.03408">
        <ele>128</ele>
        <time>2019-12-30T14:10:22.000Z</time>
      </trkpt>
      <trkpt lat="49.32873" lon="1.03403">
        <ele>128</ele>
        <time>2019-12-30T14:10:23.000Z</time>
      </trkpt>
      <trkpt lat="49.32874" lon="1.03397">
        <ele>128</ele>
        <time>2019-12-30T14:10:24.000Z</time>
      </trkpt>
      <trkpt lat="49.32874" lon="1.03391">
        <ele>128</ele>
        <time>2019-12-30T14:10:25.000Z</time>
      </trkpt>
      <trkpt lat="49.32874" lon="1.03385">
        <ele>128</ele>
        <time>2019-12-30T14:10:26.000Z</time>
      </trkpt>
      <trkpt lat="49.32874" lon="1.03379">
        <ele>127</ele>
        <time>2019-12-30T14:10:27.000Z</time>
      </trkpt>
      <trkpt lat="49.32874" lon="1.03373">
        <ele>127</ele>
        <time>2019-12-30T14:10:28.000Z</time>
      </trkpt>
      <trkpt lat="49.32874" lon="1.03367">
        <ele>127</ele>
        <time>2019-12-30T14:10:29.000Z</time>
      </trkpt>
      <trkpt lat="49.32873" lon="1.03361">
        <ele>127</ele>
        <time>2019-12-30T14:10:30.000Z</time>
      </trkpt>
      <trkpt lat="49.32874" lon="1.03355">
        <ele>127</ele>
        <time>2019-12-30T14:10:31.000Z</time>
      </trkpt>
      <trkpt lat="49.32874" lon="1.03349">
        <ele>127</ele>
        <time>2019-12-30T14:10:32.000Z</time>
      </trkpt>
      <trkpt lat="49.32875" lon="1.03342">
        <ele>127</ele>
        <time>2019-12-30T14:10:33.000Z</time>
      </trkpt>
      <trkpt lat="49.32876" lon="1.03336">
        <ele>127</ele>
        <time>2019-12-30T14:10:34.000Z</time>
      </trkpt>
      <trkpt lat="49.32877" lon="1.0333">
        <ele>127</ele>
        <time>2019-12-30T14:10:35.000Z</time>
      </trkpt>
      <trkpt lat="49.32878" lon="1.03323">
        <ele>127</ele>
        <time>2019-12-30T14:10:36.000Z</time>
      </trkpt>
      <trkpt lat="49.32879" lon="1.03317">
        <ele>127</ele>
        <time>2019-12-30T14:10:37.000Z</time>
      </trkpt>
      <trkpt lat="49.32881" lon="1.03311">
        <ele>127</ele>
        <time>2019-12-30T14:10:38.000Z</time>
      </trkpt>
      <trkpt lat="49.32882" lon="1.03305">
        <ele>127</ele>
        <time>2019-12-30T14:10:39.000Z</time>
      </trkpt>
      <trkpt lat="49.32884" lon="1.03299">
        <ele>127</ele>
        <time>2019-12-30T14:10:40.000Z</time>
      </trkpt>
      <trkpt lat="49.32885" lon="1.03292">
        <ele>126</ele>
        <time>2019-12-30T14:10:41.000Z</time>
      </trkpt>
      <trkpt lat="49.32886" lon="1.03286">
        <ele>126</ele>
        <time>2019-12-30T14:10:42.000Z</time>
      </trkpt>
      <trkpt lat="49.32885" lon="1.03279">
        <ele>126</ele>
        <time>2019-12-30T14:10:43.000Z</time>
      </trkpt>
      <trkpt lat="49.32885" lon="1.03272">
        <ele>126</ele>
        <time>2019-12-30T14:10:44.000Z</time>
      </trkpt>
      <trkpt lat="49.32885" lon="1.03266">
        <ele>126</ele>
        <time>2019-12-30T14:10:45.000Z</time>
      </trkpt>
      <trkpt lat="49.32885" lon="1.03261">
        <ele>126</ele>
        <time>2019-12-30T14:10:46.000Z</time>
      </trkpt>
      <trkpt lat="49.32885" lon="1.03254">
        <ele>126</ele>
        <time>2019-12-30T14:10:47.000Z</time>
      </trkpt>
      <trkpt lat="49.32886" lon="1.03248">
        <ele>126</ele>
        <time>2019-12-30T14:10:48.000Z</time>
      </trkpt>
      <trkpt lat="49.32887" lon="1.03241">
        <ele>126</ele>
        <time>2019-12-30T14:10:49.000Z</time>
      </trkpt>
      <trkpt lat="49.32889" lon="1.03235">
        <ele>126</ele>
        <time>2019-12-30T14:10:50.000Z</time>
      </trkpt>
      <trkpt lat="49.3289" lon="1.03229">
        <ele>126</ele>
        <time>2019-12-30T14:10:51.000Z</time>
      </trkpt>
      <trkpt lat="49.32891" lon="1.03222">
        <ele>126</ele>
        <time>2019-12-30T14:10:52.000Z</time>
      </trkpt>
      <trkpt lat="49.32891" lon="1.03217">
        <ele>125</ele>
        <time>2019-12-30T14:10:53.000Z</time>
      </trkpt>
      <trkpt lat="49.32891" lon="1.0321">
        <ele>125</ele>
        <time>2019-12-30T14:10:54.000Z</time>
      </trkpt>
      <trkpt lat="49.32892" lon="1.03204">
        <ele>125</ele>
        <time>2019-12-30T14:10:55.000Z</time>
      </trkpt>
      <trkpt lat="49.32892" lon="1.032">
        <ele>125</ele>
        <time>2019-12-30T14:10:56.000Z</time>
      </trkpt>
      <trkpt lat="49.3289" lon="1.03195">
        <ele>125</ele>
        <time>2019-12-30T14:10:57.000Z</time>
      </trkpt>
      <trkpt lat="49.32888" lon="1.0319">
        <ele>125</ele>
        <time>2019-12-30T14:10:58.000Z</time>
      </trkpt>
      <trkpt lat="49.32887" lon="1.03185">
        <ele>125</ele>
        <time>2019-12-30T14:10:59.000Z</time>
      </trkpt>
      <trkpt lat="49.32884" lon="1.03181">
        <ele>124</ele>
        <time>2019-12-30T14:11:00.000Z</time>
      </trkpt>
      <trkpt lat="49.32882" lon="1.03177">
        <ele>124</ele>
        <time>2019-12-30T14:11:01.000Z</time>
      </trkpt>
      <trkpt lat="49.32878" lon="1.03174">
        <ele>124</ele>
        <time>2019-12-30T14:11:02.000Z</time>
      </trkpt>
      <trkpt lat="49.32875" lon="1.03169">
        <ele>124</ele>
        <time>2019-12-30T14:11:03.000Z</time>
      </trkpt>
      <trkpt lat="49.32873" lon="1.03164">
        <ele>124</ele>
        <time>2019-12-30T14:11:04.000Z</time>
      </trkpt>
      <trkpt lat="49.32871" lon="1.03158">
        <ele>124</ele>
        <time>2019-12-30T14:11:05.000Z</time>
      </trkpt>
      <trkpt lat="49.32869" lon="1.03152">
        <ele>124</ele>
        <time>2019-12-30T14:11:06.000Z</time>
      </trkpt>
      <trkpt lat="49.32867" lon="1.03146">
        <ele>124</ele>
        <time>2019-12-30T14:11:07.000Z</time>
      </trkpt>
      <trkpt lat="49.32865" lon="1.0314">
        <ele>124</ele>
        <time>2019-12-30T14:11:08.000Z</time>
      </trkpt>
      <trkpt lat="49.32863" lon="1.03134">
        <ele>124</ele>
        <time>2019-12-30T14:11:09.000Z</time>
      </trkpt>
      <trkpt lat="49.32861" lon="1.03129">
        <ele>124</ele>
        <time>2019-12-30T14:11:10.000Z</time>
      </trkpt>
      <trkpt lat="49.32858" lon="1.03124">
        <ele>124</ele>
        <time>2019-12-30T14:11:11.000Z</time>
      </trkpt>
      <trkpt lat="49.32856" lon="1.03118">
        <ele>124</ele>
        <time>2019-12-30T14:11:12.000Z</time>
      </trkpt>
      <trkpt lat="49.32853" lon="1.03113">
        <ele>124</ele>
        <time>2019-12-30T14:11:13.000Z</time>
      </trkpt>
      <trkpt lat="49.3285" lon="1.03108">
        <ele>124</ele>
        <time>2019-12-30T14:11:14.000Z</time>
      </trkpt>
      <trkpt lat="49.32847" lon="1.03103">
        <ele>124</ele>
        <time>2019-12-30T14:11:15.000Z</time>
      </trkpt>
      <trkpt lat="49.32844" lon="1.03099">
        <ele>124</ele>
        <time>2019-12-30T14:11:16.000Z</time>
      </trkpt>
      <trkpt lat="49.32841" lon="1.03094">
        <ele>124</ele>
        <time>2019-12-30T14:11:17.000Z</time>
      </trkpt>
      <trkpt lat="49.32839" lon="1.03089">
        <ele>124</ele>
        <time>2019-12-30T14:11:18.000Z</time>
      </trkpt>
      <trkpt lat="49.32836" lon="1.03084">
        <ele>124</ele>
        <time>2019-12-30T14:11:19.000Z</time>
      </trkpt>
      <trkpt lat="49.32833" lon="1.03079">
        <ele>124</ele>
        <time>2019-12-30T14:11:20.000Z</time>
      </trkpt>
      <trkpt lat="49.32832" lon="1.03073">
        <ele>124</ele>
        <time>2019-12-30T14:11:21.000Z</time>
      </trkpt>
      <trkpt lat="49.32831" lon="1.03067">
        <ele>124</ele>
        <time>2019-12-30T14:11:22.000Z</time>
      </trkpt>
      <trkpt lat="49.3283" lon="1.0306">
        <ele>124</ele>
        <time>2019-12-30T14:11:23.000Z</time>
      </trkpt>
      <trkpt lat="49.32829" lon="1.03054">
        <ele>124</ele>
        <time>2019-12-30T14:11:24.000Z</time>
      </trkpt>
      <trkpt lat="49.32829" lon="1.03048">
        <ele>124</ele>
        <time>2019-12-30T14:11:25.000Z</time>
      </trkpt>
      <trkpt lat="49.32829" lon="1.03042">
        <ele>124</ele>
        <time>2019-12-30T14:11:26.000Z</time>
      </trkpt>
      <trkpt lat="49.32829" lon="1.03035">
        <ele>124</ele>
        <time>2019-12-30T14:11:27.000Z</time>
      </trkpt>
      <trkpt lat="49.3283" lon="1.03029">
        <ele>124</ele>
        <time>2019-12-30T14:11:28.000Z</time>
      </trkpt>
      <trkpt lat="49.3283" lon="1.03022">
        <ele>124</ele>
        <time>2019-12-30T14:11:29.000Z</time>
      </trkpt>
      <trkpt lat="49.3283" lon="1.03016">
        <ele>124</ele>
        <time>2019-12-30T14:11:30.000Z</time>
      </trkpt>
      <trkpt lat="49.3283" lon="1.0301">
        <ele>124</ele>
        <time>2019-12-30T14:11:31.000Z</time>
      </trkpt>
      <trkpt lat="49.3283" lon="1.03004">
        <ele>124</ele>
        <time>2019-12-30T14:11:32.000Z</time>
      </trkpt>
      <trkpt lat="49.32831" lon="1.02998">
        <ele>124</ele>
        <time>2019-12-30T14:11:33.000Z</time>
      </trkpt>
      <trkpt lat="49.3283" lon="1.02993">
        <ele>124</ele>
        <time>2019-12-30T14:11:34.000Z</time>
      </trkpt>
      <trkpt lat="49.32829" lon="1.02987">
        <ele>125</ele>
        <time>2019-12-30T14:11:35.000Z</time>
      </trkpt>
      <trkpt lat="49.32829" lon="1.02981">
        <ele>125</ele>
        <time>2019-12-30T14:11:36.000Z</time>
      </trkpt>
      <trkpt lat="49.32828" lon="1.02975">
        <ele>125</ele>
        <time>2019-12-30T14:11:37.000Z</time>
      </trkpt>
      <trkpt lat="49.32827" lon="1.02968">
        <ele>125</ele>
        <time>2019-12-30T14:11:38.000Z</time>
      </trkpt>
      <trkpt lat="49.32827" lon="1.02961">
        <ele>125</ele>
        <time>2019-12-30T14:11:39.000Z</time>
      </trkpt>
      <trkpt lat="49.32826" lon="1.02955">
        <ele>125</ele>
        <time>2019-12-30T14:11:40.000Z</time>
      </trkpt>
      <trkpt lat="49.32826" lon="1.02949">
        <ele>125</ele>
        <time>2019-12-30T14:11:41.000Z</time>
      </trkpt>
      <trkpt lat="49.32827" lon="1.02943">
        <ele>125</ele>
        <time>2019-12-30T14:11:42.000Z</time>
      </trkpt>
      <trkpt lat="49.32828" lon="1.02937">
        <ele>125</ele>
        <time>2019-12-30T14:11:43.000Z</time>
      </trkpt>
      <trkpt lat="49.32831" lon="1.02932">
        <ele>125</ele>
        <time>2019-12-30T14:11:44.000Z</time>
      </trkpt>
      <trkpt lat="49.32834" lon="1.02928">
        <ele>125</ele>
        <time>2019-12-30T14:11:45.000Z</time>
      </trkpt>
      <trkpt lat="49.32837" lon="1.02924">
        <ele>125</ele>
        <time>2019-12-30T14:11:46.000Z</time>
      </trkpt>
      <trkpt lat="49.32841" lon="1.02921">
        <ele>125</ele>
        <time>2019-12-30T14:11:47.000Z</time>
      </trkpt>
      <trkpt lat="49.32844" lon="1.02918">
        <ele>125</ele>
        <time>2019-12-30T14:11:48.000Z</time>
      </trkpt>
      <trkpt lat="49.32848" lon="1.02914">
        <ele>125</ele>
        <time>2019-12-30T14:11:49.000Z</time>
      </trkpt>
      <trkpt lat="49.32851" lon="1.0291">
        <ele>124</ele>
        <time>2019-12-30T14:11:50.000Z</time>
      </trkpt>
      <trkpt lat="49.32855" lon="1.02906">
        <ele>124</ele>
        <time>2019-12-30T14:11:51.000Z</time>
      </trkpt>
      <trkpt lat="49.32858" lon="1.02902">
        <ele>124</ele>
        <time>2019-12-30T14:11:52.000Z</time>
      </trkpt>
      <trkpt lat="49.32861" lon="1.02898">
        <ele>124</ele>
        <time>2019-12-30T14:11:53.000Z</time>
      </trkpt>
      <trkpt lat="49.32865" lon="1.02895">
        <ele>124</ele>
        <time>2019-12-30T14:11:54.000Z</time>
      </trkpt>
      <trkpt lat="49.32869" lon="1.02892">
        <ele>124</ele>
        <time>2019-12-30T14:11:55.000Z</time>
      </trkpt>
      <trkpt lat="49.32873" lon="1.02891">
        <ele>124</ele>
        <time>2019-12-30T14:11:56.000Z</time>
      </trkpt>
      <trkpt lat="49.32877" lon="1.02888">
        <ele>124</ele>
        <time>2019-12-30T14:11:57.000Z</time>
      </trkpt>
      <trkpt lat="49.3288" lon="1.02885">
        <ele>124</ele>
        <time>2019-12-30T14:11:58.000Z</time>
      </trkpt>
      <trkpt lat="49.32884" lon="1.02883">
        <ele>124</ele>
        <time>2019-12-30T14:11:59.000Z</time>
      </trkpt>
      <trkpt lat="49.32887" lon="1.02882">
        <ele>124</ele>
        <time>2019-12-30T14:12:00.000Z</time>
      </trkpt>
      <trkpt lat="49.32891" lon="1.02881">
        <ele>124</ele>
        <time>2019-12-30T14:12:01.000Z</time>
      </trkpt>
      <trkpt lat="49.32895" lon="1.02879">
        <ele>124</ele>
        <time>2019-12-30T14:12:02.000Z</time>
      </trkpt>
      <trkpt lat="49.32898" lon="1.02877">
        <ele>124</ele>
        <time>2019-12-30T14:12:03.000Z</time>
      </trkpt>
      <trkpt lat="49.32901" lon="1.02875">
        <ele>124</ele>
        <time>2019-12-30T14:12:04.000Z</time>
      </trkpt>
      <trkpt lat="49.32903" lon="1.02872">
        <ele>124</ele>
        <time>2019-12-30T14:12:05.000Z</time>
      </trkpt>
      <trkpt lat="49.32906" lon="1.02869">
        <ele>124</ele>
        <time>2019-12-30T14:12:06.000Z</time>
      </trkpt>
      <trkpt lat="49.32909" lon="1.02864">
        <ele>125</ele>
        <time>2019-12-30T14:12:07.000Z</time>
      </trkpt>
      <trkpt lat="49.32911" lon="1.0286">
        <ele>125</ele>
        <time>2019-12-30T14:12:08.000Z</time>
      </trkpt>
      <trkpt lat="49.32911" lon="1.02856">
        <ele>125</ele>
        <time>2019-12-30T14:12:09.000Z</time>
      </trkpt>
      <trkpt lat="49.32911" lon="1.02851">
        <ele>125</ele>
        <time>2019-12-30T14:12:10.000Z</time>
      </trkpt>
      <trkpt lat="49.32911" lon="1.02845">
        <ele>125</ele>
        <time>2019-12-30T14:12:11.000Z</time>
      </trkpt>
      <trkpt lat="49.32911" lon="1.0284">
        <ele>125</ele>
        <time>2019-12-30T14:12:12.000Z</time>
      </trkpt>
      <trkpt lat="49.32912" lon="1.02834">
        <ele>125</ele>
        <time>2019-12-30T14:12:13.000Z</time>
      </trkpt>
      <trkpt lat="49.32912" lon="1.02828">
        <ele>125</ele>
        <time>2019-12-30T14:12:14.000Z</time>
      </trkpt>
      <trkpt lat="49.32912" lon="1.02823">
        <ele>125</ele>
        <time>2019-12-30T14:12:15.000Z</time>
      </trkpt>
      <trkpt lat="49.32913" lon="1.02817">
        <ele>125</ele>
        <time>2019-12-30T14:12:16.000Z</time>
      </trkpt>
      <trkpt lat="49.32914" lon="1.02812">
        <ele>125</ele>
        <time>2019-12-30T14:12:17.000Z</time>
      </trkpt>
      <trkpt lat="49.32916" lon="1.02808">
        <ele>124</ele>
        <time>2019-12-30T14:12:18.000Z</time>
      </trkpt>
      <trkpt lat="49.32917" lon="1.02805">
        <ele>124</ele>
        <time>2019-12-30T14:12:19.000Z</time>
      </trkpt>
      <trkpt lat="49.32918" lon="1.02801">
        <ele>124</ele>
        <time>2019-12-30T14:12:20.000Z</time>
      </trkpt>
      <trkpt lat="49.32917" lon="1.02797">
        <ele>124</ele>
        <time>2019-12-30T14:12:21.000Z</time>
      </trkpt>
      <trkpt lat="49.32915" lon="1.02793">
        <ele>124</ele>
        <time>2019-12-30T14:12:22.000Z</time>
      </trkpt>
      <trkpt lat="49.32913" lon="1.0279">
        <ele>124</ele>
        <time>2019-12-30T14:12:23.000Z</time>
      </trkpt>
      <trkpt lat="49.3291" lon="1.02786">
        <ele>124</ele>
        <time>2019-12-30T14:12:24.000Z</time>
      </trkpt>
      <trkpt lat="49.32908" lon="1.02783">
        <ele>124</ele>
        <time>2019-12-30T14:12:25.000Z</time>
      </trkpt>
      <trkpt lat="49.32905" lon="1.02779">
        <ele>124</ele>
        <time>2019-12-30T14:12:26.000Z</time>
      </trkpt>
      <trkpt lat="49.32903" lon="1.02775">
        <ele>124</ele>
        <time>2019-12-30T14:12:27.000Z</time>
      </trkpt>
      <trkpt lat="49.329" lon="1.02771">
        <ele>124</ele>
        <time>2019-12-30T14:12:28.000Z</time>
      </trkpt>
      <trkpt lat="49.32898" lon="1.02767">
        <ele>124</ele>
        <time>2019-12-30T14:12:29.000Z</time>
      </trkpt>
      <trkpt lat="49.32895" lon="1.02763">
        <ele>124</ele>
        <time>2019-12-30T14:12:30.000Z</time>
      </trkpt>
      <trkpt lat="49.32893" lon="1.02759">
        <ele>124</ele>
        <time>2019-12-30T14:12:31.000Z</time>
      </trkpt>
      <trkpt lat="49.3289" lon="1.02756">
        <ele>124</ele>
        <time>2019-12-30T14:12:32.000Z</time>
      </trkpt>
      <trkpt lat="49.32887" lon="1.02752">
        <ele>124</ele>
        <time>2019-12-30T14:12:33.000Z</time>
      </trkpt>
      <trkpt lat="49.32885" lon="1.02749">
        <ele>124</ele>
        <time>2019-12-30T14:12:34.000Z</time>
      </trkpt>
      <trkpt lat="49.32882" lon="1.02746">
        <ele>124</ele>
        <time>2019-12-30T14:12:35.000Z</time>
      </trkpt>
      <trkpt lat="49.32879" lon="1.02743">
        <ele>124</ele>
        <time>2019-12-30T14:12:36.000Z</time>
      </trkpt>
      <trkpt lat="49.32876" lon="1.02739">
        <ele>124</ele>
        <time>2019-12-30T14:12:37.000Z</time>
      </trkpt>
      <trkpt lat="49.32873" lon="1.02735">
        <ele>124</ele>
        <time>2019-12-30T14:12:38.000Z</time>
      </trkpt>
      <trkpt lat="49.32871" lon="1.02731">
        <ele>124</ele>
        <time>2019-12-30T14:12:39.000Z</time>
      </trkpt>
      <trkpt lat="49.32869" lon="1.02726">
        <ele>124</ele>
        <time>2019-12-30T14:12:40.000Z</time>
      </trkpt>
      <trkpt lat="49.32867" lon="1.02721">
        <ele>124</ele>
        <time>2019-12-30T14:12:41.000Z</time>
      </trkpt>
      <trkpt lat="49.32866" lon="1.02715">
        <ele>124</ele>
        <time>2019-12-30T14:12:42.000Z</time>
      </trkpt>
      <trkpt lat="49.32865" lon="1.0271">
        <ele>124</ele>
        <time>2019-12-30T14:12:43.000Z</time>
      </trkpt>
      <trkpt lat="49.32864" lon="1.02705">
        <ele>125</ele>
        <time>2019-12-30T14:12:44.000Z</time>
      </trkpt>
      <trkpt lat="49.32863" lon="1.027">
        <ele>125</ele>
        <time>2019-12-30T14:12:45.000Z</time>
      </trkpt>
      <trkpt lat="49.32862" lon="1.02695">
        <ele>124</ele>
        <time>2019-12-30T14:12:46.000Z</time>
      </trkpt>
      <trkpt lat="49.3286" lon="1.0269">
        <ele>124</ele>
        <time>2019-12-30T14:12:47.000Z</time>
      </trkpt>
      <trkpt lat="49.32859" lon="1.02685">
        <ele>124</ele>
        <time>2019-12-30T14:12:48.000Z</time>
      </trkpt>
      <trkpt lat="49.32857" lon="1.02681">
        <ele>124</ele>
        <time>2019-12-30T14:12:49.000Z</time>
      </trkpt>
      <trkpt lat="49.32855" lon="1.02676">
        <ele>124</ele>
        <time>2019-12-30T14:12:50.000Z</time>
      </trkpt>
      <trkpt lat="49.32853" lon="1.0267">
        <ele>124</ele>
        <time>2019-12-30T14:12:51.000Z</time>
      </trkpt>
      <trkpt lat="49.32851" lon="1.02665">
        <ele>124</ele>
        <time>2019-12-30T14:12:52.000Z</time>
      </trkpt>
      <trkpt lat="49.32849" lon="1.0266">
        <ele>124</ele>
        <time>2019-12-30T14:12:53.000Z</time>
      </trkpt>
      <trkpt lat="49.32848" lon="1.02654">
        <ele>125</ele>
        <time>2019-12-30T14:12:54.000Z</time>
      </trkpt>
      <trkpt lat="49.32847" lon="1.02649">
        <ele>125</ele>
        <time>2019-12-30T14:12:55.000Z</time>
      </trkpt>
      <trkpt lat="49.32846" lon="1.02644">
        <ele>125</ele>
        <time>2019-12-30T14:12:56.000Z</time>
      </trkpt>
      <trkpt lat="49.32844" lon="1.02638">
        <ele>125</ele>
        <time>2019-12-30T14:12:57.000Z</time>
      </trkpt>
      <trkpt lat="49.32843" lon="1.02634">
        <ele>125</ele>
        <time>2019-12-30T14:12:58.000Z</time>
      </trkpt>
      <trkpt lat="49.32841" lon="1.02629">
        <ele>125</ele>
        <time>2019-12-30T14:12:59.000Z</time>
      </trkpt>
      <trkpt lat="49.32839" lon="1.02625">
        <ele>125</ele>
        <time>2019-12-30T14:13:00.000Z</time>
      </trkpt>
      <trkpt lat="49.32836" lon="1.02622">
        <ele>125</ele>
        <time>2019-12-30T14:13:01.000Z</time>
      </trkpt>
      <trkpt lat="49.32833" lon="1.02618">
        <ele>125</ele>
        <time>2019-12-30T14:13:02.000Z</time>
      </trkpt>
      <trkpt lat="49.32831" lon="1.02614">
        <ele>125</ele>
        <time>2019-12-30T14:13:03.000Z</time>
      </trkpt>
      <trkpt lat="49.3283" lon="1.0261">
        <ele>125</ele>
        <time>2019-12-30T14:13:04.000Z</time>
      </trkpt>
      <trkpt lat="49.32829" lon="1.02606">
        <ele>125</ele>
        <time>2019-12-30T14:13:05.000Z</time>
      </trkpt>
      <trkpt lat="49.32828" lon="1.02603">
        <ele>125</ele>
        <time>2019-12-30T14:13:06.000Z</time>
      </trkpt>
      <trkpt lat="49.32827" lon="1.02599">
        <ele>126</ele>
        <time>2019-12-30T14:13:07.000Z</time>
      </trkpt>
      <trkpt lat="49.32826" lon="1.02597">
        <ele>126</ele>
        <time>2019-12-30T14:13:08.000Z</time>
      </trkpt>
      <trkpt lat="49.32825" lon="1.02594">
        <ele>126</ele>
        <time>2019-12-30T14:13:09.000Z</time>
      </trkpt>
      <trkpt lat="49.32824" lon="1.02591">
        <ele>126</ele>
        <time>2019-12-30T14:13:10.000Z</time>
      </trkpt>
      <trkpt lat="49.32823" lon="1.02589">
        <ele>126</ele>
        <time>2019-12-30T14:13:11.000Z</time>
      </trkpt>
      <trkpt lat="49.32823" lon="1.02587">
        <ele>126</ele>
        <time>2019-12-30T14:13:12.000Z</time>
      </trkpt>
      <trkpt lat="49.32821" lon="1.02585">
        <ele>126</ele>
        <time>2019-12-30T14:13:13.000Z</time>
      </trkpt>
      <trkpt lat="49.3282" lon="1.02583">
        <ele>126</ele>
        <time>2019-12-30T14:13:14.000Z</time>
      </trkpt>
      <trkpt lat="49.32819" lon="1.0258">
        <ele>126</ele>
        <time>2019-12-30T14:13:15.000Z</time>
      </trkpt>
      <trkpt lat="49.32818" lon="1.02577">
        <ele>126</ele>
        <time>2019-12-30T14:13:16.000Z</time>
      </trkpt>
      <trkpt lat="49.32817" lon="1.02573">
        <ele>126</ele>
        <time>2019-12-30T14:13:17.000Z</time>
      </trkpt>
      <trkpt lat="49.32816" lon="1.02569">
        <ele>126</ele>
        <time>2019-12-30T14:13:18.000Z</time>
      </trkpt>
      <trkpt lat="49.32814" lon="1.02565">
        <ele>126</ele>
        <time>2019-12-30T14:13:19.000Z</time>
      </trkpt>
      <trkpt lat="49.32812" lon="1.02562">
        <ele>126</ele>
        <time>2019-12-30T14:13:20.000Z</time>
      </trkpt>
      <trkpt lat="49.3281" lon="1.02559">
        <ele>126</ele>
        <time>2019-12-30T14:13:21.000Z</time>
      </trkpt>
      <trkpt lat="49.32808" lon="1.02556">
        <ele>126</ele>
        <time>2019-12-30T14:13:22.000Z</time>
      </trkpt>
      <trkpt lat="49.32806" lon="1.02552">
        <ele>127</ele>
        <time>2019-12-30T14:13:23.000Z</time>
      </trkpt>
      <trkpt lat="49.32804" lon="1.02548">
        <ele>127</ele>
        <time>2019-12-30T14:13:24.000Z</time>
      </trkpt>
      <trkpt lat="49.32802" lon="1.02545">
        <ele>127</ele>
        <time>2019-12-30T14:13:25.000Z</time>
      </trkpt>
      <trkpt lat="49.328" lon="1.02542">
        <ele>127</ele>
        <time>2019-12-30T14:13:26.000Z</time>
      </trkpt>
      <trkpt lat="49.32797" lon="1.0254">
        <ele>127</ele>
        <time>2019-12-30T14:13:27.000Z</time>
      </trkpt>
      <trkpt lat="49.32794" lon="1.02538">
        <ele>127</ele>
        <time>2019-12-30T14:13:28.000Z</time>
      </trkpt>
      <trkpt lat="49.32791" lon="1.02535">
        <ele>127</ele>
        <time>2019-12-30T14:13:29.000Z</time>
      </trkpt>
      <trkpt lat="49.32788" lon="1.02532">
        <ele>127</ele>
        <time>2019-12-30T14:13:30.000Z</time>
      </trkpt>
      <trkpt lat="49.32786" lon="1.02528">
        <ele>127</ele>
        <time>2019-12-30T14:13:31.000Z</time>
      </trkpt>
      <trkpt lat="49.32785" lon="1.02523">
        <ele>128</ele>
        <time>2019-12-30T14:13:32.000Z</time>
      </trkpt>
      <trkpt lat="49.32782" lon="1.0252">
        <ele>128</ele>
        <time>2019-12-30T14:13:33.000Z</time>
      </trkpt>
      <trkpt lat="49.3278" lon="1.02515">
        <ele>128</ele>
        <time>2019-12-30T14:13:34.000Z</time>
      </trkpt>
      <trkpt lat="49.32779" lon="1.02511">
        <ele>128</ele>
        <time>2019-12-30T14:13:35.000Z</time>
      </trkpt>
      <trkpt lat="49.32777" lon="1.02506">
        <ele>128</ele>
        <time>2019-12-30T14:13:36.000Z</time>
      </trkpt>
      <trkpt lat="49.32776" lon="1.025">
        <ele>128</ele>
        <time>2019-12-30T14:13:37.000Z</time>
      </trkpt>
      <trkpt lat="49.32775" lon="1.02495">
        <ele>128</ele>
        <time>2019-12-30T14:13:38.000Z</time>
      </trkpt>
      <trkpt lat="49.32774" lon="1.02489">
        <ele>128</ele>
        <time>2019-12-30T14:13:39.000Z</time>
      </trkpt>
      <trkpt lat="49.32773" lon="1.02484">
        <ele>128</ele>
        <time>2019-12-30T14:13:40.000Z</time>
      </trkpt>
      <trkpt lat="49.32773" lon="1.02479">
        <ele>128</ele>
        <time>2019-12-30T14:13:41.000Z</time>
      </trkpt>
      <trkpt lat="49.32773" lon="1.02473">
        <ele>128</ele>
        <time>2019-12-30T14:13:42.000Z</time>
      </trkpt>
      <trkpt lat="49.32773" lon="1.02468">
        <ele>128</ele>
        <time>2019-12-30T14:13:43.000Z</time>
      </trkpt>
      <trkpt lat="49.32772" lon="1.02462">
        <ele>128</ele>
        <time>2019-12-30T14:13:44.000Z</time>
      </trkpt>
      <trkpt lat="49.32771" lon="1.02456">
        <ele>128</ele>
        <time>2019-12-30T14:13:45.000Z</time>
      </trkpt>
      <trkpt lat="49.3277" lon="1.02451">
        <ele>128</ele>
        <time>2019-12-30T14:13:46.000Z</time>
      </trkpt>
      <trkpt lat="49.32769" lon="1.02445">
        <ele>128</ele>
        <time>2019-12-30T14:13:47.000Z</time>
      </trkpt>
      <trkpt lat="49.32768" lon="1.02439">
        <ele>128</ele>
        <time>2019-12-30T14:13:48.000Z</time>
      </trkpt>
      <trkpt lat="49.32768" lon="1.02434">
        <ele>128</ele>
        <time>2019-12-30T14:13:49.000Z</time>
      </trkpt>
      <trkpt lat="49.32768" lon="1.02428">
        <ele>128</ele>
        <time>2019-12-30T14:13:50.000Z</time>
      </trkpt>
      <trkpt lat="49.32767" lon="1.02423">
        <ele>128</ele>
        <time>2019-12-30T14:13:51.000Z</time>
      </trkpt>
      <trkpt lat="49.32767" lon="1.02417">
        <ele>128</ele>
        <time>2019-12-30T14:13:52.000Z</time>
      </trkpt>
      <trkpt lat="49.32767" lon="1.02411">
        <ele>128</ele>
        <time>2019-12-30T14:13:53.000Z</time>
      </trkpt>
      <trkpt lat="49.32767" lon="1.02406">
        <ele>128</ele>
        <time>2019-12-30T14:13:54.000Z</time>
      </trkpt>
      <trkpt lat="49.32767" lon="1.024">
        <ele>128</ele>
        <time>2019-12-30T14:13:55.000Z</time>
      </trkpt>
      <trkpt lat="49.32767" lon="1.02395">
        <ele>128</ele>
        <time>2019-12-30T14:13:56.000Z</time>
      </trkpt>
      <trkpt lat="49.32768" lon="1.02389">
        <ele>128</ele>
        <time>2019-12-30T14:13:57.000Z</time>
      </trkpt>
      <trkpt lat="49.32768" lon="1.02384">
        <ele>128</ele>
        <time>2019-12-30T14:13:58.000Z</time>
      </trkpt>
      <trkpt lat="49.32768" lon="1.02379">
        <ele>128</ele>
        <time>2019-12-30T14:13:59.000Z</time>
      </trkpt>
      <trkpt lat="49.32767" lon="1.02373">
        <ele>128</ele>
        <time>2019-12-30T14:14:00.000Z</time>
      </trkpt>
      <trkpt lat="49.32766" lon="1.02368">
        <ele>128</ele>
        <time>2019-12-30T14:14:01.000Z</time>
      </trkpt>
      <trkpt lat="49.32765" lon="1.02363">
        <ele>128</ele>
        <time>2019-12-30T14:14:02.000Z</time>
      </trkpt>
      <trkpt lat="49.32762" lon="1.02358">
        <ele>128</ele>
        <time>2019-12-30T14:14:03.000Z</time>
      </trkpt>
      <trkpt lat="49.3276" lon="1.02353">
        <ele>128</ele>
        <time>2019-12-30T14:14:04.000Z</time>
      </trkpt>
      <trkpt lat="49.32759" lon="1.02348">
        <ele>129</ele>
        <time>2019-12-30T14:14:05.000Z</time>
      </trkpt>
      <trkpt lat="49.32757" lon="1.02343">
        <ele>129</ele>
        <time>2019-12-30T14:14:06.000Z</time>
      </trkpt>
      <trkpt lat="49.32755" lon="1.02339">
        <ele>129</ele>
        <time>2019-12-30T14:14:07.000Z</time>
      </trkpt>
      <trkpt lat="49.32752" lon="1.02334">
        <ele>129</ele>
        <time>2019-12-30T14:14:08.000Z</time>
      </trkpt>
      <trkpt lat="49.32751" lon="1.02329">
        <ele>129</ele>
        <time>2019-12-30T14:14:09.000Z</time>
      </trkpt>
      <trkpt lat="49.32749" lon="1.02324">
        <ele>129</ele>
        <time>2019-12-30T14:14:10.000Z</time>
      </trkpt>
      <trkpt lat="49.32748" lon="1.02319">
        <ele>129</ele>
        <time>2019-12-30T14:14:11.000Z</time>
      </trkpt>
      <trkpt lat="49.32747" lon="1.02314">
        <ele>129</ele>
        <time>2019-12-30T14:14:12.000Z</time>
      </trkpt>
      <trkpt lat="49.32746" lon="1.02308">
        <ele>129</ele>
        <time>2019-12-30T14:14:13.000Z</time>
      </trkpt>
      <trkpt lat="49.32747" lon="1.02302">
        <ele>129</ele>
        <time>2019-12-30T14:14:14.000Z</time>
      </trkpt>
      <trkpt lat="49.32747" lon="1.02297">
        <ele>129</ele>
        <time>2019-12-30T14:14:15.000Z</time>
      </trkpt>
      <trkpt lat="49.32746" lon="1.02292">
        <ele>129</ele>
        <time>2019-12-30T14:14:16.000Z</time>
      </trkpt>
      <trkpt lat="49.32745" lon="1.02287">
        <ele>129</ele>
        <time>2019-12-30T14:14:17.000Z</time>
      </trkpt>
      <trkpt lat="49.32745" lon="1.02283">
        <ele>129</ele>
        <time>2019-12-30T14:14:18.000Z</time>
      </trkpt>
      <trkpt lat="49.32744" lon="1.02278">
        <ele>129</ele>
        <time>2019-12-30T14:14:19.000Z</time>
      </trkpt>
      <trkpt lat="49.32743" lon="1.02273">
        <ele>129</ele>
        <time>2019-12-30T14:14:20.000Z</time>
      </trkpt>
      <trkpt lat="49.32743" lon="1.02268">
        <ele>129</ele>
        <time>2019-12-30T14:14:21.000Z</time>
      </trkpt>
      <trkpt lat="49.32743" lon="1.02262">
        <ele>129</ele>
        <time>2019-12-30T14:14:22.000Z</time>
      </trkpt>
      <trkpt lat="49.32742" lon="1.02256">
        <ele>129</ele>
        <time>2019-12-30T14:14:23.000Z</time>
      </trkpt>
      <trkpt lat="49.32742" lon="1.02251">
        <ele>129</ele>
        <time>2019-12-30T14:14:24.000Z</time>
      </trkpt>
      <trkpt lat="49.32742" lon="1.02245">
        <ele>129</ele>
        <time>2019-12-30T14:14:25.000Z</time>
      </trkpt>
      <trkpt lat="49.32742" lon="1.02239">
        <ele>129</ele>
        <time>2019-12-30T14:14:26.000Z</time>
      </trkpt>
      <trkpt lat="49.32741" lon="1.02232">
        <ele>129</ele>
        <time>2019-12-30T14:14:27.000Z</time>
      </trkpt>
      <trkpt lat="49.32741" lon="1.02226">
        <ele>130</ele>
        <time>2019-12-30T14:14:28.000Z</time>
      </trkpt>
      <trkpt lat="49.32741" lon="1.0222">
        <ele>130</ele>
        <time>2019-12-30T14:14:29.000Z</time>
      </trkpt>
      <trkpt lat="49.3274" lon="1.02214">
        <ele>130</ele>
        <time>2019-12-30T14:14:30.000Z</time>
      </trkpt>
      <trkpt lat="49.32739" lon="1.02207">
        <ele>130</ele>
        <time>2019-12-30T14:14:31.000Z</time>
      </trkpt>
      <trkpt lat="49.32739" lon="1.022">
        <ele>131</ele>
        <time>2019-12-30T14:14:32.000Z</time>
      </trkpt>
      <trkpt lat="49.32738" lon="1.02194">
        <ele>131</ele>
        <time>2019-12-30T14:14:33.000Z</time>
      </trkpt>
      <trkpt lat="49.32737" lon="1.02188">
        <ele>131</ele>
        <time>2019-12-30T14:14:34.000Z</time>
      </trkpt>
      <trkpt lat="49.32736" lon="1.02181">
        <ele>131</ele>
        <time>2019-12-30T14:14:35.000Z</time>
      </trkpt>
      <trkpt lat="49.32735" lon="1.02174">
        <ele>132</ele>
        <time>2019-12-30T14:14:36.000Z</time>
      </trkpt>
      <trkpt lat="49.32734" lon="1.02168">
        <ele>132</ele>
        <time>2019-12-30T14:14:37.000Z</time>
      </trkpt>
      <trkpt lat="49.32734" lon="1.02162">
        <ele>132</ele>
        <time>2019-12-30T14:14:38.000Z</time>
      </trkpt>
      <trkpt lat="49.32733" lon="1.02156">
        <ele>132</ele>
        <time>2019-12-30T14:14:39.000Z</time>
      </trkpt>
      <trkpt lat="49.32733" lon="1.02151">
        <ele>132</ele>
        <time>2019-12-30T14:14:40.000Z</time>
      </trkpt>
      <trkpt lat="49.32733" lon="1.02145">
        <ele>132</ele>
        <time>2019-12-30T14:14:41.000Z</time>
      </trkpt>
      <trkpt lat="49.32733" lon="1.0214">
        <ele>132</ele>
        <time>2019-12-30T14:14:42.000Z</time>
      </trkpt>
      <trkpt lat="49.32732" lon="1.02135">
        <ele>133</ele>
        <time>2019-12-30T14:14:43.000Z</time>
      </trkpt>
      <trkpt lat="49.32731" lon="1.02129">
        <ele>133</ele>
        <time>2019-12-30T14:14:44.000Z</time>
      </trkpt>
      <trkpt lat="49.3273" lon="1.02124">
        <ele>133</ele>
        <time>2019-12-30T14:14:45.000Z</time>
      </trkpt>
      <trkpt lat="49.32729" lon="1.02119">
        <ele>133</ele>
        <time>2019-12-30T14:14:46.000Z</time>
      </trkpt>
      <trkpt lat="49.32727" lon="1.02113">
        <ele>133</ele>
        <time>2019-12-30T14:14:47.000Z</time>
      </trkpt>
      <trkpt lat="49.32725" lon="1.02108">
        <ele>133</ele>
        <time>2019-12-30T14:14:48.000Z</time>
      </trkpt>
      <trkpt lat="49.32723" lon="1.02103">
        <ele>133</ele>
        <time>2019-12-30T14:14:49.000Z</time>
      </trkpt>
      <trkpt lat="49.32722" lon="1.02097">
        <ele>133</ele>
        <time>2019-12-30T14:14:50.000Z</time>
      </trkpt>
      <trkpt lat="49.32721" lon="1.02092">
        <ele>133</ele>
        <time>2019-12-30T14:14:51.000Z</time>
      </trkpt>
      <trkpt lat="49.32719" lon="1.02088">
        <ele>133</ele>
        <time>2019-12-30T14:14:52.000Z</time>
      </trkpt>
      <trkpt lat="49.32716" lon="1.02084">
        <ele>133</ele>
        <time>2019-12-30T14:14:53.000Z</time>
      </trkpt>
      <trkpt lat="49.32713" lon="1.02081">
        <ele>132</ele>
        <time>2019-12-30T14:14:54.000Z</time>
      </trkpt>
      <trkpt lat="49.3271" lon="1.02077">
        <ele>132</ele>
        <time>2019-12-30T14:14:55.000Z</time>
      </trkpt>
      <trkpt lat="49.32708" lon="1.02072">
        <ele>132</ele>
        <time>2019-12-30T14:14:56.000Z</time>
      </trkpt>
      <trkpt lat="49.32706" lon="1.02067">
        <ele>132</ele>
        <time>2019-12-30T14:14:57.000Z</time>
      </trkpt>
      <trkpt lat="49.32704" lon="1.02061">
        <ele>132</ele>
        <time>2019-12-30T14:14:58.000Z</time>
      </trkpt>
      <trkpt lat="49.32702" lon="1.02056">
        <ele>131</ele>
        <time>2019-12-30T14:14:59.000Z</time>
      </trkpt>
      <trkpt lat="49.32701" lon="1.02051">
        <ele>131</ele>
        <time>2019-12-30T14:15:00.000Z</time>
      </trkpt>
      <trkpt lat="49.32699" lon="1.02044">
        <ele>131</ele>
        <time>2019-12-30T14:15:01.000Z</time>
      </trkpt>
      <trkpt lat="49.32698" lon="1.02038">
        <ele>131</ele>
        <time>2019-12-30T14:15:02.000Z</time>
      </trkpt>
      <trkpt lat="49.32697" lon="1.02033">
        <ele>131</ele>
        <time>2019-12-30T14:15:03.000Z</time>
      </trkpt>
      <trkpt lat="49.32696" lon="1.02028">
        <ele>131</ele>
        <time>2019-12-30T14:15:04.000Z</time>
      </trkpt>
      <trkpt lat="49.32695" lon="1.02024">
        <ele>130</ele>
        <time>2019-12-30T14:15:05.000Z</time>
      </trkpt>
      <trkpt lat="49.32693" lon="1.0202">
        <ele>130</ele>
        <time>2019-12-30T14:15:06.000Z</time>
      </trkpt>
      <trkpt lat="49.3269" lon="1.02015">
        <ele>130</ele>
        <time>2019-12-30T14:15:07.000Z</time>
      </trkpt>
      <trkpt lat="49.32688" lon="1.0201">
        <ele>130</ele>
        <time>2019-12-30T14:15:08.000Z</time>
      </trkpt>
      <trkpt lat="49.32686" lon="1.02006">
        <ele>130</ele>
        <time>2019-12-30T14:15:09.000Z</time>
      </trkpt>
      <trkpt lat="49.32684" lon="1.02002">
        <ele>130</ele>
        <time>2019-12-30T14:15:10.000Z</time>
      </trkpt>
      <trkpt lat="49.32681" lon="1.01998">
        <ele>130</ele>
        <time>2019-12-30T14:15:11.000Z</time>
      </trkpt>
      <trkpt lat="49.32679" lon="1.01993">
        <ele>130</ele>
        <time>2019-12-30T14:15:12.000Z</time>
      </trkpt>
      <trkpt lat="49.32676" lon="1.01988">
        <ele>130</ele>
        <time>2019-12-30T14:15:13.000Z</time>
      </trkpt>
      <trkpt lat="49.32674" lon="1.01983">
        <ele>130</ele>
        <time>2019-12-30T14:15:14.000Z</time>
      </trkpt>
      <trkpt lat="49.32672" lon="1.01979">
        <ele>130</ele>
        <time>2019-12-30T14:15:15.000Z</time>
      </trkpt>
      <trkpt lat="49.32669" lon="1.01974">
        <ele>130</ele>
        <time>2019-12-30T14:15:16.000Z</time>
      </trkpt>
      <trkpt lat="49.32666" lon="1.01969">
        <ele>130</ele>
        <time>2019-12-30T14:15:17.000Z</time>
      </trkpt>
      <trkpt lat="49.32664" lon="1.01966">
        <ele>130</ele>
        <time>2019-12-30T14:15:18.000Z</time>
      </trkpt>
      <trkpt lat="49.32661" lon="1.01961">
        <ele>130</ele>
        <time>2019-12-30T14:15:19.000Z</time>
      </trkpt>
      <trkpt lat="49.32659" lon="1.01957">
        <ele>130</ele>
        <time>2019-12-30T14:15:20.000Z</time>
      </trkpt>
      <trkpt lat="49.32656" lon="1.01952">
        <ele>130</ele>
        <time>2019-12-30T14:15:21.000Z</time>
      </trkpt>
      <trkpt lat="49.32653" lon="1.01947">
        <ele>130</ele>
        <time>2019-12-30T14:15:22.000Z</time>
      </trkpt>
      <trkpt lat="49.32651" lon="1.01942">
        <ele>130</ele>
        <time>2019-12-30T14:15:23.000Z</time>
      </trkpt>
      <trkpt lat="49.3265" lon="1.01937">
        <ele>130</ele>
        <time>2019-12-30T14:15:24.000Z</time>
      </trkpt>
      <trkpt lat="49.32649" lon="1.01931">
        <ele>130</ele>
        <time>2019-12-30T14:15:25.000Z</time>
      </trkpt>
      <trkpt lat="49.32648" lon="1.01925">
        <ele>130</ele>
        <time>2019-12-30T14:15:26.000Z</time>
      </trkpt>
      <trkpt lat="49.32647" lon="1.01918">
        <ele>129</ele>
        <time>2019-12-30T14:15:27.000Z</time>
      </trkpt>
      <trkpt lat="49.32647" lon="1.01912">
        <ele>129</ele>
        <time>2019-12-30T14:15:28.000Z</time>
      </trkpt>
      <trkpt lat="49.32646" lon="1.01905">
        <ele>129</ele>
        <time>2019-12-30T14:15:29.000Z</time>
      </trkpt>
      <trkpt lat="49.32646" lon="1.01899">
        <ele>129</ele>
        <time>2019-12-30T14:15:30.000Z</time>
      </trkpt>
      <trkpt lat="49.32646" lon="1.01892">
        <ele>129</ele>
        <time>2019-12-30T14:15:31.000Z</time>
      </trkpt>
      <trkpt lat="49.32645" lon="1.01885">
        <ele>129</ele>
        <time>2019-12-30T14:15:32.000Z</time>
      </trkpt>
      <trkpt lat="49.32644" lon="1.01878">
        <ele>129</ele>
        <time>2019-12-30T14:15:33.000Z</time>
      </trkpt>
      <trkpt lat="49.32644" lon="1.01871">
        <ele>129</ele>
        <time>2019-12-30T14:15:34.000Z</time>
      </trkpt>
      <trkpt lat="49.32643" lon="1.01864">
        <ele>129</ele>
        <time>2019-12-30T14:15:35.000Z</time>
      </trkpt>
      <trkpt lat="49.32642" lon="1.01857">
        <ele>129</ele>
        <time>2019-12-30T14:15:36.000Z</time>
      </trkpt>
      <trkpt lat="49.32641" lon="1.0185">
        <ele>129</ele>
        <time>2019-12-30T14:15:37.000Z</time>
      </trkpt>
      <trkpt lat="49.3264" lon="1.01842">
        <ele>129</ele>
        <time>2019-12-30T14:15:38.000Z</time>
      </trkpt>
      <trkpt lat="49.3264" lon="1.01835">
        <ele>129</ele>
        <time>2019-12-30T14:15:39.000Z</time>
      </trkpt>
      <trkpt lat="49.3264" lon="1.01828">
        <ele>129</ele>
        <time>2019-12-30T14:15:40.000Z</time>
      </trkpt>
      <trkpt lat="49.3264" lon="1.01822">
        <ele>129</ele>
        <time>2019-12-30T14:15:41.000Z</time>
      </trkpt>
      <trkpt lat="49.32639" lon="1.01815">
        <ele>129</ele>
        <time>2019-12-30T14:15:42.000Z</time>
      </trkpt>
      <trkpt lat="49.32639" lon="1.01808">
        <ele>129</ele>
        <time>2019-12-30T14:15:43.000Z</time>
      </trkpt>
      <trkpt lat="49.32637" lon="1.01802">
        <ele>130</ele>
        <time>2019-12-30T14:15:44.000Z</time>
      </trkpt>
      <trkpt lat="49.32636" lon="1.01795">
        <ele>130</ele>
        <time>2019-12-30T14:15:45.000Z</time>
      </trkpt>
      <trkpt lat="49.32634" lon="1.01789">
        <ele>130</ele>
        <time>2019-12-30T14:15:46.000Z</time>
      </trkpt>
      <trkpt lat="49.32631" lon="1.01783">
        <ele>130</ele>
        <time>2019-12-30T14:15:47.000Z</time>
      </trkpt>
      <trkpt lat="49.32629" lon="1.01777">
        <ele>130</ele>
        <time>2019-12-30T14:15:48.000Z</time>
      </trkpt>
      <trkpt lat="49.32626" lon="1.01771">
        <ele>130</ele>
        <time>2019-12-30T14:15:49.000Z</time>
      </trkpt>
      <trkpt lat="49.32623" lon="1.01766">
        <ele>129</ele>
        <time>2019-12-30T14:15:50.000Z</time>
      </trkpt>
      <trkpt lat="49.3262" lon="1.0176">
        <ele>129</ele>
        <time>2019-12-30T14:15:51.000Z</time>
      </trkpt>
      <trkpt lat="49.32618" lon="1.01754">
        <ele>129</ele>
        <time>2019-12-30T14:15:52.000Z</time>
      </trkpt>
      <trkpt lat="49.32615" lon="1.01748">
        <ele>129</ele>
        <time>2019-12-30T14:15:53.000Z</time>
      </trkpt>
      <trkpt lat="49.32613" lon="1.01742">
        <ele>129</ele>
        <time>2019-12-30T14:15:54.000Z</time>
      </trkpt>
      <trkpt lat="49.3261" lon="1.01737">
        <ele>129</ele>
        <time>2019-12-30T14:15:55.000Z</time>
      </trkpt>
      <trkpt lat="49.32607" lon="1.01731">
        <ele>128</ele>
        <time>2019-12-30T14:15:56.000Z</time>
      </trkpt>
      <trkpt lat="49.32605" lon="1.01726">
        <ele>128</ele>
        <time>2019-12-30T14:15:57.000Z</time>
      </trkpt>
      <trkpt lat="49.32602" lon="1.0172">
        <ele>128</ele>
        <time>2019-12-30T14:15:58.000Z</time>
      </trkpt>
      <trkpt lat="49.32599" lon="1.01714">
        <ele>128</ele>
        <time>2019-12-30T14:15:59.000Z</time>
      </trkpt>
      <trkpt lat="49.32596" lon="1.01707">
        <ele>127</ele>
        <time>2019-12-30T14:16:00.000Z</time>
      </trkpt>
      <trkpt lat="49.32593" lon="1.017">
        <ele>127</ele>
        <time>2019-12-30T14:16:01.000Z</time>
      </trkpt>
      <trkpt lat="49.32591" lon="1.01693">
        <ele>127</ele>
        <time>2019-12-30T14:16:02.000Z</time>
      </trkpt>
      <trkpt lat="49.32588" lon="1.01686">
        <ele>127</ele>
        <time>2019-12-30T14:16:03.000Z</time>
      </trkpt>
      <trkpt lat="49.32586" lon="1.01679">
        <ele>127</ele>
        <time>2019-12-30T14:16:04.000Z</time>
      </trkpt>
      <trkpt lat="49.32584" lon="1.01672">
        <ele>126</ele>
        <time>2019-12-30T14:16:05.000Z</time>
      </trkpt>
      <trkpt lat="49.32581" lon="1.01665">
        <ele>126</ele>
        <time>2019-12-30T14:16:06.000Z</time>
      </trkpt>
      <trkpt lat="49.32579" lon="1.01659">
        <ele>126</ele>
        <time>2019-12-30T14:16:07.000Z</time>
      </trkpt>
      <trkpt lat="49.32576" lon="1.01653">
        <ele>125</ele>
        <time>2019-12-30T14:16:08.000Z</time>
      </trkpt>
      <trkpt lat="49.32572" lon="1.01646">
        <ele>125</ele>
        <time>2019-12-30T14:16:09.000Z</time>
      </trkpt>
      <trkpt lat="49.32568" lon="1.0164">
        <ele>125</ele>
        <time>2019-12-30T14:16:10.000Z</time>
      </trkpt>
      <trkpt lat="49.32564" lon="1.01632">
        <ele>125</ele>
        <time>2019-12-30T14:16:11.000Z</time>
      </trkpt>
      <trkpt lat="49.32561" lon="1.01624">
        <ele>124</ele>
        <time>2019-12-30T14:16:12.000Z</time>
      </trkpt>
      <trkpt lat="49.32559" lon="1.01617">
        <ele>124</ele>
        <time>2019-12-30T14:16:13.000Z</time>
      </trkpt>
      <trkpt lat="49.32556" lon="1.01611">
        <ele>124</ele>
        <time>2019-12-30T14:16:14.000Z</time>
      </trkpt>
      <trkpt lat="49.32552" lon="1.01605">
        <ele>123</ele>
        <time>2019-12-30T14:16:15.000Z</time>
      </trkpt>
      <trkpt lat="49.32548" lon="1.01599">
        <ele>123</ele>
        <time>2019-12-30T14:16:16.000Z</time>
      </trkpt>
      <trkpt lat="49.32543" lon="1.01593">
        <ele>123</ele>
        <time>2019-12-30T14:16:17.000Z</time>
      </trkpt>
      <trkpt lat="49.32538" lon="1.01588">
        <ele>122</ele>
        <time>2019-12-30T14:16:18.000Z</time>
      </trkpt>
      <trkpt lat="49.32533" lon="1.01584">
        <ele>122</ele>
        <time>2019-12-30T14:16:19.000Z</time>
      </trkpt>
      <trkpt lat="49.32529" lon="1.0158">
        <ele>122</ele>
        <time>2019-12-30T14:16:20.000Z</time>
      </trkpt>
      <trkpt lat="49.32524" lon="1.01576">
        <ele>122</ele>
        <time>2019-12-30T14:16:21.000Z</time>
      </trkpt>
      <trkpt lat="49.32519" lon="1.01572">
        <ele>122</ele>
        <time>2019-12-30T14:16:22.000Z</time>
      </trkpt>
      <trkpt lat="49.32515" lon="1.01568">
        <ele>122</ele>
        <time>2019-12-30T14:16:23.000Z</time>
      </trkpt>
      <trkpt lat="49.32512" lon="1.01562">
        <ele>121</ele>
        <time>2019-12-30T14:16:24.000Z</time>
      </trkpt>
      <trkpt lat="49.32509" lon="1.01557">
        <ele>121</ele>
        <time>2019-12-30T14:16:25.000Z</time>
      </trkpt>
      <trkpt lat="49.32507" lon="1.01551">
        <ele>121</ele>
        <time>2019-12-30T14:16:26.000Z</time>
      </trkpt>
      <trkpt lat="49.32504" lon="1.01545">
        <ele>121</ele>
        <time>2019-12-30T14:16:27.000Z</time>
      </trkpt>
      <trkpt lat="49.32501" lon="1.01539">
        <ele>121</ele>
        <time>2019-12-30T14:16:28.000Z</time>
      </trkpt>
      <trkpt lat="49.32499" lon="1.01535">
        <ele>121</ele>
        <time>2019-12-30T14:16:29.000Z</time>
      </trkpt>
      <trkpt lat="49.32496" lon="1.01531">
        <ele>121</ele>
        <time>2019-12-30T14:16:30.000Z</time>
      </trkpt>
      <trkpt lat="49.32492" lon="1.01526">
        <ele>121</ele>
        <time>2019-12-30T14:16:31.000Z</time>
      </trkpt>
      <trkpt lat="49.32488" lon="1.01521">
        <ele>120</ele>
        <time>2019-12-30T14:16:32.000Z</time>
      </trkpt>
      <trkpt lat="49.32484" lon="1.01516">
        <ele>120</ele>
        <time>2019-12-30T14:16:33.000Z</time>
      </trkpt>
      <trkpt lat="49.32481" lon="1.01511">
        <ele>120</ele>
        <time>2019-12-30T14:16:34.000Z</time>
      </trkpt>
      <trkpt lat="49.32478" lon="1.01506">
        <ele>120</ele>
        <time>2019-12-30T14:16:35.000Z</time>
      </trkpt>
      <trkpt lat="49.32475" lon="1.015">
        <ele>120</ele>
        <time>2019-12-30T14:16:36.000Z</time>
      </trkpt>
      <trkpt lat="49.32472" lon="1.01495">
        <ele>120</ele>
        <time>2019-12-30T14:16:37.000Z</time>
      </trkpt>
      <trkpt lat="49.32469" lon="1.0149">
        <ele>120</ele>
        <time>2019-12-30T14:16:38.000Z</time>
      </trkpt>
      <trkpt lat="49.32466" lon="1.01484">
        <ele>120</ele>
        <time>2019-12-30T14:16:39.000Z</time>
      </trkpt>
      <trkpt lat="49.32463" lon="1.0148">
        <ele>120</ele>
        <time>2019-12-30T14:16:40.000Z</time>
      </trkpt>
      <trkpt lat="49.3246" lon="1.01475">
        <ele>120</ele>
        <time>2019-12-30T14:16:41.000Z</time>
      </trkpt>
      <trkpt lat="49.32457" lon="1.0147">
        <ele>120</ele>
        <time>2019-12-30T14:16:42.000Z</time>
      </trkpt>
      <trkpt lat="49.32454" lon="1.01465">
        <ele>120</ele>
        <time>2019-12-30T14:16:43.000Z</time>
      </trkpt>
      <trkpt lat="49.3245" lon="1.0146">
        <ele>120</ele>
        <time>2019-12-30T14:16:44.000Z</time>
      </trkpt>
      <trkpt lat="49.32448" lon="1.01456">
        <ele>120</ele>
        <time>2019-12-30T14:16:45.000Z</time>
      </trkpt>
      <trkpt lat="49.32445" lon="1.01451">
        <ele>120</ele>
        <time>2019-12-30T14:16:46.000Z</time>
      </trkpt>
      <trkpt lat="49.32443" lon="1.01446">
        <ele>120</ele>
        <time>2019-12-30T14:16:47.000Z</time>
      </trkpt>
      <trkpt lat="49.3244" lon="1.01442">
        <ele>120</ele>
        <time>2019-12-30T14:16:48.000Z</time>
      </trkpt>
      <trkpt lat="49.32436" lon="1.01437">
        <ele>120</ele>
        <time>2019-12-30T14:16:49.000Z</time>
      </trkpt>
      <trkpt lat="49.32433" lon="1.01434">
        <ele>120</ele>
        <time>2019-12-30T14:16:50.000Z</time>
      </trkpt>
      <trkpt lat="49.32429" lon="1.0143">
        <ele>120</ele>
        <time>2019-12-30T14:16:51.000Z</time>
      </trkpt>
      <trkpt lat="49.32425" lon="1.01427">
        <ele>120</ele>
        <time>2019-12-30T14:16:52.000Z</time>
      </trkpt>
      <trkpt lat="49.32421" lon="1.01424">
        <ele>120</ele>
        <time>2019-12-30T14:16:53.000Z</time>
      </trkpt>
      <trkpt lat="49.32417" lon="1.01419">
        <ele>120</ele>
        <time>2019-12-30T14:16:54.000Z</time>
      </trkpt>
      <trkpt lat="49.32414" lon="1.01414">
        <ele>120</ele>
        <time>2019-12-30T14:16:55.000Z</time>
      </trkpt>
      <trkpt lat="49.32412" lon="1.0141">
        <ele>120</ele>
        <time>2019-12-30T14:16:56.000Z</time>
      </trkpt>
      <trkpt lat="49.3241" lon="1.01404">
        <ele>120</ele>
        <time>2019-12-30T14:16:57.000Z</time>
      </trkpt>
      <trkpt lat="49.32407" lon="1.01398">
        <ele>120</ele>
        <time>2019-12-30T14:16:58.000Z</time>
      </trkpt>
      <trkpt lat="49.32405" lon="1.01391">
        <ele>120</ele>
        <time>2019-12-30T14:16:59.000Z</time>
      </trkpt>
      <trkpt lat="49.32404" lon="1.01385">
        <ele>119</ele>
        <time>2019-12-30T14:17:00.000Z</time>
      </trkpt>
      <trkpt lat="49.32402" lon="1.01379">
        <ele>119</ele>
        <time>2019-12-30T14:17:01.000Z</time>
      </trkpt>
      <trkpt lat="49.324" lon="1.01373">
        <ele>119</ele>
        <time>2019-12-30T14:17:02.000Z</time>
      </trkpt>
      <trkpt lat="49.32398" lon="1.01367">
        <ele>119</ele>
        <time>2019-12-30T14:17:03.000Z</time>
      </trkpt>
      <trkpt lat="49.32395" lon="1.01361">
        <ele>120</ele>
        <time>2019-12-30T14:17:04.000Z</time>
      </trkpt>
      <trkpt lat="49.32392" lon="1.01356">
        <ele>120</ele>
        <time>2019-12-30T14:17:05.000Z</time>
      </trkpt>
      <trkpt lat="49.3239" lon="1.01351">
        <ele>120</ele>
        <time>2019-12-30T14:17:06.000Z</time>
      </trkpt>
      <trkpt lat="49.32387" lon="1.01345">
        <ele>120</ele>
        <time>2019-12-30T14:17:07.000Z</time>
      </trkpt>
      <trkpt lat="49.32385" lon="1.01338">
        <ele>119</ele>
        <time>2019-12-30T14:17:08.000Z</time>
      </trkpt>
      <trkpt lat="49.32384" lon="1.01332">
        <ele>120</ele>
        <time>2019-12-30T14:17:09.000Z</time>
      </trkpt>
      <trkpt lat="49.32383" lon="1.01324">
        <ele>120</ele>
        <time>2019-12-30T14:17:10.000Z</time>
      </trkpt>
      <trkpt lat="49.32383" lon="1.01317">
        <ele>120</ele>
        <time>2019-12-30T14:17:11.000Z</time>
      </trkpt>
      <trkpt lat="49.32383" lon="1.01309">
        <ele>120</ele>
        <time>2019-12-30T14:17:12.000Z</time>
      </trkpt>
      <trkpt lat="49.32384" lon="1.01301">
        <ele>120</ele>
        <time>2019-12-30T14:17:13.000Z</time>
      </trkpt>
      <trkpt lat="49.32384" lon="1.01294">
        <ele>120</ele>
        <time>2019-12-30T14:17:14.000Z</time>
      </trkpt>
      <trkpt lat="49.32385" lon="1.01287">
        <ele>120</ele>
        <time>2019-12-30T14:17:15.000Z</time>
      </trkpt>
      <trkpt lat="49.32386" lon="1.01279">
        <ele>120</ele>
        <time>2019-12-30T14:17:16.000Z</time>
      </trkpt>
      <trkpt lat="49.32387" lon="1.01271">
        <ele>120</ele>
        <time>2019-12-30T14:17:17.000Z</time>
      </trkpt>
      <trkpt lat="49.32388" lon="1.01262">
        <ele>120</ele>
        <time>2019-12-30T14:17:18.000Z</time>
      </trkpt>
      <trkpt lat="49.32389" lon="1.01254">
        <ele>120</ele>
        <time>2019-12-30T14:17:19.000Z</time>
      </trkpt>
      <trkpt lat="49.3239" lon="1.01246">
        <ele>120</ele>
        <time>2019-12-30T14:17:20.000Z</time>
      </trkpt>
      <trkpt lat="49.32391" lon="1.01238">
        <ele>120</ele>
        <time>2019-12-30T14:17:21.000Z</time>
      </trkpt>
      <trkpt lat="49.32391" lon="1.01231">
        <ele>120</ele>
        <time>2019-12-30T14:17:22.000Z</time>
      </trkpt>
      <trkpt lat="49.32393" lon="1.01225">
        <ele>121</ele>
        <time>2019-12-30T14:17:23.000Z</time>
      </trkpt>
      <trkpt lat="49.32392" lon="1.01219">
        <ele>121</ele>
        <time>2019-12-30T14:17:24.000Z</time>
      </trkpt>
      <trkpt lat="49.3239" lon="1.01213">
        <ele>121</ele>
        <time>2019-12-30T14:17:25.000Z</time>
      </trkpt>
      <trkpt lat="49.32387" lon="1.01208">
        <ele>121</ele>
        <time>2019-12-30T14:17:26.000Z</time>
      </trkpt>
      <trkpt lat="49.32383" lon="1.01205">
        <ele>120</ele>
        <time>2019-12-30T14:17:27.000Z</time>
      </trkpt>
      <trkpt lat="49.3238" lon="1.01201">
        <ele>120</ele>
        <time>2019-12-30T14:17:28.000Z</time>
      </trkpt>
      <trkpt lat="49.32377" lon="1.01197">
        <ele>120</ele>
        <time>2019-12-30T14:17:29.000Z</time>
      </trkpt>
      <trkpt lat="49.32374" lon="1.01194">
        <ele>120</ele>
        <time>2019-12-30T14:17:30.000Z</time>
      </trkpt>
      <trkpt lat="49.32371" lon="1.01191">
        <ele>120</ele>
        <time>2019-12-30T14:17:31.000Z</time>
      </trkpt>
      <trkpt lat="49.32369" lon="1.01186">
        <ele>120</ele>
        <time>2019-12-30T14:17:32.000Z</time>
      </trkpt>
      <trkpt lat="49.32367" lon="1.01181">
        <ele>120</ele>
        <time>2019-12-30T14:17:33.000Z</time>
      </trkpt>
      <trkpt lat="49.32366" lon="1.01176">
        <ele>121</ele>
        <time>2019-12-30T14:17:34.000Z</time>
      </trkpt>
      <trkpt lat="49.32364" lon="1.0117">
        <ele>121</ele>
        <time>2019-12-30T14:17:35.000Z</time>
      </trkpt>
      <trkpt lat="49.32363" lon="1.01165">
        <ele>121</ele>
        <time>2019-12-30T14:17:36.000Z</time>
      </trkpt>
      <trkpt lat="49.32361" lon="1.01161">
        <ele>121</ele>
        <time>2019-12-30T14:17:37.000Z</time>
      </trkpt>
      <trkpt lat="49.32359" lon="1.01157">
        <ele>121</ele>
        <time>2019-12-30T14:17:38.000Z</time>
      </trkpt>
      <trkpt lat="49.32358" lon="1.01153">
        <ele>121</ele>
        <time>2019-12-30T14:17:39.000Z</time>
      </trkpt>
      <trkpt lat="49.32358" lon="1.01149">
        <ele>121</ele>
        <time>2019-12-30T14:17:40.000Z</time>
      </trkpt>
      <trkpt lat="49.32357" lon="1.01144">
        <ele>120</ele>
        <time>2019-12-30T14:17:41.000Z</time>
      </trkpt>
      <trkpt lat="49.32355" lon="1.01138">
        <ele>120</ele>
        <time>2019-12-30T14:17:42.000Z</time>
      </trkpt>
      <trkpt lat="49.32352" lon="1.01132">
        <ele>120</ele>
        <time>2019-12-30T14:17:43.000Z</time>
      </trkpt>
      <trkpt lat="49.3235" lon="1.01126">
        <ele>120</ele>
        <time>2019-12-30T14:17:44.000Z</time>
      </trkpt>
      <trkpt lat="49.32348" lon="1.01122">
        <ele>120</ele>
        <time>2019-12-30T14:17:45.000Z</time>
      </trkpt>
      <trkpt lat="49.32345" lon="1.01118">
        <ele>119</ele>
        <time>2019-12-30T14:17:46.000Z</time>
      </trkpt>
      <trkpt lat="49.32341" lon="1.01113">
        <ele>119</ele>
        <time>2019-12-30T14:17:47.000Z</time>
      </trkpt>
      <trkpt lat="49.32338" lon="1.01108">
        <ele>119</ele>
        <time>2019-12-30T14:17:48.000Z</time>
      </trkpt>
      <trkpt lat="49.32335" lon="1.01104">
        <ele>119</ele>
        <time>2019-12-30T14:17:49.000Z</time>
      </trkpt>
      <trkpt lat="49.32332" lon="1.01102">
        <ele>118</ele>
        <time>2019-12-30T14:17:50.000Z</time>
      </trkpt>
      <trkpt lat="49.32328" lon="1.01101">
        <ele>118</ele>
        <time>2019-12-30T14:17:51.000Z</time>
      </trkpt>
      <trkpt lat="49.32325" lon="1.01098">
        <ele>118</ele>
        <time>2019-12-30T14:17:52.000Z</time>
      </trkpt>
      <trkpt lat="49.32322" lon="1.01094">
        <ele>117</ele>
        <time>2019-12-30T14:17:53.000Z</time>
      </trkpt>
      <trkpt lat="49.3232" lon="1.0109">
        <ele>117</ele>
        <time>2019-12-30T14:17:54.000Z</time>
      </trkpt>
      <trkpt lat="49.32317" lon="1.01087">
        <ele>117</ele>
        <time>2019-12-30T14:17:55.000Z</time>
      </trkpt>
      <trkpt lat="49.32313" lon="1.01083">
        <ele>117</ele>
        <time>2019-12-30T14:17:56.000Z</time>
      </trkpt>
      <trkpt lat="49.3231" lon="1.01079">
        <ele>116</ele>
        <time>2019-12-30T14:17:57.000Z</time>
      </trkpt>
      <trkpt lat="49.32307" lon="1.01075">
        <ele>116</ele>
        <time>2019-12-30T14:17:58.000Z</time>
      </trkpt>
      <trkpt lat="49.32303" lon="1.01071">
        <ele>116</ele>
        <time>2019-12-30T14:17:59.000Z</time>
      </trkpt>
      <trkpt lat="49.32299" lon="1.01068">
        <ele>116</ele>
        <time>2019-12-30T14:18:00.000Z</time>
      </trkpt>
      <trkpt lat="49.32295" lon="1.01065">
        <ele>116</ele>
        <time>2019-12-30T14:18:01.000Z</time>
      </trkpt>
      <trkpt lat="49.32292" lon="1.01062">
        <ele>115</ele>
        <time>2019-12-30T14:18:02.000Z</time>
      </trkpt>
      <trkpt lat="49.3229" lon="1.01059">
        <ele>115</ele>
        <time>2019-12-30T14:18:03.000Z</time>
      </trkpt>
      <trkpt lat="49.32288" lon="1.01055">
        <ele>115</ele>
        <time>2019-12-30T14:18:04.000Z</time>
      </trkpt>
      <trkpt lat="49.32287" lon="1.01052">
        <ele>114</ele>
        <time>2019-12-30T14:18:05.000Z</time>
      </trkpt>
      <trkpt lat="49.32286" lon="1.0105">
        <ele>114</ele>
        <time>2019-12-30T14:18:06.000Z</time>
      </trkpt>
      <trkpt lat="49.32286" lon="1.01048">
        <ele>114</ele>
        <time>2019-12-30T14:18:07.000Z</time>
      </trkpt>
      <trkpt lat="49.32286" lon="1.01047">
        <ele>113</ele>
        <time>2019-12-30T14:18:08.000Z</time>
      </trkpt>
      <trkpt lat="49.32286" lon="1.01044">
        <ele>113</ele>
        <time>2019-12-30T14:18:09.000Z</time>
      </trkpt>
      <trkpt lat="49.32286" lon="1.01042">
        <ele>113</ele>
        <time>2019-12-30T14:18:10.000Z</time>
      </trkpt>
      <trkpt lat="49.32286" lon="1.01039">
        <ele>113</ele>
        <time>2019-12-30T14:18:11.000Z</time>
      </trkpt>
      <trkpt lat="49.32287" lon="1.01037">
        <ele>113</ele>
        <time>2019-12-30T14:18:12.000Z</time>
      </trkpt>
      <trkpt lat="49.32287" lon="1.01034">
        <ele>113</ele>
        <time>2019-12-30T14:18:13.000Z</time>
      </trkpt>
      <trkpt lat="49.32286" lon="1.01032">
        <ele>113</ele>
        <time>2019-12-30T14:18:14.000Z</time>
      </trkpt>
      <trkpt lat="49.32284" lon="1.0103">
        <ele>113</ele>
        <time>2019-12-30T14:18:15.000Z</time>
      </trkpt>
      <trkpt lat="49.32283" lon="1.01028">
        <ele>113</ele>
        <time>2019-12-30T14:18:16.000Z</time>
      </trkpt>
      <trkpt lat="49.32282" lon="1.01025">
        <ele>113</ele>
        <time>2019-12-30T14:18:17.000Z</time>
      </trkpt>
      <trkpt lat="49.3228" lon="1.01021">
        <ele>112</ele>
        <time>2019-12-30T14:18:18.000Z</time>
      </trkpt>
      <trkpt lat="49.32279" lon="1.01017">
        <ele>112</ele>
        <time>2019-12-30T14:18:19.000Z</time>
      </trkpt>
      <trkpt lat="49.32278" lon="1.01015">
        <ele>112</ele>
        <time>2019-12-30T14:18:20.000Z</time>
      </trkpt>
      <trkpt lat="49.32276" lon="1.01013">
        <ele>112</ele>
        <time>2019-12-30T14:18:21.000Z</time>
      </trkpt>
      <trkpt lat="49.32275" lon="1.01012">
        <ele>112</ele>
        <time>2019-12-30T14:18:22.000Z</time>
      </trkpt>
      <trkpt lat="49.32273" lon="1.01012">
        <ele>111</ele>
        <time>2019-12-30T14:18:23.000Z</time>
      </trkpt>
      <trkpt lat="49.32271" lon="1.01013">
        <ele>111</ele>
        <time>2019-12-30T14:18:24.000Z</time>
      </trkpt>
      <trkpt lat="49.3227" lon="1.01013">
        <ele>111</ele>
        <time>2019-12-30T14:18:25.000Z</time>
      </trkpt>
      <trkpt lat="49.32269" lon="1.01014">
        <ele>110</ele>
        <time>2019-12-30T14:18:26.000Z</time>
      </trkpt>
      <trkpt lat="49.32268" lon="1.01015">
        <ele>110</ele>
        <time>2019-12-30T14:18:27.000Z</time>
      </trkpt>
      <trkpt lat="49.32267" lon="1.01017">
        <ele>110</ele>
        <time>2019-12-30T14:18:28.000Z</time>
      </trkpt>
      <trkpt lat="49.32266" lon="1.01019">
        <ele>110</ele>
        <time>2019-12-30T14:18:29.000Z</time>
      </trkpt>
      <trkpt lat="49.32265" lon="1.01021">
        <ele>109</ele>
        <time>2019-12-30T14:18:30.000Z</time>
      </trkpt>
      <trkpt lat="49.32264" lon="1.01023">
        <ele>109</ele>
        <time>2019-12-30T14:18:31.000Z</time>
      </trkpt>
      <trkpt lat="49.32263" lon="1.01023">
        <ele>109</ele>
        <time>2019-12-30T14:18:32.000Z</time>
      </trkpt>
      <trkpt lat="49.32262" lon="1.01022">
        <ele>109</ele>
        <time>2019-12-30T14:18:33.000Z</time>
      </trkpt>
      <trkpt lat="49.32261" lon="1.01021">
        <ele>109</ele>
        <time>2019-12-30T14:18:34.000Z</time>
      </trkpt>
      <trkpt lat="49.3226" lon="1.0102">
        <ele>109</ele>
        <time>2019-12-30T14:18:35.000Z</time>
      </trkpt>
      <trkpt lat="49.32257" lon="1.01017">
        <ele>109</ele>
        <time>2019-12-30T14:18:36.000Z</time>
      </trkpt>
      <trkpt lat="49.32255" lon="1.01014">
        <ele>109</ele>
        <time>2019-12-30T14:18:37.000Z</time>
      </trkpt>
      <trkpt lat="49.32253" lon="1.0101">
        <ele>108</ele>
        <time>2019-12-30T14:18:38.000Z</time>
      </trkpt>
      <trkpt lat="49.32252" lon="1.01005">
        <ele>108</ele>
        <time>2019-12-30T14:18:39.000Z</time>
      </trkpt>
      <trkpt lat="49.3225" lon="1.00998">
        <ele>108</ele>
        <time>2019-12-30T14:18:40.000Z</time>
      </trkpt>
      <trkpt lat="49.32248" lon="1.00991">
        <ele>108</ele>
        <time>2019-12-30T14:18:41.000Z</time>
      </trkpt>
      <trkpt lat="49.32245" lon="1.00984">
        <ele>107</ele>
        <time>2019-12-30T14:18:42.000Z</time>
      </trkpt>
      <trkpt lat="49.32242" lon="1.00977">
        <ele>107</ele>
        <time>2019-12-30T14:18:43.000Z</time>
      </trkpt>
      <trkpt lat="49.32238" lon="1.00971">
        <ele>106</ele>
        <time>2019-12-30T14:18:44.000Z</time>
      </trkpt>
      <trkpt lat="49.32236" lon="1.00965">
        <ele>106</ele>
        <time>2019-12-30T14:18:45.000Z</time>
      </trkpt>
      <trkpt lat="49.32233" lon="1.00961">
        <ele>106</ele>
        <time>2019-12-30T14:18:46.000Z</time>
      </trkpt>
      <trkpt lat="49.32231" lon="1.00957">
        <ele>105</ele>
        <time>2019-12-30T14:18:47.000Z</time>
      </trkpt>
      <trkpt lat="49.32229" lon="1.00954">
        <ele>105</ele>
        <time>2019-12-30T14:18:48.000Z</time>
      </trkpt>
      <trkpt lat="49.32228" lon="1.00951">
        <ele>105</ele>
        <time>2019-12-30T14:18:49.000Z</time>
      </trkpt>
      <trkpt lat="49.32228" lon="1.00948">
        <ele>104</ele>
        <time>2019-12-30T14:18:50.000Z</time>
      </trkpt>
      <trkpt lat="49.32227" lon="1.00945">
        <ele>104</ele>
        <time>2019-12-30T14:18:51.000Z</time>
      </trkpt>
      <trkpt lat="49.32227" lon="1.00942">
        <ele>104</ele>
        <time>2019-12-30T14:18:52.000Z</time>
      </trkpt>
      <trkpt lat="49.32227" lon="1.0094">
        <ele>104</ele>
        <time>2019-12-30T14:18:53.000Z</time>
      </trkpt>
      <trkpt lat="49.32226" lon="1.00938">
        <ele>104</ele>
        <time>2019-12-30T14:18:54.000Z</time>
      </trkpt>
      <trkpt lat="49.32225" lon="1.00935">
        <ele>104</ele>
        <time>2019-12-30T14:18:55.000Z</time>
      </trkpt>
      <trkpt lat="49.32223" lon="1.00933">
        <ele>103</ele>
        <time>2019-12-30T14:18:56.000Z</time>
      </trkpt>
      <trkpt lat="49.32221" lon="1.00931">
        <ele>103</ele>
        <time>2019-12-30T14:18:57.000Z</time>
      </trkpt>
      <trkpt lat="49.32219" lon="1.00929">
        <ele>103</ele>
        <time>2019-12-30T14:18:58.000Z</time>
      </trkpt>
      <trkpt lat="49.32217" lon="1.00926">
        <ele>103</ele>
        <time>2019-12-30T14:18:59.000Z</time>
      </trkpt>
      <trkpt lat="49.32215" lon="1.00923">
        <ele>102</ele>
        <time>2019-12-30T14:19:00.000Z</time>
      </trkpt>
      <trkpt lat="49.32213" lon="1.00921">
        <ele>102</ele>
        <time>2019-12-30T14:19:01.000Z</time>
      </trkpt>
      <trkpt lat="49.32211" lon="1.00921">
        <ele>102</ele>
        <time>2019-12-30T14:19:02.000Z</time>
      </trkpt>
      <trkpt lat="49.32209" lon="1.00921">
        <ele>102</ele>
        <time>2019-12-30T14:19:03.000Z</time>
      </trkpt>
      <trkpt lat="49.32209" lon="1.00921">
        <ele>101</ele>
        <time>2019-12-30T14:19:04.000Z</time>
      </trkpt>
      <trkpt lat="49.32209" lon="1.00921">
        <ele>101</ele>
        <time>2019-12-30T14:19:05.000Z</time>
      </trkpt>
      <trkpt lat="49.32209" lon="1.00921">
        <ele>101</ele>
        <time>2019-12-30T14:19:06.000Z</time>
      </trkpt>
      <trkpt lat="49.32208" lon="1.00909">
        <ele>102</ele>
        <time>2019-12-30T14:19:07.000Z</time>
      </trkpt>
      <trkpt lat="49.32207" lon="1.00906">
        <ele>102</ele>
        <time>2019-12-30T14:19:08.000Z</time>
      </trkpt>
      <trkpt lat="49.32206" lon="1.00902">
        <ele>102</ele>
        <time>2019-12-30T14:19:09.000Z</time>
      </trkpt>
      <trkpt lat="49.32206" lon="1.00897">
        <ele>101</ele>
        <time>2019-12-30T14:19:10.000Z</time>
      </trkpt>
      <trkpt lat="49.32205" lon="1.00891">
        <ele>101</ele>
        <time>2019-12-30T14:19:11.000Z</time>
      </trkpt>
      <trkpt lat="49.32205" lon="1.00885">
        <ele>101</ele>
        <time>2019-12-30T14:19:12.000Z</time>
      </trkpt>
      <trkpt lat="49.32206" lon="1.00879">
        <ele>100</ele>
        <time>2019-12-30T14:19:13.000Z</time>
      </trkpt>
      <trkpt lat="49.32206" lon="1.00873">
        <ele>100</ele>
        <time>2019-12-30T14:19:14.000Z</time>
      </trkpt>
      <trkpt lat="49.32206" lon="1.00865">
        <ele>100</ele>
        <time>2019-12-30T14:19:15.000Z</time>
      </trkpt>
      <trkpt lat="49.32206" lon="1.00857">
        <ele>99</ele>
        <time>2019-12-30T14:19:16.000Z</time>
      </trkpt>
      <trkpt lat="49.32206" lon="1.0085">
        <ele>99</ele>
        <time>2019-12-30T14:19:17.000Z</time>
      </trkpt>
      <trkpt lat="49.32206" lon="1.00843">
        <ele>99</ele>
        <time>2019-12-30T14:19:18.000Z</time>
      </trkpt>
      <trkpt lat="49.32206" lon="1.00835">
        <ele>98</ele>
        <time>2019-12-30T14:19:19.000Z</time>
      </trkpt>
      <trkpt lat="49.32206" lon="1.00828">
        <ele>98</ele>
        <time>2019-12-30T14:19:20.000Z</time>
      </trkpt>
      <trkpt lat="49.32207" lon="1.00821">
        <ele>98</ele>
        <time>2019-12-30T14:19:21.000Z</time>
      </trkpt>
      <trkpt lat="49.32209" lon="1.00816">
        <ele>97</ele>
        <time>2019-12-30T14:19:22.000Z</time>
      </trkpt>
      <trkpt lat="49.3221" lon="1.0081">
        <ele>97</ele>
        <time>2019-12-30T14:19:23.000Z</time>
      </trkpt>
      <trkpt lat="49.3221" lon="1.00806">
        <ele>97</ele>
        <time>2019-12-30T14:19:24.000Z</time>
      </trkpt>
      <trkpt lat="49.3221" lon="1.00801">
        <ele>97</ele>
        <time>2019-12-30T14:19:25.000Z</time>
      </trkpt>
      <trkpt lat="49.3221" lon="1.00797">
        <ele>97</ele>
        <time>2019-12-30T14:19:26.000Z</time>
      </trkpt>
      <trkpt lat="49.3221" lon="1.00794">
        <ele>96</ele>
        <time>2019-12-30T14:19:27.000Z</time>
      </trkpt>
      <trkpt lat="49.32208" lon="1.00791">
        <ele>96</ele>
        <time>2019-12-30T14:19:28.000Z</time>
      </trkpt>
      <trkpt lat="49.32207" lon="1.00787">
        <ele>96</ele>
        <time>2019-12-30T14:19:29.000Z</time>
      </trkpt>
      <trkpt lat="49.32207" lon="1.00782">
        <ele>96</ele>
        <time>2019-12-30T14:19:30.000Z</time>
      </trkpt>
      <trkpt lat="49.32207" lon="1.00776">
        <ele>96</ele>
        <time>2019-12-30T14:19:31.000Z</time>
      </trkpt>
      <trkpt lat="49.32208" lon="1.0077">
        <ele>96</ele>
        <time>2019-12-30T14:19:32.000Z</time>
      </trkpt>
      <trkpt lat="49.32211" lon="1.00765">
        <ele>96</ele>
        <time>2019-12-30T14:19:33.000Z</time>
      </trkpt>
      <trkpt lat="49.32213" lon="1.00761">
        <ele>96</ele>
        <time>2019-12-30T14:19:34.000Z</time>
      </trkpt>
      <trkpt lat="49.32216" lon="1.00759">
        <ele>96</ele>
        <time>2019-12-30T14:19:35.000Z</time>
      </trkpt>
      <trkpt lat="49.3222" lon="1.00757">
        <ele>96</ele>
        <time>2019-12-30T14:19:36.000Z</time>
      </trkpt>
      <trkpt lat="49.32224" lon="1.00756">
        <ele>96</ele>
        <time>2019-12-30T14:19:37.000Z</time>
      </trkpt>
      <trkpt lat="49.32228" lon="1.00758">
        <ele>96</ele>
        <time>2019-12-30T14:19:38.000Z</time>
      </trkpt>
      <trkpt lat="49.32232" lon="1.0076">
        <ele>97</ele>
        <time>2019-12-30T14:19:39.000Z</time>
      </trkpt>
      <trkpt lat="49.32236" lon="1.0076">
        <ele>97</ele>
        <time>2019-12-30T14:19:40.000Z</time>
      </trkpt>
      <trkpt lat="49.32241" lon="1.0076">
        <ele>97</ele>
        <time>2019-12-30T14:19:41.000Z</time>
      </trkpt>
      <trkpt lat="49.32245" lon="1.00759">
        <ele>97</ele>
        <time>2019-12-30T14:19:42.000Z</time>
      </trkpt>
      <trkpt lat="49.32248" lon="1.00758">
        <ele>97</ele>
        <time>2019-12-30T14:19:43.000Z</time>
      </trkpt>
      <trkpt lat="49.32252" lon="1.00757">
        <ele>97</ele>
        <time>2019-12-30T14:19:44.000Z</time>
      </trkpt>
      <trkpt lat="49.32256" lon="1.00755">
        <ele>97</ele>
        <time>2019-12-30T14:19:45.000Z</time>
      </trkpt>
      <trkpt lat="49.32261" lon="1.00753">
        <ele>97</ele>
        <time>2019-12-30T14:19:46.000Z</time>
      </trkpt>
      <trkpt lat="49.32265" lon="1.0075">
        <ele>97</ele>
        <time>2019-12-30T14:19:47.000Z</time>
      </trkpt>
      <trkpt lat="49.3227" lon="1.00747">
        <ele>96</ele>
        <time>2019-12-30T14:19:48.000Z</time>
      </trkpt>
      <trkpt lat="49.32276" lon="1.00744">
        <ele>96</ele>
        <time>2019-12-30T14:19:49.000Z</time>
      </trkpt>
      <trkpt lat="49.32281" lon="1.0074">
        <ele>96</ele>
        <time>2019-12-30T14:19:50.000Z</time>
      </trkpt>
      <trkpt lat="49.32287" lon="1.00735">
        <ele>95</ele>
        <time>2019-12-30T14:19:51.000Z</time>
      </trkpt>
      <trkpt lat="49.32293" lon="1.0073">
        <ele>95</ele>
        <time>2019-12-30T14:19:52.000Z</time>
      </trkpt>
      <trkpt lat="49.32299" lon="1.00726">
        <ele>95</ele>
        <time>2019-12-30T14:19:53.000Z</time>
      </trkpt>
      <trkpt lat="49.32304" lon="1.0072">
        <ele>94</ele>
        <time>2019-12-30T14:19:54.000Z</time>
      </trkpt>
      <trkpt lat="49.32311" lon="1.00715">
        <ele>94</ele>
        <time>2019-12-30T14:19:55.000Z</time>
      </trkpt>
      <trkpt lat="49.32317" lon="1.00709">
        <ele>93</ele>
        <time>2019-12-30T14:19:56.000Z</time>
      </trkpt>
      <trkpt lat="49.32324" lon="1.00703">
        <ele>93</ele>
        <time>2019-12-30T14:19:57.000Z</time>
      </trkpt>
      <trkpt lat="49.3233" lon="1.00697">
        <ele>93</ele>
        <time>2019-12-30T14:19:58.000Z</time>
      </trkpt>
      <trkpt lat="49.32338" lon="1.0069">
        <ele>93</ele>
        <time>2019-12-30T14:19:59.000Z</time>
      </trkpt>
      <trkpt lat="49.32345" lon="1.00684">
        <ele>93</ele>
        <time>2019-12-30T14:20:00.000Z</time>
      </trkpt>
      <trkpt lat="49.32345" lon="1.00684">
        <ele>93</ele>
        <time>2019-12-30T14:20:01.000Z</time>
      </trkpt>
      <trkpt lat="49.32345" lon="1.00684">
        <ele>93</ele>
        <time>2019-12-30T14:20:02.000Z</time>
      </trkpt>
      <trkpt lat="49.32345" lon="1.00684">
        <ele>93</ele>
        <time>2019-12-30T14:20:03.000Z</time>
      </trkpt>
      <trkpt lat="49.32345" lon="1.00684">
        <ele>93</ele>
        <time>2019-12-30T14:20:04.000Z</time>
      </trkpt>
    </trkseg>
  </trk>
  <trk>
    <name><![CDATA[VTT_2]]></name>
    <trkseg>
      <trkpt lat="49.32348" lon="1.00674">
        <ele>81.3</ele>
      </trkpt>
      <trkpt lat="49.32348" lon="1.00674">
        <ele>81.3</ele>
      </trkpt>
      <trkpt lat="49.32348" lon="1.00674">
        <ele>81.3</ele>
      </trkpt>
      <trkpt lat="49.32348" lon="1.00674">
        <ele>81.3</ele>
      </trkpt>
      <trkpt lat="49.32358" lon="1.00651">
        <ele>79.8</ele>
      </trkpt>
      <trkpt lat="49.32369" lon="1.00625">
        <ele>78.6</ele>
      </trkpt>
      <trkpt lat="49.3238" lon="1.00591">
        <ele>77.3</ele>
      </trkpt>
      <trkpt lat="49.32388" lon="1.00578">
        <ele>76.9</ele>
      </trkpt>
      <trkpt lat="49.32393" lon="1.00575">
        <ele>76.7</ele>
      </trkpt>
      <trkpt lat="49.32409" lon="1.00574">
        <ele>76</ele>
      </trkpt>
      <trkpt lat="49.32413" lon="1.00574">
        <ele>76</ele>
      </trkpt>
      <trkpt lat="49.32422" lon="1.00571">
        <ele>76.5</ele>
      </trkpt>
      <trkpt lat="49.32441" lon="1.00557">
        <ele>77.2</ele>
      </trkpt>
      <trkpt lat="49.32456" lon="1.00539">
        <ele>78.1</ele>
      </trkpt>
      <trkpt lat="49.32465" lon="1.00531">
        <ele>78.7</ele>
      </trkpt>
      <trkpt lat="49.32477" lon="1.00521">
        <ele>79.4</ele>
      </trkpt>
      <trkpt lat="49.32479" lon="1.00519">
        <ele>79.5</ele>
      </trkpt>
      <trkpt lat="49.32489" lon="1.00507">
        <ele>80.1</ele>
      </trkpt>
      <trkpt lat="49.32491" lon="1.00504">
        <ele>80.2</ele>
      </trkpt>
      <trkpt lat="49.32503" lon="1.00491">
        <ele>81</ele>
      </trkpt>
      <trkpt lat="49.32505" lon="1.00489">
        <ele>81</ele>
      </trkpt>
      <trkpt lat="49.32513" lon="1.00481">
        <ele>81</ele>
      </trkpt>
      <trkpt lat="49.32515" lon="1.00479">
        <ele>81</ele>
      </trkpt>
      <trkpt lat="49.32517" lon="1.00476">
        <ele>81</ele>
      </trkpt>
      <trkpt lat="49.32522" lon="1.00468">
        <ele>81.1</ele>
      </trkpt>
      <trkpt lat="49.32524" lon="1.00465">
        <ele>81.1</ele>
      </trkpt>
      <trkpt lat="49.32533" lon="1.00449">
        <ele>81.2</ele>
      </trkpt>
      <trkpt lat="49.32544" lon="1.00431">
        <ele>81.6</ele>
      </trkpt>
      <trkpt lat="49.32546" lon="1.00427">
        <ele>81.8</ele>
      </trkpt>
      <trkpt lat="49.32549" lon="1.00423">
        <ele>81.9</ele>
      </trkpt>
      <trkpt lat="49.3256" lon="1.00403">
        <ele>82.7</ele>
      </trkpt>
      <trkpt lat="49.32563" lon="1.00398">
        <ele>82.9</ele>
      </trkpt>
      <trkpt lat="49.32573" lon="1.00375">
        <ele>83.8</ele>
      </trkpt>
      <trkpt lat="49.32579" lon="1.00359">
        <ele>84.4</ele>
      </trkpt>
      <trkpt lat="49.32588" lon="1.00345">
        <ele>84.9</ele>
      </trkpt>
      <trkpt lat="49.32598" lon="1.00335">
        <ele>85.1</ele>
      </trkpt>
      <trkpt lat="49.32605" lon="1.00331">
        <ele>85.9</ele>
      </trkpt>
      <trkpt lat="49.32608" lon="1.00331">
        <ele>86.1</ele>
      </trkpt>
      <trkpt lat="49.32611" lon="1.00333">
        <ele>86.4</ele>
      </trkpt>
      <trkpt lat="49.32613" lon="1.00334">
        <ele>86.6</ele>
      </trkpt>
      <trkpt lat="49.32616" lon="1.00338">
        <ele>86.9</ele>
      </trkpt>
      <trkpt lat="49.32624" lon="1.00347">
        <ele>87.9</ele>
      </trkpt>
      <trkpt lat="49.32628" lon="1.00351">
        <ele>88.4</ele>
      </trkpt>
      <trkpt lat="49.3264" lon="1.00363">
        <ele>90</ele>
      </trkpt>
      <trkpt lat="49.32645" lon="1.00366">
        <ele>90.6</ele>
      </trkpt>
      <trkpt lat="49.32651" lon="1.00369">
        <ele>91.2</ele>
      </trkpt>
      <trkpt lat="49.32656" lon="1.00371">
        <ele>92</ele>
      </trkpt>
      <trkpt lat="49.32667" lon="1.00374">
        <ele>93.5</ele>
      </trkpt>
      <trkpt lat="49.32675" lon="1.00377">
        <ele>94.4</ele>
      </trkpt>
      <trkpt lat="49.32684" lon="1.00376">
        <ele>95.4</ele>
      </trkpt>
      <trkpt lat="49.32693" lon="1.00374">
        <ele>96.4</ele>
      </trkpt>
      <trkpt lat="49.32701" lon="1.00371">
        <ele>97.3</ele>
      </trkpt>
      <trkpt lat="49.32703" lon="1.0037">
        <ele>97.5</ele>
      </trkpt>
      <trkpt lat="49.32708" lon="1.0037">
        <ele>98</ele>
      </trkpt>
      <trkpt lat="49.32718" lon="1.0037">
        <ele>99</ele>
      </trkpt>
      <trkpt lat="49.32721" lon="1.0037">
        <ele>99.3</ele>
      </trkpt>
      <trkpt lat="49.32736" lon="1.00371">
        <ele>100.7</ele>
      </trkpt>
      <trkpt lat="49.3275" lon="1.00371">
        <ele>101.9</ele>
      </trkpt>
      <trkpt lat="49.32752" lon="1.00371">
        <ele>102.1</ele>
      </trkpt>
      <trkpt lat="49.32755" lon="1.00371">
        <ele>102.3</ele>
      </trkpt>
      <trkpt lat="49.32769" lon="1.00369">
        <ele>103.7</ele>
      </trkpt>
      <trkpt lat="49.32776" lon="1.0037">
        <ele>104.5</ele>
      </trkpt>
      <trkpt lat="49.32787" lon="1.00372">
        <ele>105.6</ele>
      </trkpt>
      <trkpt lat="49.32791" lon="1.00372">
        <ele>105.8</ele>
      </trkpt>
      <trkpt lat="49.32803" lon="1.00375">
        <ele>106.8</ele>
      </trkpt>
      <trkpt lat="49.32812" lon="1.00376">
        <ele>107.6</ele>
      </trkpt>
      <trkpt lat="49.3282" lon="1.00381">
        <ele>108.3</ele>
      </trkpt>
      <trkpt lat="49.32828" lon="1.00385">
        <ele>109</ele>
      </trkpt>
      <trkpt lat="49.32837" lon="1.0039">
        <ele>109.8</ele>
      </trkpt>
      <trkpt lat="49.32848" lon="1.00398">
        <ele>110.8</ele>
      </trkpt>
      <trkpt lat="49.3285" lon="1.004">
        <ele>111</ele>
      </trkpt>
      <trkpt lat="49.3286" lon="1.00408">
        <ele>112</ele>
      </trkpt>
      <trkpt lat="49.32871" lon="1.00418">
        <ele>113</ele>
      </trkpt>
      <trkpt lat="49.32877" lon="1.00423">
        <ele>113.4</ele>
      </trkpt>
      <trkpt lat="49.32891" lon="1.0044">
        <ele>115.1</ele>
      </trkpt>
      <trkpt lat="49.32895" lon="1.0045">
        <ele>115.9</ele>
      </trkpt>
      <trkpt lat="49.32899" lon="1.00456">
        <ele>116.6</ele>
      </trkpt>
      <trkpt lat="49.32908" lon="1.00472">
        <ele>117</ele>
      </trkpt>
      <trkpt lat="49.32909" lon="1.0048">
        <ele>117.2</ele>
      </trkpt>
      <trkpt lat="49.32911" lon="1.00502">
        <ele>117.6</ele>
      </trkpt>
      <trkpt lat="49.32912" lon="1.00528">
        <ele>118</ele>
      </trkpt>
      <trkpt lat="49.32912" lon="1.00528">
        <ele>118</ele>
      </trkpt>
      <trkpt lat="49.32912" lon="1.00532">
        <ele>118.1</ele>
      </trkpt>
      <trkpt lat="49.32918" lon="1.00558">
        <ele>118.7</ele>
      </trkpt>
      <trkpt lat="49.32919" lon="1.00563">
        <ele>118.8</ele>
      </trkpt>
      <trkpt lat="49.32926" lon="1.00584">
        <ele>119.3</ele>
      </trkpt>
      <trkpt lat="49.32927" lon="1.00589">
        <ele>119.4</ele>
      </trkpt>
      <trkpt lat="49.32936" lon="1.00613">
        <ele>120.1</ele>
      </trkpt>
      <trkpt lat="49.32941" lon="1.00624">
        <ele>120.4</ele>
      </trkpt>
      <trkpt lat="49.32949" lon="1.00639">
        <ele>121</ele>
      </trkpt>
      <trkpt lat="49.32953" lon="1.00648">
        <ele>121.2</ele>
      </trkpt>
      <trkpt lat="49.32959" lon="1.00663">
        <ele>121.7</ele>
      </trkpt>
      <trkpt lat="49.32965" lon="1.00672">
        <ele>122</ele>
      </trkpt>
      <trkpt lat="49.32971" lon="1.00681">
        <ele>122.2</ele>
      </trkpt>
      <trkpt lat="49.32979" lon="1.00692">
        <ele>122.6</ele>
      </trkpt>
      <trkpt lat="49.32988" lon="1.00706">
        <ele>123</ele>
      </trkpt>
      <trkpt lat="49.32992" lon="1.00711">
        <ele>123.1</ele>
      </trkpt>
      <trkpt lat="49.32994" lon="1.00713">
        <ele>123.2</ele>
      </trkpt>
      <trkpt lat="49.33008" lon="1.00723">
        <ele>123.7</ele>
      </trkpt>
      <trkpt lat="49.33014" lon="1.0073">
        <ele>123.9</ele>
      </trkpt>
      <trkpt lat="49.33018" lon="1.00738">
        <ele>124.1</ele>
      </trkpt>
      <trkpt lat="49.33023" lon="1.00746">
        <ele>124.2</ele>
      </trkpt>
      <trkpt lat="49.33031" lon="1.00762">
        <ele>124.6</ele>
      </trkpt>
      <trkpt lat="49.33039" lon="1.00777">
        <ele>125</ele>
      </trkpt>
      <trkpt lat="49.33039" lon="1.00777">
        <ele>125</ele>
      </trkpt>
      <trkpt lat="49.3305" lon="1.00809">
        <ele>125.6</ele>
      </trkpt>
      <trkpt lat="49.33056" lon="1.00823">
        <ele>125.9</ele>
      </trkpt>
      <trkpt lat="49.33059" lon="1.00832">
        <ele>126.1</ele>
      </trkpt>
      <trkpt lat="49.33069" lon="1.00855">
        <ele>126.6</ele>
      </trkpt>
      <trkpt lat="49.3307" lon="1.00858">
        <ele>126.7</ele>
      </trkpt>
      <trkpt lat="49.33077" lon="1.00878">
        <ele>127</ele>
      </trkpt>
      <trkpt lat="49.33078" lon="1.00882">
        <ele>127.2</ele>
      </trkpt>
      <trkpt lat="49.33084" lon="1.00906">
        <ele>127.8</ele>
      </trkpt>
      <trkpt lat="49.33086" lon="1.00915">
        <ele>128.1</ele>
      </trkpt>
      <trkpt lat="49.33093" lon="1.00932">
        <ele>128.5</ele>
      </trkpt>
      <trkpt lat="49.33106" lon="1.0096">
        <ele>129.7</ele>
      </trkpt>
      <trkpt lat="49.33109" lon="1.00969">
        <ele>130.3</ele>
      </trkpt>
      <trkpt lat="49.33112" lon="1.00975">
        <ele>130.7</ele>
      </trkpt>
      <trkpt lat="49.33112" lon="1.00976">
        <ele>130.7</ele>
      </trkpt>
      <trkpt lat="49.33112" lon="1.00976">
        <ele>130.8</ele>
      </trkpt>
      <trkpt lat="49.33115" lon="1.0098">
        <ele>131.1</ele>
      </trkpt>
      <trkpt lat="49.33117" lon="1.00984">
        <ele>131.3</ele>
      </trkpt>
      <trkpt lat="49.33126" lon="1.00997">
        <ele>132.4</ele>
      </trkpt>
      <trkpt lat="49.33133" lon="1.01005">
        <ele>133.2</ele>
      </trkpt>
      <trkpt lat="49.33141" lon="1.01013">
        <ele>133.8</ele>
      </trkpt>
      <trkpt lat="49.33144" lon="1.01018">
        <ele>134</ele>
      </trkpt>
      <trkpt lat="49.33148" lon="1.01022">
        <ele>134.2</ele>
      </trkpt>
      <trkpt lat="49.3315" lon="1.01024">
        <ele>134.4</ele>
      </trkpt>
      <trkpt lat="49.3316" lon="1.01033">
        <ele>135</ele>
      </trkpt>
      <trkpt lat="49.33162" lon="1.01036">
        <ele>135.1</ele>
      </trkpt>
      <trkpt lat="49.33177" lon="1.01054">
        <ele>135.6</ele>
      </trkpt>
      <trkpt lat="49.33179" lon="1.0106">
        <ele>135.7</ele>
      </trkpt>
      <trkpt lat="49.33185" lon="1.01072">
        <ele>135.3</ele>
      </trkpt>
      <trkpt lat="49.33201" lon="1.01102">
        <ele>134.8</ele>
      </trkpt>
      <trkpt lat="49.33211" lon="1.01133">
        <ele>134.8</ele>
      </trkpt>
      <trkpt lat="49.33216" lon="1.0115">
        <ele>134.7</ele>
      </trkpt>
      <trkpt lat="49.33218" lon="1.01158">
        <ele>134.7</ele>
      </trkpt>
      <trkpt lat="49.33225" lon="1.0118">
        <ele>134.6</ele>
      </trkpt>
      <trkpt lat="49.33231" lon="1.01196">
        <ele>134.6</ele>
      </trkpt>
      <trkpt lat="49.33231" lon="1.01196">
        <ele>134.6</ele>
      </trkpt>
      <trkpt lat="49.33239" lon="1.01198">
        <ele>134.6</ele>
      </trkpt>
      <trkpt lat="49.33243" lon="1.01195">
        <ele>134.6</ele>
      </trkpt>
      <trkpt lat="49.33259" lon="1.01182">
        <ele>134.6</ele>
      </trkpt>
      <trkpt lat="49.33268" lon="1.01169">
        <ele>134.6</ele>
      </trkpt>
      <trkpt lat="49.3327" lon="1.01164">
        <ele>134.5</ele>
      </trkpt>
      <trkpt lat="49.33272" lon="1.01159">
        <ele>134.5</ele>
      </trkpt>
      <trkpt lat="49.33275" lon="1.01156">
        <ele>134.5</ele>
      </trkpt>
      <trkpt lat="49.33278" lon="1.01154">
        <ele>134.4</ele>
      </trkpt>
      <trkpt lat="49.33285" lon="1.01154">
        <ele>134.1</ele>
      </trkpt>
      <trkpt lat="49.33307" lon="1.01161">
        <ele>134</ele>
      </trkpt>
      <trkpt lat="49.33324" lon="1.01163">
        <ele>134.4</ele>
      </trkpt>
      <trkpt lat="49.33338" lon="1.01169">
        <ele>134.7</ele>
      </trkpt>
      <trkpt lat="49.33361" lon="1.01182">
        <ele>135.2</ele>
      </trkpt>
      <trkpt lat="49.33365" lon="1.01184">
        <ele>135.3</ele>
      </trkpt>
      <trkpt lat="49.33385" lon="1.01202">
        <ele>135.8</ele>
      </trkpt>
      <trkpt lat="49.33397" lon="1.01221">
        <ele>136.1</ele>
      </trkpt>
      <trkpt lat="49.33406" lon="1.01243">
        <ele>136.4</ele>
      </trkpt>
      <trkpt lat="49.33406" lon="1.01243">
        <ele>136.4</ele>
      </trkpt>
      <trkpt lat="49.3342" lon="1.01275">
        <ele>136.5</ele>
      </trkpt>
      <trkpt lat="49.33436" lon="1.01306">
        <ele>136.4</ele>
      </trkpt>
      <trkpt lat="49.33442" lon="1.01316">
        <ele>136.4</ele>
      </trkpt>
      <trkpt lat="49.33442" lon="1.01316">
        <ele>136.4</ele>
      </trkpt>
      <trkpt lat="49.33454" lon="1.01312">
        <ele>136.2</ele>
      </trkpt>
      <trkpt lat="49.33456" lon="1.0131">
        <ele>136.1</ele>
      </trkpt>
      <trkpt lat="49.33459" lon="1.013">
        <ele>135.9</ele>
      </trkpt>
      <trkpt lat="49.33469" lon="1.01275">
        <ele>135.3</ele>
      </trkpt>
      <trkpt lat="49.33473" lon="1.01268">
        <ele>135.1</ele>
      </trkpt>
      <trkpt lat="49.33478" lon="1.01255">
        <ele>134.7</ele>
      </trkpt>
      <trkpt lat="49.33484" lon="1.01251">
        <ele>134.5</ele>
      </trkpt>
      <trkpt lat="49.3349" lon="1.01247">
        <ele>134.5</ele>
      </trkpt>
      <trkpt lat="49.33496" lon="1.01244">
        <ele>134.5</ele>
      </trkpt>
      <trkpt lat="49.33502" lon="1.0124">
        <ele>134.4</ele>
      </trkpt>
      <trkpt lat="49.33508" lon="1.01237">
        <ele>134.1</ele>
      </trkpt>
      <trkpt lat="49.33514" lon="1.01233">
        <ele>134.1</ele>
      </trkpt>
      <trkpt lat="49.3352" lon="1.01229">
        <ele>134.1</ele>
      </trkpt>
      <trkpt lat="49.33525" lon="1.0123">
        <ele>134.4</ele>
      </trkpt>
      <trkpt lat="49.3353" lon="1.01228">
        <ele>134.8</ele>
      </trkpt>
      <trkpt lat="49.33539" lon="1.01221">
        <ele>135.6</ele>
      </trkpt>
      <trkpt lat="49.33543" lon="1.01222">
        <ele>135.6</ele>
      </trkpt>
      <trkpt lat="49.33544" lon="1.01222">
        <ele>135.6</ele>
      </trkpt>
      <trkpt lat="49.33543" lon="1.01225">
        <ele>135.6</ele>
      </trkpt>
      <trkpt lat="49.33536" lon="1.0122">
        <ele>135.7</ele>
      </trkpt>
      <trkpt lat="49.33518" lon="1.01208">
        <ele>135.7</ele>
      </trkpt>
      <trkpt lat="49.335" lon="1.01197">
        <ele>135.7</ele>
      </trkpt>
      <trkpt lat="49.33487" lon="1.0119">
        <ele>135.8</ele>
      </trkpt>
      <trkpt lat="49.3346" lon="1.01171">
        <ele>135.8</ele>
      </trkpt>
      <trkpt lat="49.33433" lon="1.01152">
        <ele>135.8</ele>
      </trkpt>
      <trkpt lat="49.33427" lon="1.01147">
        <ele>135.8</ele>
      </trkpt>
      <trkpt lat="49.33421" lon="1.01142">
        <ele>135.8</ele>
      </trkpt>
      <trkpt lat="49.33424" lon="1.01143">
        <ele>135.7</ele>
      </trkpt>
      <trkpt lat="49.33428" lon="1.01146">
        <ele>135.8</ele>
      </trkpt>
      <trkpt lat="49.33431" lon="1.01149">
        <ele>135.8</ele>
      </trkpt>
      <trkpt lat="49.33439" lon="1.01157">
        <ele>135.8</ele>
      </trkpt>
      <trkpt lat="49.33458" lon="1.01171">
        <ele>135.8</ele>
      </trkpt>
      <trkpt lat="49.33477" lon="1.01184">
        <ele>135.8</ele>
      </trkpt>
      <trkpt lat="49.33492" lon="1.01194">
        <ele>135.7</ele>
      </trkpt>
      <trkpt lat="49.33492" lon="1.01195">
        <ele>135.7</ele>
      </trkpt>
      <trkpt lat="49.33496" lon="1.01197">
        <ele>135.7</ele>
      </trkpt>
      <trkpt lat="49.33498" lon="1.01199">
        <ele>135.7</ele>
      </trkpt>
      <trkpt lat="49.33536" lon="1.0122">
        <ele>135.6</ele>
      </trkpt>
      <trkpt lat="49.33551" lon="1.01231">
        <ele>135.6</ele>
      </trkpt>
      <trkpt lat="49.33568" lon="1.01243">
        <ele>135.6</ele>
      </trkpt>
      <trkpt lat="49.33604" lon="1.01266">
        <ele>135.5</ele>
      </trkpt>
      <trkpt lat="49.33633" lon="1.01285">
        <ele>135.6</ele>
      </trkpt>
      <trkpt lat="49.33649" lon="1.01295">
        <ele>135.5</ele>
      </trkpt>
      <trkpt lat="49.33668" lon="1.01308">
        <ele>135.2</ele>
      </trkpt>
      <trkpt lat="49.33707" lon="1.01335">
        <ele>134.7</ele>
      </trkpt>
      <trkpt lat="49.3376" lon="1.01367">
        <ele>132.9</ele>
      </trkpt>
      <trkpt lat="49.33771" lon="1.0137">
        <ele>132.8</ele>
      </trkpt>
      <trkpt lat="49.33775" lon="1.01368">
        <ele>132.9</ele>
      </trkpt>
      <trkpt lat="49.33778" lon="1.01355">
        <ele>133.2</ele>
      </trkpt>
      <trkpt lat="49.33778" lon="1.01343">
        <ele>133.4</ele>
      </trkpt>
      <trkpt lat="49.33772" lon="1.0132">
        <ele>135.2</ele>
      </trkpt>
      <trkpt lat="49.33753" lon="1.01263">
        <ele>137.3</ele>
      </trkpt>
      <trkpt lat="49.33743" lon="1.01233">
        <ele>137.6</ele>
      </trkpt>
      <trkpt lat="49.33737" lon="1.01214">
        <ele>137.8</ele>
      </trkpt>
      <trkpt lat="49.33736" lon="1.01212">
        <ele>137.8</ele>
      </trkpt>
      <trkpt lat="49.33732" lon="1.01202">
        <ele>137.9</ele>
      </trkpt>
      <trkpt lat="49.3373" lon="1.01204">
        <ele>137.9</ele>
      </trkpt>
      <trkpt lat="49.33731" lon="1.01207">
        <ele>137.9</ele>
      </trkpt>
      <trkpt lat="49.33739" lon="1.01224">
        <ele>137.7</ele>
      </trkpt>
      <trkpt lat="49.33739" lon="1.01224">
        <ele>137.7</ele>
      </trkpt>
      <trkpt lat="49.33751" lon="1.01261">
        <ele>137.3</ele>
      </trkpt>
      <trkpt lat="49.33767" lon="1.0131">
        <ele>135.9</ele>
      </trkpt>
      <trkpt lat="49.33784" lon="1.01353">
        <ele>133.4</ele>
      </trkpt>
      <trkpt lat="49.33786" lon="1.01358">
        <ele>133.2</ele>
      </trkpt>
      <trkpt lat="49.33796" lon="1.01373">
        <ele>132.5</ele>
      </trkpt>
      <trkpt lat="49.33804" lon="1.01382">
        <ele>132.1</ele>
      </trkpt>
      <trkpt lat="49.33808" lon="1.01385">
        <ele>131.9</ele>
      </trkpt>
      <trkpt lat="49.33829" lon="1.01396">
        <ele>131</ele>
      </trkpt>
      <trkpt lat="49.33832" lon="1.01399">
        <ele>130.8</ele>
      </trkpt>
      <trkpt lat="49.33837" lon="1.01402">
        <ele>130.6</ele>
      </trkpt>
      <trkpt lat="49.3386" lon="1.0141">
        <ele>130.4</ele>
      </trkpt>
      <trkpt lat="49.33888" lon="1.01417">
        <ele>130</ele>
      </trkpt>
      <trkpt lat="49.33901" lon="1.01418">
        <ele>130.1</ele>
      </trkpt>
      <trkpt lat="49.3393" lon="1.0142">
        <ele>129.9</ele>
      </trkpt>
      <trkpt lat="49.33933" lon="1.01421">
        <ele>129.8</ele>
      </trkpt>
      <trkpt lat="49.33934" lon="1.01433">
        <ele>129.7</ele>
      </trkpt>
      <trkpt lat="49.33932" lon="1.01444">
        <ele>129.5</ele>
      </trkpt>
      <trkpt lat="49.33932" lon="1.0145">
        <ele>129.4</ele>
      </trkpt>
      <trkpt lat="49.33942" lon="1.01476">
        <ele>129.1</ele>
      </trkpt>
      <trkpt lat="49.33948" lon="1.01487">
        <ele>129</ele>
      </trkpt>
      <trkpt lat="49.33955" lon="1.01514">
        <ele>128.8</ele>
      </trkpt>
      <trkpt lat="49.33958" lon="1.0152">
        <ele>128.8</ele>
      </trkpt>
      <trkpt lat="49.33966" lon="1.01529">
        <ele>128.9</ele>
      </trkpt>
      <trkpt lat="49.3397" lon="1.01532">
        <ele>129</ele>
      </trkpt>
      <trkpt lat="49.3398" lon="1.01537">
        <ele>129</ele>
      </trkpt>
      <trkpt lat="49.33989" lon="1.01541">
        <ele>129.3</ele>
      </trkpt>
      <trkpt lat="49.34039" lon="1.01574">
        <ele>130.1</ele>
      </trkpt>
      <trkpt lat="49.34093" lon="1.01609">
        <ele>130.1</ele>
      </trkpt>
      <trkpt lat="49.34093" lon="1.01609">
        <ele>130.1</ele>
      </trkpt>
      <trkpt lat="49.34145" lon="1.01644">
        <ele>130.2</ele>
      </trkpt>
      <trkpt lat="49.34158" lon="1.01653">
        <ele>130.2</ele>
      </trkpt>
      <trkpt lat="49.34202" lon="1.01681">
        <ele>130.8</ele>
      </trkpt>
      <trkpt lat="49.34216" lon="1.01697">
        <ele>131.4</ele>
      </trkpt>
      <trkpt lat="49.34224" lon="1.01706">
        <ele>131.4</ele>
      </trkpt>
      <trkpt lat="49.34233" lon="1.01713">
        <ele>131.3</ele>
      </trkpt>
      <trkpt lat="49.34237" lon="1.01717">
        <ele>131.3</ele>
      </trkpt>
      <trkpt lat="49.34255" lon="1.01737">
        <ele>131</ele>
      </trkpt>
      <trkpt lat="49.34258" lon="1.01741">
        <ele>130.9</ele>
      </trkpt>
      <trkpt lat="49.34269" lon="1.01756">
        <ele>130.8</ele>
      </trkpt>
      <trkpt lat="49.34273" lon="1.01761">
        <ele>130.8</ele>
      </trkpt>
      <trkpt lat="49.34311" lon="1.01806">
        <ele>130.6</ele>
      </trkpt>
      <trkpt lat="49.3432" lon="1.01816">
        <ele>130.5</ele>
      </trkpt>
      <trkpt lat="49.34327" lon="1.01827">
        <ele>130.4</ele>
      </trkpt>
      <trkpt lat="49.34336" lon="1.01836">
        <ele>130.3</ele>
      </trkpt>
      <trkpt lat="49.34381" lon="1.0189">
        <ele>130</ele>
      </trkpt>
      <trkpt lat="49.34386" lon="1.01895">
        <ele>130</ele>
      </trkpt>
      <trkpt lat="49.34431" lon="1.01949">
        <ele>129.5</ele>
      </trkpt>
      <trkpt lat="49.34454" lon="1.01977">
        <ele>129.2</ele>
      </trkpt>
      <trkpt lat="49.34459" lon="1.01983">
        <ele>129.2</ele>
      </trkpt>
      <trkpt lat="49.34486" lon="1.02014">
        <ele>129.2</ele>
      </trkpt>
      <trkpt lat="49.34523" lon="1.02055">
        <ele>128.8</ele>
      </trkpt>
      <trkpt lat="49.34563" lon="1.02094">
        <ele>127.7</ele>
      </trkpt>
      <trkpt lat="49.34573" lon="1.02103">
        <ele>127.3</ele>
      </trkpt>
      <trkpt lat="49.34618" lon="1.02147">
        <ele>126.1</ele>
      </trkpt>
      <trkpt lat="49.3464" lon="1.0217">
        <ele>125.8</ele>
      </trkpt>
      <trkpt lat="49.34649" lon="1.02179">
        <ele>125.6</ele>
      </trkpt>
      <trkpt lat="49.34684" lon="1.02202">
        <ele>125.5</ele>
      </trkpt>
      <trkpt lat="49.34709" lon="1.02219">
        <ele>125.6</ele>
      </trkpt>
      <trkpt lat="49.34732" lon="1.02232">
        <ele>125.9</ele>
      </trkpt>
      <trkpt lat="49.3475" lon="1.02245">
        <ele>126.2</ele>
      </trkpt>
      <trkpt lat="49.34753" lon="1.0225">
        <ele>126.3</ele>
      </trkpt>
      <trkpt lat="49.34753" lon="1.02263">
        <ele>126.3</ele>
      </trkpt>
      <trkpt lat="49.34751" lon="1.02271">
        <ele>126.2</ele>
      </trkpt>
      <trkpt lat="49.34732" lon="1.02316">
        <ele>126.3</ele>
      </trkpt>
      <trkpt lat="49.34717" lon="1.02353">
        <ele>126.6</ele>
      </trkpt>
      <trkpt lat="49.34701" lon="1.02389">
        <ele>126.8</ele>
      </trkpt>
      <trkpt lat="49.34696" lon="1.02403">
        <ele>126.7</ele>
      </trkpt>
      <trkpt lat="49.34695" lon="1.02411">
        <ele>126.7</ele>
      </trkpt>
      <trkpt lat="49.34699" lon="1.02418">
        <ele>126.7</ele>
      </trkpt>
      <trkpt lat="49.34705" lon="1.02424">
        <ele>126.9</ele>
      </trkpt>
      <trkpt lat="49.34707" lon="1.02427">
        <ele>126.9</ele>
      </trkpt>
      <trkpt lat="49.34706" lon="1.02435">
        <ele>127</ele>
      </trkpt>
      <trkpt lat="49.34705" lon="1.02439">
        <ele>127.1</ele>
      </trkpt>
      <trkpt lat="49.34705" lon="1.02447">
        <ele>127.2</ele>
      </trkpt>
      <trkpt lat="49.34707" lon="1.02451">
        <ele>127.3</ele>
      </trkpt>
      <trkpt lat="49.34722" lon="1.02473">
        <ele>127.9</ele>
      </trkpt>
      <trkpt lat="49.34752" lon="1.02507">
        <ele>128</ele>
      </trkpt>
      <trkpt lat="49.34754" lon="1.02512">
        <ele>128</ele>
      </trkpt>
      <trkpt lat="49.34758" lon="1.02531">
        <ele>128.4</ele>
      </trkpt>
      <trkpt lat="49.34759" lon="1.02536">
        <ele>128.5</ele>
      </trkpt>
      <trkpt lat="49.34765" lon="1.02548">
        <ele>128.6</ele>
      </trkpt>
      <trkpt lat="49.34773" lon="1.02552">
        <ele>128.4</ele>
      </trkpt>
      <trkpt lat="49.34782" lon="1.02557">
        <ele>127.8</ele>
      </trkpt>
      <trkpt lat="49.34788" lon="1.0257">
        <ele>127.6</ele>
      </trkpt>
      <trkpt lat="49.34795" lon="1.02582">
        <ele>127.4</ele>
      </trkpt>
      <trkpt lat="49.34803" lon="1.02591">
        <ele>127.2</ele>
      </trkpt>
      <trkpt lat="49.3482" lon="1.02608">
        <ele>126.4</ele>
      </trkpt>
      <trkpt lat="49.34826" lon="1.02622">
        <ele>126</ele>
      </trkpt>
      <trkpt lat="49.34826" lon="1.02639">
        <ele>126</ele>
      </trkpt>
      <trkpt lat="49.34826" lon="1.02656">
        <ele>126</ele>
      </trkpt>
      <trkpt lat="49.34826" lon="1.02673">
        <ele>126</ele>
      </trkpt>
      <trkpt lat="49.34829" lon="1.02688">
        <ele>125.9</ele>
      </trkpt>
      <trkpt lat="49.34837" lon="1.027">
        <ele>125.7</ele>
      </trkpt>
      <trkpt lat="49.34846" lon="1.02709">
        <ele>125.4</ele>
      </trkpt>
      <trkpt lat="49.34854" lon="1.02717">
        <ele>125.1</ele>
      </trkpt>
      <trkpt lat="49.34864" lon="1.02721">
        <ele>125</ele>
      </trkpt>
      <trkpt lat="49.34869" lon="1.02723">
        <ele>125</ele>
      </trkpt>
      <trkpt lat="49.34892" lon="1.02746">
        <ele>124.7</ele>
      </trkpt>
      <trkpt lat="49.34922" lon="1.02778">
        <ele>124.5</ele>
      </trkpt>
      <trkpt lat="49.34932" lon="1.02793">
        <ele>124.6</ele>
      </trkpt>
      <trkpt lat="49.34939" lon="1.02803">
        <ele>124.7</ele>
      </trkpt>
      <trkpt lat="49.34947" lon="1.02813">
        <ele>125</ele>
      </trkpt>
      <trkpt lat="49.34963" lon="1.02829">
        <ele>125.3</ele>
      </trkpt>
      <trkpt lat="49.34969" lon="1.02839">
        <ele>125.6</ele>
      </trkpt>
      <trkpt lat="49.34969" lon="1.02839">
        <ele>125.7</ele>
      </trkpt>
      <trkpt lat="49.34975" lon="1.02855">
        <ele>126</ele>
      </trkpt>
      <trkpt lat="49.34975" lon="1.0287">
        <ele>126.3</ele>
      </trkpt>
      <trkpt lat="49.34976" lon="1.02877">
        <ele>126.5</ele>
      </trkpt>
      <trkpt lat="49.34981" lon="1.02888">
        <ele>126.7</ele>
      </trkpt>
      <trkpt lat="49.34991" lon="1.02903">
        <ele>126.9</ele>
      </trkpt>
      <trkpt lat="49.34991" lon="1.02903">
        <ele>127</ele>
      </trkpt>
      <trkpt lat="49.34989" lon="1.0292">
        <ele>127.2</ele>
      </trkpt>
      <trkpt lat="49.3499" lon="1.02923">
        <ele>127.2</ele>
      </trkpt>
      <trkpt lat="49.35006" lon="1.02937">
        <ele>127.1</ele>
      </trkpt>
      <trkpt lat="49.3501" lon="1.02939">
        <ele>127</ele>
      </trkpt>
      <trkpt lat="49.35026" lon="1.02939">
        <ele>126.7</ele>
      </trkpt>
      <trkpt lat="49.35044" lon="1.02953">
        <ele>126.4</ele>
      </trkpt>
      <trkpt lat="49.35046" lon="1.02971">
        <ele>126.2</ele>
      </trkpt>
      <trkpt lat="49.35046" lon="1.02971">
        <ele>126.2</ele>
      </trkpt>
      <trkpt lat="49.35033" lon="1.02994">
        <ele>126.3</ele>
      </trkpt>
      <trkpt lat="49.35015" lon="1.03036">
        <ele>125.9</ele>
      </trkpt>
      <trkpt lat="49.35006" lon="1.03058">
        <ele>125.7</ele>
      </trkpt>
      <trkpt lat="49.35003" lon="1.03069">
        <ele>125.7</ele>
      </trkpt>
      <trkpt lat="49.34992" lon="1.03112">
        <ele>126</ele>
      </trkpt>
      <trkpt lat="49.34974" lon="1.03157">
        <ele>127.1</ele>
      </trkpt>
      <trkpt lat="49.34968" lon="1.03176">
        <ele>127.5</ele>
      </trkpt>
      <trkpt lat="49.34953" lon="1.0322">
        <ele>128.7</ele>
      </trkpt>
      <trkpt lat="49.34946" lon="1.03252">
        <ele>128.9</ele>
      </trkpt>
      <trkpt lat="49.3494" lon="1.03278">
        <ele>129</ele>
      </trkpt>
      <trkpt lat="49.34933" lon="1.03316">
        <ele>128.9</ele>
      </trkpt>
      <trkpt lat="49.34928" lon="1.03349">
        <ele>128.5</ele>
      </trkpt>
      <trkpt lat="49.34924" lon="1.03382">
        <ele>128.1</ele>
      </trkpt>
      <trkpt lat="49.34922" lon="1.03408">
        <ele>127.8</ele>
      </trkpt>
      <trkpt lat="49.3492" lon="1.03441">
        <ele>127.4</ele>
      </trkpt>
      <trkpt lat="49.34919" lon="1.03474">
        <ele>127.3</ele>
      </trkpt>
      <trkpt lat="49.34917" lon="1.03507">
        <ele>127.1</ele>
      </trkpt>
      <trkpt lat="49.34916" lon="1.03535">
        <ele>126.8</ele>
      </trkpt>
      <trkpt lat="49.34913" lon="1.03612">
        <ele>125.9</ele>
      </trkpt>
      <trkpt lat="49.34909" lon="1.03703">
        <ele>126.9</ele>
      </trkpt>
      <trkpt lat="49.34908" lon="1.03713">
        <ele>127</ele>
      </trkpt>
      <trkpt lat="49.34905" lon="1.03772">
        <ele>127.2</ele>
      </trkpt>
      <trkpt lat="49.34902" lon="1.03825">
        <ele>127.2</ele>
      </trkpt>
      <trkpt lat="49.34898" lon="1.0387">
        <ele>127.2</ele>
      </trkpt>
      <trkpt lat="49.34893" lon="1.03916">
        <ele>127.2</ele>
      </trkpt>
      <trkpt lat="49.3489" lon="1.03937">
        <ele>127.2</ele>
      </trkpt>
      <trkpt lat="49.3489" lon="1.03937">
        <ele>127.2</ele>
      </trkpt>
      <trkpt lat="49.34881" lon="1.03987">
        <ele>127.2</ele>
      </trkpt>
      <trkpt lat="49.3488" lon="1.03996">
        <ele>127.2</ele>
      </trkpt>
      <trkpt lat="49.34875" lon="1.04019">
        <ele>127.1</ele>
      </trkpt>
      <trkpt lat="49.34871" lon="1.04052">
        <ele>126.3</ele>
      </trkpt>
      <trkpt lat="49.34869" lon="1.04068">
        <ele>126</ele>
      </trkpt>
      <trkpt lat="49.34868" lon="1.04077">
        <ele>125.8</ele>
      </trkpt>
      <trkpt lat="49.34865" lon="1.04096">
        <ele>125.4</ele>
      </trkpt>
      <trkpt lat="49.34854" lon="1.0415">
        <ele>124</ele>
      </trkpt>
      <trkpt lat="49.34849" lon="1.04175">
        <ele>123.6</ele>
      </trkpt>
      <trkpt lat="49.34835" lon="1.0425">
        <ele>122.5</ele>
      </trkpt>
      <trkpt lat="49.34832" lon="1.04267">
        <ele>122.2</ele>
      </trkpt>
      <trkpt lat="49.34828" lon="1.04302">
        <ele>121.8</ele>
      </trkpt>
      <trkpt lat="49.34821" lon="1.04357">
        <ele>121.3</ele>
      </trkpt>
      <trkpt lat="49.34817" lon="1.04375">
        <ele>121.1</ele>
      </trkpt>
      <trkpt lat="49.34812" lon="1.04402">
        <ele>120.9</ele>
      </trkpt>
      <trkpt lat="49.34811" lon="1.0441">
        <ele>120.9</ele>
      </trkpt>
      <trkpt lat="49.34814" lon="1.04424">
        <ele>120.9</ele>
      </trkpt>
      <trkpt lat="49.34828" lon="1.04436">
        <ele>120.9</ele>
      </trkpt>
      <trkpt lat="49.34866" lon="1.04464">
        <ele>120.7</ele>
      </trkpt>
      <trkpt lat="49.34881" lon="1.04476">
        <ele>120.4</ele>
      </trkpt>
      <trkpt lat="49.34913" lon="1.04499">
        <ele>119.1</ele>
      </trkpt>
      <trkpt lat="49.34918" lon="1.04502">
        <ele>118.8</ele>
      </trkpt>
      <trkpt lat="49.34936" lon="1.04517">
        <ele>116.8</ele>
      </trkpt>
      <trkpt lat="49.34945" lon="1.04525">
        <ele>115.8</ele>
      </trkpt>
      <trkpt lat="49.34969" lon="1.04542">
        <ele>114.3</ele>
      </trkpt>
      <trkpt lat="49.34984" lon="1.04553">
        <ele>113.6</ele>
      </trkpt>
      <trkpt lat="49.3501" lon="1.04571">
        <ele>112.5</ele>
      </trkpt>
      <trkpt lat="49.35024" lon="1.04581">
        <ele>112.1</ele>
      </trkpt>
      <trkpt lat="49.35043" lon="1.04594">
        <ele>111.1</ele>
      </trkpt>
      <trkpt lat="49.35043" lon="1.04612">
        <ele>111.3</ele>
      </trkpt>
      <trkpt lat="49.35043" lon="1.04612">
        <ele>111.3</ele>
      </trkpt>
      <trkpt lat="49.35032" lon="1.0465">
        <ele>111.8</ele>
      </trkpt>
      <trkpt lat="49.35012" lon="1.04718">
        <ele>111.8</ele>
      </trkpt>
      <trkpt lat="49.34998" lon="1.04761">
        <ele>111.4</ele>
      </trkpt>
      <trkpt lat="49.34985" lon="1.04803">
        <ele>111</ele>
      </trkpt>
      <trkpt lat="49.34969" lon="1.0485">
        <ele>110.6</ele>
      </trkpt>
      <trkpt lat="49.34952" lon="1.04906">
        <ele>109.9</ele>
      </trkpt>
      <trkpt lat="49.34945" lon="1.04928">
        <ele>109.8</ele>
      </trkpt>
      <trkpt lat="49.34934" lon="1.04965">
        <ele>109.6</ele>
      </trkpt>
      <trkpt lat="49.34925" lon="1.04996">
        <ele>109.3</ele>
      </trkpt>
      <trkpt lat="49.34915" lon="1.05026">
        <ele>108.7</ele>
      </trkpt>
      <trkpt lat="49.34906" lon="1.05055">
        <ele>108.2</ele>
      </trkpt>
      <trkpt lat="49.34895" lon="1.05092">
        <ele>107.7</ele>
      </trkpt>
      <trkpt lat="49.34889" lon="1.05108">
        <ele>107.9</ele>
      </trkpt>
      <trkpt lat="49.34883" lon="1.05125">
        <ele>108.1</ele>
      </trkpt>
      <trkpt lat="49.34868" lon="1.05179">
        <ele>107.8</ele>
      </trkpt>
      <trkpt lat="49.34862" lon="1.05198">
        <ele>108.1</ele>
      </trkpt>
      <trkpt lat="49.34858" lon="1.0521">
        <ele>108.6</ele>
      </trkpt>
      <trkpt lat="49.34849" lon="1.0522">
        <ele>108.7</ele>
      </trkpt>
      <trkpt lat="49.34836" lon="1.0521">
        <ele>108.9</ele>
      </trkpt>
      <trkpt lat="49.34833" lon="1.05208">
        <ele>108.9</ele>
      </trkpt>
      <trkpt lat="49.3483" lon="1.05209">
        <ele>109.1</ele>
      </trkpt>
      <trkpt lat="49.34826" lon="1.05219">
        <ele>109.1</ele>
      </trkpt>
      <trkpt lat="49.34822" lon="1.05232">
        <ele>109.2</ele>
      </trkpt>
      <trkpt lat="49.34813" lon="1.0526">
        <ele>109.7</ele>
      </trkpt>
      <trkpt lat="49.34803" lon="1.05286">
        <ele>109.6</ele>
      </trkpt>
      <trkpt lat="49.34798" lon="1.05294">
        <ele>109.3</ele>
      </trkpt>
      <trkpt lat="49.34795" lon="1.05303">
        <ele>109</ele>
      </trkpt>
      <trkpt lat="49.34796" lon="1.05307">
        <ele>108.9</ele>
      </trkpt>
      <trkpt lat="49.34806" lon="1.05319">
        <ele>108.8</ele>
      </trkpt>
      <trkpt lat="49.34806" lon="1.05319">
        <ele>108.8</ele>
      </trkpt>
      <trkpt lat="49.34835" lon="1.05342">
        <ele>108.2</ele>
      </trkpt>
      <trkpt lat="49.34839" lon="1.05345">
        <ele>108.1</ele>
      </trkpt>
      <trkpt lat="49.34845" lon="1.05353">
        <ele>107.9</ele>
      </trkpt>
      <trkpt lat="49.34845" lon="1.05365">
        <ele>107.6</ele>
      </trkpt>
      <trkpt lat="49.34844" lon="1.05372">
        <ele>107.4</ele>
      </trkpt>
      <trkpt lat="49.34842" lon="1.05387">
        <ele>107</ele>
      </trkpt>
      <trkpt lat="49.34841" lon="1.05395">
        <ele>106.8</ele>
      </trkpt>
      <trkpt lat="49.34838" lon="1.05419">
        <ele>106.3</ele>
      </trkpt>
      <trkpt lat="49.34834" lon="1.05457">
        <ele>105.8</ele>
      </trkpt>
      <trkpt lat="49.34829" lon="1.05488">
        <ele>105.6</ele>
      </trkpt>
      <trkpt lat="49.34823" lon="1.05558">
        <ele>105</ele>
      </trkpt>
      <trkpt lat="49.34816" lon="1.05614">
        <ele>104.4</ele>
      </trkpt>
      <trkpt lat="49.34813" lon="1.0564">
        <ele>104.2</ele>
      </trkpt>
      <trkpt lat="49.34809" lon="1.05685">
        <ele>103.8</ele>
      </trkpt>
      <trkpt lat="49.34808" lon="1.05694">
        <ele>103.7</ele>
      </trkpt>
      <trkpt lat="49.34803" lon="1.05744">
        <ele>102.8</ele>
      </trkpt>
      <trkpt lat="49.34801" lon="1.05752">
        <ele>102.7</ele>
      </trkpt>
      <trkpt lat="49.34793" lon="1.05819">
        <ele>101.4</ele>
      </trkpt>
      <trkpt lat="49.3479" lon="1.05845">
        <ele>100.9</ele>
      </trkpt>
      <trkpt lat="49.34784" lon="1.05897">
        <ele>100</ele>
      </trkpt>
      <trkpt lat="49.34782" lon="1.05916">
        <ele>99.8</ele>
      </trkpt>
      <trkpt lat="49.34773" lon="1.05983">
        <ele>98.8</ele>
      </trkpt>
      <trkpt lat="49.34771" lon="1.05992">
        <ele>98.6</ele>
      </trkpt>
      <trkpt lat="49.34764" lon="1.06048">
        <ele>97.4</ele>
      </trkpt>
      <trkpt lat="49.34759" lon="1.06073">
        <ele>96.9</ele>
      </trkpt>
      <trkpt lat="49.34757" lon="1.06089">
        <ele>96.5</ele>
      </trkpt>
      <trkpt lat="49.34753" lon="1.06122">
        <ele>95.6</ele>
      </trkpt>
      <trkpt lat="49.34753" lon="1.06139">
        <ele>95.1</ele>
      </trkpt>
      <trkpt lat="49.34755" lon="1.06155">
        <ele>94.4</ele>
      </trkpt>
      <trkpt lat="49.34762" lon="1.06166">
        <ele>94.1</ele>
      </trkpt>
      <trkpt lat="49.34773" lon="1.06173">
        <ele>93.7</ele>
      </trkpt>
      <trkpt lat="49.34785" lon="1.0618">
        <ele>93.5</ele>
      </trkpt>
      <trkpt lat="49.34821" lon="1.06206">
        <ele>92.3</ele>
      </trkpt>
      <trkpt lat="49.34846" lon="1.06224">
        <ele>90.9</ele>
      </trkpt>
      <trkpt lat="49.34852" lon="1.06229">
        <ele>90.5</ele>
      </trkpt>
      <trkpt lat="49.34883" lon="1.06251">
        <ele>87.5</ele>
      </trkpt>
      <trkpt lat="49.34896" lon="1.06259">
        <ele>86.4</ele>
      </trkpt>
      <trkpt lat="49.34902" lon="1.06262">
        <ele>86.1</ele>
      </trkpt>
      <trkpt lat="49.34908" lon="1.06263">
        <ele>85.9</ele>
      </trkpt>
      <trkpt lat="49.34916" lon="1.0626">
        <ele>85.6</ele>
      </trkpt>
      <trkpt lat="49.3494" lon="1.0625">
        <ele>84.7</ele>
      </trkpt>
      <trkpt lat="49.34947" lon="1.06245">
        <ele>84.4</ele>
      </trkpt>
      <trkpt lat="49.3496" lon="1.06232">
        <ele>83.8</ele>
      </trkpt>
      <trkpt lat="49.34972" lon="1.06216">
        <ele>83.4</ele>
      </trkpt>
      <trkpt lat="49.34978" lon="1.06208">
        <ele>83.1</ele>
      </trkpt>
      <trkpt lat="49.34983" lon="1.06199">
        <ele>82.9</ele>
      </trkpt>
      <trkpt lat="49.34992" lon="1.0618">
        <ele>82.8</ele>
      </trkpt>
      <trkpt lat="49.34998" lon="1.06173">
        <ele>82.8</ele>
      </trkpt>
      <trkpt lat="49.35005" lon="1.0617">
        <ele>82.8</ele>
      </trkpt>
      <trkpt lat="49.35019" lon="1.06165">
        <ele>83.2</ele>
      </trkpt>
      <trkpt lat="49.35024" lon="1.06161">
        <ele>83.5</ele>
      </trkpt>
      <trkpt lat="49.35028" lon="1.06157">
        <ele>83.7</ele>
      </trkpt>
      <trkpt lat="49.35045" lon="1.06141">
        <ele>85</ele>
      </trkpt>
      <trkpt lat="49.35058" lon="1.06134">
        <ele>86.6</ele>
      </trkpt>
      <trkpt lat="49.35068" lon="1.06135">
        <ele>87.9</ele>
      </trkpt>
      <trkpt lat="49.35078" lon="1.06135">
        <ele>88.5</ele>
      </trkpt>
      <trkpt lat="49.35088" lon="1.06128">
        <ele>89</ele>
      </trkpt>
      <trkpt lat="49.35092" lon="1.06123">
        <ele>89.2</ele>
      </trkpt>
      <trkpt lat="49.35098" lon="1.06111">
        <ele>89.5</ele>
      </trkpt>
      <trkpt lat="49.35102" lon="1.06099">
        <ele>89.9</ele>
      </trkpt>
      <trkpt lat="49.35105" lon="1.06089">
        <ele>90.1</ele>
      </trkpt>
      <trkpt lat="49.3511" lon="1.06074">
        <ele>90.4</ele>
      </trkpt>
      <trkpt lat="49.35115" lon="1.0606">
        <ele>90.7</ele>
      </trkpt>
      <trkpt lat="49.35118" lon="1.0605">
        <ele>90.9</ele>
      </trkpt>
      <trkpt lat="49.35119" lon="1.06046">
        <ele>90.9</ele>
      </trkpt>
      <trkpt lat="49.35122" lon="1.06031">
        <ele>91.1</ele>
      </trkpt>
      <trkpt lat="49.35126" lon="1.06013">
        <ele>91.4</ele>
      </trkpt>
      <trkpt lat="49.35127" lon="1.06009">
        <ele>91.4</ele>
      </trkpt>
      <trkpt lat="49.35134" lon="1.05988">
        <ele>91.7</ele>
      </trkpt>
      <trkpt lat="49.35135" lon="1.05984">
        <ele>91.8</ele>
      </trkpt>
      <trkpt lat="49.35138" lon="1.05974">
        <ele>92</ele>
      </trkpt>
      <trkpt lat="49.35141" lon="1.05965">
        <ele>92.1</ele>
      </trkpt>
      <trkpt lat="49.35144" lon="1.05956">
        <ele>92.3</ele>
      </trkpt>
      <trkpt lat="49.35146" lon="1.05948">
        <ele>92.4</ele>
      </trkpt>
      <trkpt lat="49.3515" lon="1.05935">
        <ele>92.6</ele>
      </trkpt>
      <trkpt lat="49.35151" lon="1.05931">
        <ele>92.7</ele>
      </trkpt>
      <trkpt lat="49.35158" lon="1.05915">
        <ele>93</ele>
      </trkpt>
      <trkpt lat="49.3516" lon="1.05912">
        <ele>93</ele>
      </trkpt>
      <trkpt lat="49.35163" lon="1.05906">
        <ele>93.1</ele>
      </trkpt>
      <trkpt lat="49.3517" lon="1.05888">
        <ele>93.3</ele>
      </trkpt>
      <trkpt lat="49.35171" lon="1.05885">
        <ele>93.3</ele>
      </trkpt>
      <trkpt lat="49.35178" lon="1.05866">
        <ele>93.5</ele>
      </trkpt>
      <trkpt lat="49.35181" lon="1.05858">
        <ele>93.6</ele>
      </trkpt>
      <trkpt lat="49.35185" lon="1.05849">
        <ele>93.8</ele>
      </trkpt>
      <trkpt lat="49.35191" lon="1.05836">
        <ele>94</ele>
      </trkpt>
      <trkpt lat="49.35194" lon="1.05825">
        <ele>94.2</ele>
      </trkpt>
      <trkpt lat="49.35197" lon="1.05814">
        <ele>94.3</ele>
      </trkpt>
      <trkpt lat="49.35205" lon="1.05788">
        <ele>94.8</ele>
      </trkpt>
      <trkpt lat="49.35206" lon="1.05783">
        <ele>94.9</ele>
      </trkpt>
      <trkpt lat="49.35207" lon="1.05778">
        <ele>95</ele>
      </trkpt>
      <trkpt lat="49.3521" lon="1.05765">
        <ele>95.2</ele>
      </trkpt>
      <trkpt lat="49.35215" lon="1.05745">
        <ele>95.6</ele>
      </trkpt>
      <trkpt lat="49.35222" lon="1.05735">
        <ele>95.8</ele>
      </trkpt>
      <trkpt lat="49.3523" lon="1.05729">
        <ele>95.9</ele>
      </trkpt>
      <trkpt lat="49.35234" lon="1.05728">
        <ele>95.9</ele>
      </trkpt>
      <trkpt lat="49.35248" lon="1.05732">
        <ele>96</ele>
      </trkpt>
      <trkpt lat="49.3526" lon="1.05739">
        <ele>96</ele>
      </trkpt>
      <trkpt lat="49.35263" lon="1.05741">
        <ele>96</ele>
      </trkpt>
      <trkpt lat="49.35279" lon="1.05751">
        <ele>96</ele>
      </trkpt>
      <trkpt lat="49.35303" lon="1.05765">
        <ele>96</ele>
      </trkpt>
      <trkpt lat="49.35321" lon="1.05777">
        <ele>96</ele>
      </trkpt>
      <trkpt lat="49.35338" lon="1.05789">
        <ele>96</ele>
      </trkpt>
      <trkpt lat="49.3534" lon="1.05793">
        <ele>96</ele>
      </trkpt>
      <trkpt lat="49.35342" lon="1.05798">
        <ele>96</ele>
      </trkpt>
      <trkpt lat="49.35342" lon="1.05809">
        <ele>96.2</ele>
      </trkpt>
      <trkpt lat="49.3534" lon="1.0582">
        <ele>96.4</ele>
      </trkpt>
      <trkpt lat="49.3533" lon="1.0586">
        <ele>96.7</ele>
      </trkpt>
      <trkpt lat="49.35328" lon="1.05866">
        <ele>96.8</ele>
      </trkpt>
      <trkpt lat="49.35319" lon="1.059">
        <ele>96.8</ele>
      </trkpt>
      <trkpt lat="49.3532" lon="1.05913">
        <ele>96.7</ele>
      </trkpt>
      <trkpt lat="49.35318" lon="1.05933">
        <ele>96.4</ele>
      </trkpt>
      <trkpt lat="49.35317" lon="1.05939">
        <ele>96.4</ele>
      </trkpt>
      <trkpt lat="49.35306" lon="1.05979">
        <ele>96</ele>
      </trkpt>
      <trkpt lat="49.35306" lon="1.05979">
        <ele>96</ele>
      </trkpt>
      <trkpt lat="49.35289" lon="1.06036">
        <ele>95.2</ele>
      </trkpt>
      <trkpt lat="49.35285" lon="1.06051">
        <ele>95.1</ele>
      </trkpt>
      <trkpt lat="49.35271" lon="1.06092">
        <ele>94.3</ele>
      </trkpt>
      <trkpt lat="49.35269" lon="1.06099">
        <ele>94.2</ele>
      </trkpt>
      <trkpt lat="49.3527" lon="1.06106">
        <ele>94</ele>
      </trkpt>
      <trkpt lat="49.35276" lon="1.06116">
        <ele>93.8</ele>
      </trkpt>
      <trkpt lat="49.35304" lon="1.06134">
        <ele>93.3</ele>
      </trkpt>
      <trkpt lat="49.35345" lon="1.06163">
        <ele>92.7</ele>
      </trkpt>
      <trkpt lat="49.35354" lon="1.06172">
        <ele>92.5</ele>
      </trkpt>
      <trkpt lat="49.35381" lon="1.06192">
        <ele>91.9</ele>
      </trkpt>
      <trkpt lat="49.35389" lon="1.06197">
        <ele>91.7</ele>
      </trkpt>
      <trkpt lat="49.35402" lon="1.06207">
        <ele>91.2</ele>
      </trkpt>
      <trkpt lat="49.35407" lon="1.0621">
        <ele>91.1</ele>
      </trkpt>
      <trkpt lat="49.35434" lon="1.0623">
        <ele>89.8</ele>
      </trkpt>
      <trkpt lat="49.35439" lon="1.06235">
        <ele>89.5</ele>
      </trkpt>
      <trkpt lat="49.35449" lon="1.06243">
        <ele>88.9</ele>
      </trkpt>
      <trkpt lat="49.35454" lon="1.06246">
        <ele>88.6</ele>
      </trkpt>
      <trkpt lat="49.35462" lon="1.06253">
        <ele>88.2</ele>
      </trkpt>
      <trkpt lat="49.35472" lon="1.06258">
        <ele>88</ele>
      </trkpt>
      <trkpt lat="49.35474" lon="1.06254">
        <ele>88</ele>
      </trkpt>
      <trkpt lat="49.35477" lon="1.06236">
        <ele>88.8</ele>
      </trkpt>
      <trkpt lat="49.35477" lon="1.06236">
        <ele>88.8</ele>
      </trkpt>
      <trkpt lat="49.35485" lon="1.06195">
        <ele>89.7</ele>
      </trkpt>
      <trkpt lat="49.35488" lon="1.06183">
        <ele>90</ele>
      </trkpt>
      <trkpt lat="49.35499" lon="1.06153">
        <ele>90.6</ele>
      </trkpt>
      <trkpt lat="49.35504" lon="1.06144">
        <ele>90.9</ele>
      </trkpt>
      <trkpt lat="49.3551" lon="1.06137">
        <ele>91.1</ele>
      </trkpt>
      <trkpt lat="49.35526" lon="1.06113">
        <ele>91.8</ele>
      </trkpt>
      <trkpt lat="49.35526" lon="1.06113">
        <ele>91.8</ele>
      </trkpt>
      <trkpt lat="49.35541" lon="1.0609">
        <ele>92.5</ele>
      </trkpt>
      <trkpt lat="49.35545" lon="1.06083">
        <ele>92.7</ele>
      </trkpt>
      <trkpt lat="49.35558" lon="1.06059">
        <ele>93.4</ele>
      </trkpt>
      <trkpt lat="49.35567" lon="1.06045">
        <ele>93.7</ele>
      </trkpt>
      <trkpt lat="49.35574" lon="1.06033">
        <ele>93.9</ele>
      </trkpt>
      <trkpt lat="49.35587" lon="1.06007">
        <ele>94.3</ele>
      </trkpt>
      <trkpt lat="49.35591" lon="1.05996">
        <ele>94.4</ele>
      </trkpt>
      <trkpt lat="49.35606" lon="1.05961">
        <ele>95</ele>
      </trkpt>
      <trkpt lat="49.35617" lon="1.05936">
        <ele>95.2</ele>
      </trkpt>
      <trkpt lat="49.35623" lon="1.05929">
        <ele>95.3</ele>
      </trkpt>
      <trkpt lat="49.35629" lon="1.05929">
        <ele>95.3</ele>
      </trkpt>
      <trkpt lat="49.35633" lon="1.05931">
        <ele>95.3</ele>
      </trkpt>
      <trkpt lat="49.35636" lon="1.05933">
        <ele>95.3</ele>
      </trkpt>
      <trkpt lat="49.35651" lon="1.05941">
        <ele>95.2</ele>
      </trkpt>
      <trkpt lat="49.35669" lon="1.05951">
        <ele>94.9</ele>
      </trkpt>
      <trkpt lat="49.35693" lon="1.05969">
        <ele>94.4</ele>
      </trkpt>
      <trkpt lat="49.35738" lon="1.06002">
        <ele>94.3</ele>
      </trkpt>
      <trkpt lat="49.35749" lon="1.06011">
        <ele>93.9</ele>
      </trkpt>
      <trkpt lat="49.35764" lon="1.06023">
        <ele>93.6</ele>
      </trkpt>
      <trkpt lat="49.35769" lon="1.06025">
        <ele>93.5</ele>
      </trkpt>
      <trkpt lat="49.3578" lon="1.06028">
        <ele>93.5</ele>
      </trkpt>
      <trkpt lat="49.35783" lon="1.06027">
        <ele>93.5</ele>
      </trkpt>
      <trkpt lat="49.3579" lon="1.06025">
        <ele>93.5</ele>
      </trkpt>
      <trkpt lat="49.35794" lon="1.06027">
        <ele>93.5</ele>
      </trkpt>
      <trkpt lat="49.358" lon="1.06034">
        <ele>93.3</ele>
      </trkpt>
      <trkpt lat="49.35807" lon="1.06044">
        <ele>93.1</ele>
      </trkpt>
      <trkpt lat="49.35817" lon="1.06063">
        <ele>92.7</ele>
      </trkpt>
      <trkpt lat="49.3582" lon="1.0607">
        <ele>92.6</ele>
      </trkpt>
      <trkpt lat="49.35836" lon="1.06098">
        <ele>92.4</ele>
      </trkpt>
      <trkpt lat="49.35839" lon="1.06104">
        <ele>92.3</ele>
      </trkpt>
      <trkpt lat="49.35855" lon="1.06134">
        <ele>91.7</ele>
      </trkpt>
      <trkpt lat="49.35858" lon="1.06139">
        <ele>91.6</ele>
      </trkpt>
      <trkpt lat="49.35865" lon="1.0615">
        <ele>91.4</ele>
      </trkpt>
      <trkpt lat="49.3587" lon="1.0616">
        <ele>91.2</ele>
      </trkpt>
      <trkpt lat="49.35875" lon="1.06171">
        <ele>91</ele>
      </trkpt>
      <trkpt lat="49.35878" lon="1.06178">
        <ele>90.8</ele>
      </trkpt>
      <trkpt lat="49.35885" lon="1.06194">
        <ele>90.6</ele>
      </trkpt>
      <trkpt lat="49.35893" lon="1.06208">
        <ele>90.6</ele>
      </trkpt>
      <trkpt lat="49.35904" lon="1.0623">
        <ele>90.4</ele>
      </trkpt>
      <trkpt lat="49.35908" lon="1.06238">
        <ele>90.2</ele>
      </trkpt>
      <trkpt lat="49.35927" lon="1.06278">
        <ele>89.6</ele>
      </trkpt>
      <trkpt lat="49.35947" lon="1.06318">
        <ele>89</ele>
      </trkpt>
      <trkpt lat="49.35953" lon="1.06331">
        <ele>88.6</ele>
      </trkpt>
      <trkpt lat="49.35964" lon="1.0635">
        <ele>88</ele>
      </trkpt>
      <trkpt lat="49.35968" lon="1.06355">
        <ele>87.8</ele>
      </trkpt>
      <trkpt lat="49.35976" lon="1.06367">
        <ele>87.4</ele>
      </trkpt>
      <trkpt lat="49.35979" lon="1.06373">
        <ele>87.3</ele>
      </trkpt>
      <trkpt lat="49.35989" lon="1.06393">
        <ele>87.2</ele>
      </trkpt>
      <trkpt lat="49.35996" lon="1.06406">
        <ele>87.4</ele>
      </trkpt>
      <trkpt lat="49.36011" lon="1.06435">
        <ele>87.3</ele>
      </trkpt>
      <trkpt lat="49.36018" lon="1.06449">
        <ele>87</ele>
      </trkpt>
      <trkpt lat="49.36038" lon="1.06492">
        <ele>86.7</ele>
      </trkpt>
      <trkpt lat="49.36052" lon="1.06518">
        <ele>86.7</ele>
      </trkpt>
      <trkpt lat="49.36059" lon="1.06531">
        <ele>86.7</ele>
      </trkpt>
      <trkpt lat="49.36066" lon="1.06545">
        <ele>86.6</ele>
      </trkpt>
      <trkpt lat="49.3608" lon="1.06572">
        <ele>86.1</ele>
      </trkpt>
      <trkpt lat="49.36099" lon="1.06606">
        <ele>85.6</ele>
      </trkpt>
      <trkpt lat="49.36106" lon="1.06618">
        <ele>85.3</ele>
      </trkpt>
      <trkpt lat="49.36108" lon="1.06622">
        <ele>85.1</ele>
      </trkpt>
      <trkpt lat="49.36119" lon="1.0663">
        <ele>84.8</ele>
      </trkpt>
      <trkpt lat="49.36123" lon="1.06632">
        <ele>84.7</ele>
      </trkpt>
      <trkpt lat="49.36145" lon="1.06635">
        <ele>84.6</ele>
      </trkpt>
      <trkpt lat="49.36151" lon="1.06636">
        <ele>84.5</ele>
      </trkpt>
      <trkpt lat="49.36193" lon="1.06638">
        <ele>83.7</ele>
      </trkpt>
      <trkpt lat="49.36204" lon="1.06641">
        <ele>83.4</ele>
      </trkpt>
      <trkpt lat="49.36225" lon="1.06642">
        <ele>83</ele>
      </trkpt>
      <trkpt lat="49.36243" lon="1.06643">
        <ele>82.8</ele>
      </trkpt>
      <trkpt lat="49.36255" lon="1.06644">
        <ele>82.7</ele>
      </trkpt>
      <trkpt lat="49.36292" lon="1.06645">
        <ele>82.5</ele>
      </trkpt>
      <trkpt lat="49.36322" lon="1.06646">
        <ele>82.3</ele>
      </trkpt>
      <trkpt lat="49.36343" lon="1.06646">
        <ele>82.1</ele>
      </trkpt>
      <trkpt lat="49.36354" lon="1.06646">
        <ele>81.9</ele>
      </trkpt>
      <trkpt lat="49.36359" lon="1.06647">
        <ele>81.8</ele>
      </trkpt>
      <trkpt lat="49.3637" lon="1.06648">
        <ele>81.7</ele>
      </trkpt>
      <trkpt lat="49.36375" lon="1.06648">
        <ele>81.6</ele>
      </trkpt>
      <trkpt lat="49.36392" lon="1.06648">
        <ele>81.4</ele>
      </trkpt>
      <trkpt lat="49.36424" lon="1.06648">
        <ele>80.9</ele>
      </trkpt>
      <trkpt lat="49.36439" lon="1.06649">
        <ele>80.7</ele>
      </trkpt>
      <trkpt lat="49.36443" lon="1.06654">
        <ele>80.6</ele>
      </trkpt>
      <trkpt lat="49.36444" lon="1.06659">
        <ele>80.7</ele>
      </trkpt>
      <trkpt lat="49.36441" lon="1.06668">
        <ele>80.8</ele>
      </trkpt>
      <trkpt lat="49.36435" lon="1.06686">
        <ele>80.9</ele>
      </trkpt>
      <trkpt lat="49.36429" lon="1.06707">
        <ele>81.1</ele>
      </trkpt>
      <trkpt lat="49.36408" lon="1.06772">
        <ele>80.7</ele>
      </trkpt>
      <trkpt lat="49.36399" lon="1.068">
        <ele>80.1</ele>
      </trkpt>
      <trkpt lat="49.36395" lon="1.06814">
        <ele>79.9</ele>
      </trkpt>
      <trkpt lat="49.3639" lon="1.06828">
        <ele>79.7</ele>
      </trkpt>
      <trkpt lat="49.36373" lon="1.06884">
        <ele>79.1</ele>
      </trkpt>
      <trkpt lat="49.36371" lon="1.06892">
        <ele>79.1</ele>
      </trkpt>
      <trkpt lat="49.36358" lon="1.06934">
        <ele>78.6</ele>
      </trkpt>
      <trkpt lat="49.36355" lon="1.06943">
        <ele>78.6</ele>
      </trkpt>
      <trkpt lat="49.3635" lon="1.0696">
        <ele>78.4</ele>
      </trkpt>
      <trkpt lat="49.36347" lon="1.06969">
        <ele>78.2</ele>
      </trkpt>
      <trkpt lat="49.36334" lon="1.07011">
        <ele>77.8</ele>
      </trkpt>
      <trkpt lat="49.36331" lon="1.07018">
        <ele>77.8</ele>
      </trkpt>
      <trkpt lat="49.36316" lon="1.07066">
        <ele>78.1</ele>
      </trkpt>
      <trkpt lat="49.363" lon="1.07126">
        <ele>78.4</ele>
      </trkpt>
      <trkpt lat="49.36285" lon="1.07175">
        <ele>78.6</ele>
      </trkpt>
      <trkpt lat="49.36271" lon="1.07219">
        <ele>78.4</ele>
      </trkpt>
      <trkpt lat="49.36269" lon="1.07225">
        <ele>78.4</ele>
      </trkpt>
      <trkpt lat="49.3626" lon="1.07256">
        <ele>77.6</ele>
      </trkpt>
      <trkpt lat="49.36246" lon="1.07298">
        <ele>76.1</ele>
      </trkpt>
      <trkpt lat="49.36227" lon="1.07356">
        <ele>75.2</ele>
      </trkpt>
      <trkpt lat="49.36216" lon="1.07398">
        <ele>75.1</ele>
      </trkpt>
      <trkpt lat="49.36206" lon="1.0743">
        <ele>74.5</ele>
      </trkpt>
      <trkpt lat="49.36199" lon="1.07457">
        <ele>74.1</ele>
      </trkpt>
      <trkpt lat="49.36193" lon="1.07474">
        <ele>73.9</ele>
      </trkpt>
      <trkpt lat="49.3619" lon="1.07482">
        <ele>73.7</ele>
      </trkpt>
      <trkpt lat="49.36182" lon="1.07506">
        <ele>73.3</ele>
      </trkpt>
      <trkpt lat="49.3618" lon="1.07519">
        <ele>73.1</ele>
      </trkpt>
      <trkpt lat="49.36182" lon="1.07528">
        <ele>73.1</ele>
      </trkpt>
      <trkpt lat="49.36188" lon="1.07536">
        <ele>72.7</ele>
      </trkpt>
      <trkpt lat="49.36191" lon="1.07539">
        <ele>72.5</ele>
      </trkpt>
      <trkpt lat="49.36194" lon="1.07541">
        <ele>72.5</ele>
      </trkpt>
      <trkpt lat="49.36213" lon="1.07558">
        <ele>71.8</ele>
      </trkpt>
      <trkpt lat="49.36244" lon="1.07582">
        <ele>71.1</ele>
      </trkpt>
      <trkpt lat="49.3625" lon="1.07587">
        <ele>71</ele>
      </trkpt>
      <trkpt lat="49.36261" lon="1.07596">
        <ele>70.8</ele>
      </trkpt>
      <trkpt lat="49.36266" lon="1.07601">
        <ele>70.7</ele>
      </trkpt>
      <trkpt lat="49.36283" lon="1.07615">
        <ele>70</ele>
      </trkpt>
      <trkpt lat="49.36313" lon="1.07638">
        <ele>68.5</ele>
      </trkpt>
      <trkpt lat="49.36329" lon="1.0765">
        <ele>67.9</ele>
      </trkpt>
      <trkpt lat="49.36347" lon="1.07661">
        <ele>67</ele>
      </trkpt>
      <trkpt lat="49.36352" lon="1.07665">
        <ele>66.7</ele>
      </trkpt>
      <trkpt lat="49.36356" lon="1.07668">
        <ele>66.5</ele>
      </trkpt>
      <trkpt lat="49.3636" lon="1.07671">
        <ele>66.2</ele>
      </trkpt>
      <trkpt lat="49.36381" lon="1.07688">
        <ele>65.3</ele>
      </trkpt>
      <trkpt lat="49.36387" lon="1.07693">
        <ele>65.1</ele>
      </trkpt>
      <trkpt lat="49.36395" lon="1.07699">
        <ele>64.8</ele>
      </trkpt>
      <trkpt lat="49.3641" lon="1.07712">
        <ele>64.5</ele>
      </trkpt>
      <trkpt lat="49.3644" lon="1.07737">
        <ele>62.8</ele>
      </trkpt>
      <trkpt lat="49.36453" lon="1.07745">
        <ele>61.4</ele>
      </trkpt>
      <trkpt lat="49.3646" lon="1.07749">
        <ele>60.7</ele>
      </trkpt>
      <trkpt lat="49.36471" lon="1.07757">
        <ele>59.8</ele>
      </trkpt>
      <trkpt lat="49.36476" lon="1.07761">
        <ele>59.3</ele>
      </trkpt>
      <trkpt lat="49.36481" lon="1.07765">
        <ele>59.1</ele>
      </trkpt>
      <trkpt lat="49.36493" lon="1.07772">
        <ele>58.3</ele>
      </trkpt>
      <trkpt lat="49.3651" lon="1.07784">
        <ele>57.4</ele>
      </trkpt>
      <trkpt lat="49.36521" lon="1.07792">
        <ele>57.2</ele>
      </trkpt>
      <trkpt lat="49.36551" lon="1.07812">
        <ele>57.3</ele>
      </trkpt>
      <trkpt lat="49.36556" lon="1.07816">
        <ele>57.4</ele>
      </trkpt>
      <trkpt lat="49.36571" lon="1.07827">
        <ele>57.3</ele>
      </trkpt>
      <trkpt lat="49.36579" lon="1.07832">
        <ele>57.3</ele>
      </trkpt>
      <trkpt lat="49.36605" lon="1.07842">
        <ele>57.3</ele>
      </trkpt>
      <trkpt lat="49.36611" lon="1.07839">
        <ele>57.3</ele>
      </trkpt>
      <trkpt lat="49.36623" lon="1.07834">
        <ele>57.5</ele>
      </trkpt>
      <trkpt lat="49.36629" lon="1.07831">
        <ele>57.6</ele>
      </trkpt>
      <trkpt lat="49.36645" lon="1.07825">
        <ele>58.2</ele>
      </trkpt>
      <trkpt lat="49.3665" lon="1.07823">
        <ele>58.4</ele>
      </trkpt>
      <trkpt lat="49.36669" lon="1.07813">
        <ele>59.5</ele>
      </trkpt>
      <trkpt lat="49.36686" lon="1.07803">
        <ele>60.5</ele>
      </trkpt>
      <trkpt lat="49.36694" lon="1.07798">
        <ele>60.9</ele>
      </trkpt>
      <trkpt lat="49.36711" lon="1.07784">
        <ele>61.3</ele>
      </trkpt>
      <trkpt lat="49.36711" lon="1.07784">
        <ele>61.3</ele>
      </trkpt>
      <trkpt lat="49.36729" lon="1.0777">
        <ele>61.4</ele>
      </trkpt>
      <trkpt lat="49.36746" lon="1.07755">
        <ele>61.4</ele>
      </trkpt>
      <trkpt lat="49.36748" lon="1.07751">
        <ele>61.4</ele>
      </trkpt>
      <trkpt lat="49.36758" lon="1.07728">
        <ele>61.4</ele>
      </trkpt>
      <trkpt lat="49.36761" lon="1.07718">
        <ele>61.5</ele>
      </trkpt>
      <trkpt lat="49.36763" lon="1.07706">
        <ele>61.6</ele>
      </trkpt>
      <trkpt lat="49.36766" lon="1.07685">
        <ele>62</ele>
      </trkpt>
      <trkpt lat="49.36773" lon="1.07652">
        <ele>62.6</ele>
      </trkpt>
      <trkpt lat="49.36775" lon="1.07637">
        <ele>62.8</ele>
      </trkpt>
      <trkpt lat="49.3678" lon="1.07609">
        <ele>63.4</ele>
      </trkpt>
      <trkpt lat="49.36779" lon="1.07599">
        <ele>63.4</ele>
      </trkpt>
      <trkpt lat="49.36778" lon="1.07575">
        <ele>63.3</ele>
      </trkpt>
      <trkpt lat="49.36777" lon="1.07551">
        <ele>63.3</ele>
      </trkpt>
      <trkpt lat="49.36777" lon="1.07546">
        <ele>63.4</ele>
      </trkpt>
      <trkpt lat="49.36777" lon="1.07528">
        <ele>63.5</ele>
      </trkpt>
      <trkpt lat="49.36777" lon="1.07499">
        <ele>63.6</ele>
      </trkpt>
      <trkpt lat="49.36775" lon="1.07467">
        <ele>63.9</ele>
      </trkpt>
      <trkpt lat="49.36774" lon="1.07431">
        <ele>64.3</ele>
      </trkpt>
      <trkpt lat="49.36775" lon="1.07412">
        <ele>64.6</ele>
      </trkpt>
      <trkpt lat="49.36775" lon="1.07401">
        <ele>64.7</ele>
      </trkpt>
      <trkpt lat="49.36774" lon="1.07377">
        <ele>64.9</ele>
      </trkpt>
      <trkpt lat="49.36775" lon="1.07344">
        <ele>65.2</ele>
      </trkpt>
      <trkpt lat="49.36779" lon="1.07332">
        <ele>65.4</ele>
      </trkpt>
      <trkpt lat="49.36785" lon="1.07324">
        <ele>67</ele>
      </trkpt>
      <trkpt lat="49.36797" lon="1.07314">
        <ele>68.2</ele>
      </trkpt>
      <trkpt lat="49.36799" lon="1.07313">
        <ele>68.4</ele>
      </trkpt>
      <trkpt lat="49.36805" lon="1.07307">
        <ele>69</ele>
      </trkpt>
      <trkpt lat="49.36808" lon="1.07305">
        <ele>69.2</ele>
      </trkpt>
      <trkpt lat="49.3681" lon="1.07304">
        <ele>69.3</ele>
      </trkpt>
      <trkpt lat="49.36812" lon="1.07304">
        <ele>69.5</ele>
      </trkpt>
      <trkpt lat="49.36818" lon="1.07301">
        <ele>69.9</ele>
      </trkpt>
      <trkpt lat="49.36824" lon="1.07296">
        <ele>70.4</ele>
      </trkpt>
      <trkpt lat="49.36824" lon="1.07296">
        <ele>70.4</ele>
      </trkpt>
      <trkpt lat="49.36837" lon="1.0729">
        <ele>71.2</ele>
      </trkpt>
      <trkpt lat="49.36837" lon="1.0729">
        <ele>71.2</ele>
      </trkpt>
      <trkpt lat="49.36854" lon="1.0728">
        <ele>72.2</ele>
      </trkpt>
      <trkpt lat="49.36867" lon="1.07274">
        <ele>72.9</ele>
      </trkpt>
      <trkpt lat="49.36874" lon="1.07271">
        <ele>73.2</ele>
      </trkpt>
      <trkpt lat="49.3689" lon="1.07264">
        <ele>73.8</ele>
      </trkpt>
      <trkpt lat="49.36897" lon="1.07262">
        <ele>74</ele>
      </trkpt>
      <trkpt lat="49.36899" lon="1.0726">
        <ele>74.1</ele>
      </trkpt>
      <trkpt lat="49.36916" lon="1.07253">
        <ele>74.5</ele>
      </trkpt>
      <trkpt lat="49.36916" lon="1.07253">
        <ele>74.5</ele>
      </trkpt>
      <trkpt lat="49.36941" lon="1.0724">
        <ele>75.2</ele>
      </trkpt>
      <trkpt lat="49.36954" lon="1.07235">
        <ele>75.5</ele>
      </trkpt>
      <trkpt lat="49.3696" lon="1.07231">
        <ele>75.7</ele>
      </trkpt>
      <trkpt lat="49.3699" lon="1.07219">
        <ele>75.8</ele>
      </trkpt>
      <trkpt lat="49.37006" lon="1.0722">
        <ele>74.7</ele>
      </trkpt>
      <trkpt lat="49.37008" lon="1.07223">
        <ele>74.4</ele>
      </trkpt>
      <trkpt lat="49.37018" lon="1.07247">
        <ele>73.6</ele>
      </trkpt>
      <trkpt lat="49.37033" lon="1.07292">
        <ele>73.5</ele>
      </trkpt>
      <trkpt lat="49.37049" lon="1.07341">
        <ele>72.9</ele>
      </trkpt>
      <trkpt lat="49.37049" lon="1.07341">
        <ele>72.9</ele>
      </trkpt>
      <trkpt lat="49.37065" lon="1.07395">
        <ele>71.9</ele>
      </trkpt>
      <trkpt lat="49.37081" lon="1.07443">
        <ele>71.3</ele>
      </trkpt>
      <trkpt lat="49.37101" lon="1.07509">
        <ele>70.7</ele>
      </trkpt>
      <trkpt lat="49.37104" lon="1.07515">
        <ele>70.6</ele>
      </trkpt>
      <trkpt lat="49.37106" lon="1.07521">
        <ele>70.5</ele>
      </trkpt>
      <trkpt lat="49.37116" lon="1.07538">
        <ele>70.1</ele>
      </trkpt>
      <trkpt lat="49.3712" lon="1.07543">
        <ele>70</ele>
      </trkpt>
      <trkpt lat="49.37129" lon="1.0755">
        <ele>69.9</ele>
      </trkpt>
      <trkpt lat="49.37146" lon="1.07562">
        <ele>69.7</ele>
      </trkpt>
      <trkpt lat="49.37146" lon="1.07562">
        <ele>69.7</ele>
      </trkpt>
      <trkpt lat="49.37164" lon="1.07577">
        <ele>69.3</ele>
      </trkpt>
      <trkpt lat="49.37168" lon="1.0758">
        <ele>69.3</ele>
      </trkpt>
      <trkpt lat="49.37192" lon="1.07598">
        <ele>69</ele>
      </trkpt>
      <trkpt lat="49.37195" lon="1.076">
        <ele>68.9</ele>
      </trkpt>
      <trkpt lat="49.37197" lon="1.07602">
        <ele>68.9</ele>
      </trkpt>
      <trkpt lat="49.37219" lon="1.07618">
        <ele>68.6</ele>
      </trkpt>
      <trkpt lat="49.37239" lon="1.07632">
        <ele>68.1</ele>
      </trkpt>
      <trkpt lat="49.37244" lon="1.07636">
        <ele>68</ele>
      </trkpt>
      <trkpt lat="49.37259" lon="1.07646">
        <ele>67.6</ele>
      </trkpt>
      <trkpt lat="49.3727" lon="1.07652">
        <ele>67.4</ele>
      </trkpt>
      <trkpt lat="49.37275" lon="1.07655">
        <ele>67.2</ele>
      </trkpt>
      <trkpt lat="49.37294" lon="1.0767">
        <ele>66.6</ele>
      </trkpt>
      <trkpt lat="49.373" lon="1.07674">
        <ele>66.5</ele>
      </trkpt>
      <trkpt lat="49.37312" lon="1.07681">
        <ele>66.1</ele>
      </trkpt>
      <trkpt lat="49.37324" lon="1.07687">
        <ele>65.8</ele>
      </trkpt>
      <trkpt lat="49.37331" lon="1.07691">
        <ele>65.7</ele>
      </trkpt>
      <trkpt lat="49.37348" lon="1.07704">
        <ele>65.4</ele>
      </trkpt>
      <trkpt lat="49.37353" lon="1.07708">
        <ele>65.3</ele>
      </trkpt>
      <trkpt lat="49.37359" lon="1.07713">
        <ele>65.3</ele>
      </trkpt>
      <trkpt lat="49.37379" lon="1.07731">
        <ele>65.1</ele>
      </trkpt>
      <trkpt lat="49.37403" lon="1.07746">
        <ele>64.7</ele>
      </trkpt>
      <trkpt lat="49.37408" lon="1.07749">
        <ele>64.6</ele>
      </trkpt>
      <trkpt lat="49.37431" lon="1.07763">
        <ele>64.3</ele>
      </trkpt>
      <trkpt lat="49.37437" lon="1.07766">
        <ele>64.3</ele>
      </trkpt>
      <trkpt lat="49.37464" lon="1.07785">
        <ele>64</ele>
      </trkpt>
      <trkpt lat="49.37475" lon="1.07792">
        <ele>63.9</ele>
      </trkpt>
      <trkpt lat="49.37509" lon="1.07815">
        <ele>63.5</ele>
      </trkpt>
      <trkpt lat="49.37519" lon="1.07823">
        <ele>63.4</ele>
      </trkpt>
      <trkpt lat="49.37529" lon="1.07839">
        <ele>63.2</ele>
      </trkpt>
      <trkpt lat="49.37528" lon="1.07861">
        <ele>63.8</ele>
      </trkpt>
      <trkpt lat="49.37525" lon="1.07875">
        <ele>64</ele>
      </trkpt>
      <trkpt lat="49.37519" lon="1.07896">
        <ele>64.1</ele>
      </trkpt>
      <trkpt lat="49.37508" lon="1.07936">
        <ele>64.2</ele>
      </trkpt>
      <trkpt lat="49.37489" lon="1.07998">
        <ele>64.5</ele>
      </trkpt>
      <trkpt lat="49.37485" lon="1.08011">
        <ele>64.7</ele>
      </trkpt>
      <trkpt lat="49.3748" lon="1.08024">
        <ele>64.8</ele>
      </trkpt>
      <trkpt lat="49.37478" lon="1.08031">
        <ele>65</ele>
      </trkpt>
      <trkpt lat="49.37465" lon="1.08067">
        <ele>65.1</ele>
      </trkpt>
      <trkpt lat="49.37462" lon="1.08091">
        <ele>64.8</ele>
      </trkpt>
      <trkpt lat="49.37471" lon="1.08105">
        <ele>64</ele>
      </trkpt>
      <trkpt lat="49.37476" lon="1.08109">
        <ele>63.9</ele>
      </trkpt>
      <trkpt lat="49.375" lon="1.08131">
        <ele>63.3</ele>
      </trkpt>
      <trkpt lat="49.37511" lon="1.0814">
        <ele>63.1</ele>
      </trkpt>
      <trkpt lat="49.37537" lon="1.08162">
        <ele>62.5</ele>
      </trkpt>
      <trkpt lat="49.37547" lon="1.0817">
        <ele>62.1</ele>
      </trkpt>
      <trkpt lat="49.37577" lon="1.08194">
        <ele>61.2</ele>
      </trkpt>
      <trkpt lat="49.37582" lon="1.08197">
        <ele>61.1</ele>
      </trkpt>
      <trkpt lat="49.37588" lon="1.08203">
        <ele>61</ele>
      </trkpt>
      <trkpt lat="49.37593" lon="1.08202">
        <ele>60.9</ele>
      </trkpt>
      <trkpt lat="49.37595" lon="1.08198">
        <ele>60.9</ele>
      </trkpt>
      <trkpt lat="49.37606" lon="1.08173">
        <ele>60.8</ele>
      </trkpt>
      <trkpt lat="49.37613" lon="1.08156">
        <ele>60.9</ele>
      </trkpt>
      <trkpt lat="49.37621" lon="1.08142">
        <ele>60.9</ele>
      </trkpt>
      <trkpt lat="49.37633" lon="1.08107">
        <ele>60.9</ele>
      </trkpt>
      <trkpt lat="49.37639" lon="1.08089">
        <ele>60.9</ele>
      </trkpt>
      <trkpt lat="49.37645" lon="1.08069">
        <ele>60.9</ele>
      </trkpt>
      <trkpt lat="49.37647" lon="1.08063">
        <ele>60.9</ele>
      </trkpt>
      <trkpt lat="49.37651" lon="1.0805">
        <ele>60.9</ele>
      </trkpt>
      <trkpt lat="49.37653" lon="1.08043">
        <ele>60.9</ele>
      </trkpt>
      <trkpt lat="49.37657" lon="1.08029">
        <ele>60.8</ele>
      </trkpt>
      <trkpt lat="49.37669" lon="1.07997">
        <ele>60.4</ele>
      </trkpt>
      <trkpt lat="49.3768" lon="1.07967">
        <ele>60</ele>
      </trkpt>
      <trkpt lat="49.37682" lon="1.07957">
        <ele>59.9</ele>
      </trkpt>
      <trkpt lat="49.37678" lon="1.07947">
        <ele>59.9</ele>
      </trkpt>
      <trkpt lat="49.37665" lon="1.07926">
        <ele>59.9</ele>
      </trkpt>
      <trkpt lat="49.37661" lon="1.07921">
        <ele>59.9</ele>
      </trkpt>
      <trkpt lat="49.37658" lon="1.07915">
        <ele>59.9</ele>
      </trkpt>
      <trkpt lat="49.37652" lon="1.07898">
        <ele>59.8</ele>
      </trkpt>
      <trkpt lat="49.37653" lon="1.07888">
        <ele>59.7</ele>
      </trkpt>
      <trkpt lat="49.37654" lon="1.07883">
        <ele>59.6</ele>
      </trkpt>
      <trkpt lat="49.37656" lon="1.07879">
        <ele>59.5</ele>
      </trkpt>
      <trkpt lat="49.37666" lon="1.07866">
        <ele>58.8</ele>
      </trkpt>
      <trkpt lat="49.3768" lon="1.07845">
        <ele>57.6</ele>
      </trkpt>
      <trkpt lat="49.37686" lon="1.07838">
        <ele>57.3</ele>
      </trkpt>
      <trkpt lat="49.37698" lon="1.0783">
        <ele>57</ele>
      </trkpt>
      <trkpt lat="49.37711" lon="1.0783">
        <ele>57</ele>
      </trkpt>
      <trkpt lat="49.37716" lon="1.07829">
        <ele>57</ele>
      </trkpt>
      <trkpt lat="49.37722" lon="1.0783">
        <ele>57</ele>
      </trkpt>
      <trkpt lat="49.37728" lon="1.07831">
        <ele>57</ele>
      </trkpt>
      <trkpt lat="49.37734" lon="1.07832">
        <ele>57</ele>
      </trkpt>
      <trkpt lat="49.37752" lon="1.07833">
        <ele>57</ele>
      </trkpt>
      <trkpt lat="49.37759" lon="1.07833">
        <ele>57</ele>
      </trkpt>
      <trkpt lat="49.37771" lon="1.07833">
        <ele>57.2</ele>
      </trkpt>
      <trkpt lat="49.37782" lon="1.07834">
        <ele>57.5</ele>
      </trkpt>
      <trkpt lat="49.37792" lon="1.07834">
        <ele>57.8</ele>
      </trkpt>
      <trkpt lat="49.378" lon="1.07829">
        <ele>58.2</ele>
      </trkpt>
      <trkpt lat="49.37803" lon="1.07816">
        <ele>59.2</ele>
      </trkpt>
      <trkpt lat="49.37802" lon="1.07804">
        <ele>59.4</ele>
      </trkpt>
      <trkpt lat="49.37799" lon="1.07784">
        <ele>59.6</ele>
      </trkpt>
      <trkpt lat="49.37796" lon="1.07764">
        <ele>59.8</ele>
      </trkpt>
      <trkpt lat="49.37794" lon="1.0775">
        <ele>59.9</ele>
      </trkpt>
      <trkpt lat="49.37792" lon="1.07736">
        <ele>60.1</ele>
      </trkpt>
      <trkpt lat="49.37787" lon="1.07709">
        <ele>60.3</ele>
      </trkpt>
      <trkpt lat="49.37784" lon="1.07691">
        <ele>60.4</ele>
      </trkpt>
      <trkpt lat="49.37783" lon="1.07682">
        <ele>60.5</ele>
      </trkpt>
      <trkpt lat="49.37779" lon="1.07666">
        <ele>60.5</ele>
      </trkpt>
      <trkpt lat="49.37779" lon="1.07663">
        <ele>60.5</ele>
      </trkpt>
      <trkpt lat="49.37775" lon="1.07646">
        <ele>60.5</ele>
      </trkpt>
      <trkpt lat="49.37773" lon="1.07639">
        <ele>60.5</ele>
      </trkpt>
      <trkpt lat="49.3777" lon="1.07622">
        <ele>60.6</ele>
      </trkpt>
      <trkpt lat="49.37766" lon="1.07604">
        <ele>60.7</ele>
      </trkpt>
      <trkpt lat="49.37763" lon="1.07585">
        <ele>60.8</ele>
      </trkpt>
      <trkpt lat="49.3776" lon="1.0757">
        <ele>61</ele>
      </trkpt>
      <trkpt lat="49.37753" lon="1.07542">
        <ele>61.9</ele>
      </trkpt>
      <trkpt lat="49.3775" lon="1.07526">
        <ele>62.1</ele>
      </trkpt>
      <trkpt lat="49.3775" lon="1.07516">
        <ele>62.1</ele>
      </trkpt>
      <trkpt lat="49.3775" lon="1.07511">
        <ele>62.2</ele>
      </trkpt>
      <trkpt lat="49.37755" lon="1.07496">
        <ele>61.9</ele>
      </trkpt>
      <trkpt lat="49.3776" lon="1.07483">
        <ele>61.7</ele>
      </trkpt>
      <trkpt lat="49.37772" lon="1.07464">
        <ele>61.3</ele>
      </trkpt>
      <trkpt lat="49.3779" lon="1.07436">
        <ele>61</ele>
      </trkpt>
      <trkpt lat="49.37811" lon="1.07412">
        <ele>61.2</ele>
      </trkpt>
      <trkpt lat="49.37822" lon="1.07407">
        <ele>61.3</ele>
      </trkpt>
      <trkpt lat="49.37825" lon="1.07409">
        <ele>61.4</ele>
      </trkpt>
      <trkpt lat="49.37828" lon="1.07412">
        <ele>61.4</ele>
      </trkpt>
      <trkpt lat="49.37835" lon="1.07419">
        <ele>61.4</ele>
      </trkpt>
      <trkpt lat="49.37839" lon="1.0742">
        <ele>61.5</ele>
      </trkpt>
      <trkpt lat="49.37843" lon="1.07421">
        <ele>61.5</ele>
      </trkpt>
      <trkpt lat="49.37851" lon="1.07418">
        <ele>61.6</ele>
      </trkpt>
      <trkpt lat="49.37881" lon="1.07407">
        <ele>61.8</ele>
      </trkpt>
      <trkpt lat="49.37896" lon="1.07393">
        <ele>61.9</ele>
      </trkpt>
      <trkpt lat="49.37908" lon="1.07392">
        <ele>62.2</ele>
      </trkpt>
      <trkpt lat="49.37923" lon="1.0738">
        <ele>62.4</ele>
      </trkpt>
      <trkpt lat="49.3793" lon="1.07364">
        <ele>62.4</ele>
      </trkpt>
      <trkpt lat="49.37933" lon="1.07364">
        <ele>62.5</ele>
      </trkpt>
      <trkpt lat="49.37948" lon="1.0737">
        <ele>63.6</ele>
      </trkpt>
      <trkpt lat="49.3795" lon="1.07367">
        <ele>63.7</ele>
      </trkpt>
      <trkpt lat="49.37955" lon="1.07353">
        <ele>65.1</ele>
      </trkpt>
      <trkpt lat="49.37958" lon="1.07341">
        <ele>65.8</ele>
      </trkpt>
      <trkpt lat="49.37966" lon="1.07315">
        <ele>66.7</ele>
      </trkpt>
      <trkpt lat="49.37973" lon="1.07298">
        <ele>66.7</ele>
      </trkpt>
      <trkpt lat="49.37973" lon="1.07298">
        <ele>66.7</ele>
      </trkpt>
      <trkpt lat="49.37991" lon="1.07245">
        <ele>65.1</ele>
      </trkpt>
      <trkpt lat="49.38012" lon="1.07181">
        <ele>63.7</ele>
      </trkpt>
      <trkpt lat="49.38026" lon="1.07138">
        <ele>63.7</ele>
      </trkpt>
      <trkpt lat="49.38031" lon="1.07125">
        <ele>63.5</ele>
      </trkpt>
      <trkpt lat="49.3804" lon="1.07098">
        <ele>63.1</ele>
      </trkpt>
      <trkpt lat="49.38041" lon="1.07095">
        <ele>63.1</ele>
      </trkpt>
      <trkpt lat="49.38043" lon="1.07092">
        <ele>63.1</ele>
      </trkpt>
      <trkpt lat="49.38049" lon="1.07069">
        <ele>63.1</ele>
      </trkpt>
      <trkpt lat="49.38063" lon="1.07024">
        <ele>63.4</ele>
      </trkpt>
      <trkpt lat="49.38065" lon="1.07016">
        <ele>63.5</ele>
      </trkpt>
      <trkpt lat="49.38067" lon="1.07009">
        <ele>63.7</ele>
      </trkpt>
      <trkpt lat="49.38071" lon="1.06995">
        <ele>64.2</ele>
      </trkpt>
      <trkpt lat="49.38077" lon="1.06975">
        <ele>64.5</ele>
      </trkpt>
      <trkpt lat="49.38093" lon="1.06928">
        <ele>63.2</ele>
      </trkpt>
      <trkpt lat="49.38093" lon="1.06928">
        <ele>63.2</ele>
      </trkpt>
      <trkpt lat="49.38103" lon="1.06891">
        <ele>62.8</ele>
      </trkpt>
      <trkpt lat="49.38107" lon="1.06878">
        <ele>62.9</ele>
      </trkpt>
      <trkpt lat="49.38113" lon="1.06858">
        <ele>63.1</ele>
      </trkpt>
      <trkpt lat="49.38119" lon="1.06846">
        <ele>63.4</ele>
      </trkpt>
      <trkpt lat="49.38122" lon="1.06839">
        <ele>63.5</ele>
      </trkpt>
      <trkpt lat="49.38127" lon="1.06826">
        <ele>63.9</ele>
      </trkpt>
      <trkpt lat="49.38129" lon="1.06818">
        <ele>64.1</ele>
      </trkpt>
      <trkpt lat="49.38131" lon="1.06801">
        <ele>64.7</ele>
      </trkpt>
      <trkpt lat="49.38131" lon="1.06786">
        <ele>65.3</ele>
      </trkpt>
      <trkpt lat="49.3813" lon="1.06773">
        <ele>65.9</ele>
      </trkpt>
      <trkpt lat="49.38128" lon="1.06757">
        <ele>66.8</ele>
      </trkpt>
      <trkpt lat="49.38124" lon="1.06739">
        <ele>68.1</ele>
      </trkpt>
      <trkpt lat="49.38121" lon="1.06726">
        <ele>69.1</ele>
      </trkpt>
      <trkpt lat="49.3811" lon="1.06705">
        <ele>71.6</ele>
      </trkpt>
      <trkpt lat="49.38099" lon="1.06692">
        <ele>73.1</ele>
      </trkpt>
      <trkpt lat="49.38087" lon="1.06679">
        <ele>74</ele>
      </trkpt>
      <trkpt lat="49.3808" lon="1.06671">
        <ele>74</ele>
      </trkpt>
      <trkpt lat="49.38071" lon="1.06663">
        <ele>73.7</ele>
      </trkpt>
      <trkpt lat="49.38064" lon="1.06655">
        <ele>73.1</ele>
      </trkpt>
      <trkpt lat="49.38063" lon="1.06645">
        <ele>72.5</ele>
      </trkpt>
      <trkpt lat="49.38063" lon="1.06638">
        <ele>72.2</ele>
      </trkpt>
      <trkpt lat="49.38064" lon="1.06631">
        <ele>72</ele>
      </trkpt>
      <trkpt lat="49.38065" lon="1.06616">
        <ele>71.9</ele>
      </trkpt>
      <trkpt lat="49.38064" lon="1.066">
        <ele>72.6</ele>
      </trkpt>
      <trkpt lat="49.38064" lon="1.066">
        <ele>72.6</ele>
      </trkpt>
      <trkpt lat="49.38061" lon="1.06586">
        <ele>73.5</ele>
      </trkpt>
      <trkpt lat="49.38058" lon="1.06556">
        <ele>75.4</ele>
      </trkpt>
      <trkpt lat="49.38053" lon="1.06516">
        <ele>76.1</ele>
      </trkpt>
      <trkpt lat="49.38052" lon="1.06509">
        <ele>76</ele>
      </trkpt>
      <trkpt lat="49.38053" lon="1.06472">
        <ele>75</ele>
      </trkpt>
      <trkpt lat="49.38053" lon="1.06464">
        <ele>74.8</ele>
      </trkpt>
      <trkpt lat="49.38058" lon="1.06442">
        <ele>74.2</ele>
      </trkpt>
      <trkpt lat="49.38062" lon="1.0643">
        <ele>74.2</ele>
      </trkpt>
      <trkpt lat="49.38064" lon="1.06423">
        <ele>74.2</ele>
      </trkpt>
      <trkpt lat="49.3807" lon="1.06399">
        <ele>74.3</ele>
      </trkpt>
      <trkpt lat="49.38074" lon="1.06386">
        <ele>74.3</ele>
      </trkpt>
      <trkpt lat="49.38078" lon="1.06372">
        <ele>74.4</ele>
      </trkpt>
      <trkpt lat="49.38086" lon="1.06343">
        <ele>74.2</ele>
      </trkpt>
      <trkpt lat="49.38089" lon="1.06327">
        <ele>73.9</ele>
      </trkpt>
      <trkpt lat="49.38094" lon="1.06313">
        <ele>73.6</ele>
      </trkpt>
      <trkpt lat="49.38102" lon="1.06282">
        <ele>73</ele>
      </trkpt>
      <trkpt lat="49.38106" lon="1.06269">
        <ele>72.8</ele>
      </trkpt>
      <trkpt lat="49.38119" lon="1.06225">
        <ele>71.9</ele>
      </trkpt>
      <trkpt lat="49.38122" lon="1.06223">
        <ele>71.9</ele>
      </trkpt>
      <trkpt lat="49.38129" lon="1.06212">
        <ele>72</ele>
      </trkpt>
      <trkpt lat="49.38146" lon="1.06188">
        <ele>73.1</ele>
      </trkpt>
      <trkpt lat="49.38153" lon="1.0618">
        <ele>73.4</ele>
      </trkpt>
      <trkpt lat="49.38161" lon="1.06174">
        <ele>73.6</ele>
      </trkpt>
      <trkpt lat="49.38166" lon="1.06171">
        <ele>73.6</ele>
      </trkpt>
      <trkpt lat="49.38192" lon="1.06161">
        <ele>74</ele>
      </trkpt>
      <trkpt lat="49.38226" lon="1.06149">
        <ele>74.9</ele>
      </trkpt>
      <trkpt lat="49.38232" lon="1.06147">
        <ele>75</ele>
      </trkpt>
      <trkpt lat="49.38264" lon="1.06136">
        <ele>75.4</ele>
      </trkpt>
      <trkpt lat="49.38298" lon="1.06126">
        <ele>75.9</ele>
      </trkpt>
      <trkpt lat="49.38308" lon="1.06123">
        <ele>76.2</ele>
      </trkpt>
      <trkpt lat="49.38319" lon="1.0612">
        <ele>76.3</ele>
      </trkpt>
      <trkpt lat="49.3833" lon="1.06117">
        <ele>76.2</ele>
      </trkpt>
      <trkpt lat="49.38375" lon="1.06104">
        <ele>75.3</ele>
      </trkpt>
      <trkpt lat="49.38397" lon="1.06096">
        <ele>75.2</ele>
      </trkpt>
      <trkpt lat="49.38408" lon="1.06094">
        <ele>75.1</ele>
      </trkpt>
      <trkpt lat="49.38432" lon="1.06088">
        <ele>75.5</ele>
      </trkpt>
      <trkpt lat="49.38445" lon="1.06086">
        <ele>75.5</ele>
      </trkpt>
      <trkpt lat="49.3848" lon="1.06078">
        <ele>75.9</ele>
      </trkpt>
      <trkpt lat="49.38516" lon="1.06066">
        <ele>75.2</ele>
      </trkpt>
      <trkpt lat="49.38516" lon="1.06066">
        <ele>75.2</ele>
      </trkpt>
      <trkpt lat="49.38532" lon="1.06062">
        <ele>74.7</ele>
      </trkpt>
      <trkpt lat="49.38538" lon="1.06061">
        <ele>74.6</ele>
      </trkpt>
      <trkpt lat="49.38595" lon="1.06044">
        <ele>73.6</ele>
      </trkpt>
      <trkpt lat="49.38618" lon="1.06035">
        <ele>73.6</ele>
      </trkpt>
      <trkpt lat="49.38655" lon="1.06024">
        <ele>73.9</ele>
      </trkpt>
      <trkpt lat="49.38704" lon="1.06011">
        <ele>73.9</ele>
      </trkpt>
      <trkpt lat="49.3874" lon="1.06002">
        <ele>73.1</ele>
      </trkpt>
      <trkpt lat="49.38774" lon="1.05992">
        <ele>72.9</ele>
      </trkpt>
      <trkpt lat="49.38796" lon="1.05983">
        <ele>72.8</ele>
      </trkpt>
      <trkpt lat="49.38819" lon="1.05977">
        <ele>72.8</ele>
      </trkpt>
      <trkpt lat="49.38834" lon="1.05972">
        <ele>72.8</ele>
      </trkpt>
      <trkpt lat="49.3885" lon="1.05969">
        <ele>72.7</ele>
      </trkpt>
      <trkpt lat="49.38863" lon="1.05965">
        <ele>72.7</ele>
      </trkpt>
      <trkpt lat="49.38864" lon="1.05965">
        <ele>72.7</ele>
      </trkpt>
      <trkpt lat="49.38867" lon="1.05963">
        <ele>72.7</ele>
      </trkpt>
      <trkpt lat="49.38869" lon="1.05963">
        <ele>72.7</ele>
      </trkpt>
      <trkpt lat="49.38885" lon="1.05961">
        <ele>72.9</ele>
      </trkpt>
      <trkpt lat="49.38897" lon="1.05951">
        <ele>73</ele>
      </trkpt>
      <trkpt lat="49.38904" lon="1.0595">
        <ele>73</ele>
      </trkpt>
      <trkpt lat="49.38912" lon="1.05951">
        <ele>73.1</ele>
      </trkpt>
      <trkpt lat="49.38943" lon="1.05942">
        <ele>73.4</ele>
      </trkpt>
      <trkpt lat="49.38999" lon="1.05925">
        <ele>72.8</ele>
      </trkpt>
      <trkpt lat="49.38999" lon="1.05925">
        <ele>72.8</ele>
      </trkpt>
      <trkpt lat="49.39039" lon="1.05915">
        <ele>71.8</ele>
      </trkpt>
      <trkpt lat="49.3909" lon="1.05902">
        <ele>70.8</ele>
      </trkpt>
      <trkpt lat="49.391" lon="1.05898">
        <ele>70.5</ele>
      </trkpt>
      <trkpt lat="49.39104" lon="1.05896">
        <ele>70.4</ele>
      </trkpt>
      <trkpt lat="49.39113" lon="1.05892">
        <ele>70.1</ele>
      </trkpt>
      <trkpt lat="49.39149" lon="1.0588">
        <ele>69.7</ele>
      </trkpt>
      <trkpt lat="49.39159" lon="1.05878">
        <ele>69.6</ele>
      </trkpt>
      <trkpt lat="49.39193" lon="1.05869">
        <ele>68.8</ele>
      </trkpt>
      <trkpt lat="49.39208" lon="1.05876">
        <ele>68.4</ele>
      </trkpt>
      <trkpt lat="49.39227" lon="1.05892">
        <ele>68.1</ele>
      </trkpt>
      <trkpt lat="49.39237" lon="1.05896">
        <ele>67.9</ele>
      </trkpt>
    </trkseg>
  </trk>
</gpx>